<?xml version="1.0" encoding="UTF-8" standalone="no" ?>
<gpx xmlns="http://www.topografix.com/GPX/1/1" xmlns:xsi="http://www.w3.org/2001/XMLSchema-instance" xsi:schemaLocation="http://www.topografix.com/GPX/1/1 http://www.topografix.com/GPX/1/1/gpx.xsd" version="1.1" creator="VisuGPX - https://www.visugpx.com">
  <metadata>
    <name>2017-04-03 Bike ride-Amberieux en Dombes O via Toussieux</name>
    <desc><![CDATA[2017-04-03 Bike ride-Amberieux en Dombes O via Toussieux]]></desc>
  </metadata>
  <wpt lat="45.92464" lon="4.73713">
    <ele>174</ele>
    <name><![CDATA[2017-04-03 10:37 (Start)]]></name>
  </wpt>
  <wpt lat="45.92463" lon="4.73702">
    <ele>174</ele>
    <name><![CDATA[2017-04-03 10:37 (End)]]></name>
    <desc><![CDATA[Created by Google My Tracks on Android  Name: 2017-04-03 10:37 Activity type: biking Description: - Total distance: 41.01 km (25.5 mi) Total time: 2:01:47 Moving time: 2:00:43 Average speed: 20.20 km/h (12.6 mi/h) Average moving speed: 20.38 km/h (12.7 mi/h) Max speed: 43.99 km/h (27.3 mi/h) Average pace: 2:58 min/km (4:47 min/mi) Average moving pace: 2:57 min/km (4:44 min/mi) Fastest pace: 1:22 min/km (2:12 min/mi) Max elevation: 334 m (1096 ft) Min elevation: 160 m (526 ft) Elevation gain: 799 m (2621 ft) Max grade: 15 % Min grade: -23 % Recorded: 03/04/2017 10:37]]></desc>
  </wpt>
  <trk>
    <name><![CDATA[2017-04-03 10:37]]></name>
    <trkseg>
      <trkpt lat="45.92464" lon="4.73713">
        <ele>174</ele>
        <time>2017-04-03T08:37:46.912Z</time>
      </trkpt>
      <trkpt lat="45.92468" lon="4.73702">
        <ele>174</ele>
        <time>2017-04-03T08:39:48Z</time>
      </trkpt>
      <trkpt lat="45.92468" lon="4.737">
        <ele>174</ele>
        <time>2017-04-03T08:39:49Z</time>
      </trkpt>
      <trkpt lat="45.92469" lon="4.73688">
        <ele>174</ele>
        <time>2017-04-03T08:39:53Z</time>
      </trkpt>
      <trkpt lat="45.9247" lon="4.73684">
        <ele>174</ele>
        <time>2017-04-03T08:39:54Z</time>
      </trkpt>
      <trkpt lat="45.9247" lon="4.73675">
        <ele>174</ele>
        <time>2017-04-03T08:39:56Z</time>
      </trkpt>
      <trkpt lat="45.9247" lon="4.73671">
        <ele>174</ele>
        <time>2017-04-03T08:39:57Z</time>
      </trkpt>
      <trkpt lat="45.92473" lon="4.73661">
        <ele>174</ele>
        <time>2017-04-03T08:39:59Z</time>
      </trkpt>
      <trkpt lat="45.92475" lon="4.73657">
        <ele>174</ele>
        <time>2017-04-03T08:40:00Z</time>
      </trkpt>
      <trkpt lat="45.9248" lon="4.73648">
        <ele>174</ele>
        <time>2017-04-03T08:40:02Z</time>
      </trkpt>
      <trkpt lat="45.92483" lon="4.73648">
        <ele>174</ele>
        <time>2017-04-03T08:40:03Z</time>
      </trkpt>
      <trkpt lat="45.92491" lon="4.73648">
        <ele>174</ele>
        <time>2017-04-03T08:40:05Z</time>
      </trkpt>
      <trkpt lat="45.92496" lon="4.73647">
        <ele>174</ele>
        <time>2017-04-03T08:40:06Z</time>
      </trkpt>
      <trkpt lat="45.925" lon="4.73646">
        <ele>174</ele>
        <time>2017-04-03T08:40:07Z</time>
      </trkpt>
      <trkpt lat="45.92505" lon="4.73645">
        <ele>174</ele>
        <time>2017-04-03T08:40:08Z</time>
      </trkpt>
      <trkpt lat="45.92509" lon="4.73643">
        <ele>174</ele>
        <time>2017-04-03T08:40:09Z</time>
      </trkpt>
      <trkpt lat="45.92514" lon="4.73642">
        <ele>174</ele>
        <time>2017-04-03T08:40:10Z</time>
      </trkpt>
      <trkpt lat="45.92518" lon="4.73642">
        <ele>173</ele>
        <time>2017-04-03T08:40:11Z</time>
      </trkpt>
      <trkpt lat="45.92524" lon="4.73641">
        <ele>173</ele>
        <time>2017-04-03T08:40:12Z</time>
      </trkpt>
      <trkpt lat="45.92529" lon="4.73641">
        <ele>173</ele>
        <time>2017-04-03T08:40:13Z</time>
      </trkpt>
      <trkpt lat="45.92534" lon="4.73639">
        <ele>173</ele>
        <time>2017-04-03T08:40:14Z</time>
      </trkpt>
      <trkpt lat="45.9254" lon="4.73639">
        <ele>173</ele>
        <time>2017-04-03T08:40:15Z</time>
      </trkpt>
      <trkpt lat="45.92545" lon="4.73636">
        <ele>173</ele>
        <time>2017-04-03T08:40:16Z</time>
      </trkpt>
      <trkpt lat="45.92553" lon="4.73635">
        <ele>173</ele>
        <time>2017-04-03T08:40:18Z</time>
      </trkpt>
      <trkpt lat="45.92558" lon="4.73634">
        <ele>173</ele>
        <time>2017-04-03T08:40:19Z</time>
      </trkpt>
      <trkpt lat="45.92562" lon="4.73631">
        <ele>173</ele>
        <time>2017-04-03T08:40:20Z</time>
      </trkpt>
      <trkpt lat="45.92567" lon="4.7363">
        <ele>173</ele>
        <time>2017-04-03T08:40:21Z</time>
      </trkpt>
      <trkpt lat="45.92572" lon="4.73628">
        <ele>173</ele>
        <time>2017-04-03T08:40:22Z</time>
      </trkpt>
      <trkpt lat="45.92577" lon="4.73627">
        <ele>173</ele>
        <time>2017-04-03T08:40:23Z</time>
      </trkpt>
      <trkpt lat="45.92582" lon="4.73625">
        <ele>173</ele>
        <time>2017-04-03T08:40:24Z</time>
      </trkpt>
      <trkpt lat="45.92587" lon="4.73624">
        <ele>173</ele>
        <time>2017-04-03T08:40:25Z</time>
      </trkpt>
      <trkpt lat="45.92592" lon="4.73623">
        <ele>173</ele>
        <time>2017-04-03T08:40:26Z</time>
      </trkpt>
      <trkpt lat="45.92598" lon="4.73623">
        <ele>173</ele>
        <time>2017-04-03T08:40:27Z</time>
      </trkpt>
      <trkpt lat="45.92603" lon="4.73624">
        <ele>173</ele>
        <time>2017-04-03T08:40:28Z</time>
      </trkpt>
      <trkpt lat="45.92609" lon="4.73626">
        <ele>173</ele>
        <time>2017-04-03T08:40:29Z</time>
      </trkpt>
      <trkpt lat="45.92615" lon="4.73628">
        <ele>173</ele>
        <time>2017-04-03T08:40:30Z</time>
      </trkpt>
      <trkpt lat="45.9262" lon="4.73633">
        <ele>173</ele>
        <time>2017-04-03T08:40:31Z</time>
      </trkpt>
      <trkpt lat="45.92625" lon="4.73637">
        <ele>173</ele>
        <time>2017-04-03T08:40:32Z</time>
      </trkpt>
      <trkpt lat="45.92628" lon="4.73645">
        <ele>173</ele>
        <time>2017-04-03T08:40:33Z</time>
      </trkpt>
      <trkpt lat="45.92629" lon="4.73653">
        <ele>173</ele>
        <time>2017-04-03T08:40:34Z</time>
      </trkpt>
      <trkpt lat="45.92632" lon="4.7366">
        <ele>173</ele>
        <time>2017-04-03T08:40:35Z</time>
      </trkpt>
      <trkpt lat="45.92635" lon="4.73667">
        <ele>173</ele>
        <time>2017-04-03T08:40:36Z</time>
      </trkpt>
      <trkpt lat="45.92639" lon="4.73673">
        <ele>173</ele>
        <time>2017-04-03T08:40:37Z</time>
      </trkpt>
      <trkpt lat="45.92642" lon="4.73679">
        <ele>173</ele>
        <time>2017-04-03T08:40:38Z</time>
      </trkpt>
      <trkpt lat="45.92645" lon="4.73685">
        <ele>173</ele>
        <time>2017-04-03T08:40:39Z</time>
      </trkpt>
      <trkpt lat="45.92648" lon="4.7369">
        <ele>173</ele>
        <time>2017-04-03T08:40:40Z</time>
      </trkpt>
      <trkpt lat="45.92652" lon="4.73694">
        <ele>173</ele>
        <time>2017-04-03T08:40:41Z</time>
      </trkpt>
      <trkpt lat="45.92656" lon="4.73698">
        <ele>173</ele>
        <time>2017-04-03T08:40:42Z</time>
      </trkpt>
      <trkpt lat="45.92661" lon="4.73701">
        <ele>173</ele>
        <time>2017-04-03T08:40:43Z</time>
      </trkpt>
      <trkpt lat="45.92666" lon="4.73704">
        <ele>173</ele>
        <time>2017-04-03T08:40:44Z</time>
      </trkpt>
      <trkpt lat="45.9267" lon="4.73706">
        <ele>174</ele>
        <time>2017-04-03T08:40:45Z</time>
      </trkpt>
      <trkpt lat="45.92677" lon="4.73709">
        <ele>173</ele>
        <time>2017-04-03T08:40:46Z</time>
      </trkpt>
      <trkpt lat="45.92682" lon="4.7371">
        <ele>173</ele>
        <time>2017-04-03T08:40:47Z</time>
      </trkpt>
      <trkpt lat="45.92688" lon="4.7371">
        <ele>173</ele>
        <time>2017-04-03T08:40:48Z</time>
      </trkpt>
      <trkpt lat="45.92694" lon="4.73711">
        <ele>173</ele>
        <time>2017-04-03T08:40:49Z</time>
      </trkpt>
      <trkpt lat="45.927" lon="4.73712">
        <ele>173</ele>
        <time>2017-04-03T08:40:50Z</time>
      </trkpt>
      <trkpt lat="45.92706" lon="4.73713">
        <ele>173</ele>
        <time>2017-04-03T08:40:51Z</time>
      </trkpt>
      <trkpt lat="45.92711" lon="4.73714">
        <ele>173</ele>
        <time>2017-04-03T08:40:52Z</time>
      </trkpt>
      <trkpt lat="45.92717" lon="4.73715">
        <ele>173</ele>
        <time>2017-04-03T08:40:53Z</time>
      </trkpt>
      <trkpt lat="45.92722" lon="4.73717">
        <ele>173</ele>
        <time>2017-04-03T08:40:54Z</time>
      </trkpt>
      <trkpt lat="45.92727" lon="4.73718">
        <ele>173</ele>
        <time>2017-04-03T08:40:55Z</time>
      </trkpt>
      <trkpt lat="45.92732" lon="4.73719">
        <ele>173</ele>
        <time>2017-04-03T08:40:56Z</time>
      </trkpt>
      <trkpt lat="45.92738" lon="4.7372">
        <ele>173</ele>
        <time>2017-04-03T08:40:57Z</time>
      </trkpt>
      <trkpt lat="45.92743" lon="4.7372">
        <ele>173</ele>
        <time>2017-04-03T08:40:58Z</time>
      </trkpt>
      <trkpt lat="45.92748" lon="4.73721">
        <ele>173</ele>
        <time>2017-04-03T08:40:59Z</time>
      </trkpt>
      <trkpt lat="45.92753" lon="4.7372">
        <ele>172</ele>
        <time>2017-04-03T08:41:00Z</time>
      </trkpt>
      <trkpt lat="45.92757" lon="4.73721">
        <ele>172</ele>
        <time>2017-04-03T08:41:01Z</time>
      </trkpt>
      <trkpt lat="45.92762" lon="4.73723">
        <ele>172</ele>
        <time>2017-04-03T08:41:02Z</time>
      </trkpt>
      <trkpt lat="45.92768" lon="4.73725">
        <ele>172</ele>
        <time>2017-04-03T08:41:03Z</time>
      </trkpt>
      <trkpt lat="45.92772" lon="4.73727">
        <ele>172</ele>
        <time>2017-04-03T08:41:04Z</time>
      </trkpt>
      <trkpt lat="45.92777" lon="4.73729">
        <ele>172</ele>
        <time>2017-04-03T08:41:05Z</time>
      </trkpt>
      <trkpt lat="45.92782" lon="4.73733">
        <ele>172</ele>
        <time>2017-04-03T08:41:06Z</time>
      </trkpt>
      <trkpt lat="45.92785" lon="4.73738">
        <ele>172</ele>
        <time>2017-04-03T08:41:07Z</time>
      </trkpt>
      <trkpt lat="45.92787" lon="4.7375">
        <ele>172</ele>
        <time>2017-04-03T08:41:09Z</time>
      </trkpt>
      <trkpt lat="45.92789" lon="4.73754">
        <ele>173</ele>
        <time>2017-04-03T08:41:10Z</time>
      </trkpt>
      <trkpt lat="45.92795" lon="4.73758">
        <ele>173</ele>
        <time>2017-04-03T08:41:11Z</time>
      </trkpt>
      <trkpt lat="45.92798" lon="4.73761">
        <ele>173</ele>
        <time>2017-04-03T08:41:12Z</time>
      </trkpt>
      <trkpt lat="45.92803" lon="4.73764">
        <ele>173</ele>
        <time>2017-04-03T08:41:13Z</time>
      </trkpt>
      <trkpt lat="45.92808" lon="4.73768">
        <ele>173</ele>
        <time>2017-04-03T08:41:14Z</time>
      </trkpt>
      <trkpt lat="45.92812" lon="4.73771">
        <ele>173</ele>
        <time>2017-04-03T08:41:15Z</time>
      </trkpt>
      <trkpt lat="45.92817" lon="4.73775">
        <ele>173</ele>
        <time>2017-04-03T08:41:16Z</time>
      </trkpt>
      <trkpt lat="45.92823" lon="4.73779">
        <ele>173</ele>
        <time>2017-04-03T08:41:17Z</time>
      </trkpt>
      <trkpt lat="45.92828" lon="4.73784">
        <ele>173</ele>
        <time>2017-04-03T08:41:18Z</time>
      </trkpt>
      <trkpt lat="45.92833" lon="4.73788">
        <ele>173</ele>
        <time>2017-04-03T08:41:19Z</time>
      </trkpt>
      <trkpt lat="45.92838" lon="4.73791">
        <ele>173</ele>
        <time>2017-04-03T08:41:20Z</time>
      </trkpt>
      <trkpt lat="45.92843" lon="4.73795">
        <ele>173</ele>
        <time>2017-04-03T08:41:21Z</time>
      </trkpt>
      <trkpt lat="45.92848" lon="4.73799">
        <ele>173</ele>
        <time>2017-04-03T08:41:22Z</time>
      </trkpt>
      <trkpt lat="45.92851" lon="4.73804">
        <ele>173</ele>
        <time>2017-04-03T08:41:23Z</time>
      </trkpt>
      <trkpt lat="45.92855" lon="4.73811">
        <ele>173</ele>
        <time>2017-04-03T08:41:24Z</time>
      </trkpt>
      <trkpt lat="45.92858" lon="4.73818">
        <ele>173</ele>
        <time>2017-04-03T08:41:25Z</time>
      </trkpt>
      <trkpt lat="45.92861" lon="4.73825">
        <ele>173</ele>
        <time>2017-04-03T08:41:26Z</time>
      </trkpt>
      <trkpt lat="45.92863" lon="4.73832">
        <ele>173</ele>
        <time>2017-04-03T08:41:27Z</time>
      </trkpt>
      <trkpt lat="45.92866" lon="4.73839">
        <ele>173</ele>
        <time>2017-04-03T08:41:28Z</time>
      </trkpt>
      <trkpt lat="45.92868" lon="4.73846">
        <ele>173</ele>
        <time>2017-04-03T08:41:29Z</time>
      </trkpt>
      <trkpt lat="45.92871" lon="4.73853">
        <ele>173</ele>
        <time>2017-04-03T08:41:30Z</time>
      </trkpt>
      <trkpt lat="45.92873" lon="4.73861">
        <ele>173</ele>
        <time>2017-04-03T08:41:31Z</time>
      </trkpt>
      <trkpt lat="45.92876" lon="4.73869">
        <ele>173</ele>
        <time>2017-04-03T08:41:32Z</time>
      </trkpt>
      <trkpt lat="45.92878" lon="4.73876">
        <ele>173</ele>
        <time>2017-04-03T08:41:33Z</time>
      </trkpt>
      <trkpt lat="45.9288" lon="4.73884">
        <ele>173</ele>
        <time>2017-04-03T08:41:34Z</time>
      </trkpt>
      <trkpt lat="45.92881" lon="4.73892">
        <ele>173</ele>
        <time>2017-04-03T08:41:35Z</time>
      </trkpt>
      <trkpt lat="45.92883" lon="4.73899">
        <ele>173</ele>
        <time>2017-04-03T08:41:36Z</time>
      </trkpt>
      <trkpt lat="45.92883" lon="4.73906">
        <ele>173</ele>
        <time>2017-04-03T08:41:37Z</time>
      </trkpt>
      <trkpt lat="45.92884" lon="4.73913">
        <ele>173</ele>
        <time>2017-04-03T08:41:38Z</time>
      </trkpt>
      <trkpt lat="45.92885" lon="4.73921">
        <ele>172</ele>
        <time>2017-04-03T08:41:39Z</time>
      </trkpt>
      <trkpt lat="45.92884" lon="4.73929">
        <ele>172</ele>
        <time>2017-04-03T08:41:40Z</time>
      </trkpt>
      <trkpt lat="45.92884" lon="4.73936">
        <ele>172</ele>
        <time>2017-04-03T08:41:41Z</time>
      </trkpt>
      <trkpt lat="45.92884" lon="4.73943">
        <ele>172</ele>
        <time>2017-04-03T08:41:42Z</time>
      </trkpt>
      <trkpt lat="45.92885" lon="4.73951">
        <ele>172</ele>
        <time>2017-04-03T08:41:43Z</time>
      </trkpt>
      <trkpt lat="45.92884" lon="4.73958">
        <ele>172</ele>
        <time>2017-04-03T08:41:44Z</time>
      </trkpt>
      <trkpt lat="45.92884" lon="4.73966">
        <ele>172</ele>
        <time>2017-04-03T08:41:45Z</time>
      </trkpt>
      <trkpt lat="45.92883" lon="4.73974">
        <ele>172</ele>
        <time>2017-04-03T08:41:46Z</time>
      </trkpt>
      <trkpt lat="45.92883" lon="4.73981">
        <ele>172</ele>
        <time>2017-04-03T08:41:47Z</time>
      </trkpt>
      <trkpt lat="45.92884" lon="4.73987">
        <ele>172</ele>
        <time>2017-04-03T08:41:48Z</time>
      </trkpt>
      <trkpt lat="45.92883" lon="4.73993">
        <ele>172</ele>
        <time>2017-04-03T08:41:49Z</time>
      </trkpt>
      <trkpt lat="45.92882" lon="4.74">
        <ele>172</ele>
        <time>2017-04-03T08:41:50Z</time>
      </trkpt>
      <trkpt lat="45.9288" lon="4.74008">
        <ele>172</ele>
        <time>2017-04-03T08:41:51Z</time>
      </trkpt>
      <trkpt lat="45.92879" lon="4.74015">
        <ele>172</ele>
        <time>2017-04-03T08:41:52Z</time>
      </trkpt>
      <trkpt lat="45.92876" lon="4.74022">
        <ele>172</ele>
        <time>2017-04-03T08:41:53Z</time>
      </trkpt>
      <trkpt lat="45.92874" lon="4.7403">
        <ele>172</ele>
        <time>2017-04-03T08:41:54Z</time>
      </trkpt>
      <trkpt lat="45.9287" lon="4.74036">
        <ele>172</ele>
        <time>2017-04-03T08:41:55Z</time>
      </trkpt>
      <trkpt lat="45.92866" lon="4.74042">
        <ele>172</ele>
        <time>2017-04-03T08:41:56Z</time>
      </trkpt>
      <trkpt lat="45.92862" lon="4.74047">
        <ele>172</ele>
        <time>2017-04-03T08:41:57Z</time>
      </trkpt>
      <trkpt lat="45.92857" lon="4.74052">
        <ele>172</ele>
        <time>2017-04-03T08:41:58Z</time>
      </trkpt>
      <trkpt lat="45.92853" lon="4.74057">
        <ele>172</ele>
        <time>2017-04-03T08:41:59Z</time>
      </trkpt>
      <trkpt lat="45.92848" lon="4.74061">
        <ele>172</ele>
        <time>2017-04-03T08:42:00Z</time>
      </trkpt>
      <trkpt lat="45.92843" lon="4.74066">
        <ele>172</ele>
        <time>2017-04-03T08:42:01Z</time>
      </trkpt>
      <trkpt lat="45.92839" lon="4.74071">
        <ele>172</ele>
        <time>2017-04-03T08:42:02Z</time>
      </trkpt>
      <trkpt lat="45.92834" lon="4.74077">
        <ele>171</ele>
        <time>2017-04-03T08:42:03Z</time>
      </trkpt>
      <trkpt lat="45.92829" lon="4.74082">
        <ele>171</ele>
        <time>2017-04-03T08:42:04Z</time>
      </trkpt>
      <trkpt lat="45.92825" lon="4.74088">
        <ele>171</ele>
        <time>2017-04-03T08:42:05Z</time>
      </trkpt>
      <trkpt lat="45.9282" lon="4.74094">
        <ele>171</ele>
        <time>2017-04-03T08:42:06Z</time>
      </trkpt>
      <trkpt lat="45.92815" lon="4.74099">
        <ele>171</ele>
        <time>2017-04-03T08:42:07Z</time>
      </trkpt>
      <trkpt lat="45.9281" lon="4.74105">
        <ele>172</ele>
        <time>2017-04-03T08:42:08Z</time>
      </trkpt>
      <trkpt lat="45.92806" lon="4.74111">
        <ele>172</ele>
        <time>2017-04-03T08:42:09Z</time>
      </trkpt>
      <trkpt lat="45.92801" lon="4.74116">
        <ele>172</ele>
        <time>2017-04-03T08:42:10Z</time>
      </trkpt>
      <trkpt lat="45.92796" lon="4.74121">
        <ele>172</ele>
        <time>2017-04-03T08:42:11Z</time>
      </trkpt>
      <trkpt lat="45.92791" lon="4.74126">
        <ele>172</ele>
        <time>2017-04-03T08:42:12Z</time>
      </trkpt>
      <trkpt lat="45.92786" lon="4.74131">
        <ele>172</ele>
        <time>2017-04-03T08:42:13Z</time>
      </trkpt>
      <trkpt lat="45.92781" lon="4.74136">
        <ele>172</ele>
        <time>2017-04-03T08:42:14Z</time>
      </trkpt>
      <trkpt lat="45.92776" lon="4.74141">
        <ele>172</ele>
        <time>2017-04-03T08:42:15Z</time>
      </trkpt>
      <trkpt lat="45.92771" lon="4.74146">
        <ele>172</ele>
        <time>2017-04-03T08:42:16Z</time>
      </trkpt>
      <trkpt lat="45.92767" lon="4.74152">
        <ele>172</ele>
        <time>2017-04-03T08:42:17Z</time>
      </trkpt>
      <trkpt lat="45.92763" lon="4.74158">
        <ele>172</ele>
        <time>2017-04-03T08:42:18Z</time>
      </trkpt>
      <trkpt lat="45.92759" lon="4.74165">
        <ele>172</ele>
        <time>2017-04-03T08:42:19Z</time>
      </trkpt>
      <trkpt lat="45.92755" lon="4.74171">
        <ele>172</ele>
        <time>2017-04-03T08:42:20Z</time>
      </trkpt>
      <trkpt lat="45.9275" lon="4.74176">
        <ele>172</ele>
        <time>2017-04-03T08:42:21Z</time>
      </trkpt>
      <trkpt lat="45.92746" lon="4.74182">
        <ele>172</ele>
        <time>2017-04-03T08:42:22Z</time>
      </trkpt>
      <trkpt lat="45.92741" lon="4.74187">
        <ele>172</ele>
        <time>2017-04-03T08:42:23Z</time>
      </trkpt>
      <trkpt lat="45.92736" lon="4.74194">
        <ele>171</ele>
        <time>2017-04-03T08:42:24Z</time>
      </trkpt>
      <trkpt lat="45.92731" lon="4.742">
        <ele>171</ele>
        <time>2017-04-03T08:42:25Z</time>
      </trkpt>
      <trkpt lat="45.92727" lon="4.74206">
        <ele>171</ele>
        <time>2017-04-03T08:42:26Z</time>
      </trkpt>
      <trkpt lat="45.92723" lon="4.74212">
        <ele>171</ele>
        <time>2017-04-03T08:42:27Z</time>
      </trkpt>
      <trkpt lat="45.92719" lon="4.74218">
        <ele>171</ele>
        <time>2017-04-03T08:42:28Z</time>
      </trkpt>
      <trkpt lat="45.92714" lon="4.74224">
        <ele>171</ele>
        <time>2017-04-03T08:42:29Z</time>
      </trkpt>
      <trkpt lat="45.9271" lon="4.7423">
        <ele>171</ele>
        <time>2017-04-03T08:42:30Z</time>
      </trkpt>
      <trkpt lat="45.92706" lon="4.74236">
        <ele>171</ele>
        <time>2017-04-03T08:42:31Z</time>
      </trkpt>
      <trkpt lat="45.92702" lon="4.74242">
        <ele>171</ele>
        <time>2017-04-03T08:42:32Z</time>
      </trkpt>
      <trkpt lat="45.92699" lon="4.74249">
        <ele>171</ele>
        <time>2017-04-03T08:42:33Z</time>
      </trkpt>
      <trkpt lat="45.92694" lon="4.74256">
        <ele>171</ele>
        <time>2017-04-03T08:42:34Z</time>
      </trkpt>
      <trkpt lat="45.9269" lon="4.74262">
        <ele>171</ele>
        <time>2017-04-03T08:42:35Z</time>
      </trkpt>
      <trkpt lat="45.92686" lon="4.74269">
        <ele>171</ele>
        <time>2017-04-03T08:42:36Z</time>
      </trkpt>
      <trkpt lat="45.92683" lon="4.74276">
        <ele>171</ele>
        <time>2017-04-03T08:42:37Z</time>
      </trkpt>
      <trkpt lat="45.92679" lon="4.74283">
        <ele>171</ele>
        <time>2017-04-03T08:42:38Z</time>
      </trkpt>
      <trkpt lat="45.92675" lon="4.7429">
        <ele>171</ele>
        <time>2017-04-03T08:42:39Z</time>
      </trkpt>
      <trkpt lat="45.92671" lon="4.74297">
        <ele>171</ele>
        <time>2017-04-03T08:42:40Z</time>
      </trkpt>
      <trkpt lat="45.92667" lon="4.74304">
        <ele>171</ele>
        <time>2017-04-03T08:42:41Z</time>
      </trkpt>
      <trkpt lat="45.92663" lon="4.74311">
        <ele>171</ele>
        <time>2017-04-03T08:42:42Z</time>
      </trkpt>
      <trkpt lat="45.92659" lon="4.74318">
        <ele>171</ele>
        <time>2017-04-03T08:42:43Z</time>
      </trkpt>
      <trkpt lat="45.92655" lon="4.74325">
        <ele>171</ele>
        <time>2017-04-03T08:42:44Z</time>
      </trkpt>
      <trkpt lat="45.92651" lon="4.74333">
        <ele>171</ele>
        <time>2017-04-03T08:42:45Z</time>
      </trkpt>
      <trkpt lat="45.92647" lon="4.7434">
        <ele>171</ele>
        <time>2017-04-03T08:42:46Z</time>
      </trkpt>
      <trkpt lat="45.92642" lon="4.74347">
        <ele>171</ele>
        <time>2017-04-03T08:42:47Z</time>
      </trkpt>
      <trkpt lat="45.92638" lon="4.74354">
        <ele>171</ele>
        <time>2017-04-03T08:42:48Z</time>
      </trkpt>
      <trkpt lat="45.92633" lon="4.74362">
        <ele>171</ele>
        <time>2017-04-03T08:42:49Z</time>
      </trkpt>
      <trkpt lat="45.92629" lon="4.74369">
        <ele>171</ele>
        <time>2017-04-03T08:42:50Z</time>
      </trkpt>
      <trkpt lat="45.92625" lon="4.74376">
        <ele>170</ele>
        <time>2017-04-03T08:42:51Z</time>
      </trkpt>
      <trkpt lat="45.9262" lon="4.74384">
        <ele>170</ele>
        <time>2017-04-03T08:42:52Z</time>
      </trkpt>
      <trkpt lat="45.92616" lon="4.74391">
        <ele>170</ele>
        <time>2017-04-03T08:42:53Z</time>
      </trkpt>
      <trkpt lat="45.92612" lon="4.74399">
        <ele>170</ele>
        <time>2017-04-03T08:42:54Z</time>
      </trkpt>
      <trkpt lat="45.92608" lon="4.74406">
        <ele>170</ele>
        <time>2017-04-03T08:42:55Z</time>
      </trkpt>
      <trkpt lat="45.92604" lon="4.74414">
        <ele>170</ele>
        <time>2017-04-03T08:42:56Z</time>
      </trkpt>
      <trkpt lat="45.92599" lon="4.74422">
        <ele>170</ele>
        <time>2017-04-03T08:42:57Z</time>
      </trkpt>
      <trkpt lat="45.92595" lon="4.7443">
        <ele>170</ele>
        <time>2017-04-03T08:42:58Z</time>
      </trkpt>
      <trkpt lat="45.9259" lon="4.74438">
        <ele>170</ele>
        <time>2017-04-03T08:42:59Z</time>
      </trkpt>
      <trkpt lat="45.92585" lon="4.74445">
        <ele>170</ele>
        <time>2017-04-03T08:43:00Z</time>
      </trkpt>
      <trkpt lat="45.9258" lon="4.74452">
        <ele>170</ele>
        <time>2017-04-03T08:43:01Z</time>
      </trkpt>
      <trkpt lat="45.92576" lon="4.7446">
        <ele>170</ele>
        <time>2017-04-03T08:43:02Z</time>
      </trkpt>
      <trkpt lat="45.92572" lon="4.74467">
        <ele>170</ele>
        <time>2017-04-03T08:43:03Z</time>
      </trkpt>
      <trkpt lat="45.92568" lon="4.74475">
        <ele>170</ele>
        <time>2017-04-03T08:43:04Z</time>
      </trkpt>
      <trkpt lat="45.92564" lon="4.74483">
        <ele>170</ele>
        <time>2017-04-03T08:43:05Z</time>
      </trkpt>
      <trkpt lat="45.9256" lon="4.74491">
        <ele>170</ele>
        <time>2017-04-03T08:43:06Z</time>
      </trkpt>
      <trkpt lat="45.92556" lon="4.74499">
        <ele>170</ele>
        <time>2017-04-03T08:43:07Z</time>
      </trkpt>
      <trkpt lat="45.92552" lon="4.74507">
        <ele>170</ele>
        <time>2017-04-03T08:43:08Z</time>
      </trkpt>
      <trkpt lat="45.92548" lon="4.74516">
        <ele>170</ele>
        <time>2017-04-03T08:43:09Z</time>
      </trkpt>
      <trkpt lat="45.92543" lon="4.74524">
        <ele>170</ele>
        <time>2017-04-03T08:43:10Z</time>
      </trkpt>
      <trkpt lat="45.92539" lon="4.74532">
        <ele>171</ele>
        <time>2017-04-03T08:43:11Z</time>
      </trkpt>
      <trkpt lat="45.92535" lon="4.7454">
        <ele>171</ele>
        <time>2017-04-03T08:43:12Z</time>
      </trkpt>
      <trkpt lat="45.9253" lon="4.74548">
        <ele>171</ele>
        <time>2017-04-03T08:43:13Z</time>
      </trkpt>
      <trkpt lat="45.92525" lon="4.74556">
        <ele>171</ele>
        <time>2017-04-03T08:43:14Z</time>
      </trkpt>
      <trkpt lat="45.92519" lon="4.74563">
        <ele>171</ele>
        <time>2017-04-03T08:43:15Z</time>
      </trkpt>
      <trkpt lat="45.92513" lon="4.7457">
        <ele>171</ele>
        <time>2017-04-03T08:43:16Z</time>
      </trkpt>
      <trkpt lat="45.92507" lon="4.74576">
        <ele>171</ele>
        <time>2017-04-03T08:43:17Z</time>
      </trkpt>
      <trkpt lat="45.92501" lon="4.74582">
        <ele>171</ele>
        <time>2017-04-03T08:43:18Z</time>
      </trkpt>
      <trkpt lat="45.92496" lon="4.74588">
        <ele>171</ele>
        <time>2017-04-03T08:43:19Z</time>
      </trkpt>
      <trkpt lat="45.9249" lon="4.74595">
        <ele>171</ele>
        <time>2017-04-03T08:43:20Z</time>
      </trkpt>
      <trkpt lat="45.92487" lon="4.74603">
        <ele>171</ele>
        <time>2017-04-03T08:43:21Z</time>
      </trkpt>
      <trkpt lat="45.92482" lon="4.7461">
        <ele>171</ele>
        <time>2017-04-03T08:43:22Z</time>
      </trkpt>
      <trkpt lat="45.92479" lon="4.74618">
        <ele>171</ele>
        <time>2017-04-03T08:43:23Z</time>
      </trkpt>
      <trkpt lat="45.92474" lon="4.74625">
        <ele>171</ele>
        <time>2017-04-03T08:43:24Z</time>
      </trkpt>
      <trkpt lat="45.9247" lon="4.74633">
        <ele>171</ele>
        <time>2017-04-03T08:43:25Z</time>
      </trkpt>
      <trkpt lat="45.92466" lon="4.7464">
        <ele>171</ele>
        <time>2017-04-03T08:43:26Z</time>
      </trkpt>
      <trkpt lat="45.92462" lon="4.74648">
        <ele>171</ele>
        <time>2017-04-03T08:43:27Z</time>
      </trkpt>
      <trkpt lat="45.92458" lon="4.74655">
        <ele>171</ele>
        <time>2017-04-03T08:43:28Z</time>
      </trkpt>
      <trkpt lat="45.92454" lon="4.74662">
        <ele>171</ele>
        <time>2017-04-03T08:43:29Z</time>
      </trkpt>
      <trkpt lat="45.92451" lon="4.7467">
        <ele>171</ele>
        <time>2017-04-03T08:43:30Z</time>
      </trkpt>
      <trkpt lat="45.92447" lon="4.74678">
        <ele>171</ele>
        <time>2017-04-03T08:43:31Z</time>
      </trkpt>
      <trkpt lat="45.92444" lon="4.74685">
        <ele>171</ele>
        <time>2017-04-03T08:43:32Z</time>
      </trkpt>
      <trkpt lat="45.92439" lon="4.74693">
        <ele>171</ele>
        <time>2017-04-03T08:43:33Z</time>
      </trkpt>
      <trkpt lat="45.92436" lon="4.74701">
        <ele>171</ele>
        <time>2017-04-03T08:43:34Z</time>
      </trkpt>
      <trkpt lat="45.92433" lon="4.74709">
        <ele>171</ele>
        <time>2017-04-03T08:43:35Z</time>
      </trkpt>
      <trkpt lat="45.92429" lon="4.74718">
        <ele>171</ele>
        <time>2017-04-03T08:43:36Z</time>
      </trkpt>
      <trkpt lat="45.92426" lon="4.74726">
        <ele>171</ele>
        <time>2017-04-03T08:43:37Z</time>
      </trkpt>
      <trkpt lat="45.92423" lon="4.74735">
        <ele>171</ele>
        <time>2017-04-03T08:43:38Z</time>
      </trkpt>
      <trkpt lat="45.9242" lon="4.74744">
        <ele>172</ele>
        <time>2017-04-03T08:43:39Z</time>
      </trkpt>
      <trkpt lat="45.92417" lon="4.74754">
        <ele>172</ele>
        <time>2017-04-03T08:43:40Z</time>
      </trkpt>
      <trkpt lat="45.92414" lon="4.74763">
        <ele>172</ele>
        <time>2017-04-03T08:43:41Z</time>
      </trkpt>
      <trkpt lat="45.92412" lon="4.74772">
        <ele>172</ele>
        <time>2017-04-03T08:43:42Z</time>
      </trkpt>
      <trkpt lat="45.92409" lon="4.74781">
        <ele>171</ele>
        <time>2017-04-03T08:43:43Z</time>
      </trkpt>
      <trkpt lat="45.92406" lon="4.74791">
        <ele>171</ele>
        <time>2017-04-03T08:43:44Z</time>
      </trkpt>
      <trkpt lat="45.92404" lon="4.74801">
        <ele>171</ele>
        <time>2017-04-03T08:43:45Z</time>
      </trkpt>
      <trkpt lat="45.92402" lon="4.7481">
        <ele>171</ele>
        <time>2017-04-03T08:43:46Z</time>
      </trkpt>
      <trkpt lat="45.924" lon="4.7482">
        <ele>171</ele>
        <time>2017-04-03T08:43:47Z</time>
      </trkpt>
      <trkpt lat="45.92398" lon="4.74829">
        <ele>171</ele>
        <time>2017-04-03T08:43:48Z</time>
      </trkpt>
      <trkpt lat="45.92396" lon="4.74839">
        <ele>171</ele>
        <time>2017-04-03T08:43:49Z</time>
      </trkpt>
      <trkpt lat="45.92393" lon="4.74848">
        <ele>171</ele>
        <time>2017-04-03T08:43:50Z</time>
      </trkpt>
      <trkpt lat="45.9239" lon="4.74857">
        <ele>171</ele>
        <time>2017-04-03T08:43:51Z</time>
      </trkpt>
      <trkpt lat="45.92386" lon="4.74867">
        <ele>171</ele>
        <time>2017-04-03T08:43:52Z</time>
      </trkpt>
      <trkpt lat="45.92382" lon="4.74875">
        <ele>171</ele>
        <time>2017-04-03T08:43:53Z</time>
      </trkpt>
      <trkpt lat="45.92379" lon="4.74885">
        <ele>171</ele>
        <time>2017-04-03T08:43:54Z</time>
      </trkpt>
      <trkpt lat="45.92376" lon="4.74893">
        <ele>171</ele>
        <time>2017-04-03T08:43:55Z</time>
      </trkpt>
      <trkpt lat="45.92373" lon="4.74902">
        <ele>171</ele>
        <time>2017-04-03T08:43:56Z</time>
      </trkpt>
      <trkpt lat="45.9237" lon="4.74912">
        <ele>171</ele>
        <time>2017-04-03T08:43:57Z</time>
      </trkpt>
      <trkpt lat="45.92367" lon="4.7492">
        <ele>170</ele>
        <time>2017-04-03T08:43:58Z</time>
      </trkpt>
      <trkpt lat="45.92364" lon="4.74929">
        <ele>170</ele>
        <time>2017-04-03T08:43:59Z</time>
      </trkpt>
      <trkpt lat="45.9236" lon="4.74937">
        <ele>170</ele>
        <time>2017-04-03T08:44:00Z</time>
      </trkpt>
      <trkpt lat="45.92357" lon="4.74945">
        <ele>170</ele>
        <time>2017-04-03T08:44:01Z</time>
      </trkpt>
      <trkpt lat="45.92353" lon="4.74953">
        <ele>170</ele>
        <time>2017-04-03T08:44:02Z</time>
      </trkpt>
      <trkpt lat="45.9235" lon="4.74961">
        <ele>170</ele>
        <time>2017-04-03T08:44:03Z</time>
      </trkpt>
      <trkpt lat="45.92346" lon="4.74969">
        <ele>170</ele>
        <time>2017-04-03T08:44:04Z</time>
      </trkpt>
      <trkpt lat="45.92343" lon="4.74978">
        <ele>170</ele>
        <time>2017-04-03T08:44:05Z</time>
      </trkpt>
      <trkpt lat="45.9234" lon="4.74986">
        <ele>170</ele>
        <time>2017-04-03T08:44:06Z</time>
      </trkpt>
      <trkpt lat="45.92336" lon="4.74993">
        <ele>170</ele>
        <time>2017-04-03T08:44:07Z</time>
      </trkpt>
      <trkpt lat="45.92332" lon="4.75">
        <ele>170</ele>
        <time>2017-04-03T08:44:08Z</time>
      </trkpt>
      <trkpt lat="45.92328" lon="4.75008">
        <ele>171</ele>
        <time>2017-04-03T08:44:09Z</time>
      </trkpt>
      <trkpt lat="45.92324" lon="4.75016">
        <ele>171</ele>
        <time>2017-04-03T08:44:10Z</time>
      </trkpt>
      <trkpt lat="45.9232" lon="4.75023">
        <ele>171</ele>
        <time>2017-04-03T08:44:11Z</time>
      </trkpt>
      <trkpt lat="45.92316" lon="4.75031">
        <ele>171</ele>
        <time>2017-04-03T08:44:12Z</time>
      </trkpt>
      <trkpt lat="45.92312" lon="4.75038">
        <ele>172</ele>
        <time>2017-04-03T08:44:13Z</time>
      </trkpt>
      <trkpt lat="45.92308" lon="4.75045">
        <ele>172</ele>
        <time>2017-04-03T08:44:14Z</time>
      </trkpt>
      <trkpt lat="45.92303" lon="4.75052">
        <ele>172</ele>
        <time>2017-04-03T08:44:15Z</time>
      </trkpt>
      <trkpt lat="45.92299" lon="4.75058">
        <ele>172</ele>
        <time>2017-04-03T08:44:16Z</time>
      </trkpt>
      <trkpt lat="45.92295" lon="4.75064">
        <ele>172</ele>
        <time>2017-04-03T08:44:17Z</time>
      </trkpt>
      <trkpt lat="45.9229" lon="4.7507">
        <ele>172</ele>
        <time>2017-04-03T08:44:18Z</time>
      </trkpt>
      <trkpt lat="45.92286" lon="4.75076">
        <ele>172</ele>
        <time>2017-04-03T08:44:19Z</time>
      </trkpt>
      <trkpt lat="45.92281" lon="4.75082">
        <ele>172</ele>
        <time>2017-04-03T08:44:20Z</time>
      </trkpt>
      <trkpt lat="45.92276" lon="4.75087">
        <ele>173</ele>
        <time>2017-04-03T08:44:21Z</time>
      </trkpt>
      <trkpt lat="45.92271" lon="4.75092">
        <ele>173</ele>
        <time>2017-04-03T08:44:22Z</time>
      </trkpt>
      <trkpt lat="45.92266" lon="4.75098">
        <ele>173</ele>
        <time>2017-04-03T08:44:23Z</time>
      </trkpt>
      <trkpt lat="45.92262" lon="4.75103">
        <ele>173</ele>
        <time>2017-04-03T08:44:24Z</time>
      </trkpt>
      <trkpt lat="45.92256" lon="4.75108">
        <ele>174</ele>
        <time>2017-04-03T08:44:25Z</time>
      </trkpt>
      <trkpt lat="45.92251" lon="4.75114">
        <ele>174</ele>
        <time>2017-04-03T08:44:26Z</time>
      </trkpt>
      <trkpt lat="45.92246" lon="4.75119">
        <ele>174</ele>
        <time>2017-04-03T08:44:27Z</time>
      </trkpt>
      <trkpt lat="45.92241" lon="4.75126">
        <ele>174</ele>
        <time>2017-04-03T08:44:28Z</time>
      </trkpt>
      <trkpt lat="45.92237" lon="4.75132">
        <ele>174</ele>
        <time>2017-04-03T08:44:29Z</time>
      </trkpt>
      <trkpt lat="45.92232" lon="4.75138">
        <ele>174</ele>
        <time>2017-04-03T08:44:30Z</time>
      </trkpt>
      <trkpt lat="45.92228" lon="4.75144">
        <ele>174</ele>
        <time>2017-04-03T08:44:31Z</time>
      </trkpt>
      <trkpt lat="45.92225" lon="4.75151">
        <ele>174</ele>
        <time>2017-04-03T08:44:32Z</time>
      </trkpt>
      <trkpt lat="45.92221" lon="4.75157">
        <ele>174</ele>
        <time>2017-04-03T08:44:33Z</time>
      </trkpt>
      <trkpt lat="45.92219" lon="4.75164">
        <ele>174</ele>
        <time>2017-04-03T08:44:34Z</time>
      </trkpt>
      <trkpt lat="45.92217" lon="4.75172">
        <ele>175</ele>
        <time>2017-04-03T08:44:35Z</time>
      </trkpt>
      <trkpt lat="45.92214" lon="4.75179">
        <ele>175</ele>
        <time>2017-04-03T08:44:36Z</time>
      </trkpt>
      <trkpt lat="45.92213" lon="4.75187">
        <ele>175</ele>
        <time>2017-04-03T08:44:37Z</time>
      </trkpt>
      <trkpt lat="45.92212" lon="4.75194">
        <ele>175</ele>
        <time>2017-04-03T08:44:38Z</time>
      </trkpt>
      <trkpt lat="45.92211" lon="4.75202">
        <ele>175</ele>
        <time>2017-04-03T08:44:39Z</time>
      </trkpt>
      <trkpt lat="45.92209" lon="4.75209">
        <ele>175</ele>
        <time>2017-04-03T08:44:40Z</time>
      </trkpt>
      <trkpt lat="45.92208" lon="4.75217">
        <ele>175</ele>
        <time>2017-04-03T08:44:41Z</time>
      </trkpt>
      <trkpt lat="45.92208" lon="4.75224">
        <ele>175</ele>
        <time>2017-04-03T08:44:42Z</time>
      </trkpt>
      <trkpt lat="45.92208" lon="4.75232">
        <ele>175</ele>
        <time>2017-04-03T08:44:43Z</time>
      </trkpt>
      <trkpt lat="45.92208" lon="4.7524">
        <ele>175</ele>
        <time>2017-04-03T08:44:44Z</time>
      </trkpt>
      <trkpt lat="45.92208" lon="4.75247">
        <ele>175</ele>
        <time>2017-04-03T08:44:45Z</time>
      </trkpt>
      <trkpt lat="45.92208" lon="4.75255">
        <ele>175</ele>
        <time>2017-04-03T08:44:46Z</time>
      </trkpt>
      <trkpt lat="45.92208" lon="4.75263">
        <ele>176</ele>
        <time>2017-04-03T08:44:47Z</time>
      </trkpt>
      <trkpt lat="45.92208" lon="4.7527">
        <ele>176</ele>
        <time>2017-04-03T08:44:48Z</time>
      </trkpt>
      <trkpt lat="45.92208" lon="4.75277">
        <ele>176</ele>
        <time>2017-04-03T08:44:49Z</time>
      </trkpt>
      <trkpt lat="45.92207" lon="4.75285">
        <ele>176</ele>
        <time>2017-04-03T08:44:50Z</time>
      </trkpt>
      <trkpt lat="45.92208" lon="4.75292">
        <ele>176</ele>
        <time>2017-04-03T08:44:51Z</time>
      </trkpt>
      <trkpt lat="45.92207" lon="4.753">
        <ele>176</ele>
        <time>2017-04-03T08:44:52Z</time>
      </trkpt>
      <trkpt lat="45.92207" lon="4.75307">
        <ele>176</ele>
        <time>2017-04-03T08:44:53Z</time>
      </trkpt>
      <trkpt lat="45.92206" lon="4.75316">
        <ele>176</ele>
        <time>2017-04-03T08:44:54Z</time>
      </trkpt>
      <trkpt lat="45.92206" lon="4.75324">
        <ele>176</ele>
        <time>2017-04-03T08:44:55Z</time>
      </trkpt>
      <trkpt lat="45.92204" lon="4.75332">
        <ele>176</ele>
        <time>2017-04-03T08:44:56Z</time>
      </trkpt>
      <trkpt lat="45.92202" lon="4.75339">
        <ele>177</ele>
        <time>2017-04-03T08:44:57Z</time>
      </trkpt>
      <trkpt lat="45.922" lon="4.75346">
        <ele>177</ele>
        <time>2017-04-03T08:44:58Z</time>
      </trkpt>
      <trkpt lat="45.92199" lon="4.75354">
        <ele>177</ele>
        <time>2017-04-03T08:44:59Z</time>
      </trkpt>
      <trkpt lat="45.92198" lon="4.75361">
        <ele>177</ele>
        <time>2017-04-03T08:45:00Z</time>
      </trkpt>
      <trkpt lat="45.92195" lon="4.75367">
        <ele>177</ele>
        <time>2017-04-03T08:45:01Z</time>
      </trkpt>
      <trkpt lat="45.92193" lon="4.75374">
        <ele>177</ele>
        <time>2017-04-03T08:45:02Z</time>
      </trkpt>
      <trkpt lat="45.9219" lon="4.75381">
        <ele>177</ele>
        <time>2017-04-03T08:45:03Z</time>
      </trkpt>
      <trkpt lat="45.92188" lon="4.75388">
        <ele>177</ele>
        <time>2017-04-03T08:45:04Z</time>
      </trkpt>
      <trkpt lat="45.92185" lon="4.75395">
        <ele>177</ele>
        <time>2017-04-03T08:45:05Z</time>
      </trkpt>
      <trkpt lat="45.92183" lon="4.75402">
        <ele>177</ele>
        <time>2017-04-03T08:45:06Z</time>
      </trkpt>
      <trkpt lat="45.9218" lon="4.75409">
        <ele>177</ele>
        <time>2017-04-03T08:45:07Z</time>
      </trkpt>
      <trkpt lat="45.92178" lon="4.75416">
        <ele>178</ele>
        <time>2017-04-03T08:45:08Z</time>
      </trkpt>
      <trkpt lat="45.92176" lon="4.75423">
        <ele>177</ele>
        <time>2017-04-03T08:45:09Z</time>
      </trkpt>
      <trkpt lat="45.92172" lon="4.75431">
        <ele>177</ele>
        <time>2017-04-03T08:45:10Z</time>
      </trkpt>
      <trkpt lat="45.92169" lon="4.75438">
        <ele>177</ele>
        <time>2017-04-03T08:45:11Z</time>
      </trkpt>
      <trkpt lat="45.92166" lon="4.75445">
        <ele>177</ele>
        <time>2017-04-03T08:45:12Z</time>
      </trkpt>
      <trkpt lat="45.92163" lon="4.75452">
        <ele>176</ele>
        <time>2017-04-03T08:45:13Z</time>
      </trkpt>
      <trkpt lat="45.92159" lon="4.75459">
        <ele>176</ele>
        <time>2017-04-03T08:45:14Z</time>
      </trkpt>
      <trkpt lat="45.92156" lon="4.75466">
        <ele>176</ele>
        <time>2017-04-03T08:45:15Z</time>
      </trkpt>
      <trkpt lat="45.92152" lon="4.75473">
        <ele>176</ele>
        <time>2017-04-03T08:45:16Z</time>
      </trkpt>
      <trkpt lat="45.92149" lon="4.7548">
        <ele>176</ele>
        <time>2017-04-03T08:45:17Z</time>
      </trkpt>
      <trkpt lat="45.92145" lon="4.75486">
        <ele>176</ele>
        <time>2017-04-03T08:45:18Z</time>
      </trkpt>
      <trkpt lat="45.92142" lon="4.75493">
        <ele>176</ele>
        <time>2017-04-03T08:45:19Z</time>
      </trkpt>
      <trkpt lat="45.92138" lon="4.75499">
        <ele>175</ele>
        <time>2017-04-03T08:45:20Z</time>
      </trkpt>
      <trkpt lat="45.92135" lon="4.75506">
        <ele>174</ele>
        <time>2017-04-03T08:45:21Z</time>
      </trkpt>
      <trkpt lat="45.92132" lon="4.75513">
        <ele>174</ele>
        <time>2017-04-03T08:45:22Z</time>
      </trkpt>
      <trkpt lat="45.92129" lon="4.7552">
        <ele>174</ele>
        <time>2017-04-03T08:45:23Z</time>
      </trkpt>
      <trkpt lat="45.92126" lon="4.75527">
        <ele>174</ele>
        <time>2017-04-03T08:45:24Z</time>
      </trkpt>
      <trkpt lat="45.92122" lon="4.75533">
        <ele>174</ele>
        <time>2017-04-03T08:45:25Z</time>
      </trkpt>
      <trkpt lat="45.92117" lon="4.7554">
        <ele>174</ele>
        <time>2017-04-03T08:45:26Z</time>
      </trkpt>
      <trkpt lat="45.92113" lon="4.75547">
        <ele>174</ele>
        <time>2017-04-03T08:45:27Z</time>
      </trkpt>
      <trkpt lat="45.92109" lon="4.75554">
        <ele>174</ele>
        <time>2017-04-03T08:45:28Z</time>
      </trkpt>
      <trkpt lat="45.92106" lon="4.75562">
        <ele>174</ele>
        <time>2017-04-03T08:45:29Z</time>
      </trkpt>
      <trkpt lat="45.92107" lon="4.7557">
        <ele>174</ele>
        <time>2017-04-03T08:45:30Z</time>
      </trkpt>
      <trkpt lat="45.92107" lon="4.75579">
        <ele>174</ele>
        <time>2017-04-03T08:45:31Z</time>
      </trkpt>
      <trkpt lat="45.92109" lon="4.75587">
        <ele>174</ele>
        <time>2017-04-03T08:45:32Z</time>
      </trkpt>
      <trkpt lat="45.92114" lon="4.75592">
        <ele>174</ele>
        <time>2017-04-03T08:45:33Z</time>
      </trkpt>
      <trkpt lat="45.92119" lon="4.75596">
        <ele>174</ele>
        <time>2017-04-03T08:45:34Z</time>
      </trkpt>
      <trkpt lat="45.92123" lon="4.756">
        <ele>174</ele>
        <time>2017-04-03T08:45:35Z</time>
      </trkpt>
      <trkpt lat="45.92128" lon="4.75603">
        <ele>174</ele>
        <time>2017-04-03T08:45:36Z</time>
      </trkpt>
      <trkpt lat="45.92132" lon="4.75608">
        <ele>174</ele>
        <time>2017-04-03T08:45:37Z</time>
      </trkpt>
      <trkpt lat="45.92137" lon="4.75613">
        <ele>174</ele>
        <time>2017-04-03T08:45:38Z</time>
      </trkpt>
      <trkpt lat="45.92142" lon="4.75619">
        <ele>174</ele>
        <time>2017-04-03T08:45:39Z</time>
      </trkpt>
      <trkpt lat="45.92146" lon="4.75623">
        <ele>174</ele>
        <time>2017-04-03T08:45:40Z</time>
      </trkpt>
      <trkpt lat="45.92151" lon="4.75628">
        <ele>174</ele>
        <time>2017-04-03T08:45:41Z</time>
      </trkpt>
      <trkpt lat="45.92155" lon="4.75633">
        <ele>174</ele>
        <time>2017-04-03T08:45:42Z</time>
      </trkpt>
      <trkpt lat="45.9216" lon="4.75637">
        <ele>174</ele>
        <time>2017-04-03T08:45:43Z</time>
      </trkpt>
      <trkpt lat="45.92164" lon="4.75641">
        <ele>174</ele>
        <time>2017-04-03T08:45:44Z</time>
      </trkpt>
      <trkpt lat="45.92169" lon="4.75646">
        <ele>174</ele>
        <time>2017-04-03T08:45:45Z</time>
      </trkpt>
      <trkpt lat="45.92173" lon="4.7565">
        <ele>174</ele>
        <time>2017-04-03T08:45:46Z</time>
      </trkpt>
      <trkpt lat="45.92178" lon="4.75655">
        <ele>174</ele>
        <time>2017-04-03T08:45:47Z</time>
      </trkpt>
      <trkpt lat="45.92182" lon="4.75659">
        <ele>174</ele>
        <time>2017-04-03T08:45:48Z</time>
      </trkpt>
      <trkpt lat="45.92187" lon="4.75663">
        <ele>174</ele>
        <time>2017-04-03T08:45:49Z</time>
      </trkpt>
      <trkpt lat="45.92191" lon="4.75668">
        <ele>174</ele>
        <time>2017-04-03T08:45:50Z</time>
      </trkpt>
      <trkpt lat="45.92196" lon="4.75672">
        <ele>174</ele>
        <time>2017-04-03T08:45:51Z</time>
      </trkpt>
      <trkpt lat="45.922" lon="4.75676">
        <ele>174</ele>
        <time>2017-04-03T08:45:52Z</time>
      </trkpt>
      <trkpt lat="45.92204" lon="4.7568">
        <ele>174</ele>
        <time>2017-04-03T08:45:53Z</time>
      </trkpt>
      <trkpt lat="45.92209" lon="4.75685">
        <ele>174</ele>
        <time>2017-04-03T08:45:54Z</time>
      </trkpt>
      <trkpt lat="45.92213" lon="4.75689">
        <ele>174</ele>
        <time>2017-04-03T08:45:55Z</time>
      </trkpt>
      <trkpt lat="45.92218" lon="4.75695">
        <ele>174</ele>
        <time>2017-04-03T08:45:56Z</time>
      </trkpt>
      <trkpt lat="45.92221" lon="4.75701">
        <ele>174</ele>
        <time>2017-04-03T08:45:57Z</time>
      </trkpt>
      <trkpt lat="45.92226" lon="4.75706">
        <ele>174</ele>
        <time>2017-04-03T08:45:58Z</time>
      </trkpt>
      <trkpt lat="45.92229" lon="4.75712">
        <ele>174</ele>
        <time>2017-04-03T08:45:59Z</time>
      </trkpt>
      <trkpt lat="45.92233" lon="4.75719">
        <ele>174</ele>
        <time>2017-04-03T08:46:00Z</time>
      </trkpt>
      <trkpt lat="45.92236" lon="4.75725">
        <ele>174</ele>
        <time>2017-04-03T08:46:01Z</time>
      </trkpt>
      <trkpt lat="45.92239" lon="4.75732">
        <ele>174</ele>
        <time>2017-04-03T08:46:02Z</time>
      </trkpt>
      <trkpt lat="45.92241" lon="4.75739">
        <ele>174</ele>
        <time>2017-04-03T08:46:03Z</time>
      </trkpt>
      <trkpt lat="45.92243" lon="4.75746">
        <ele>174</ele>
        <time>2017-04-03T08:46:04Z</time>
      </trkpt>
      <trkpt lat="45.92244" lon="4.75753">
        <ele>174</ele>
        <time>2017-04-03T08:46:05Z</time>
      </trkpt>
      <trkpt lat="45.92246" lon="4.7576">
        <ele>174</ele>
        <time>2017-04-03T08:46:06Z</time>
      </trkpt>
      <trkpt lat="45.92247" lon="4.75767">
        <ele>174</ele>
        <time>2017-04-03T08:46:07Z</time>
      </trkpt>
      <trkpt lat="45.92249" lon="4.75774">
        <ele>174</ele>
        <time>2017-04-03T08:46:08Z</time>
      </trkpt>
      <trkpt lat="45.9225" lon="4.75781">
        <ele>173</ele>
        <time>2017-04-03T08:46:09Z</time>
      </trkpt>
      <trkpt lat="45.92252" lon="4.75788">
        <ele>174</ele>
        <time>2017-04-03T08:46:10Z</time>
      </trkpt>
      <trkpt lat="45.92254" lon="4.75795">
        <ele>174</ele>
        <time>2017-04-03T08:46:11Z</time>
      </trkpt>
      <trkpt lat="45.92256" lon="4.75802">
        <ele>174</ele>
        <time>2017-04-03T08:46:12Z</time>
      </trkpt>
      <trkpt lat="45.92259" lon="4.75809">
        <ele>174</ele>
        <time>2017-04-03T08:46:13Z</time>
      </trkpt>
      <trkpt lat="45.92262" lon="4.75816">
        <ele>174</ele>
        <time>2017-04-03T08:46:14Z</time>
      </trkpt>
      <trkpt lat="45.92266" lon="4.75821">
        <ele>174</ele>
        <time>2017-04-03T08:46:15Z</time>
      </trkpt>
      <trkpt lat="45.9227" lon="4.75827">
        <ele>174</ele>
        <time>2017-04-03T08:46:16Z</time>
      </trkpt>
      <trkpt lat="45.92275" lon="4.75831">
        <ele>174</ele>
        <time>2017-04-03T08:46:17Z</time>
      </trkpt>
      <trkpt lat="45.92281" lon="4.75835">
        <ele>173</ele>
        <time>2017-04-03T08:46:18Z</time>
      </trkpt>
      <trkpt lat="45.92287" lon="4.75839">
        <ele>173</ele>
        <time>2017-04-03T08:46:19Z</time>
      </trkpt>
      <trkpt lat="45.92292" lon="4.75842">
        <ele>173</ele>
        <time>2017-04-03T08:46:20Z</time>
      </trkpt>
      <trkpt lat="45.92298" lon="4.75846">
        <ele>173</ele>
        <time>2017-04-03T08:46:21Z</time>
      </trkpt>
      <trkpt lat="45.92303" lon="4.7585">
        <ele>173</ele>
        <time>2017-04-03T08:46:22Z</time>
      </trkpt>
      <trkpt lat="45.92309" lon="4.75854">
        <ele>173</ele>
        <time>2017-04-03T08:46:23Z</time>
      </trkpt>
      <trkpt lat="45.92315" lon="4.75857">
        <ele>173</ele>
        <time>2017-04-03T08:46:24Z</time>
      </trkpt>
      <trkpt lat="45.9232" lon="4.7586">
        <ele>173</ele>
        <time>2017-04-03T08:46:25Z</time>
      </trkpt>
      <trkpt lat="45.92326" lon="4.75864">
        <ele>173</ele>
        <time>2017-04-03T08:46:26Z</time>
      </trkpt>
      <trkpt lat="45.92332" lon="4.75867">
        <ele>173</ele>
        <time>2017-04-03T08:46:27Z</time>
      </trkpt>
      <trkpt lat="45.92338" lon="4.75871">
        <ele>173</ele>
        <time>2017-04-03T08:46:28Z</time>
      </trkpt>
      <trkpt lat="45.92344" lon="4.75875">
        <ele>173</ele>
        <time>2017-04-03T08:46:29Z</time>
      </trkpt>
      <trkpt lat="45.9235" lon="4.75878">
        <ele>173</ele>
        <time>2017-04-03T08:46:30Z</time>
      </trkpt>
      <trkpt lat="45.92354" lon="4.75882">
        <ele>173</ele>
        <time>2017-04-03T08:46:31Z</time>
      </trkpt>
      <trkpt lat="45.9236" lon="4.75885">
        <ele>173</ele>
        <time>2017-04-03T08:46:32Z</time>
      </trkpt>
      <trkpt lat="45.92365" lon="4.75888">
        <ele>173</ele>
        <time>2017-04-03T08:46:33Z</time>
      </trkpt>
      <trkpt lat="45.9237" lon="4.75892">
        <ele>173</ele>
        <time>2017-04-03T08:46:34Z</time>
      </trkpt>
      <trkpt lat="45.92375" lon="4.75895">
        <ele>173</ele>
        <time>2017-04-03T08:46:35Z</time>
      </trkpt>
      <trkpt lat="45.9238" lon="4.75899">
        <ele>173</ele>
        <time>2017-04-03T08:46:36Z</time>
      </trkpt>
      <trkpt lat="45.92385" lon="4.75902">
        <ele>173</ele>
        <time>2017-04-03T08:46:37Z</time>
      </trkpt>
      <trkpt lat="45.9239" lon="4.75906">
        <ele>173</ele>
        <time>2017-04-03T08:46:38Z</time>
      </trkpt>
      <trkpt lat="45.92395" lon="4.7591">
        <ele>173</ele>
        <time>2017-04-03T08:46:39Z</time>
      </trkpt>
      <trkpt lat="45.924" lon="4.75913">
        <ele>172</ele>
        <time>2017-04-03T08:46:40Z</time>
      </trkpt>
      <trkpt lat="45.92405" lon="4.75916">
        <ele>172</ele>
        <time>2017-04-03T08:46:41Z</time>
      </trkpt>
      <trkpt lat="45.9241" lon="4.7592">
        <ele>172</ele>
        <time>2017-04-03T08:46:42Z</time>
      </trkpt>
      <trkpt lat="45.92415" lon="4.75924">
        <ele>172</ele>
        <time>2017-04-03T08:46:43Z</time>
      </trkpt>
      <trkpt lat="45.92421" lon="4.75927">
        <ele>172</ele>
        <time>2017-04-03T08:46:44Z</time>
      </trkpt>
      <trkpt lat="45.92425" lon="4.75931">
        <ele>172</ele>
        <time>2017-04-03T08:46:45Z</time>
      </trkpt>
      <trkpt lat="45.9243" lon="4.75934">
        <ele>172</ele>
        <time>2017-04-03T08:46:46Z</time>
      </trkpt>
      <trkpt lat="45.92435" lon="4.75938">
        <ele>172</ele>
        <time>2017-04-03T08:46:47Z</time>
      </trkpt>
      <trkpt lat="45.92439" lon="4.75941">
        <ele>172</ele>
        <time>2017-04-03T08:46:48Z</time>
      </trkpt>
      <trkpt lat="45.92444" lon="4.75944">
        <ele>172</ele>
        <time>2017-04-03T08:46:49Z</time>
      </trkpt>
      <trkpt lat="45.92448" lon="4.75947">
        <ele>172</ele>
        <time>2017-04-03T08:46:50Z</time>
      </trkpt>
      <trkpt lat="45.92453" lon="4.75951">
        <ele>172</ele>
        <time>2017-04-03T08:46:51Z</time>
      </trkpt>
      <trkpt lat="45.92457" lon="4.75954">
        <ele>172</ele>
        <time>2017-04-03T08:46:52Z</time>
      </trkpt>
      <trkpt lat="45.92461" lon="4.75957">
        <ele>172</ele>
        <time>2017-04-03T08:46:53Z</time>
      </trkpt>
      <trkpt lat="45.92465" lon="4.75961">
        <ele>172</ele>
        <time>2017-04-03T08:46:54Z</time>
      </trkpt>
      <trkpt lat="45.9247" lon="4.75964">
        <ele>172</ele>
        <time>2017-04-03T08:46:55Z</time>
      </trkpt>
      <trkpt lat="45.92474" lon="4.75966">
        <ele>172</ele>
        <time>2017-04-03T08:46:56Z</time>
      </trkpt>
      <trkpt lat="45.92481" lon="4.75972">
        <ele>172</ele>
        <time>2017-04-03T08:46:58Z</time>
      </trkpt>
      <trkpt lat="45.92486" lon="4.75975">
        <ele>172</ele>
        <time>2017-04-03T08:46:59Z</time>
      </trkpt>
      <trkpt lat="45.9249" lon="4.75978">
        <ele>172</ele>
        <time>2017-04-03T08:47:00Z</time>
      </trkpt>
      <trkpt lat="45.92494" lon="4.75982">
        <ele>172</ele>
        <time>2017-04-03T08:47:01Z</time>
      </trkpt>
      <trkpt lat="45.92498" lon="4.75985">
        <ele>172</ele>
        <time>2017-04-03T08:47:02Z</time>
      </trkpt>
      <trkpt lat="45.92502" lon="4.75988">
        <ele>172</ele>
        <time>2017-04-03T08:47:03Z</time>
      </trkpt>
      <trkpt lat="45.92507" lon="4.75992">
        <ele>172</ele>
        <time>2017-04-03T08:47:04Z</time>
      </trkpt>
      <trkpt lat="45.92511" lon="4.75995">
        <ele>172</ele>
        <time>2017-04-03T08:47:05Z</time>
      </trkpt>
      <trkpt lat="45.92515" lon="4.75998">
        <ele>172</ele>
        <time>2017-04-03T08:47:06Z</time>
      </trkpt>
      <trkpt lat="45.92519" lon="4.76002">
        <ele>172</ele>
        <time>2017-04-03T08:47:07Z</time>
      </trkpt>
      <trkpt lat="45.92526" lon="4.76008">
        <ele>172</ele>
        <time>2017-04-03T08:47:09Z</time>
      </trkpt>
      <trkpt lat="45.92531" lon="4.76012">
        <ele>172</ele>
        <time>2017-04-03T08:47:10Z</time>
      </trkpt>
      <trkpt lat="45.92535" lon="4.76015">
        <ele>172</ele>
        <time>2017-04-03T08:47:11Z</time>
      </trkpt>
      <trkpt lat="45.92539" lon="4.76018">
        <ele>172</ele>
        <time>2017-04-03T08:47:12Z</time>
      </trkpt>
      <trkpt lat="45.92543" lon="4.76021">
        <ele>172</ele>
        <time>2017-04-03T08:47:13Z</time>
      </trkpt>
      <trkpt lat="45.92547" lon="4.76024">
        <ele>172</ele>
        <time>2017-04-03T08:47:14Z</time>
      </trkpt>
      <trkpt lat="45.92552" lon="4.76027">
        <ele>172</ele>
        <time>2017-04-03T08:47:15Z</time>
      </trkpt>
      <trkpt lat="45.92556" lon="4.7603">
        <ele>172</ele>
        <time>2017-04-03T08:47:16Z</time>
      </trkpt>
      <trkpt lat="45.92561" lon="4.76034">
        <ele>172</ele>
        <time>2017-04-03T08:47:17Z</time>
      </trkpt>
      <trkpt lat="45.92565" lon="4.76037">
        <ele>172</ele>
        <time>2017-04-03T08:47:18Z</time>
      </trkpt>
      <trkpt lat="45.9257" lon="4.7604">
        <ele>172</ele>
        <time>2017-04-03T08:47:19Z</time>
      </trkpt>
      <trkpt lat="45.92575" lon="4.76043">
        <ele>171</ele>
        <time>2017-04-03T08:47:20Z</time>
      </trkpt>
      <trkpt lat="45.9258" lon="4.76047">
        <ele>171</ele>
        <time>2017-04-03T08:47:21Z</time>
      </trkpt>
      <trkpt lat="45.92584" lon="4.7605">
        <ele>171</ele>
        <time>2017-04-03T08:47:22Z</time>
      </trkpt>
      <trkpt lat="45.92589" lon="4.76054">
        <ele>171</ele>
        <time>2017-04-03T08:47:23Z</time>
      </trkpt>
      <trkpt lat="45.92594" lon="4.76057">
        <ele>171</ele>
        <time>2017-04-03T08:47:24Z</time>
      </trkpt>
      <trkpt lat="45.92599" lon="4.76061">
        <ele>171</ele>
        <time>2017-04-03T08:47:25Z</time>
      </trkpt>
      <trkpt lat="45.92604" lon="4.76064">
        <ele>171</ele>
        <time>2017-04-03T08:47:26Z</time>
      </trkpt>
      <trkpt lat="45.92609" lon="4.76068">
        <ele>171</ele>
        <time>2017-04-03T08:47:27Z</time>
      </trkpt>
      <trkpt lat="45.92615" lon="4.76072">
        <ele>171</ele>
        <time>2017-04-03T08:47:28Z</time>
      </trkpt>
      <trkpt lat="45.92621" lon="4.76075">
        <ele>171</ele>
        <time>2017-04-03T08:47:29Z</time>
      </trkpt>
      <trkpt lat="45.92627" lon="4.76081">
        <ele>170</ele>
        <time>2017-04-03T08:47:30Z</time>
      </trkpt>
      <trkpt lat="45.92632" lon="4.76086">
        <ele>170</ele>
        <time>2017-04-03T08:47:31Z</time>
      </trkpt>
      <trkpt lat="45.92638" lon="4.7609">
        <ele>170</ele>
        <time>2017-04-03T08:47:32Z</time>
      </trkpt>
      <trkpt lat="45.92644" lon="4.76095">
        <ele>170</ele>
        <time>2017-04-03T08:47:33Z</time>
      </trkpt>
      <trkpt lat="45.92651" lon="4.76099">
        <ele>170</ele>
        <time>2017-04-03T08:47:34Z</time>
      </trkpt>
      <trkpt lat="45.92657" lon="4.76103">
        <ele>170</ele>
        <time>2017-04-03T08:47:35Z</time>
      </trkpt>
      <trkpt lat="45.92663" lon="4.76107">
        <ele>170</ele>
        <time>2017-04-03T08:47:36Z</time>
      </trkpt>
      <trkpt lat="45.92669" lon="4.76112">
        <ele>169</ele>
        <time>2017-04-03T08:47:37Z</time>
      </trkpt>
      <trkpt lat="45.92676" lon="4.76116">
        <ele>169</ele>
        <time>2017-04-03T08:47:38Z</time>
      </trkpt>
      <trkpt lat="45.92682" lon="4.76121">
        <ele>169</ele>
        <time>2017-04-03T08:47:39Z</time>
      </trkpt>
      <trkpt lat="45.92688" lon="4.76126">
        <ele>169</ele>
        <time>2017-04-03T08:47:40Z</time>
      </trkpt>
      <trkpt lat="45.92695" lon="4.7613">
        <ele>169</ele>
        <time>2017-04-03T08:47:41Z</time>
      </trkpt>
      <trkpt lat="45.92702" lon="4.76134">
        <ele>169</ele>
        <time>2017-04-03T08:47:42Z</time>
      </trkpt>
      <trkpt lat="45.92709" lon="4.76138">
        <ele>168</ele>
        <time>2017-04-03T08:47:43Z</time>
      </trkpt>
      <trkpt lat="45.92716" lon="4.76143">
        <ele>168</ele>
        <time>2017-04-03T08:47:44Z</time>
      </trkpt>
      <trkpt lat="45.92722" lon="4.76148">
        <ele>168</ele>
        <time>2017-04-03T08:47:45Z</time>
      </trkpt>
      <trkpt lat="45.92729" lon="4.76152">
        <ele>168</ele>
        <time>2017-04-03T08:47:46Z</time>
      </trkpt>
      <trkpt lat="45.92735" lon="4.76157">
        <ele>168</ele>
        <time>2017-04-03T08:47:47Z</time>
      </trkpt>
      <trkpt lat="45.92742" lon="4.76161">
        <ele>168</ele>
        <time>2017-04-03T08:47:48Z</time>
      </trkpt>
      <trkpt lat="45.92748" lon="4.76166">
        <ele>167</ele>
        <time>2017-04-03T08:47:49Z</time>
      </trkpt>
      <trkpt lat="45.92753" lon="4.76171">
        <ele>167</ele>
        <time>2017-04-03T08:47:50Z</time>
      </trkpt>
      <trkpt lat="45.92759" lon="4.76175">
        <ele>167</ele>
        <time>2017-04-03T08:47:51Z</time>
      </trkpt>
      <trkpt lat="45.92764" lon="4.7618">
        <ele>167</ele>
        <time>2017-04-03T08:47:52Z</time>
      </trkpt>
      <trkpt lat="45.92769" lon="4.76184">
        <ele>167</ele>
        <time>2017-04-03T08:47:53Z</time>
      </trkpt>
      <trkpt lat="45.92773" lon="4.76189">
        <ele>168</ele>
        <time>2017-04-03T08:47:54Z</time>
      </trkpt>
      <trkpt lat="45.92778" lon="4.76194">
        <ele>168</ele>
        <time>2017-04-03T08:47:55Z</time>
      </trkpt>
      <trkpt lat="45.92783" lon="4.76198">
        <ele>168</ele>
        <time>2017-04-03T08:47:56Z</time>
      </trkpt>
      <trkpt lat="45.92788" lon="4.76203">
        <ele>168</ele>
        <time>2017-04-03T08:47:57Z</time>
      </trkpt>
      <trkpt lat="45.92793" lon="4.76207">
        <ele>168</ele>
        <time>2017-04-03T08:47:58Z</time>
      </trkpt>
      <trkpt lat="45.92798" lon="4.76212">
        <ele>168</ele>
        <time>2017-04-03T08:47:59Z</time>
      </trkpt>
      <trkpt lat="45.92803" lon="4.76216">
        <ele>168</ele>
        <time>2017-04-03T08:48:00Z</time>
      </trkpt>
      <trkpt lat="45.92807" lon="4.76221">
        <ele>168</ele>
        <time>2017-04-03T08:48:01Z</time>
      </trkpt>
      <trkpt lat="45.92812" lon="4.76226">
        <ele>168</ele>
        <time>2017-04-03T08:48:02Z</time>
      </trkpt>
      <trkpt lat="45.92817" lon="4.76231">
        <ele>168</ele>
        <time>2017-04-03T08:48:03Z</time>
      </trkpt>
      <trkpt lat="45.92821" lon="4.76236">
        <ele>168</ele>
        <time>2017-04-03T08:48:04Z</time>
      </trkpt>
      <trkpt lat="45.92825" lon="4.76241">
        <ele>168</ele>
        <time>2017-04-03T08:48:05Z</time>
      </trkpt>
      <trkpt lat="45.92829" lon="4.76246">
        <ele>169</ele>
        <time>2017-04-03T08:48:06Z</time>
      </trkpt>
      <trkpt lat="45.92834" lon="4.7625">
        <ele>169</ele>
        <time>2017-04-03T08:48:07Z</time>
      </trkpt>
      <trkpt lat="45.92838" lon="4.76255">
        <ele>169</ele>
        <time>2017-04-03T08:48:08Z</time>
      </trkpt>
      <trkpt lat="45.92843" lon="4.76259">
        <ele>169</ele>
        <time>2017-04-03T08:48:09Z</time>
      </trkpt>
      <trkpt lat="45.92846" lon="4.76263">
        <ele>169</ele>
        <time>2017-04-03T08:48:10Z</time>
      </trkpt>
      <trkpt lat="45.92851" lon="4.76267">
        <ele>169</ele>
        <time>2017-04-03T08:48:11Z</time>
      </trkpt>
      <trkpt lat="45.92855" lon="4.76271">
        <ele>169</ele>
        <time>2017-04-03T08:48:12Z</time>
      </trkpt>
      <trkpt lat="45.92859" lon="4.76275">
        <ele>169</ele>
        <time>2017-04-03T08:48:13Z</time>
      </trkpt>
      <trkpt lat="45.92863" lon="4.76279">
        <ele>169</ele>
        <time>2017-04-03T08:48:14Z</time>
      </trkpt>
      <trkpt lat="45.92867" lon="4.76283">
        <ele>169</ele>
        <time>2017-04-03T08:48:15Z</time>
      </trkpt>
      <trkpt lat="45.92872" lon="4.76287">
        <ele>169</ele>
        <time>2017-04-03T08:48:16Z</time>
      </trkpt>
      <trkpt lat="45.92876" lon="4.76292">
        <ele>169</ele>
        <time>2017-04-03T08:48:17Z</time>
      </trkpt>
      <trkpt lat="45.9288" lon="4.76296">
        <ele>169</ele>
        <time>2017-04-03T08:48:18Z</time>
      </trkpt>
      <trkpt lat="45.92885" lon="4.763">
        <ele>169</ele>
        <time>2017-04-03T08:48:19Z</time>
      </trkpt>
      <trkpt lat="45.92889" lon="4.76305">
        <ele>169</ele>
        <time>2017-04-03T08:48:20Z</time>
      </trkpt>
      <trkpt lat="45.92895" lon="4.76308">
        <ele>169</ele>
        <time>2017-04-03T08:48:21Z</time>
      </trkpt>
      <trkpt lat="45.92899" lon="4.76313">
        <ele>169</ele>
        <time>2017-04-03T08:48:22Z</time>
      </trkpt>
      <trkpt lat="45.92904" lon="4.76317">
        <ele>169</ele>
        <time>2017-04-03T08:48:23Z</time>
      </trkpt>
      <trkpt lat="45.9291" lon="4.76322">
        <ele>169</ele>
        <time>2017-04-03T08:48:24Z</time>
      </trkpt>
      <trkpt lat="45.92914" lon="4.76326">
        <ele>169</ele>
        <time>2017-04-03T08:48:25Z</time>
      </trkpt>
      <trkpt lat="45.92919" lon="4.76331">
        <ele>169</ele>
        <time>2017-04-03T08:48:26Z</time>
      </trkpt>
      <trkpt lat="45.92924" lon="4.76336">
        <ele>169</ele>
        <time>2017-04-03T08:48:27Z</time>
      </trkpt>
      <trkpt lat="45.92929" lon="4.76341">
        <ele>169</ele>
        <time>2017-04-03T08:48:28Z</time>
      </trkpt>
      <trkpt lat="45.92934" lon="4.76346">
        <ele>169</ele>
        <time>2017-04-03T08:48:29Z</time>
      </trkpt>
      <trkpt lat="45.92938" lon="4.76351">
        <ele>169</ele>
        <time>2017-04-03T08:48:30Z</time>
      </trkpt>
      <trkpt lat="45.92943" lon="4.76356">
        <ele>169</ele>
        <time>2017-04-03T08:48:31Z</time>
      </trkpt>
      <trkpt lat="45.92947" lon="4.76361">
        <ele>169</ele>
        <time>2017-04-03T08:48:32Z</time>
      </trkpt>
      <trkpt lat="45.92952" lon="4.76366">
        <ele>169</ele>
        <time>2017-04-03T08:48:33Z</time>
      </trkpt>
      <trkpt lat="45.92957" lon="4.76371">
        <ele>169</ele>
        <time>2017-04-03T08:48:34Z</time>
      </trkpt>
      <trkpt lat="45.92961" lon="4.76376">
        <ele>169</ele>
        <time>2017-04-03T08:48:35Z</time>
      </trkpt>
      <trkpt lat="45.92966" lon="4.7638">
        <ele>169</ele>
        <time>2017-04-03T08:48:36Z</time>
      </trkpt>
      <trkpt lat="45.9297" lon="4.76384">
        <ele>169</ele>
        <time>2017-04-03T08:48:37Z</time>
      </trkpt>
      <trkpt lat="45.92975" lon="4.76389">
        <ele>169</ele>
        <time>2017-04-03T08:48:38Z</time>
      </trkpt>
      <trkpt lat="45.9298" lon="4.76393">
        <ele>169</ele>
        <time>2017-04-03T08:48:39Z</time>
      </trkpt>
      <trkpt lat="45.92984" lon="4.76397">
        <ele>169</ele>
        <time>2017-04-03T08:48:40Z</time>
      </trkpt>
      <trkpt lat="45.92989" lon="4.76402">
        <ele>169</ele>
        <time>2017-04-03T08:48:41Z</time>
      </trkpt>
      <trkpt lat="45.92993" lon="4.76406">
        <ele>169</ele>
        <time>2017-04-03T08:48:42Z</time>
      </trkpt>
      <trkpt lat="45.92998" lon="4.7641">
        <ele>169</ele>
        <time>2017-04-03T08:48:43Z</time>
      </trkpt>
      <trkpt lat="45.93002" lon="4.76415">
        <ele>169</ele>
        <time>2017-04-03T08:48:44Z</time>
      </trkpt>
      <trkpt lat="45.93006" lon="4.76419">
        <ele>169</ele>
        <time>2017-04-03T08:48:45Z</time>
      </trkpt>
      <trkpt lat="45.9301" lon="4.76424">
        <ele>169</ele>
        <time>2017-04-03T08:48:46Z</time>
      </trkpt>
      <trkpt lat="45.93015" lon="4.76428">
        <ele>169</ele>
        <time>2017-04-03T08:48:47Z</time>
      </trkpt>
      <trkpt lat="45.9302" lon="4.76432">
        <ele>169</ele>
        <time>2017-04-03T08:48:48Z</time>
      </trkpt>
      <trkpt lat="45.93025" lon="4.76437">
        <ele>169</ele>
        <time>2017-04-03T08:48:49Z</time>
      </trkpt>
      <trkpt lat="45.93029" lon="4.76443">
        <ele>169</ele>
        <time>2017-04-03T08:48:50Z</time>
      </trkpt>
      <trkpt lat="45.93034" lon="4.76447">
        <ele>169</ele>
        <time>2017-04-03T08:48:51Z</time>
      </trkpt>
      <trkpt lat="45.93039" lon="4.76452">
        <ele>169</ele>
        <time>2017-04-03T08:48:52Z</time>
      </trkpt>
      <trkpt lat="45.93043" lon="4.76457">
        <ele>169</ele>
        <time>2017-04-03T08:48:53Z</time>
      </trkpt>
      <trkpt lat="45.93048" lon="4.76461">
        <ele>169</ele>
        <time>2017-04-03T08:48:54Z</time>
      </trkpt>
      <trkpt lat="45.93053" lon="4.76466">
        <ele>169</ele>
        <time>2017-04-03T08:48:55Z</time>
      </trkpt>
      <trkpt lat="45.93057" lon="4.76471">
        <ele>169</ele>
        <time>2017-04-03T08:48:56Z</time>
      </trkpt>
      <trkpt lat="45.93062" lon="4.76475">
        <ele>169</ele>
        <time>2017-04-03T08:48:57Z</time>
      </trkpt>
      <trkpt lat="45.93067" lon="4.7648">
        <ele>169</ele>
        <time>2017-04-03T08:48:58Z</time>
      </trkpt>
      <trkpt lat="45.93071" lon="4.76485">
        <ele>169</ele>
        <time>2017-04-03T08:48:59Z</time>
      </trkpt>
      <trkpt lat="45.93076" lon="4.7649">
        <ele>170</ele>
        <time>2017-04-03T08:49:00Z</time>
      </trkpt>
      <trkpt lat="45.9308" lon="4.76494">
        <ele>170</ele>
        <time>2017-04-03T08:49:01Z</time>
      </trkpt>
      <trkpt lat="45.93085" lon="4.76499">
        <ele>170</ele>
        <time>2017-04-03T08:49:02Z</time>
      </trkpt>
      <trkpt lat="45.93089" lon="4.76504">
        <ele>170</ele>
        <time>2017-04-03T08:49:03Z</time>
      </trkpt>
      <trkpt lat="45.93093" lon="4.76509">
        <ele>170</ele>
        <time>2017-04-03T08:49:04Z</time>
      </trkpt>
      <trkpt lat="45.93097" lon="4.76514">
        <ele>170</ele>
        <time>2017-04-03T08:49:05Z</time>
      </trkpt>
      <trkpt lat="45.93102" lon="4.76518">
        <ele>170</ele>
        <time>2017-04-03T08:49:06Z</time>
      </trkpt>
      <trkpt lat="45.93106" lon="4.76523">
        <ele>170</ele>
        <time>2017-04-03T08:49:07Z</time>
      </trkpt>
      <trkpt lat="45.93111" lon="4.76527">
        <ele>170</ele>
        <time>2017-04-03T08:49:08Z</time>
      </trkpt>
      <trkpt lat="45.93115" lon="4.76531">
        <ele>170</ele>
        <time>2017-04-03T08:49:09Z</time>
      </trkpt>
      <trkpt lat="45.9312" lon="4.76535">
        <ele>170</ele>
        <time>2017-04-03T08:49:10Z</time>
      </trkpt>
      <trkpt lat="45.93124" lon="4.76539">
        <ele>170</ele>
        <time>2017-04-03T08:49:11Z</time>
      </trkpt>
      <trkpt lat="45.93129" lon="4.76543">
        <ele>170</ele>
        <time>2017-04-03T08:49:12Z</time>
      </trkpt>
      <trkpt lat="45.93132" lon="4.76547">
        <ele>170</ele>
        <time>2017-04-03T08:49:13Z</time>
      </trkpt>
      <trkpt lat="45.93136" lon="4.76551">
        <ele>170</ele>
        <time>2017-04-03T08:49:14Z</time>
      </trkpt>
      <trkpt lat="45.9314" lon="4.76556">
        <ele>170</ele>
        <time>2017-04-03T08:49:15Z</time>
      </trkpt>
      <trkpt lat="45.93144" lon="4.7656">
        <ele>170</ele>
        <time>2017-04-03T08:49:16Z</time>
      </trkpt>
      <trkpt lat="45.93148" lon="4.76565">
        <ele>170</ele>
        <time>2017-04-03T08:49:17Z</time>
      </trkpt>
      <trkpt lat="45.93152" lon="4.76569">
        <ele>170</ele>
        <time>2017-04-03T08:49:18Z</time>
      </trkpt>
      <trkpt lat="45.93157" lon="4.76573">
        <ele>170</ele>
        <time>2017-04-03T08:49:19Z</time>
      </trkpt>
      <trkpt lat="45.93161" lon="4.76578">
        <ele>171</ele>
        <time>2017-04-03T08:49:20Z</time>
      </trkpt>
      <trkpt lat="45.93166" lon="4.76582">
        <ele>171</ele>
        <time>2017-04-03T08:49:21Z</time>
      </trkpt>
      <trkpt lat="45.9317" lon="4.76587">
        <ele>171</ele>
        <time>2017-04-03T08:49:22Z</time>
      </trkpt>
      <trkpt lat="45.93175" lon="4.76591">
        <ele>171</ele>
        <time>2017-04-03T08:49:23Z</time>
      </trkpt>
      <trkpt lat="45.9318" lon="4.76596">
        <ele>171</ele>
        <time>2017-04-03T08:49:24Z</time>
      </trkpt>
      <trkpt lat="45.93184" lon="4.766">
        <ele>171</ele>
        <time>2017-04-03T08:49:25Z</time>
      </trkpt>
      <trkpt lat="45.93189" lon="4.76605">
        <ele>171</ele>
        <time>2017-04-03T08:49:26Z</time>
      </trkpt>
      <trkpt lat="45.93193" lon="4.7661">
        <ele>170</ele>
        <time>2017-04-03T08:49:27Z</time>
      </trkpt>
      <trkpt lat="45.93198" lon="4.76614">
        <ele>170</ele>
        <time>2017-04-03T08:49:28Z</time>
      </trkpt>
      <trkpt lat="45.93202" lon="4.76618">
        <ele>170</ele>
        <time>2017-04-03T08:49:29Z</time>
      </trkpt>
      <trkpt lat="45.93206" lon="4.76623">
        <ele>171</ele>
        <time>2017-04-03T08:49:30Z</time>
      </trkpt>
      <trkpt lat="45.9321" lon="4.76628">
        <ele>171</ele>
        <time>2017-04-03T08:49:31Z</time>
      </trkpt>
      <trkpt lat="45.93214" lon="4.76633">
        <ele>171</ele>
        <time>2017-04-03T08:49:32Z</time>
      </trkpt>
      <trkpt lat="45.93218" lon="4.76638">
        <ele>171</ele>
        <time>2017-04-03T08:49:33Z</time>
      </trkpt>
      <trkpt lat="45.93223" lon="4.76642">
        <ele>171</ele>
        <time>2017-04-03T08:49:34Z</time>
      </trkpt>
      <trkpt lat="45.93228" lon="4.76645">
        <ele>171</ele>
        <time>2017-04-03T08:49:35Z</time>
      </trkpt>
      <trkpt lat="45.93233" lon="4.7665">
        <ele>171</ele>
        <time>2017-04-03T08:49:36Z</time>
      </trkpt>
      <trkpt lat="45.93238" lon="4.76654">
        <ele>171</ele>
        <time>2017-04-03T08:49:37Z</time>
      </trkpt>
      <trkpt lat="45.93243" lon="4.76658">
        <ele>171</ele>
        <time>2017-04-03T08:49:38Z</time>
      </trkpt>
      <trkpt lat="45.93248" lon="4.76664">
        <ele>172</ele>
        <time>2017-04-03T08:49:39Z</time>
      </trkpt>
      <trkpt lat="45.93253" lon="4.76669">
        <ele>172</ele>
        <time>2017-04-03T08:49:40Z</time>
      </trkpt>
      <trkpt lat="45.93258" lon="4.76673">
        <ele>172</ele>
        <time>2017-04-03T08:49:41Z</time>
      </trkpt>
      <trkpt lat="45.93263" lon="4.76679">
        <ele>172</ele>
        <time>2017-04-03T08:49:42Z</time>
      </trkpt>
      <trkpt lat="45.93267" lon="4.76683">
        <ele>172</ele>
        <time>2017-04-03T08:49:43Z</time>
      </trkpt>
      <trkpt lat="45.93272" lon="4.76688">
        <ele>172</ele>
        <time>2017-04-03T08:49:44Z</time>
      </trkpt>
      <trkpt lat="45.93277" lon="4.76693">
        <ele>172</ele>
        <time>2017-04-03T08:49:45Z</time>
      </trkpt>
      <trkpt lat="45.93281" lon="4.76698">
        <ele>172</ele>
        <time>2017-04-03T08:49:46Z</time>
      </trkpt>
      <trkpt lat="45.93286" lon="4.76703">
        <ele>172</ele>
        <time>2017-04-03T08:49:47Z</time>
      </trkpt>
      <trkpt lat="45.9329" lon="4.76708">
        <ele>172</ele>
        <time>2017-04-03T08:49:48Z</time>
      </trkpt>
      <trkpt lat="45.93295" lon="4.76712">
        <ele>172</ele>
        <time>2017-04-03T08:49:49Z</time>
      </trkpt>
      <trkpt lat="45.93299" lon="4.76717">
        <ele>172</ele>
        <time>2017-04-03T08:49:50Z</time>
      </trkpt>
      <trkpt lat="45.93304" lon="4.76722">
        <ele>172</ele>
        <time>2017-04-03T08:49:51Z</time>
      </trkpt>
      <trkpt lat="45.93309" lon="4.76726">
        <ele>172</ele>
        <time>2017-04-03T08:49:52Z</time>
      </trkpt>
      <trkpt lat="45.93314" lon="4.76732">
        <ele>172</ele>
        <time>2017-04-03T08:49:53Z</time>
      </trkpt>
      <trkpt lat="45.93319" lon="4.76737">
        <ele>172</ele>
        <time>2017-04-03T08:49:54Z</time>
      </trkpt>
      <trkpt lat="45.93324" lon="4.76741">
        <ele>172</ele>
        <time>2017-04-03T08:49:55Z</time>
      </trkpt>
      <trkpt lat="45.93328" lon="4.76746">
        <ele>173</ele>
        <time>2017-04-03T08:49:56Z</time>
      </trkpt>
      <trkpt lat="45.93333" lon="4.76751">
        <ele>173</ele>
        <time>2017-04-03T08:49:57Z</time>
      </trkpt>
      <trkpt lat="45.93338" lon="4.76756">
        <ele>173</ele>
        <time>2017-04-03T08:49:58Z</time>
      </trkpt>
      <trkpt lat="45.93343" lon="4.7676">
        <ele>172</ele>
        <time>2017-04-03T08:49:59Z</time>
      </trkpt>
      <trkpt lat="45.93347" lon="4.76765">
        <ele>172</ele>
        <time>2017-04-03T08:50:00Z</time>
      </trkpt>
      <trkpt lat="45.93352" lon="4.76769">
        <ele>172</ele>
        <time>2017-04-03T08:50:01Z</time>
      </trkpt>
      <trkpt lat="45.93357" lon="4.76774">
        <ele>172</ele>
        <time>2017-04-03T08:50:02Z</time>
      </trkpt>
      <trkpt lat="45.93362" lon="4.76778">
        <ele>172</ele>
        <time>2017-04-03T08:50:03Z</time>
      </trkpt>
      <trkpt lat="45.93367" lon="4.76783">
        <ele>172</ele>
        <time>2017-04-03T08:50:04Z</time>
      </trkpt>
      <trkpt lat="45.93372" lon="4.76787">
        <ele>172</ele>
        <time>2017-04-03T08:50:05Z</time>
      </trkpt>
      <trkpt lat="45.93377" lon="4.76793">
        <ele>172</ele>
        <time>2017-04-03T08:50:06Z</time>
      </trkpt>
      <trkpt lat="45.93382" lon="4.76798">
        <ele>172</ele>
        <time>2017-04-03T08:50:07Z</time>
      </trkpt>
      <trkpt lat="45.93386" lon="4.76803">
        <ele>172</ele>
        <time>2017-04-03T08:50:08Z</time>
      </trkpt>
      <trkpt lat="45.9339" lon="4.76808">
        <ele>172</ele>
        <time>2017-04-03T08:50:09Z</time>
      </trkpt>
      <trkpt lat="45.93395" lon="4.76815">
        <ele>172</ele>
        <time>2017-04-03T08:50:10Z</time>
      </trkpt>
      <trkpt lat="45.93399" lon="4.76821">
        <ele>172</ele>
        <time>2017-04-03T08:50:11Z</time>
      </trkpt>
      <trkpt lat="45.93403" lon="4.76827">
        <ele>172</ele>
        <time>2017-04-03T08:50:12Z</time>
      </trkpt>
      <trkpt lat="45.93406" lon="4.76834">
        <ele>172</ele>
        <time>2017-04-03T08:50:13Z</time>
      </trkpt>
      <trkpt lat="45.9341" lon="4.7684">
        <ele>172</ele>
        <time>2017-04-03T08:50:14Z</time>
      </trkpt>
      <trkpt lat="45.93414" lon="4.76847">
        <ele>172</ele>
        <time>2017-04-03T08:50:15Z</time>
      </trkpt>
      <trkpt lat="45.93417" lon="4.76853">
        <ele>171</ele>
        <time>2017-04-03T08:50:16Z</time>
      </trkpt>
      <trkpt lat="45.9342" lon="4.7686">
        <ele>171</ele>
        <time>2017-04-03T08:50:17Z</time>
      </trkpt>
      <trkpt lat="45.93423" lon="4.76867">
        <ele>171</ele>
        <time>2017-04-03T08:50:18Z</time>
      </trkpt>
      <trkpt lat="45.93426" lon="4.76874">
        <ele>171</ele>
        <time>2017-04-03T08:50:19Z</time>
      </trkpt>
      <trkpt lat="45.93429" lon="4.76882">
        <ele>171</ele>
        <time>2017-04-03T08:50:20Z</time>
      </trkpt>
      <trkpt lat="45.93432" lon="4.76889">
        <ele>171</ele>
        <time>2017-04-03T08:50:21Z</time>
      </trkpt>
      <trkpt lat="45.93434" lon="4.76897">
        <ele>171</ele>
        <time>2017-04-03T08:50:22Z</time>
      </trkpt>
      <trkpt lat="45.93437" lon="4.76905">
        <ele>171</ele>
        <time>2017-04-03T08:50:23Z</time>
      </trkpt>
      <trkpt lat="45.93439" lon="4.76912">
        <ele>171</ele>
        <time>2017-04-03T08:50:24Z</time>
      </trkpt>
      <trkpt lat="45.93441" lon="4.7692">
        <ele>170</ele>
        <time>2017-04-03T08:50:25Z</time>
      </trkpt>
      <trkpt lat="45.93442" lon="4.76929">
        <ele>170</ele>
        <time>2017-04-03T08:50:26Z</time>
      </trkpt>
      <trkpt lat="45.93444" lon="4.76936">
        <ele>170</ele>
        <time>2017-04-03T08:50:27Z</time>
      </trkpt>
      <trkpt lat="45.93446" lon="4.76945">
        <ele>170</ele>
        <time>2017-04-03T08:50:28Z</time>
      </trkpt>
      <trkpt lat="45.93447" lon="4.76953">
        <ele>170</ele>
        <time>2017-04-03T08:50:29Z</time>
      </trkpt>
      <trkpt lat="45.93448" lon="4.76961">
        <ele>170</ele>
        <time>2017-04-03T08:50:30Z</time>
      </trkpt>
      <trkpt lat="45.93449" lon="4.76969">
        <ele>170</ele>
        <time>2017-04-03T08:50:31Z</time>
      </trkpt>
      <trkpt lat="45.93451" lon="4.76977">
        <ele>170</ele>
        <time>2017-04-03T08:50:32Z</time>
      </trkpt>
      <trkpt lat="45.93452" lon="4.76985">
        <ele>170</ele>
        <time>2017-04-03T08:50:33Z</time>
      </trkpt>
      <trkpt lat="45.93454" lon="4.76994">
        <ele>170</ele>
        <time>2017-04-03T08:50:34Z</time>
      </trkpt>
      <trkpt lat="45.93455" lon="4.77002">
        <ele>170</ele>
        <time>2017-04-03T08:50:35Z</time>
      </trkpt>
      <trkpt lat="45.93457" lon="4.7701">
        <ele>170</ele>
        <time>2017-04-03T08:50:36Z</time>
      </trkpt>
      <trkpt lat="45.93458" lon="4.77018">
        <ele>170</ele>
        <time>2017-04-03T08:50:37Z</time>
      </trkpt>
      <trkpt lat="45.9346" lon="4.77026">
        <ele>170</ele>
        <time>2017-04-03T08:50:38Z</time>
      </trkpt>
      <trkpt lat="45.93461" lon="4.77033">
        <ele>170</ele>
        <time>2017-04-03T08:50:39Z</time>
      </trkpt>
      <trkpt lat="45.93462" lon="4.77041">
        <ele>170</ele>
        <time>2017-04-03T08:50:40Z</time>
      </trkpt>
      <trkpt lat="45.93463" lon="4.77048">
        <ele>170</ele>
        <time>2017-04-03T08:50:41Z</time>
      </trkpt>
      <trkpt lat="45.93464" lon="4.77056">
        <ele>170</ele>
        <time>2017-04-03T08:50:42Z</time>
      </trkpt>
      <trkpt lat="45.93466" lon="4.77064">
        <ele>170</ele>
        <time>2017-04-03T08:50:43Z</time>
      </trkpt>
      <trkpt lat="45.93467" lon="4.77071">
        <ele>170</ele>
        <time>2017-04-03T08:50:44Z</time>
      </trkpt>
      <trkpt lat="45.93469" lon="4.77079">
        <ele>170</ele>
        <time>2017-04-03T08:50:45Z</time>
      </trkpt>
      <trkpt lat="45.9347" lon="4.77087">
        <ele>170</ele>
        <time>2017-04-03T08:50:46Z</time>
      </trkpt>
      <trkpt lat="45.93471" lon="4.77095">
        <ele>169</ele>
        <time>2017-04-03T08:50:47Z</time>
      </trkpt>
      <trkpt lat="45.93473" lon="4.77103">
        <ele>169</ele>
        <time>2017-04-03T08:50:48Z</time>
      </trkpt>
      <trkpt lat="45.93474" lon="4.77111">
        <ele>169</ele>
        <time>2017-04-03T08:50:49Z</time>
      </trkpt>
      <trkpt lat="45.93475" lon="4.77119">
        <ele>169</ele>
        <time>2017-04-03T08:50:50Z</time>
      </trkpt>
      <trkpt lat="45.93477" lon="4.77127">
        <ele>169</ele>
        <time>2017-04-03T08:50:51Z</time>
      </trkpt>
      <trkpt lat="45.93479" lon="4.77135">
        <ele>169</ele>
        <time>2017-04-03T08:50:52Z</time>
      </trkpt>
      <trkpt lat="45.9348" lon="4.77142">
        <ele>169</ele>
        <time>2017-04-03T08:50:53Z</time>
      </trkpt>
      <trkpt lat="45.93482" lon="4.7715">
        <ele>169</ele>
        <time>2017-04-03T08:50:54Z</time>
      </trkpt>
      <trkpt lat="45.93483" lon="4.77157">
        <ele>169</ele>
        <time>2017-04-03T08:50:55Z</time>
      </trkpt>
      <trkpt lat="45.93485" lon="4.77165">
        <ele>169</ele>
        <time>2017-04-03T08:50:56Z</time>
      </trkpt>
      <trkpt lat="45.93486" lon="4.77172">
        <ele>169</ele>
        <time>2017-04-03T08:50:57Z</time>
      </trkpt>
      <trkpt lat="45.93488" lon="4.77179">
        <ele>169</ele>
        <time>2017-04-03T08:50:58Z</time>
      </trkpt>
      <trkpt lat="45.9349" lon="4.77187">
        <ele>169</ele>
        <time>2017-04-03T08:50:59Z</time>
      </trkpt>
      <trkpt lat="45.93491" lon="4.77194">
        <ele>169</ele>
        <time>2017-04-03T08:51:00Z</time>
      </trkpt>
      <trkpt lat="45.93493" lon="4.77201">
        <ele>169</ele>
        <time>2017-04-03T08:51:01Z</time>
      </trkpt>
      <trkpt lat="45.93495" lon="4.77209">
        <ele>169</ele>
        <time>2017-04-03T08:51:02Z</time>
      </trkpt>
      <trkpt lat="45.93496" lon="4.77216">
        <ele>169</ele>
        <time>2017-04-03T08:51:03Z</time>
      </trkpt>
      <trkpt lat="45.93498" lon="4.77223">
        <ele>169</ele>
        <time>2017-04-03T08:51:04Z</time>
      </trkpt>
      <trkpt lat="45.935" lon="4.7723">
        <ele>169</ele>
        <time>2017-04-03T08:51:05Z</time>
      </trkpt>
      <trkpt lat="45.93502" lon="4.77237">
        <ele>169</ele>
        <time>2017-04-03T08:51:06Z</time>
      </trkpt>
      <trkpt lat="45.93503" lon="4.77244">
        <ele>170</ele>
        <time>2017-04-03T08:51:07Z</time>
      </trkpt>
      <trkpt lat="45.93505" lon="4.77252">
        <ele>170</ele>
        <time>2017-04-03T08:51:08Z</time>
      </trkpt>
      <trkpt lat="45.93506" lon="4.77259">
        <ele>170</ele>
        <time>2017-04-03T08:51:09Z</time>
      </trkpt>
      <trkpt lat="45.93508" lon="4.77266">
        <ele>170</ele>
        <time>2017-04-03T08:51:10Z</time>
      </trkpt>
      <trkpt lat="45.9351" lon="4.77273">
        <ele>170</ele>
        <time>2017-04-03T08:51:11Z</time>
      </trkpt>
      <trkpt lat="45.93511" lon="4.7728">
        <ele>170</ele>
        <time>2017-04-03T08:51:12Z</time>
      </trkpt>
      <trkpt lat="45.93513" lon="4.77287">
        <ele>170</ele>
        <time>2017-04-03T08:51:13Z</time>
      </trkpt>
      <trkpt lat="45.93515" lon="4.77294">
        <ele>170</ele>
        <time>2017-04-03T08:51:14Z</time>
      </trkpt>
      <trkpt lat="45.93516" lon="4.77301">
        <ele>170</ele>
        <time>2017-04-03T08:51:15Z</time>
      </trkpt>
      <trkpt lat="45.93517" lon="4.77307">
        <ele>170</ele>
        <time>2017-04-03T08:51:16Z</time>
      </trkpt>
      <trkpt lat="45.93519" lon="4.77314">
        <ele>170</ele>
        <time>2017-04-03T08:51:17Z</time>
      </trkpt>
      <trkpt lat="45.9352" lon="4.77321">
        <ele>170</ele>
        <time>2017-04-03T08:51:18Z</time>
      </trkpt>
      <trkpt lat="45.93522" lon="4.77328">
        <ele>170</ele>
        <time>2017-04-03T08:51:19Z</time>
      </trkpt>
      <trkpt lat="45.93523" lon="4.77335">
        <ele>170</ele>
        <time>2017-04-03T08:51:20Z</time>
      </trkpt>
      <trkpt lat="45.93525" lon="4.77342">
        <ele>170</ele>
        <time>2017-04-03T08:51:21Z</time>
      </trkpt>
      <trkpt lat="45.93526" lon="4.77349">
        <ele>170</ele>
        <time>2017-04-03T08:51:22Z</time>
      </trkpt>
      <trkpt lat="45.93528" lon="4.77355">
        <ele>170</ele>
        <time>2017-04-03T08:51:23Z</time>
      </trkpt>
      <trkpt lat="45.9353" lon="4.77362">
        <ele>170</ele>
        <time>2017-04-03T08:51:24Z</time>
      </trkpt>
      <trkpt lat="45.93531" lon="4.77369">
        <ele>170</ele>
        <time>2017-04-03T08:51:25Z</time>
      </trkpt>
      <trkpt lat="45.93533" lon="4.77376">
        <ele>170</ele>
        <time>2017-04-03T08:51:26Z</time>
      </trkpt>
      <trkpt lat="45.93535" lon="4.77382">
        <ele>170</ele>
        <time>2017-04-03T08:51:27Z</time>
      </trkpt>
      <trkpt lat="45.93536" lon="4.7739">
        <ele>170</ele>
        <time>2017-04-03T08:51:28Z</time>
      </trkpt>
      <trkpt lat="45.93538" lon="4.77397">
        <ele>170</ele>
        <time>2017-04-03T08:51:29Z</time>
      </trkpt>
      <trkpt lat="45.93539" lon="4.77405">
        <ele>170</ele>
        <time>2017-04-03T08:51:30Z</time>
      </trkpt>
      <trkpt lat="45.9354" lon="4.77412">
        <ele>170</ele>
        <time>2017-04-03T08:51:31Z</time>
      </trkpt>
      <trkpt lat="45.93542" lon="4.7742">
        <ele>170</ele>
        <time>2017-04-03T08:51:32Z</time>
      </trkpt>
      <trkpt lat="45.93543" lon="4.77427">
        <ele>169</ele>
        <time>2017-04-03T08:51:33Z</time>
      </trkpt>
      <trkpt lat="45.93545" lon="4.77435">
        <ele>169</ele>
        <time>2017-04-03T08:51:34Z</time>
      </trkpt>
      <trkpt lat="45.93546" lon="4.77442">
        <ele>169</ele>
        <time>2017-04-03T08:51:35Z</time>
      </trkpt>
      <trkpt lat="45.93547" lon="4.7745">
        <ele>169</ele>
        <time>2017-04-03T08:51:36Z</time>
      </trkpt>
      <trkpt lat="45.9355" lon="4.77457">
        <ele>169</ele>
        <time>2017-04-03T08:51:37Z</time>
      </trkpt>
      <trkpt lat="45.93552" lon="4.77465">
        <ele>169</ele>
        <time>2017-04-03T08:51:38Z</time>
      </trkpt>
      <trkpt lat="45.93554" lon="4.77472">
        <ele>169</ele>
        <time>2017-04-03T08:51:39Z</time>
      </trkpt>
      <trkpt lat="45.93555" lon="4.77479">
        <ele>169</ele>
        <time>2017-04-03T08:51:40Z</time>
      </trkpt>
      <trkpt lat="45.93556" lon="4.77486">
        <ele>169</ele>
        <time>2017-04-03T08:51:41Z</time>
      </trkpt>
      <trkpt lat="45.93558" lon="4.77493">
        <ele>169</ele>
        <time>2017-04-03T08:51:42Z</time>
      </trkpt>
      <trkpt lat="45.93559" lon="4.77501">
        <ele>169</ele>
        <time>2017-04-03T08:51:43Z</time>
      </trkpt>
      <trkpt lat="45.93561" lon="4.77508">
        <ele>169</ele>
        <time>2017-04-03T08:51:44Z</time>
      </trkpt>
      <trkpt lat="45.93563" lon="4.77515">
        <ele>169</ele>
        <time>2017-04-03T08:51:45Z</time>
      </trkpt>
      <trkpt lat="45.93564" lon="4.77522">
        <ele>169</ele>
        <time>2017-04-03T08:51:46Z</time>
      </trkpt>
      <trkpt lat="45.93566" lon="4.77529">
        <ele>169</ele>
        <time>2017-04-03T08:51:47Z</time>
      </trkpt>
      <trkpt lat="45.93568" lon="4.77536">
        <ele>169</ele>
        <time>2017-04-03T08:51:48Z</time>
      </trkpt>
      <trkpt lat="45.9357" lon="4.77543">
        <ele>169</ele>
        <time>2017-04-03T08:51:49Z</time>
      </trkpt>
      <trkpt lat="45.93571" lon="4.77549">
        <ele>169</ele>
        <time>2017-04-03T08:51:50Z</time>
      </trkpt>
      <trkpt lat="45.93573" lon="4.77556">
        <ele>169</ele>
        <time>2017-04-03T08:51:51Z</time>
      </trkpt>
      <trkpt lat="45.93575" lon="4.77563">
        <ele>169</ele>
        <time>2017-04-03T08:51:52Z</time>
      </trkpt>
      <trkpt lat="45.93577" lon="4.77569">
        <ele>170</ele>
        <time>2017-04-03T08:51:53Z</time>
      </trkpt>
      <trkpt lat="45.93579" lon="4.77576">
        <ele>170</ele>
        <time>2017-04-03T08:51:54Z</time>
      </trkpt>
      <trkpt lat="45.93581" lon="4.77582">
        <ele>170</ele>
        <time>2017-04-03T08:51:55Z</time>
      </trkpt>
      <trkpt lat="45.93584" lon="4.77589">
        <ele>170</ele>
        <time>2017-04-03T08:51:56Z</time>
      </trkpt>
      <trkpt lat="45.93586" lon="4.77595">
        <ele>170</ele>
        <time>2017-04-03T08:51:57Z</time>
      </trkpt>
      <trkpt lat="45.93588" lon="4.77602">
        <ele>170</ele>
        <time>2017-04-03T08:51:58Z</time>
      </trkpt>
      <trkpt lat="45.9359" lon="4.77609">
        <ele>170</ele>
        <time>2017-04-03T08:51:59Z</time>
      </trkpt>
      <trkpt lat="45.93592" lon="4.77616">
        <ele>170</ele>
        <time>2017-04-03T08:52:00Z</time>
      </trkpt>
      <trkpt lat="45.93595" lon="4.77623">
        <ele>170</ele>
        <time>2017-04-03T08:52:01Z</time>
      </trkpt>
      <trkpt lat="45.93597" lon="4.77629">
        <ele>169</ele>
        <time>2017-04-03T08:52:02Z</time>
      </trkpt>
      <trkpt lat="45.93599" lon="4.77635">
        <ele>169</ele>
        <time>2017-04-03T08:52:03Z</time>
      </trkpt>
      <trkpt lat="45.93601" lon="4.77641">
        <ele>169</ele>
        <time>2017-04-03T08:52:04Z</time>
      </trkpt>
      <trkpt lat="45.93604" lon="4.77647">
        <ele>169</ele>
        <time>2017-04-03T08:52:05Z</time>
      </trkpt>
      <trkpt lat="45.93607" lon="4.77653">
        <ele>169</ele>
        <time>2017-04-03T08:52:06Z</time>
      </trkpt>
      <trkpt lat="45.93609" lon="4.77658">
        <ele>169</ele>
        <time>2017-04-03T08:52:07Z</time>
      </trkpt>
      <trkpt lat="45.93612" lon="4.77665">
        <ele>169</ele>
        <time>2017-04-03T08:52:08Z</time>
      </trkpt>
      <trkpt lat="45.93615" lon="4.77671">
        <ele>169</ele>
        <time>2017-04-03T08:52:09Z</time>
      </trkpt>
      <trkpt lat="45.93617" lon="4.77676">
        <ele>169</ele>
        <time>2017-04-03T08:52:10Z</time>
      </trkpt>
      <trkpt lat="45.9362" lon="4.77682">
        <ele>169</ele>
        <time>2017-04-03T08:52:11Z</time>
      </trkpt>
      <trkpt lat="45.93622" lon="4.77687">
        <ele>169</ele>
        <time>2017-04-03T08:52:12Z</time>
      </trkpt>
      <trkpt lat="45.93627" lon="4.77698">
        <ele>169</ele>
        <time>2017-04-03T08:52:14Z</time>
      </trkpt>
      <trkpt lat="45.9363" lon="4.77703">
        <ele>169</ele>
        <time>2017-04-03T08:52:15Z</time>
      </trkpt>
      <trkpt lat="45.93635" lon="4.77712">
        <ele>170</ele>
        <time>2017-04-03T08:52:17Z</time>
      </trkpt>
      <trkpt lat="45.93637" lon="4.77717">
        <ele>170</ele>
        <time>2017-04-03T08:52:18Z</time>
      </trkpt>
      <trkpt lat="45.93643" lon="4.77727">
        <ele>170</ele>
        <time>2017-04-03T08:52:20Z</time>
      </trkpt>
      <trkpt lat="45.93645" lon="4.77732">
        <ele>170</ele>
        <time>2017-04-03T08:52:21Z</time>
      </trkpt>
      <trkpt lat="45.93651" lon="4.77741">
        <ele>170</ele>
        <time>2017-04-03T08:52:23Z</time>
      </trkpt>
      <trkpt lat="45.93654" lon="4.77745">
        <ele>170</ele>
        <time>2017-04-03T08:52:24Z</time>
      </trkpt>
      <trkpt lat="45.93659" lon="4.77753">
        <ele>171</ele>
        <time>2017-04-03T08:52:26Z</time>
      </trkpt>
      <trkpt lat="45.93662" lon="4.77757">
        <ele>171</ele>
        <time>2017-04-03T08:52:27Z</time>
      </trkpt>
      <trkpt lat="45.93667" lon="4.77765">
        <ele>170</ele>
        <time>2017-04-03T08:52:29Z</time>
      </trkpt>
      <trkpt lat="45.9367" lon="4.7777">
        <ele>170</ele>
        <time>2017-04-03T08:52:30Z</time>
      </trkpt>
      <trkpt lat="45.93676" lon="4.77778">
        <ele>170</ele>
        <time>2017-04-03T08:52:32Z</time>
      </trkpt>
      <trkpt lat="45.93679" lon="4.77782">
        <ele>170</ele>
        <time>2017-04-03T08:52:33Z</time>
      </trkpt>
      <trkpt lat="45.93685" lon="4.7779">
        <ele>170</ele>
        <time>2017-04-03T08:52:35Z</time>
      </trkpt>
      <trkpt lat="45.93688" lon="4.77794">
        <ele>170</ele>
        <time>2017-04-03T08:52:36Z</time>
      </trkpt>
      <trkpt lat="45.93694" lon="4.778">
        <ele>169</ele>
        <time>2017-04-03T08:52:38Z</time>
      </trkpt>
      <trkpt lat="45.93697" lon="4.77804">
        <ele>169</ele>
        <time>2017-04-03T08:52:39Z</time>
      </trkpt>
      <trkpt lat="45.93703" lon="4.77812">
        <ele>169</ele>
        <time>2017-04-03T08:52:41Z</time>
      </trkpt>
      <trkpt lat="45.93706" lon="4.77815">
        <ele>169</ele>
        <time>2017-04-03T08:52:42Z</time>
      </trkpt>
      <trkpt lat="45.93712" lon="4.77825">
        <ele>169</ele>
        <time>2017-04-03T08:52:44Z</time>
      </trkpt>
      <trkpt lat="45.93714" lon="4.77829">
        <ele>169</ele>
        <time>2017-04-03T08:52:45Z</time>
      </trkpt>
      <trkpt lat="45.9372" lon="4.77837">
        <ele>167</ele>
        <time>2017-04-03T08:52:47Z</time>
      </trkpt>
      <trkpt lat="45.93722" lon="4.77841">
        <ele>167</ele>
        <time>2017-04-03T08:52:48Z</time>
      </trkpt>
      <trkpt lat="45.93728" lon="4.7785">
        <ele>167</ele>
        <time>2017-04-03T08:52:50Z</time>
      </trkpt>
      <trkpt lat="45.9373" lon="4.77854">
        <ele>167</ele>
        <time>2017-04-03T08:52:51Z</time>
      </trkpt>
      <trkpt lat="45.93737" lon="4.77862">
        <ele>167</ele>
        <time>2017-04-03T08:52:53Z</time>
      </trkpt>
      <trkpt lat="45.9374" lon="4.77866">
        <ele>167</ele>
        <time>2017-04-03T08:52:54Z</time>
      </trkpt>
      <trkpt lat="45.93746" lon="4.77875">
        <ele>167</ele>
        <time>2017-04-03T08:52:56Z</time>
      </trkpt>
      <trkpt lat="45.93749" lon="4.77879">
        <ele>167</ele>
        <time>2017-04-03T08:52:57Z</time>
      </trkpt>
      <trkpt lat="45.93755" lon="4.77887">
        <ele>166</ele>
        <time>2017-04-03T08:52:59Z</time>
      </trkpt>
      <trkpt lat="45.93758" lon="4.77891">
        <ele>166</ele>
        <time>2017-04-03T08:53:00Z</time>
      </trkpt>
      <trkpt lat="45.93761" lon="4.77895">
        <ele>166</ele>
        <time>2017-04-03T08:53:01Z</time>
      </trkpt>
      <trkpt lat="45.93765" lon="4.77899">
        <ele>166</ele>
        <time>2017-04-03T08:53:02Z</time>
      </trkpt>
      <trkpt lat="45.93769" lon="4.77903">
        <ele>166</ele>
        <time>2017-04-03T08:53:03Z</time>
      </trkpt>
      <trkpt lat="45.93773" lon="4.77908">
        <ele>166</ele>
        <time>2017-04-03T08:53:04Z</time>
      </trkpt>
      <trkpt lat="45.93776" lon="4.77912">
        <ele>166</ele>
        <time>2017-04-03T08:53:05Z</time>
      </trkpt>
      <trkpt lat="45.9378" lon="4.77917">
        <ele>168</ele>
        <time>2017-04-03T08:53:06Z</time>
      </trkpt>
      <trkpt lat="45.93784" lon="4.77922">
        <ele>168</ele>
        <time>2017-04-03T08:53:07Z</time>
      </trkpt>
      <trkpt lat="45.93788" lon="4.77927">
        <ele>168</ele>
        <time>2017-04-03T08:53:08Z</time>
      </trkpt>
      <trkpt lat="45.93791" lon="4.77931">
        <ele>168</ele>
        <time>2017-04-03T08:53:09Z</time>
      </trkpt>
      <trkpt lat="45.93795" lon="4.77936">
        <ele>168</ele>
        <time>2017-04-03T08:53:10Z</time>
      </trkpt>
      <trkpt lat="45.93799" lon="4.7794">
        <ele>169</ele>
        <time>2017-04-03T08:53:11Z</time>
      </trkpt>
      <trkpt lat="45.93802" lon="4.77945">
        <ele>169</ele>
        <time>2017-04-03T08:53:12Z</time>
      </trkpt>
      <trkpt lat="45.93806" lon="4.7795">
        <ele>169</ele>
        <time>2017-04-03T08:53:13Z</time>
      </trkpt>
      <trkpt lat="45.9381" lon="4.77955">
        <ele>170</ele>
        <time>2017-04-03T08:53:14Z</time>
      </trkpt>
      <trkpt lat="45.93814" lon="4.7796">
        <ele>170</ele>
        <time>2017-04-03T08:53:15Z</time>
      </trkpt>
      <trkpt lat="45.93818" lon="4.77965">
        <ele>171</ele>
        <time>2017-04-03T08:53:16Z</time>
      </trkpt>
      <trkpt lat="45.93823" lon="4.77971">
        <ele>172</ele>
        <time>2017-04-03T08:53:17Z</time>
      </trkpt>
      <trkpt lat="45.93827" lon="4.77977">
        <ele>173</ele>
        <time>2017-04-03T08:53:18Z</time>
      </trkpt>
      <trkpt lat="45.9383" lon="4.77983">
        <ele>174</ele>
        <time>2017-04-03T08:53:19Z</time>
      </trkpt>
      <trkpt lat="45.93834" lon="4.7799">
        <ele>179</ele>
        <time>2017-04-03T08:53:20Z</time>
      </trkpt>
      <trkpt lat="45.93836" lon="4.77998">
        <ele>179</ele>
        <time>2017-04-03T08:53:21Z</time>
      </trkpt>
      <trkpt lat="45.93837" lon="4.78006">
        <ele>180</ele>
        <time>2017-04-03T08:53:22Z</time>
      </trkpt>
      <trkpt lat="45.93838" lon="4.78015">
        <ele>181</ele>
        <time>2017-04-03T08:53:23Z</time>
      </trkpt>
      <trkpt lat="45.9384" lon="4.78023">
        <ele>182</ele>
        <time>2017-04-03T08:53:24Z</time>
      </trkpt>
      <trkpt lat="45.93842" lon="4.7803">
        <ele>182</ele>
        <time>2017-04-03T08:53:25Z</time>
      </trkpt>
      <trkpt lat="45.93848" lon="4.78031">
        <ele>182</ele>
        <time>2017-04-03T08:53:26Z</time>
      </trkpt>
      <trkpt lat="45.93852" lon="4.78032">
        <ele>182</ele>
        <time>2017-04-03T08:53:27Z</time>
      </trkpt>
      <trkpt lat="45.93858" lon="4.78031">
        <ele>183</ele>
        <time>2017-04-03T08:53:28Z</time>
      </trkpt>
      <trkpt lat="45.93866" lon="4.78028">
        <ele>183</ele>
        <time>2017-04-03T08:53:30Z</time>
      </trkpt>
      <trkpt lat="45.9387" lon="4.78027">
        <ele>183</ele>
        <time>2017-04-03T08:53:31Z</time>
      </trkpt>
      <trkpt lat="45.93878" lon="4.78023">
        <ele>184</ele>
        <time>2017-04-03T08:53:34Z</time>
      </trkpt>
      <trkpt lat="45.9388" lon="4.7802">
        <ele>184</ele>
        <time>2017-04-03T08:53:35Z</time>
      </trkpt>
      <trkpt lat="45.93887" lon="4.78012">
        <ele>184</ele>
        <time>2017-04-03T08:53:38Z</time>
      </trkpt>
      <trkpt lat="45.93889" lon="4.7801">
        <ele>184</ele>
        <time>2017-04-03T08:53:39Z</time>
      </trkpt>
      <trkpt lat="45.93896" lon="4.78003">
        <ele>185</ele>
        <time>2017-04-03T08:53:42Z</time>
      </trkpt>
      <trkpt lat="45.93898" lon="4.78001">
        <ele>185</ele>
        <time>2017-04-03T08:53:43Z</time>
      </trkpt>
      <trkpt lat="45.93904" lon="4.77994">
        <ele>183</ele>
        <time>2017-04-03T08:53:46Z</time>
      </trkpt>
      <trkpt lat="45.93907" lon="4.77992">
        <ele>183</ele>
        <time>2017-04-03T08:53:47Z</time>
      </trkpt>
      <trkpt lat="45.93914" lon="4.77986">
        <ele>183</ele>
        <time>2017-04-03T08:53:51Z</time>
      </trkpt>
      <trkpt lat="45.93915" lon="4.77984">
        <ele>183</ele>
        <time>2017-04-03T08:53:52Z</time>
      </trkpt>
      <trkpt lat="45.93922" lon="4.77978">
        <ele>188</ele>
        <time>2017-04-03T08:53:56Z</time>
      </trkpt>
      <trkpt lat="45.93924" lon="4.77976">
        <ele>188</ele>
        <time>2017-04-03T08:53:57Z</time>
      </trkpt>
      <trkpt lat="45.93932" lon="4.77971">
        <ele>189</ele>
        <time>2017-04-03T08:54:01Z</time>
      </trkpt>
      <trkpt lat="45.93934" lon="4.77969">
        <ele>189</ele>
        <time>2017-04-03T08:54:02Z</time>
      </trkpt>
      <trkpt lat="45.93941" lon="4.77962">
        <ele>189</ele>
        <time>2017-04-03T08:54:06Z</time>
      </trkpt>
      <trkpt lat="45.93943" lon="4.77961">
        <ele>189</ele>
        <time>2017-04-03T08:54:07Z</time>
      </trkpt>
      <trkpt lat="45.93949" lon="4.77956">
        <ele>189</ele>
        <time>2017-04-03T08:54:12Z</time>
      </trkpt>
      <trkpt lat="45.9395" lon="4.77954">
        <ele>189</ele>
        <time>2017-04-03T08:54:13Z</time>
      </trkpt>
      <trkpt lat="45.93956" lon="4.77948">
        <ele>190</ele>
        <time>2017-04-03T08:54:16Z</time>
      </trkpt>
      <trkpt lat="45.93959" lon="4.77946">
        <ele>190</ele>
        <time>2017-04-03T08:54:17Z</time>
      </trkpt>
      <trkpt lat="45.93966" lon="4.77941">
        <ele>190</ele>
        <time>2017-04-03T08:54:21Z</time>
      </trkpt>
      <trkpt lat="45.93968" lon="4.77939">
        <ele>190</ele>
        <time>2017-04-03T08:54:22Z</time>
      </trkpt>
      <trkpt lat="45.93974" lon="4.77936">
        <ele>191</ele>
        <time>2017-04-03T08:54:25Z</time>
      </trkpt>
      <trkpt lat="45.93976" lon="4.77935">
        <ele>191</ele>
        <time>2017-04-03T08:54:26Z</time>
      </trkpt>
      <trkpt lat="45.93982" lon="4.77933">
        <ele>192</ele>
        <time>2017-04-03T08:54:29Z</time>
      </trkpt>
      <trkpt lat="45.93986" lon="4.77933">
        <ele>192</ele>
        <time>2017-04-03T08:54:30Z</time>
      </trkpt>
      <trkpt lat="45.93994" lon="4.77929">
        <ele>192</ele>
        <time>2017-04-03T08:54:34Z</time>
      </trkpt>
      <trkpt lat="45.93995" lon="4.77929">
        <ele>192</ele>
        <time>2017-04-03T08:54:35Z</time>
      </trkpt>
      <trkpt lat="45.94004" lon="4.77932">
        <ele>197</ele>
        <time>2017-04-03T08:54:41Z</time>
      </trkpt>
      <trkpt lat="45.94005" lon="4.77933">
        <ele>198</ele>
        <time>2017-04-03T08:54:42Z</time>
      </trkpt>
      <trkpt lat="45.9401" lon="4.77942">
        <ele>199</ele>
        <time>2017-04-03T08:54:48Z</time>
      </trkpt>
      <trkpt lat="45.94011" lon="4.77945">
        <ele>199</ele>
        <time>2017-04-03T08:54:49Z</time>
      </trkpt>
      <trkpt lat="45.94011" lon="4.77955">
        <ele>199</ele>
        <time>2017-04-03T08:54:53Z</time>
      </trkpt>
      <trkpt lat="45.94012" lon="4.77958">
        <ele>199</ele>
        <time>2017-04-03T08:54:54Z</time>
      </trkpt>
      <trkpt lat="45.9401" lon="4.77968">
        <ele>199</ele>
        <time>2017-04-03T08:54:57Z</time>
      </trkpt>
      <trkpt lat="45.94009" lon="4.77971">
        <ele>199</ele>
        <time>2017-04-03T08:54:58Z</time>
      </trkpt>
      <trkpt lat="45.94009" lon="4.77982">
        <ele>199</ele>
        <time>2017-04-03T08:55:01Z</time>
      </trkpt>
      <trkpt lat="45.94009" lon="4.77986">
        <ele>199</ele>
        <time>2017-04-03T08:55:02Z</time>
      </trkpt>
      <trkpt lat="45.94008" lon="4.77997">
        <ele>198</ele>
        <time>2017-04-03T08:55:05Z</time>
      </trkpt>
      <trkpt lat="45.94008" lon="4.78001">
        <ele>198</ele>
        <time>2017-04-03T08:55:06Z</time>
      </trkpt>
      <trkpt lat="45.94007" lon="4.78011">
        <ele>199</ele>
        <time>2017-04-03T08:55:09Z</time>
      </trkpt>
      <trkpt lat="45.94007" lon="4.78015">
        <ele>199</ele>
        <time>2017-04-03T08:55:10Z</time>
      </trkpt>
      <trkpt lat="45.94006" lon="4.78027">
        <ele>200</ele>
        <time>2017-04-03T08:55:13Z</time>
      </trkpt>
      <trkpt lat="45.94006" lon="4.78031">
        <ele>201</ele>
        <time>2017-04-03T08:55:14Z</time>
      </trkpt>
      <trkpt lat="45.94005" lon="4.78043">
        <ele>201</ele>
        <time>2017-04-03T08:55:17Z</time>
      </trkpt>
      <trkpt lat="45.94004" lon="4.78048">
        <ele>201</ele>
        <time>2017-04-03T08:55:18Z</time>
      </trkpt>
      <trkpt lat="45.94001" lon="4.78056">
        <ele>201</ele>
        <time>2017-04-03T08:55:20Z</time>
      </trkpt>
      <trkpt lat="45.93999" lon="4.7806">
        <ele>196</ele>
        <time>2017-04-03T08:55:21Z</time>
      </trkpt>
      <trkpt lat="45.93997" lon="4.78069">
        <ele>196</ele>
        <time>2017-04-03T08:55:23Z</time>
      </trkpt>
      <trkpt lat="45.93995" lon="4.78073">
        <ele>197</ele>
        <time>2017-04-03T08:55:24Z</time>
      </trkpt>
      <trkpt lat="45.93993" lon="4.78082">
        <ele>197</ele>
        <time>2017-04-03T08:55:26Z</time>
      </trkpt>
      <trkpt lat="45.93992" lon="4.78086">
        <ele>198</ele>
        <time>2017-04-03T08:55:27Z</time>
      </trkpt>
      <trkpt lat="45.93992" lon="4.78096">
        <ele>198</ele>
        <time>2017-04-03T08:55:29Z</time>
      </trkpt>
      <trkpt lat="45.93991" lon="4.781">
        <ele>197</ele>
        <time>2017-04-03T08:55:30Z</time>
      </trkpt>
      <trkpt lat="45.93991" lon="4.78109">
        <ele>197</ele>
        <time>2017-04-03T08:55:32Z</time>
      </trkpt>
      <trkpt lat="45.9399" lon="4.78114">
        <ele>197</ele>
        <time>2017-04-03T08:55:33Z</time>
      </trkpt>
      <trkpt lat="45.9399" lon="4.78126">
        <ele>197</ele>
        <time>2017-04-03T08:55:35Z</time>
      </trkpt>
      <trkpt lat="45.93991" lon="4.78131">
        <ele>197</ele>
        <time>2017-04-03T08:55:36Z</time>
      </trkpt>
      <trkpt lat="45.9399" lon="4.78141">
        <ele>198</ele>
        <time>2017-04-03T08:55:38Z</time>
      </trkpt>
      <trkpt lat="45.93991" lon="4.78145">
        <ele>198</ele>
        <time>2017-04-03T08:55:39Z</time>
      </trkpt>
      <trkpt lat="45.93997" lon="4.7815">
        <ele>199</ele>
        <time>2017-04-03T08:55:41Z</time>
      </trkpt>
      <trkpt lat="45.93999" lon="4.78152">
        <ele>199</ele>
        <time>2017-04-03T08:55:42Z</time>
      </trkpt>
      <trkpt lat="45.94005" lon="4.7816">
        <ele>202</ele>
        <time>2017-04-03T08:55:45Z</time>
      </trkpt>
      <trkpt lat="45.94004" lon="4.78165">
        <ele>202</ele>
        <time>2017-04-03T08:55:46Z</time>
      </trkpt>
      <trkpt lat="45.94009" lon="4.78172">
        <ele>202</ele>
        <time>2017-04-03T08:55:49Z</time>
      </trkpt>
      <trkpt lat="45.94011" lon="4.78174">
        <ele>203</ele>
        <time>2017-04-03T08:55:50Z</time>
      </trkpt>
      <trkpt lat="45.94017" lon="4.78181">
        <ele>203</ele>
        <time>2017-04-03T08:55:54Z</time>
      </trkpt>
      <trkpt lat="45.94019" lon="4.78182">
        <ele>203</ele>
        <time>2017-04-03T08:55:55Z</time>
      </trkpt>
      <trkpt lat="45.94026" lon="4.78186">
        <ele>204</ele>
        <time>2017-04-03T08:55:59Z</time>
      </trkpt>
      <trkpt lat="45.94027" lon="4.78188">
        <ele>204</ele>
        <time>2017-04-03T08:56:00Z</time>
      </trkpt>
      <trkpt lat="45.94035" lon="4.78193">
        <ele>205</ele>
        <time>2017-04-03T08:56:03Z</time>
      </trkpt>
      <trkpt lat="45.94037" lon="4.78195">
        <ele>205</ele>
        <time>2017-04-03T08:56:04Z</time>
      </trkpt>
      <trkpt lat="45.94045" lon="4.78201">
        <ele>205</ele>
        <time>2017-04-03T08:56:07Z</time>
      </trkpt>
      <trkpt lat="45.94046" lon="4.78203">
        <ele>205</ele>
        <time>2017-04-03T08:56:08Z</time>
      </trkpt>
      <trkpt lat="45.94053" lon="4.78209">
        <ele>205</ele>
        <time>2017-04-03T08:56:11Z</time>
      </trkpt>
      <trkpt lat="45.94055" lon="4.78211">
        <ele>205</ele>
        <time>2017-04-03T08:56:12Z</time>
      </trkpt>
      <trkpt lat="45.94063" lon="4.78214">
        <ele>206</ele>
        <time>2017-04-03T08:56:15Z</time>
      </trkpt>
      <trkpt lat="45.94067" lon="4.78213">
        <ele>206</ele>
        <time>2017-04-03T08:56:16Z</time>
      </trkpt>
      <trkpt lat="45.94073" lon="4.78216">
        <ele>206</ele>
        <time>2017-04-03T08:56:18Z</time>
      </trkpt>
      <trkpt lat="45.94076" lon="4.78217">
        <ele>206</ele>
        <time>2017-04-03T08:56:19Z</time>
      </trkpt>
      <trkpt lat="45.94082" lon="4.78218">
        <ele>206</ele>
        <time>2017-04-03T08:56:21Z</time>
      </trkpt>
      <trkpt lat="45.94085" lon="4.7822">
        <ele>213</ele>
        <time>2017-04-03T08:56:22Z</time>
      </trkpt>
      <trkpt lat="45.94091" lon="4.78224">
        <ele>213</ele>
        <time>2017-04-03T08:56:24Z</time>
      </trkpt>
      <trkpt lat="45.94094" lon="4.78225">
        <ele>213</ele>
        <time>2017-04-03T08:56:25Z</time>
      </trkpt>
      <trkpt lat="45.94101" lon="4.78227">
        <ele>213</ele>
        <time>2017-04-03T08:56:27Z</time>
      </trkpt>
      <trkpt lat="45.94104" lon="4.78228">
        <ele>213</ele>
        <time>2017-04-03T08:56:28Z</time>
      </trkpt>
      <trkpt lat="45.94112" lon="4.78233">
        <ele>214</ele>
        <time>2017-04-03T08:56:31Z</time>
      </trkpt>
      <trkpt lat="45.94114" lon="4.78235">
        <ele>214</ele>
        <time>2017-04-03T08:56:32Z</time>
      </trkpt>
      <trkpt lat="45.9412" lon="4.78239">
        <ele>214</ele>
        <time>2017-04-03T08:56:35Z</time>
      </trkpt>
      <trkpt lat="45.94123" lon="4.78241">
        <ele>215</ele>
        <time>2017-04-03T08:56:36Z</time>
      </trkpt>
      <trkpt lat="45.94128" lon="4.78249">
        <ele>215</ele>
        <time>2017-04-03T08:56:39Z</time>
      </trkpt>
      <trkpt lat="45.94129" lon="4.78251">
        <ele>214</ele>
        <time>2017-04-03T08:56:40Z</time>
      </trkpt>
      <trkpt lat="45.94136" lon="4.78257">
        <ele>215</ele>
        <time>2017-04-03T08:56:43Z</time>
      </trkpt>
      <trkpt lat="45.94138" lon="4.78259">
        <ele>215</ele>
        <time>2017-04-03T08:56:44Z</time>
      </trkpt>
      <trkpt lat="45.94144" lon="4.78266">
        <ele>215</ele>
        <time>2017-04-03T08:56:48Z</time>
      </trkpt>
      <trkpt lat="45.94146" lon="4.78268">
        <ele>215</ele>
        <time>2017-04-03T08:56:49Z</time>
      </trkpt>
      <trkpt lat="45.94154" lon="4.7827">
        <ele>216</ele>
        <time>2017-04-03T08:56:52Z</time>
      </trkpt>
      <trkpt lat="45.94158" lon="4.7827">
        <ele>216</ele>
        <time>2017-04-03T08:56:53Z</time>
      </trkpt>
      <trkpt lat="45.94166" lon="4.78272">
        <ele>216</ele>
        <time>2017-04-03T08:56:56Z</time>
      </trkpt>
      <trkpt lat="45.94168" lon="4.78273">
        <ele>220</ele>
        <time>2017-04-03T08:56:57Z</time>
      </trkpt>
      <trkpt lat="45.94176" lon="4.78278">
        <ele>221</ele>
        <time>2017-04-03T08:57:00Z</time>
      </trkpt>
      <trkpt lat="45.94177" lon="4.78279">
        <ele>221</ele>
        <time>2017-04-03T08:57:01Z</time>
      </trkpt>
      <trkpt lat="45.94185" lon="4.78283">
        <ele>221</ele>
        <time>2017-04-03T08:57:04Z</time>
      </trkpt>
      <trkpt lat="45.94188" lon="4.78284">
        <ele>221</ele>
        <time>2017-04-03T08:57:05Z</time>
      </trkpt>
      <trkpt lat="45.94193" lon="4.78286">
        <ele>221</ele>
        <time>2017-04-03T08:57:07Z</time>
      </trkpt>
      <trkpt lat="45.94197" lon="4.78288">
        <ele>221</ele>
        <time>2017-04-03T08:57:08Z</time>
      </trkpt>
      <trkpt lat="45.94204" lon="4.78287">
        <ele>221</ele>
        <time>2017-04-03T08:57:11Z</time>
      </trkpt>
      <trkpt lat="45.94207" lon="4.78288">
        <ele>222</ele>
        <time>2017-04-03T08:57:12Z</time>
      </trkpt>
      <trkpt lat="45.94212" lon="4.78289">
        <ele>222</ele>
        <time>2017-04-03T08:57:14Z</time>
      </trkpt>
      <trkpt lat="45.94216" lon="4.78291">
        <ele>222</ele>
        <time>2017-04-03T08:57:15Z</time>
      </trkpt>
      <trkpt lat="45.94224" lon="4.78294">
        <ele>222</ele>
        <time>2017-04-03T08:57:18Z</time>
      </trkpt>
      <trkpt lat="45.94226" lon="4.78295">
        <ele>222</ele>
        <time>2017-04-03T08:57:19Z</time>
      </trkpt>
      <trkpt lat="45.94234" lon="4.78297">
        <ele>222</ele>
        <time>2017-04-03T08:57:22Z</time>
      </trkpt>
      <trkpt lat="45.94237" lon="4.78299">
        <ele>222</ele>
        <time>2017-04-03T08:57:23Z</time>
      </trkpt>
      <trkpt lat="45.94244" lon="4.78305">
        <ele>222</ele>
        <time>2017-04-03T08:57:26Z</time>
      </trkpt>
      <trkpt lat="45.94247" lon="4.78307">
        <ele>222</ele>
        <time>2017-04-03T08:57:27Z</time>
      </trkpt>
      <trkpt lat="45.94255" lon="4.78311">
        <ele>226</ele>
        <time>2017-04-03T08:57:30Z</time>
      </trkpt>
      <trkpt lat="45.94257" lon="4.78312">
        <ele>226</ele>
        <time>2017-04-03T08:57:31Z</time>
      </trkpt>
      <trkpt lat="45.94264" lon="4.78317">
        <ele>226</ele>
        <time>2017-04-03T08:57:34Z</time>
      </trkpt>
      <trkpt lat="45.94267" lon="4.78319">
        <ele>226</ele>
        <time>2017-04-03T08:57:35Z</time>
      </trkpt>
      <trkpt lat="45.94274" lon="4.78324">
        <ele>227</ele>
        <time>2017-04-03T08:57:38Z</time>
      </trkpt>
      <trkpt lat="45.94276" lon="4.78327">
        <ele>227</ele>
        <time>2017-04-03T08:57:39Z</time>
      </trkpt>
      <trkpt lat="45.94283" lon="4.78335">
        <ele>227</ele>
        <time>2017-04-03T08:57:42Z</time>
      </trkpt>
      <trkpt lat="45.94285" lon="4.78338">
        <ele>227</ele>
        <time>2017-04-03T08:57:43Z</time>
      </trkpt>
      <trkpt lat="45.9429" lon="4.78347">
        <ele>228</ele>
        <time>2017-04-03T08:57:46Z</time>
      </trkpt>
      <trkpt lat="45.94292" lon="4.7835">
        <ele>228</ele>
        <time>2017-04-03T08:57:47Z</time>
      </trkpt>
      <trkpt lat="45.94295" lon="4.78357">
        <ele>229</ele>
        <time>2017-04-03T08:57:49Z</time>
      </trkpt>
      <trkpt lat="45.94297" lon="4.78361">
        <ele>229</ele>
        <time>2017-04-03T08:57:50Z</time>
      </trkpt>
      <trkpt lat="45.94299" lon="4.78369">
        <ele>229</ele>
        <time>2017-04-03T08:57:52Z</time>
      </trkpt>
      <trkpt lat="45.94301" lon="4.78373">
        <ele>229</ele>
        <time>2017-04-03T08:57:53Z</time>
      </trkpt>
      <trkpt lat="45.94306" lon="4.78382">
        <ele>230</ele>
        <time>2017-04-03T08:57:56Z</time>
      </trkpt>
      <trkpt lat="45.94307" lon="4.78385">
        <ele>230</ele>
        <time>2017-04-03T08:57:57Z</time>
      </trkpt>
      <trkpt lat="45.94313" lon="4.78394">
        <ele>230</ele>
        <time>2017-04-03T08:58:00Z</time>
      </trkpt>
      <trkpt lat="45.94315" lon="4.78396">
        <ele>230</ele>
        <time>2017-04-03T08:58:01Z</time>
      </trkpt>
      <trkpt lat="45.94319" lon="4.78405">
        <ele>230</ele>
        <time>2017-04-03T08:58:04Z</time>
      </trkpt>
      <trkpt lat="45.94321" lon="4.78408">
        <ele>230</ele>
        <time>2017-04-03T08:58:05Z</time>
      </trkpt>
      <trkpt lat="45.94326" lon="4.78417">
        <ele>229</ele>
        <time>2017-04-03T08:58:08Z</time>
      </trkpt>
      <trkpt lat="45.94328" lon="4.7842">
        <ele>232</ele>
        <time>2017-04-03T08:58:09Z</time>
      </trkpt>
      <trkpt lat="45.94332" lon="4.78428">
        <ele>233</ele>
        <time>2017-04-03T08:58:12Z</time>
      </trkpt>
      <trkpt lat="45.94334" lon="4.78431">
        <ele>232</ele>
        <time>2017-04-03T08:58:13Z</time>
      </trkpt>
      <trkpt lat="45.9434" lon="4.78438">
        <ele>233</ele>
        <time>2017-04-03T08:58:16Z</time>
      </trkpt>
      <trkpt lat="45.94343" lon="4.7844">
        <ele>234</ele>
        <time>2017-04-03T08:58:17Z</time>
      </trkpt>
      <trkpt lat="45.94349" lon="4.78446">
        <ele>235</ele>
        <time>2017-04-03T08:58:20Z</time>
      </trkpt>
      <trkpt lat="45.9435" lon="4.78449">
        <ele>235</ele>
        <time>2017-04-03T08:58:21Z</time>
      </trkpt>
      <trkpt lat="45.94356" lon="4.78457">
        <ele>235</ele>
        <time>2017-04-03T08:58:25Z</time>
      </trkpt>
      <trkpt lat="45.94359" lon="4.7846">
        <ele>236</ele>
        <time>2017-04-03T08:58:26Z</time>
      </trkpt>
      <trkpt lat="45.94364" lon="4.78468">
        <ele>236</ele>
        <time>2017-04-03T08:58:29Z</time>
      </trkpt>
      <trkpt lat="45.94366" lon="4.78471">
        <ele>236</ele>
        <time>2017-04-03T08:58:30Z</time>
      </trkpt>
      <trkpt lat="45.94369" lon="4.7848">
        <ele>236</ele>
        <time>2017-04-03T08:58:33Z</time>
      </trkpt>
      <trkpt lat="45.94371" lon="4.78483">
        <ele>236</ele>
        <time>2017-04-03T08:58:34Z</time>
      </trkpt>
      <trkpt lat="45.94378" lon="4.78489">
        <ele>236</ele>
        <time>2017-04-03T08:58:37Z</time>
      </trkpt>
      <trkpt lat="45.94379" lon="4.78492">
        <ele>236</ele>
        <time>2017-04-03T08:58:38Z</time>
      </trkpt>
      <trkpt lat="45.94385" lon="4.78498">
        <ele>236</ele>
        <time>2017-04-03T08:58:41Z</time>
      </trkpt>
      <trkpt lat="45.94387" lon="4.78501">
        <ele>238</ele>
        <time>2017-04-03T08:58:42Z</time>
      </trkpt>
      <trkpt lat="45.94394" lon="4.78507">
        <ele>237</ele>
        <time>2017-04-03T08:58:45Z</time>
      </trkpt>
      <trkpt lat="45.94397" lon="4.78509">
        <ele>237</ele>
        <time>2017-04-03T08:58:46Z</time>
      </trkpt>
      <trkpt lat="45.94404" lon="4.78514">
        <ele>236</ele>
        <time>2017-04-03T08:58:49Z</time>
      </trkpt>
      <trkpt lat="45.94406" lon="4.78516">
        <ele>236</ele>
        <time>2017-04-03T08:58:50Z</time>
      </trkpt>
      <trkpt lat="45.94411" lon="4.78522">
        <ele>237</ele>
        <time>2017-04-03T08:58:54Z</time>
      </trkpt>
      <trkpt lat="45.94413" lon="4.78524">
        <ele>237</ele>
        <time>2017-04-03T08:58:55Z</time>
      </trkpt>
      <trkpt lat="45.94417" lon="4.78534">
        <ele>238</ele>
        <time>2017-04-03T08:58:58Z</time>
      </trkpt>
      <trkpt lat="45.94419" lon="4.78537">
        <ele>238</ele>
        <time>2017-04-03T08:58:59Z</time>
      </trkpt>
      <trkpt lat="45.94424" lon="4.78545">
        <ele>238</ele>
        <time>2017-04-03T08:59:02Z</time>
      </trkpt>
      <trkpt lat="45.94426" lon="4.78548">
        <ele>238</ele>
        <time>2017-04-03T08:59:03Z</time>
      </trkpt>
      <trkpt lat="45.94431" lon="4.78556">
        <ele>239</ele>
        <time>2017-04-03T08:59:06Z</time>
      </trkpt>
      <trkpt lat="45.94434" lon="4.78559">
        <ele>239</ele>
        <time>2017-04-03T08:59:07Z</time>
      </trkpt>
      <trkpt lat="45.9444" lon="4.78567">
        <ele>239</ele>
        <time>2017-04-03T08:59:10Z</time>
      </trkpt>
      <trkpt lat="45.94441" lon="4.78569">
        <ele>239</ele>
        <time>2017-04-03T08:59:11Z</time>
      </trkpt>
      <trkpt lat="45.94447" lon="4.78577">
        <ele>239</ele>
        <time>2017-04-03T08:59:14Z</time>
      </trkpt>
      <trkpt lat="45.94449" lon="4.7858">
        <ele>239</ele>
        <time>2017-04-03T08:59:15Z</time>
      </trkpt>
      <trkpt lat="45.94453" lon="4.7859">
        <ele>240</ele>
        <time>2017-04-03T08:59:19Z</time>
      </trkpt>
      <trkpt lat="45.94454" lon="4.78593">
        <ele>240</ele>
        <time>2017-04-03T08:59:20Z</time>
      </trkpt>
      <trkpt lat="45.94458" lon="4.78601">
        <ele>240</ele>
        <time>2017-04-03T08:59:22Z</time>
      </trkpt>
      <trkpt lat="45.94461" lon="4.78605">
        <ele>241</ele>
        <time>2017-04-03T08:59:23Z</time>
      </trkpt>
      <trkpt lat="45.94464" lon="4.78614">
        <ele>241</ele>
        <time>2017-04-03T08:59:26Z</time>
      </trkpt>
      <trkpt lat="45.94464" lon="4.78617">
        <ele>241</ele>
        <time>2017-04-03T08:59:27Z</time>
      </trkpt>
      <trkpt lat="45.94467" lon="4.78629">
        <ele>241</ele>
        <time>2017-04-03T08:59:31Z</time>
      </trkpt>
      <trkpt lat="45.94468" lon="4.78632">
        <ele>241</ele>
        <time>2017-04-03T08:59:32Z</time>
      </trkpt>
      <trkpt lat="45.94467" lon="4.78643">
        <ele>241</ele>
        <time>2017-04-03T08:59:36Z</time>
      </trkpt>
      <trkpt lat="45.94467" lon="4.78645">
        <ele>241</ele>
        <time>2017-04-03T08:59:37Z</time>
      </trkpt>
      <trkpt lat="45.94467" lon="4.78656">
        <ele>241</ele>
        <time>2017-04-03T08:59:42Z</time>
      </trkpt>
      <trkpt lat="45.94467" lon="4.78659">
        <ele>241</ele>
        <time>2017-04-03T08:59:43Z</time>
      </trkpt>
      <trkpt lat="45.94469" lon="4.78671">
        <ele>244</ele>
        <time>2017-04-03T08:59:47Z</time>
      </trkpt>
      <trkpt lat="45.94469" lon="4.78674">
        <ele>244</ele>
        <time>2017-04-03T08:59:48Z</time>
      </trkpt>
      <trkpt lat="45.94469" lon="4.78687">
        <ele>244</ele>
        <time>2017-04-03T08:59:53Z</time>
      </trkpt>
      <trkpt lat="45.9447" lon="4.78689">
        <ele>244</ele>
        <time>2017-04-03T08:59:54Z</time>
      </trkpt>
      <trkpt lat="45.94471" lon="4.78701">
        <ele>245</ele>
        <time>2017-04-03T08:59:59Z</time>
      </trkpt>
      <trkpt lat="45.94472" lon="4.78704">
        <ele>245</ele>
        <time>2017-04-03T09:00:00Z</time>
      </trkpt>
      <trkpt lat="45.94477" lon="4.78714">
        <ele>245</ele>
        <time>2017-04-03T09:00:04Z</time>
      </trkpt>
      <trkpt lat="45.94477" lon="4.78718">
        <ele>245</ele>
        <time>2017-04-03T09:00:05Z</time>
      </trkpt>
      <trkpt lat="45.94478" lon="4.78728">
        <ele>246</ele>
        <time>2017-04-03T09:00:09Z</time>
      </trkpt>
      <trkpt lat="45.94477" lon="4.78731">
        <ele>246</ele>
        <time>2017-04-03T09:00:10Z</time>
      </trkpt>
      <trkpt lat="45.94475" lon="4.78741">
        <ele>246</ele>
        <time>2017-04-03T09:00:14Z</time>
      </trkpt>
      <trkpt lat="45.94476" lon="4.78743">
        <ele>246</ele>
        <time>2017-04-03T09:00:15Z</time>
      </trkpt>
      <trkpt lat="45.94475" lon="4.78754">
        <ele>249</ele>
        <time>2017-04-03T09:00:19Z</time>
      </trkpt>
      <trkpt lat="45.94474" lon="4.78757">
        <ele>249</ele>
        <time>2017-04-03T09:00:20Z</time>
      </trkpt>
      <trkpt lat="45.94473" lon="4.78768">
        <ele>250</ele>
        <time>2017-04-03T09:00:24Z</time>
      </trkpt>
      <trkpt lat="45.94473" lon="4.7877">
        <ele>250</ele>
        <time>2017-04-03T09:00:25Z</time>
      </trkpt>
      <trkpt lat="45.94468" lon="4.78779">
        <ele>250</ele>
        <time>2017-04-03T09:00:29Z</time>
      </trkpt>
      <trkpt lat="45.94467" lon="4.78781">
        <ele>250</ele>
        <time>2017-04-03T09:00:30Z</time>
      </trkpt>
      <trkpt lat="45.94464" lon="4.78792">
        <ele>250</ele>
        <time>2017-04-03T09:00:34Z</time>
      </trkpt>
      <trkpt lat="45.94463" lon="4.78795">
        <ele>251</ele>
        <time>2017-04-03T09:00:35Z</time>
      </trkpt>
      <trkpt lat="45.94461" lon="4.78807">
        <ele>251</ele>
        <time>2017-04-03T09:00:39Z</time>
      </trkpt>
      <trkpt lat="45.94462" lon="4.7881">
        <ele>251</ele>
        <time>2017-04-03T09:00:40Z</time>
      </trkpt>
      <trkpt lat="45.94461" lon="4.7882">
        <ele>251</ele>
        <time>2017-04-03T09:00:43Z</time>
      </trkpt>
      <trkpt lat="45.9446" lon="4.78824">
        <ele>251</ele>
        <time>2017-04-03T09:00:44Z</time>
      </trkpt>
      <trkpt lat="45.94459" lon="4.78835">
        <ele>253</ele>
        <time>2017-04-03T09:00:48Z</time>
      </trkpt>
      <trkpt lat="45.94459" lon="4.78838">
        <ele>253</ele>
        <time>2017-04-03T09:00:49Z</time>
      </trkpt>
      <trkpt lat="45.94457" lon="4.7885">
        <ele>253</ele>
        <time>2017-04-03T09:00:53Z</time>
      </trkpt>
      <trkpt lat="45.94457" lon="4.78853">
        <ele>253</ele>
        <time>2017-04-03T09:00:54Z</time>
      </trkpt>
      <trkpt lat="45.94456" lon="4.78864">
        <ele>253</ele>
        <time>2017-04-03T09:00:58Z</time>
      </trkpt>
      <trkpt lat="45.94456" lon="4.78867">
        <ele>253</ele>
        <time>2017-04-03T09:00:59Z</time>
      </trkpt>
      <trkpt lat="45.94456" lon="4.78878">
        <ele>253</ele>
        <time>2017-04-03T09:01:03Z</time>
      </trkpt>
      <trkpt lat="45.94455" lon="4.7888">
        <ele>253</ele>
        <time>2017-04-03T09:01:04Z</time>
      </trkpt>
      <trkpt lat="45.94455" lon="4.78893">
        <ele>253</ele>
        <time>2017-04-03T09:01:09Z</time>
      </trkpt>
      <trkpt lat="45.94455" lon="4.78896">
        <ele>253</ele>
        <time>2017-04-03T09:01:10Z</time>
      </trkpt>
      <trkpt lat="45.94459" lon="4.78907">
        <ele>253</ele>
        <time>2017-04-03T09:01:14Z</time>
      </trkpt>
      <trkpt lat="45.94459" lon="4.78909">
        <ele>253</ele>
        <time>2017-04-03T09:01:15Z</time>
      </trkpt>
      <trkpt lat="45.9446" lon="4.78921">
        <ele>254</ele>
        <time>2017-04-03T09:01:19Z</time>
      </trkpt>
      <trkpt lat="45.9446" lon="4.78924">
        <ele>254</ele>
        <time>2017-04-03T09:01:20Z</time>
      </trkpt>
      <trkpt lat="45.94464" lon="4.78933">
        <ele>254</ele>
        <time>2017-04-03T09:01:23Z</time>
      </trkpt>
      <trkpt lat="45.94466" lon="4.78936">
        <ele>254</ele>
        <time>2017-04-03T09:01:24Z</time>
      </trkpt>
      <trkpt lat="45.94468" lon="4.78945">
        <ele>254</ele>
        <time>2017-04-03T09:01:27Z</time>
      </trkpt>
      <trkpt lat="45.94469" lon="4.78948">
        <ele>254</ele>
        <time>2017-04-03T09:01:28Z</time>
      </trkpt>
      <trkpt lat="45.94474" lon="4.78956">
        <ele>254</ele>
        <time>2017-04-03T09:01:31Z</time>
      </trkpt>
      <trkpt lat="45.94475" lon="4.78959">
        <ele>254</ele>
        <time>2017-04-03T09:01:32Z</time>
      </trkpt>
      <trkpt lat="45.9448" lon="4.7897">
        <ele>254</ele>
        <time>2017-04-03T09:01:36Z</time>
      </trkpt>
      <trkpt lat="45.94481" lon="4.78973">
        <ele>254</ele>
        <time>2017-04-03T09:01:37Z</time>
      </trkpt>
      <trkpt lat="45.94486" lon="4.78983">
        <ele>254</ele>
        <time>2017-04-03T09:01:41Z</time>
      </trkpt>
      <trkpt lat="45.94487" lon="4.78986">
        <ele>254</ele>
        <time>2017-04-03T09:01:42Z</time>
      </trkpt>
      <trkpt lat="45.94491" lon="4.78995">
        <ele>254</ele>
        <time>2017-04-03T09:01:45Z</time>
      </trkpt>
      <trkpt lat="45.94493" lon="4.78999">
        <ele>254</ele>
        <time>2017-04-03T09:01:46Z</time>
      </trkpt>
      <trkpt lat="45.94497" lon="4.79008">
        <ele>254</ele>
        <time>2017-04-03T09:01:49Z</time>
      </trkpt>
      <trkpt lat="45.94499" lon="4.79011">
        <ele>254</ele>
        <time>2017-04-03T09:01:50Z</time>
      </trkpt>
      <trkpt lat="45.94503" lon="4.7902">
        <ele>255</ele>
        <time>2017-04-03T09:01:53Z</time>
      </trkpt>
      <trkpt lat="45.94504" lon="4.79023">
        <ele>255</ele>
        <time>2017-04-03T09:01:54Z</time>
      </trkpt>
      <trkpt lat="45.94507" lon="4.79032">
        <ele>255</ele>
        <time>2017-04-03T09:01:57Z</time>
      </trkpt>
      <trkpt lat="45.94509" lon="4.79034">
        <ele>255</ele>
        <time>2017-04-03T09:01:58Z</time>
      </trkpt>
      <trkpt lat="45.94514" lon="4.79043">
        <ele>255</ele>
        <time>2017-04-03T09:02:01Z</time>
      </trkpt>
      <trkpt lat="45.94515" lon="4.79046">
        <ele>255</ele>
        <time>2017-04-03T09:02:02Z</time>
      </trkpt>
      <trkpt lat="45.94521" lon="4.79055">
        <ele>255</ele>
        <time>2017-04-03T09:02:05Z</time>
      </trkpt>
      <trkpt lat="45.94522" lon="4.79058">
        <ele>255</ele>
        <time>2017-04-03T09:02:06Z</time>
      </trkpt>
      <trkpt lat="45.94527" lon="4.79067">
        <ele>255</ele>
        <time>2017-04-03T09:02:09Z</time>
      </trkpt>
      <trkpt lat="45.94529" lon="4.7907">
        <ele>255</ele>
        <time>2017-04-03T09:02:10Z</time>
      </trkpt>
      <trkpt lat="45.94534" lon="4.79077">
        <ele>255</ele>
        <time>2017-04-03T09:02:12Z</time>
      </trkpt>
      <trkpt lat="45.94538" lon="4.7908">
        <ele>256</ele>
        <time>2017-04-03T09:02:13Z</time>
      </trkpt>
      <trkpt lat="45.94543" lon="4.79088">
        <ele>256</ele>
        <time>2017-04-03T09:02:15Z</time>
      </trkpt>
      <trkpt lat="45.94546" lon="4.79093">
        <ele>256</ele>
        <time>2017-04-03T09:02:16Z</time>
      </trkpt>
      <trkpt lat="45.94548" lon="4.79099">
        <ele>256</ele>
        <time>2017-04-03T09:02:17Z</time>
      </trkpt>
      <trkpt lat="45.94551" lon="4.79104">
        <ele>256</ele>
        <time>2017-04-03T09:02:18Z</time>
      </trkpt>
      <trkpt lat="45.94555" lon="4.79115">
        <ele>257</ele>
        <time>2017-04-03T09:02:20Z</time>
      </trkpt>
      <trkpt lat="45.94558" lon="4.7912">
        <ele>257</ele>
        <time>2017-04-03T09:02:21Z</time>
      </trkpt>
      <trkpt lat="45.94563" lon="4.79131">
        <ele>257</ele>
        <time>2017-04-03T09:02:23Z</time>
      </trkpt>
      <trkpt lat="45.94566" lon="4.79136">
        <ele>257</ele>
        <time>2017-04-03T09:02:24Z</time>
      </trkpt>
      <trkpt lat="45.94568" lon="4.79142">
        <ele>257</ele>
        <time>2017-04-03T09:02:25Z</time>
      </trkpt>
      <trkpt lat="45.94571" lon="4.79148">
        <ele>257</ele>
        <time>2017-04-03T09:02:26Z</time>
      </trkpt>
      <trkpt lat="45.94575" lon="4.79158">
        <ele>258</ele>
        <time>2017-04-03T09:02:28Z</time>
      </trkpt>
      <trkpt lat="45.94578" lon="4.79163">
        <ele>258</ele>
        <time>2017-04-03T09:02:29Z</time>
      </trkpt>
      <trkpt lat="45.94581" lon="4.79168">
        <ele>259</ele>
        <time>2017-04-03T09:02:30Z</time>
      </trkpt>
      <trkpt lat="45.94584" lon="4.79173">
        <ele>259</ele>
        <time>2017-04-03T09:02:31Z</time>
      </trkpt>
      <trkpt lat="45.94589" lon="4.79183">
        <ele>258</ele>
        <time>2017-04-03T09:02:33Z</time>
      </trkpt>
      <trkpt lat="45.94591" lon="4.79188">
        <ele>258</ele>
        <time>2017-04-03T09:02:34Z</time>
      </trkpt>
      <trkpt lat="45.94595" lon="4.79199">
        <ele>257</ele>
        <time>2017-04-03T09:02:36Z</time>
      </trkpt>
      <trkpt lat="45.94596" lon="4.79204">
        <ele>257</ele>
        <time>2017-04-03T09:02:37Z</time>
      </trkpt>
      <trkpt lat="45.946" lon="4.79214">
        <ele>257</ele>
        <time>2017-04-03T09:02:39Z</time>
      </trkpt>
      <trkpt lat="45.94602" lon="4.79219">
        <ele>256</ele>
        <time>2017-04-03T09:02:40Z</time>
      </trkpt>
      <trkpt lat="45.94606" lon="4.79229">
        <ele>256</ele>
        <time>2017-04-03T09:02:42Z</time>
      </trkpt>
      <trkpt lat="45.94609" lon="4.79234">
        <ele>256</ele>
        <time>2017-04-03T09:02:43Z</time>
      </trkpt>
      <trkpt lat="45.94615" lon="4.79244">
        <ele>256</ele>
        <time>2017-04-03T09:02:45Z</time>
      </trkpt>
      <trkpt lat="45.94617" lon="4.79248">
        <ele>256</ele>
        <time>2017-04-03T09:02:46Z</time>
      </trkpt>
      <trkpt lat="45.94623" lon="4.79256">
        <ele>255</ele>
        <time>2017-04-03T09:02:48Z</time>
      </trkpt>
      <trkpt lat="45.94624" lon="4.79261">
        <ele>255</ele>
        <time>2017-04-03T09:02:49Z</time>
      </trkpt>
      <trkpt lat="45.94628" lon="4.7927">
        <ele>254</ele>
        <time>2017-04-03T09:02:51Z</time>
      </trkpt>
      <trkpt lat="45.9463" lon="4.79274">
        <ele>254</ele>
        <time>2017-04-03T09:02:52Z</time>
      </trkpt>
      <trkpt lat="45.94635" lon="4.79283">
        <ele>254</ele>
        <time>2017-04-03T09:02:54Z</time>
      </trkpt>
      <trkpt lat="45.94638" lon="4.79288">
        <ele>254</ele>
        <time>2017-04-03T09:02:55Z</time>
      </trkpt>
      <trkpt lat="45.94642" lon="4.79296">
        <ele>254</ele>
        <time>2017-04-03T09:02:57Z</time>
      </trkpt>
      <trkpt lat="45.94645" lon="4.793">
        <ele>254</ele>
        <time>2017-04-03T09:02:58Z</time>
      </trkpt>
      <trkpt lat="45.94649" lon="4.79309">
        <ele>254</ele>
        <time>2017-04-03T09:03:00Z</time>
      </trkpt>
      <trkpt lat="45.94652" lon="4.79313">
        <ele>254</ele>
        <time>2017-04-03T09:03:01Z</time>
      </trkpt>
      <trkpt lat="45.94656" lon="4.79321">
        <ele>254</ele>
        <time>2017-04-03T09:03:03Z</time>
      </trkpt>
      <trkpt lat="45.94659" lon="4.79325">
        <ele>254</ele>
        <time>2017-04-03T09:03:04Z</time>
      </trkpt>
      <trkpt lat="45.94663" lon="4.79334">
        <ele>254</ele>
        <time>2017-04-03T09:03:06Z</time>
      </trkpt>
      <trkpt lat="45.94665" lon="4.79338">
        <ele>254</ele>
        <time>2017-04-03T09:03:07Z</time>
      </trkpt>
      <trkpt lat="45.94669" lon="4.79347">
        <ele>253</ele>
        <time>2017-04-03T09:03:09Z</time>
      </trkpt>
      <trkpt lat="45.94671" lon="4.79352">
        <ele>253</ele>
        <time>2017-04-03T09:03:10Z</time>
      </trkpt>
      <trkpt lat="45.94675" lon="4.79361">
        <ele>253</ele>
        <time>2017-04-03T09:03:12Z</time>
      </trkpt>
      <trkpt lat="45.94677" lon="4.79365">
        <ele>253</ele>
        <time>2017-04-03T09:03:13Z</time>
      </trkpt>
      <trkpt lat="45.94682" lon="4.79375">
        <ele>253</ele>
        <time>2017-04-03T09:03:15Z</time>
      </trkpt>
      <trkpt lat="45.94684" lon="4.7938">
        <ele>253</ele>
        <time>2017-04-03T09:03:16Z</time>
      </trkpt>
      <trkpt lat="45.94686" lon="4.79386">
        <ele>253</ele>
        <time>2017-04-03T09:03:17Z</time>
      </trkpt>
      <trkpt lat="45.94688" lon="4.79392">
        <ele>253</ele>
        <time>2017-04-03T09:03:18Z</time>
      </trkpt>
      <trkpt lat="45.94693" lon="4.79402">
        <ele>253</ele>
        <time>2017-04-03T09:03:20Z</time>
      </trkpt>
      <trkpt lat="45.94696" lon="4.79408">
        <ele>253</ele>
        <time>2017-04-03T09:03:21Z</time>
      </trkpt>
      <trkpt lat="45.94699" lon="4.79414">
        <ele>253</ele>
        <time>2017-04-03T09:03:22Z</time>
      </trkpt>
      <trkpt lat="45.94702" lon="4.79421">
        <ele>253</ele>
        <time>2017-04-03T09:03:23Z</time>
      </trkpt>
      <trkpt lat="45.94705" lon="4.79427">
        <ele>253</ele>
        <time>2017-04-03T09:03:24Z</time>
      </trkpt>
      <trkpt lat="45.94708" lon="4.79433">
        <ele>253</ele>
        <time>2017-04-03T09:03:25Z</time>
      </trkpt>
      <trkpt lat="45.94711" lon="4.7944">
        <ele>253</ele>
        <time>2017-04-03T09:03:26Z</time>
      </trkpt>
      <trkpt lat="45.94713" lon="4.79447">
        <ele>253</ele>
        <time>2017-04-03T09:03:27Z</time>
      </trkpt>
      <trkpt lat="45.94716" lon="4.79454">
        <ele>253</ele>
        <time>2017-04-03T09:03:28Z</time>
      </trkpt>
      <trkpt lat="45.9472" lon="4.79461">
        <ele>253</ele>
        <time>2017-04-03T09:03:29Z</time>
      </trkpt>
      <trkpt lat="45.94723" lon="4.79468">
        <ele>253</ele>
        <time>2017-04-03T09:03:30Z</time>
      </trkpt>
      <trkpt lat="45.94727" lon="4.79475">
        <ele>253</ele>
        <time>2017-04-03T09:03:31Z</time>
      </trkpt>
      <trkpt lat="45.94729" lon="4.79482">
        <ele>253</ele>
        <time>2017-04-03T09:03:32Z</time>
      </trkpt>
      <trkpt lat="45.94732" lon="4.79489">
        <ele>253</ele>
        <time>2017-04-03T09:03:33Z</time>
      </trkpt>
      <trkpt lat="45.94735" lon="4.79495">
        <ele>252</ele>
        <time>2017-04-03T09:03:34Z</time>
      </trkpt>
      <trkpt lat="45.94739" lon="4.79502">
        <ele>252</ele>
        <time>2017-04-03T09:03:35Z</time>
      </trkpt>
      <trkpt lat="45.94741" lon="4.79509">
        <ele>252</ele>
        <time>2017-04-03T09:03:36Z</time>
      </trkpt>
      <trkpt lat="45.94744" lon="4.79516">
        <ele>252</ele>
        <time>2017-04-03T09:03:37Z</time>
      </trkpt>
      <trkpt lat="45.94747" lon="4.79522">
        <ele>253</ele>
        <time>2017-04-03T09:03:38Z</time>
      </trkpt>
      <trkpt lat="45.9475" lon="4.79529">
        <ele>253</ele>
        <time>2017-04-03T09:03:39Z</time>
      </trkpt>
      <trkpt lat="45.94752" lon="4.79535">
        <ele>252</ele>
        <time>2017-04-03T09:03:40Z</time>
      </trkpt>
      <trkpt lat="45.94754" lon="4.79542">
        <ele>252</ele>
        <time>2017-04-03T09:03:41Z</time>
      </trkpt>
      <trkpt lat="45.94756" lon="4.79548">
        <ele>252</ele>
        <time>2017-04-03T09:03:42Z</time>
      </trkpt>
      <trkpt lat="45.94758" lon="4.79555">
        <ele>252</ele>
        <time>2017-04-03T09:03:43Z</time>
      </trkpt>
      <trkpt lat="45.94759" lon="4.79563">
        <ele>252</ele>
        <time>2017-04-03T09:03:44Z</time>
      </trkpt>
      <trkpt lat="45.94761" lon="4.79571">
        <ele>252</ele>
        <time>2017-04-03T09:03:45Z</time>
      </trkpt>
      <trkpt lat="45.94762" lon="4.79578">
        <ele>252</ele>
        <time>2017-04-03T09:03:46Z</time>
      </trkpt>
      <trkpt lat="45.94762" lon="4.79586">
        <ele>253</ele>
        <time>2017-04-03T09:03:47Z</time>
      </trkpt>
      <trkpt lat="45.94763" lon="4.79594">
        <ele>253</ele>
        <time>2017-04-03T09:03:48Z</time>
      </trkpt>
      <trkpt lat="45.94765" lon="4.79602">
        <ele>253</ele>
        <time>2017-04-03T09:03:49Z</time>
      </trkpt>
      <trkpt lat="45.94767" lon="4.7961">
        <ele>253</ele>
        <time>2017-04-03T09:03:50Z</time>
      </trkpt>
      <trkpt lat="45.94768" lon="4.79618">
        <ele>253</ele>
        <time>2017-04-03T09:03:51Z</time>
      </trkpt>
      <trkpt lat="45.9477" lon="4.79625">
        <ele>253</ele>
        <time>2017-04-03T09:03:52Z</time>
      </trkpt>
      <trkpt lat="45.94772" lon="4.79631">
        <ele>253</ele>
        <time>2017-04-03T09:03:53Z</time>
      </trkpt>
      <trkpt lat="45.94776" lon="4.79643">
        <ele>254</ele>
        <time>2017-04-03T09:03:55Z</time>
      </trkpt>
      <trkpt lat="45.94777" lon="4.79648">
        <ele>254</ele>
        <time>2017-04-03T09:03:56Z</time>
      </trkpt>
      <trkpt lat="45.9478" lon="4.7966">
        <ele>254</ele>
        <time>2017-04-03T09:03:58Z</time>
      </trkpt>
      <trkpt lat="45.94781" lon="4.79666">
        <ele>254</ele>
        <time>2017-04-03T09:03:59Z</time>
      </trkpt>
      <trkpt lat="45.94783" lon="4.79673">
        <ele>254</ele>
        <time>2017-04-03T09:04:00Z</time>
      </trkpt>
      <trkpt lat="45.94785" lon="4.79679">
        <ele>254</ele>
        <time>2017-04-03T09:04:01Z</time>
      </trkpt>
      <trkpt lat="45.94787" lon="4.79687">
        <ele>254</ele>
        <time>2017-04-03T09:04:02Z</time>
      </trkpt>
      <trkpt lat="45.9479" lon="4.79694">
        <ele>254</ele>
        <time>2017-04-03T09:04:03Z</time>
      </trkpt>
      <trkpt lat="45.94792" lon="4.79701">
        <ele>254</ele>
        <time>2017-04-03T09:04:04Z</time>
      </trkpt>
      <trkpt lat="45.94794" lon="4.79709">
        <ele>254</ele>
        <time>2017-04-03T09:04:05Z</time>
      </trkpt>
      <trkpt lat="45.94797" lon="4.79716">
        <ele>254</ele>
        <time>2017-04-03T09:04:06Z</time>
      </trkpt>
      <trkpt lat="45.948" lon="4.79723">
        <ele>254</ele>
        <time>2017-04-03T09:04:07Z</time>
      </trkpt>
      <trkpt lat="45.94802" lon="4.7973">
        <ele>254</ele>
        <time>2017-04-03T09:04:08Z</time>
      </trkpt>
      <trkpt lat="45.94804" lon="4.79737">
        <ele>254</ele>
        <time>2017-04-03T09:04:09Z</time>
      </trkpt>
      <trkpt lat="45.94806" lon="4.79743">
        <ele>254</ele>
        <time>2017-04-03T09:04:10Z</time>
      </trkpt>
      <trkpt lat="45.94808" lon="4.7975">
        <ele>254</ele>
        <time>2017-04-03T09:04:11Z</time>
      </trkpt>
      <trkpt lat="45.94811" lon="4.79756">
        <ele>254</ele>
        <time>2017-04-03T09:04:12Z</time>
      </trkpt>
      <trkpt lat="45.94813" lon="4.79763">
        <ele>254</ele>
        <time>2017-04-03T09:04:13Z</time>
      </trkpt>
      <trkpt lat="45.94815" lon="4.79769">
        <ele>254</ele>
        <time>2017-04-03T09:04:14Z</time>
      </trkpt>
      <trkpt lat="45.94817" lon="4.79776">
        <ele>254</ele>
        <time>2017-04-03T09:04:15Z</time>
      </trkpt>
      <trkpt lat="45.9482" lon="4.79783">
        <ele>254</ele>
        <time>2017-04-03T09:04:16Z</time>
      </trkpt>
      <trkpt lat="45.94819" lon="4.79789">
        <ele>254</ele>
        <time>2017-04-03T09:04:17Z</time>
      </trkpt>
      <trkpt lat="45.94819" lon="4.79796">
        <ele>254</ele>
        <time>2017-04-03T09:04:18Z</time>
      </trkpt>
      <trkpt lat="45.94819" lon="4.79804">
        <ele>254</ele>
        <time>2017-04-03T09:04:19Z</time>
      </trkpt>
      <trkpt lat="45.94819" lon="4.7981">
        <ele>254</ele>
        <time>2017-04-03T09:04:20Z</time>
      </trkpt>
      <trkpt lat="45.94821" lon="4.79817">
        <ele>254</ele>
        <time>2017-04-03T09:04:21Z</time>
      </trkpt>
      <trkpt lat="45.94822" lon="4.79825">
        <ele>254</ele>
        <time>2017-04-03T09:04:22Z</time>
      </trkpt>
      <trkpt lat="45.94823" lon="4.79831">
        <ele>254</ele>
        <time>2017-04-03T09:04:23Z</time>
      </trkpt>
      <trkpt lat="45.94824" lon="4.79838">
        <ele>254</ele>
        <time>2017-04-03T09:04:24Z</time>
      </trkpt>
      <trkpt lat="45.94826" lon="4.79844">
        <ele>254</ele>
        <time>2017-04-03T09:04:25Z</time>
      </trkpt>
      <trkpt lat="45.94828" lon="4.79851">
        <ele>254</ele>
        <time>2017-04-03T09:04:26Z</time>
      </trkpt>
      <trkpt lat="45.9483" lon="4.79858">
        <ele>255</ele>
        <time>2017-04-03T09:04:27Z</time>
      </trkpt>
      <trkpt lat="45.94832" lon="4.79865">
        <ele>255</ele>
        <time>2017-04-03T09:04:28Z</time>
      </trkpt>
      <trkpt lat="45.94834" lon="4.79872">
        <ele>255</ele>
        <time>2017-04-03T09:04:29Z</time>
      </trkpt>
      <trkpt lat="45.94836" lon="4.79878">
        <ele>255</ele>
        <time>2017-04-03T09:04:30Z</time>
      </trkpt>
      <trkpt lat="45.94838" lon="4.79885">
        <ele>255</ele>
        <time>2017-04-03T09:04:31Z</time>
      </trkpt>
      <trkpt lat="45.94841" lon="4.79892">
        <ele>255</ele>
        <time>2017-04-03T09:04:32Z</time>
      </trkpt>
      <trkpt lat="45.94844" lon="4.79899">
        <ele>255</ele>
        <time>2017-04-03T09:04:33Z</time>
      </trkpt>
      <trkpt lat="45.94846" lon="4.79906">
        <ele>256</ele>
        <time>2017-04-03T09:04:34Z</time>
      </trkpt>
      <trkpt lat="45.94848" lon="4.79912">
        <ele>256</ele>
        <time>2017-04-03T09:04:35Z</time>
      </trkpt>
      <trkpt lat="45.9485" lon="4.79918">
        <ele>256</ele>
        <time>2017-04-03T09:04:36Z</time>
      </trkpt>
      <trkpt lat="45.94853" lon="4.79924">
        <ele>256</ele>
        <time>2017-04-03T09:04:37Z</time>
      </trkpt>
      <trkpt lat="45.94856" lon="4.7993">
        <ele>256</ele>
        <time>2017-04-03T09:04:38Z</time>
      </trkpt>
      <trkpt lat="45.94859" lon="4.79936">
        <ele>256</ele>
        <time>2017-04-03T09:04:39Z</time>
      </trkpt>
      <trkpt lat="45.94861" lon="4.79942">
        <ele>256</ele>
        <time>2017-04-03T09:04:40Z</time>
      </trkpt>
      <trkpt lat="45.94864" lon="4.79947">
        <ele>256</ele>
        <time>2017-04-03T09:04:41Z</time>
      </trkpt>
      <trkpt lat="45.94867" lon="4.79953">
        <ele>256</ele>
        <time>2017-04-03T09:04:42Z</time>
      </trkpt>
      <trkpt lat="45.94869" lon="4.79959">
        <ele>256</ele>
        <time>2017-04-03T09:04:43Z</time>
      </trkpt>
      <trkpt lat="45.94871" lon="4.79964">
        <ele>256</ele>
        <time>2017-04-03T09:04:44Z</time>
      </trkpt>
      <trkpt lat="45.94874" lon="4.7997">
        <ele>256</ele>
        <time>2017-04-03T09:04:45Z</time>
      </trkpt>
      <trkpt lat="45.94876" lon="4.79976">
        <ele>256</ele>
        <time>2017-04-03T09:04:46Z</time>
      </trkpt>
      <trkpt lat="45.94878" lon="4.79981">
        <ele>256</ele>
        <time>2017-04-03T09:04:47Z</time>
      </trkpt>
      <trkpt lat="45.9488" lon="4.79987">
        <ele>256</ele>
        <time>2017-04-03T09:04:48Z</time>
      </trkpt>
      <trkpt lat="45.94882" lon="4.79993">
        <ele>256</ele>
        <time>2017-04-03T09:04:49Z</time>
      </trkpt>
      <trkpt lat="45.94884" lon="4.80006">
        <ele>256</ele>
        <time>2017-04-03T09:04:51Z</time>
      </trkpt>
      <trkpt lat="45.94886" lon="4.80012">
        <ele>256</ele>
        <time>2017-04-03T09:04:52Z</time>
      </trkpt>
      <trkpt lat="45.94888" lon="4.80018">
        <ele>256</ele>
        <time>2017-04-03T09:04:53Z</time>
      </trkpt>
      <trkpt lat="45.94889" lon="4.80024">
        <ele>256</ele>
        <time>2017-04-03T09:04:54Z</time>
      </trkpt>
      <trkpt lat="45.94891" lon="4.80029">
        <ele>256</ele>
        <time>2017-04-03T09:04:55Z</time>
      </trkpt>
      <trkpt lat="45.94894" lon="4.80035">
        <ele>256</ele>
        <time>2017-04-03T09:04:56Z</time>
      </trkpt>
      <trkpt lat="45.94896" lon="4.80041">
        <ele>256</ele>
        <time>2017-04-03T09:04:57Z</time>
      </trkpt>
      <trkpt lat="45.94897" lon="4.80047">
        <ele>256</ele>
        <time>2017-04-03T09:04:58Z</time>
      </trkpt>
      <trkpt lat="45.94898" lon="4.80054">
        <ele>256</ele>
        <time>2017-04-03T09:04:59Z</time>
      </trkpt>
      <trkpt lat="45.949" lon="4.8006">
        <ele>256</ele>
        <time>2017-04-03T09:05:00Z</time>
      </trkpt>
      <trkpt lat="45.94902" lon="4.80066">
        <ele>256</ele>
        <time>2017-04-03T09:05:01Z</time>
      </trkpt>
      <trkpt lat="45.94904" lon="4.80072">
        <ele>256</ele>
        <time>2017-04-03T09:05:02Z</time>
      </trkpt>
      <trkpt lat="45.94906" lon="4.80079">
        <ele>257</ele>
        <time>2017-04-03T09:05:03Z</time>
      </trkpt>
      <trkpt lat="45.94908" lon="4.80085">
        <ele>257</ele>
        <time>2017-04-03T09:05:04Z</time>
      </trkpt>
      <trkpt lat="45.94912" lon="4.80097">
        <ele>256</ele>
        <time>2017-04-03T09:05:06Z</time>
      </trkpt>
      <trkpt lat="45.94914" lon="4.80103">
        <ele>256</ele>
        <time>2017-04-03T09:05:07Z</time>
      </trkpt>
      <trkpt lat="45.94915" lon="4.80114">
        <ele>256</ele>
        <time>2017-04-03T09:05:09Z</time>
      </trkpt>
      <trkpt lat="45.94916" lon="4.8012">
        <ele>256</ele>
        <time>2017-04-03T09:05:10Z</time>
      </trkpt>
      <trkpt lat="45.94918" lon="4.80126">
        <ele>256</ele>
        <time>2017-04-03T09:05:11Z</time>
      </trkpt>
      <trkpt lat="45.94919" lon="4.80133">
        <ele>256</ele>
        <time>2017-04-03T09:05:12Z</time>
      </trkpt>
      <trkpt lat="45.94921" lon="4.8014">
        <ele>256</ele>
        <time>2017-04-03T09:05:13Z</time>
      </trkpt>
      <trkpt lat="45.94923" lon="4.80147">
        <ele>256</ele>
        <time>2017-04-03T09:05:14Z</time>
      </trkpt>
      <trkpt lat="45.94925" lon="4.80154">
        <ele>255</ele>
        <time>2017-04-03T09:05:15Z</time>
      </trkpt>
      <trkpt lat="45.94927" lon="4.80161">
        <ele>255</ele>
        <time>2017-04-03T09:05:16Z</time>
      </trkpt>
      <trkpt lat="45.94928" lon="4.80168">
        <ele>255</ele>
        <time>2017-04-03T09:05:17Z</time>
      </trkpt>
      <trkpt lat="45.9493" lon="4.80174">
        <ele>255</ele>
        <time>2017-04-03T09:05:18Z</time>
      </trkpt>
      <trkpt lat="45.94931" lon="4.80181">
        <ele>256</ele>
        <time>2017-04-03T09:05:19Z</time>
      </trkpt>
      <trkpt lat="45.94933" lon="4.80188">
        <ele>256</ele>
        <time>2017-04-03T09:05:20Z</time>
      </trkpt>
      <trkpt lat="45.94934" lon="4.80195">
        <ele>256</ele>
        <time>2017-04-03T09:05:21Z</time>
      </trkpt>
      <trkpt lat="45.94935" lon="4.80202">
        <ele>256</ele>
        <time>2017-04-03T09:05:22Z</time>
      </trkpt>
      <trkpt lat="45.94936" lon="4.80209">
        <ele>256</ele>
        <time>2017-04-03T09:05:23Z</time>
      </trkpt>
      <trkpt lat="45.94937" lon="4.80216">
        <ele>256</ele>
        <time>2017-04-03T09:05:24Z</time>
      </trkpt>
      <trkpt lat="45.94939" lon="4.80223">
        <ele>256</ele>
        <time>2017-04-03T09:05:25Z</time>
      </trkpt>
      <trkpt lat="45.94939" lon="4.80229">
        <ele>256</ele>
        <time>2017-04-03T09:05:26Z</time>
      </trkpt>
      <trkpt lat="45.9494" lon="4.80236">
        <ele>256</ele>
        <time>2017-04-03T09:05:27Z</time>
      </trkpt>
      <trkpt lat="45.94939" lon="4.80244">
        <ele>256</ele>
        <time>2017-04-03T09:05:28Z</time>
      </trkpt>
      <trkpt lat="45.94939" lon="4.80251">
        <ele>257</ele>
        <time>2017-04-03T09:05:29Z</time>
      </trkpt>
      <trkpt lat="45.94939" lon="4.80259">
        <ele>257</ele>
        <time>2017-04-03T09:05:30Z</time>
      </trkpt>
      <trkpt lat="45.94939" lon="4.80265">
        <ele>257</ele>
        <time>2017-04-03T09:05:31Z</time>
      </trkpt>
      <trkpt lat="45.9494" lon="4.80272">
        <ele>257</ele>
        <time>2017-04-03T09:05:32Z</time>
      </trkpt>
      <trkpt lat="45.9494" lon="4.80279">
        <ele>257</ele>
        <time>2017-04-03T09:05:33Z</time>
      </trkpt>
      <trkpt lat="45.94941" lon="4.80286">
        <ele>257</ele>
        <time>2017-04-03T09:05:34Z</time>
      </trkpt>
      <trkpt lat="45.94941" lon="4.80293">
        <ele>257</ele>
        <time>2017-04-03T09:05:35Z</time>
      </trkpt>
      <trkpt lat="45.94941" lon="4.80299">
        <ele>257</ele>
        <time>2017-04-03T09:05:36Z</time>
      </trkpt>
      <trkpt lat="45.94941" lon="4.80306">
        <ele>257</ele>
        <time>2017-04-03T09:05:37Z</time>
      </trkpt>
      <trkpt lat="45.94941" lon="4.80313">
        <ele>257</ele>
        <time>2017-04-03T09:05:38Z</time>
      </trkpt>
      <trkpt lat="45.94941" lon="4.8032">
        <ele>257</ele>
        <time>2017-04-03T09:05:39Z</time>
      </trkpt>
      <trkpt lat="45.94941" lon="4.80328">
        <ele>257</ele>
        <time>2017-04-03T09:05:40Z</time>
      </trkpt>
      <trkpt lat="45.94941" lon="4.80334">
        <ele>258</ele>
        <time>2017-04-03T09:05:41Z</time>
      </trkpt>
      <trkpt lat="45.94941" lon="4.80341">
        <ele>258</ele>
        <time>2017-04-03T09:05:42Z</time>
      </trkpt>
      <trkpt lat="45.94942" lon="4.80354">
        <ele>258</ele>
        <time>2017-04-03T09:05:44Z</time>
      </trkpt>
      <trkpt lat="45.94942" lon="4.8036">
        <ele>258</ele>
        <time>2017-04-03T09:05:45Z</time>
      </trkpt>
      <trkpt lat="45.94942" lon="4.80367">
        <ele>258</ele>
        <time>2017-04-03T09:05:46Z</time>
      </trkpt>
      <trkpt lat="45.94943" lon="4.80375">
        <ele>258</ele>
        <time>2017-04-03T09:05:47Z</time>
      </trkpt>
      <trkpt lat="45.94943" lon="4.80382">
        <ele>258</ele>
        <time>2017-04-03T09:05:48Z</time>
      </trkpt>
      <trkpt lat="45.94944" lon="4.8039">
        <ele>258</ele>
        <time>2017-04-03T09:05:49Z</time>
      </trkpt>
      <trkpt lat="45.94944" lon="4.80398">
        <ele>258</ele>
        <time>2017-04-03T09:05:50Z</time>
      </trkpt>
      <trkpt lat="45.94943" lon="4.80405">
        <ele>258</ele>
        <time>2017-04-03T09:05:51Z</time>
      </trkpt>
      <trkpt lat="45.94944" lon="4.80413">
        <ele>259</ele>
        <time>2017-04-03T09:05:52Z</time>
      </trkpt>
      <trkpt lat="45.94944" lon="4.8042">
        <ele>259</ele>
        <time>2017-04-03T09:05:53Z</time>
      </trkpt>
      <trkpt lat="45.94943" lon="4.80428">
        <ele>259</ele>
        <time>2017-04-03T09:05:54Z</time>
      </trkpt>
      <trkpt lat="45.94944" lon="4.80435">
        <ele>259</ele>
        <time>2017-04-03T09:05:55Z</time>
      </trkpt>
      <trkpt lat="45.94944" lon="4.80443">
        <ele>259</ele>
        <time>2017-04-03T09:05:56Z</time>
      </trkpt>
      <trkpt lat="45.94944" lon="4.80451">
        <ele>259</ele>
        <time>2017-04-03T09:05:57Z</time>
      </trkpt>
      <trkpt lat="45.94944" lon="4.80459">
        <ele>258</ele>
        <time>2017-04-03T09:05:58Z</time>
      </trkpt>
      <trkpt lat="45.94945" lon="4.80466">
        <ele>258</ele>
        <time>2017-04-03T09:05:59Z</time>
      </trkpt>
      <trkpt lat="45.94945" lon="4.80474">
        <ele>258</ele>
        <time>2017-04-03T09:06:00Z</time>
      </trkpt>
      <trkpt lat="45.94945" lon="4.80481">
        <ele>258</ele>
        <time>2017-04-03T09:06:01Z</time>
      </trkpt>
      <trkpt lat="45.94945" lon="4.80488">
        <ele>258</ele>
        <time>2017-04-03T09:06:02Z</time>
      </trkpt>
      <trkpt lat="45.94945" lon="4.80494">
        <ele>258</ele>
        <time>2017-04-03T09:06:03Z</time>
      </trkpt>
      <trkpt lat="45.94945" lon="4.80501">
        <ele>258</ele>
        <time>2017-04-03T09:06:04Z</time>
      </trkpt>
      <trkpt lat="45.94945" lon="4.80508">
        <ele>258</ele>
        <time>2017-04-03T09:06:05Z</time>
      </trkpt>
      <trkpt lat="45.94945" lon="4.80514">
        <ele>258</ele>
        <time>2017-04-03T09:06:06Z</time>
      </trkpt>
      <trkpt lat="45.94945" lon="4.80521">
        <ele>258</ele>
        <time>2017-04-03T09:06:07Z</time>
      </trkpt>
      <trkpt lat="45.94945" lon="4.80528">
        <ele>258</ele>
        <time>2017-04-03T09:06:08Z</time>
      </trkpt>
      <trkpt lat="45.94946" lon="4.80534">
        <ele>258</ele>
        <time>2017-04-03T09:06:09Z</time>
      </trkpt>
      <trkpt lat="45.94946" lon="4.80541">
        <ele>258</ele>
        <time>2017-04-03T09:06:10Z</time>
      </trkpt>
      <trkpt lat="45.94946" lon="4.80548">
        <ele>258</ele>
        <time>2017-04-03T09:06:11Z</time>
      </trkpt>
      <trkpt lat="45.94946" lon="4.80555">
        <ele>258</ele>
        <time>2017-04-03T09:06:12Z</time>
      </trkpt>
      <trkpt lat="45.94947" lon="4.80561">
        <ele>257</ele>
        <time>2017-04-03T09:06:13Z</time>
      </trkpt>
      <trkpt lat="45.94947" lon="4.80569">
        <ele>257</ele>
        <time>2017-04-03T09:06:14Z</time>
      </trkpt>
      <trkpt lat="45.94947" lon="4.80576">
        <ele>257</ele>
        <time>2017-04-03T09:06:15Z</time>
      </trkpt>
      <trkpt lat="45.94947" lon="4.80583">
        <ele>257</ele>
        <time>2017-04-03T09:06:16Z</time>
      </trkpt>
      <trkpt lat="45.94947" lon="4.8059">
        <ele>258</ele>
        <time>2017-04-03T09:06:17Z</time>
      </trkpt>
      <trkpt lat="45.94947" lon="4.80597">
        <ele>258</ele>
        <time>2017-04-03T09:06:18Z</time>
      </trkpt>
      <trkpt lat="45.94947" lon="4.80605">
        <ele>258</ele>
        <time>2017-04-03T09:06:19Z</time>
      </trkpt>
      <trkpt lat="45.94948" lon="4.80612">
        <ele>258</ele>
        <time>2017-04-03T09:06:20Z</time>
      </trkpt>
      <trkpt lat="45.94949" lon="4.80619">
        <ele>258</ele>
        <time>2017-04-03T09:06:21Z</time>
      </trkpt>
      <trkpt lat="45.94949" lon="4.80626">
        <ele>258</ele>
        <time>2017-04-03T09:06:22Z</time>
      </trkpt>
      <trkpt lat="45.94949" lon="4.80634">
        <ele>258</ele>
        <time>2017-04-03T09:06:23Z</time>
      </trkpt>
      <trkpt lat="45.94949" lon="4.80641">
        <ele>258</ele>
        <time>2017-04-03T09:06:24Z</time>
      </trkpt>
      <trkpt lat="45.9495" lon="4.80648">
        <ele>259</ele>
        <time>2017-04-03T09:06:25Z</time>
      </trkpt>
      <trkpt lat="45.9495" lon="4.80656">
        <ele>259</ele>
        <time>2017-04-03T09:06:26Z</time>
      </trkpt>
      <trkpt lat="45.94951" lon="4.80664">
        <ele>259</ele>
        <time>2017-04-03T09:06:27Z</time>
      </trkpt>
      <trkpt lat="45.94951" lon="4.8067">
        <ele>259</ele>
        <time>2017-04-03T09:06:28Z</time>
      </trkpt>
      <trkpt lat="45.9495" lon="4.80677">
        <ele>259</ele>
        <time>2017-04-03T09:06:29Z</time>
      </trkpt>
      <trkpt lat="45.94949" lon="4.80689">
        <ele>259</ele>
        <time>2017-04-03T09:06:31Z</time>
      </trkpt>
      <trkpt lat="45.94949" lon="4.80696">
        <ele>259</ele>
        <time>2017-04-03T09:06:32Z</time>
      </trkpt>
      <trkpt lat="45.94949" lon="4.80702">
        <ele>259</ele>
        <time>2017-04-03T09:06:33Z</time>
      </trkpt>
      <trkpt lat="45.94949" lon="4.80709">
        <ele>259</ele>
        <time>2017-04-03T09:06:34Z</time>
      </trkpt>
      <trkpt lat="45.9495" lon="4.80715">
        <ele>259</ele>
        <time>2017-04-03T09:06:35Z</time>
      </trkpt>
      <trkpt lat="45.9495" lon="4.80722">
        <ele>259</ele>
        <time>2017-04-03T09:06:36Z</time>
      </trkpt>
      <trkpt lat="45.9495" lon="4.80728">
        <ele>259</ele>
        <time>2017-04-03T09:06:37Z</time>
      </trkpt>
      <trkpt lat="45.94951" lon="4.80735">
        <ele>259</ele>
        <time>2017-04-03T09:06:38Z</time>
      </trkpt>
      <trkpt lat="45.94951" lon="4.80748">
        <ele>259</ele>
        <time>2017-04-03T09:06:40Z</time>
      </trkpt>
      <trkpt lat="45.94951" lon="4.80754">
        <ele>259</ele>
        <time>2017-04-03T09:06:41Z</time>
      </trkpt>
      <trkpt lat="45.9495" lon="4.80766">
        <ele>259</ele>
        <time>2017-04-03T09:06:43Z</time>
      </trkpt>
      <trkpt lat="45.94948" lon="4.80772">
        <ele>259</ele>
        <time>2017-04-03T09:06:44Z</time>
      </trkpt>
      <trkpt lat="45.94946" lon="4.80783">
        <ele>259</ele>
        <time>2017-04-03T09:06:46Z</time>
      </trkpt>
      <trkpt lat="45.94944" lon="4.80789">
        <ele>259</ele>
        <time>2017-04-03T09:06:47Z</time>
      </trkpt>
      <trkpt lat="45.94943" lon="4.80799">
        <ele>259</ele>
        <time>2017-04-03T09:06:49Z</time>
      </trkpt>
      <trkpt lat="45.94945" lon="4.80805">
        <ele>259</ele>
        <time>2017-04-03T09:06:50Z</time>
      </trkpt>
      <trkpt lat="45.94946" lon="4.80811">
        <ele>258</ele>
        <time>2017-04-03T09:06:51Z</time>
      </trkpt>
      <trkpt lat="45.94949" lon="4.80818">
        <ele>258</ele>
        <time>2017-04-03T09:06:52Z</time>
      </trkpt>
      <trkpt lat="45.94952" lon="4.80824">
        <ele>258</ele>
        <time>2017-04-03T09:06:53Z</time>
      </trkpt>
      <trkpt lat="45.94955" lon="4.8083">
        <ele>258</ele>
        <time>2017-04-03T09:06:54Z</time>
      </trkpt>
      <trkpt lat="45.94956" lon="4.80837">
        <ele>258</ele>
        <time>2017-04-03T09:06:55Z</time>
      </trkpt>
      <trkpt lat="45.94957" lon="4.80845">
        <ele>258</ele>
        <time>2017-04-03T09:06:56Z</time>
      </trkpt>
      <trkpt lat="45.94958" lon="4.80852">
        <ele>258</ele>
        <time>2017-04-03T09:06:57Z</time>
      </trkpt>
      <trkpt lat="45.9496" lon="4.80859">
        <ele>259</ele>
        <time>2017-04-03T09:06:58Z</time>
      </trkpt>
      <trkpt lat="45.94962" lon="4.80867">
        <ele>259</ele>
        <time>2017-04-03T09:06:59Z</time>
      </trkpt>
      <trkpt lat="45.94963" lon="4.80874">
        <ele>259</ele>
        <time>2017-04-03T09:07:00Z</time>
      </trkpt>
      <trkpt lat="45.94965" lon="4.80882">
        <ele>258</ele>
        <time>2017-04-03T09:07:01Z</time>
      </trkpt>
      <trkpt lat="45.94967" lon="4.80889">
        <ele>258</ele>
        <time>2017-04-03T09:07:02Z</time>
      </trkpt>
      <trkpt lat="45.94969" lon="4.80896">
        <ele>258</ele>
        <time>2017-04-03T09:07:03Z</time>
      </trkpt>
      <trkpt lat="45.94971" lon="4.80903">
        <ele>258</ele>
        <time>2017-04-03T09:07:04Z</time>
      </trkpt>
      <trkpt lat="45.94972" lon="4.8091">
        <ele>258</ele>
        <time>2017-04-03T09:07:05Z</time>
      </trkpt>
      <trkpt lat="45.94974" lon="4.80917">
        <ele>258</ele>
        <time>2017-04-03T09:07:06Z</time>
      </trkpt>
      <trkpt lat="45.94975" lon="4.80925">
        <ele>258</ele>
        <time>2017-04-03T09:07:07Z</time>
      </trkpt>
      <trkpt lat="45.94976" lon="4.80932">
        <ele>258</ele>
        <time>2017-04-03T09:07:08Z</time>
      </trkpt>
      <trkpt lat="45.94977" lon="4.80939">
        <ele>258</ele>
        <time>2017-04-03T09:07:09Z</time>
      </trkpt>
      <trkpt lat="45.94978" lon="4.80946">
        <ele>258</ele>
        <time>2017-04-03T09:07:10Z</time>
      </trkpt>
      <trkpt lat="45.94979" lon="4.80953">
        <ele>258</ele>
        <time>2017-04-03T09:07:11Z</time>
      </trkpt>
      <trkpt lat="45.94979" lon="4.8096">
        <ele>258</ele>
        <time>2017-04-03T09:07:12Z</time>
      </trkpt>
      <trkpt lat="45.9498" lon="4.80967">
        <ele>258</ele>
        <time>2017-04-03T09:07:13Z</time>
      </trkpt>
      <trkpt lat="45.9498" lon="4.80974">
        <ele>258</ele>
        <time>2017-04-03T09:07:14Z</time>
      </trkpt>
      <trkpt lat="45.9498" lon="4.80986">
        <ele>258</ele>
        <time>2017-04-03T09:07:16Z</time>
      </trkpt>
      <trkpt lat="45.9498" lon="4.80993">
        <ele>258</ele>
        <time>2017-04-03T09:07:17Z</time>
      </trkpt>
      <trkpt lat="45.9498" lon="4.81">
        <ele>258</ele>
        <time>2017-04-03T09:07:18Z</time>
      </trkpt>
      <trkpt lat="45.94981" lon="4.81007">
        <ele>257</ele>
        <time>2017-04-03T09:07:19Z</time>
      </trkpt>
      <trkpt lat="45.94981" lon="4.81015">
        <ele>257</ele>
        <time>2017-04-03T09:07:20Z</time>
      </trkpt>
      <trkpt lat="45.94982" lon="4.81023">
        <ele>257</ele>
        <time>2017-04-03T09:07:21Z</time>
      </trkpt>
      <trkpt lat="45.94983" lon="4.81031">
        <ele>257</ele>
        <time>2017-04-03T09:07:22Z</time>
      </trkpt>
      <trkpt lat="45.94984" lon="4.81039">
        <ele>257</ele>
        <time>2017-04-03T09:07:23Z</time>
      </trkpt>
      <trkpt lat="45.94985" lon="4.81047">
        <ele>257</ele>
        <time>2017-04-03T09:07:24Z</time>
      </trkpt>
      <trkpt lat="45.94987" lon="4.81056">
        <ele>257</ele>
        <time>2017-04-03T09:07:25Z</time>
      </trkpt>
      <trkpt lat="45.94988" lon="4.81064">
        <ele>257</ele>
        <time>2017-04-03T09:07:26Z</time>
      </trkpt>
      <trkpt lat="45.94988" lon="4.81072">
        <ele>257</ele>
        <time>2017-04-03T09:07:27Z</time>
      </trkpt>
      <trkpt lat="45.94989" lon="4.81079">
        <ele>257</ele>
        <time>2017-04-03T09:07:28Z</time>
      </trkpt>
      <trkpt lat="45.94989" lon="4.81086">
        <ele>257</ele>
        <time>2017-04-03T09:07:29Z</time>
      </trkpt>
      <trkpt lat="45.94989" lon="4.81093">
        <ele>257</ele>
        <time>2017-04-03T09:07:30Z</time>
      </trkpt>
      <trkpt lat="45.9499" lon="4.81099">
        <ele>257</ele>
        <time>2017-04-03T09:07:31Z</time>
      </trkpt>
      <trkpt lat="45.94991" lon="4.81107">
        <ele>257</ele>
        <time>2017-04-03T09:07:32Z</time>
      </trkpt>
      <trkpt lat="45.94992" lon="4.81114">
        <ele>257</ele>
        <time>2017-04-03T09:07:33Z</time>
      </trkpt>
      <trkpt lat="45.94993" lon="4.81122">
        <ele>257</ele>
        <time>2017-04-03T09:07:34Z</time>
      </trkpt>
      <trkpt lat="45.94993" lon="4.81128">
        <ele>256</ele>
        <time>2017-04-03T09:07:35Z</time>
      </trkpt>
      <trkpt lat="45.94994" lon="4.81136">
        <ele>256</ele>
        <time>2017-04-03T09:07:36Z</time>
      </trkpt>
      <trkpt lat="45.94995" lon="4.81143">
        <ele>256</ele>
        <time>2017-04-03T09:07:37Z</time>
      </trkpt>
      <trkpt lat="45.94996" lon="4.8115">
        <ele>256</ele>
        <time>2017-04-03T09:07:38Z</time>
      </trkpt>
      <trkpt lat="45.94997" lon="4.81157">
        <ele>256</ele>
        <time>2017-04-03T09:07:39Z</time>
      </trkpt>
      <trkpt lat="45.94998" lon="4.81165">
        <ele>256</ele>
        <time>2017-04-03T09:07:40Z</time>
      </trkpt>
      <trkpt lat="45.95" lon="4.81172">
        <ele>256</ele>
        <time>2017-04-03T09:07:41Z</time>
      </trkpt>
      <trkpt lat="45.95001" lon="4.8118">
        <ele>256</ele>
        <time>2017-04-03T09:07:42Z</time>
      </trkpt>
      <trkpt lat="45.95002" lon="4.81188">
        <ele>256</ele>
        <time>2017-04-03T09:07:43Z</time>
      </trkpt>
      <trkpt lat="45.95003" lon="4.81196">
        <ele>256</ele>
        <time>2017-04-03T09:07:44Z</time>
      </trkpt>
      <trkpt lat="45.95004" lon="4.81204">
        <ele>256</ele>
        <time>2017-04-03T09:07:45Z</time>
      </trkpt>
      <trkpt lat="45.95006" lon="4.81213">
        <ele>256</ele>
        <time>2017-04-03T09:07:46Z</time>
      </trkpt>
      <trkpt lat="45.95007" lon="4.81222">
        <ele>256</ele>
        <time>2017-04-03T09:07:47Z</time>
      </trkpt>
      <trkpt lat="45.95008" lon="4.8123">
        <ele>256</ele>
        <time>2017-04-03T09:07:48Z</time>
      </trkpt>
      <trkpt lat="45.95009" lon="4.81239">
        <ele>256</ele>
        <time>2017-04-03T09:07:49Z</time>
      </trkpt>
      <trkpt lat="45.9501" lon="4.81247">
        <ele>256</ele>
        <time>2017-04-03T09:07:50Z</time>
      </trkpt>
      <trkpt lat="45.9501" lon="4.81256">
        <ele>256</ele>
        <time>2017-04-03T09:07:51Z</time>
      </trkpt>
      <trkpt lat="45.95012" lon="4.81264">
        <ele>256</ele>
        <time>2017-04-03T09:07:52Z</time>
      </trkpt>
      <trkpt lat="45.95013" lon="4.81271">
        <ele>255</ele>
        <time>2017-04-03T09:07:53Z</time>
      </trkpt>
      <trkpt lat="45.95014" lon="4.81279">
        <ele>255</ele>
        <time>2017-04-03T09:07:54Z</time>
      </trkpt>
      <trkpt lat="45.95015" lon="4.81286">
        <ele>255</ele>
        <time>2017-04-03T09:07:55Z</time>
      </trkpt>
      <trkpt lat="45.95017" lon="4.81292">
        <ele>255</ele>
        <time>2017-04-03T09:07:56Z</time>
      </trkpt>
      <trkpt lat="45.95017" lon="4.813">
        <ele>255</ele>
        <time>2017-04-03T09:07:57Z</time>
      </trkpt>
      <trkpt lat="45.95019" lon="4.81307">
        <ele>255</ele>
        <time>2017-04-03T09:07:58Z</time>
      </trkpt>
      <trkpt lat="45.95021" lon="4.81314">
        <ele>255</ele>
        <time>2017-04-03T09:07:59Z</time>
      </trkpt>
      <trkpt lat="45.95023" lon="4.81321">
        <ele>255</ele>
        <time>2017-04-03T09:08:00Z</time>
      </trkpt>
      <trkpt lat="45.95025" lon="4.81329">
        <ele>255</ele>
        <time>2017-04-03T09:08:01Z</time>
      </trkpt>
      <trkpt lat="45.95027" lon="4.81336">
        <ele>254</ele>
        <time>2017-04-03T09:08:02Z</time>
      </trkpt>
      <trkpt lat="45.95029" lon="4.81345">
        <ele>254</ele>
        <time>2017-04-03T09:08:03Z</time>
      </trkpt>
      <trkpt lat="45.95031" lon="4.81353">
        <ele>254</ele>
        <time>2017-04-03T09:08:04Z</time>
      </trkpt>
      <trkpt lat="45.95033" lon="4.81361">
        <ele>254</ele>
        <time>2017-04-03T09:08:05Z</time>
      </trkpt>
      <trkpt lat="45.95035" lon="4.8137">
        <ele>254</ele>
        <time>2017-04-03T09:08:06Z</time>
      </trkpt>
      <trkpt lat="45.95038" lon="4.81378">
        <ele>254</ele>
        <time>2017-04-03T09:08:07Z</time>
      </trkpt>
      <trkpt lat="45.95041" lon="4.81386">
        <ele>254</ele>
        <time>2017-04-03T09:08:08Z</time>
      </trkpt>
      <trkpt lat="45.95043" lon="4.81395">
        <ele>254</ele>
        <time>2017-04-03T09:08:09Z</time>
      </trkpt>
      <trkpt lat="45.95046" lon="4.81404">
        <ele>253</ele>
        <time>2017-04-03T09:08:10Z</time>
      </trkpt>
      <trkpt lat="45.9505" lon="4.81413">
        <ele>253</ele>
        <time>2017-04-03T09:08:11Z</time>
      </trkpt>
      <trkpt lat="45.95054" lon="4.81421">
        <ele>253</ele>
        <time>2017-04-03T09:08:12Z</time>
      </trkpt>
      <trkpt lat="45.95057" lon="4.8143">
        <ele>253</ele>
        <time>2017-04-03T09:08:13Z</time>
      </trkpt>
      <trkpt lat="45.95061" lon="4.81439">
        <ele>253</ele>
        <time>2017-04-03T09:08:14Z</time>
      </trkpt>
      <trkpt lat="45.95065" lon="4.81448">
        <ele>253</ele>
        <time>2017-04-03T09:08:15Z</time>
      </trkpt>
      <trkpt lat="45.95069" lon="4.81457">
        <ele>253</ele>
        <time>2017-04-03T09:08:16Z</time>
      </trkpt>
      <trkpt lat="45.95072" lon="4.81466">
        <ele>253</ele>
        <time>2017-04-03T09:08:17Z</time>
      </trkpt>
      <trkpt lat="45.95076" lon="4.81475">
        <ele>253</ele>
        <time>2017-04-03T09:08:18Z</time>
      </trkpt>
      <trkpt lat="45.95079" lon="4.81484">
        <ele>253</ele>
        <time>2017-04-03T09:08:19Z</time>
      </trkpt>
      <trkpt lat="45.95083" lon="4.81493">
        <ele>252</ele>
        <time>2017-04-03T09:08:20Z</time>
      </trkpt>
      <trkpt lat="45.95087" lon="4.81502">
        <ele>252</ele>
        <time>2017-04-03T09:08:21Z</time>
      </trkpt>
      <trkpt lat="45.9509" lon="4.81512">
        <ele>252</ele>
        <time>2017-04-03T09:08:22Z</time>
      </trkpt>
      <trkpt lat="45.95094" lon="4.81522">
        <ele>251</ele>
        <time>2017-04-03T09:08:23Z</time>
      </trkpt>
      <trkpt lat="45.95098" lon="4.81532">
        <ele>251</ele>
        <time>2017-04-03T09:08:24Z</time>
      </trkpt>
      <trkpt lat="45.95102" lon="4.81542">
        <ele>251</ele>
        <time>2017-04-03T09:08:25Z</time>
      </trkpt>
      <trkpt lat="45.95105" lon="4.81552">
        <ele>251</ele>
        <time>2017-04-03T09:08:26Z</time>
      </trkpt>
      <trkpt lat="45.95108" lon="4.81562">
        <ele>251</ele>
        <time>2017-04-03T09:08:27Z</time>
      </trkpt>
      <trkpt lat="45.95111" lon="4.81571">
        <ele>251</ele>
        <time>2017-04-03T09:08:28Z</time>
      </trkpt>
      <trkpt lat="45.95113" lon="4.8158">
        <ele>251</ele>
        <time>2017-04-03T09:08:29Z</time>
      </trkpt>
      <trkpt lat="45.95114" lon="4.81589">
        <ele>252</ele>
        <time>2017-04-03T09:08:30Z</time>
      </trkpt>
      <trkpt lat="45.95116" lon="4.81596">
        <ele>252</ele>
        <time>2017-04-03T09:08:31Z</time>
      </trkpt>
      <trkpt lat="45.95119" lon="4.81604">
        <ele>252</ele>
        <time>2017-04-03T09:08:32Z</time>
      </trkpt>
      <trkpt lat="45.95121" lon="4.8161">
        <ele>252</ele>
        <time>2017-04-03T09:08:33Z</time>
      </trkpt>
      <trkpt lat="45.95123" lon="4.81616">
        <ele>252</ele>
        <time>2017-04-03T09:08:34Z</time>
      </trkpt>
      <trkpt lat="45.95125" lon="4.81622">
        <ele>252</ele>
        <time>2017-04-03T09:08:35Z</time>
      </trkpt>
      <trkpt lat="45.95129" lon="4.81634">
        <ele>253</ele>
        <time>2017-04-03T09:08:37Z</time>
      </trkpt>
      <trkpt lat="45.95131" lon="4.81639">
        <ele>253</ele>
        <time>2017-04-03T09:08:38Z</time>
      </trkpt>
      <trkpt lat="45.95134" lon="4.81645">
        <ele>253</ele>
        <time>2017-04-03T09:08:39Z</time>
      </trkpt>
      <trkpt lat="45.95136" lon="4.8165">
        <ele>253</ele>
        <time>2017-04-03T09:08:40Z</time>
      </trkpt>
      <trkpt lat="45.9514" lon="4.8166">
        <ele>253</ele>
        <time>2017-04-03T09:08:42Z</time>
      </trkpt>
      <trkpt lat="45.95141" lon="4.81666">
        <ele>253</ele>
        <time>2017-04-03T09:08:43Z</time>
      </trkpt>
      <trkpt lat="45.95144" lon="4.81676">
        <ele>255</ele>
        <time>2017-04-03T09:08:45Z</time>
      </trkpt>
      <trkpt lat="45.95146" lon="4.8168">
        <ele>255</ele>
        <time>2017-04-03T09:08:46Z</time>
      </trkpt>
      <trkpt lat="45.9515" lon="4.81689">
        <ele>255</ele>
        <time>2017-04-03T09:08:48Z</time>
      </trkpt>
      <trkpt lat="45.95152" lon="4.81693">
        <ele>255</ele>
        <time>2017-04-03T09:08:49Z</time>
      </trkpt>
      <trkpt lat="45.95155" lon="4.81701">
        <ele>255</ele>
        <time>2017-04-03T09:08:51Z</time>
      </trkpt>
      <trkpt lat="45.95156" lon="4.81706">
        <ele>255</ele>
        <time>2017-04-03T09:08:52Z</time>
      </trkpt>
      <trkpt lat="45.95159" lon="4.81717">
        <ele>256</ele>
        <time>2017-04-03T09:08:55Z</time>
      </trkpt>
      <trkpt lat="45.95161" lon="4.8172">
        <ele>256</ele>
        <time>2017-04-03T09:08:56Z</time>
      </trkpt>
      <trkpt lat="45.95164" lon="4.81729">
        <ele>256</ele>
        <time>2017-04-03T09:08:58Z</time>
      </trkpt>
      <trkpt lat="45.95167" lon="4.81732">
        <ele>257</ele>
        <time>2017-04-03T09:08:59Z</time>
      </trkpt>
      <trkpt lat="45.95171" lon="4.81739">
        <ele>257</ele>
        <time>2017-04-03T09:09:01Z</time>
      </trkpt>
      <trkpt lat="45.95174" lon="4.81742">
        <ele>257</ele>
        <time>2017-04-03T09:09:02Z</time>
      </trkpt>
      <trkpt lat="45.95179" lon="4.81747">
        <ele>257</ele>
        <time>2017-04-03T09:09:04Z</time>
      </trkpt>
      <trkpt lat="45.95181" lon="4.81751">
        <ele>258</ele>
        <time>2017-04-03T09:09:05Z</time>
      </trkpt>
      <trkpt lat="45.95186" lon="4.81759">
        <ele>258</ele>
        <time>2017-04-03T09:09:07Z</time>
      </trkpt>
      <trkpt lat="45.95188" lon="4.81763">
        <ele>258</ele>
        <time>2017-04-03T09:09:08Z</time>
      </trkpt>
      <trkpt lat="45.95192" lon="4.8177">
        <ele>258</ele>
        <time>2017-04-03T09:09:10Z</time>
      </trkpt>
      <trkpt lat="45.95195" lon="4.81773">
        <ele>258</ele>
        <time>2017-04-03T09:09:11Z</time>
      </trkpt>
      <trkpt lat="45.95199" lon="4.81781">
        <ele>258</ele>
        <time>2017-04-03T09:09:13Z</time>
      </trkpt>
      <trkpt lat="45.95201" lon="4.81784">
        <ele>258</ele>
        <time>2017-04-03T09:09:14Z</time>
      </trkpt>
      <trkpt lat="45.95205" lon="4.81791">
        <ele>259</ele>
        <time>2017-04-03T09:09:16Z</time>
      </trkpt>
      <trkpt lat="45.95207" lon="4.81794">
        <ele>259</ele>
        <time>2017-04-03T09:09:17Z</time>
      </trkpt>
      <trkpt lat="45.95213" lon="4.81804">
        <ele>259</ele>
        <time>2017-04-03T09:09:20Z</time>
      </trkpt>
      <trkpt lat="45.95215" lon="4.81807">
        <ele>259</ele>
        <time>2017-04-03T09:09:21Z</time>
      </trkpt>
      <trkpt lat="45.95221" lon="4.81817">
        <ele>259</ele>
        <time>2017-04-03T09:09:24Z</time>
      </trkpt>
      <trkpt lat="45.95222" lon="4.81821">
        <ele>259</ele>
        <time>2017-04-03T09:09:25Z</time>
      </trkpt>
      <trkpt lat="45.95226" lon="4.81828">
        <ele>259</ele>
        <time>2017-04-03T09:09:27Z</time>
      </trkpt>
      <trkpt lat="45.95228" lon="4.81832">
        <ele>259</ele>
        <time>2017-04-03T09:09:28Z</time>
      </trkpt>
      <trkpt lat="45.95232" lon="4.81843">
        <ele>260</ele>
        <time>2017-04-03T09:09:31Z</time>
      </trkpt>
      <trkpt lat="45.95234" lon="4.81846">
        <ele>260</ele>
        <time>2017-04-03T09:09:32Z</time>
      </trkpt>
      <trkpt lat="45.9524" lon="4.81855">
        <ele>260</ele>
        <time>2017-04-03T09:09:35Z</time>
      </trkpt>
      <trkpt lat="45.95242" lon="4.81858">
        <ele>260</ele>
        <time>2017-04-03T09:09:36Z</time>
      </trkpt>
      <trkpt lat="45.95247" lon="4.81865">
        <ele>260</ele>
        <time>2017-04-03T09:09:38Z</time>
      </trkpt>
      <trkpt lat="45.95249" lon="4.81869">
        <ele>260</ele>
        <time>2017-04-03T09:09:39Z</time>
      </trkpt>
      <trkpt lat="45.95254" lon="4.81877">
        <ele>260</ele>
        <time>2017-04-03T09:09:41Z</time>
      </trkpt>
      <trkpt lat="45.95257" lon="4.81881">
        <ele>260</ele>
        <time>2017-04-03T09:09:42Z</time>
      </trkpt>
      <trkpt lat="45.95263" lon="4.81887">
        <ele>260</ele>
        <time>2017-04-03T09:09:44Z</time>
      </trkpt>
      <trkpt lat="45.95266" lon="4.81891">
        <ele>260</ele>
        <time>2017-04-03T09:09:45Z</time>
      </trkpt>
      <trkpt lat="45.95273" lon="4.81899">
        <ele>260</ele>
        <time>2017-04-03T09:09:47Z</time>
      </trkpt>
      <trkpt lat="45.95275" lon="4.81902">
        <ele>260</ele>
        <time>2017-04-03T09:09:48Z</time>
      </trkpt>
      <trkpt lat="45.95281" lon="4.81911">
        <ele>260</ele>
        <time>2017-04-03T09:09:50Z</time>
      </trkpt>
      <trkpt lat="45.95284" lon="4.81915">
        <ele>260</ele>
        <time>2017-04-03T09:09:51Z</time>
      </trkpt>
      <trkpt lat="45.9529" lon="4.81924">
        <ele>261</ele>
        <time>2017-04-03T09:09:53Z</time>
      </trkpt>
      <trkpt lat="45.95293" lon="4.81928">
        <ele>261</ele>
        <time>2017-04-03T09:09:54Z</time>
      </trkpt>
      <trkpt lat="45.95298" lon="4.81936">
        <ele>261</ele>
        <time>2017-04-03T09:09:56Z</time>
      </trkpt>
      <trkpt lat="45.95301" lon="4.8194">
        <ele>261</ele>
        <time>2017-04-03T09:09:57Z</time>
      </trkpt>
      <trkpt lat="45.95308" lon="4.81947">
        <ele>261</ele>
        <time>2017-04-03T09:09:59Z</time>
      </trkpt>
      <trkpt lat="45.95311" lon="4.81951">
        <ele>262</ele>
        <time>2017-04-03T09:10:00Z</time>
      </trkpt>
      <trkpt lat="45.95316" lon="4.81955">
        <ele>262</ele>
        <time>2017-04-03T09:10:01Z</time>
      </trkpt>
      <trkpt lat="45.95321" lon="4.81959">
        <ele>262</ele>
        <time>2017-04-03T09:10:02Z</time>
      </trkpt>
      <trkpt lat="45.95325" lon="4.81962">
        <ele>262</ele>
        <time>2017-04-03T09:10:03Z</time>
      </trkpt>
      <trkpt lat="45.9533" lon="4.81967">
        <ele>262</ele>
        <time>2017-04-03T09:10:04Z</time>
      </trkpt>
      <trkpt lat="45.95334" lon="4.81971">
        <ele>262</ele>
        <time>2017-04-03T09:10:05Z</time>
      </trkpt>
      <trkpt lat="45.95338" lon="4.81976">
        <ele>262</ele>
        <time>2017-04-03T09:10:06Z</time>
      </trkpt>
      <trkpt lat="45.95342" lon="4.8198">
        <ele>262</ele>
        <time>2017-04-03T09:10:07Z</time>
      </trkpt>
      <trkpt lat="45.95345" lon="4.81985">
        <ele>262</ele>
        <time>2017-04-03T09:10:08Z</time>
      </trkpt>
      <trkpt lat="45.95349" lon="4.81989">
        <ele>262</ele>
        <time>2017-04-03T09:10:09Z</time>
      </trkpt>
      <trkpt lat="45.95353" lon="4.81992">
        <ele>262</ele>
        <time>2017-04-03T09:10:10Z</time>
      </trkpt>
      <trkpt lat="45.95357" lon="4.81996">
        <ele>262</ele>
        <time>2017-04-03T09:10:11Z</time>
      </trkpt>
      <trkpt lat="45.95361" lon="4.82">
        <ele>262</ele>
        <time>2017-04-03T09:10:12Z</time>
      </trkpt>
      <trkpt lat="45.95366" lon="4.82004">
        <ele>262</ele>
        <time>2017-04-03T09:10:13Z</time>
      </trkpt>
      <trkpt lat="45.9537" lon="4.82009">
        <ele>262</ele>
        <time>2017-04-03T09:10:14Z</time>
      </trkpt>
      <trkpt lat="45.95374" lon="4.82013">
        <ele>262</ele>
        <time>2017-04-03T09:10:15Z</time>
      </trkpt>
      <trkpt lat="45.95378" lon="4.82018">
        <ele>262</ele>
        <time>2017-04-03T09:10:16Z</time>
      </trkpt>
      <trkpt lat="45.95382" lon="4.82022">
        <ele>262</ele>
        <time>2017-04-03T09:10:17Z</time>
      </trkpt>
      <trkpt lat="45.95385" lon="4.82025">
        <ele>262</ele>
        <time>2017-04-03T09:10:18Z</time>
      </trkpt>
      <trkpt lat="45.95392" lon="4.82032">
        <ele>261</ele>
        <time>2017-04-03T09:10:20Z</time>
      </trkpt>
      <trkpt lat="45.95395" lon="4.82036">
        <ele>261</ele>
        <time>2017-04-03T09:10:21Z</time>
      </trkpt>
      <trkpt lat="45.95402" lon="4.82043">
        <ele>261</ele>
        <time>2017-04-03T09:10:23Z</time>
      </trkpt>
      <trkpt lat="45.95405" lon="4.82047">
        <ele>261</ele>
        <time>2017-04-03T09:10:24Z</time>
      </trkpt>
      <trkpt lat="45.95409" lon="4.82052">
        <ele>261</ele>
        <time>2017-04-03T09:10:25Z</time>
      </trkpt>
      <trkpt lat="45.95412" lon="4.82056">
        <ele>261</ele>
        <time>2017-04-03T09:10:26Z</time>
      </trkpt>
      <trkpt lat="45.95419" lon="4.82064">
        <ele>260</ele>
        <time>2017-04-03T09:10:28Z</time>
      </trkpt>
      <trkpt lat="45.95423" lon="4.82068">
        <ele>260</ele>
        <time>2017-04-03T09:10:29Z</time>
      </trkpt>
      <trkpt lat="45.9543" lon="4.82074">
        <ele>260</ele>
        <time>2017-04-03T09:10:31Z</time>
      </trkpt>
      <trkpt lat="45.95434" lon="4.82077">
        <ele>260</ele>
        <time>2017-04-03T09:10:32Z</time>
      </trkpt>
      <trkpt lat="45.95438" lon="4.82081">
        <ele>260</ele>
        <time>2017-04-03T09:10:33Z</time>
      </trkpt>
      <trkpt lat="45.95442" lon="4.82085">
        <ele>260</ele>
        <time>2017-04-03T09:10:34Z</time>
      </trkpt>
      <trkpt lat="45.95448" lon="4.82089">
        <ele>260</ele>
        <time>2017-04-03T09:10:35Z</time>
      </trkpt>
      <trkpt lat="45.95451" lon="4.82094">
        <ele>260</ele>
        <time>2017-04-03T09:10:36Z</time>
      </trkpt>
      <trkpt lat="45.95455" lon="4.82098">
        <ele>260</ele>
        <time>2017-04-03T09:10:37Z</time>
      </trkpt>
      <trkpt lat="45.9546" lon="4.82103">
        <ele>260</ele>
        <time>2017-04-03T09:10:38Z</time>
      </trkpt>
      <trkpt lat="45.95463" lon="4.82107">
        <ele>260</ele>
        <time>2017-04-03T09:10:39Z</time>
      </trkpt>
      <trkpt lat="45.95467" lon="4.82111">
        <ele>260</ele>
        <time>2017-04-03T09:10:40Z</time>
      </trkpt>
      <trkpt lat="45.95471" lon="4.82115">
        <ele>260</ele>
        <time>2017-04-03T09:10:41Z</time>
      </trkpt>
      <trkpt lat="45.95476" lon="4.8212">
        <ele>260</ele>
        <time>2017-04-03T09:10:42Z</time>
      </trkpt>
      <trkpt lat="45.9548" lon="4.82124">
        <ele>260</ele>
        <time>2017-04-03T09:10:43Z</time>
      </trkpt>
      <trkpt lat="45.95485" lon="4.82129">
        <ele>260</ele>
        <time>2017-04-03T09:10:44Z</time>
      </trkpt>
      <trkpt lat="45.95489" lon="4.82134">
        <ele>260</ele>
        <time>2017-04-03T09:10:45Z</time>
      </trkpt>
      <trkpt lat="45.95494" lon="4.82139">
        <ele>260</ele>
        <time>2017-04-03T09:10:46Z</time>
      </trkpt>
      <trkpt lat="45.95498" lon="4.82144">
        <ele>260</ele>
        <time>2017-04-03T09:10:47Z</time>
      </trkpt>
      <trkpt lat="45.95502" lon="4.82148">
        <ele>259</ele>
        <time>2017-04-03T09:10:48Z</time>
      </trkpt>
      <trkpt lat="45.95509" lon="4.82157">
        <ele>260</ele>
        <time>2017-04-03T09:10:50Z</time>
      </trkpt>
      <trkpt lat="45.95512" lon="4.8216">
        <ele>260</ele>
        <time>2017-04-03T09:10:51Z</time>
      </trkpt>
      <trkpt lat="45.95517" lon="4.82164">
        <ele>259</ele>
        <time>2017-04-03T09:10:52Z</time>
      </trkpt>
      <trkpt lat="45.95521" lon="4.82167">
        <ele>259</ele>
        <time>2017-04-03T09:10:53Z</time>
      </trkpt>
      <trkpt lat="45.95525" lon="4.82171">
        <ele>259</ele>
        <time>2017-04-03T09:10:54Z</time>
      </trkpt>
      <trkpt lat="45.9553" lon="4.82174">
        <ele>259</ele>
        <time>2017-04-03T09:10:55Z</time>
      </trkpt>
      <trkpt lat="45.95535" lon="4.82178">
        <ele>259</ele>
        <time>2017-04-03T09:10:56Z</time>
      </trkpt>
      <trkpt lat="45.9554" lon="4.82182">
        <ele>259</ele>
        <time>2017-04-03T09:10:57Z</time>
      </trkpt>
      <trkpt lat="45.95544" lon="4.82186">
        <ele>259</ele>
        <time>2017-04-03T09:10:58Z</time>
      </trkpt>
      <trkpt lat="45.95549" lon="4.8219">
        <ele>259</ele>
        <time>2017-04-03T09:10:59Z</time>
      </trkpt>
      <trkpt lat="45.95553" lon="4.82194">
        <ele>259</ele>
        <time>2017-04-03T09:11:00Z</time>
      </trkpt>
      <trkpt lat="45.95558" lon="4.82198">
        <ele>259</ele>
        <time>2017-04-03T09:11:01Z</time>
      </trkpt>
      <trkpt lat="45.95564" lon="4.82202">
        <ele>258</ele>
        <time>2017-04-03T09:11:02Z</time>
      </trkpt>
      <trkpt lat="45.95568" lon="4.82205">
        <ele>258</ele>
        <time>2017-04-03T09:11:03Z</time>
      </trkpt>
      <trkpt lat="45.95573" lon="4.8221">
        <ele>258</ele>
        <time>2017-04-03T09:11:04Z</time>
      </trkpt>
      <trkpt lat="45.95578" lon="4.82214">
        <ele>258</ele>
        <time>2017-04-03T09:11:05Z</time>
      </trkpt>
      <trkpt lat="45.95583" lon="4.82219">
        <ele>258</ele>
        <time>2017-04-03T09:11:06Z</time>
      </trkpt>
      <trkpt lat="45.95588" lon="4.82222">
        <ele>257</ele>
        <time>2017-04-03T09:11:07Z</time>
      </trkpt>
      <trkpt lat="45.95593" lon="4.82223">
        <ele>257</ele>
        <time>2017-04-03T09:11:08Z</time>
      </trkpt>
      <trkpt lat="45.95599" lon="4.82223">
        <ele>257</ele>
        <time>2017-04-03T09:11:09Z</time>
      </trkpt>
      <trkpt lat="45.95605" lon="4.82223">
        <ele>257</ele>
        <time>2017-04-03T09:11:10Z</time>
      </trkpt>
      <trkpt lat="45.95611" lon="4.82223">
        <ele>257</ele>
        <time>2017-04-03T09:11:11Z</time>
      </trkpt>
      <trkpt lat="45.95617" lon="4.82222">
        <ele>257</ele>
        <time>2017-04-03T09:11:12Z</time>
      </trkpt>
      <trkpt lat="45.95624" lon="4.82221">
        <ele>257</ele>
        <time>2017-04-03T09:11:13Z</time>
      </trkpt>
      <trkpt lat="45.9563" lon="4.8222">
        <ele>257</ele>
        <time>2017-04-03T09:11:14Z</time>
      </trkpt>
      <trkpt lat="45.95635" lon="4.82219">
        <ele>257</ele>
        <time>2017-04-03T09:11:15Z</time>
      </trkpt>
      <trkpt lat="45.95641" lon="4.82219">
        <ele>257</ele>
        <time>2017-04-03T09:11:16Z</time>
      </trkpt>
      <trkpt lat="45.95647" lon="4.8222">
        <ele>257</ele>
        <time>2017-04-03T09:11:17Z</time>
      </trkpt>
      <trkpt lat="45.95652" lon="4.82221">
        <ele>257</ele>
        <time>2017-04-03T09:11:18Z</time>
      </trkpt>
      <trkpt lat="45.95657" lon="4.82223">
        <ele>257</ele>
        <time>2017-04-03T09:11:19Z</time>
      </trkpt>
      <trkpt lat="45.95663" lon="4.82225">
        <ele>257</ele>
        <time>2017-04-03T09:11:20Z</time>
      </trkpt>
      <trkpt lat="45.95668" lon="4.82229">
        <ele>255</ele>
        <time>2017-04-03T09:11:21Z</time>
      </trkpt>
      <trkpt lat="45.95673" lon="4.82232">
        <ele>255</ele>
        <time>2017-04-03T09:11:22Z</time>
      </trkpt>
      <trkpt lat="45.95677" lon="4.82236">
        <ele>255</ele>
        <time>2017-04-03T09:11:23Z</time>
      </trkpt>
      <trkpt lat="45.95681" lon="4.82241">
        <ele>255</ele>
        <time>2017-04-03T09:11:24Z</time>
      </trkpt>
      <trkpt lat="45.95685" lon="4.82245">
        <ele>255</ele>
        <time>2017-04-03T09:11:25Z</time>
      </trkpt>
      <trkpt lat="45.9569" lon="4.8225">
        <ele>255</ele>
        <time>2017-04-03T09:11:26Z</time>
      </trkpt>
      <trkpt lat="45.95694" lon="4.82255">
        <ele>255</ele>
        <time>2017-04-03T09:11:27Z</time>
      </trkpt>
      <trkpt lat="45.95698" lon="4.8226">
        <ele>255</ele>
        <time>2017-04-03T09:11:28Z</time>
      </trkpt>
      <trkpt lat="45.95702" lon="4.82264">
        <ele>255</ele>
        <time>2017-04-03T09:11:29Z</time>
      </trkpt>
      <trkpt lat="45.95706" lon="4.82268">
        <ele>255</ele>
        <time>2017-04-03T09:11:30Z</time>
      </trkpt>
      <trkpt lat="45.95711" lon="4.82274">
        <ele>255</ele>
        <time>2017-04-03T09:11:31Z</time>
      </trkpt>
      <trkpt lat="45.95715" lon="4.82279">
        <ele>255</ele>
        <time>2017-04-03T09:11:32Z</time>
      </trkpt>
      <trkpt lat="45.95721" lon="4.82285">
        <ele>255</ele>
        <time>2017-04-03T09:11:33Z</time>
      </trkpt>
      <trkpt lat="45.95724" lon="4.82291">
        <ele>255</ele>
        <time>2017-04-03T09:11:34Z</time>
      </trkpt>
      <trkpt lat="45.95729" lon="4.82296">
        <ele>255</ele>
        <time>2017-04-03T09:11:35Z</time>
      </trkpt>
      <trkpt lat="45.95734" lon="4.82302">
        <ele>255</ele>
        <time>2017-04-03T09:11:36Z</time>
      </trkpt>
      <trkpt lat="45.95738" lon="4.82308">
        <ele>255</ele>
        <time>2017-04-03T09:11:37Z</time>
      </trkpt>
      <trkpt lat="45.95743" lon="4.82315">
        <ele>256</ele>
        <time>2017-04-03T09:11:38Z</time>
      </trkpt>
      <trkpt lat="45.95748" lon="4.8232">
        <ele>256</ele>
        <time>2017-04-03T09:11:39Z</time>
      </trkpt>
      <trkpt lat="45.95753" lon="4.82325">
        <ele>254</ele>
        <time>2017-04-03T09:11:40Z</time>
      </trkpt>
      <trkpt lat="45.95758" lon="4.8233">
        <ele>254</ele>
        <time>2017-04-03T09:11:41Z</time>
      </trkpt>
      <trkpt lat="45.95763" lon="4.82335">
        <ele>255</ele>
        <time>2017-04-03T09:11:42Z</time>
      </trkpt>
      <trkpt lat="45.95768" lon="4.82341">
        <ele>254</ele>
        <time>2017-04-03T09:11:43Z</time>
      </trkpt>
      <trkpt lat="45.95773" lon="4.82346">
        <ele>254</ele>
        <time>2017-04-03T09:11:44Z</time>
      </trkpt>
      <trkpt lat="45.95779" lon="4.8235">
        <ele>253</ele>
        <time>2017-04-03T09:11:45Z</time>
      </trkpt>
      <trkpt lat="45.95785" lon="4.82354">
        <ele>253</ele>
        <time>2017-04-03T09:11:46Z</time>
      </trkpt>
      <trkpt lat="45.95791" lon="4.82357">
        <ele>253</ele>
        <time>2017-04-03T09:11:47Z</time>
      </trkpt>
      <trkpt lat="45.95799" lon="4.8236">
        <ele>252</ele>
        <time>2017-04-03T09:11:48Z</time>
      </trkpt>
      <trkpt lat="45.95809" lon="4.82364">
        <ele>252</ele>
        <time>2017-04-03T09:11:49Z</time>
      </trkpt>
      <trkpt lat="45.95817" lon="4.82366">
        <ele>252</ele>
        <time>2017-04-03T09:11:50Z</time>
      </trkpt>
      <trkpt lat="45.95826" lon="4.82368">
        <ele>251</ele>
        <time>2017-04-03T09:11:51Z</time>
      </trkpt>
      <trkpt lat="45.95834" lon="4.82369">
        <ele>246</ele>
        <time>2017-04-03T09:11:52Z</time>
      </trkpt>
      <trkpt lat="45.95842" lon="4.8237">
        <ele>246</ele>
        <time>2017-04-03T09:11:53Z</time>
      </trkpt>
      <trkpt lat="45.9585" lon="4.8237">
        <ele>246</ele>
        <time>2017-04-03T09:11:54Z</time>
      </trkpt>
      <trkpt lat="45.95858" lon="4.8237">
        <ele>245</ele>
        <time>2017-04-03T09:11:55Z</time>
      </trkpt>
      <trkpt lat="45.95867" lon="4.8237">
        <ele>245</ele>
        <time>2017-04-03T09:11:56Z</time>
      </trkpt>
      <trkpt lat="45.95876" lon="4.82371">
        <ele>244</ele>
        <time>2017-04-03T09:11:57Z</time>
      </trkpt>
      <trkpt lat="45.95885" lon="4.8237">
        <ele>244</ele>
        <time>2017-04-03T09:11:58Z</time>
      </trkpt>
      <trkpt lat="45.95896" lon="4.8237">
        <ele>243</ele>
        <time>2017-04-03T09:11:59Z</time>
      </trkpt>
      <trkpt lat="45.95906" lon="4.82369">
        <ele>242</ele>
        <time>2017-04-03T09:12:00Z</time>
      </trkpt>
      <trkpt lat="45.95916" lon="4.82368">
        <ele>242</ele>
        <time>2017-04-03T09:12:01Z</time>
      </trkpt>
      <trkpt lat="45.95926" lon="4.82367">
        <ele>238</ele>
        <time>2017-04-03T09:12:02Z</time>
      </trkpt>
      <trkpt lat="45.95936" lon="4.82366">
        <ele>238</ele>
        <time>2017-04-03T09:12:03Z</time>
      </trkpt>
      <trkpt lat="45.95946" lon="4.82364">
        <ele>237</ele>
        <time>2017-04-03T09:12:04Z</time>
      </trkpt>
      <trkpt lat="45.95957" lon="4.82363">
        <ele>237</ele>
        <time>2017-04-03T09:12:05Z</time>
      </trkpt>
      <trkpt lat="45.95967" lon="4.82361">
        <ele>237</ele>
        <time>2017-04-03T09:12:06Z</time>
      </trkpt>
      <trkpt lat="45.95977" lon="4.82359">
        <ele>237</ele>
        <time>2017-04-03T09:12:07Z</time>
      </trkpt>
      <trkpt lat="45.95986" lon="4.82358">
        <ele>236</ele>
        <time>2017-04-03T09:12:08Z</time>
      </trkpt>
      <trkpt lat="45.95993" lon="4.82357">
        <ele>236</ele>
        <time>2017-04-03T09:12:09Z</time>
      </trkpt>
      <trkpt lat="45.95999" lon="4.82356">
        <ele>236</ele>
        <time>2017-04-03T09:12:10Z</time>
      </trkpt>
      <trkpt lat="45.96004" lon="4.82355">
        <ele>235</ele>
        <time>2017-04-03T09:12:11Z</time>
      </trkpt>
      <trkpt lat="45.9601" lon="4.82356">
        <ele>235</ele>
        <time>2017-04-03T09:12:12Z</time>
      </trkpt>
      <trkpt lat="45.96015" lon="4.8236">
        <ele>235</ele>
        <time>2017-04-03T09:12:13Z</time>
      </trkpt>
      <trkpt lat="45.96019" lon="4.82365">
        <ele>235</ele>
        <time>2017-04-03T09:12:14Z</time>
      </trkpt>
      <trkpt lat="45.96021" lon="4.82373">
        <ele>235</ele>
        <time>2017-04-03T09:12:15Z</time>
      </trkpt>
      <trkpt lat="45.96022" lon="4.82382">
        <ele>235</ele>
        <time>2017-04-03T09:12:16Z</time>
      </trkpt>
      <trkpt lat="45.96021" lon="4.82391">
        <ele>235</ele>
        <time>2017-04-03T09:12:17Z</time>
      </trkpt>
      <trkpt lat="45.9602" lon="4.82398">
        <ele>235</ele>
        <time>2017-04-03T09:12:18Z</time>
      </trkpt>
      <trkpt lat="45.96019" lon="4.82406">
        <ele>235</ele>
        <time>2017-04-03T09:12:19Z</time>
      </trkpt>
      <trkpt lat="45.96018" lon="4.82413">
        <ele>235</ele>
        <time>2017-04-03T09:12:20Z</time>
      </trkpt>
      <trkpt lat="45.96017" lon="4.8242">
        <ele>235</ele>
        <time>2017-04-03T09:12:21Z</time>
      </trkpt>
      <trkpt lat="45.96016" lon="4.82427">
        <ele>235</ele>
        <time>2017-04-03T09:12:22Z</time>
      </trkpt>
      <trkpt lat="45.96015" lon="4.82434">
        <ele>235</ele>
        <time>2017-04-03T09:12:23Z</time>
      </trkpt>
      <trkpt lat="45.96014" lon="4.82441">
        <ele>235</ele>
        <time>2017-04-03T09:12:24Z</time>
      </trkpt>
      <trkpt lat="45.96013" lon="4.82449">
        <ele>235</ele>
        <time>2017-04-03T09:12:25Z</time>
      </trkpt>
      <trkpt lat="45.96012" lon="4.82456">
        <ele>235</ele>
        <time>2017-04-03T09:12:26Z</time>
      </trkpt>
      <trkpt lat="45.96012" lon="4.82463">
        <ele>235</ele>
        <time>2017-04-03T09:12:27Z</time>
      </trkpt>
      <trkpt lat="45.96011" lon="4.82471">
        <ele>235</ele>
        <time>2017-04-03T09:12:28Z</time>
      </trkpt>
      <trkpt lat="45.96011" lon="4.82479">
        <ele>235</ele>
        <time>2017-04-03T09:12:29Z</time>
      </trkpt>
      <trkpt lat="45.96011" lon="4.82486">
        <ele>235</ele>
        <time>2017-04-03T09:12:30Z</time>
      </trkpt>
      <trkpt lat="45.9601" lon="4.82494">
        <ele>235</ele>
        <time>2017-04-03T09:12:31Z</time>
      </trkpt>
      <trkpt lat="45.96009" lon="4.82502">
        <ele>235</ele>
        <time>2017-04-03T09:12:32Z</time>
      </trkpt>
      <trkpt lat="45.96008" lon="4.82509">
        <ele>235</ele>
        <time>2017-04-03T09:12:33Z</time>
      </trkpt>
      <trkpt lat="45.96008" lon="4.82517">
        <ele>235</ele>
        <time>2017-04-03T09:12:34Z</time>
      </trkpt>
      <trkpt lat="45.96008" lon="4.82524">
        <ele>235</ele>
        <time>2017-04-03T09:12:35Z</time>
      </trkpt>
      <trkpt lat="45.96007" lon="4.82531">
        <ele>235</ele>
        <time>2017-04-03T09:12:36Z</time>
      </trkpt>
      <trkpt lat="45.96007" lon="4.82539">
        <ele>235</ele>
        <time>2017-04-03T09:12:37Z</time>
      </trkpt>
      <trkpt lat="45.96008" lon="4.82546">
        <ele>235</ele>
        <time>2017-04-03T09:12:38Z</time>
      </trkpt>
      <trkpt lat="45.96008" lon="4.82553">
        <ele>235</ele>
        <time>2017-04-03T09:12:39Z</time>
      </trkpt>
      <trkpt lat="45.96009" lon="4.8256">
        <ele>235</ele>
        <time>2017-04-03T09:12:40Z</time>
      </trkpt>
      <trkpt lat="45.9601" lon="4.82567">
        <ele>234</ele>
        <time>2017-04-03T09:12:41Z</time>
      </trkpt>
      <trkpt lat="45.96013" lon="4.82573">
        <ele>234</ele>
        <time>2017-04-03T09:12:42Z</time>
      </trkpt>
      <trkpt lat="45.96015" lon="4.8258">
        <ele>234</ele>
        <time>2017-04-03T09:12:43Z</time>
      </trkpt>
      <trkpt lat="45.96017" lon="4.82587">
        <ele>235</ele>
        <time>2017-04-03T09:12:44Z</time>
      </trkpt>
      <trkpt lat="45.96019" lon="4.82594">
        <ele>235</ele>
        <time>2017-04-03T09:12:45Z</time>
      </trkpt>
      <trkpt lat="45.96022" lon="4.82601">
        <ele>235</ele>
        <time>2017-04-03T09:12:46Z</time>
      </trkpt>
      <trkpt lat="45.96024" lon="4.82608">
        <ele>235</ele>
        <time>2017-04-03T09:12:47Z</time>
      </trkpt>
      <trkpt lat="45.96026" lon="4.82614">
        <ele>235</ele>
        <time>2017-04-03T09:12:48Z</time>
      </trkpt>
      <trkpt lat="45.96028" lon="4.82621">
        <ele>235</ele>
        <time>2017-04-03T09:12:49Z</time>
      </trkpt>
      <trkpt lat="45.9603" lon="4.82628">
        <ele>235</ele>
        <time>2017-04-03T09:12:50Z</time>
      </trkpt>
      <trkpt lat="45.96033" lon="4.82635">
        <ele>235</ele>
        <time>2017-04-03T09:12:51Z</time>
      </trkpt>
      <trkpt lat="45.96036" lon="4.82641">
        <ele>235</ele>
        <time>2017-04-03T09:12:52Z</time>
      </trkpt>
      <trkpt lat="45.96038" lon="4.82647">
        <ele>235</ele>
        <time>2017-04-03T09:12:53Z</time>
      </trkpt>
      <trkpt lat="45.96041" lon="4.82653">
        <ele>235</ele>
        <time>2017-04-03T09:12:54Z</time>
      </trkpt>
      <trkpt lat="45.96044" lon="4.82659">
        <ele>235</ele>
        <time>2017-04-03T09:12:55Z</time>
      </trkpt>
      <trkpt lat="45.96047" lon="4.82665">
        <ele>235</ele>
        <time>2017-04-03T09:12:56Z</time>
      </trkpt>
      <trkpt lat="45.96049" lon="4.82671">
        <ele>236</ele>
        <time>2017-04-03T09:12:57Z</time>
      </trkpt>
      <trkpt lat="45.96051" lon="4.82677">
        <ele>236</ele>
        <time>2017-04-03T09:12:58Z</time>
      </trkpt>
      <trkpt lat="45.96053" lon="4.82683">
        <ele>236</ele>
        <time>2017-04-03T09:12:59Z</time>
      </trkpt>
      <trkpt lat="45.96055" lon="4.8269">
        <ele>236</ele>
        <time>2017-04-03T09:13:00Z</time>
      </trkpt>
      <trkpt lat="45.96058" lon="4.82697">
        <ele>237</ele>
        <time>2017-04-03T09:13:01Z</time>
      </trkpt>
      <trkpt lat="45.96061" lon="4.82703">
        <ele>237</ele>
        <time>2017-04-03T09:13:02Z</time>
      </trkpt>
      <trkpt lat="45.96063" lon="4.8271">
        <ele>237</ele>
        <time>2017-04-03T09:13:03Z</time>
      </trkpt>
      <trkpt lat="45.96065" lon="4.82717">
        <ele>237</ele>
        <time>2017-04-03T09:13:04Z</time>
      </trkpt>
      <trkpt lat="45.96066" lon="4.82723">
        <ele>237</ele>
        <time>2017-04-03T09:13:05Z</time>
      </trkpt>
      <trkpt lat="45.96068" lon="4.8273">
        <ele>237</ele>
        <time>2017-04-03T09:13:06Z</time>
      </trkpt>
      <trkpt lat="45.9607" lon="4.82736">
        <ele>237</ele>
        <time>2017-04-03T09:13:07Z</time>
      </trkpt>
      <trkpt lat="45.96071" lon="4.82743">
        <ele>237</ele>
        <time>2017-04-03T09:13:08Z</time>
      </trkpt>
      <trkpt lat="45.96073" lon="4.82749">
        <ele>237</ele>
        <time>2017-04-03T09:13:09Z</time>
      </trkpt>
      <trkpt lat="45.96075" lon="4.82756">
        <ele>237</ele>
        <time>2017-04-03T09:13:10Z</time>
      </trkpt>
      <trkpt lat="45.96077" lon="4.82762">
        <ele>238</ele>
        <time>2017-04-03T09:13:11Z</time>
      </trkpt>
      <trkpt lat="45.96079" lon="4.82769">
        <ele>238</ele>
        <time>2017-04-03T09:13:12Z</time>
      </trkpt>
      <trkpt lat="45.96079" lon="4.82777">
        <ele>238</ele>
        <time>2017-04-03T09:13:13Z</time>
      </trkpt>
      <trkpt lat="45.96081" lon="4.82784">
        <ele>238</ele>
        <time>2017-04-03T09:13:14Z</time>
      </trkpt>
      <trkpt lat="45.96083" lon="4.82791">
        <ele>238</ele>
        <time>2017-04-03T09:13:15Z</time>
      </trkpt>
      <trkpt lat="45.96084" lon="4.82798">
        <ele>237</ele>
        <time>2017-04-03T09:13:16Z</time>
      </trkpt>
      <trkpt lat="45.96086" lon="4.82804">
        <ele>237</ele>
        <time>2017-04-03T09:13:17Z</time>
      </trkpt>
      <trkpt lat="45.96087" lon="4.82811">
        <ele>237</ele>
        <time>2017-04-03T09:13:18Z</time>
      </trkpt>
      <trkpt lat="45.96089" lon="4.82817">
        <ele>237</ele>
        <time>2017-04-03T09:13:19Z</time>
      </trkpt>
      <trkpt lat="45.96091" lon="4.82824">
        <ele>237</ele>
        <time>2017-04-03T09:13:20Z</time>
      </trkpt>
      <trkpt lat="45.96093" lon="4.82831">
        <ele>237</ele>
        <time>2017-04-03T09:13:21Z</time>
      </trkpt>
      <trkpt lat="45.96094" lon="4.82838">
        <ele>237</ele>
        <time>2017-04-03T09:13:22Z</time>
      </trkpt>
      <trkpt lat="45.96095" lon="4.82845">
        <ele>237</ele>
        <time>2017-04-03T09:13:23Z</time>
      </trkpt>
      <trkpt lat="45.96095" lon="4.82857">
        <ele>237</ele>
        <time>2017-04-03T09:13:25Z</time>
      </trkpt>
      <trkpt lat="45.96095" lon="4.82864">
        <ele>237</ele>
        <time>2017-04-03T09:13:26Z</time>
      </trkpt>
      <trkpt lat="45.96092" lon="4.82876">
        <ele>237</ele>
        <time>2017-04-03T09:13:28Z</time>
      </trkpt>
      <trkpt lat="45.96091" lon="4.82881">
        <ele>237</ele>
        <time>2017-04-03T09:13:29Z</time>
      </trkpt>
      <trkpt lat="45.96088" lon="4.82893">
        <ele>237</ele>
        <time>2017-04-03T09:13:31Z</time>
      </trkpt>
      <trkpt lat="45.96087" lon="4.829">
        <ele>238</ele>
        <time>2017-04-03T09:13:32Z</time>
      </trkpt>
      <trkpt lat="45.96085" lon="4.82906">
        <ele>238</ele>
        <time>2017-04-03T09:13:33Z</time>
      </trkpt>
      <trkpt lat="45.96083" lon="4.82913">
        <ele>238</ele>
        <time>2017-04-03T09:13:34Z</time>
      </trkpt>
      <trkpt lat="45.96081" lon="4.8292">
        <ele>239</ele>
        <time>2017-04-03T09:13:35Z</time>
      </trkpt>
      <trkpt lat="45.96079" lon="4.82926">
        <ele>239</ele>
        <time>2017-04-03T09:13:36Z</time>
      </trkpt>
      <trkpt lat="45.96077" lon="4.82933">
        <ele>240</ele>
        <time>2017-04-03T09:13:37Z</time>
      </trkpt>
      <trkpt lat="45.96076" lon="4.8294">
        <ele>240</ele>
        <time>2017-04-03T09:13:38Z</time>
      </trkpt>
      <trkpt lat="45.96074" lon="4.82947">
        <ele>241</ele>
        <time>2017-04-03T09:13:39Z</time>
      </trkpt>
      <trkpt lat="45.96073" lon="4.82953">
        <ele>241</ele>
        <time>2017-04-03T09:13:40Z</time>
      </trkpt>
      <trkpt lat="45.96071" lon="4.82959">
        <ele>241</ele>
        <time>2017-04-03T09:13:41Z</time>
      </trkpt>
      <trkpt lat="45.9607" lon="4.82966">
        <ele>241</ele>
        <time>2017-04-03T09:13:42Z</time>
      </trkpt>
      <trkpt lat="45.96068" lon="4.82973">
        <ele>241</ele>
        <time>2017-04-03T09:13:43Z</time>
      </trkpt>
      <trkpt lat="45.96066" lon="4.82979">
        <ele>241</ele>
        <time>2017-04-03T09:13:44Z</time>
      </trkpt>
      <trkpt lat="45.96065" lon="4.82986">
        <ele>241</ele>
        <time>2017-04-03T09:13:45Z</time>
      </trkpt>
      <trkpt lat="45.96065" lon="4.82993">
        <ele>241</ele>
        <time>2017-04-03T09:13:46Z</time>
      </trkpt>
      <trkpt lat="45.96065" lon="4.83">
        <ele>242</ele>
        <time>2017-04-03T09:13:47Z</time>
      </trkpt>
      <trkpt lat="45.96065" lon="4.83007">
        <ele>242</ele>
        <time>2017-04-03T09:13:48Z</time>
      </trkpt>
      <trkpt lat="45.96067" lon="4.83014">
        <ele>242</ele>
        <time>2017-04-03T09:13:49Z</time>
      </trkpt>
      <trkpt lat="45.96067" lon="4.83021">
        <ele>242</ele>
        <time>2017-04-03T09:13:50Z</time>
      </trkpt>
      <trkpt lat="45.96069" lon="4.83028">
        <ele>242</ele>
        <time>2017-04-03T09:13:51Z</time>
      </trkpt>
      <trkpt lat="45.9607" lon="4.83035">
        <ele>243</ele>
        <time>2017-04-03T09:13:52Z</time>
      </trkpt>
      <trkpt lat="45.96071" lon="4.83042">
        <ele>243</ele>
        <time>2017-04-03T09:13:53Z</time>
      </trkpt>
      <trkpt lat="45.96073" lon="4.83049">
        <ele>243</ele>
        <time>2017-04-03T09:13:54Z</time>
      </trkpt>
      <trkpt lat="45.96075" lon="4.83055">
        <ele>242</ele>
        <time>2017-04-03T09:13:55Z</time>
      </trkpt>
      <trkpt lat="45.96078" lon="4.83062">
        <ele>242</ele>
        <time>2017-04-03T09:13:56Z</time>
      </trkpt>
      <trkpt lat="45.96079" lon="4.83069">
        <ele>242</ele>
        <time>2017-04-03T09:13:57Z</time>
      </trkpt>
      <trkpt lat="45.9608" lon="4.83076">
        <ele>241</ele>
        <time>2017-04-03T09:13:58Z</time>
      </trkpt>
      <trkpt lat="45.96083" lon="4.83083">
        <ele>240</ele>
        <time>2017-04-03T09:13:59Z</time>
      </trkpt>
      <trkpt lat="45.96084" lon="4.83091">
        <ele>240</ele>
        <time>2017-04-03T09:14:00Z</time>
      </trkpt>
      <trkpt lat="45.96084" lon="4.83098">
        <ele>240</ele>
        <time>2017-04-03T09:14:01Z</time>
      </trkpt>
      <trkpt lat="45.96085" lon="4.83104">
        <ele>240</ele>
        <time>2017-04-03T09:14:02Z</time>
      </trkpt>
      <trkpt lat="45.96085" lon="4.83111">
        <ele>240</ele>
        <time>2017-04-03T09:14:03Z</time>
      </trkpt>
      <trkpt lat="45.96086" lon="4.83118">
        <ele>240</ele>
        <time>2017-04-03T09:14:04Z</time>
      </trkpt>
      <trkpt lat="45.96086" lon="4.83125">
        <ele>240</ele>
        <time>2017-04-03T09:14:05Z</time>
      </trkpt>
      <trkpt lat="45.96086" lon="4.83132">
        <ele>240</ele>
        <time>2017-04-03T09:14:06Z</time>
      </trkpt>
      <trkpt lat="45.96086" lon="4.83139">
        <ele>240</ele>
        <time>2017-04-03T09:14:07Z</time>
      </trkpt>
      <trkpt lat="45.96087" lon="4.83146">
        <ele>240</ele>
        <time>2017-04-03T09:14:08Z</time>
      </trkpt>
      <trkpt lat="45.96088" lon="4.83153">
        <ele>240</ele>
        <time>2017-04-03T09:14:09Z</time>
      </trkpt>
      <trkpt lat="45.96088" lon="4.83159">
        <ele>240</ele>
        <time>2017-04-03T09:14:10Z</time>
      </trkpt>
      <trkpt lat="45.96089" lon="4.83166">
        <ele>240</ele>
        <time>2017-04-03T09:14:11Z</time>
      </trkpt>
      <trkpt lat="45.96089" lon="4.83173">
        <ele>240</ele>
        <time>2017-04-03T09:14:12Z</time>
      </trkpt>
      <trkpt lat="45.96089" lon="4.8318">
        <ele>240</ele>
        <time>2017-04-03T09:14:13Z</time>
      </trkpt>
      <trkpt lat="45.96089" lon="4.83186">
        <ele>240</ele>
        <time>2017-04-03T09:14:14Z</time>
      </trkpt>
      <trkpt lat="45.9609" lon="4.83198">
        <ele>240</ele>
        <time>2017-04-03T09:14:16Z</time>
      </trkpt>
      <trkpt lat="45.9609" lon="4.83204">
        <ele>240</ele>
        <time>2017-04-03T09:14:17Z</time>
      </trkpt>
      <trkpt lat="45.96089" lon="4.83211">
        <ele>240</ele>
        <time>2017-04-03T09:14:18Z</time>
      </trkpt>
      <trkpt lat="45.96089" lon="4.83218">
        <ele>240</ele>
        <time>2017-04-03T09:14:19Z</time>
      </trkpt>
      <trkpt lat="45.96089" lon="4.83224">
        <ele>240</ele>
        <time>2017-04-03T09:14:20Z</time>
      </trkpt>
      <trkpt lat="45.96089" lon="4.83231">
        <ele>240</ele>
        <time>2017-04-03T09:14:21Z</time>
      </trkpt>
      <trkpt lat="45.96089" lon="4.83238">
        <ele>240</ele>
        <time>2017-04-03T09:14:22Z</time>
      </trkpt>
      <trkpt lat="45.96089" lon="4.83245">
        <ele>240</ele>
        <time>2017-04-03T09:14:23Z</time>
      </trkpt>
      <trkpt lat="45.96089" lon="4.83252">
        <ele>240</ele>
        <time>2017-04-03T09:14:24Z</time>
      </trkpt>
      <trkpt lat="45.9609" lon="4.83259">
        <ele>241</ele>
        <time>2017-04-03T09:14:25Z</time>
      </trkpt>
      <trkpt lat="45.9609" lon="4.83267">
        <ele>241</ele>
        <time>2017-04-03T09:14:26Z</time>
      </trkpt>
      <trkpt lat="45.96091" lon="4.83274">
        <ele>241</ele>
        <time>2017-04-03T09:14:27Z</time>
      </trkpt>
      <trkpt lat="45.96091" lon="4.83282">
        <ele>241</ele>
        <time>2017-04-03T09:14:28Z</time>
      </trkpt>
      <trkpt lat="45.96092" lon="4.83289">
        <ele>241</ele>
        <time>2017-04-03T09:14:29Z</time>
      </trkpt>
      <trkpt lat="45.96093" lon="4.83297">
        <ele>241</ele>
        <time>2017-04-03T09:14:30Z</time>
      </trkpt>
      <trkpt lat="45.96094" lon="4.83304">
        <ele>241</ele>
        <time>2017-04-03T09:14:31Z</time>
      </trkpt>
      <trkpt lat="45.96095" lon="4.83311">
        <ele>241</ele>
        <time>2017-04-03T09:14:32Z</time>
      </trkpt>
      <trkpt lat="45.96097" lon="4.83318">
        <ele>241</ele>
        <time>2017-04-03T09:14:33Z</time>
      </trkpt>
      <trkpt lat="45.96099" lon="4.83325">
        <ele>241</ele>
        <time>2017-04-03T09:14:34Z</time>
      </trkpt>
      <trkpt lat="45.96099" lon="4.83332">
        <ele>241</ele>
        <time>2017-04-03T09:14:35Z</time>
      </trkpt>
      <trkpt lat="45.96101" lon="4.83344">
        <ele>242</ele>
        <time>2017-04-03T09:14:37Z</time>
      </trkpt>
      <trkpt lat="45.96102" lon="4.8335">
        <ele>242</ele>
        <time>2017-04-03T09:14:38Z</time>
      </trkpt>
      <trkpt lat="45.96104" lon="4.83362">
        <ele>242</ele>
        <time>2017-04-03T09:14:40Z</time>
      </trkpt>
      <trkpt lat="45.96106" lon="4.83368">
        <ele>242</ele>
        <time>2017-04-03T09:14:41Z</time>
      </trkpt>
      <trkpt lat="45.96108" lon="4.8338">
        <ele>242</ele>
        <time>2017-04-03T09:14:43Z</time>
      </trkpt>
      <trkpt lat="45.9611" lon="4.83386">
        <ele>243</ele>
        <time>2017-04-03T09:14:44Z</time>
      </trkpt>
      <trkpt lat="45.96111" lon="4.83393">
        <ele>243</ele>
        <time>2017-04-03T09:14:45Z</time>
      </trkpt>
      <trkpt lat="45.96112" lon="4.83401">
        <ele>243</ele>
        <time>2017-04-03T09:14:46Z</time>
      </trkpt>
      <trkpt lat="45.96113" lon="4.83409">
        <ele>243</ele>
        <time>2017-04-03T09:14:47Z</time>
      </trkpt>
      <trkpt lat="45.96115" lon="4.83415">
        <ele>243</ele>
        <time>2017-04-03T09:14:48Z</time>
      </trkpt>
      <trkpt lat="45.96117" lon="4.83422">
        <ele>243</ele>
        <time>2017-04-03T09:14:49Z</time>
      </trkpt>
      <trkpt lat="45.9612" lon="4.83429">
        <ele>243</ele>
        <time>2017-04-03T09:14:50Z</time>
      </trkpt>
      <trkpt lat="45.96121" lon="4.83436">
        <ele>242</ele>
        <time>2017-04-03T09:14:51Z</time>
      </trkpt>
      <trkpt lat="45.96123" lon="4.83442">
        <ele>242</ele>
        <time>2017-04-03T09:14:52Z</time>
      </trkpt>
      <trkpt lat="45.96125" lon="4.83454">
        <ele>242</ele>
        <time>2017-04-03T09:14:54Z</time>
      </trkpt>
      <trkpt lat="45.96126" lon="4.83459">
        <ele>242</ele>
        <time>2017-04-03T09:14:55Z</time>
      </trkpt>
      <trkpt lat="45.96128" lon="4.83471">
        <ele>242</ele>
        <time>2017-04-03T09:14:57Z</time>
      </trkpt>
      <trkpt lat="45.9613" lon="4.83477">
        <ele>242</ele>
        <time>2017-04-03T09:14:58Z</time>
      </trkpt>
      <trkpt lat="45.96132" lon="4.83488">
        <ele>242</ele>
        <time>2017-04-03T09:15:00Z</time>
      </trkpt>
      <trkpt lat="45.96133" lon="4.83494">
        <ele>242</ele>
        <time>2017-04-03T09:15:01Z</time>
      </trkpt>
      <trkpt lat="45.96134" lon="4.83505">
        <ele>242</ele>
        <time>2017-04-03T09:15:03Z</time>
      </trkpt>
      <trkpt lat="45.96135" lon="4.8351">
        <ele>242</ele>
        <time>2017-04-03T09:15:04Z</time>
      </trkpt>
      <trkpt lat="45.96139" lon="4.83521">
        <ele>242</ele>
        <time>2017-04-03T09:15:06Z</time>
      </trkpt>
      <trkpt lat="45.9614" lon="4.83526">
        <ele>242</ele>
        <time>2017-04-03T09:15:07Z</time>
      </trkpt>
      <trkpt lat="45.96143" lon="4.83538">
        <ele>242</ele>
        <time>2017-04-03T09:15:09Z</time>
      </trkpt>
      <trkpt lat="45.96144" lon="4.83544">
        <ele>242</ele>
        <time>2017-04-03T09:15:10Z</time>
      </trkpt>
      <trkpt lat="45.96146" lon="4.83551">
        <ele>242</ele>
        <time>2017-04-03T09:15:11Z</time>
      </trkpt>
      <trkpt lat="45.96147" lon="4.83557">
        <ele>241</ele>
        <time>2017-04-03T09:15:12Z</time>
      </trkpt>
      <trkpt lat="45.96149" lon="4.83569">
        <ele>241</ele>
        <time>2017-04-03T09:15:14Z</time>
      </trkpt>
      <trkpt lat="45.9615" lon="4.83575">
        <ele>241</ele>
        <time>2017-04-03T09:15:15Z</time>
      </trkpt>
      <trkpt lat="45.9615" lon="4.8358">
        <ele>241</ele>
        <time>2017-04-03T09:15:16Z</time>
      </trkpt>
      <trkpt lat="45.96153" lon="4.83587">
        <ele>241</ele>
        <time>2017-04-03T09:15:17Z</time>
      </trkpt>
      <trkpt lat="45.96154" lon="4.836">
        <ele>242</ele>
        <time>2017-04-03T09:15:19Z</time>
      </trkpt>
      <trkpt lat="45.96155" lon="4.83606">
        <ele>242</ele>
        <time>2017-04-03T09:15:20Z</time>
      </trkpt>
      <trkpt lat="45.96156" lon="4.83613">
        <ele>242</ele>
        <time>2017-04-03T09:15:21Z</time>
      </trkpt>
      <trkpt lat="45.96158" lon="4.83619">
        <ele>242</ele>
        <time>2017-04-03T09:15:22Z</time>
      </trkpt>
      <trkpt lat="45.96159" lon="4.83626">
        <ele>242</ele>
        <time>2017-04-03T09:15:23Z</time>
      </trkpt>
      <trkpt lat="45.96161" lon="4.83632">
        <ele>243</ele>
        <time>2017-04-03T09:15:24Z</time>
      </trkpt>
      <trkpt lat="45.96164" lon="4.83638">
        <ele>243</ele>
        <time>2017-04-03T09:15:25Z</time>
      </trkpt>
      <trkpt lat="45.96166" lon="4.83643">
        <ele>243</ele>
        <time>2017-04-03T09:15:26Z</time>
      </trkpt>
      <trkpt lat="45.9617" lon="4.83648">
        <ele>242</ele>
        <time>2017-04-03T09:15:27Z</time>
      </trkpt>
      <trkpt lat="45.96173" lon="4.83653">
        <ele>242</ele>
        <time>2017-04-03T09:15:28Z</time>
      </trkpt>
      <trkpt lat="45.96179" lon="4.83661">
        <ele>242</ele>
        <time>2017-04-03T09:15:30Z</time>
      </trkpt>
      <trkpt lat="45.96182" lon="4.83666">
        <ele>242</ele>
        <time>2017-04-03T09:15:31Z</time>
      </trkpt>
      <trkpt lat="45.96189" lon="4.83674">
        <ele>243</ele>
        <time>2017-04-03T09:15:33Z</time>
      </trkpt>
      <trkpt lat="45.96193" lon="4.83678">
        <ele>243</ele>
        <time>2017-04-03T09:15:34Z</time>
      </trkpt>
      <trkpt lat="45.96196" lon="4.83682">
        <ele>243</ele>
        <time>2017-04-03T09:15:35Z</time>
      </trkpt>
      <trkpt lat="45.962" lon="4.83686">
        <ele>243</ele>
        <time>2017-04-03T09:15:36Z</time>
      </trkpt>
      <trkpt lat="45.96204" lon="4.8369">
        <ele>243</ele>
        <time>2017-04-03T09:15:37Z</time>
      </trkpt>
      <trkpt lat="45.96207" lon="4.83694">
        <ele>243</ele>
        <time>2017-04-03T09:15:38Z</time>
      </trkpt>
      <trkpt lat="45.96211" lon="4.83698">
        <ele>243</ele>
        <time>2017-04-03T09:15:39Z</time>
      </trkpt>
      <trkpt lat="45.96214" lon="4.83702">
        <ele>244</ele>
        <time>2017-04-03T09:15:40Z</time>
      </trkpt>
      <trkpt lat="45.96218" lon="4.83707">
        <ele>244</ele>
        <time>2017-04-03T09:15:41Z</time>
      </trkpt>
      <trkpt lat="45.96222" lon="4.8371">
        <ele>244</ele>
        <time>2017-04-03T09:15:42Z</time>
      </trkpt>
      <trkpt lat="45.96225" lon="4.83714">
        <ele>244</ele>
        <time>2017-04-03T09:15:43Z</time>
      </trkpt>
      <trkpt lat="45.96229" lon="4.83718">
        <ele>244</ele>
        <time>2017-04-03T09:15:44Z</time>
      </trkpt>
      <trkpt lat="45.96236" lon="4.83726">
        <ele>244</ele>
        <time>2017-04-03T09:15:46Z</time>
      </trkpt>
      <trkpt lat="45.96239" lon="4.8373">
        <ele>244</ele>
        <time>2017-04-03T09:15:47Z</time>
      </trkpt>
      <trkpt lat="45.96243" lon="4.83733">
        <ele>244</ele>
        <time>2017-04-03T09:15:48Z</time>
      </trkpt>
      <trkpt lat="45.96247" lon="4.83737">
        <ele>244</ele>
        <time>2017-04-03T09:15:49Z</time>
      </trkpt>
      <trkpt lat="45.96254" lon="4.83745">
        <ele>245</ele>
        <time>2017-04-03T09:15:51Z</time>
      </trkpt>
      <trkpt lat="45.96258" lon="4.83748">
        <ele>245</ele>
        <time>2017-04-03T09:15:52Z</time>
      </trkpt>
      <trkpt lat="45.96262" lon="4.83752">
        <ele>244</ele>
        <time>2017-04-03T09:15:53Z</time>
      </trkpt>
      <trkpt lat="45.96265" lon="4.83756">
        <ele>245</ele>
        <time>2017-04-03T09:15:54Z</time>
      </trkpt>
      <trkpt lat="45.96269" lon="4.83759">
        <ele>245</ele>
        <time>2017-04-03T09:15:55Z</time>
      </trkpt>
      <trkpt lat="45.96274" lon="4.83763">
        <ele>245</ele>
        <time>2017-04-03T09:15:56Z</time>
      </trkpt>
      <trkpt lat="45.96278" lon="4.83767">
        <ele>245</ele>
        <time>2017-04-03T09:15:57Z</time>
      </trkpt>
      <trkpt lat="45.96282" lon="4.83771">
        <ele>245</ele>
        <time>2017-04-03T09:15:58Z</time>
      </trkpt>
      <trkpt lat="45.96289" lon="4.83778">
        <ele>245</ele>
        <time>2017-04-03T09:16:00Z</time>
      </trkpt>
      <trkpt lat="45.96292" lon="4.83781">
        <ele>245</ele>
        <time>2017-04-03T09:16:01Z</time>
      </trkpt>
      <trkpt lat="45.96299" lon="4.83787">
        <ele>245</ele>
        <time>2017-04-03T09:16:03Z</time>
      </trkpt>
      <trkpt lat="45.96302" lon="4.83791">
        <ele>245</ele>
        <time>2017-04-03T09:16:04Z</time>
      </trkpt>
      <trkpt lat="45.9631" lon="4.83797">
        <ele>245</ele>
        <time>2017-04-03T09:16:06Z</time>
      </trkpt>
      <trkpt lat="45.96313" lon="4.838">
        <ele>245</ele>
        <time>2017-04-03T09:16:07Z</time>
      </trkpt>
      <trkpt lat="45.9632" lon="4.83807">
        <ele>245</ele>
        <time>2017-04-03T09:16:09Z</time>
      </trkpt>
      <trkpt lat="45.96323" lon="4.8381">
        <ele>244</ele>
        <time>2017-04-03T09:16:10Z</time>
      </trkpt>
      <trkpt lat="45.9633" lon="4.83817">
        <ele>244</ele>
        <time>2017-04-03T09:16:12Z</time>
      </trkpt>
      <trkpt lat="45.96334" lon="4.8382">
        <ele>245</ele>
        <time>2017-04-03T09:16:13Z</time>
      </trkpt>
      <trkpt lat="45.96341" lon="4.83826">
        <ele>245</ele>
        <time>2017-04-03T09:16:15Z</time>
      </trkpt>
      <trkpt lat="45.96344" lon="4.83829">
        <ele>245</ele>
        <time>2017-04-03T09:16:16Z</time>
      </trkpt>
      <trkpt lat="45.9635" lon="4.83836">
        <ele>245</ele>
        <time>2017-04-03T09:16:18Z</time>
      </trkpt>
      <trkpt lat="45.96353" lon="4.8384">
        <ele>246</ele>
        <time>2017-04-03T09:16:19Z</time>
      </trkpt>
      <trkpt lat="45.96359" lon="4.83847">
        <ele>246</ele>
        <time>2017-04-03T09:16:21Z</time>
      </trkpt>
      <trkpt lat="45.96362" lon="4.83851">
        <ele>246</ele>
        <time>2017-04-03T09:16:22Z</time>
      </trkpt>
      <trkpt lat="45.96366" lon="4.83859">
        <ele>247</ele>
        <time>2017-04-03T09:16:24Z</time>
      </trkpt>
      <trkpt lat="45.96369" lon="4.83863">
        <ele>247</ele>
        <time>2017-04-03T09:16:25Z</time>
      </trkpt>
      <trkpt lat="45.96374" lon="4.83873">
        <ele>247</ele>
        <time>2017-04-03T09:16:27Z</time>
      </trkpt>
      <trkpt lat="45.96377" lon="4.83878">
        <ele>247</ele>
        <time>2017-04-03T09:16:28Z</time>
      </trkpt>
      <trkpt lat="45.96382" lon="4.83888">
        <ele>247</ele>
        <time>2017-04-03T09:16:30Z</time>
      </trkpt>
      <trkpt lat="45.96384" lon="4.83892">
        <ele>248</ele>
        <time>2017-04-03T09:16:31Z</time>
      </trkpt>
      <trkpt lat="45.96388" lon="4.83902">
        <ele>248</ele>
        <time>2017-04-03T09:16:33Z</time>
      </trkpt>
      <trkpt lat="45.9639" lon="4.83907">
        <ele>248</ele>
        <time>2017-04-03T09:16:34Z</time>
      </trkpt>
      <trkpt lat="45.96394" lon="4.83916">
        <ele>248</ele>
        <time>2017-04-03T09:16:36Z</time>
      </trkpt>
      <trkpt lat="45.96395" lon="4.8392">
        <ele>250</ele>
        <time>2017-04-03T09:16:37Z</time>
      </trkpt>
      <trkpt lat="45.96399" lon="4.83929">
        <ele>251</ele>
        <time>2017-04-03T09:16:39Z</time>
      </trkpt>
      <trkpt lat="45.964" lon="4.83933">
        <ele>251</ele>
        <time>2017-04-03T09:16:40Z</time>
      </trkpt>
      <trkpt lat="45.96402" lon="4.83941">
        <ele>251</ele>
        <time>2017-04-03T09:16:42Z</time>
      </trkpt>
      <trkpt lat="45.96404" lon="4.83945">
        <ele>251</ele>
        <time>2017-04-03T09:16:43Z</time>
      </trkpt>
      <trkpt lat="45.96407" lon="4.83954">
        <ele>252</ele>
        <time>2017-04-03T09:16:45Z</time>
      </trkpt>
      <trkpt lat="45.96408" lon="4.83958">
        <ele>252</ele>
        <time>2017-04-03T09:16:46Z</time>
      </trkpt>
      <trkpt lat="45.96411" lon="4.83966">
        <ele>252</ele>
        <time>2017-04-03T09:16:48Z</time>
      </trkpt>
      <trkpt lat="45.96413" lon="4.83971">
        <ele>253</ele>
        <time>2017-04-03T09:16:49Z</time>
      </trkpt>
      <trkpt lat="45.96417" lon="4.83981">
        <ele>253</ele>
        <time>2017-04-03T09:16:51Z</time>
      </trkpt>
      <trkpt lat="45.96419" lon="4.83985">
        <ele>251</ele>
        <time>2017-04-03T09:16:52Z</time>
      </trkpt>
      <trkpt lat="45.96423" lon="4.83994">
        <ele>252</ele>
        <time>2017-04-03T09:16:54Z</time>
      </trkpt>
      <trkpt lat="45.96426" lon="4.83998">
        <ele>252</ele>
        <time>2017-04-03T09:16:55Z</time>
      </trkpt>
      <trkpt lat="45.96429" lon="4.84006">
        <ele>252</ele>
        <time>2017-04-03T09:16:57Z</time>
      </trkpt>
      <trkpt lat="45.96431" lon="4.84011">
        <ele>252</ele>
        <time>2017-04-03T09:16:58Z</time>
      </trkpt>
      <trkpt lat="45.96433" lon="4.8402">
        <ele>251</ele>
        <time>2017-04-03T09:17:00Z</time>
      </trkpt>
      <trkpt lat="45.96435" lon="4.84024">
        <ele>251</ele>
        <time>2017-04-03T09:17:01Z</time>
      </trkpt>
      <trkpt lat="45.96437" lon="4.84032">
        <ele>251</ele>
        <time>2017-04-03T09:17:03Z</time>
      </trkpt>
      <trkpt lat="45.96439" lon="4.84036">
        <ele>251</ele>
        <time>2017-04-03T09:17:04Z</time>
      </trkpt>
      <trkpt lat="45.96442" lon="4.84044">
        <ele>251</ele>
        <time>2017-04-03T09:17:06Z</time>
      </trkpt>
      <trkpt lat="45.96444" lon="4.84048">
        <ele>251</ele>
        <time>2017-04-03T09:17:07Z</time>
      </trkpt>
      <trkpt lat="45.96447" lon="4.84057">
        <ele>251</ele>
        <time>2017-04-03T09:17:09Z</time>
      </trkpt>
      <trkpt lat="45.96449" lon="4.84061">
        <ele>251</ele>
        <time>2017-04-03T09:17:10Z</time>
      </trkpt>
      <trkpt lat="45.96452" lon="4.84069">
        <ele>251</ele>
        <time>2017-04-03T09:17:12Z</time>
      </trkpt>
      <trkpt lat="45.96454" lon="4.84074">
        <ele>251</ele>
        <time>2017-04-03T09:17:13Z</time>
      </trkpt>
      <trkpt lat="45.96457" lon="4.84082">
        <ele>251</ele>
        <time>2017-04-03T09:17:15Z</time>
      </trkpt>
      <trkpt lat="45.96458" lon="4.84086">
        <ele>252</ele>
        <time>2017-04-03T09:17:16Z</time>
      </trkpt>
      <trkpt lat="45.96461" lon="4.84095">
        <ele>252</ele>
        <time>2017-04-03T09:17:18Z</time>
      </trkpt>
      <trkpt lat="45.96462" lon="4.84099">
        <ele>251</ele>
        <time>2017-04-03T09:17:19Z</time>
      </trkpt>
      <trkpt lat="45.96466" lon="4.84107">
        <ele>251</ele>
        <time>2017-04-03T09:17:21Z</time>
      </trkpt>
      <trkpt lat="45.96468" lon="4.84111">
        <ele>251</ele>
        <time>2017-04-03T09:17:22Z</time>
      </trkpt>
      <trkpt lat="45.9647" lon="4.84119">
        <ele>251</ele>
        <time>2017-04-03T09:17:24Z</time>
      </trkpt>
      <trkpt lat="45.96472" lon="4.84123">
        <ele>251</ele>
        <time>2017-04-03T09:17:25Z</time>
      </trkpt>
      <trkpt lat="45.96475" lon="4.84132">
        <ele>251</ele>
        <time>2017-04-03T09:17:27Z</time>
      </trkpt>
      <trkpt lat="45.96475" lon="4.84137">
        <ele>251</ele>
        <time>2017-04-03T09:17:28Z</time>
      </trkpt>
      <trkpt lat="45.96477" lon="4.84146">
        <ele>251</ele>
        <time>2017-04-03T09:17:30Z</time>
      </trkpt>
      <trkpt lat="45.96478" lon="4.84151">
        <ele>251</ele>
        <time>2017-04-03T09:17:31Z</time>
      </trkpt>
      <trkpt lat="45.9648" lon="4.84161">
        <ele>251</ele>
        <time>2017-04-03T09:17:33Z</time>
      </trkpt>
      <trkpt lat="45.9648" lon="4.84165">
        <ele>251</ele>
        <time>2017-04-03T09:17:34Z</time>
      </trkpt>
      <trkpt lat="45.96482" lon="4.84175">
        <ele>251</ele>
        <time>2017-04-03T09:17:36Z</time>
      </trkpt>
      <trkpt lat="45.96483" lon="4.8418">
        <ele>251</ele>
        <time>2017-04-03T09:17:37Z</time>
      </trkpt>
      <trkpt lat="45.96486" lon="4.8419">
        <ele>251</ele>
        <time>2017-04-03T09:17:39Z</time>
      </trkpt>
      <trkpt lat="45.96487" lon="4.84195">
        <ele>251</ele>
        <time>2017-04-03T09:17:40Z</time>
      </trkpt>
      <trkpt lat="45.96489" lon="4.84206">
        <ele>251</ele>
        <time>2017-04-03T09:17:42Z</time>
      </trkpt>
      <trkpt lat="45.96491" lon="4.84212">
        <ele>252</ele>
        <time>2017-04-03T09:17:43Z</time>
      </trkpt>
      <trkpt lat="45.96494" lon="4.84224">
        <ele>252</ele>
        <time>2017-04-03T09:17:45Z</time>
      </trkpt>
      <trkpt lat="45.96495" lon="4.8423">
        <ele>252</ele>
        <time>2017-04-03T09:17:46Z</time>
      </trkpt>
      <trkpt lat="45.96497" lon="4.84236">
        <ele>251</ele>
        <time>2017-04-03T09:17:47Z</time>
      </trkpt>
      <trkpt lat="45.96498" lon="4.84242">
        <ele>251</ele>
        <time>2017-04-03T09:17:48Z</time>
      </trkpt>
      <trkpt lat="45.96499" lon="4.84249">
        <ele>251</ele>
        <time>2017-04-03T09:17:49Z</time>
      </trkpt>
      <trkpt lat="45.965" lon="4.84256">
        <ele>251</ele>
        <time>2017-04-03T09:17:50Z</time>
      </trkpt>
      <trkpt lat="45.96501" lon="4.84262">
        <ele>251</ele>
        <time>2017-04-03T09:17:51Z</time>
      </trkpt>
      <trkpt lat="45.96503" lon="4.84269">
        <ele>250</ele>
        <time>2017-04-03T09:17:52Z</time>
      </trkpt>
      <trkpt lat="45.96505" lon="4.84276">
        <ele>250</ele>
        <time>2017-04-03T09:17:53Z</time>
      </trkpt>
      <trkpt lat="45.96507" lon="4.84283">
        <ele>250</ele>
        <time>2017-04-03T09:17:54Z</time>
      </trkpt>
      <trkpt lat="45.96509" lon="4.84289">
        <ele>250</ele>
        <time>2017-04-03T09:17:55Z</time>
      </trkpt>
      <trkpt lat="45.96511" lon="4.84295">
        <ele>250</ele>
        <time>2017-04-03T09:17:56Z</time>
      </trkpt>
      <trkpt lat="45.96512" lon="4.84302">
        <ele>250</ele>
        <time>2017-04-03T09:17:57Z</time>
      </trkpt>
      <trkpt lat="45.96512" lon="4.84309">
        <ele>250</ele>
        <time>2017-04-03T09:17:58Z</time>
      </trkpt>
      <trkpt lat="45.96513" lon="4.84316">
        <ele>250</ele>
        <time>2017-04-03T09:17:59Z</time>
      </trkpt>
      <trkpt lat="45.96515" lon="4.84323">
        <ele>251</ele>
        <time>2017-04-03T09:18:00Z</time>
      </trkpt>
      <trkpt lat="45.96517" lon="4.84331">
        <ele>251</ele>
        <time>2017-04-03T09:18:01Z</time>
      </trkpt>
      <trkpt lat="45.96519" lon="4.84339">
        <ele>251</ele>
        <time>2017-04-03T09:18:02Z</time>
      </trkpt>
      <trkpt lat="45.96521" lon="4.84347">
        <ele>251</ele>
        <time>2017-04-03T09:18:03Z</time>
      </trkpt>
      <trkpt lat="45.96523" lon="4.84355">
        <ele>251</ele>
        <time>2017-04-03T09:18:04Z</time>
      </trkpt>
      <trkpt lat="45.96525" lon="4.84363">
        <ele>251</ele>
        <time>2017-04-03T09:18:05Z</time>
      </trkpt>
      <trkpt lat="45.96526" lon="4.84372">
        <ele>251</ele>
        <time>2017-04-03T09:18:06Z</time>
      </trkpt>
      <trkpt lat="45.96527" lon="4.8438">
        <ele>251</ele>
        <time>2017-04-03T09:18:07Z</time>
      </trkpt>
      <trkpt lat="45.96527" lon="4.84388">
        <ele>251</ele>
        <time>2017-04-03T09:18:08Z</time>
      </trkpt>
      <trkpt lat="45.96527" lon="4.84396">
        <ele>252</ele>
        <time>2017-04-03T09:18:09Z</time>
      </trkpt>
      <trkpt lat="45.96526" lon="4.84404">
        <ele>252</ele>
        <time>2017-04-03T09:18:10Z</time>
      </trkpt>
      <trkpt lat="45.96526" lon="4.84411">
        <ele>252</ele>
        <time>2017-04-03T09:18:11Z</time>
      </trkpt>
      <trkpt lat="45.96525" lon="4.84418">
        <ele>252</ele>
        <time>2017-04-03T09:18:12Z</time>
      </trkpt>
      <trkpt lat="45.96525" lon="4.84425">
        <ele>252</ele>
        <time>2017-04-03T09:18:13Z</time>
      </trkpt>
      <trkpt lat="45.96525" lon="4.84432">
        <ele>253</ele>
        <time>2017-04-03T09:18:14Z</time>
      </trkpt>
      <trkpt lat="45.96525" lon="4.84438">
        <ele>253</ele>
        <time>2017-04-03T09:18:15Z</time>
      </trkpt>
      <trkpt lat="45.96524" lon="4.84445">
        <ele>253</ele>
        <time>2017-04-03T09:18:16Z</time>
      </trkpt>
      <trkpt lat="45.96523" lon="4.84452">
        <ele>253</ele>
        <time>2017-04-03T09:18:17Z</time>
      </trkpt>
      <trkpt lat="45.96523" lon="4.84458">
        <ele>253</ele>
        <time>2017-04-03T09:18:18Z</time>
      </trkpt>
      <trkpt lat="45.96522" lon="4.84471">
        <ele>253</ele>
        <time>2017-04-03T09:18:20Z</time>
      </trkpt>
      <trkpt lat="45.96522" lon="4.84477">
        <ele>253</ele>
        <time>2017-04-03T09:18:21Z</time>
      </trkpt>
      <trkpt lat="45.96521" lon="4.84484">
        <ele>253</ele>
        <time>2017-04-03T09:18:22Z</time>
      </trkpt>
      <trkpt lat="45.96521" lon="4.84491">
        <ele>253</ele>
        <time>2017-04-03T09:18:23Z</time>
      </trkpt>
      <trkpt lat="45.96521" lon="4.84497">
        <ele>253</ele>
        <time>2017-04-03T09:18:24Z</time>
      </trkpt>
      <trkpt lat="45.96521" lon="4.84505">
        <ele>253</ele>
        <time>2017-04-03T09:18:25Z</time>
      </trkpt>
      <trkpt lat="45.96521" lon="4.84513">
        <ele>253</ele>
        <time>2017-04-03T09:18:26Z</time>
      </trkpt>
      <trkpt lat="45.96521" lon="4.84521">
        <ele>253</ele>
        <time>2017-04-03T09:18:27Z</time>
      </trkpt>
      <trkpt lat="45.96521" lon="4.84528">
        <ele>253</ele>
        <time>2017-04-03T09:18:28Z</time>
      </trkpt>
      <trkpt lat="45.96521" lon="4.84536">
        <ele>253</ele>
        <time>2017-04-03T09:18:29Z</time>
      </trkpt>
      <trkpt lat="45.96521" lon="4.84544">
        <ele>253</ele>
        <time>2017-04-03T09:18:30Z</time>
      </trkpt>
      <trkpt lat="45.9652" lon="4.84551">
        <ele>253</ele>
        <time>2017-04-03T09:18:31Z</time>
      </trkpt>
      <trkpt lat="45.9652" lon="4.84558">
        <ele>253</ele>
        <time>2017-04-03T09:18:32Z</time>
      </trkpt>
      <trkpt lat="45.9652" lon="4.84564">
        <ele>253</ele>
        <time>2017-04-03T09:18:33Z</time>
      </trkpt>
      <trkpt lat="45.96519" lon="4.84577">
        <ele>252</ele>
        <time>2017-04-03T09:18:35Z</time>
      </trkpt>
      <trkpt lat="45.96519" lon="4.84583">
        <ele>252</ele>
        <time>2017-04-03T09:18:36Z</time>
      </trkpt>
      <trkpt lat="45.96518" lon="4.8459">
        <ele>252</ele>
        <time>2017-04-03T09:18:37Z</time>
      </trkpt>
      <trkpt lat="45.96518" lon="4.84596">
        <ele>252</ele>
        <time>2017-04-03T09:18:38Z</time>
      </trkpt>
      <trkpt lat="45.96518" lon="4.84603">
        <ele>252</ele>
        <time>2017-04-03T09:18:39Z</time>
      </trkpt>
      <trkpt lat="45.96517" lon="4.8461">
        <ele>252</ele>
        <time>2017-04-03T09:18:40Z</time>
      </trkpt>
      <trkpt lat="45.96517" lon="4.84616">
        <ele>252</ele>
        <time>2017-04-03T09:18:41Z</time>
      </trkpt>
      <trkpt lat="45.96517" lon="4.84623">
        <ele>252</ele>
        <time>2017-04-03T09:18:42Z</time>
      </trkpt>
      <trkpt lat="45.96516" lon="4.84635">
        <ele>252</ele>
        <time>2017-04-03T09:18:44Z</time>
      </trkpt>
      <trkpt lat="45.96516" lon="4.84641">
        <ele>252</ele>
        <time>2017-04-03T09:18:45Z</time>
      </trkpt>
      <trkpt lat="45.96517" lon="4.84648">
        <ele>252</ele>
        <time>2017-04-03T09:18:46Z</time>
      </trkpt>
      <trkpt lat="45.96517" lon="4.84654">
        <ele>252</ele>
        <time>2017-04-03T09:18:47Z</time>
      </trkpt>
      <trkpt lat="45.9652" lon="4.84666">
        <ele>252</ele>
        <time>2017-04-03T09:18:49Z</time>
      </trkpt>
      <trkpt lat="45.96521" lon="4.84671">
        <ele>252</ele>
        <time>2017-04-03T09:18:50Z</time>
      </trkpt>
      <trkpt lat="45.96524" lon="4.84683">
        <ele>252</ele>
        <time>2017-04-03T09:18:52Z</time>
      </trkpt>
      <trkpt lat="45.96526" lon="4.84689">
        <ele>253</ele>
        <time>2017-04-03T09:18:53Z</time>
      </trkpt>
      <trkpt lat="45.96528" lon="4.84697">
        <ele>253</ele>
        <time>2017-04-03T09:18:54Z</time>
      </trkpt>
      <trkpt lat="45.96528" lon="4.84705">
        <ele>253</ele>
        <time>2017-04-03T09:18:55Z</time>
      </trkpt>
      <trkpt lat="45.96528" lon="4.84712">
        <ele>253</ele>
        <time>2017-04-03T09:18:56Z</time>
      </trkpt>
      <trkpt lat="45.96527" lon="4.84718">
        <ele>253</ele>
        <time>2017-04-03T09:18:57Z</time>
      </trkpt>
      <trkpt lat="45.96526" lon="4.84731">
        <ele>253</ele>
        <time>2017-04-03T09:18:59Z</time>
      </trkpt>
      <trkpt lat="45.96524" lon="4.84736">
        <ele>252</ele>
        <time>2017-04-03T09:19:00Z</time>
      </trkpt>
      <trkpt lat="45.96522" lon="4.84742">
        <ele>252</ele>
        <time>2017-04-03T09:19:01Z</time>
      </trkpt>
      <trkpt lat="45.96521" lon="4.84748">
        <ele>252</ele>
        <time>2017-04-03T09:19:02Z</time>
      </trkpt>
      <trkpt lat="45.96519" lon="4.8476">
        <ele>253</ele>
        <time>2017-04-03T09:19:04Z</time>
      </trkpt>
      <trkpt lat="45.96517" lon="4.84766">
        <ele>253</ele>
        <time>2017-04-03T09:19:05Z</time>
      </trkpt>
      <trkpt lat="45.96515" lon="4.84777">
        <ele>253</ele>
        <time>2017-04-03T09:19:07Z</time>
      </trkpt>
      <trkpt lat="45.96513" lon="4.84783">
        <ele>254</ele>
        <time>2017-04-03T09:19:08Z</time>
      </trkpt>
      <trkpt lat="45.9651" lon="4.84794">
        <ele>254</ele>
        <time>2017-04-03T09:19:10Z</time>
      </trkpt>
      <trkpt lat="45.96508" lon="4.84799">
        <ele>254</ele>
        <time>2017-04-03T09:19:11Z</time>
      </trkpt>
      <trkpt lat="45.96505" lon="4.84809">
        <ele>254</ele>
        <time>2017-04-03T09:19:13Z</time>
      </trkpt>
      <trkpt lat="45.96504" lon="4.84814">
        <ele>254</ele>
        <time>2017-04-03T09:19:14Z</time>
      </trkpt>
      <trkpt lat="45.96502" lon="4.84824">
        <ele>253</ele>
        <time>2017-04-03T09:19:16Z</time>
      </trkpt>
      <trkpt lat="45.96501" lon="4.84829">
        <ele>253</ele>
        <time>2017-04-03T09:19:17Z</time>
      </trkpt>
      <trkpt lat="45.96498" lon="4.84839">
        <ele>253</ele>
        <time>2017-04-03T09:19:19Z</time>
      </trkpt>
      <trkpt lat="45.96497" lon="4.84844">
        <ele>254</ele>
        <time>2017-04-03T09:19:20Z</time>
      </trkpt>
      <trkpt lat="45.96495" lon="4.84853">
        <ele>254</ele>
        <time>2017-04-03T09:19:22Z</time>
      </trkpt>
      <trkpt lat="45.96495" lon="4.84858">
        <ele>254</ele>
        <time>2017-04-03T09:19:23Z</time>
      </trkpt>
      <trkpt lat="45.96491" lon="4.84868">
        <ele>255</ele>
        <time>2017-04-03T09:19:25Z</time>
      </trkpt>
      <trkpt lat="45.9649" lon="4.84873">
        <ele>255</ele>
        <time>2017-04-03T09:19:26Z</time>
      </trkpt>
      <trkpt lat="45.96488" lon="4.84882">
        <ele>255</ele>
        <time>2017-04-03T09:19:28Z</time>
      </trkpt>
      <trkpt lat="45.96487" lon="4.84887">
        <ele>255</ele>
        <time>2017-04-03T09:19:29Z</time>
      </trkpt>
      <trkpt lat="45.96486" lon="4.84896">
        <ele>256</ele>
        <time>2017-04-03T09:19:31Z</time>
      </trkpt>
      <trkpt lat="45.96485" lon="4.849">
        <ele>256</ele>
        <time>2017-04-03T09:19:32Z</time>
      </trkpt>
      <trkpt lat="45.96483" lon="4.84909">
        <ele>256</ele>
        <time>2017-04-03T09:19:34Z</time>
      </trkpt>
      <trkpt lat="45.96482" lon="4.84914">
        <ele>256</ele>
        <time>2017-04-03T09:19:35Z</time>
      </trkpt>
      <trkpt lat="45.96479" lon="4.84926">
        <ele>259</ele>
        <time>2017-04-03T09:19:38Z</time>
      </trkpt>
      <trkpt lat="45.96478" lon="4.8493">
        <ele>259</ele>
        <time>2017-04-03T09:19:39Z</time>
      </trkpt>
      <trkpt lat="45.96477" lon="4.84942">
        <ele>260</ele>
        <time>2017-04-03T09:19:42Z</time>
      </trkpt>
      <trkpt lat="45.96477" lon="4.84947">
        <ele>260</ele>
        <time>2017-04-03T09:19:43Z</time>
      </trkpt>
      <trkpt lat="45.96476" lon="4.8496">
        <ele>261</ele>
        <time>2017-04-03T09:19:46Z</time>
      </trkpt>
      <trkpt lat="45.96475" lon="4.84964">
        <ele>261</ele>
        <time>2017-04-03T09:19:47Z</time>
      </trkpt>
      <trkpt lat="45.96473" lon="4.84976">
        <ele>262</ele>
        <time>2017-04-03T09:19:50Z</time>
      </trkpt>
      <trkpt lat="45.96472" lon="4.8498">
        <ele>262</ele>
        <time>2017-04-03T09:19:51Z</time>
      </trkpt>
      <trkpt lat="45.96471" lon="4.84989">
        <ele>262</ele>
        <time>2017-04-03T09:19:53Z</time>
      </trkpt>
      <trkpt lat="45.96471" lon="4.84994">
        <ele>263</ele>
        <time>2017-04-03T09:19:54Z</time>
      </trkpt>
      <trkpt lat="45.9647" lon="4.85003">
        <ele>266</ele>
        <time>2017-04-03T09:19:56Z</time>
      </trkpt>
      <trkpt lat="45.9647" lon="4.85007">
        <ele>266</ele>
        <time>2017-04-03T09:19:57Z</time>
      </trkpt>
      <trkpt lat="45.96469" lon="4.85019">
        <ele>266</ele>
        <time>2017-04-03T09:20:00Z</time>
      </trkpt>
      <trkpt lat="45.96468" lon="4.85023">
        <ele>266</ele>
        <time>2017-04-03T09:20:01Z</time>
      </trkpt>
      <trkpt lat="45.96467" lon="4.85036">
        <ele>266</ele>
        <time>2017-04-03T09:20:04Z</time>
      </trkpt>
      <trkpt lat="45.96467" lon="4.8504">
        <ele>266</ele>
        <time>2017-04-03T09:20:05Z</time>
      </trkpt>
      <trkpt lat="45.96467" lon="4.85051">
        <ele>266</ele>
        <time>2017-04-03T09:20:08Z</time>
      </trkpt>
      <trkpt lat="45.96467" lon="4.85055">
        <ele>266</ele>
        <time>2017-04-03T09:20:09Z</time>
      </trkpt>
      <trkpt lat="45.96467" lon="4.85066">
        <ele>266</ele>
        <time>2017-04-03T09:20:12Z</time>
      </trkpt>
      <trkpt lat="45.96466" lon="4.8507">
        <ele>266</ele>
        <time>2017-04-03T09:20:13Z</time>
      </trkpt>
      <trkpt lat="45.96466" lon="4.85079">
        <ele>267</ele>
        <time>2017-04-03T09:20:15Z</time>
      </trkpt>
      <trkpt lat="45.96466" lon="4.85083">
        <ele>267</ele>
        <time>2017-04-03T09:20:16Z</time>
      </trkpt>
      <trkpt lat="45.96466" lon="4.85092">
        <ele>268</ele>
        <time>2017-04-03T09:20:18Z</time>
      </trkpt>
      <trkpt lat="45.96465" lon="4.85096">
        <ele>268</ele>
        <time>2017-04-03T09:20:19Z</time>
      </trkpt>
      <trkpt lat="45.96464" lon="4.85104">
        <ele>268</ele>
        <time>2017-04-03T09:20:21Z</time>
      </trkpt>
      <trkpt lat="45.96463" lon="4.85109">
        <ele>268</ele>
        <time>2017-04-03T09:20:22Z</time>
      </trkpt>
      <trkpt lat="45.96462" lon="4.85121">
        <ele>268</ele>
        <time>2017-04-03T09:20:25Z</time>
      </trkpt>
      <trkpt lat="45.96461" lon="4.85125">
        <ele>268</ele>
        <time>2017-04-03T09:20:26Z</time>
      </trkpt>
      <trkpt lat="45.96458" lon="4.85137">
        <ele>268</ele>
        <time>2017-04-03T09:20:29Z</time>
      </trkpt>
      <trkpt lat="45.96457" lon="4.8514">
        <ele>268</ele>
        <time>2017-04-03T09:20:30Z</time>
      </trkpt>
      <trkpt lat="45.96455" lon="4.85148">
        <ele>268</ele>
        <time>2017-04-03T09:20:32Z</time>
      </trkpt>
      <trkpt lat="45.96454" lon="4.85152">
        <ele>268</ele>
        <time>2017-04-03T09:20:33Z</time>
      </trkpt>
      <trkpt lat="45.96452" lon="4.85161">
        <ele>268</ele>
        <time>2017-04-03T09:20:35Z</time>
      </trkpt>
      <trkpt lat="45.96451" lon="4.85165">
        <ele>268</ele>
        <time>2017-04-03T09:20:36Z</time>
      </trkpt>
      <trkpt lat="45.96449" lon="4.85177">
        <ele>269</ele>
        <time>2017-04-03T09:20:39Z</time>
      </trkpt>
      <trkpt lat="45.96449" lon="4.85182">
        <ele>269</ele>
        <time>2017-04-03T09:20:40Z</time>
      </trkpt>
      <trkpt lat="45.96449" lon="4.85192">
        <ele>269</ele>
        <time>2017-04-03T09:20:42Z</time>
      </trkpt>
      <trkpt lat="45.96448" lon="4.85196">
        <ele>269</ele>
        <time>2017-04-03T09:20:43Z</time>
      </trkpt>
      <trkpt lat="45.96447" lon="4.85205">
        <ele>269</ele>
        <time>2017-04-03T09:20:45Z</time>
      </trkpt>
      <trkpt lat="45.96447" lon="4.8521">
        <ele>269</ele>
        <time>2017-04-03T09:20:46Z</time>
      </trkpt>
      <trkpt lat="45.96446" lon="4.85219">
        <ele>269</ele>
        <time>2017-04-03T09:20:48Z</time>
      </trkpt>
      <trkpt lat="45.96446" lon="4.85223">
        <ele>269</ele>
        <time>2017-04-03T09:20:49Z</time>
      </trkpt>
      <trkpt lat="45.96446" lon="4.85232">
        <ele>269</ele>
        <time>2017-04-03T09:20:51Z</time>
      </trkpt>
      <trkpt lat="45.96446" lon="4.85237">
        <ele>269</ele>
        <time>2017-04-03T09:20:52Z</time>
      </trkpt>
      <trkpt lat="45.96446" lon="4.85246">
        <ele>269</ele>
        <time>2017-04-03T09:20:54Z</time>
      </trkpt>
      <trkpt lat="45.96446" lon="4.8525">
        <ele>270</ele>
        <time>2017-04-03T09:20:55Z</time>
      </trkpt>
      <trkpt lat="45.96445" lon="4.8526">
        <ele>270</ele>
        <time>2017-04-03T09:20:57Z</time>
      </trkpt>
      <trkpt lat="45.96445" lon="4.85264">
        <ele>270</ele>
        <time>2017-04-03T09:20:58Z</time>
      </trkpt>
      <trkpt lat="45.96445" lon="4.85274">
        <ele>270</ele>
        <time>2017-04-03T09:21:00Z</time>
      </trkpt>
      <trkpt lat="45.96445" lon="4.8528">
        <ele>270</ele>
        <time>2017-04-03T09:21:01Z</time>
      </trkpt>
      <trkpt lat="45.96445" lon="4.8529">
        <ele>270</ele>
        <time>2017-04-03T09:21:03Z</time>
      </trkpt>
      <trkpt lat="45.96445" lon="4.85295">
        <ele>270</ele>
        <time>2017-04-03T09:21:04Z</time>
      </trkpt>
      <trkpt lat="45.96445" lon="4.85303">
        <ele>270</ele>
        <time>2017-04-03T09:21:06Z</time>
      </trkpt>
      <trkpt lat="45.96446" lon="4.85308">
        <ele>270</ele>
        <time>2017-04-03T09:21:07Z</time>
      </trkpt>
      <trkpt lat="45.96447" lon="4.85317">
        <ele>271</ele>
        <time>2017-04-03T09:21:09Z</time>
      </trkpt>
      <trkpt lat="45.96447" lon="4.85322">
        <ele>271</ele>
        <time>2017-04-03T09:21:10Z</time>
      </trkpt>
      <trkpt lat="45.96448" lon="4.85332">
        <ele>271</ele>
        <time>2017-04-03T09:21:12Z</time>
      </trkpt>
      <trkpt lat="45.96449" lon="4.85337">
        <ele>271</ele>
        <time>2017-04-03T09:21:13Z</time>
      </trkpt>
      <trkpt lat="45.96451" lon="4.85346">
        <ele>271</ele>
        <time>2017-04-03T09:21:15Z</time>
      </trkpt>
      <trkpt lat="45.96451" lon="4.85351">
        <ele>272</ele>
        <time>2017-04-03T09:21:16Z</time>
      </trkpt>
      <trkpt lat="45.96452" lon="4.85361">
        <ele>272</ele>
        <time>2017-04-03T09:21:18Z</time>
      </trkpt>
      <trkpt lat="45.96453" lon="4.85366">
        <ele>272</ele>
        <time>2017-04-03T09:21:19Z</time>
      </trkpt>
      <trkpt lat="45.96454" lon="4.85376">
        <ele>272</ele>
        <time>2017-04-03T09:21:21Z</time>
      </trkpt>
      <trkpt lat="45.96455" lon="4.85381">
        <ele>272</ele>
        <time>2017-04-03T09:21:22Z</time>
      </trkpt>
      <trkpt lat="45.96456" lon="4.85391">
        <ele>272</ele>
        <time>2017-04-03T09:21:24Z</time>
      </trkpt>
      <trkpt lat="45.96456" lon="4.85396">
        <ele>272</ele>
        <time>2017-04-03T09:21:25Z</time>
      </trkpt>
      <trkpt lat="45.96457" lon="4.85407">
        <ele>272</ele>
        <time>2017-04-03T09:21:27Z</time>
      </trkpt>
      <trkpt lat="45.96457" lon="4.85412">
        <ele>272</ele>
        <time>2017-04-03T09:21:28Z</time>
      </trkpt>
      <trkpt lat="45.9646" lon="4.85425">
        <ele>272</ele>
        <time>2017-04-03T09:21:30Z</time>
      </trkpt>
      <trkpt lat="45.96461" lon="4.8543">
        <ele>272</ele>
        <time>2017-04-03T09:21:31Z</time>
      </trkpt>
      <trkpt lat="45.96463" lon="4.85443">
        <ele>272</ele>
        <time>2017-04-03T09:21:33Z</time>
      </trkpt>
      <trkpt lat="45.96464" lon="4.85448">
        <ele>272</ele>
        <time>2017-04-03T09:21:34Z</time>
      </trkpt>
      <trkpt lat="45.96465" lon="4.85455">
        <ele>272</ele>
        <time>2017-04-03T09:21:35Z</time>
      </trkpt>
      <trkpt lat="45.96465" lon="4.85462">
        <ele>272</ele>
        <time>2017-04-03T09:21:36Z</time>
      </trkpt>
      <trkpt lat="45.96465" lon="4.85469">
        <ele>272</ele>
        <time>2017-04-03T09:21:37Z</time>
      </trkpt>
      <trkpt lat="45.96465" lon="4.85476">
        <ele>272</ele>
        <time>2017-04-03T09:21:38Z</time>
      </trkpt>
      <trkpt lat="45.96465" lon="4.85489">
        <ele>272</ele>
        <time>2017-04-03T09:21:40Z</time>
      </trkpt>
      <trkpt lat="45.96465" lon="4.85496">
        <ele>272</ele>
        <time>2017-04-03T09:21:41Z</time>
      </trkpt>
      <trkpt lat="45.96466" lon="4.85508">
        <ele>272</ele>
        <time>2017-04-03T09:21:43Z</time>
      </trkpt>
      <trkpt lat="45.96466" lon="4.85514">
        <ele>272</ele>
        <time>2017-04-03T09:21:44Z</time>
      </trkpt>
      <trkpt lat="45.96466" lon="4.85524">
        <ele>272</ele>
        <time>2017-04-03T09:21:46Z</time>
      </trkpt>
      <trkpt lat="45.96467" lon="4.8553">
        <ele>272</ele>
        <time>2017-04-03T09:21:47Z</time>
      </trkpt>
      <trkpt lat="45.96467" lon="4.8554">
        <ele>272</ele>
        <time>2017-04-03T09:21:49Z</time>
      </trkpt>
      <trkpt lat="45.96467" lon="4.85546">
        <ele>272</ele>
        <time>2017-04-03T09:21:50Z</time>
      </trkpt>
      <trkpt lat="45.96467" lon="4.85557">
        <ele>272</ele>
        <time>2017-04-03T09:21:52Z</time>
      </trkpt>
      <trkpt lat="45.96468" lon="4.85562">
        <ele>272</ele>
        <time>2017-04-03T09:21:53Z</time>
      </trkpt>
      <trkpt lat="45.96469" lon="4.85573">
        <ele>272</ele>
        <time>2017-04-03T09:21:55Z</time>
      </trkpt>
      <trkpt lat="45.96469" lon="4.85578">
        <ele>272</ele>
        <time>2017-04-03T09:21:56Z</time>
      </trkpt>
      <trkpt lat="45.96471" lon="4.85589">
        <ele>271</ele>
        <time>2017-04-03T09:21:58Z</time>
      </trkpt>
      <trkpt lat="45.96471" lon="4.85595">
        <ele>271</ele>
        <time>2017-04-03T09:21:59Z</time>
      </trkpt>
      <trkpt lat="45.9647" lon="4.85607">
        <ele>271</ele>
        <time>2017-04-03T09:22:01Z</time>
      </trkpt>
      <trkpt lat="45.96471" lon="4.85614">
        <ele>271</ele>
        <time>2017-04-03T09:22:02Z</time>
      </trkpt>
      <trkpt lat="45.96471" lon="4.8562">
        <ele>271</ele>
        <time>2017-04-03T09:22:03Z</time>
      </trkpt>
      <trkpt lat="45.96474" lon="4.85626">
        <ele>271</ele>
        <time>2017-04-03T09:22:04Z</time>
      </trkpt>
      <trkpt lat="45.96476" lon="4.85638">
        <ele>271</ele>
        <time>2017-04-03T09:22:06Z</time>
      </trkpt>
      <trkpt lat="45.96475" lon="4.85644">
        <ele>271</ele>
        <time>2017-04-03T09:22:07Z</time>
      </trkpt>
      <trkpt lat="45.96476" lon="4.85655">
        <ele>271</ele>
        <time>2017-04-03T09:22:09Z</time>
      </trkpt>
      <trkpt lat="45.96477" lon="4.8566">
        <ele>271</ele>
        <time>2017-04-03T09:22:10Z</time>
      </trkpt>
      <trkpt lat="45.96479" lon="4.85671">
        <ele>272</ele>
        <time>2017-04-03T09:22:12Z</time>
      </trkpt>
      <trkpt lat="45.9648" lon="4.85676">
        <ele>272</ele>
        <time>2017-04-03T09:22:13Z</time>
      </trkpt>
      <trkpt lat="45.96481" lon="4.85688">
        <ele>272</ele>
        <time>2017-04-03T09:22:15Z</time>
      </trkpt>
      <trkpt lat="45.96482" lon="4.85694">
        <ele>272</ele>
        <time>2017-04-03T09:22:16Z</time>
      </trkpt>
      <trkpt lat="45.96483" lon="4.85705">
        <ele>272</ele>
        <time>2017-04-03T09:22:18Z</time>
      </trkpt>
      <trkpt lat="45.96484" lon="4.85711">
        <ele>272</ele>
        <time>2017-04-03T09:22:19Z</time>
      </trkpt>
      <trkpt lat="45.96485" lon="4.85723">
        <ele>272</ele>
        <time>2017-04-03T09:22:21Z</time>
      </trkpt>
      <trkpt lat="45.96486" lon="4.85729">
        <ele>273</ele>
        <time>2017-04-03T09:22:22Z</time>
      </trkpt>
      <trkpt lat="45.96488" lon="4.85741">
        <ele>273</ele>
        <time>2017-04-03T09:22:24Z</time>
      </trkpt>
      <trkpt lat="45.96489" lon="4.85747">
        <ele>273</ele>
        <time>2017-04-03T09:22:25Z</time>
      </trkpt>
      <trkpt lat="45.9649" lon="4.8576">
        <ele>274</ele>
        <time>2017-04-03T09:22:27Z</time>
      </trkpt>
      <trkpt lat="45.96491" lon="4.85766">
        <ele>274</ele>
        <time>2017-04-03T09:22:28Z</time>
      </trkpt>
      <trkpt lat="45.96492" lon="4.85778">
        <ele>274</ele>
        <time>2017-04-03T09:22:30Z</time>
      </trkpt>
      <trkpt lat="45.96494" lon="4.85785">
        <ele>274</ele>
        <time>2017-04-03T09:22:31Z</time>
      </trkpt>
      <trkpt lat="45.96496" lon="4.85796">
        <ele>274</ele>
        <time>2017-04-03T09:22:33Z</time>
      </trkpt>
      <trkpt lat="45.96497" lon="4.85802">
        <ele>274</ele>
        <time>2017-04-03T09:22:34Z</time>
      </trkpt>
      <trkpt lat="45.96498" lon="4.85814">
        <ele>274</ele>
        <time>2017-04-03T09:22:36Z</time>
      </trkpt>
      <trkpt lat="45.96499" lon="4.8582">
        <ele>274</ele>
        <time>2017-04-03T09:22:37Z</time>
      </trkpt>
      <trkpt lat="45.96499" lon="4.85833">
        <ele>275</ele>
        <time>2017-04-03T09:22:39Z</time>
      </trkpt>
      <trkpt lat="45.965" lon="4.85839">
        <ele>275</ele>
        <time>2017-04-03T09:22:40Z</time>
      </trkpt>
      <trkpt lat="45.96501" lon="4.8585">
        <ele>275</ele>
        <time>2017-04-03T09:22:42Z</time>
      </trkpt>
      <trkpt lat="45.96501" lon="4.85855">
        <ele>275</ele>
        <time>2017-04-03T09:22:43Z</time>
      </trkpt>
      <trkpt lat="45.96503" lon="4.85866">
        <ele>275</ele>
        <time>2017-04-03T09:22:45Z</time>
      </trkpt>
      <trkpt lat="45.96503" lon="4.85872">
        <ele>275</ele>
        <time>2017-04-03T09:22:46Z</time>
      </trkpt>
      <trkpt lat="45.96505" lon="4.85883">
        <ele>275</ele>
        <time>2017-04-03T09:22:48Z</time>
      </trkpt>
      <trkpt lat="45.96507" lon="4.85889">
        <ele>275</ele>
        <time>2017-04-03T09:22:49Z</time>
      </trkpt>
      <trkpt lat="45.96509" lon="4.859">
        <ele>275</ele>
        <time>2017-04-03T09:22:51Z</time>
      </trkpt>
      <trkpt lat="45.96511" lon="4.85906">
        <ele>275</ele>
        <time>2017-04-03T09:22:52Z</time>
      </trkpt>
      <trkpt lat="45.96512" lon="4.85912">
        <ele>275</ele>
        <time>2017-04-03T09:22:53Z</time>
      </trkpt>
      <trkpt lat="45.96514" lon="4.85918">
        <ele>275</ele>
        <time>2017-04-03T09:22:54Z</time>
      </trkpt>
      <trkpt lat="45.96515" lon="4.85925">
        <ele>275</ele>
        <time>2017-04-03T09:22:55Z</time>
      </trkpt>
      <trkpt lat="45.96517" lon="4.85931">
        <ele>275</ele>
        <time>2017-04-03T09:22:56Z</time>
      </trkpt>
      <trkpt lat="45.9652" lon="4.85942">
        <ele>275</ele>
        <time>2017-04-03T09:22:58Z</time>
      </trkpt>
      <trkpt lat="45.96522" lon="4.85948">
        <ele>275</ele>
        <time>2017-04-03T09:22:59Z</time>
      </trkpt>
      <trkpt lat="45.96526" lon="4.85958">
        <ele>275</ele>
        <time>2017-04-03T09:23:01Z</time>
      </trkpt>
      <trkpt lat="45.96529" lon="4.85963">
        <ele>275</ele>
        <time>2017-04-03T09:23:02Z</time>
      </trkpt>
      <trkpt lat="45.96535" lon="4.85972">
        <ele>275</ele>
        <time>2017-04-03T09:23:04Z</time>
      </trkpt>
      <trkpt lat="45.96537" lon="4.85977">
        <ele>275</ele>
        <time>2017-04-03T09:23:05Z</time>
      </trkpt>
      <trkpt lat="45.96543" lon="4.85986">
        <ele>275</ele>
        <time>2017-04-03T09:23:07Z</time>
      </trkpt>
      <trkpt lat="45.96545" lon="4.8599">
        <ele>275</ele>
        <time>2017-04-03T09:23:08Z</time>
      </trkpt>
      <trkpt lat="45.9655" lon="4.85999">
        <ele>276</ele>
        <time>2017-04-03T09:23:10Z</time>
      </trkpt>
      <trkpt lat="45.96553" lon="4.86004">
        <ele>276</ele>
        <time>2017-04-03T09:23:11Z</time>
      </trkpt>
      <trkpt lat="45.96557" lon="4.86014">
        <ele>276</ele>
        <time>2017-04-03T09:23:13Z</time>
      </trkpt>
      <trkpt lat="45.9656" lon="4.86018">
        <ele>276</ele>
        <time>2017-04-03T09:23:14Z</time>
      </trkpt>
      <trkpt lat="45.96565" lon="4.86027">
        <ele>276</ele>
        <time>2017-04-03T09:23:16Z</time>
      </trkpt>
      <trkpt lat="45.96568" lon="4.86032">
        <ele>276</ele>
        <time>2017-04-03T09:23:17Z</time>
      </trkpt>
      <trkpt lat="45.96572" lon="4.86042">
        <ele>276</ele>
        <time>2017-04-03T09:23:19Z</time>
      </trkpt>
      <trkpt lat="45.96574" lon="4.86046">
        <ele>276</ele>
        <time>2017-04-03T09:23:20Z</time>
      </trkpt>
      <trkpt lat="45.96579" lon="4.86056">
        <ele>277</ele>
        <time>2017-04-03T09:23:22Z</time>
      </trkpt>
      <trkpt lat="45.96581" lon="4.86061">
        <ele>277</ele>
        <time>2017-04-03T09:23:23Z</time>
      </trkpt>
      <trkpt lat="45.96584" lon="4.8607">
        <ele>279</ele>
        <time>2017-04-03T09:23:25Z</time>
      </trkpt>
      <trkpt lat="45.96586" lon="4.86075">
        <ele>279</ele>
        <time>2017-04-03T09:23:26Z</time>
      </trkpt>
      <trkpt lat="45.96588" lon="4.86085">
        <ele>279</ele>
        <time>2017-04-03T09:23:28Z</time>
      </trkpt>
      <trkpt lat="45.96589" lon="4.86091">
        <ele>279</ele>
        <time>2017-04-03T09:23:29Z</time>
      </trkpt>
      <trkpt lat="45.96591" lon="4.86101">
        <ele>280</ele>
        <time>2017-04-03T09:23:31Z</time>
      </trkpt>
      <trkpt lat="45.96591" lon="4.86106">
        <ele>280</ele>
        <time>2017-04-03T09:23:32Z</time>
      </trkpt>
      <trkpt lat="45.96591" lon="4.86118">
        <ele>281</ele>
        <time>2017-04-03T09:23:34Z</time>
      </trkpt>
      <trkpt lat="45.96591" lon="4.86124">
        <ele>281</ele>
        <time>2017-04-03T09:23:35Z</time>
      </trkpt>
      <trkpt lat="45.96589" lon="4.86136">
        <ele>281</ele>
        <time>2017-04-03T09:23:37Z</time>
      </trkpt>
      <trkpt lat="45.96589" lon="4.86142">
        <ele>281</ele>
        <time>2017-04-03T09:23:38Z</time>
      </trkpt>
      <trkpt lat="45.96588" lon="4.86153">
        <ele>281</ele>
        <time>2017-04-03T09:23:40Z</time>
      </trkpt>
      <trkpt lat="45.96587" lon="4.86159">
        <ele>281</ele>
        <time>2017-04-03T09:23:41Z</time>
      </trkpt>
      <trkpt lat="45.96585" lon="4.86169">
        <ele>280</ele>
        <time>2017-04-03T09:23:43Z</time>
      </trkpt>
      <trkpt lat="45.96584" lon="4.86174">
        <ele>281</ele>
        <time>2017-04-03T09:23:44Z</time>
      </trkpt>
      <trkpt lat="45.96583" lon="4.86184">
        <ele>280</ele>
        <time>2017-04-03T09:23:46Z</time>
      </trkpt>
      <trkpt lat="45.96582" lon="4.86189">
        <ele>280</ele>
        <time>2017-04-03T09:23:47Z</time>
      </trkpt>
      <trkpt lat="45.96581" lon="4.86199">
        <ele>279</ele>
        <time>2017-04-03T09:23:49Z</time>
      </trkpt>
      <trkpt lat="45.9658" lon="4.86204">
        <ele>280</ele>
        <time>2017-04-03T09:23:50Z</time>
      </trkpt>
      <trkpt lat="45.96579" lon="4.86213">
        <ele>280</ele>
        <time>2017-04-03T09:23:52Z</time>
      </trkpt>
      <trkpt lat="45.96579" lon="4.86218">
        <ele>280</ele>
        <time>2017-04-03T09:23:53Z</time>
      </trkpt>
      <trkpt lat="45.96577" lon="4.86228">
        <ele>280</ele>
        <time>2017-04-03T09:23:55Z</time>
      </trkpt>
      <trkpt lat="45.96576" lon="4.86233">
        <ele>280</ele>
        <time>2017-04-03T09:23:56Z</time>
      </trkpt>
      <trkpt lat="45.96575" lon="4.86243">
        <ele>280</ele>
        <time>2017-04-03T09:23:58Z</time>
      </trkpt>
      <trkpt lat="45.96575" lon="4.86248">
        <ele>280</ele>
        <time>2017-04-03T09:23:59Z</time>
      </trkpt>
      <trkpt lat="45.96575" lon="4.86258">
        <ele>281</ele>
        <time>2017-04-03T09:24:01Z</time>
      </trkpt>
      <trkpt lat="45.96575" lon="4.86263">
        <ele>281</ele>
        <time>2017-04-03T09:24:02Z</time>
      </trkpt>
      <trkpt lat="45.96575" lon="4.86274">
        <ele>282</ele>
        <time>2017-04-03T09:24:04Z</time>
      </trkpt>
      <trkpt lat="45.96574" lon="4.86278">
        <ele>282</ele>
        <time>2017-04-03T09:24:05Z</time>
      </trkpt>
      <trkpt lat="45.96574" lon="4.86287">
        <ele>282</ele>
        <time>2017-04-03T09:24:07Z</time>
      </trkpt>
      <trkpt lat="45.96573" lon="4.86291">
        <ele>282</ele>
        <time>2017-04-03T09:24:08Z</time>
      </trkpt>
      <trkpt lat="45.96573" lon="4.863">
        <ele>282</ele>
        <time>2017-04-03T09:24:10Z</time>
      </trkpt>
      <trkpt lat="45.96572" lon="4.86304">
        <ele>283</ele>
        <time>2017-04-03T09:24:11Z</time>
      </trkpt>
      <trkpt lat="45.96571" lon="4.86317">
        <ele>283</ele>
        <time>2017-04-03T09:24:14Z</time>
      </trkpt>
      <trkpt lat="45.96571" lon="4.86321">
        <ele>283</ele>
        <time>2017-04-03T09:24:15Z</time>
      </trkpt>
      <trkpt lat="45.96571" lon="4.86334">
        <ele>285</ele>
        <time>2017-04-03T09:24:18Z</time>
      </trkpt>
      <trkpt lat="45.96572" lon="4.86338">
        <ele>285</ele>
        <time>2017-04-03T09:24:19Z</time>
      </trkpt>
      <trkpt lat="45.96572" lon="4.86348">
        <ele>285</ele>
        <time>2017-04-03T09:24:21Z</time>
      </trkpt>
      <trkpt lat="45.96572" lon="4.86352">
        <ele>285</ele>
        <time>2017-04-03T09:24:22Z</time>
      </trkpt>
      <trkpt lat="45.96572" lon="4.86361">
        <ele>286</ele>
        <time>2017-04-03T09:24:24Z</time>
      </trkpt>
      <trkpt lat="45.96571" lon="4.86366">
        <ele>286</ele>
        <time>2017-04-03T09:24:25Z</time>
      </trkpt>
      <trkpt lat="45.96571" lon="4.86375">
        <ele>286</ele>
        <time>2017-04-03T09:24:27Z</time>
      </trkpt>
      <trkpt lat="45.96571" lon="4.8638">
        <ele>286</ele>
        <time>2017-04-03T09:24:28Z</time>
      </trkpt>
      <trkpt lat="45.96572" lon="4.86389">
        <ele>287</ele>
        <time>2017-04-03T09:24:30Z</time>
      </trkpt>
      <trkpt lat="45.96572" lon="4.86393">
        <ele>287</ele>
        <time>2017-04-03T09:24:31Z</time>
      </trkpt>
      <trkpt lat="45.96572" lon="4.86403">
        <ele>288</ele>
        <time>2017-04-03T09:24:33Z</time>
      </trkpt>
      <trkpt lat="45.96572" lon="4.86408">
        <ele>288</ele>
        <time>2017-04-03T09:24:34Z</time>
      </trkpt>
      <trkpt lat="45.96574" lon="4.86417">
        <ele>288</ele>
        <time>2017-04-03T09:24:36Z</time>
      </trkpt>
      <trkpt lat="45.96575" lon="4.86422">
        <ele>289</ele>
        <time>2017-04-03T09:24:37Z</time>
      </trkpt>
      <trkpt lat="45.96576" lon="4.86432">
        <ele>289</ele>
        <time>2017-04-03T09:24:39Z</time>
      </trkpt>
      <trkpt lat="45.96576" lon="4.86436">
        <ele>289</ele>
        <time>2017-04-03T09:24:40Z</time>
      </trkpt>
      <trkpt lat="45.96577" lon="4.86446">
        <ele>289</ele>
        <time>2017-04-03T09:24:42Z</time>
      </trkpt>
      <trkpt lat="45.96577" lon="4.86451">
        <ele>289</ele>
        <time>2017-04-03T09:24:43Z</time>
      </trkpt>
      <trkpt lat="45.96576" lon="4.86459">
        <ele>289</ele>
        <time>2017-04-03T09:24:45Z</time>
      </trkpt>
      <trkpt lat="45.96577" lon="4.86464">
        <ele>289</ele>
        <time>2017-04-03T09:24:46Z</time>
      </trkpt>
      <trkpt lat="45.96578" lon="4.86474">
        <ele>290</ele>
        <time>2017-04-03T09:24:48Z</time>
      </trkpt>
      <trkpt lat="45.96579" lon="4.86479">
        <ele>290</ele>
        <time>2017-04-03T09:24:49Z</time>
      </trkpt>
      <trkpt lat="45.96583" lon="4.86487">
        <ele>290</ele>
        <time>2017-04-03T09:24:51Z</time>
      </trkpt>
      <trkpt lat="45.96585" lon="4.86491">
        <ele>292</ele>
        <time>2017-04-03T09:24:52Z</time>
      </trkpt>
      <trkpt lat="45.96589" lon="4.865">
        <ele>292</ele>
        <time>2017-04-03T09:24:54Z</time>
      </trkpt>
      <trkpt lat="45.96592" lon="4.86503">
        <ele>292</ele>
        <time>2017-04-03T09:24:55Z</time>
      </trkpt>
      <trkpt lat="45.96598" lon="4.8651">
        <ele>291</ele>
        <time>2017-04-03T09:24:57Z</time>
      </trkpt>
      <trkpt lat="45.96602" lon="4.86512">
        <ele>291</ele>
        <time>2017-04-03T09:24:58Z</time>
      </trkpt>
      <trkpt lat="45.96608" lon="4.86518">
        <ele>291</ele>
        <time>2017-04-03T09:25:00Z</time>
      </trkpt>
      <trkpt lat="45.96612" lon="4.86521">
        <ele>291</ele>
        <time>2017-04-03T09:25:01Z</time>
      </trkpt>
      <trkpt lat="45.96618" lon="4.86527">
        <ele>291</ele>
        <time>2017-04-03T09:25:03Z</time>
      </trkpt>
      <trkpt lat="45.96621" lon="4.8653">
        <ele>291</ele>
        <time>2017-04-03T09:25:04Z</time>
      </trkpt>
      <trkpt lat="45.96628" lon="4.86537">
        <ele>291</ele>
        <time>2017-04-03T09:25:06Z</time>
      </trkpt>
      <trkpt lat="45.96631" lon="4.8654">
        <ele>291</ele>
        <time>2017-04-03T09:25:07Z</time>
      </trkpt>
      <trkpt lat="45.96638" lon="4.86546">
        <ele>291</ele>
        <time>2017-04-03T09:25:09Z</time>
      </trkpt>
      <trkpt lat="45.96641" lon="4.8655">
        <ele>291</ele>
        <time>2017-04-03T09:25:10Z</time>
      </trkpt>
      <trkpt lat="45.96648" lon="4.86556">
        <ele>291</ele>
        <time>2017-04-03T09:25:12Z</time>
      </trkpt>
      <trkpt lat="45.96651" lon="4.86559">
        <ele>291</ele>
        <time>2017-04-03T09:25:13Z</time>
      </trkpt>
      <trkpt lat="45.96658" lon="4.86565">
        <ele>290</ele>
        <time>2017-04-03T09:25:15Z</time>
      </trkpt>
      <trkpt lat="45.96661" lon="4.86568">
        <ele>290</ele>
        <time>2017-04-03T09:25:16Z</time>
      </trkpt>
      <trkpt lat="45.96667" lon="4.86574">
        <ele>290</ele>
        <time>2017-04-03T09:25:18Z</time>
      </trkpt>
      <trkpt lat="45.9667" lon="4.86578">
        <ele>290</ele>
        <time>2017-04-03T09:25:19Z</time>
      </trkpt>
      <trkpt lat="45.96677" lon="4.86585">
        <ele>290</ele>
        <time>2017-04-03T09:25:21Z</time>
      </trkpt>
      <trkpt lat="45.96681" lon="4.86589">
        <ele>290</ele>
        <time>2017-04-03T09:25:22Z</time>
      </trkpt>
      <trkpt lat="45.96688" lon="4.86596">
        <ele>290</ele>
        <time>2017-04-03T09:25:24Z</time>
      </trkpt>
      <trkpt lat="45.96692" lon="4.86599">
        <ele>290</ele>
        <time>2017-04-03T09:25:25Z</time>
      </trkpt>
      <trkpt lat="45.96696" lon="4.86603">
        <ele>290</ele>
        <time>2017-04-03T09:25:26Z</time>
      </trkpt>
      <trkpt lat="45.967" lon="4.86607">
        <ele>290</ele>
        <time>2017-04-03T09:25:27Z</time>
      </trkpt>
      <trkpt lat="45.96703" lon="4.86611">
        <ele>290</ele>
        <time>2017-04-03T09:25:28Z</time>
      </trkpt>
      <trkpt lat="45.96707" lon="4.86615">
        <ele>290</ele>
        <time>2017-04-03T09:25:29Z</time>
      </trkpt>
      <trkpt lat="45.96715" lon="4.86621">
        <ele>290</ele>
        <time>2017-04-03T09:25:31Z</time>
      </trkpt>
      <trkpt lat="45.96719" lon="4.86624">
        <ele>290</ele>
        <time>2017-04-03T09:25:32Z</time>
      </trkpt>
      <trkpt lat="45.96723" lon="4.86626">
        <ele>290</ele>
        <time>2017-04-03T09:25:33Z</time>
      </trkpt>
      <trkpt lat="45.96727" lon="4.86628">
        <ele>290</ele>
        <time>2017-04-03T09:25:34Z</time>
      </trkpt>
      <trkpt lat="45.96735" lon="4.86635">
        <ele>290</ele>
        <time>2017-04-03T09:25:36Z</time>
      </trkpt>
      <trkpt lat="45.96739" lon="4.86639">
        <ele>290</ele>
        <time>2017-04-03T09:25:37Z</time>
      </trkpt>
      <trkpt lat="45.96742" lon="4.8665">
        <ele>290</ele>
        <time>2017-04-03T09:25:39Z</time>
      </trkpt>
      <trkpt lat="45.96741" lon="4.86656">
        <ele>290</ele>
        <time>2017-04-03T09:25:40Z</time>
      </trkpt>
      <trkpt lat="45.96738" lon="4.86662">
        <ele>290</ele>
        <time>2017-04-03T09:25:41Z</time>
      </trkpt>
      <trkpt lat="45.96734" lon="4.86668">
        <ele>290</ele>
        <time>2017-04-03T09:25:42Z</time>
      </trkpt>
      <trkpt lat="45.9673" lon="4.86673">
        <ele>290</ele>
        <time>2017-04-03T09:25:43Z</time>
      </trkpt>
      <trkpt lat="45.96726" lon="4.86679">
        <ele>289</ele>
        <time>2017-04-03T09:25:44Z</time>
      </trkpt>
      <trkpt lat="45.96722" lon="4.86686">
        <ele>289</ele>
        <time>2017-04-03T09:25:45Z</time>
      </trkpt>
      <trkpt lat="45.96718" lon="4.86692">
        <ele>289</ele>
        <time>2017-04-03T09:25:46Z</time>
      </trkpt>
      <trkpt lat="45.96714" lon="4.86698">
        <ele>289</ele>
        <time>2017-04-03T09:25:47Z</time>
      </trkpt>
      <trkpt lat="45.9671" lon="4.86705">
        <ele>289</ele>
        <time>2017-04-03T09:25:48Z</time>
      </trkpt>
      <trkpt lat="45.96706" lon="4.86712">
        <ele>289</ele>
        <time>2017-04-03T09:25:49Z</time>
      </trkpt>
      <trkpt lat="45.96702" lon="4.86718">
        <ele>289</ele>
        <time>2017-04-03T09:25:50Z</time>
      </trkpt>
      <trkpt lat="45.96698" lon="4.86725">
        <ele>289</ele>
        <time>2017-04-03T09:25:51Z</time>
      </trkpt>
      <trkpt lat="45.96694" lon="4.86732">
        <ele>289</ele>
        <time>2017-04-03T09:25:52Z</time>
      </trkpt>
      <trkpt lat="45.9669" lon="4.86739">
        <ele>289</ele>
        <time>2017-04-03T09:25:53Z</time>
      </trkpt>
      <trkpt lat="45.96686" lon="4.86746">
        <ele>289</ele>
        <time>2017-04-03T09:25:54Z</time>
      </trkpt>
      <trkpt lat="45.96681" lon="4.86753">
        <ele>289</ele>
        <time>2017-04-03T09:25:55Z</time>
      </trkpt>
      <trkpt lat="45.96677" lon="4.8676">
        <ele>289</ele>
        <time>2017-04-03T09:25:56Z</time>
      </trkpt>
      <trkpt lat="45.96673" lon="4.86767">
        <ele>289</ele>
        <time>2017-04-03T09:25:57Z</time>
      </trkpt>
      <trkpt lat="45.96669" lon="4.86773">
        <ele>289</ele>
        <time>2017-04-03T09:25:58Z</time>
      </trkpt>
      <trkpt lat="45.96665" lon="4.8678">
        <ele>288</ele>
        <time>2017-04-03T09:25:59Z</time>
      </trkpt>
      <trkpt lat="45.96661" lon="4.86786">
        <ele>288</ele>
        <time>2017-04-03T09:26:00Z</time>
      </trkpt>
      <trkpt lat="45.96657" lon="4.86792">
        <ele>288</ele>
        <time>2017-04-03T09:26:01Z</time>
      </trkpt>
      <trkpt lat="45.96653" lon="4.86798">
        <ele>288</ele>
        <time>2017-04-03T09:26:02Z</time>
      </trkpt>
      <trkpt lat="45.96649" lon="4.86804">
        <ele>288</ele>
        <time>2017-04-03T09:26:03Z</time>
      </trkpt>
      <trkpt lat="45.96645" lon="4.8681">
        <ele>288</ele>
        <time>2017-04-03T09:26:04Z</time>
      </trkpt>
      <trkpt lat="45.96641" lon="4.86816">
        <ele>288</ele>
        <time>2017-04-03T09:26:05Z</time>
      </trkpt>
      <trkpt lat="45.96638" lon="4.86822">
        <ele>288</ele>
        <time>2017-04-03T09:26:06Z</time>
      </trkpt>
      <trkpt lat="45.96634" lon="4.86828">
        <ele>288</ele>
        <time>2017-04-03T09:26:07Z</time>
      </trkpt>
      <trkpt lat="45.9663" lon="4.86836">
        <ele>287</ele>
        <time>2017-04-03T09:26:08Z</time>
      </trkpt>
      <trkpt lat="45.96625" lon="4.86842">
        <ele>287</ele>
        <time>2017-04-03T09:26:09Z</time>
      </trkpt>
      <trkpt lat="45.96621" lon="4.86848">
        <ele>287</ele>
        <time>2017-04-03T09:26:10Z</time>
      </trkpt>
      <trkpt lat="45.96617" lon="4.86855">
        <ele>287</ele>
        <time>2017-04-03T09:26:11Z</time>
      </trkpt>
      <trkpt lat="45.96613" lon="4.86861">
        <ele>287</ele>
        <time>2017-04-03T09:26:12Z</time>
      </trkpt>
      <trkpt lat="45.96609" lon="4.86868">
        <ele>287</ele>
        <time>2017-04-03T09:26:13Z</time>
      </trkpt>
      <trkpt lat="45.96605" lon="4.86875">
        <ele>287</ele>
        <time>2017-04-03T09:26:14Z</time>
      </trkpt>
      <trkpt lat="45.966" lon="4.86881">
        <ele>287</ele>
        <time>2017-04-03T09:26:15Z</time>
      </trkpt>
      <trkpt lat="45.96596" lon="4.86888">
        <ele>286</ele>
        <time>2017-04-03T09:26:16Z</time>
      </trkpt>
      <trkpt lat="45.96592" lon="4.86894">
        <ele>286</ele>
        <time>2017-04-03T09:26:17Z</time>
      </trkpt>
      <trkpt lat="45.96588" lon="4.86901">
        <ele>286</ele>
        <time>2017-04-03T09:26:18Z</time>
      </trkpt>
      <trkpt lat="45.96584" lon="4.86908">
        <ele>286</ele>
        <time>2017-04-03T09:26:19Z</time>
      </trkpt>
      <trkpt lat="45.96579" lon="4.86915">
        <ele>285</ele>
        <time>2017-04-03T09:26:20Z</time>
      </trkpt>
      <trkpt lat="45.96575" lon="4.86922">
        <ele>284</ele>
        <time>2017-04-03T09:26:21Z</time>
      </trkpt>
      <trkpt lat="45.96571" lon="4.86929">
        <ele>284</ele>
        <time>2017-04-03T09:26:22Z</time>
      </trkpt>
      <trkpt lat="45.96567" lon="4.86936">
        <ele>284</ele>
        <time>2017-04-03T09:26:23Z</time>
      </trkpt>
      <trkpt lat="45.96562" lon="4.86944">
        <ele>284</ele>
        <time>2017-04-03T09:26:24Z</time>
      </trkpt>
      <trkpt lat="45.96558" lon="4.86952">
        <ele>283</ele>
        <time>2017-04-03T09:26:25Z</time>
      </trkpt>
      <trkpt lat="45.96553" lon="4.86959">
        <ele>283</ele>
        <time>2017-04-03T09:26:26Z</time>
      </trkpt>
      <trkpt lat="45.96549" lon="4.86966">
        <ele>283</ele>
        <time>2017-04-03T09:26:27Z</time>
      </trkpt>
      <trkpt lat="45.96545" lon="4.86972">
        <ele>283</ele>
        <time>2017-04-03T09:26:28Z</time>
      </trkpt>
      <trkpt lat="45.9654" lon="4.86982">
        <ele>283</ele>
        <time>2017-04-03T09:26:30Z</time>
      </trkpt>
      <trkpt lat="45.96538" lon="4.86987">
        <ele>283</ele>
        <time>2017-04-03T09:26:31Z</time>
      </trkpt>
      <trkpt lat="45.96537" lon="4.86999">
        <ele>283</ele>
        <time>2017-04-03T09:26:33Z</time>
      </trkpt>
      <trkpt lat="45.96538" lon="4.87005">
        <ele>283</ele>
        <time>2017-04-03T09:26:34Z</time>
      </trkpt>
      <trkpt lat="45.96542" lon="4.87014">
        <ele>283</ele>
        <time>2017-04-03T09:26:36Z</time>
      </trkpt>
      <trkpt lat="45.96544" lon="4.87019">
        <ele>283</ele>
        <time>2017-04-03T09:26:37Z</time>
      </trkpt>
      <trkpt lat="45.96548" lon="4.87026">
        <ele>283</ele>
        <time>2017-04-03T09:26:39Z</time>
      </trkpt>
      <trkpt lat="45.9655" lon="4.87031">
        <ele>283</ele>
        <time>2017-04-03T09:26:40Z</time>
      </trkpt>
      <trkpt lat="45.96552" lon="4.87043">
        <ele>283</ele>
        <time>2017-04-03T09:26:42Z</time>
      </trkpt>
      <trkpt lat="45.96553" lon="4.87048">
        <ele>283</ele>
        <time>2017-04-03T09:26:43Z</time>
      </trkpt>
      <trkpt lat="45.96554" lon="4.87059">
        <ele>283</ele>
        <time>2017-04-03T09:26:45Z</time>
      </trkpt>
      <trkpt lat="45.96554" lon="4.87063">
        <ele>283</ele>
        <time>2017-04-03T09:26:46Z</time>
      </trkpt>
      <trkpt lat="45.96546" lon="4.87067">
        <ele>283</ele>
        <time>2017-04-03T09:26:50Z</time>
      </trkpt>
      <trkpt lat="45.96544" lon="4.87068">
        <ele>283</ele>
        <time>2017-04-03T09:26:51Z</time>
      </trkpt>
      <trkpt lat="45.96535" lon="4.87067">
        <ele>283</ele>
        <time>2017-04-03T09:26:54Z</time>
      </trkpt>
      <trkpt lat="45.96533" lon="4.87065">
        <ele>283</ele>
        <time>2017-04-03T09:26:55Z</time>
      </trkpt>
      <trkpt lat="45.96525" lon="4.87061">
        <ele>283</ele>
        <time>2017-04-03T09:27:01Z</time>
      </trkpt>
      <trkpt lat="45.96523" lon="4.87062">
        <ele>283</ele>
        <time>2017-04-03T09:27:02Z</time>
      </trkpt>
      <trkpt lat="45.96514" lon="4.8706">
        <ele>283</ele>
        <time>2017-04-03T09:27:05Z</time>
      </trkpt>
      <trkpt lat="45.96511" lon="4.87057">
        <ele>283</ele>
        <time>2017-04-03T09:27:06Z</time>
      </trkpt>
      <trkpt lat="45.96507" lon="4.87051">
        <ele>283</ele>
        <time>2017-04-03T09:27:08Z</time>
      </trkpt>
      <trkpt lat="45.96505" lon="4.87047">
        <ele>282</ele>
        <time>2017-04-03T09:27:09Z</time>
      </trkpt>
      <trkpt lat="45.96506" lon="4.87035">
        <ele>282</ele>
        <time>2017-04-03T09:27:14Z</time>
      </trkpt>
      <trkpt lat="45.96509" lon="4.87031">
        <ele>282</ele>
        <time>2017-04-03T09:27:15Z</time>
      </trkpt>
      <trkpt lat="45.96513" lon="4.87027">
        <ele>282</ele>
        <time>2017-04-03T09:27:16Z</time>
      </trkpt>
      <trkpt lat="45.96516" lon="4.87023">
        <ele>282</ele>
        <time>2017-04-03T09:27:17Z</time>
      </trkpt>
      <trkpt lat="45.96521" lon="4.8702">
        <ele>282</ele>
        <time>2017-04-03T09:27:18Z</time>
      </trkpt>
      <trkpt lat="45.96525" lon="4.87016">
        <ele>282</ele>
        <time>2017-04-03T09:27:19Z</time>
      </trkpt>
      <trkpt lat="45.96532" lon="4.87009">
        <ele>283</ele>
        <time>2017-04-03T09:27:21Z</time>
      </trkpt>
      <trkpt lat="45.96534" lon="4.87005">
        <ele>283</ele>
        <time>2017-04-03T09:27:22Z</time>
      </trkpt>
      <trkpt lat="45.96538" lon="4.86996">
        <ele>283</ele>
        <time>2017-04-03T09:27:24Z</time>
      </trkpt>
      <trkpt lat="45.96539" lon="4.86992">
        <ele>283</ele>
        <time>2017-04-03T09:27:25Z</time>
      </trkpt>
      <trkpt lat="45.96544" lon="4.86983">
        <ele>283</ele>
        <time>2017-04-03T09:27:28Z</time>
      </trkpt>
      <trkpt lat="45.96545" lon="4.8698">
        <ele>283</ele>
        <time>2017-04-03T09:27:29Z</time>
      </trkpt>
      <trkpt lat="45.9655" lon="4.86973">
        <ele>283</ele>
        <time>2017-04-03T09:27:31Z</time>
      </trkpt>
      <trkpt lat="45.96552" lon="4.86969">
        <ele>283</ele>
        <time>2017-04-03T09:27:32Z</time>
      </trkpt>
      <trkpt lat="45.96557" lon="4.86962">
        <ele>283</ele>
        <time>2017-04-03T09:27:34Z</time>
      </trkpt>
      <trkpt lat="45.9656" lon="4.86958">
        <ele>283</ele>
        <time>2017-04-03T09:27:35Z</time>
      </trkpt>
      <trkpt lat="45.96563" lon="4.86953">
        <ele>283</ele>
        <time>2017-04-03T09:27:36Z</time>
      </trkpt>
      <trkpt lat="45.96566" lon="4.86948">
        <ele>284</ele>
        <time>2017-04-03T09:27:37Z</time>
      </trkpt>
      <trkpt lat="45.96572" lon="4.86939">
        <ele>284</ele>
        <time>2017-04-03T09:27:39Z</time>
      </trkpt>
      <trkpt lat="45.96574" lon="4.86935">
        <ele>284</ele>
        <time>2017-04-03T09:27:40Z</time>
      </trkpt>
      <trkpt lat="45.9658" lon="4.86926">
        <ele>284</ele>
        <time>2017-04-03T09:27:42Z</time>
      </trkpt>
      <trkpt lat="45.96583" lon="4.86922">
        <ele>285</ele>
        <time>2017-04-03T09:27:43Z</time>
      </trkpt>
      <trkpt lat="45.96588" lon="4.86913">
        <ele>285</ele>
        <time>2017-04-03T09:27:45Z</time>
      </trkpt>
      <trkpt lat="45.9659" lon="4.86909">
        <ele>286</ele>
        <time>2017-04-03T09:27:46Z</time>
      </trkpt>
      <trkpt lat="45.96595" lon="4.86903">
        <ele>286</ele>
        <time>2017-04-03T09:27:48Z</time>
      </trkpt>
      <trkpt lat="45.96596" lon="4.86899">
        <ele>286</ele>
        <time>2017-04-03T09:27:49Z</time>
      </trkpt>
      <trkpt lat="45.96601" lon="4.86889">
        <ele>287</ele>
        <time>2017-04-03T09:27:52Z</time>
      </trkpt>
      <trkpt lat="45.96603" lon="4.86884">
        <ele>287</ele>
        <time>2017-04-03T09:27:53Z</time>
      </trkpt>
      <trkpt lat="45.96608" lon="4.86876">
        <ele>287</ele>
        <time>2017-04-03T09:27:55Z</time>
      </trkpt>
      <trkpt lat="45.96611" lon="4.86872">
        <ele>287</ele>
        <time>2017-04-03T09:27:56Z</time>
      </trkpt>
      <trkpt lat="45.96616" lon="4.86863">
        <ele>287</ele>
        <time>2017-04-03T09:27:58Z</time>
      </trkpt>
      <trkpt lat="45.96619" lon="4.86859">
        <ele>287</ele>
        <time>2017-04-03T09:27:59Z</time>
      </trkpt>
      <trkpt lat="45.96624" lon="4.86852">
        <ele>287</ele>
        <time>2017-04-03T09:28:01Z</time>
      </trkpt>
      <trkpt lat="45.96626" lon="4.86848">
        <ele>287</ele>
        <time>2017-04-03T09:28:02Z</time>
      </trkpt>
      <trkpt lat="45.96632" lon="4.86838">
        <ele>287</ele>
        <time>2017-04-03T09:28:04Z</time>
      </trkpt>
      <trkpt lat="45.96634" lon="4.86834">
        <ele>287</ele>
        <time>2017-04-03T09:28:05Z</time>
      </trkpt>
      <trkpt lat="45.96639" lon="4.86825">
        <ele>288</ele>
        <time>2017-04-03T09:28:07Z</time>
      </trkpt>
      <trkpt lat="45.96642" lon="4.86821">
        <ele>288</ele>
        <time>2017-04-03T09:28:08Z</time>
      </trkpt>
      <trkpt lat="45.96647" lon="4.86812">
        <ele>288</ele>
        <time>2017-04-03T09:28:10Z</time>
      </trkpt>
      <trkpt lat="45.9665" lon="4.86808">
        <ele>288</ele>
        <time>2017-04-03T09:28:11Z</time>
      </trkpt>
      <trkpt lat="45.96652" lon="4.86803">
        <ele>288</ele>
        <time>2017-04-03T09:28:12Z</time>
      </trkpt>
      <trkpt lat="45.96656" lon="4.86797">
        <ele>288</ele>
        <time>2017-04-03T09:28:13Z</time>
      </trkpt>
      <trkpt lat="45.96662" lon="4.86788">
        <ele>288</ele>
        <time>2017-04-03T09:28:15Z</time>
      </trkpt>
      <trkpt lat="45.96665" lon="4.86783">
        <ele>288</ele>
        <time>2017-04-03T09:28:16Z</time>
      </trkpt>
      <trkpt lat="45.96671" lon="4.86774">
        <ele>289</ele>
        <time>2017-04-03T09:28:18Z</time>
      </trkpt>
      <trkpt lat="45.96674" lon="4.86769">
        <ele>289</ele>
        <time>2017-04-03T09:28:19Z</time>
      </trkpt>
      <trkpt lat="45.9668" lon="4.8676">
        <ele>289</ele>
        <time>2017-04-03T09:28:21Z</time>
      </trkpt>
      <trkpt lat="45.96683" lon="4.86756">
        <ele>289</ele>
        <time>2017-04-03T09:28:22Z</time>
      </trkpt>
      <trkpt lat="45.96688" lon="4.86747">
        <ele>289</ele>
        <time>2017-04-03T09:28:24Z</time>
      </trkpt>
      <trkpt lat="45.96691" lon="4.86743">
        <ele>289</ele>
        <time>2017-04-03T09:28:25Z</time>
      </trkpt>
      <trkpt lat="45.96695" lon="4.86733">
        <ele>289</ele>
        <time>2017-04-03T09:28:27Z</time>
      </trkpt>
      <trkpt lat="45.96698" lon="4.86729">
        <ele>289</ele>
        <time>2017-04-03T09:28:28Z</time>
      </trkpt>
      <trkpt lat="45.96704" lon="4.8672">
        <ele>289</ele>
        <time>2017-04-03T09:28:30Z</time>
      </trkpt>
      <trkpt lat="45.96706" lon="4.86715">
        <ele>289</ele>
        <time>2017-04-03T09:28:31Z</time>
      </trkpt>
      <trkpt lat="45.96711" lon="4.86706">
        <ele>289</ele>
        <time>2017-04-03T09:28:33Z</time>
      </trkpt>
      <trkpt lat="45.96714" lon="4.86701">
        <ele>289</ele>
        <time>2017-04-03T09:28:34Z</time>
      </trkpt>
      <trkpt lat="45.96719" lon="4.86692">
        <ele>289</ele>
        <time>2017-04-03T09:28:36Z</time>
      </trkpt>
      <trkpt lat="45.96721" lon="4.86688">
        <ele>289</ele>
        <time>2017-04-03T09:28:37Z</time>
      </trkpt>
      <trkpt lat="45.96727" lon="4.86679">
        <ele>289</ele>
        <time>2017-04-03T09:28:39Z</time>
      </trkpt>
      <trkpt lat="45.9673" lon="4.86675">
        <ele>290</ele>
        <time>2017-04-03T09:28:40Z</time>
      </trkpt>
      <trkpt lat="45.96737" lon="4.86666">
        <ele>290</ele>
        <time>2017-04-03T09:28:42Z</time>
      </trkpt>
      <trkpt lat="45.96741" lon="4.86663">
        <ele>290</ele>
        <time>2017-04-03T09:28:43Z</time>
      </trkpt>
      <trkpt lat="45.96749" lon="4.86661">
        <ele>290</ele>
        <time>2017-04-03T09:28:45Z</time>
      </trkpt>
      <trkpt lat="45.96754" lon="4.86662">
        <ele>290</ele>
        <time>2017-04-03T09:28:46Z</time>
      </trkpt>
      <trkpt lat="45.96761" lon="4.86668">
        <ele>290</ele>
        <time>2017-04-03T09:28:48Z</time>
      </trkpt>
      <trkpt lat="45.96765" lon="4.86671">
        <ele>290</ele>
        <time>2017-04-03T09:28:49Z</time>
      </trkpt>
      <trkpt lat="45.96771" lon="4.86677">
        <ele>289</ele>
        <time>2017-04-03T09:28:51Z</time>
      </trkpt>
      <trkpt lat="45.96775" lon="4.86681">
        <ele>289</ele>
        <time>2017-04-03T09:28:52Z</time>
      </trkpt>
      <trkpt lat="45.96782" lon="4.86687">
        <ele>289</ele>
        <time>2017-04-03T09:28:54Z</time>
      </trkpt>
      <trkpt lat="45.96785" lon="4.86691">
        <ele>289</ele>
        <time>2017-04-03T09:28:55Z</time>
      </trkpt>
      <trkpt lat="45.96791" lon="4.86698">
        <ele>289</ele>
        <time>2017-04-03T09:28:57Z</time>
      </trkpt>
      <trkpt lat="45.96794" lon="4.86701">
        <ele>289</ele>
        <time>2017-04-03T09:28:58Z</time>
      </trkpt>
      <trkpt lat="45.96801" lon="4.86708">
        <ele>289</ele>
        <time>2017-04-03T09:29:00Z</time>
      </trkpt>
      <trkpt lat="45.96805" lon="4.86711">
        <ele>289</ele>
        <time>2017-04-03T09:29:01Z</time>
      </trkpt>
      <trkpt lat="45.96812" lon="4.86717">
        <ele>289</ele>
        <time>2017-04-03T09:29:03Z</time>
      </trkpt>
      <trkpt lat="45.96816" lon="4.8672">
        <ele>289</ele>
        <time>2017-04-03T09:29:04Z</time>
      </trkpt>
      <trkpt lat="45.9682" lon="4.86724">
        <ele>289</ele>
        <time>2017-04-03T09:29:05Z</time>
      </trkpt>
      <trkpt lat="45.96824" lon="4.86727">
        <ele>289</ele>
        <time>2017-04-03T09:29:06Z</time>
      </trkpt>
      <trkpt lat="45.96831" lon="4.86735">
        <ele>289</ele>
        <time>2017-04-03T09:29:08Z</time>
      </trkpt>
      <trkpt lat="45.96834" lon="4.86738">
        <ele>289</ele>
        <time>2017-04-03T09:29:09Z</time>
      </trkpt>
      <trkpt lat="45.96841" lon="4.86744">
        <ele>289</ele>
        <time>2017-04-03T09:29:11Z</time>
      </trkpt>
      <trkpt lat="45.96844" lon="4.86747">
        <ele>289</ele>
        <time>2017-04-03T09:29:12Z</time>
      </trkpt>
      <trkpt lat="45.96851" lon="4.86753">
        <ele>289</ele>
        <time>2017-04-03T09:29:14Z</time>
      </trkpt>
      <trkpt lat="45.96854" lon="4.86757">
        <ele>289</ele>
        <time>2017-04-03T09:29:15Z</time>
      </trkpt>
      <trkpt lat="45.96859" lon="4.86761">
        <ele>289</ele>
        <time>2017-04-03T09:29:16Z</time>
      </trkpt>
      <trkpt lat="45.96863" lon="4.86765">
        <ele>289</ele>
        <time>2017-04-03T09:29:17Z</time>
      </trkpt>
      <trkpt lat="45.9687" lon="4.86772">
        <ele>289</ele>
        <time>2017-04-03T09:29:19Z</time>
      </trkpt>
      <trkpt lat="45.96875" lon="4.86776">
        <ele>289</ele>
        <time>2017-04-03T09:29:20Z</time>
      </trkpt>
      <trkpt lat="45.96879" lon="4.8678">
        <ele>289</ele>
        <time>2017-04-03T09:29:21Z</time>
      </trkpt>
      <trkpt lat="45.96883" lon="4.86783">
        <ele>289</ele>
        <time>2017-04-03T09:29:22Z</time>
      </trkpt>
      <trkpt lat="45.96887" lon="4.86787">
        <ele>289</ele>
        <time>2017-04-03T09:29:23Z</time>
      </trkpt>
      <trkpt lat="45.96892" lon="4.86792">
        <ele>289</ele>
        <time>2017-04-03T09:29:24Z</time>
      </trkpt>
      <trkpt lat="45.96897" lon="4.86796">
        <ele>289</ele>
        <time>2017-04-03T09:29:25Z</time>
      </trkpt>
      <trkpt lat="45.96902" lon="4.868">
        <ele>289</ele>
        <time>2017-04-03T09:29:26Z</time>
      </trkpt>
      <trkpt lat="45.96907" lon="4.86804">
        <ele>288</ele>
        <time>2017-04-03T09:29:27Z</time>
      </trkpt>
      <trkpt lat="45.96912" lon="4.86808">
        <ele>288</ele>
        <time>2017-04-03T09:29:28Z</time>
      </trkpt>
      <trkpt lat="45.96918" lon="4.86812">
        <ele>287</ele>
        <time>2017-04-03T09:29:29Z</time>
      </trkpt>
      <trkpt lat="45.96922" lon="4.86816">
        <ele>287</ele>
        <time>2017-04-03T09:29:30Z</time>
      </trkpt>
      <trkpt lat="45.96927" lon="4.8682">
        <ele>287</ele>
        <time>2017-04-03T09:29:31Z</time>
      </trkpt>
      <trkpt lat="45.96932" lon="4.86823">
        <ele>287</ele>
        <time>2017-04-03T09:29:32Z</time>
      </trkpt>
      <trkpt lat="45.96938" lon="4.86826">
        <ele>287</ele>
        <time>2017-04-03T09:29:33Z</time>
      </trkpt>
      <trkpt lat="45.96944" lon="4.8683">
        <ele>287</ele>
        <time>2017-04-03T09:29:34Z</time>
      </trkpt>
      <trkpt lat="45.9695" lon="4.86833">
        <ele>287</ele>
        <time>2017-04-03T09:29:35Z</time>
      </trkpt>
      <trkpt lat="45.96956" lon="4.86836">
        <ele>287</ele>
        <time>2017-04-03T09:29:36Z</time>
      </trkpt>
      <trkpt lat="45.96961" lon="4.86838">
        <ele>287</ele>
        <time>2017-04-03T09:29:37Z</time>
      </trkpt>
      <trkpt lat="45.96967" lon="4.8684">
        <ele>286</ele>
        <time>2017-04-03T09:29:38Z</time>
      </trkpt>
      <trkpt lat="45.96974" lon="4.86843">
        <ele>286</ele>
        <time>2017-04-03T09:29:39Z</time>
      </trkpt>
      <trkpt lat="45.96979" lon="4.86844">
        <ele>286</ele>
        <time>2017-04-03T09:29:40Z</time>
      </trkpt>
      <trkpt lat="45.96985" lon="4.86846">
        <ele>286</ele>
        <time>2017-04-03T09:29:41Z</time>
      </trkpt>
      <trkpt lat="45.96991" lon="4.86846">
        <ele>286</ele>
        <time>2017-04-03T09:29:42Z</time>
      </trkpt>
      <trkpt lat="45.96997" lon="4.86846">
        <ele>286</ele>
        <time>2017-04-03T09:29:43Z</time>
      </trkpt>
      <trkpt lat="45.97004" lon="4.86846">
        <ele>285</ele>
        <time>2017-04-03T09:29:44Z</time>
      </trkpt>
      <trkpt lat="45.97012" lon="4.86847">
        <ele>285</ele>
        <time>2017-04-03T09:29:45Z</time>
      </trkpt>
      <trkpt lat="45.97019" lon="4.86847">
        <ele>285</ele>
        <time>2017-04-03T09:29:46Z</time>
      </trkpt>
      <trkpt lat="45.97026" lon="4.86848">
        <ele>285</ele>
        <time>2017-04-03T09:29:47Z</time>
      </trkpt>
      <trkpt lat="45.97031" lon="4.86847">
        <ele>285</ele>
        <time>2017-04-03T09:29:48Z</time>
      </trkpt>
      <trkpt lat="45.97037" lon="4.86847">
        <ele>285</ele>
        <time>2017-04-03T09:29:49Z</time>
      </trkpt>
      <trkpt lat="45.97042" lon="4.86846">
        <ele>285</ele>
        <time>2017-04-03T09:29:50Z</time>
      </trkpt>
      <trkpt lat="45.97047" lon="4.86846">
        <ele>285</ele>
        <time>2017-04-03T09:29:51Z</time>
      </trkpt>
      <trkpt lat="45.97053" lon="4.86846">
        <ele>285</ele>
        <time>2017-04-03T09:29:52Z</time>
      </trkpt>
      <trkpt lat="45.97058" lon="4.86845">
        <ele>285</ele>
        <time>2017-04-03T09:29:53Z</time>
      </trkpt>
      <trkpt lat="45.97062" lon="4.86844">
        <ele>284</ele>
        <time>2017-04-03T09:29:54Z</time>
      </trkpt>
      <trkpt lat="45.97067" lon="4.86843">
        <ele>284</ele>
        <time>2017-04-03T09:29:55Z</time>
      </trkpt>
      <trkpt lat="45.97072" lon="4.86842">
        <ele>284</ele>
        <time>2017-04-03T09:29:56Z</time>
      </trkpt>
      <trkpt lat="45.97077" lon="4.86841">
        <ele>284</ele>
        <time>2017-04-03T09:29:57Z</time>
      </trkpt>
      <trkpt lat="45.97082" lon="4.8684">
        <ele>284</ele>
        <time>2017-04-03T09:29:58Z</time>
      </trkpt>
      <trkpt lat="45.97087" lon="4.8684">
        <ele>284</ele>
        <time>2017-04-03T09:29:59Z</time>
      </trkpt>
      <trkpt lat="45.97091" lon="4.86839">
        <ele>284</ele>
        <time>2017-04-03T09:30:00Z</time>
      </trkpt>
      <trkpt lat="45.971" lon="4.86837">
        <ele>284</ele>
        <time>2017-04-03T09:30:02Z</time>
      </trkpt>
      <trkpt lat="45.97105" lon="4.86835">
        <ele>284</ele>
        <time>2017-04-03T09:30:03Z</time>
      </trkpt>
      <trkpt lat="45.97109" lon="4.86834">
        <ele>284</ele>
        <time>2017-04-03T09:30:04Z</time>
      </trkpt>
      <trkpt lat="45.97114" lon="4.86832">
        <ele>283</ele>
        <time>2017-04-03T09:30:05Z</time>
      </trkpt>
      <trkpt lat="45.97122" lon="4.86829">
        <ele>283</ele>
        <time>2017-04-03T09:30:07Z</time>
      </trkpt>
      <trkpt lat="45.97127" lon="4.86828">
        <ele>283</ele>
        <time>2017-04-03T09:30:08Z</time>
      </trkpt>
      <trkpt lat="45.97131" lon="4.86826">
        <ele>283</ele>
        <time>2017-04-03T09:30:09Z</time>
      </trkpt>
      <trkpt lat="45.97136" lon="4.86824">
        <ele>283</ele>
        <time>2017-04-03T09:30:10Z</time>
      </trkpt>
      <trkpt lat="45.9714" lon="4.86821">
        <ele>283</ele>
        <time>2017-04-03T09:30:11Z</time>
      </trkpt>
      <trkpt lat="45.97145" lon="4.86819">
        <ele>283</ele>
        <time>2017-04-03T09:30:12Z</time>
      </trkpt>
      <trkpt lat="45.97153" lon="4.86815">
        <ele>283</ele>
        <time>2017-04-03T09:30:14Z</time>
      </trkpt>
      <trkpt lat="45.97157" lon="4.86812">
        <ele>283</ele>
        <time>2017-04-03T09:30:15Z</time>
      </trkpt>
      <trkpt lat="45.97162" lon="4.8681">
        <ele>283</ele>
        <time>2017-04-03T09:30:16Z</time>
      </trkpt>
      <trkpt lat="45.97166" lon="4.86808">
        <ele>283</ele>
        <time>2017-04-03T09:30:17Z</time>
      </trkpt>
      <trkpt lat="45.97174" lon="4.86805">
        <ele>283</ele>
        <time>2017-04-03T09:30:19Z</time>
      </trkpt>
      <trkpt lat="45.97179" lon="4.86803">
        <ele>284</ele>
        <time>2017-04-03T09:30:20Z</time>
      </trkpt>
      <trkpt lat="45.97184" lon="4.86801">
        <ele>284</ele>
        <time>2017-04-03T09:30:21Z</time>
      </trkpt>
      <trkpt lat="45.97189" lon="4.86799">
        <ele>284</ele>
        <time>2017-04-03T09:30:22Z</time>
      </trkpt>
      <trkpt lat="45.97194" lon="4.86797">
        <ele>284</ele>
        <time>2017-04-03T09:30:23Z</time>
      </trkpt>
      <trkpt lat="45.97199" lon="4.86795">
        <ele>284</ele>
        <time>2017-04-03T09:30:24Z</time>
      </trkpt>
      <trkpt lat="45.97204" lon="4.86793">
        <ele>284</ele>
        <time>2017-04-03T09:30:25Z</time>
      </trkpt>
      <trkpt lat="45.97209" lon="4.86791">
        <ele>284</ele>
        <time>2017-04-03T09:30:26Z</time>
      </trkpt>
      <trkpt lat="45.97214" lon="4.8679">
        <ele>284</ele>
        <time>2017-04-03T09:30:27Z</time>
      </trkpt>
      <trkpt lat="45.97219" lon="4.8679">
        <ele>284</ele>
        <time>2017-04-03T09:30:28Z</time>
      </trkpt>
      <trkpt lat="45.97227" lon="4.86793">
        <ele>284</ele>
        <time>2017-04-03T09:30:30Z</time>
      </trkpt>
      <trkpt lat="45.97231" lon="4.86795">
        <ele>284</ele>
        <time>2017-04-03T09:30:31Z</time>
      </trkpt>
      <trkpt lat="45.97236" lon="4.86797">
        <ele>284</ele>
        <time>2017-04-03T09:30:32Z</time>
      </trkpt>
      <trkpt lat="45.9724" lon="4.868">
        <ele>284</ele>
        <time>2017-04-03T09:30:33Z</time>
      </trkpt>
      <trkpt lat="45.97244" lon="4.86803">
        <ele>284</ele>
        <time>2017-04-03T09:30:34Z</time>
      </trkpt>
      <trkpt lat="45.97248" lon="4.86807">
        <ele>284</ele>
        <time>2017-04-03T09:30:35Z</time>
      </trkpt>
      <trkpt lat="45.97252" lon="4.86811">
        <ele>285</ele>
        <time>2017-04-03T09:30:36Z</time>
      </trkpt>
      <trkpt lat="45.97255" lon="4.86816">
        <ele>285</ele>
        <time>2017-04-03T09:30:37Z</time>
      </trkpt>
      <trkpt lat="45.97258" lon="4.86821">
        <ele>285</ele>
        <time>2017-04-03T09:30:38Z</time>
      </trkpt>
      <trkpt lat="45.9726" lon="4.86826">
        <ele>285</ele>
        <time>2017-04-03T09:30:39Z</time>
      </trkpt>
      <trkpt lat="45.97263" lon="4.86832">
        <ele>285</ele>
        <time>2017-04-03T09:30:40Z</time>
      </trkpt>
      <trkpt lat="45.97267" lon="4.86837">
        <ele>285</ele>
        <time>2017-04-03T09:30:41Z</time>
      </trkpt>
      <trkpt lat="45.9727" lon="4.86843">
        <ele>285</ele>
        <time>2017-04-03T09:30:42Z</time>
      </trkpt>
      <trkpt lat="45.97273" lon="4.86849">
        <ele>285</ele>
        <time>2017-04-03T09:30:43Z</time>
      </trkpt>
      <trkpt lat="45.97276" lon="4.86855">
        <ele>285</ele>
        <time>2017-04-03T09:30:44Z</time>
      </trkpt>
      <trkpt lat="45.97279" lon="4.8686">
        <ele>285</ele>
        <time>2017-04-03T09:30:45Z</time>
      </trkpt>
      <trkpt lat="45.97282" lon="4.86866">
        <ele>285</ele>
        <time>2017-04-03T09:30:46Z</time>
      </trkpt>
      <trkpt lat="45.97286" lon="4.86871">
        <ele>285</ele>
        <time>2017-04-03T09:30:47Z</time>
      </trkpt>
      <trkpt lat="45.97289" lon="4.86876">
        <ele>285</ele>
        <time>2017-04-03T09:30:48Z</time>
      </trkpt>
      <trkpt lat="45.97292" lon="4.86881">
        <ele>284</ele>
        <time>2017-04-03T09:30:49Z</time>
      </trkpt>
      <trkpt lat="45.97296" lon="4.86886">
        <ele>284</ele>
        <time>2017-04-03T09:30:50Z</time>
      </trkpt>
      <trkpt lat="45.973" lon="4.86891">
        <ele>284</ele>
        <time>2017-04-03T09:30:51Z</time>
      </trkpt>
      <trkpt lat="45.97303" lon="4.86896">
        <ele>284</ele>
        <time>2017-04-03T09:30:52Z</time>
      </trkpt>
      <trkpt lat="45.97307" lon="4.86901">
        <ele>284</ele>
        <time>2017-04-03T09:30:53Z</time>
      </trkpt>
      <trkpt lat="45.97311" lon="4.86906">
        <ele>284</ele>
        <time>2017-04-03T09:30:54Z</time>
      </trkpt>
      <trkpt lat="45.97314" lon="4.86911">
        <ele>284</ele>
        <time>2017-04-03T09:30:55Z</time>
      </trkpt>
      <trkpt lat="45.97318" lon="4.86915">
        <ele>284</ele>
        <time>2017-04-03T09:30:56Z</time>
      </trkpt>
      <trkpt lat="45.97322" lon="4.8692">
        <ele>284</ele>
        <time>2017-04-03T09:30:57Z</time>
      </trkpt>
      <trkpt lat="45.97325" lon="4.86923">
        <ele>284</ele>
        <time>2017-04-03T09:30:58Z</time>
      </trkpt>
      <trkpt lat="45.97329" lon="4.86928">
        <ele>284</ele>
        <time>2017-04-03T09:30:59Z</time>
      </trkpt>
      <trkpt lat="45.97333" lon="4.86934">
        <ele>284</ele>
        <time>2017-04-03T09:31:00Z</time>
      </trkpt>
      <trkpt lat="45.97337" lon="4.86939">
        <ele>284</ele>
        <time>2017-04-03T09:31:01Z</time>
      </trkpt>
      <trkpt lat="45.97341" lon="4.86945">
        <ele>284</ele>
        <time>2017-04-03T09:31:02Z</time>
      </trkpt>
      <trkpt lat="45.97345" lon="4.86951">
        <ele>284</ele>
        <time>2017-04-03T09:31:03Z</time>
      </trkpt>
      <trkpt lat="45.97349" lon="4.86956">
        <ele>284</ele>
        <time>2017-04-03T09:31:04Z</time>
      </trkpt>
      <trkpt lat="45.97353" lon="4.86961">
        <ele>285</ele>
        <time>2017-04-03T09:31:05Z</time>
      </trkpt>
      <trkpt lat="45.97357" lon="4.86966">
        <ele>285</ele>
        <time>2017-04-03T09:31:06Z</time>
      </trkpt>
      <trkpt lat="45.97361" lon="4.86971">
        <ele>285</ele>
        <time>2017-04-03T09:31:07Z</time>
      </trkpt>
      <trkpt lat="45.97366" lon="4.86976">
        <ele>285</ele>
        <time>2017-04-03T09:31:08Z</time>
      </trkpt>
      <trkpt lat="45.9737" lon="4.86981">
        <ele>285</ele>
        <time>2017-04-03T09:31:09Z</time>
      </trkpt>
      <trkpt lat="45.97375" lon="4.86986">
        <ele>285</ele>
        <time>2017-04-03T09:31:10Z</time>
      </trkpt>
      <trkpt lat="45.97379" lon="4.86991">
        <ele>285</ele>
        <time>2017-04-03T09:31:11Z</time>
      </trkpt>
      <trkpt lat="45.97383" lon="4.86996">
        <ele>285</ele>
        <time>2017-04-03T09:31:12Z</time>
      </trkpt>
      <trkpt lat="45.97387" lon="4.87">
        <ele>285</ele>
        <time>2017-04-03T09:31:13Z</time>
      </trkpt>
      <trkpt lat="45.97392" lon="4.87005">
        <ele>285</ele>
        <time>2017-04-03T09:31:14Z</time>
      </trkpt>
      <trkpt lat="45.97396" lon="4.8701">
        <ele>285</ele>
        <time>2017-04-03T09:31:15Z</time>
      </trkpt>
      <trkpt lat="45.97401" lon="4.87015">
        <ele>285</ele>
        <time>2017-04-03T09:31:16Z</time>
      </trkpt>
      <trkpt lat="45.97405" lon="4.87019">
        <ele>285</ele>
        <time>2017-04-03T09:31:17Z</time>
      </trkpt>
      <trkpt lat="45.97411" lon="4.87023">
        <ele>285</ele>
        <time>2017-04-03T09:31:18Z</time>
      </trkpt>
      <trkpt lat="45.97416" lon="4.87028">
        <ele>285</ele>
        <time>2017-04-03T09:31:19Z</time>
      </trkpt>
      <trkpt lat="45.97421" lon="4.87032">
        <ele>284</ele>
        <time>2017-04-03T09:31:20Z</time>
      </trkpt>
      <trkpt lat="45.97425" lon="4.87037">
        <ele>284</ele>
        <time>2017-04-03T09:31:21Z</time>
      </trkpt>
      <trkpt lat="45.97429" lon="4.87042">
        <ele>284</ele>
        <time>2017-04-03T09:31:22Z</time>
      </trkpt>
      <trkpt lat="45.97434" lon="4.87045">
        <ele>284</ele>
        <time>2017-04-03T09:31:23Z</time>
      </trkpt>
      <trkpt lat="45.97439" lon="4.8705">
        <ele>284</ele>
        <time>2017-04-03T09:31:24Z</time>
      </trkpt>
      <trkpt lat="45.97443" lon="4.87054">
        <ele>284</ele>
        <time>2017-04-03T09:31:25Z</time>
      </trkpt>
      <trkpt lat="45.97447" lon="4.87058">
        <ele>284</ele>
        <time>2017-04-03T09:31:26Z</time>
      </trkpt>
      <trkpt lat="45.97452" lon="4.87062">
        <ele>284</ele>
        <time>2017-04-03T09:31:27Z</time>
      </trkpt>
      <trkpt lat="45.97456" lon="4.87067">
        <ele>284</ele>
        <time>2017-04-03T09:31:28Z</time>
      </trkpt>
      <trkpt lat="45.9746" lon="4.87071">
        <ele>284</ele>
        <time>2017-04-03T09:31:29Z</time>
      </trkpt>
      <trkpt lat="45.97464" lon="4.87076">
        <ele>284</ele>
        <time>2017-04-03T09:31:30Z</time>
      </trkpt>
      <trkpt lat="45.97468" lon="4.87081">
        <ele>284</ele>
        <time>2017-04-03T09:31:31Z</time>
      </trkpt>
      <trkpt lat="45.97472" lon="4.87086">
        <ele>283</ele>
        <time>2017-04-03T09:31:32Z</time>
      </trkpt>
      <trkpt lat="45.97477" lon="4.87092">
        <ele>283</ele>
        <time>2017-04-03T09:31:33Z</time>
      </trkpt>
      <trkpt lat="45.97481" lon="4.87097">
        <ele>283</ele>
        <time>2017-04-03T09:31:34Z</time>
      </trkpt>
      <trkpt lat="45.97486" lon="4.87102">
        <ele>283</ele>
        <time>2017-04-03T09:31:35Z</time>
      </trkpt>
      <trkpt lat="45.9749" lon="4.87107">
        <ele>283</ele>
        <time>2017-04-03T09:31:36Z</time>
      </trkpt>
      <trkpt lat="45.97494" lon="4.87111">
        <ele>283</ele>
        <time>2017-04-03T09:31:37Z</time>
      </trkpt>
      <trkpt lat="45.97498" lon="4.87115">
        <ele>283</ele>
        <time>2017-04-03T09:31:38Z</time>
      </trkpt>
      <trkpt lat="45.97502" lon="4.87119">
        <ele>283</ele>
        <time>2017-04-03T09:31:39Z</time>
      </trkpt>
      <trkpt lat="45.97506" lon="4.87122">
        <ele>283</ele>
        <time>2017-04-03T09:31:40Z</time>
      </trkpt>
      <trkpt lat="45.97511" lon="4.87126">
        <ele>283</ele>
        <time>2017-04-03T09:31:41Z</time>
      </trkpt>
      <trkpt lat="45.97515" lon="4.87129">
        <ele>283</ele>
        <time>2017-04-03T09:31:42Z</time>
      </trkpt>
      <trkpt lat="45.97519" lon="4.87133">
        <ele>283</ele>
        <time>2017-04-03T09:31:43Z</time>
      </trkpt>
      <trkpt lat="45.97522" lon="4.87137">
        <ele>283</ele>
        <time>2017-04-03T09:31:44Z</time>
      </trkpt>
      <trkpt lat="45.97526" lon="4.87141">
        <ele>283</ele>
        <time>2017-04-03T09:31:45Z</time>
      </trkpt>
      <trkpt lat="45.97531" lon="4.87144">
        <ele>283</ele>
        <time>2017-04-03T09:31:46Z</time>
      </trkpt>
      <trkpt lat="45.97536" lon="4.87148">
        <ele>283</ele>
        <time>2017-04-03T09:31:47Z</time>
      </trkpt>
      <trkpt lat="45.9754" lon="4.87152">
        <ele>283</ele>
        <time>2017-04-03T09:31:48Z</time>
      </trkpt>
      <trkpt lat="45.97544" lon="4.87155">
        <ele>283</ele>
        <time>2017-04-03T09:31:49Z</time>
      </trkpt>
      <trkpt lat="45.97549" lon="4.87159">
        <ele>283</ele>
        <time>2017-04-03T09:31:50Z</time>
      </trkpt>
      <trkpt lat="45.97553" lon="4.87161">
        <ele>283</ele>
        <time>2017-04-03T09:31:51Z</time>
      </trkpt>
      <trkpt lat="45.97558" lon="4.87166">
        <ele>283</ele>
        <time>2017-04-03T09:31:52Z</time>
      </trkpt>
      <trkpt lat="45.97562" lon="4.87171">
        <ele>283</ele>
        <time>2017-04-03T09:31:53Z</time>
      </trkpt>
      <trkpt lat="45.97567" lon="4.87176">
        <ele>283</ele>
        <time>2017-04-03T09:31:54Z</time>
      </trkpt>
      <trkpt lat="45.97572" lon="4.87182">
        <ele>283</ele>
        <time>2017-04-03T09:31:55Z</time>
      </trkpt>
      <trkpt lat="45.97577" lon="4.87187">
        <ele>283</ele>
        <time>2017-04-03T09:31:56Z</time>
      </trkpt>
      <trkpt lat="45.97582" lon="4.87192">
        <ele>283</ele>
        <time>2017-04-03T09:31:57Z</time>
      </trkpt>
      <trkpt lat="45.97587" lon="4.87197">
        <ele>283</ele>
        <time>2017-04-03T09:31:58Z</time>
      </trkpt>
      <trkpt lat="45.97591" lon="4.87201">
        <ele>283</ele>
        <time>2017-04-03T09:31:59Z</time>
      </trkpt>
      <trkpt lat="45.97596" lon="4.87205">
        <ele>284</ele>
        <time>2017-04-03T09:32:00Z</time>
      </trkpt>
      <trkpt lat="45.97599" lon="4.87209">
        <ele>284</ele>
        <time>2017-04-03T09:32:01Z</time>
      </trkpt>
      <trkpt lat="45.97604" lon="4.87213">
        <ele>284</ele>
        <time>2017-04-03T09:32:02Z</time>
      </trkpt>
      <trkpt lat="45.97609" lon="4.87217">
        <ele>284</ele>
        <time>2017-04-03T09:32:03Z</time>
      </trkpt>
      <trkpt lat="45.97614" lon="4.87221">
        <ele>284</ele>
        <time>2017-04-03T09:32:04Z</time>
      </trkpt>
      <trkpt lat="45.97619" lon="4.87225">
        <ele>284</ele>
        <time>2017-04-03T09:32:05Z</time>
      </trkpt>
      <trkpt lat="45.97624" lon="4.87229">
        <ele>284</ele>
        <time>2017-04-03T09:32:06Z</time>
      </trkpt>
      <trkpt lat="45.97629" lon="4.87233">
        <ele>284</ele>
        <time>2017-04-03T09:32:07Z</time>
      </trkpt>
      <trkpt lat="45.97633" lon="4.87237">
        <ele>284</ele>
        <time>2017-04-03T09:32:08Z</time>
      </trkpt>
      <trkpt lat="45.97637" lon="4.87241">
        <ele>284</ele>
        <time>2017-04-03T09:32:09Z</time>
      </trkpt>
      <trkpt lat="45.97642" lon="4.87246">
        <ele>284</ele>
        <time>2017-04-03T09:32:10Z</time>
      </trkpt>
      <trkpt lat="45.97646" lon="4.8725">
        <ele>285</ele>
        <time>2017-04-03T09:32:11Z</time>
      </trkpt>
      <trkpt lat="45.97651" lon="4.87254">
        <ele>285</ele>
        <time>2017-04-03T09:32:12Z</time>
      </trkpt>
      <trkpt lat="45.97655" lon="4.87258">
        <ele>285</ele>
        <time>2017-04-03T09:32:13Z</time>
      </trkpt>
      <trkpt lat="45.9766" lon="4.87263">
        <ele>285</ele>
        <time>2017-04-03T09:32:14Z</time>
      </trkpt>
      <trkpt lat="45.97665" lon="4.87267">
        <ele>285</ele>
        <time>2017-04-03T09:32:15Z</time>
      </trkpt>
      <trkpt lat="45.97669" lon="4.87272">
        <ele>286</ele>
        <time>2017-04-03T09:32:16Z</time>
      </trkpt>
      <trkpt lat="45.97674" lon="4.87276">
        <ele>286</ele>
        <time>2017-04-03T09:32:17Z</time>
      </trkpt>
      <trkpt lat="45.97678" lon="4.8728">
        <ele>286</ele>
        <time>2017-04-03T09:32:18Z</time>
      </trkpt>
      <trkpt lat="45.97683" lon="4.87284">
        <ele>286</ele>
        <time>2017-04-03T09:32:19Z</time>
      </trkpt>
      <trkpt lat="45.97687" lon="4.87289">
        <ele>286</ele>
        <time>2017-04-03T09:32:20Z</time>
      </trkpt>
      <trkpt lat="45.97692" lon="4.87294">
        <ele>286</ele>
        <time>2017-04-03T09:32:21Z</time>
      </trkpt>
      <trkpt lat="45.97697" lon="4.87299">
        <ele>286</ele>
        <time>2017-04-03T09:32:22Z</time>
      </trkpt>
      <trkpt lat="45.97701" lon="4.87305">
        <ele>286</ele>
        <time>2017-04-03T09:32:23Z</time>
      </trkpt>
      <trkpt lat="45.97706" lon="4.87313">
        <ele>286</ele>
        <time>2017-04-03T09:32:24Z</time>
      </trkpt>
      <trkpt lat="45.97711" lon="4.87319">
        <ele>286</ele>
        <time>2017-04-03T09:32:25Z</time>
      </trkpt>
      <trkpt lat="45.97715" lon="4.87324">
        <ele>286</ele>
        <time>2017-04-03T09:32:26Z</time>
      </trkpt>
      <trkpt lat="45.97721" lon="4.8733">
        <ele>286</ele>
        <time>2017-04-03T09:32:27Z</time>
      </trkpt>
      <trkpt lat="45.97725" lon="4.87335">
        <ele>286</ele>
        <time>2017-04-03T09:32:28Z</time>
      </trkpt>
      <trkpt lat="45.9773" lon="4.8734">
        <ele>286</ele>
        <time>2017-04-03T09:32:29Z</time>
      </trkpt>
      <trkpt lat="45.97734" lon="4.87345">
        <ele>286</ele>
        <time>2017-04-03T09:32:30Z</time>
      </trkpt>
      <trkpt lat="45.97739" lon="4.8735">
        <ele>286</ele>
        <time>2017-04-03T09:32:31Z</time>
      </trkpt>
      <trkpt lat="45.97743" lon="4.87355">
        <ele>286</ele>
        <time>2017-04-03T09:32:32Z</time>
      </trkpt>
      <trkpt lat="45.97747" lon="4.87361">
        <ele>285</ele>
        <time>2017-04-03T09:32:33Z</time>
      </trkpt>
      <trkpt lat="45.9775" lon="4.87366">
        <ele>285</ele>
        <time>2017-04-03T09:32:34Z</time>
      </trkpt>
      <trkpt lat="45.97754" lon="4.87371">
        <ele>285</ele>
        <time>2017-04-03T09:32:35Z</time>
      </trkpt>
      <trkpt lat="45.97758" lon="4.87376">
        <ele>285</ele>
        <time>2017-04-03T09:32:36Z</time>
      </trkpt>
      <trkpt lat="45.97761" lon="4.87381">
        <ele>284</ele>
        <time>2017-04-03T09:32:37Z</time>
      </trkpt>
      <trkpt lat="45.97765" lon="4.87386">
        <ele>284</ele>
        <time>2017-04-03T09:32:38Z</time>
      </trkpt>
      <trkpt lat="45.97769" lon="4.87391">
        <ele>284</ele>
        <time>2017-04-03T09:32:39Z</time>
      </trkpt>
      <trkpt lat="45.97773" lon="4.87396">
        <ele>284</ele>
        <time>2017-04-03T09:32:40Z</time>
      </trkpt>
      <trkpt lat="45.97778" lon="4.874">
        <ele>284</ele>
        <time>2017-04-03T09:32:41Z</time>
      </trkpt>
      <trkpt lat="45.97782" lon="4.87404">
        <ele>284</ele>
        <time>2017-04-03T09:32:42Z</time>
      </trkpt>
      <trkpt lat="45.97786" lon="4.87409">
        <ele>284</ele>
        <time>2017-04-03T09:32:43Z</time>
      </trkpt>
      <trkpt lat="45.97791" lon="4.87414">
        <ele>284</ele>
        <time>2017-04-03T09:32:44Z</time>
      </trkpt>
      <trkpt lat="45.97796" lon="4.87419">
        <ele>283</ele>
        <time>2017-04-03T09:32:45Z</time>
      </trkpt>
      <trkpt lat="45.97801" lon="4.87424">
        <ele>283</ele>
        <time>2017-04-03T09:32:46Z</time>
      </trkpt>
      <trkpt lat="45.97807" lon="4.87429">
        <ele>283</ele>
        <time>2017-04-03T09:32:47Z</time>
      </trkpt>
      <trkpt lat="45.97812" lon="4.87435">
        <ele>282</ele>
        <time>2017-04-03T09:32:48Z</time>
      </trkpt>
      <trkpt lat="45.97817" lon="4.87441">
        <ele>282</ele>
        <time>2017-04-03T09:32:49Z</time>
      </trkpt>
      <trkpt lat="45.97822" lon="4.87447">
        <ele>282</ele>
        <time>2017-04-03T09:32:50Z</time>
      </trkpt>
      <trkpt lat="45.97828" lon="4.87453">
        <ele>282</ele>
        <time>2017-04-03T09:32:51Z</time>
      </trkpt>
      <trkpt lat="45.97834" lon="4.87459">
        <ele>281</ele>
        <time>2017-04-03T09:32:52Z</time>
      </trkpt>
      <trkpt lat="45.9784" lon="4.87463">
        <ele>281</ele>
        <time>2017-04-03T09:32:53Z</time>
      </trkpt>
      <trkpt lat="45.97845" lon="4.87469">
        <ele>281</ele>
        <time>2017-04-03T09:32:54Z</time>
      </trkpt>
      <trkpt lat="45.9785" lon="4.87475">
        <ele>281</ele>
        <time>2017-04-03T09:32:55Z</time>
      </trkpt>
      <trkpt lat="45.97855" lon="4.87481">
        <ele>281</ele>
        <time>2017-04-03T09:32:56Z</time>
      </trkpt>
      <trkpt lat="45.9786" lon="4.87486">
        <ele>281</ele>
        <time>2017-04-03T09:32:57Z</time>
      </trkpt>
      <trkpt lat="45.97865" lon="4.87491">
        <ele>280</ele>
        <time>2017-04-03T09:32:58Z</time>
      </trkpt>
      <trkpt lat="45.9787" lon="4.87496">
        <ele>280</ele>
        <time>2017-04-03T09:32:59Z</time>
      </trkpt>
      <trkpt lat="45.97876" lon="4.87502">
        <ele>281</ele>
        <time>2017-04-03T09:33:00Z</time>
      </trkpt>
      <trkpt lat="45.97882" lon="4.87506">
        <ele>281</ele>
        <time>2017-04-03T09:33:01Z</time>
      </trkpt>
      <trkpt lat="45.97887" lon="4.87509">
        <ele>281</ele>
        <time>2017-04-03T09:33:02Z</time>
      </trkpt>
      <trkpt lat="45.97893" lon="4.87512">
        <ele>280</ele>
        <time>2017-04-03T09:33:03Z</time>
      </trkpt>
      <trkpt lat="45.97898" lon="4.87515">
        <ele>280</ele>
        <time>2017-04-03T09:33:04Z</time>
      </trkpt>
      <trkpt lat="45.97903" lon="4.87518">
        <ele>280</ele>
        <time>2017-04-03T09:33:05Z</time>
      </trkpt>
      <trkpt lat="45.97908" lon="4.8752">
        <ele>280</ele>
        <time>2017-04-03T09:33:06Z</time>
      </trkpt>
      <trkpt lat="45.97914" lon="4.87523">
        <ele>280</ele>
        <time>2017-04-03T09:33:07Z</time>
      </trkpt>
      <trkpt lat="45.97919" lon="4.87525">
        <ele>279</ele>
        <time>2017-04-03T09:33:08Z</time>
      </trkpt>
      <trkpt lat="45.97924" lon="4.87527">
        <ele>279</ele>
        <time>2017-04-03T09:33:09Z</time>
      </trkpt>
      <trkpt lat="45.9793" lon="4.8753">
        <ele>279</ele>
        <time>2017-04-03T09:33:10Z</time>
      </trkpt>
      <trkpt lat="45.97935" lon="4.87532">
        <ele>279</ele>
        <time>2017-04-03T09:33:11Z</time>
      </trkpt>
      <trkpt lat="45.9794" lon="4.87534">
        <ele>279</ele>
        <time>2017-04-03T09:33:12Z</time>
      </trkpt>
      <trkpt lat="45.97945" lon="4.87536">
        <ele>279</ele>
        <time>2017-04-03T09:33:13Z</time>
      </trkpt>
      <trkpt lat="45.9795" lon="4.87538">
        <ele>279</ele>
        <time>2017-04-03T09:33:14Z</time>
      </trkpt>
      <trkpt lat="45.97955" lon="4.8754">
        <ele>279</ele>
        <time>2017-04-03T09:33:15Z</time>
      </trkpt>
      <trkpt lat="45.9796" lon="4.87543">
        <ele>279</ele>
        <time>2017-04-03T09:33:16Z</time>
      </trkpt>
      <trkpt lat="45.97964" lon="4.87546">
        <ele>279</ele>
        <time>2017-04-03T09:33:17Z</time>
      </trkpt>
      <trkpt lat="45.97969" lon="4.8755">
        <ele>279</ele>
        <time>2017-04-03T09:33:18Z</time>
      </trkpt>
      <trkpt lat="45.97974" lon="4.87554">
        <ele>279</ele>
        <time>2017-04-03T09:33:19Z</time>
      </trkpt>
      <trkpt lat="45.97978" lon="4.87557">
        <ele>279</ele>
        <time>2017-04-03T09:33:20Z</time>
      </trkpt>
      <trkpt lat="45.97982" lon="4.87562">
        <ele>279</ele>
        <time>2017-04-03T09:33:21Z</time>
      </trkpt>
      <trkpt lat="45.97984" lon="4.87568">
        <ele>279</ele>
        <time>2017-04-03T09:33:22Z</time>
      </trkpt>
      <trkpt lat="45.97987" lon="4.87574">
        <ele>280</ele>
        <time>2017-04-03T09:33:23Z</time>
      </trkpt>
      <trkpt lat="45.97991" lon="4.87581">
        <ele>280</ele>
        <time>2017-04-03T09:33:24Z</time>
      </trkpt>
      <trkpt lat="45.97994" lon="4.87586">
        <ele>280</ele>
        <time>2017-04-03T09:33:25Z</time>
      </trkpt>
      <trkpt lat="45.97997" lon="4.87592">
        <ele>280</ele>
        <time>2017-04-03T09:33:26Z</time>
      </trkpt>
      <trkpt lat="45.98" lon="4.87599">
        <ele>280</ele>
        <time>2017-04-03T09:33:27Z</time>
      </trkpt>
      <trkpt lat="45.98003" lon="4.87606">
        <ele>280</ele>
        <time>2017-04-03T09:33:28Z</time>
      </trkpt>
      <trkpt lat="45.98006" lon="4.87613">
        <ele>280</ele>
        <time>2017-04-03T09:33:29Z</time>
      </trkpt>
      <trkpt lat="45.98008" lon="4.8762">
        <ele>280</ele>
        <time>2017-04-03T09:33:30Z</time>
      </trkpt>
      <trkpt lat="45.9801" lon="4.87627">
        <ele>280</ele>
        <time>2017-04-03T09:33:31Z</time>
      </trkpt>
      <trkpt lat="45.98011" lon="4.87635">
        <ele>280</ele>
        <time>2017-04-03T09:33:32Z</time>
      </trkpt>
      <trkpt lat="45.98013" lon="4.87642">
        <ele>280</ele>
        <time>2017-04-03T09:33:33Z</time>
      </trkpt>
      <trkpt lat="45.98015" lon="4.87648">
        <ele>280</ele>
        <time>2017-04-03T09:33:34Z</time>
      </trkpt>
      <trkpt lat="45.98017" lon="4.87655">
        <ele>280</ele>
        <time>2017-04-03T09:33:35Z</time>
      </trkpt>
      <trkpt lat="45.98019" lon="4.87662">
        <ele>280</ele>
        <time>2017-04-03T09:33:36Z</time>
      </trkpt>
      <trkpt lat="45.98021" lon="4.87669">
        <ele>280</ele>
        <time>2017-04-03T09:33:37Z</time>
      </trkpt>
      <trkpt lat="45.98023" lon="4.87675">
        <ele>280</ele>
        <time>2017-04-03T09:33:38Z</time>
      </trkpt>
      <trkpt lat="45.98024" lon="4.87682">
        <ele>280</ele>
        <time>2017-04-03T09:33:39Z</time>
      </trkpt>
      <trkpt lat="45.98027" lon="4.87688">
        <ele>280</ele>
        <time>2017-04-03T09:33:40Z</time>
      </trkpt>
      <trkpt lat="45.98029" lon="4.87695">
        <ele>280</ele>
        <time>2017-04-03T09:33:41Z</time>
      </trkpt>
      <trkpt lat="45.98031" lon="4.87702">
        <ele>280</ele>
        <time>2017-04-03T09:33:42Z</time>
      </trkpt>
      <trkpt lat="45.98033" lon="4.87709">
        <ele>279</ele>
        <time>2017-04-03T09:33:43Z</time>
      </trkpt>
      <trkpt lat="45.98035" lon="4.87717">
        <ele>279</ele>
        <time>2017-04-03T09:33:44Z</time>
      </trkpt>
      <trkpt lat="45.98037" lon="4.87725">
        <ele>279</ele>
        <time>2017-04-03T09:33:45Z</time>
      </trkpt>
      <trkpt lat="45.9804" lon="4.87733">
        <ele>279</ele>
        <time>2017-04-03T09:33:46Z</time>
      </trkpt>
      <trkpt lat="45.98043" lon="4.87741">
        <ele>280</ele>
        <time>2017-04-03T09:33:47Z</time>
      </trkpt>
      <trkpt lat="45.98046" lon="4.87749">
        <ele>280</ele>
        <time>2017-04-03T09:33:48Z</time>
      </trkpt>
      <trkpt lat="45.98048" lon="4.87757">
        <ele>280</ele>
        <time>2017-04-03T09:33:49Z</time>
      </trkpt>
      <trkpt lat="45.98051" lon="4.87764">
        <ele>280</ele>
        <time>2017-04-03T09:33:50Z</time>
      </trkpt>
      <trkpt lat="45.98053" lon="4.87771">
        <ele>280</ele>
        <time>2017-04-03T09:33:51Z</time>
      </trkpt>
      <trkpt lat="45.98055" lon="4.87779">
        <ele>280</ele>
        <time>2017-04-03T09:33:52Z</time>
      </trkpt>
      <trkpt lat="45.98058" lon="4.87787">
        <ele>280</ele>
        <time>2017-04-03T09:33:53Z</time>
      </trkpt>
      <trkpt lat="45.98061" lon="4.87794">
        <ele>280</ele>
        <time>2017-04-03T09:33:54Z</time>
      </trkpt>
      <trkpt lat="45.98063" lon="4.87802">
        <ele>280</ele>
        <time>2017-04-03T09:33:55Z</time>
      </trkpt>
      <trkpt lat="45.98065" lon="4.87809">
        <ele>280</ele>
        <time>2017-04-03T09:33:56Z</time>
      </trkpt>
      <trkpt lat="45.98067" lon="4.87816">
        <ele>280</ele>
        <time>2017-04-03T09:33:57Z</time>
      </trkpt>
      <trkpt lat="45.98069" lon="4.87823">
        <ele>279</ele>
        <time>2017-04-03T09:33:58Z</time>
      </trkpt>
      <trkpt lat="45.98071" lon="4.8783">
        <ele>279</ele>
        <time>2017-04-03T09:33:59Z</time>
      </trkpt>
      <trkpt lat="45.98073" lon="4.87837">
        <ele>279</ele>
        <time>2017-04-03T09:34:00Z</time>
      </trkpt>
      <trkpt lat="45.98076" lon="4.87845">
        <ele>279</ele>
        <time>2017-04-03T09:34:01Z</time>
      </trkpt>
      <trkpt lat="45.98077" lon="4.87853">
        <ele>280</ele>
        <time>2017-04-03T09:34:02Z</time>
      </trkpt>
      <trkpt lat="45.98079" lon="4.87861">
        <ele>280</ele>
        <time>2017-04-03T09:34:03Z</time>
      </trkpt>
      <trkpt lat="45.98081" lon="4.87869">
        <ele>280</ele>
        <time>2017-04-03T09:34:04Z</time>
      </trkpt>
      <trkpt lat="45.98083" lon="4.87876">
        <ele>280</ele>
        <time>2017-04-03T09:34:05Z</time>
      </trkpt>
      <trkpt lat="45.98086" lon="4.87883">
        <ele>278</ele>
        <time>2017-04-03T09:34:06Z</time>
      </trkpt>
      <trkpt lat="45.98088" lon="4.87891">
        <ele>278</ele>
        <time>2017-04-03T09:34:07Z</time>
      </trkpt>
      <trkpt lat="45.9809" lon="4.87899">
        <ele>278</ele>
        <time>2017-04-03T09:34:08Z</time>
      </trkpt>
      <trkpt lat="45.98092" lon="4.87907">
        <ele>278</ele>
        <time>2017-04-03T09:34:09Z</time>
      </trkpt>
      <trkpt lat="45.98094" lon="4.87915">
        <ele>278</ele>
        <time>2017-04-03T09:34:10Z</time>
      </trkpt>
      <trkpt lat="45.98097" lon="4.87923">
        <ele>278</ele>
        <time>2017-04-03T09:34:11Z</time>
      </trkpt>
      <trkpt lat="45.98099" lon="4.87931">
        <ele>277</ele>
        <time>2017-04-03T09:34:12Z</time>
      </trkpt>
      <trkpt lat="45.98102" lon="4.8794">
        <ele>277</ele>
        <time>2017-04-03T09:34:13Z</time>
      </trkpt>
      <trkpt lat="45.98104" lon="4.87948">
        <ele>277</ele>
        <time>2017-04-03T09:34:14Z</time>
      </trkpt>
      <trkpt lat="45.98107" lon="4.87957">
        <ele>277</ele>
        <time>2017-04-03T09:34:15Z</time>
      </trkpt>
      <trkpt lat="45.9811" lon="4.87966">
        <ele>277</ele>
        <time>2017-04-03T09:34:16Z</time>
      </trkpt>
      <trkpt lat="45.98113" lon="4.87974">
        <ele>277</ele>
        <time>2017-04-03T09:34:17Z</time>
      </trkpt>
      <trkpt lat="45.98116" lon="4.87983">
        <ele>277</ele>
        <time>2017-04-03T09:34:18Z</time>
      </trkpt>
      <trkpt lat="45.98119" lon="4.87992">
        <ele>277</ele>
        <time>2017-04-03T09:34:19Z</time>
      </trkpt>
      <trkpt lat="45.98121" lon="4.88002">
        <ele>276</ele>
        <time>2017-04-03T09:34:20Z</time>
      </trkpt>
      <trkpt lat="45.98124" lon="4.88011">
        <ele>276</ele>
        <time>2017-04-03T09:34:21Z</time>
      </trkpt>
      <trkpt lat="45.98127" lon="4.8802">
        <ele>276</ele>
        <time>2017-04-03T09:34:22Z</time>
      </trkpt>
      <trkpt lat="45.9813" lon="4.88029">
        <ele>276</ele>
        <time>2017-04-03T09:34:23Z</time>
      </trkpt>
      <trkpt lat="45.98131" lon="4.8804">
        <ele>276</ele>
        <time>2017-04-03T09:34:24Z</time>
      </trkpt>
      <trkpt lat="45.98133" lon="4.88048">
        <ele>276</ele>
        <time>2017-04-03T09:34:25Z</time>
      </trkpt>
      <trkpt lat="45.98136" lon="4.88057">
        <ele>275</ele>
        <time>2017-04-03T09:34:26Z</time>
      </trkpt>
      <trkpt lat="45.98138" lon="4.88066">
        <ele>275</ele>
        <time>2017-04-03T09:34:27Z</time>
      </trkpt>
      <trkpt lat="45.98142" lon="4.88074">
        <ele>275</ele>
        <time>2017-04-03T09:34:28Z</time>
      </trkpt>
      <trkpt lat="45.98144" lon="4.88083">
        <ele>275</ele>
        <time>2017-04-03T09:34:29Z</time>
      </trkpt>
      <trkpt lat="45.98147" lon="4.88092">
        <ele>274</ele>
        <time>2017-04-03T09:34:30Z</time>
      </trkpt>
      <trkpt lat="45.9815" lon="4.88101">
        <ele>274</ele>
        <time>2017-04-03T09:34:31Z</time>
      </trkpt>
      <trkpt lat="45.98152" lon="4.8811">
        <ele>274</ele>
        <time>2017-04-03T09:34:32Z</time>
      </trkpt>
      <trkpt lat="45.98155" lon="4.88119">
        <ele>274</ele>
        <time>2017-04-03T09:34:33Z</time>
      </trkpt>
      <trkpt lat="45.98158" lon="4.88128">
        <ele>274</ele>
        <time>2017-04-03T09:34:34Z</time>
      </trkpt>
      <trkpt lat="45.98161" lon="4.88137">
        <ele>274</ele>
        <time>2017-04-03T09:34:35Z</time>
      </trkpt>
      <trkpt lat="45.98164" lon="4.88146">
        <ele>274</ele>
        <time>2017-04-03T09:34:36Z</time>
      </trkpt>
      <trkpt lat="45.98168" lon="4.88156">
        <ele>273</ele>
        <time>2017-04-03T09:34:37Z</time>
      </trkpt>
      <trkpt lat="45.98171" lon="4.88165">
        <ele>273</ele>
        <time>2017-04-03T09:34:38Z</time>
      </trkpt>
      <trkpt lat="45.98173" lon="4.88175">
        <ele>273</ele>
        <time>2017-04-03T09:34:39Z</time>
      </trkpt>
      <trkpt lat="45.98176" lon="4.88183">
        <ele>273</ele>
        <time>2017-04-03T09:34:40Z</time>
      </trkpt>
      <trkpt lat="45.98179" lon="4.88192">
        <ele>273</ele>
        <time>2017-04-03T09:34:41Z</time>
      </trkpt>
      <trkpt lat="45.98182" lon="4.88201">
        <ele>273</ele>
        <time>2017-04-03T09:34:42Z</time>
      </trkpt>
      <trkpt lat="45.98185" lon="4.88209">
        <ele>273</ele>
        <time>2017-04-03T09:34:43Z</time>
      </trkpt>
      <trkpt lat="45.98187" lon="4.88217">
        <ele>273</ele>
        <time>2017-04-03T09:34:44Z</time>
      </trkpt>
      <trkpt lat="45.9819" lon="4.88225">
        <ele>273</ele>
        <time>2017-04-03T09:34:45Z</time>
      </trkpt>
      <trkpt lat="45.98193" lon="4.88233">
        <ele>273</ele>
        <time>2017-04-03T09:34:46Z</time>
      </trkpt>
      <trkpt lat="45.98195" lon="4.88241">
        <ele>273</ele>
        <time>2017-04-03T09:34:47Z</time>
      </trkpt>
      <trkpt lat="45.98197" lon="4.88248">
        <ele>273</ele>
        <time>2017-04-03T09:34:48Z</time>
      </trkpt>
      <trkpt lat="45.98198" lon="4.88256">
        <ele>274</ele>
        <time>2017-04-03T09:34:49Z</time>
      </trkpt>
      <trkpt lat="45.98201" lon="4.88264">
        <ele>274</ele>
        <time>2017-04-03T09:34:50Z</time>
      </trkpt>
      <trkpt lat="45.98203" lon="4.88272">
        <ele>274</ele>
        <time>2017-04-03T09:34:51Z</time>
      </trkpt>
      <trkpt lat="45.98204" lon="4.8828">
        <ele>274</ele>
        <time>2017-04-03T09:34:52Z</time>
      </trkpt>
      <trkpt lat="45.98206" lon="4.88287">
        <ele>274</ele>
        <time>2017-04-03T09:34:53Z</time>
      </trkpt>
      <trkpt lat="45.98207" lon="4.88294">
        <ele>274</ele>
        <time>2017-04-03T09:34:54Z</time>
      </trkpt>
      <trkpt lat="45.98208" lon="4.88299">
        <ele>274</ele>
        <time>2017-04-03T09:34:55Z</time>
      </trkpt>
      <trkpt lat="45.98209" lon="4.88306">
        <ele>274</ele>
        <time>2017-04-03T09:34:56Z</time>
      </trkpt>
      <trkpt lat="45.98209" lon="4.88312">
        <ele>274</ele>
        <time>2017-04-03T09:34:57Z</time>
      </trkpt>
      <trkpt lat="45.98209" lon="4.88319">
        <ele>274</ele>
        <time>2017-04-03T09:34:58Z</time>
      </trkpt>
      <trkpt lat="45.9821" lon="4.88326">
        <ele>274</ele>
        <time>2017-04-03T09:34:59Z</time>
      </trkpt>
      <trkpt lat="45.9821" lon="4.88332">
        <ele>274</ele>
        <time>2017-04-03T09:35:00Z</time>
      </trkpt>
      <trkpt lat="45.98211" lon="4.88339">
        <ele>275</ele>
        <time>2017-04-03T09:35:01Z</time>
      </trkpt>
      <trkpt lat="45.98212" lon="4.88345">
        <ele>275</ele>
        <time>2017-04-03T09:35:02Z</time>
      </trkpt>
      <trkpt lat="45.98213" lon="4.88352">
        <ele>275</ele>
        <time>2017-04-03T09:35:03Z</time>
      </trkpt>
      <trkpt lat="45.98213" lon="4.88359">
        <ele>275</ele>
        <time>2017-04-03T09:35:04Z</time>
      </trkpt>
      <trkpt lat="45.98214" lon="4.88366">
        <ele>275</ele>
        <time>2017-04-03T09:35:05Z</time>
      </trkpt>
      <trkpt lat="45.98215" lon="4.88373">
        <ele>275</ele>
        <time>2017-04-03T09:35:06Z</time>
      </trkpt>
      <trkpt lat="45.98216" lon="4.88381">
        <ele>275</ele>
        <time>2017-04-03T09:35:07Z</time>
      </trkpt>
      <trkpt lat="45.98216" lon="4.88388">
        <ele>275</ele>
        <time>2017-04-03T09:35:08Z</time>
      </trkpt>
      <trkpt lat="45.98217" lon="4.88396">
        <ele>275</ele>
        <time>2017-04-03T09:35:09Z</time>
      </trkpt>
      <trkpt lat="45.98219" lon="4.88403">
        <ele>275</ele>
        <time>2017-04-03T09:35:10Z</time>
      </trkpt>
      <trkpt lat="45.98221" lon="4.88409">
        <ele>275</ele>
        <time>2017-04-03T09:35:11Z</time>
      </trkpt>
      <trkpt lat="45.98222" lon="4.88416">
        <ele>275</ele>
        <time>2017-04-03T09:35:12Z</time>
      </trkpt>
      <trkpt lat="45.98224" lon="4.88422">
        <ele>276</ele>
        <time>2017-04-03T09:35:13Z</time>
      </trkpt>
      <trkpt lat="45.98225" lon="4.88429">
        <ele>276</ele>
        <time>2017-04-03T09:35:14Z</time>
      </trkpt>
      <trkpt lat="45.98227" lon="4.88435">
        <ele>276</ele>
        <time>2017-04-03T09:35:15Z</time>
      </trkpt>
      <trkpt lat="45.98229" lon="4.88447">
        <ele>276</ele>
        <time>2017-04-03T09:35:17Z</time>
      </trkpt>
      <trkpt lat="45.98231" lon="4.88453">
        <ele>276</ele>
        <time>2017-04-03T09:35:18Z</time>
      </trkpt>
      <trkpt lat="45.98233" lon="4.88465">
        <ele>276</ele>
        <time>2017-04-03T09:35:20Z</time>
      </trkpt>
      <trkpt lat="45.98235" lon="4.88471">
        <ele>276</ele>
        <time>2017-04-03T09:35:21Z</time>
      </trkpt>
      <trkpt lat="45.98237" lon="4.88478">
        <ele>276</ele>
        <time>2017-04-03T09:35:22Z</time>
      </trkpt>
      <trkpt lat="45.98238" lon="4.88484">
        <ele>276</ele>
        <time>2017-04-03T09:35:23Z</time>
      </trkpt>
      <trkpt lat="45.9824" lon="4.88491">
        <ele>276</ele>
        <time>2017-04-03T09:35:24Z</time>
      </trkpt>
      <trkpt lat="45.98242" lon="4.88497">
        <ele>277</ele>
        <time>2017-04-03T09:35:25Z</time>
      </trkpt>
      <trkpt lat="45.98245" lon="4.88504">
        <ele>277</ele>
        <time>2017-04-03T09:35:26Z</time>
      </trkpt>
      <trkpt lat="45.98247" lon="4.8851">
        <ele>277</ele>
        <time>2017-04-03T09:35:27Z</time>
      </trkpt>
      <trkpt lat="45.98248" lon="4.88517">
        <ele>276</ele>
        <time>2017-04-03T09:35:28Z</time>
      </trkpt>
      <trkpt lat="45.9825" lon="4.88523">
        <ele>276</ele>
        <time>2017-04-03T09:35:29Z</time>
      </trkpt>
      <trkpt lat="45.98252" lon="4.88529">
        <ele>277</ele>
        <time>2017-04-03T09:35:30Z</time>
      </trkpt>
      <trkpt lat="45.98253" lon="4.88535">
        <ele>276</ele>
        <time>2017-04-03T09:35:31Z</time>
      </trkpt>
      <trkpt lat="45.98254" lon="4.88542">
        <ele>276</ele>
        <time>2017-04-03T09:35:32Z</time>
      </trkpt>
      <trkpt lat="45.98255" lon="4.88549">
        <ele>276</ele>
        <time>2017-04-03T09:35:33Z</time>
      </trkpt>
      <trkpt lat="45.98256" lon="4.88555">
        <ele>276</ele>
        <time>2017-04-03T09:35:34Z</time>
      </trkpt>
      <trkpt lat="45.98258" lon="4.88562">
        <ele>276</ele>
        <time>2017-04-03T09:35:35Z</time>
      </trkpt>
      <trkpt lat="45.9826" lon="4.88568">
        <ele>276</ele>
        <time>2017-04-03T09:35:36Z</time>
      </trkpt>
      <trkpt lat="45.98262" lon="4.88575">
        <ele>276</ele>
        <time>2017-04-03T09:35:37Z</time>
      </trkpt>
      <trkpt lat="45.98264" lon="4.88581">
        <ele>276</ele>
        <time>2017-04-03T09:35:38Z</time>
      </trkpt>
      <trkpt lat="45.98266" lon="4.88588">
        <ele>275</ele>
        <time>2017-04-03T09:35:39Z</time>
      </trkpt>
      <trkpt lat="45.98268" lon="4.88594">
        <ele>275</ele>
        <time>2017-04-03T09:35:40Z</time>
      </trkpt>
      <trkpt lat="45.98269" lon="4.88601">
        <ele>276</ele>
        <time>2017-04-03T09:35:41Z</time>
      </trkpt>
      <trkpt lat="45.98271" lon="4.88607">
        <ele>276</ele>
        <time>2017-04-03T09:35:42Z</time>
      </trkpt>
      <trkpt lat="45.98272" lon="4.88614">
        <ele>276</ele>
        <time>2017-04-03T09:35:43Z</time>
      </trkpt>
      <trkpt lat="45.98274" lon="4.88621">
        <ele>276</ele>
        <time>2017-04-03T09:35:44Z</time>
      </trkpt>
      <trkpt lat="45.98276" lon="4.88628">
        <ele>276</ele>
        <time>2017-04-03T09:35:45Z</time>
      </trkpt>
      <trkpt lat="45.98278" lon="4.88636">
        <ele>276</ele>
        <time>2017-04-03T09:35:46Z</time>
      </trkpt>
      <trkpt lat="45.98279" lon="4.88643">
        <ele>276</ele>
        <time>2017-04-03T09:35:47Z</time>
      </trkpt>
      <trkpt lat="45.9828" lon="4.88651">
        <ele>276</ele>
        <time>2017-04-03T09:35:48Z</time>
      </trkpt>
      <trkpt lat="45.98282" lon="4.88658">
        <ele>276</ele>
        <time>2017-04-03T09:35:49Z</time>
      </trkpt>
      <trkpt lat="45.98283" lon="4.88666">
        <ele>276</ele>
        <time>2017-04-03T09:35:50Z</time>
      </trkpt>
      <trkpt lat="45.98284" lon="4.88673">
        <ele>276</ele>
        <time>2017-04-03T09:35:51Z</time>
      </trkpt>
      <trkpt lat="45.98286" lon="4.8868">
        <ele>276</ele>
        <time>2017-04-03T09:35:52Z</time>
      </trkpt>
      <trkpt lat="45.98288" lon="4.88687">
        <ele>276</ele>
        <time>2017-04-03T09:35:53Z</time>
      </trkpt>
      <trkpt lat="45.9829" lon="4.88694">
        <ele>276</ele>
        <time>2017-04-03T09:35:54Z</time>
      </trkpt>
      <trkpt lat="45.98291" lon="4.887">
        <ele>276</ele>
        <time>2017-04-03T09:35:55Z</time>
      </trkpt>
      <trkpt lat="45.98293" lon="4.88707">
        <ele>276</ele>
        <time>2017-04-03T09:35:56Z</time>
      </trkpt>
      <trkpt lat="45.98295" lon="4.88713">
        <ele>276</ele>
        <time>2017-04-03T09:35:57Z</time>
      </trkpt>
      <trkpt lat="45.98297" lon="4.88719">
        <ele>276</ele>
        <time>2017-04-03T09:35:58Z</time>
      </trkpt>
      <trkpt lat="45.98299" lon="4.88726">
        <ele>276</ele>
        <time>2017-04-03T09:35:59Z</time>
      </trkpt>
      <trkpt lat="45.98301" lon="4.88733">
        <ele>276</ele>
        <time>2017-04-03T09:36:00Z</time>
      </trkpt>
      <trkpt lat="45.98303" lon="4.8874">
        <ele>276</ele>
        <time>2017-04-03T09:36:01Z</time>
      </trkpt>
      <trkpt lat="45.98305" lon="4.88746">
        <ele>276</ele>
        <time>2017-04-03T09:36:02Z</time>
      </trkpt>
      <trkpt lat="45.98306" lon="4.88753">
        <ele>276</ele>
        <time>2017-04-03T09:36:03Z</time>
      </trkpt>
      <trkpt lat="45.98308" lon="4.8876">
        <ele>276</ele>
        <time>2017-04-03T09:36:04Z</time>
      </trkpt>
      <trkpt lat="45.98309" lon="4.88768">
        <ele>277</ele>
        <time>2017-04-03T09:36:05Z</time>
      </trkpt>
      <trkpt lat="45.9831" lon="4.88775">
        <ele>277</ele>
        <time>2017-04-03T09:36:06Z</time>
      </trkpt>
      <trkpt lat="45.98312" lon="4.88782">
        <ele>277</ele>
        <time>2017-04-03T09:36:07Z</time>
      </trkpt>
      <trkpt lat="45.98313" lon="4.88789">
        <ele>277</ele>
        <time>2017-04-03T09:36:08Z</time>
      </trkpt>
      <trkpt lat="45.98315" lon="4.88796">
        <ele>277</ele>
        <time>2017-04-03T09:36:09Z</time>
      </trkpt>
      <trkpt lat="45.98316" lon="4.88802">
        <ele>277</ele>
        <time>2017-04-03T09:36:10Z</time>
      </trkpt>
      <trkpt lat="45.98318" lon="4.88809">
        <ele>277</ele>
        <time>2017-04-03T09:36:11Z</time>
      </trkpt>
      <trkpt lat="45.98319" lon="4.88816">
        <ele>277</ele>
        <time>2017-04-03T09:36:12Z</time>
      </trkpt>
      <trkpt lat="45.98321" lon="4.88823">
        <ele>277</ele>
        <time>2017-04-03T09:36:13Z</time>
      </trkpt>
      <trkpt lat="45.98323" lon="4.88829">
        <ele>278</ele>
        <time>2017-04-03T09:36:14Z</time>
      </trkpt>
      <trkpt lat="45.98324" lon="4.88836">
        <ele>278</ele>
        <time>2017-04-03T09:36:15Z</time>
      </trkpt>
      <trkpt lat="45.98326" lon="4.88843">
        <ele>278</ele>
        <time>2017-04-03T09:36:16Z</time>
      </trkpt>
      <trkpt lat="45.98327" lon="4.88849">
        <ele>278</ele>
        <time>2017-04-03T09:36:17Z</time>
      </trkpt>
      <trkpt lat="45.98329" lon="4.88855">
        <ele>278</ele>
        <time>2017-04-03T09:36:18Z</time>
      </trkpt>
      <trkpt lat="45.9833" lon="4.88862">
        <ele>278</ele>
        <time>2017-04-03T09:36:19Z</time>
      </trkpt>
      <trkpt lat="45.98332" lon="4.88874">
        <ele>278</ele>
        <time>2017-04-03T09:36:21Z</time>
      </trkpt>
      <trkpt lat="45.98333" lon="4.8888">
        <ele>278</ele>
        <time>2017-04-03T09:36:22Z</time>
      </trkpt>
      <trkpt lat="45.98336" lon="4.88892">
        <ele>280</ele>
        <time>2017-04-03T09:36:24Z</time>
      </trkpt>
      <trkpt lat="45.98338" lon="4.88898">
        <ele>280</ele>
        <time>2017-04-03T09:36:25Z</time>
      </trkpt>
      <trkpt lat="45.9834" lon="4.88905">
        <ele>280</ele>
        <time>2017-04-03T09:36:26Z</time>
      </trkpt>
      <trkpt lat="45.98342" lon="4.88912">
        <ele>280</ele>
        <time>2017-04-03T09:36:27Z</time>
      </trkpt>
      <trkpt lat="45.98344" lon="4.88918">
        <ele>280</ele>
        <time>2017-04-03T09:36:28Z</time>
      </trkpt>
      <trkpt lat="45.98346" lon="4.88925">
        <ele>281</ele>
        <time>2017-04-03T09:36:29Z</time>
      </trkpt>
      <trkpt lat="45.98348" lon="4.88932">
        <ele>281</ele>
        <time>2017-04-03T09:36:30Z</time>
      </trkpt>
      <trkpt lat="45.98349" lon="4.88939">
        <ele>281</ele>
        <time>2017-04-03T09:36:31Z</time>
      </trkpt>
      <trkpt lat="45.9835" lon="4.88945">
        <ele>282</ele>
        <time>2017-04-03T09:36:32Z</time>
      </trkpt>
      <trkpt lat="45.98352" lon="4.88952">
        <ele>282</ele>
        <time>2017-04-03T09:36:33Z</time>
      </trkpt>
      <trkpt lat="45.98354" lon="4.88963">
        <ele>282</ele>
        <time>2017-04-03T09:36:35Z</time>
      </trkpt>
      <trkpt lat="45.98355" lon="4.88969">
        <ele>282</ele>
        <time>2017-04-03T09:36:36Z</time>
      </trkpt>
      <trkpt lat="45.98358" lon="4.8898">
        <ele>282</ele>
        <time>2017-04-03T09:36:38Z</time>
      </trkpt>
      <trkpt lat="45.98359" lon="4.88985">
        <ele>282</ele>
        <time>2017-04-03T09:36:39Z</time>
      </trkpt>
      <trkpt lat="45.98362" lon="4.88997">
        <ele>282</ele>
        <time>2017-04-03T09:36:41Z</time>
      </trkpt>
      <trkpt lat="45.98364" lon="4.89002">
        <ele>283</ele>
        <time>2017-04-03T09:36:42Z</time>
      </trkpt>
      <trkpt lat="45.98366" lon="4.89014">
        <ele>283</ele>
        <time>2017-04-03T09:36:44Z</time>
      </trkpt>
      <trkpt lat="45.98368" lon="4.8902">
        <ele>283</ele>
        <time>2017-04-03T09:36:45Z</time>
      </trkpt>
      <trkpt lat="45.9837" lon="4.89026">
        <ele>284</ele>
        <time>2017-04-03T09:36:46Z</time>
      </trkpt>
      <trkpt lat="45.98371" lon="4.89032">
        <ele>284</ele>
        <time>2017-04-03T09:36:47Z</time>
      </trkpt>
      <trkpt lat="45.98374" lon="4.89044">
        <ele>284</ele>
        <time>2017-04-03T09:36:49Z</time>
      </trkpt>
      <trkpt lat="45.98376" lon="4.8905">
        <ele>284</ele>
        <time>2017-04-03T09:36:50Z</time>
      </trkpt>
      <trkpt lat="45.9838" lon="4.89061">
        <ele>284</ele>
        <time>2017-04-03T09:36:52Z</time>
      </trkpt>
      <trkpt lat="45.98382" lon="4.89066">
        <ele>285</ele>
        <time>2017-04-03T09:36:53Z</time>
      </trkpt>
      <trkpt lat="45.98385" lon="4.89072">
        <ele>285</ele>
        <time>2017-04-03T09:36:54Z</time>
      </trkpt>
      <trkpt lat="45.98388" lon="4.89078">
        <ele>285</ele>
        <time>2017-04-03T09:36:55Z</time>
      </trkpt>
      <trkpt lat="45.98393" lon="4.89089">
        <ele>285</ele>
        <time>2017-04-03T09:36:57Z</time>
      </trkpt>
      <trkpt lat="45.98396" lon="4.89093">
        <ele>286</ele>
        <time>2017-04-03T09:36:58Z</time>
      </trkpt>
      <trkpt lat="45.98399" lon="4.89098">
        <ele>286</ele>
        <time>2017-04-03T09:36:59Z</time>
      </trkpt>
      <trkpt lat="45.98402" lon="4.89102">
        <ele>286</ele>
        <time>2017-04-03T09:37:00Z</time>
      </trkpt>
      <trkpt lat="45.98407" lon="4.8911">
        <ele>286</ele>
        <time>2017-04-03T09:37:02Z</time>
      </trkpt>
      <trkpt lat="45.9841" lon="4.89115">
        <ele>286</ele>
        <time>2017-04-03T09:37:03Z</time>
      </trkpt>
      <trkpt lat="45.98413" lon="4.89124">
        <ele>285</ele>
        <time>2017-04-03T09:37:05Z</time>
      </trkpt>
      <trkpt lat="45.98416" lon="4.89129">
        <ele>285</ele>
        <time>2017-04-03T09:37:06Z</time>
      </trkpt>
      <trkpt lat="45.98422" lon="4.89136">
        <ele>288</ele>
        <time>2017-04-03T09:37:08Z</time>
      </trkpt>
      <trkpt lat="45.98423" lon="4.8914">
        <ele>288</ele>
        <time>2017-04-03T09:37:09Z</time>
      </trkpt>
      <trkpt lat="45.98428" lon="4.89148">
        <ele>288</ele>
        <time>2017-04-03T09:37:11Z</time>
      </trkpt>
      <trkpt lat="45.98431" lon="4.89152">
        <ele>288</ele>
        <time>2017-04-03T09:37:12Z</time>
      </trkpt>
      <trkpt lat="45.98435" lon="4.8916">
        <ele>288</ele>
        <time>2017-04-03T09:37:14Z</time>
      </trkpt>
      <trkpt lat="45.98437" lon="4.89164">
        <ele>288</ele>
        <time>2017-04-03T09:37:15Z</time>
      </trkpt>
      <trkpt lat="45.98441" lon="4.89173">
        <ele>288</ele>
        <time>2017-04-03T09:37:17Z</time>
      </trkpt>
      <trkpt lat="45.98444" lon="4.89177">
        <ele>288</ele>
        <time>2017-04-03T09:37:18Z</time>
      </trkpt>
      <trkpt lat="45.98449" lon="4.89185">
        <ele>288</ele>
        <time>2017-04-03T09:37:20Z</time>
      </trkpt>
      <trkpt lat="45.98452" lon="4.89189">
        <ele>289</ele>
        <time>2017-04-03T09:37:21Z</time>
      </trkpt>
      <trkpt lat="45.98456" lon="4.89197">
        <ele>289</ele>
        <time>2017-04-03T09:37:23Z</time>
      </trkpt>
      <trkpt lat="45.98458" lon="4.89201">
        <ele>289</ele>
        <time>2017-04-03T09:37:24Z</time>
      </trkpt>
      <trkpt lat="45.98462" lon="4.89208">
        <ele>289</ele>
        <time>2017-04-03T09:37:26Z</time>
      </trkpt>
      <trkpt lat="45.98465" lon="4.89213">
        <ele>289</ele>
        <time>2017-04-03T09:37:27Z</time>
      </trkpt>
      <trkpt lat="45.98469" lon="4.8922">
        <ele>289</ele>
        <time>2017-04-03T09:37:29Z</time>
      </trkpt>
      <trkpt lat="45.98472" lon="4.89225">
        <ele>289</ele>
        <time>2017-04-03T09:37:30Z</time>
      </trkpt>
      <trkpt lat="45.98477" lon="4.89233">
        <ele>289</ele>
        <time>2017-04-03T09:37:32Z</time>
      </trkpt>
      <trkpt lat="45.9848" lon="4.89239">
        <ele>289</ele>
        <time>2017-04-03T09:37:33Z</time>
      </trkpt>
      <trkpt lat="45.98485" lon="4.89248">
        <ele>289</ele>
        <time>2017-04-03T09:37:35Z</time>
      </trkpt>
      <trkpt lat="45.98488" lon="4.89252">
        <ele>291</ele>
        <time>2017-04-03T09:37:36Z</time>
      </trkpt>
      <trkpt lat="45.98491" lon="4.89256">
        <ele>291</ele>
        <time>2017-04-03T09:37:37Z</time>
      </trkpt>
      <trkpt lat="45.98494" lon="4.89261">
        <ele>291</ele>
        <time>2017-04-03T09:37:38Z</time>
      </trkpt>
      <trkpt lat="45.98499" lon="4.89271">
        <ele>292</ele>
        <time>2017-04-03T09:37:40Z</time>
      </trkpt>
      <trkpt lat="45.98502" lon="4.89275">
        <ele>292</ele>
        <time>2017-04-03T09:37:41Z</time>
      </trkpt>
      <trkpt lat="45.98507" lon="4.89283">
        <ele>292</ele>
        <time>2017-04-03T09:37:43Z</time>
      </trkpt>
      <trkpt lat="45.9851" lon="4.89287">
        <ele>292</ele>
        <time>2017-04-03T09:37:44Z</time>
      </trkpt>
      <trkpt lat="45.98515" lon="4.89297">
        <ele>293</ele>
        <time>2017-04-03T09:37:46Z</time>
      </trkpt>
      <trkpt lat="45.98518" lon="4.89301">
        <ele>293</ele>
        <time>2017-04-03T09:37:47Z</time>
      </trkpt>
      <trkpt lat="45.98524" lon="4.8931">
        <ele>293</ele>
        <time>2017-04-03T09:37:49Z</time>
      </trkpt>
      <trkpt lat="45.98527" lon="4.89316">
        <ele>293</ele>
        <time>2017-04-03T09:37:50Z</time>
      </trkpt>
      <trkpt lat="45.98532" lon="4.89325">
        <ele>293</ele>
        <time>2017-04-03T09:37:52Z</time>
      </trkpt>
      <trkpt lat="45.98535" lon="4.89329">
        <ele>293</ele>
        <time>2017-04-03T09:37:53Z</time>
      </trkpt>
      <trkpt lat="45.98541" lon="4.89338">
        <ele>295</ele>
        <time>2017-04-03T09:37:55Z</time>
      </trkpt>
      <trkpt lat="45.98545" lon="4.89342">
        <ele>295</ele>
        <time>2017-04-03T09:37:56Z</time>
      </trkpt>
      <trkpt lat="45.98548" lon="4.89347">
        <ele>295</ele>
        <time>2017-04-03T09:37:57Z</time>
      </trkpt>
      <trkpt lat="45.98551" lon="4.89352">
        <ele>295</ele>
        <time>2017-04-03T09:37:58Z</time>
      </trkpt>
      <trkpt lat="45.98555" lon="4.89356">
        <ele>295</ele>
        <time>2017-04-03T09:37:59Z</time>
      </trkpt>
      <trkpt lat="45.98559" lon="4.8936">
        <ele>295</ele>
        <time>2017-04-03T09:38:00Z</time>
      </trkpt>
      <trkpt lat="45.98563" lon="4.89363">
        <ele>295</ele>
        <time>2017-04-03T09:38:01Z</time>
      </trkpt>
      <trkpt lat="45.98567" lon="4.89367">
        <ele>295</ele>
        <time>2017-04-03T09:38:02Z</time>
      </trkpt>
      <trkpt lat="45.98571" lon="4.8937">
        <ele>295</ele>
        <time>2017-04-03T09:38:03Z</time>
      </trkpt>
      <trkpt lat="45.98575" lon="4.89373">
        <ele>295</ele>
        <time>2017-04-03T09:38:04Z</time>
      </trkpt>
      <trkpt lat="45.98579" lon="4.89377">
        <ele>295</ele>
        <time>2017-04-03T09:38:05Z</time>
      </trkpt>
      <trkpt lat="45.98583" lon="4.89381">
        <ele>295</ele>
        <time>2017-04-03T09:38:06Z</time>
      </trkpt>
      <trkpt lat="45.98586" lon="4.89384">
        <ele>291</ele>
        <time>2017-04-03T09:38:07Z</time>
      </trkpt>
      <trkpt lat="45.9859" lon="4.89389">
        <ele>292</ele>
        <time>2017-04-03T09:38:08Z</time>
      </trkpt>
      <trkpt lat="45.98594" lon="4.89393">
        <ele>292</ele>
        <time>2017-04-03T09:38:09Z</time>
      </trkpt>
      <trkpt lat="45.98597" lon="4.89397">
        <ele>292</ele>
        <time>2017-04-03T09:38:10Z</time>
      </trkpt>
      <trkpt lat="45.986" lon="4.89401">
        <ele>292</ele>
        <time>2017-04-03T09:38:11Z</time>
      </trkpt>
      <trkpt lat="45.98604" lon="4.89406">
        <ele>292</ele>
        <time>2017-04-03T09:38:12Z</time>
      </trkpt>
      <trkpt lat="45.98607" lon="4.8941">
        <ele>292</ele>
        <time>2017-04-03T09:38:13Z</time>
      </trkpt>
      <trkpt lat="45.98611" lon="4.89414">
        <ele>291</ele>
        <time>2017-04-03T09:38:14Z</time>
      </trkpt>
      <trkpt lat="45.98614" lon="4.89419">
        <ele>292</ele>
        <time>2017-04-03T09:38:15Z</time>
      </trkpt>
      <trkpt lat="45.98617" lon="4.89424">
        <ele>292</ele>
        <time>2017-04-03T09:38:16Z</time>
      </trkpt>
      <trkpt lat="45.98621" lon="4.89427">
        <ele>291</ele>
        <time>2017-04-03T09:38:17Z</time>
      </trkpt>
      <trkpt lat="45.98625" lon="4.89431">
        <ele>291</ele>
        <time>2017-04-03T09:38:18Z</time>
      </trkpt>
      <trkpt lat="45.9863" lon="4.89434">
        <ele>291</ele>
        <time>2017-04-03T09:38:19Z</time>
      </trkpt>
      <trkpt lat="45.98633" lon="4.89438">
        <ele>291</ele>
        <time>2017-04-03T09:38:20Z</time>
      </trkpt>
      <trkpt lat="45.98637" lon="4.89442">
        <ele>291</ele>
        <time>2017-04-03T09:38:21Z</time>
      </trkpt>
      <trkpt lat="45.98641" lon="4.89446">
        <ele>291</ele>
        <time>2017-04-03T09:38:22Z</time>
      </trkpt>
      <trkpt lat="45.98646" lon="4.89451">
        <ele>291</ele>
        <time>2017-04-03T09:38:23Z</time>
      </trkpt>
      <trkpt lat="45.98649" lon="4.89455">
        <ele>290</ele>
        <time>2017-04-03T09:38:24Z</time>
      </trkpt>
      <trkpt lat="45.98653" lon="4.89459">
        <ele>290</ele>
        <time>2017-04-03T09:38:25Z</time>
      </trkpt>
      <trkpt lat="45.98657" lon="4.89464">
        <ele>290</ele>
        <time>2017-04-03T09:38:26Z</time>
      </trkpt>
      <trkpt lat="45.98661" lon="4.89469">
        <ele>290</ele>
        <time>2017-04-03T09:38:27Z</time>
      </trkpt>
      <trkpt lat="45.98665" lon="4.89473">
        <ele>290</ele>
        <time>2017-04-03T09:38:28Z</time>
      </trkpt>
      <trkpt lat="45.98668" lon="4.89478">
        <ele>289</ele>
        <time>2017-04-03T09:38:29Z</time>
      </trkpt>
      <trkpt lat="45.98671" lon="4.89483">
        <ele>289</ele>
        <time>2017-04-03T09:38:30Z</time>
      </trkpt>
      <trkpt lat="45.98674" lon="4.89487">
        <ele>289</ele>
        <time>2017-04-03T09:38:31Z</time>
      </trkpt>
      <trkpt lat="45.98678" lon="4.89491">
        <ele>289</ele>
        <time>2017-04-03T09:38:32Z</time>
      </trkpt>
      <trkpt lat="45.98683" lon="4.89495">
        <ele>289</ele>
        <time>2017-04-03T09:38:33Z</time>
      </trkpt>
      <trkpt lat="45.98687" lon="4.89499">
        <ele>289</ele>
        <time>2017-04-03T09:38:34Z</time>
      </trkpt>
      <trkpt lat="45.98691" lon="4.89504">
        <ele>289</ele>
        <time>2017-04-03T09:38:35Z</time>
      </trkpt>
      <trkpt lat="45.98694" lon="4.89509">
        <ele>289</ele>
        <time>2017-04-03T09:38:36Z</time>
      </trkpt>
      <trkpt lat="45.98698" lon="4.89515">
        <ele>289</ele>
        <time>2017-04-03T09:38:37Z</time>
      </trkpt>
      <trkpt lat="45.98702" lon="4.8952">
        <ele>289</ele>
        <time>2017-04-03T09:38:38Z</time>
      </trkpt>
      <trkpt lat="45.98706" lon="4.89525">
        <ele>289</ele>
        <time>2017-04-03T09:38:39Z</time>
      </trkpt>
      <trkpt lat="45.98709" lon="4.8953">
        <ele>289</ele>
        <time>2017-04-03T09:38:40Z</time>
      </trkpt>
      <trkpt lat="45.98713" lon="4.89534">
        <ele>289</ele>
        <time>2017-04-03T09:38:41Z</time>
      </trkpt>
      <trkpt lat="45.98717" lon="4.89539">
        <ele>290</ele>
        <time>2017-04-03T09:38:42Z</time>
      </trkpt>
      <trkpt lat="45.98723" lon="4.89548">
        <ele>290</ele>
        <time>2017-04-03T09:38:44Z</time>
      </trkpt>
      <trkpt lat="45.98726" lon="4.89552">
        <ele>290</ele>
        <time>2017-04-03T09:38:45Z</time>
      </trkpt>
      <trkpt lat="45.98729" lon="4.89558">
        <ele>290</ele>
        <time>2017-04-03T09:38:46Z</time>
      </trkpt>
      <trkpt lat="45.98732" lon="4.89563">
        <ele>290</ele>
        <time>2017-04-03T09:38:47Z</time>
      </trkpt>
      <trkpt lat="45.98735" lon="4.89569">
        <ele>290</ele>
        <time>2017-04-03T09:38:48Z</time>
      </trkpt>
      <trkpt lat="45.98739" lon="4.89573">
        <ele>290</ele>
        <time>2017-04-03T09:38:49Z</time>
      </trkpt>
      <trkpt lat="45.98742" lon="4.89578">
        <ele>290</ele>
        <time>2017-04-03T09:38:50Z</time>
      </trkpt>
      <trkpt lat="45.98745" lon="4.89582">
        <ele>291</ele>
        <time>2017-04-03T09:38:51Z</time>
      </trkpt>
      <trkpt lat="45.98751" lon="4.89592">
        <ele>291</ele>
        <time>2017-04-03T09:38:53Z</time>
      </trkpt>
      <trkpt lat="45.98754" lon="4.89596">
        <ele>291</ele>
        <time>2017-04-03T09:38:54Z</time>
      </trkpt>
      <trkpt lat="45.9876" lon="4.89605">
        <ele>291</ele>
        <time>2017-04-03T09:38:56Z</time>
      </trkpt>
      <trkpt lat="45.98763" lon="4.89609">
        <ele>291</ele>
        <time>2017-04-03T09:38:57Z</time>
      </trkpt>
      <trkpt lat="45.98766" lon="4.89614">
        <ele>291</ele>
        <time>2017-04-03T09:38:58Z</time>
      </trkpt>
      <trkpt lat="45.98769" lon="4.89619">
        <ele>291</ele>
        <time>2017-04-03T09:38:59Z</time>
      </trkpt>
      <trkpt lat="45.98775" lon="4.89627">
        <ele>291</ele>
        <time>2017-04-03T09:39:01Z</time>
      </trkpt>
      <trkpt lat="45.98779" lon="4.89631">
        <ele>291</ele>
        <time>2017-04-03T09:39:02Z</time>
      </trkpt>
      <trkpt lat="45.98782" lon="4.89636">
        <ele>291</ele>
        <time>2017-04-03T09:39:03Z</time>
      </trkpt>
      <trkpt lat="45.98786" lon="4.89639">
        <ele>291</ele>
        <time>2017-04-03T09:39:04Z</time>
      </trkpt>
      <trkpt lat="45.98789" lon="4.89643">
        <ele>291</ele>
        <time>2017-04-03T09:39:05Z</time>
      </trkpt>
      <trkpt lat="45.98792" lon="4.89648">
        <ele>291</ele>
        <time>2017-04-03T09:39:06Z</time>
      </trkpt>
      <trkpt lat="45.98799" lon="4.89656">
        <ele>291</ele>
        <time>2017-04-03T09:39:08Z</time>
      </trkpt>
      <trkpt lat="45.98802" lon="4.8966">
        <ele>291</ele>
        <time>2017-04-03T09:39:09Z</time>
      </trkpt>
      <trkpt lat="45.98809" lon="4.89667">
        <ele>292</ele>
        <time>2017-04-03T09:39:11Z</time>
      </trkpt>
      <trkpt lat="45.98813" lon="4.89671">
        <ele>292</ele>
        <time>2017-04-03T09:39:12Z</time>
      </trkpt>
      <trkpt lat="45.98816" lon="4.89675">
        <ele>292</ele>
        <time>2017-04-03T09:39:13Z</time>
      </trkpt>
      <trkpt lat="45.9882" lon="4.89679">
        <ele>292</ele>
        <time>2017-04-03T09:39:14Z</time>
      </trkpt>
      <trkpt lat="45.98824" lon="4.89684">
        <ele>292</ele>
        <time>2017-04-03T09:39:15Z</time>
      </trkpt>
      <trkpt lat="45.98828" lon="4.89688">
        <ele>292</ele>
        <time>2017-04-03T09:39:16Z</time>
      </trkpt>
      <trkpt lat="45.98831" lon="4.89692">
        <ele>292</ele>
        <time>2017-04-03T09:39:17Z</time>
      </trkpt>
      <trkpt lat="45.98835" lon="4.89696">
        <ele>292</ele>
        <time>2017-04-03T09:39:18Z</time>
      </trkpt>
      <trkpt lat="45.98842" lon="4.89703">
        <ele>292</ele>
        <time>2017-04-03T09:39:20Z</time>
      </trkpt>
      <trkpt lat="45.98845" lon="4.89707">
        <ele>292</ele>
        <time>2017-04-03T09:39:21Z</time>
      </trkpt>
      <trkpt lat="45.98853" lon="4.89713">
        <ele>293</ele>
        <time>2017-04-03T09:39:23Z</time>
      </trkpt>
      <trkpt lat="45.98856" lon="4.89717">
        <ele>293</ele>
        <time>2017-04-03T09:39:24Z</time>
      </trkpt>
      <trkpt lat="45.98864" lon="4.89724">
        <ele>293</ele>
        <time>2017-04-03T09:39:26Z</time>
      </trkpt>
      <trkpt lat="45.98868" lon="4.89727">
        <ele>293</ele>
        <time>2017-04-03T09:39:27Z</time>
      </trkpt>
      <trkpt lat="45.98875" lon="4.89733">
        <ele>293</ele>
        <time>2017-04-03T09:39:29Z</time>
      </trkpt>
      <trkpt lat="45.98879" lon="4.89736">
        <ele>293</ele>
        <time>2017-04-03T09:39:30Z</time>
      </trkpt>
      <trkpt lat="45.98887" lon="4.89742">
        <ele>293</ele>
        <time>2017-04-03T09:39:32Z</time>
      </trkpt>
      <trkpt lat="45.98891" lon="4.89745">
        <ele>293</ele>
        <time>2017-04-03T09:39:33Z</time>
      </trkpt>
      <trkpt lat="45.98899" lon="4.89749">
        <ele>293</ele>
        <time>2017-04-03T09:39:35Z</time>
      </trkpt>
      <trkpt lat="45.98902" lon="4.89752">
        <ele>293</ele>
        <time>2017-04-03T09:39:36Z</time>
      </trkpt>
      <trkpt lat="45.98911" lon="4.89756">
        <ele>293</ele>
        <time>2017-04-03T09:39:38Z</time>
      </trkpt>
      <trkpt lat="45.98915" lon="4.89759">
        <ele>293</ele>
        <time>2017-04-03T09:39:39Z</time>
      </trkpt>
      <trkpt lat="45.98919" lon="4.89762">
        <ele>293</ele>
        <time>2017-04-03T09:39:40Z</time>
      </trkpt>
      <trkpt lat="45.98923" lon="4.89765">
        <ele>293</ele>
        <time>2017-04-03T09:39:41Z</time>
      </trkpt>
      <trkpt lat="45.98927" lon="4.89768">
        <ele>293</ele>
        <time>2017-04-03T09:39:42Z</time>
      </trkpt>
      <trkpt lat="45.98931" lon="4.89771">
        <ele>293</ele>
        <time>2017-04-03T09:39:43Z</time>
      </trkpt>
      <trkpt lat="45.98935" lon="4.89774">
        <ele>293</ele>
        <time>2017-04-03T09:39:44Z</time>
      </trkpt>
      <trkpt lat="45.98939" lon="4.89778">
        <ele>293</ele>
        <time>2017-04-03T09:39:45Z</time>
      </trkpt>
      <trkpt lat="45.98944" lon="4.89781">
        <ele>293</ele>
        <time>2017-04-03T09:39:46Z</time>
      </trkpt>
      <trkpt lat="45.98948" lon="4.89784">
        <ele>293</ele>
        <time>2017-04-03T09:39:47Z</time>
      </trkpt>
      <trkpt lat="45.98952" lon="4.89788">
        <ele>293</ele>
        <time>2017-04-03T09:39:48Z</time>
      </trkpt>
      <trkpt lat="45.98956" lon="4.89791">
        <ele>293</ele>
        <time>2017-04-03T09:39:49Z</time>
      </trkpt>
      <trkpt lat="45.9896" lon="4.89795">
        <ele>293</ele>
        <time>2017-04-03T09:39:50Z</time>
      </trkpt>
      <trkpt lat="45.98964" lon="4.898">
        <ele>293</ele>
        <time>2017-04-03T09:39:51Z</time>
      </trkpt>
      <trkpt lat="45.98968" lon="4.89804">
        <ele>293</ele>
        <time>2017-04-03T09:39:52Z</time>
      </trkpt>
      <trkpt lat="45.98971" lon="4.89807">
        <ele>293</ele>
        <time>2017-04-03T09:39:53Z</time>
      </trkpt>
      <trkpt lat="45.98978" lon="4.89815">
        <ele>293</ele>
        <time>2017-04-03T09:39:55Z</time>
      </trkpt>
      <trkpt lat="45.98982" lon="4.8982">
        <ele>293</ele>
        <time>2017-04-03T09:39:56Z</time>
      </trkpt>
      <trkpt lat="45.98986" lon="4.89824">
        <ele>293</ele>
        <time>2017-04-03T09:39:57Z</time>
      </trkpt>
      <trkpt lat="45.98989" lon="4.89829">
        <ele>293</ele>
        <time>2017-04-03T09:39:58Z</time>
      </trkpt>
      <trkpt lat="45.98992" lon="4.89834">
        <ele>293</ele>
        <time>2017-04-03T09:39:59Z</time>
      </trkpt>
      <trkpt lat="45.98996" lon="4.89839">
        <ele>293</ele>
        <time>2017-04-03T09:40:00Z</time>
      </trkpt>
      <trkpt lat="45.98999" lon="4.89844">
        <ele>293</ele>
        <time>2017-04-03T09:40:01Z</time>
      </trkpt>
      <trkpt lat="45.99003" lon="4.89849">
        <ele>293</ele>
        <time>2017-04-03T09:40:02Z</time>
      </trkpt>
      <trkpt lat="45.99007" lon="4.89854">
        <ele>293</ele>
        <time>2017-04-03T09:40:03Z</time>
      </trkpt>
      <trkpt lat="45.99011" lon="4.89859">
        <ele>293</ele>
        <time>2017-04-03T09:40:04Z</time>
      </trkpt>
      <trkpt lat="45.99014" lon="4.89864">
        <ele>293</ele>
        <time>2017-04-03T09:40:05Z</time>
      </trkpt>
      <trkpt lat="45.99018" lon="4.89869">
        <ele>293</ele>
        <time>2017-04-03T09:40:06Z</time>
      </trkpt>
      <trkpt lat="45.99022" lon="4.89874">
        <ele>293</ele>
        <time>2017-04-03T09:40:07Z</time>
      </trkpt>
      <trkpt lat="45.99025" lon="4.89878">
        <ele>293</ele>
        <time>2017-04-03T09:40:08Z</time>
      </trkpt>
      <trkpt lat="45.99029" lon="4.89883">
        <ele>293</ele>
        <time>2017-04-03T09:40:09Z</time>
      </trkpt>
      <trkpt lat="45.99032" lon="4.89887">
        <ele>293</ele>
        <time>2017-04-03T09:40:10Z</time>
      </trkpt>
      <trkpt lat="45.99036" lon="4.89891">
        <ele>293</ele>
        <time>2017-04-03T09:40:11Z</time>
      </trkpt>
      <trkpt lat="45.99039" lon="4.89896">
        <ele>293</ele>
        <time>2017-04-03T09:40:12Z</time>
      </trkpt>
      <trkpt lat="45.99042" lon="4.89901">
        <ele>293</ele>
        <time>2017-04-03T09:40:13Z</time>
      </trkpt>
      <trkpt lat="45.99046" lon="4.89905">
        <ele>293</ele>
        <time>2017-04-03T09:40:14Z</time>
      </trkpt>
      <trkpt lat="45.9905" lon="4.8991">
        <ele>293</ele>
        <time>2017-04-03T09:40:15Z</time>
      </trkpt>
      <trkpt lat="45.99053" lon="4.89915">
        <ele>293</ele>
        <time>2017-04-03T09:40:16Z</time>
      </trkpt>
      <trkpt lat="45.99057" lon="4.89919">
        <ele>294</ele>
        <time>2017-04-03T09:40:17Z</time>
      </trkpt>
      <trkpt lat="45.9906" lon="4.89924">
        <ele>294</ele>
        <time>2017-04-03T09:40:18Z</time>
      </trkpt>
      <trkpt lat="45.99063" lon="4.89928">
        <ele>294</ele>
        <time>2017-04-03T09:40:19Z</time>
      </trkpt>
      <trkpt lat="45.99066" lon="4.89933">
        <ele>294</ele>
        <time>2017-04-03T09:40:20Z</time>
      </trkpt>
      <trkpt lat="45.99069" lon="4.89939">
        <ele>294</ele>
        <time>2017-04-03T09:40:21Z</time>
      </trkpt>
      <trkpt lat="45.99073" lon="4.89943">
        <ele>294</ele>
        <time>2017-04-03T09:40:22Z</time>
      </trkpt>
      <trkpt lat="45.99076" lon="4.89948">
        <ele>294</ele>
        <time>2017-04-03T09:40:23Z</time>
      </trkpt>
      <trkpt lat="45.99079" lon="4.89953">
        <ele>294</ele>
        <time>2017-04-03T09:40:24Z</time>
      </trkpt>
      <trkpt lat="45.99082" lon="4.89958">
        <ele>294</ele>
        <time>2017-04-03T09:40:25Z</time>
      </trkpt>
      <trkpt lat="45.99086" lon="4.89962">
        <ele>295</ele>
        <time>2017-04-03T09:40:26Z</time>
      </trkpt>
      <trkpt lat="45.99089" lon="4.89967">
        <ele>295</ele>
        <time>2017-04-03T09:40:27Z</time>
      </trkpt>
      <trkpt lat="45.99092" lon="4.89972">
        <ele>295</ele>
        <time>2017-04-03T09:40:28Z</time>
      </trkpt>
      <trkpt lat="45.99096" lon="4.89977">
        <ele>295</ele>
        <time>2017-04-03T09:40:29Z</time>
      </trkpt>
      <trkpt lat="45.991" lon="4.89981">
        <ele>295</ele>
        <time>2017-04-03T09:40:30Z</time>
      </trkpt>
      <trkpt lat="45.99103" lon="4.89986">
        <ele>295</ele>
        <time>2017-04-03T09:40:31Z</time>
      </trkpt>
      <trkpt lat="45.99107" lon="4.8999">
        <ele>295</ele>
        <time>2017-04-03T09:40:32Z</time>
      </trkpt>
      <trkpt lat="45.9911" lon="4.89995">
        <ele>295</ele>
        <time>2017-04-03T09:40:33Z</time>
      </trkpt>
      <trkpt lat="45.99113" lon="4.9">
        <ele>295</ele>
        <time>2017-04-03T09:40:34Z</time>
      </trkpt>
      <trkpt lat="45.99117" lon="4.90004">
        <ele>296</ele>
        <time>2017-04-03T09:40:35Z</time>
      </trkpt>
      <trkpt lat="45.99121" lon="4.90009">
        <ele>296</ele>
        <time>2017-04-03T09:40:36Z</time>
      </trkpt>
      <trkpt lat="45.99124" lon="4.90014">
        <ele>296</ele>
        <time>2017-04-03T09:40:37Z</time>
      </trkpt>
      <trkpt lat="45.99128" lon="4.90019">
        <ele>296</ele>
        <time>2017-04-03T09:40:38Z</time>
      </trkpt>
      <trkpt lat="45.99132" lon="4.90024">
        <ele>296</ele>
        <time>2017-04-03T09:40:39Z</time>
      </trkpt>
      <trkpt lat="45.99136" lon="4.90029">
        <ele>297</ele>
        <time>2017-04-03T09:40:40Z</time>
      </trkpt>
      <trkpt lat="45.9914" lon="4.90034">
        <ele>297</ele>
        <time>2017-04-03T09:40:41Z</time>
      </trkpt>
      <trkpt lat="45.99144" lon="4.90039">
        <ele>297</ele>
        <time>2017-04-03T09:40:42Z</time>
      </trkpt>
      <trkpt lat="45.99148" lon="4.90044">
        <ele>297</ele>
        <time>2017-04-03T09:40:43Z</time>
      </trkpt>
      <trkpt lat="45.99151" lon="4.90049">
        <ele>297</ele>
        <time>2017-04-03T09:40:44Z</time>
      </trkpt>
      <trkpt lat="45.99155" lon="4.90054">
        <ele>297</ele>
        <time>2017-04-03T09:40:45Z</time>
      </trkpt>
      <trkpt lat="45.99159" lon="4.90058">
        <ele>297</ele>
        <time>2017-04-03T09:40:46Z</time>
      </trkpt>
      <trkpt lat="45.99163" lon="4.90063">
        <ele>297</ele>
        <time>2017-04-03T09:40:47Z</time>
      </trkpt>
      <trkpt lat="45.99167" lon="4.90067">
        <ele>297</ele>
        <time>2017-04-03T09:40:48Z</time>
      </trkpt>
      <trkpt lat="45.9917" lon="4.90072">
        <ele>297</ele>
        <time>2017-04-03T09:40:49Z</time>
      </trkpt>
      <trkpt lat="45.99174" lon="4.90077">
        <ele>298</ele>
        <time>2017-04-03T09:40:50Z</time>
      </trkpt>
      <trkpt lat="45.99178" lon="4.90082">
        <ele>297</ele>
        <time>2017-04-03T09:40:51Z</time>
      </trkpt>
      <trkpt lat="45.99182" lon="4.90087">
        <ele>297</ele>
        <time>2017-04-03T09:40:52Z</time>
      </trkpt>
      <trkpt lat="45.99185" lon="4.90091">
        <ele>297</ele>
        <time>2017-04-03T09:40:53Z</time>
      </trkpt>
      <trkpt lat="45.99189" lon="4.90097">
        <ele>297</ele>
        <time>2017-04-03T09:40:54Z</time>
      </trkpt>
      <trkpt lat="45.99195" lon="4.90105">
        <ele>297</ele>
        <time>2017-04-03T09:40:56Z</time>
      </trkpt>
      <trkpt lat="45.99198" lon="4.90109">
        <ele>297</ele>
        <time>2017-04-03T09:40:57Z</time>
      </trkpt>
      <trkpt lat="45.99205" lon="4.90118">
        <ele>297</ele>
        <time>2017-04-03T09:40:59Z</time>
      </trkpt>
      <trkpt lat="45.99208" lon="4.90121">
        <ele>297</ele>
        <time>2017-04-03T09:41:00Z</time>
      </trkpt>
      <trkpt lat="45.99213" lon="4.9013">
        <ele>297</ele>
        <time>2017-04-03T09:41:02Z</time>
      </trkpt>
      <trkpt lat="45.99217" lon="4.90134">
        <ele>297</ele>
        <time>2017-04-03T09:41:03Z</time>
      </trkpt>
      <trkpt lat="45.99221" lon="4.9014">
        <ele>297</ele>
        <time>2017-04-03T09:41:04Z</time>
      </trkpt>
      <trkpt lat="45.99226" lon="4.90146">
        <ele>297</ele>
        <time>2017-04-03T09:41:05Z</time>
      </trkpt>
      <trkpt lat="45.9923" lon="4.90151">
        <ele>297</ele>
        <time>2017-04-03T09:41:06Z</time>
      </trkpt>
      <trkpt lat="45.99234" lon="4.90158">
        <ele>297</ele>
        <time>2017-04-03T09:41:07Z</time>
      </trkpt>
      <trkpt lat="45.99238" lon="4.90164">
        <ele>297</ele>
        <time>2017-04-03T09:41:08Z</time>
      </trkpt>
      <trkpt lat="45.99243" lon="4.9017">
        <ele>297</ele>
        <time>2017-04-03T09:41:09Z</time>
      </trkpt>
      <trkpt lat="45.99247" lon="4.90177">
        <ele>297</ele>
        <time>2017-04-03T09:41:10Z</time>
      </trkpt>
      <trkpt lat="45.99251" lon="4.90182">
        <ele>297</ele>
        <time>2017-04-03T09:41:11Z</time>
      </trkpt>
      <trkpt lat="45.99255" lon="4.90188">
        <ele>298</ele>
        <time>2017-04-03T09:41:12Z</time>
      </trkpt>
      <trkpt lat="45.99258" lon="4.90193">
        <ele>298</ele>
        <time>2017-04-03T09:41:13Z</time>
      </trkpt>
      <trkpt lat="45.99262" lon="4.90197">
        <ele>298</ele>
        <time>2017-04-03T09:41:14Z</time>
      </trkpt>
      <trkpt lat="45.99265" lon="4.90202">
        <ele>298</ele>
        <time>2017-04-03T09:41:15Z</time>
      </trkpt>
      <trkpt lat="45.99271" lon="4.90211">
        <ele>298</ele>
        <time>2017-04-03T09:41:17Z</time>
      </trkpt>
      <trkpt lat="45.99275" lon="4.90215">
        <ele>298</ele>
        <time>2017-04-03T09:41:18Z</time>
      </trkpt>
      <trkpt lat="45.99278" lon="4.9022">
        <ele>298</ele>
        <time>2017-04-03T09:41:19Z</time>
      </trkpt>
      <trkpt lat="45.99281" lon="4.90224">
        <ele>298</ele>
        <time>2017-04-03T09:41:20Z</time>
      </trkpt>
      <trkpt lat="45.99285" lon="4.90229">
        <ele>298</ele>
        <time>2017-04-03T09:41:21Z</time>
      </trkpt>
      <trkpt lat="45.99288" lon="4.90234">
        <ele>298</ele>
        <time>2017-04-03T09:41:22Z</time>
      </trkpt>
      <trkpt lat="45.99292" lon="4.90238">
        <ele>298</ele>
        <time>2017-04-03T09:41:23Z</time>
      </trkpt>
      <trkpt lat="45.99296" lon="4.90243">
        <ele>298</ele>
        <time>2017-04-03T09:41:24Z</time>
      </trkpt>
      <trkpt lat="45.993" lon="4.90247">
        <ele>298</ele>
        <time>2017-04-03T09:41:25Z</time>
      </trkpt>
      <trkpt lat="45.99304" lon="4.9025">
        <ele>298</ele>
        <time>2017-04-03T09:41:26Z</time>
      </trkpt>
      <trkpt lat="45.99309" lon="4.90258">
        <ele>299</ele>
        <time>2017-04-03T09:41:28Z</time>
      </trkpt>
      <trkpt lat="45.99311" lon="4.90263">
        <ele>299</ele>
        <time>2017-04-03T09:41:29Z</time>
      </trkpt>
      <trkpt lat="45.99312" lon="4.90271">
        <ele>299</ele>
        <time>2017-04-03T09:41:31Z</time>
      </trkpt>
      <trkpt lat="45.99313" lon="4.90276">
        <ele>299</ele>
        <time>2017-04-03T09:41:32Z</time>
      </trkpt>
      <trkpt lat="45.99316" lon="4.90282">
        <ele>299</ele>
        <time>2017-04-03T09:41:34Z</time>
      </trkpt>
      <trkpt lat="45.9932" lon="4.90284">
        <ele>299</ele>
        <time>2017-04-03T09:41:35Z</time>
      </trkpt>
      <trkpt lat="45.99328" lon="4.90286">
        <ele>299</ele>
        <time>2017-04-03T09:41:37Z</time>
      </trkpt>
      <trkpt lat="45.99333" lon="4.90287">
        <ele>299</ele>
        <time>2017-04-03T09:41:38Z</time>
      </trkpt>
      <trkpt lat="45.99336" lon="4.9029">
        <ele>299</ele>
        <time>2017-04-03T09:41:39Z</time>
      </trkpt>
      <trkpt lat="45.99341" lon="4.90291">
        <ele>299</ele>
        <time>2017-04-03T09:41:40Z</time>
      </trkpt>
      <trkpt lat="45.99346" lon="4.90292">
        <ele>299</ele>
        <time>2017-04-03T09:41:41Z</time>
      </trkpt>
      <trkpt lat="45.99351" lon="4.90291">
        <ele>299</ele>
        <time>2017-04-03T09:41:42Z</time>
      </trkpt>
      <trkpt lat="45.99356" lon="4.90291">
        <ele>299</ele>
        <time>2017-04-03T09:41:43Z</time>
      </trkpt>
      <trkpt lat="45.99361" lon="4.90291">
        <ele>299</ele>
        <time>2017-04-03T09:41:44Z</time>
      </trkpt>
      <trkpt lat="45.99366" lon="4.90291">
        <ele>299</ele>
        <time>2017-04-03T09:41:45Z</time>
      </trkpt>
      <trkpt lat="45.9937" lon="4.90292">
        <ele>300</ele>
        <time>2017-04-03T09:41:46Z</time>
      </trkpt>
      <trkpt lat="45.99375" lon="4.90293">
        <ele>300</ele>
        <time>2017-04-03T09:41:47Z</time>
      </trkpt>
      <trkpt lat="45.9938" lon="4.90293">
        <ele>300</ele>
        <time>2017-04-03T09:41:48Z</time>
      </trkpt>
      <trkpt lat="45.99385" lon="4.90294">
        <ele>300</ele>
        <time>2017-04-03T09:41:49Z</time>
      </trkpt>
      <trkpt lat="45.9939" lon="4.90294">
        <ele>300</ele>
        <time>2017-04-03T09:41:50Z</time>
      </trkpt>
      <trkpt lat="45.99398" lon="4.90296">
        <ele>300</ele>
        <time>2017-04-03T09:41:52Z</time>
      </trkpt>
      <trkpt lat="45.99403" lon="4.90297">
        <ele>300</ele>
        <time>2017-04-03T09:41:53Z</time>
      </trkpt>
      <trkpt lat="45.99407" lon="4.90298">
        <ele>300</ele>
        <time>2017-04-03T09:41:54Z</time>
      </trkpt>
      <trkpt lat="45.99411" lon="4.903">
        <ele>300</ele>
        <time>2017-04-03T09:41:55Z</time>
      </trkpt>
      <trkpt lat="45.9942" lon="4.90301">
        <ele>300</ele>
        <time>2017-04-03T09:41:57Z</time>
      </trkpt>
      <trkpt lat="45.99425" lon="4.90301">
        <ele>300</ele>
        <time>2017-04-03T09:41:58Z</time>
      </trkpt>
      <trkpt lat="45.9943" lon="4.90301">
        <ele>300</ele>
        <time>2017-04-03T09:41:59Z</time>
      </trkpt>
      <trkpt lat="45.99435" lon="4.90301">
        <ele>300</ele>
        <time>2017-04-03T09:42:00Z</time>
      </trkpt>
      <trkpt lat="45.99439" lon="4.90301">
        <ele>300</ele>
        <time>2017-04-03T09:42:01Z</time>
      </trkpt>
      <trkpt lat="45.99444" lon="4.90302">
        <ele>300</ele>
        <time>2017-04-03T09:42:02Z</time>
      </trkpt>
      <trkpt lat="45.99449" lon="4.90302">
        <ele>300</ele>
        <time>2017-04-03T09:42:03Z</time>
      </trkpt>
      <trkpt lat="45.99453" lon="4.90303">
        <ele>300</ele>
        <time>2017-04-03T09:42:04Z</time>
      </trkpt>
      <trkpt lat="45.99457" lon="4.90303">
        <ele>300</ele>
        <time>2017-04-03T09:42:05Z</time>
      </trkpt>
      <trkpt lat="45.99462" lon="4.90304">
        <ele>300</ele>
        <time>2017-04-03T09:42:06Z</time>
      </trkpt>
      <trkpt lat="45.99467" lon="4.90304">
        <ele>300</ele>
        <time>2017-04-03T09:42:07Z</time>
      </trkpt>
      <trkpt lat="45.99472" lon="4.90305">
        <ele>300</ele>
        <time>2017-04-03T09:42:08Z</time>
      </trkpt>
      <trkpt lat="45.99476" lon="4.90306">
        <ele>300</ele>
        <time>2017-04-03T09:42:09Z</time>
      </trkpt>
      <trkpt lat="45.99481" lon="4.90307">
        <ele>300</ele>
        <time>2017-04-03T09:42:10Z</time>
      </trkpt>
      <trkpt lat="45.99489" lon="4.90309">
        <ele>300</ele>
        <time>2017-04-03T09:42:12Z</time>
      </trkpt>
      <trkpt lat="45.99493" lon="4.9031">
        <ele>300</ele>
        <time>2017-04-03T09:42:13Z</time>
      </trkpt>
      <trkpt lat="45.99498" lon="4.9031">
        <ele>300</ele>
        <time>2017-04-03T09:42:14Z</time>
      </trkpt>
      <trkpt lat="45.99502" lon="4.90309">
        <ele>300</ele>
        <time>2017-04-03T09:42:15Z</time>
      </trkpt>
      <trkpt lat="45.99511" lon="4.90309">
        <ele>300</ele>
        <time>2017-04-03T09:42:17Z</time>
      </trkpt>
      <trkpt lat="45.99515" lon="4.90309">
        <ele>300</ele>
        <time>2017-04-03T09:42:18Z</time>
      </trkpt>
      <trkpt lat="45.9952" lon="4.9031">
        <ele>300</ele>
        <time>2017-04-03T09:42:19Z</time>
      </trkpt>
      <trkpt lat="45.99525" lon="4.90311">
        <ele>300</ele>
        <time>2017-04-03T09:42:20Z</time>
      </trkpt>
      <trkpt lat="45.9953" lon="4.90311">
        <ele>300</ele>
        <time>2017-04-03T09:42:21Z</time>
      </trkpt>
      <trkpt lat="45.99535" lon="4.90312">
        <ele>300</ele>
        <time>2017-04-03T09:42:22Z</time>
      </trkpt>
      <trkpt lat="45.9954" lon="4.90313">
        <ele>300</ele>
        <time>2017-04-03T09:42:23Z</time>
      </trkpt>
      <trkpt lat="45.99544" lon="4.90314">
        <ele>300</ele>
        <time>2017-04-03T09:42:24Z</time>
      </trkpt>
      <trkpt lat="45.99549" lon="4.90314">
        <ele>300</ele>
        <time>2017-04-03T09:42:25Z</time>
      </trkpt>
      <trkpt lat="45.99554" lon="4.90315">
        <ele>300</ele>
        <time>2017-04-03T09:42:26Z</time>
      </trkpt>
      <trkpt lat="45.99559" lon="4.90316">
        <ele>301</ele>
        <time>2017-04-03T09:42:27Z</time>
      </trkpt>
      <trkpt lat="45.99563" lon="4.90317">
        <ele>301</ele>
        <time>2017-04-03T09:42:28Z</time>
      </trkpt>
      <trkpt lat="45.99567" lon="4.90317">
        <ele>301</ele>
        <time>2017-04-03T09:42:29Z</time>
      </trkpt>
      <trkpt lat="45.99572" lon="4.90318">
        <ele>301</ele>
        <time>2017-04-03T09:42:30Z</time>
      </trkpt>
      <trkpt lat="45.99577" lon="4.90321">
        <ele>301</ele>
        <time>2017-04-03T09:42:31Z</time>
      </trkpt>
      <trkpt lat="45.99582" lon="4.90322">
        <ele>301</ele>
        <time>2017-04-03T09:42:32Z</time>
      </trkpt>
      <trkpt lat="45.99591" lon="4.90323">
        <ele>301</ele>
        <time>2017-04-03T09:42:34Z</time>
      </trkpt>
      <trkpt lat="45.99595" lon="4.90324">
        <ele>301</ele>
        <time>2017-04-03T09:42:35Z</time>
      </trkpt>
      <trkpt lat="45.99604" lon="4.90324">
        <ele>301</ele>
        <time>2017-04-03T09:42:37Z</time>
      </trkpt>
      <trkpt lat="45.99608" lon="4.90325">
        <ele>301</ele>
        <time>2017-04-03T09:42:38Z</time>
      </trkpt>
      <trkpt lat="45.99616" lon="4.90325">
        <ele>302</ele>
        <time>2017-04-03T09:42:40Z</time>
      </trkpt>
      <trkpt lat="45.99621" lon="4.90326">
        <ele>302</ele>
        <time>2017-04-03T09:42:41Z</time>
      </trkpt>
      <trkpt lat="45.99626" lon="4.90327">
        <ele>302</ele>
        <time>2017-04-03T09:42:42Z</time>
      </trkpt>
      <trkpt lat="45.99631" lon="4.90327">
        <ele>302</ele>
        <time>2017-04-03T09:42:43Z</time>
      </trkpt>
      <trkpt lat="45.9964" lon="4.90326">
        <ele>302</ele>
        <time>2017-04-03T09:42:45Z</time>
      </trkpt>
      <trkpt lat="45.99643" lon="4.90327">
        <ele>302</ele>
        <time>2017-04-03T09:42:46Z</time>
      </trkpt>
      <trkpt lat="45.9965" lon="4.90327">
        <ele>302</ele>
        <time>2017-04-03T09:42:48Z</time>
      </trkpt>
      <trkpt lat="45.99654" lon="4.90326">
        <ele>302</ele>
        <time>2017-04-03T09:42:49Z</time>
      </trkpt>
      <trkpt lat="45.9966" lon="4.90327">
        <ele>302</ele>
        <time>2017-04-03T09:42:51Z</time>
      </trkpt>
      <trkpt lat="45.99663" lon="4.90327">
        <ele>302</ele>
        <time>2017-04-03T09:42:52Z</time>
      </trkpt>
      <trkpt lat="45.99668" lon="4.90318">
        <ele>303</ele>
        <time>2017-04-03T09:42:56Z</time>
      </trkpt>
      <trkpt lat="45.99669" lon="4.90314">
        <ele>304</ele>
        <time>2017-04-03T09:42:57Z</time>
      </trkpt>
      <trkpt lat="45.99669" lon="4.90306">
        <ele>304</ele>
        <time>2017-04-03T09:42:59Z</time>
      </trkpt>
      <trkpt lat="45.9967" lon="4.90301">
        <ele>304</ele>
        <time>2017-04-03T09:43:00Z</time>
      </trkpt>
      <trkpt lat="45.99671" lon="4.9029">
        <ele>304</ele>
        <time>2017-04-03T09:43:02Z</time>
      </trkpt>
      <trkpt lat="45.99671" lon="4.90284">
        <ele>304</ele>
        <time>2017-04-03T09:43:03Z</time>
      </trkpt>
      <trkpt lat="45.99671" lon="4.90273">
        <ele>304</ele>
        <time>2017-04-03T09:43:05Z</time>
      </trkpt>
      <trkpt lat="45.99671" lon="4.90268">
        <ele>304</ele>
        <time>2017-04-03T09:43:06Z</time>
      </trkpt>
      <trkpt lat="45.99671" lon="4.90257">
        <ele>304</ele>
        <time>2017-04-03T09:43:08Z</time>
      </trkpt>
      <trkpt lat="45.99671" lon="4.90251">
        <ele>304</ele>
        <time>2017-04-03T09:43:09Z</time>
      </trkpt>
      <trkpt lat="45.99671" lon="4.90244">
        <ele>304</ele>
        <time>2017-04-03T09:43:10Z</time>
      </trkpt>
      <trkpt lat="45.99669" lon="4.90238">
        <ele>304</ele>
        <time>2017-04-03T09:43:11Z</time>
      </trkpt>
      <trkpt lat="45.99668" lon="4.90232">
        <ele>304</ele>
        <time>2017-04-03T09:43:12Z</time>
      </trkpt>
      <trkpt lat="45.99668" lon="4.90225">
        <ele>304</ele>
        <time>2017-04-03T09:43:13Z</time>
      </trkpt>
      <trkpt lat="45.99666" lon="4.90219">
        <ele>302</ele>
        <time>2017-04-03T09:43:14Z</time>
      </trkpt>
      <trkpt lat="45.99667" lon="4.9021">
        <ele>302</ele>
        <time>2017-04-03T09:43:15Z</time>
      </trkpt>
      <trkpt lat="45.99666" lon="4.90203">
        <ele>302</ele>
        <time>2017-04-03T09:43:16Z</time>
      </trkpt>
      <trkpt lat="45.99665" lon="4.90195">
        <ele>301</ele>
        <time>2017-04-03T09:43:17Z</time>
      </trkpt>
      <trkpt lat="45.99663" lon="4.90186">
        <ele>301</ele>
        <time>2017-04-03T09:43:18Z</time>
      </trkpt>
      <trkpt lat="45.99661" lon="4.90177">
        <ele>301</ele>
        <time>2017-04-03T09:43:19Z</time>
      </trkpt>
      <trkpt lat="45.99659" lon="4.90169">
        <ele>301</ele>
        <time>2017-04-03T09:43:20Z</time>
      </trkpt>
      <trkpt lat="45.99657" lon="4.9016">
        <ele>300</ele>
        <time>2017-04-03T09:43:21Z</time>
      </trkpt>
      <trkpt lat="45.99655" lon="4.90151">
        <ele>300</ele>
        <time>2017-04-03T09:43:22Z</time>
      </trkpt>
      <trkpt lat="45.99653" lon="4.9014">
        <ele>300</ele>
        <time>2017-04-03T09:43:23Z</time>
      </trkpt>
      <trkpt lat="45.9965" lon="4.90128">
        <ele>299</ele>
        <time>2017-04-03T09:43:24Z</time>
      </trkpt>
      <trkpt lat="45.99647" lon="4.90116">
        <ele>299</ele>
        <time>2017-04-03T09:43:25Z</time>
      </trkpt>
      <trkpt lat="45.99644" lon="4.90104">
        <ele>299</ele>
        <time>2017-04-03T09:43:26Z</time>
      </trkpt>
      <trkpt lat="45.9964" lon="4.90092">
        <ele>299</ele>
        <time>2017-04-03T09:43:27Z</time>
      </trkpt>
      <trkpt lat="45.99636" lon="4.9008">
        <ele>297</ele>
        <time>2017-04-03T09:43:28Z</time>
      </trkpt>
      <trkpt lat="45.99632" lon="4.9007">
        <ele>297</ele>
        <time>2017-04-03T09:43:29Z</time>
      </trkpt>
      <trkpt lat="45.99627" lon="4.90061">
        <ele>297</ele>
        <time>2017-04-03T09:43:30Z</time>
      </trkpt>
      <trkpt lat="45.99622" lon="4.90051">
        <ele>297</ele>
        <time>2017-04-03T09:43:31Z</time>
      </trkpt>
      <trkpt lat="45.99618" lon="4.90041">
        <ele>296</ele>
        <time>2017-04-03T09:43:32Z</time>
      </trkpt>
      <trkpt lat="45.99614" lon="4.90031">
        <ele>296</ele>
        <time>2017-04-03T09:43:33Z</time>
      </trkpt>
      <trkpt lat="45.9961" lon="4.90021">
        <ele>296</ele>
        <time>2017-04-03T09:43:34Z</time>
      </trkpt>
      <trkpt lat="45.99608" lon="4.90009">
        <ele>296</ele>
        <time>2017-04-03T09:43:35Z</time>
      </trkpt>
      <trkpt lat="45.99606" lon="4.89998">
        <ele>295</ele>
        <time>2017-04-03T09:43:36Z</time>
      </trkpt>
      <trkpt lat="45.99604" lon="4.89987">
        <ele>294</ele>
        <time>2017-04-03T09:43:37Z</time>
      </trkpt>
      <trkpt lat="45.99603" lon="4.89976">
        <ele>294</ele>
        <time>2017-04-03T09:43:38Z</time>
      </trkpt>
      <trkpt lat="45.99602" lon="4.89966">
        <ele>294</ele>
        <time>2017-04-03T09:43:39Z</time>
      </trkpt>
      <trkpt lat="45.99601" lon="4.89955">
        <ele>294</ele>
        <time>2017-04-03T09:43:40Z</time>
      </trkpt>
      <trkpt lat="45.996" lon="4.89944">
        <ele>294</ele>
        <time>2017-04-03T09:43:41Z</time>
      </trkpt>
      <trkpt lat="45.99601" lon="4.89933">
        <ele>293</ele>
        <time>2017-04-03T09:43:42Z</time>
      </trkpt>
      <trkpt lat="45.99601" lon="4.89923">
        <ele>293</ele>
        <time>2017-04-03T09:43:43Z</time>
      </trkpt>
      <trkpt lat="45.99601" lon="4.89913">
        <ele>292</ele>
        <time>2017-04-03T09:43:44Z</time>
      </trkpt>
      <trkpt lat="45.99601" lon="4.89902">
        <ele>292</ele>
        <time>2017-04-03T09:43:45Z</time>
      </trkpt>
      <trkpt lat="45.99601" lon="4.89891">
        <ele>292</ele>
        <time>2017-04-03T09:43:46Z</time>
      </trkpt>
      <trkpt lat="45.99601" lon="4.89881">
        <ele>292</ele>
        <time>2017-04-03T09:43:47Z</time>
      </trkpt>
      <trkpt lat="45.99602" lon="4.89871">
        <ele>293</ele>
        <time>2017-04-03T09:43:48Z</time>
      </trkpt>
      <trkpt lat="45.99602" lon="4.89861">
        <ele>293</ele>
        <time>2017-04-03T09:43:49Z</time>
      </trkpt>
      <trkpt lat="45.99602" lon="4.89852">
        <ele>293</ele>
        <time>2017-04-03T09:43:50Z</time>
      </trkpt>
      <trkpt lat="45.99602" lon="4.89844">
        <ele>293</ele>
        <time>2017-04-03T09:43:51Z</time>
      </trkpt>
      <trkpt lat="45.99601" lon="4.89835">
        <ele>293</ele>
        <time>2017-04-03T09:43:52Z</time>
      </trkpt>
      <trkpt lat="45.99602" lon="4.89827">
        <ele>292</ele>
        <time>2017-04-03T09:43:53Z</time>
      </trkpt>
      <trkpt lat="45.99603" lon="4.89818">
        <ele>292</ele>
        <time>2017-04-03T09:43:54Z</time>
      </trkpt>
      <trkpt lat="45.99603" lon="4.8981">
        <ele>292</ele>
        <time>2017-04-03T09:43:55Z</time>
      </trkpt>
      <trkpt lat="45.99603" lon="4.89802">
        <ele>292</ele>
        <time>2017-04-03T09:43:56Z</time>
      </trkpt>
      <trkpt lat="45.99603" lon="4.89794">
        <ele>292</ele>
        <time>2017-04-03T09:43:57Z</time>
      </trkpt>
      <trkpt lat="45.99603" lon="4.89787">
        <ele>292</ele>
        <time>2017-04-03T09:43:58Z</time>
      </trkpt>
      <trkpt lat="45.99603" lon="4.89779">
        <ele>292</ele>
        <time>2017-04-03T09:43:59Z</time>
      </trkpt>
      <trkpt lat="45.99603" lon="4.89772">
        <ele>292</ele>
        <time>2017-04-03T09:44:00Z</time>
      </trkpt>
      <trkpt lat="45.99603" lon="4.89764">
        <ele>292</ele>
        <time>2017-04-03T09:44:01Z</time>
      </trkpt>
      <trkpt lat="45.99603" lon="4.89756">
        <ele>292</ele>
        <time>2017-04-03T09:44:02Z</time>
      </trkpt>
      <trkpt lat="45.99603" lon="4.89749">
        <ele>292</ele>
        <time>2017-04-03T09:44:03Z</time>
      </trkpt>
      <trkpt lat="45.99603" lon="4.89741">
        <ele>292</ele>
        <time>2017-04-03T09:44:04Z</time>
      </trkpt>
      <trkpt lat="45.99602" lon="4.89735">
        <ele>292</ele>
        <time>2017-04-03T09:44:05Z</time>
      </trkpt>
      <trkpt lat="45.99602" lon="4.89728">
        <ele>292</ele>
        <time>2017-04-03T09:44:06Z</time>
      </trkpt>
      <trkpt lat="45.99602" lon="4.89719">
        <ele>292</ele>
        <time>2017-04-03T09:44:07Z</time>
      </trkpt>
      <trkpt lat="45.99602" lon="4.89711">
        <ele>292</ele>
        <time>2017-04-03T09:44:08Z</time>
      </trkpt>
      <trkpt lat="45.99603" lon="4.89702">
        <ele>292</ele>
        <time>2017-04-03T09:44:09Z</time>
      </trkpt>
      <trkpt lat="45.99603" lon="4.89693">
        <ele>292</ele>
        <time>2017-04-03T09:44:10Z</time>
      </trkpt>
      <trkpt lat="45.99604" lon="4.89684">
        <ele>292</ele>
        <time>2017-04-03T09:44:11Z</time>
      </trkpt>
      <trkpt lat="45.99604" lon="4.89675">
        <ele>292</ele>
        <time>2017-04-03T09:44:12Z</time>
      </trkpt>
      <trkpt lat="45.99604" lon="4.89664">
        <ele>292</ele>
        <time>2017-04-03T09:44:13Z</time>
      </trkpt>
      <trkpt lat="45.99604" lon="4.89654">
        <ele>291</ele>
        <time>2017-04-03T09:44:14Z</time>
      </trkpt>
      <trkpt lat="45.99605" lon="4.89643">
        <ele>291</ele>
        <time>2017-04-03T09:44:15Z</time>
      </trkpt>
      <trkpt lat="45.99605" lon="4.89634">
        <ele>291</ele>
        <time>2017-04-03T09:44:16Z</time>
      </trkpt>
      <trkpt lat="45.99604" lon="4.89624">
        <ele>291</ele>
        <time>2017-04-03T09:44:17Z</time>
      </trkpt>
      <trkpt lat="45.99604" lon="4.89615">
        <ele>291</ele>
        <time>2017-04-03T09:44:18Z</time>
      </trkpt>
      <trkpt lat="45.99604" lon="4.89605">
        <ele>291</ele>
        <time>2017-04-03T09:44:19Z</time>
      </trkpt>
      <trkpt lat="45.99604" lon="4.89597">
        <ele>292</ele>
        <time>2017-04-03T09:44:20Z</time>
      </trkpt>
      <trkpt lat="45.99603" lon="4.89589">
        <ele>292</ele>
        <time>2017-04-03T09:44:21Z</time>
      </trkpt>
      <trkpt lat="45.99602" lon="4.89581">
        <ele>291</ele>
        <time>2017-04-03T09:44:22Z</time>
      </trkpt>
      <trkpt lat="45.996" lon="4.89573">
        <ele>291</ele>
        <time>2017-04-03T09:44:23Z</time>
      </trkpt>
      <trkpt lat="45.996" lon="4.89565">
        <ele>291</ele>
        <time>2017-04-03T09:44:24Z</time>
      </trkpt>
      <trkpt lat="45.996" lon="4.89556">
        <ele>291</ele>
        <time>2017-04-03T09:44:25Z</time>
      </trkpt>
      <trkpt lat="45.99599" lon="4.89549">
        <ele>291</ele>
        <time>2017-04-03T09:44:26Z</time>
      </trkpt>
      <trkpt lat="45.99599" lon="4.89541">
        <ele>291</ele>
        <time>2017-04-03T09:44:27Z</time>
      </trkpt>
      <trkpt lat="45.99598" lon="4.89533">
        <ele>291</ele>
        <time>2017-04-03T09:44:28Z</time>
      </trkpt>
      <trkpt lat="45.99598" lon="4.89526">
        <ele>291</ele>
        <time>2017-04-03T09:44:29Z</time>
      </trkpt>
      <trkpt lat="45.99598" lon="4.89518">
        <ele>290</ele>
        <time>2017-04-03T09:44:30Z</time>
      </trkpt>
      <trkpt lat="45.99597" lon="4.89511">
        <ele>290</ele>
        <time>2017-04-03T09:44:31Z</time>
      </trkpt>
      <trkpt lat="45.99597" lon="4.89504">
        <ele>290</ele>
        <time>2017-04-03T09:44:32Z</time>
      </trkpt>
      <trkpt lat="45.99596" lon="4.89497">
        <ele>290</ele>
        <time>2017-04-03T09:44:33Z</time>
      </trkpt>
      <trkpt lat="45.99596" lon="4.8949">
        <ele>290</ele>
        <time>2017-04-03T09:44:34Z</time>
      </trkpt>
      <trkpt lat="45.99595" lon="4.89483">
        <ele>290</ele>
        <time>2017-04-03T09:44:35Z</time>
      </trkpt>
      <trkpt lat="45.99595" lon="4.89476">
        <ele>290</ele>
        <time>2017-04-03T09:44:36Z</time>
      </trkpt>
      <trkpt lat="45.99594" lon="4.89469">
        <ele>290</ele>
        <time>2017-04-03T09:44:37Z</time>
      </trkpt>
      <trkpt lat="45.99594" lon="4.89462">
        <ele>290</ele>
        <time>2017-04-03T09:44:38Z</time>
      </trkpt>
      <trkpt lat="45.99594" lon="4.89454">
        <ele>290</ele>
        <time>2017-04-03T09:44:39Z</time>
      </trkpt>
      <trkpt lat="45.99594" lon="4.89447">
        <ele>290</ele>
        <time>2017-04-03T09:44:40Z</time>
      </trkpt>
      <trkpt lat="45.99593" lon="4.8944">
        <ele>290</ele>
        <time>2017-04-03T09:44:41Z</time>
      </trkpt>
      <trkpt lat="45.99592" lon="4.89432">
        <ele>290</ele>
        <time>2017-04-03T09:44:42Z</time>
      </trkpt>
      <trkpt lat="45.99592" lon="4.89425">
        <ele>290</ele>
        <time>2017-04-03T09:44:43Z</time>
      </trkpt>
      <trkpt lat="45.99592" lon="4.89418">
        <ele>290</ele>
        <time>2017-04-03T09:44:44Z</time>
      </trkpt>
      <trkpt lat="45.99591" lon="4.8941">
        <ele>290</ele>
        <time>2017-04-03T09:44:45Z</time>
      </trkpt>
      <trkpt lat="45.99591" lon="4.89403">
        <ele>290</ele>
        <time>2017-04-03T09:44:46Z</time>
      </trkpt>
      <trkpt lat="45.99591" lon="4.89395">
        <ele>290</ele>
        <time>2017-04-03T09:44:47Z</time>
      </trkpt>
      <trkpt lat="45.99591" lon="4.89388">
        <ele>290</ele>
        <time>2017-04-03T09:44:48Z</time>
      </trkpt>
      <trkpt lat="45.9959" lon="4.89379">
        <ele>290</ele>
        <time>2017-04-03T09:44:49Z</time>
      </trkpt>
      <trkpt lat="45.9959" lon="4.89371">
        <ele>289</ele>
        <time>2017-04-03T09:44:50Z</time>
      </trkpt>
      <trkpt lat="45.9959" lon="4.89363">
        <ele>289</ele>
        <time>2017-04-03T09:44:51Z</time>
      </trkpt>
      <trkpt lat="45.99589" lon="4.89355">
        <ele>289</ele>
        <time>2017-04-03T09:44:52Z</time>
      </trkpt>
      <trkpt lat="45.99589" lon="4.89346">
        <ele>289</ele>
        <time>2017-04-03T09:44:53Z</time>
      </trkpt>
      <trkpt lat="45.99589" lon="4.89339">
        <ele>289</ele>
        <time>2017-04-03T09:44:54Z</time>
      </trkpt>
      <trkpt lat="45.99588" lon="4.89331">
        <ele>289</ele>
        <time>2017-04-03T09:44:55Z</time>
      </trkpt>
      <trkpt lat="45.99587" lon="4.89324">
        <ele>289</ele>
        <time>2017-04-03T09:44:56Z</time>
      </trkpt>
      <trkpt lat="45.99587" lon="4.89316">
        <ele>289</ele>
        <time>2017-04-03T09:44:57Z</time>
      </trkpt>
      <trkpt lat="45.99587" lon="4.89309">
        <ele>289</ele>
        <time>2017-04-03T09:44:58Z</time>
      </trkpt>
      <trkpt lat="45.99587" lon="4.89301">
        <ele>289</ele>
        <time>2017-04-03T09:44:59Z</time>
      </trkpt>
      <trkpt lat="45.99586" lon="4.89293">
        <ele>289</ele>
        <time>2017-04-03T09:45:00Z</time>
      </trkpt>
      <trkpt lat="45.99585" lon="4.89284">
        <ele>289</ele>
        <time>2017-04-03T09:45:01Z</time>
      </trkpt>
      <trkpt lat="45.99585" lon="4.89276">
        <ele>288</ele>
        <time>2017-04-03T09:45:02Z</time>
      </trkpt>
      <trkpt lat="45.99585" lon="4.89267">
        <ele>288</ele>
        <time>2017-04-03T09:45:03Z</time>
      </trkpt>
      <trkpt lat="45.99584" lon="4.89258">
        <ele>288</ele>
        <time>2017-04-03T09:45:04Z</time>
      </trkpt>
      <trkpt lat="45.99583" lon="4.8925">
        <ele>288</ele>
        <time>2017-04-03T09:45:05Z</time>
      </trkpt>
      <trkpt lat="45.99582" lon="4.89242">
        <ele>288</ele>
        <time>2017-04-03T09:45:06Z</time>
      </trkpt>
      <trkpt lat="45.99582" lon="4.89234">
        <ele>288</ele>
        <time>2017-04-03T09:45:07Z</time>
      </trkpt>
      <trkpt lat="45.99581" lon="4.89226">
        <ele>288</ele>
        <time>2017-04-03T09:45:08Z</time>
      </trkpt>
      <trkpt lat="45.9958" lon="4.89218">
        <ele>288</ele>
        <time>2017-04-03T09:45:09Z</time>
      </trkpt>
      <trkpt lat="45.9958" lon="4.89211">
        <ele>288</ele>
        <time>2017-04-03T09:45:10Z</time>
      </trkpt>
      <trkpt lat="45.99579" lon="4.89204">
        <ele>288</ele>
        <time>2017-04-03T09:45:11Z</time>
      </trkpt>
      <trkpt lat="45.99579" lon="4.89197">
        <ele>288</ele>
        <time>2017-04-03T09:45:12Z</time>
      </trkpt>
      <trkpt lat="45.99578" lon="4.89189">
        <ele>288</ele>
        <time>2017-04-03T09:45:13Z</time>
      </trkpt>
      <trkpt lat="45.99578" lon="4.89181">
        <ele>288</ele>
        <time>2017-04-03T09:45:14Z</time>
      </trkpt>
      <trkpt lat="45.99578" lon="4.89173">
        <ele>288</ele>
        <time>2017-04-03T09:45:15Z</time>
      </trkpt>
      <trkpt lat="45.99577" lon="4.89165">
        <ele>288</ele>
        <time>2017-04-03T09:45:16Z</time>
      </trkpt>
      <trkpt lat="45.99577" lon="4.89157">
        <ele>288</ele>
        <time>2017-04-03T09:45:17Z</time>
      </trkpt>
      <trkpt lat="45.99577" lon="4.8915">
        <ele>289</ele>
        <time>2017-04-03T09:45:18Z</time>
      </trkpt>
      <trkpt lat="45.99576" lon="4.89142">
        <ele>289</ele>
        <time>2017-04-03T09:45:19Z</time>
      </trkpt>
      <trkpt lat="45.99576" lon="4.89134">
        <ele>289</ele>
        <time>2017-04-03T09:45:20Z</time>
      </trkpt>
      <trkpt lat="45.99576" lon="4.89126">
        <ele>289</ele>
        <time>2017-04-03T09:45:21Z</time>
      </trkpt>
      <trkpt lat="45.99576" lon="4.89119">
        <ele>289</ele>
        <time>2017-04-03T09:45:22Z</time>
      </trkpt>
      <trkpt lat="45.99576" lon="4.8911">
        <ele>289</ele>
        <time>2017-04-03T09:45:23Z</time>
      </trkpt>
      <trkpt lat="45.99576" lon="4.89102">
        <ele>289</ele>
        <time>2017-04-03T09:45:24Z</time>
      </trkpt>
      <trkpt lat="45.99576" lon="4.89094">
        <ele>289</ele>
        <time>2017-04-03T09:45:25Z</time>
      </trkpt>
      <trkpt lat="45.99577" lon="4.89085">
        <ele>289</ele>
        <time>2017-04-03T09:45:26Z</time>
      </trkpt>
      <trkpt lat="45.99577" lon="4.89077">
        <ele>289</ele>
        <time>2017-04-03T09:45:27Z</time>
      </trkpt>
      <trkpt lat="45.99578" lon="4.89068">
        <ele>289</ele>
        <time>2017-04-03T09:45:28Z</time>
      </trkpt>
      <trkpt lat="45.99579" lon="4.8906">
        <ele>289</ele>
        <time>2017-04-03T09:45:29Z</time>
      </trkpt>
      <trkpt lat="45.99579" lon="4.89052">
        <ele>288</ele>
        <time>2017-04-03T09:45:30Z</time>
      </trkpt>
      <trkpt lat="45.9958" lon="4.89043">
        <ele>288</ele>
        <time>2017-04-03T09:45:31Z</time>
      </trkpt>
      <trkpt lat="45.9958" lon="4.89035">
        <ele>288</ele>
        <time>2017-04-03T09:45:32Z</time>
      </trkpt>
      <trkpt lat="45.99581" lon="4.89028">
        <ele>288</ele>
        <time>2017-04-03T09:45:33Z</time>
      </trkpt>
      <trkpt lat="45.99582" lon="4.89021">
        <ele>288</ele>
        <time>2017-04-03T09:45:34Z</time>
      </trkpt>
      <trkpt lat="45.99582" lon="4.89014">
        <ele>288</ele>
        <time>2017-04-03T09:45:35Z</time>
      </trkpt>
      <trkpt lat="45.99582" lon="4.89006">
        <ele>288</ele>
        <time>2017-04-03T09:45:36Z</time>
      </trkpt>
      <trkpt lat="45.99582" lon="4.88998">
        <ele>288</ele>
        <time>2017-04-03T09:45:37Z</time>
      </trkpt>
      <trkpt lat="45.99581" lon="4.8899">
        <ele>288</ele>
        <time>2017-04-03T09:45:38Z</time>
      </trkpt>
      <trkpt lat="45.99581" lon="4.88981">
        <ele>287</ele>
        <time>2017-04-03T09:45:39Z</time>
      </trkpt>
      <trkpt lat="45.9958" lon="4.88972">
        <ele>287</ele>
        <time>2017-04-03T09:45:40Z</time>
      </trkpt>
      <trkpt lat="45.9958" lon="4.88963">
        <ele>287</ele>
        <time>2017-04-03T09:45:41Z</time>
      </trkpt>
      <trkpt lat="45.99579" lon="4.88954">
        <ele>287</ele>
        <time>2017-04-03T09:45:42Z</time>
      </trkpt>
      <trkpt lat="45.99578" lon="4.88945">
        <ele>287</ele>
        <time>2017-04-03T09:45:43Z</time>
      </trkpt>
      <trkpt lat="45.99577" lon="4.88936">
        <ele>287</ele>
        <time>2017-04-03T09:45:44Z</time>
      </trkpt>
      <trkpt lat="45.99577" lon="4.88927">
        <ele>287</ele>
        <time>2017-04-03T09:45:45Z</time>
      </trkpt>
      <trkpt lat="45.99577" lon="4.88918">
        <ele>287</ele>
        <time>2017-04-03T09:45:46Z</time>
      </trkpt>
      <trkpt lat="45.99577" lon="4.88909">
        <ele>287</ele>
        <time>2017-04-03T09:45:47Z</time>
      </trkpt>
      <trkpt lat="45.99576" lon="4.889">
        <ele>287</ele>
        <time>2017-04-03T09:45:48Z</time>
      </trkpt>
      <trkpt lat="45.99575" lon="4.88892">
        <ele>287</ele>
        <time>2017-04-03T09:45:49Z</time>
      </trkpt>
      <trkpt lat="45.99575" lon="4.88883">
        <ele>287</ele>
        <time>2017-04-03T09:45:50Z</time>
      </trkpt>
      <trkpt lat="45.99574" lon="4.88875">
        <ele>287</ele>
        <time>2017-04-03T09:45:51Z</time>
      </trkpt>
      <trkpt lat="45.99572" lon="4.88867">
        <ele>287</ele>
        <time>2017-04-03T09:45:52Z</time>
      </trkpt>
      <trkpt lat="45.99572" lon="4.88858">
        <ele>287</ele>
        <time>2017-04-03T09:45:53Z</time>
      </trkpt>
      <trkpt lat="45.99571" lon="4.8885">
        <ele>287</ele>
        <time>2017-04-03T09:45:54Z</time>
      </trkpt>
      <trkpt lat="45.99571" lon="4.88841">
        <ele>287</ele>
        <time>2017-04-03T09:45:55Z</time>
      </trkpt>
      <trkpt lat="45.9957" lon="4.88833">
        <ele>287</ele>
        <time>2017-04-03T09:45:56Z</time>
      </trkpt>
      <trkpt lat="45.9957" lon="4.88825">
        <ele>287</ele>
        <time>2017-04-03T09:45:57Z</time>
      </trkpt>
      <trkpt lat="45.99569" lon="4.88816">
        <ele>287</ele>
        <time>2017-04-03T09:45:58Z</time>
      </trkpt>
      <trkpt lat="45.99568" lon="4.88808">
        <ele>287</ele>
        <time>2017-04-03T09:45:59Z</time>
      </trkpt>
      <trkpt lat="45.99567" lon="4.88799">
        <ele>287</ele>
        <time>2017-04-03T09:46:00Z</time>
      </trkpt>
      <trkpt lat="45.99566" lon="4.88791">
        <ele>287</ele>
        <time>2017-04-03T09:46:01Z</time>
      </trkpt>
      <trkpt lat="45.99565" lon="4.88782">
        <ele>287</ele>
        <time>2017-04-03T09:46:02Z</time>
      </trkpt>
      <trkpt lat="45.99564" lon="4.88773">
        <ele>287</ele>
        <time>2017-04-03T09:46:03Z</time>
      </trkpt>
      <trkpt lat="45.99564" lon="4.88765">
        <ele>287</ele>
        <time>2017-04-03T09:46:04Z</time>
      </trkpt>
      <trkpt lat="45.99563" lon="4.88756">
        <ele>287</ele>
        <time>2017-04-03T09:46:05Z</time>
      </trkpt>
      <trkpt lat="45.99563" lon="4.88748">
        <ele>287</ele>
        <time>2017-04-03T09:46:06Z</time>
      </trkpt>
      <trkpt lat="45.99562" lon="4.88741">
        <ele>287</ele>
        <time>2017-04-03T09:46:07Z</time>
      </trkpt>
      <trkpt lat="45.99561" lon="4.88733">
        <ele>287</ele>
        <time>2017-04-03T09:46:08Z</time>
      </trkpt>
      <trkpt lat="45.9956" lon="4.88725">
        <ele>286</ele>
        <time>2017-04-03T09:46:09Z</time>
      </trkpt>
      <trkpt lat="45.9956" lon="4.88716">
        <ele>286</ele>
        <time>2017-04-03T09:46:10Z</time>
      </trkpt>
      <trkpt lat="45.99559" lon="4.88708">
        <ele>286</ele>
        <time>2017-04-03T09:46:11Z</time>
      </trkpt>
      <trkpt lat="45.99558" lon="4.887">
        <ele>286</ele>
        <time>2017-04-03T09:46:12Z</time>
      </trkpt>
      <trkpt lat="45.99558" lon="4.88692">
        <ele>286</ele>
        <time>2017-04-03T09:46:13Z</time>
      </trkpt>
      <trkpt lat="45.99557" lon="4.88683">
        <ele>286</ele>
        <time>2017-04-03T09:46:14Z</time>
      </trkpt>
      <trkpt lat="45.99556" lon="4.88675">
        <ele>286</ele>
        <time>2017-04-03T09:46:15Z</time>
      </trkpt>
      <trkpt lat="45.99555" lon="4.88667">
        <ele>286</ele>
        <time>2017-04-03T09:46:16Z</time>
      </trkpt>
      <trkpt lat="45.99554" lon="4.88658">
        <ele>286</ele>
        <time>2017-04-03T09:46:17Z</time>
      </trkpt>
      <trkpt lat="45.99553" lon="4.8865">
        <ele>286</ele>
        <time>2017-04-03T09:46:18Z</time>
      </trkpt>
      <trkpt lat="45.99552" lon="4.88642">
        <ele>286</ele>
        <time>2017-04-03T09:46:19Z</time>
      </trkpt>
      <trkpt lat="45.99551" lon="4.88633">
        <ele>286</ele>
        <time>2017-04-03T09:46:20Z</time>
      </trkpt>
      <trkpt lat="45.9955" lon="4.88624">
        <ele>286</ele>
        <time>2017-04-03T09:46:21Z</time>
      </trkpt>
      <trkpt lat="45.9955" lon="4.88616">
        <ele>286</ele>
        <time>2017-04-03T09:46:22Z</time>
      </trkpt>
      <trkpt lat="45.99549" lon="4.88607">
        <ele>286</ele>
        <time>2017-04-03T09:46:23Z</time>
      </trkpt>
      <trkpt lat="45.99548" lon="4.88598">
        <ele>286</ele>
        <time>2017-04-03T09:46:24Z</time>
      </trkpt>
      <trkpt lat="45.99548" lon="4.88589">
        <ele>286</ele>
        <time>2017-04-03T09:46:25Z</time>
      </trkpt>
      <trkpt lat="45.99546" lon="4.88581">
        <ele>286</ele>
        <time>2017-04-03T09:46:26Z</time>
      </trkpt>
      <trkpt lat="45.99544" lon="4.88573">
        <ele>286</ele>
        <time>2017-04-03T09:46:27Z</time>
      </trkpt>
      <trkpt lat="45.99541" lon="4.88565">
        <ele>285</ele>
        <time>2017-04-03T09:46:28Z</time>
      </trkpt>
      <trkpt lat="45.99539" lon="4.88558">
        <ele>285</ele>
        <time>2017-04-03T09:46:29Z</time>
      </trkpt>
      <trkpt lat="45.99536" lon="4.8855">
        <ele>285</ele>
        <time>2017-04-03T09:46:30Z</time>
      </trkpt>
      <trkpt lat="45.99533" lon="4.88543">
        <ele>285</ele>
        <time>2017-04-03T09:46:31Z</time>
      </trkpt>
      <trkpt lat="45.99529" lon="4.88535">
        <ele>285</ele>
        <time>2017-04-03T09:46:32Z</time>
      </trkpt>
      <trkpt lat="45.99526" lon="4.88528">
        <ele>285</ele>
        <time>2017-04-03T09:46:33Z</time>
      </trkpt>
      <trkpt lat="45.99522" lon="4.88521">
        <ele>285</ele>
        <time>2017-04-03T09:46:34Z</time>
      </trkpt>
      <trkpt lat="45.99518" lon="4.88514">
        <ele>285</ele>
        <time>2017-04-03T09:46:35Z</time>
      </trkpt>
      <trkpt lat="45.99514" lon="4.88506">
        <ele>285</ele>
        <time>2017-04-03T09:46:36Z</time>
      </trkpt>
      <trkpt lat="45.9951" lon="4.88499">
        <ele>284</ele>
        <time>2017-04-03T09:46:37Z</time>
      </trkpt>
      <trkpt lat="45.99506" lon="4.88492">
        <ele>284</ele>
        <time>2017-04-03T09:46:38Z</time>
      </trkpt>
      <trkpt lat="45.99502" lon="4.88484">
        <ele>284</ele>
        <time>2017-04-03T09:46:39Z</time>
      </trkpt>
      <trkpt lat="45.99499" lon="4.88476">
        <ele>284</ele>
        <time>2017-04-03T09:46:40Z</time>
      </trkpt>
      <trkpt lat="45.99495" lon="4.88469">
        <ele>284</ele>
        <time>2017-04-03T09:46:41Z</time>
      </trkpt>
      <trkpt lat="45.99491" lon="4.88461">
        <ele>284</ele>
        <time>2017-04-03T09:46:42Z</time>
      </trkpt>
      <trkpt lat="45.99487" lon="4.88453">
        <ele>284</ele>
        <time>2017-04-03T09:46:43Z</time>
      </trkpt>
      <trkpt lat="45.99482" lon="4.88446">
        <ele>284</ele>
        <time>2017-04-03T09:46:44Z</time>
      </trkpt>
      <trkpt lat="45.99478" lon="4.88439">
        <ele>284</ele>
        <time>2017-04-03T09:46:45Z</time>
      </trkpt>
      <trkpt lat="45.99473" lon="4.88433">
        <ele>284</ele>
        <time>2017-04-03T09:46:46Z</time>
      </trkpt>
      <trkpt lat="45.99468" lon="4.88427">
        <ele>284</ele>
        <time>2017-04-03T09:46:47Z</time>
      </trkpt>
      <trkpt lat="45.99462" lon="4.88422">
        <ele>284</ele>
        <time>2017-04-03T09:46:48Z</time>
      </trkpt>
      <trkpt lat="45.99456" lon="4.88417">
        <ele>283</ele>
        <time>2017-04-03T09:46:49Z</time>
      </trkpt>
      <trkpt lat="45.99451" lon="4.88413">
        <ele>283</ele>
        <time>2017-04-03T09:46:50Z</time>
      </trkpt>
      <trkpt lat="45.99445" lon="4.88408">
        <ele>283</ele>
        <time>2017-04-03T09:46:51Z</time>
      </trkpt>
      <trkpt lat="45.9944" lon="4.88402">
        <ele>283</ele>
        <time>2017-04-03T09:46:52Z</time>
      </trkpt>
      <trkpt lat="45.99436" lon="4.88395">
        <ele>283</ele>
        <time>2017-04-03T09:46:53Z</time>
      </trkpt>
      <trkpt lat="45.99432" lon="4.88388">
        <ele>283</ele>
        <time>2017-04-03T09:46:54Z</time>
      </trkpt>
      <trkpt lat="45.99429" lon="4.88381">
        <ele>283</ele>
        <time>2017-04-03T09:46:55Z</time>
      </trkpt>
      <trkpt lat="45.99425" lon="4.88373">
        <ele>283</ele>
        <time>2017-04-03T09:46:56Z</time>
      </trkpt>
      <trkpt lat="45.99422" lon="4.88366">
        <ele>283</ele>
        <time>2017-04-03T09:46:57Z</time>
      </trkpt>
      <trkpt lat="45.99419" lon="4.88359">
        <ele>283</ele>
        <time>2017-04-03T09:46:58Z</time>
      </trkpt>
      <trkpt lat="45.99416" lon="4.88351">
        <ele>282</ele>
        <time>2017-04-03T09:46:59Z</time>
      </trkpt>
      <trkpt lat="45.99414" lon="4.88343">
        <ele>282</ele>
        <time>2017-04-03T09:47:00Z</time>
      </trkpt>
      <trkpt lat="45.99411" lon="4.88335">
        <ele>282</ele>
        <time>2017-04-03T09:47:01Z</time>
      </trkpt>
      <trkpt lat="45.99408" lon="4.88328">
        <ele>283</ele>
        <time>2017-04-03T09:47:02Z</time>
      </trkpt>
      <trkpt lat="45.99405" lon="4.88319">
        <ele>283</ele>
        <time>2017-04-03T09:47:03Z</time>
      </trkpt>
      <trkpt lat="45.99402" lon="4.88311">
        <ele>283</ele>
        <time>2017-04-03T09:47:04Z</time>
      </trkpt>
      <trkpt lat="45.99398" lon="4.88303">
        <ele>284</ele>
        <time>2017-04-03T09:47:05Z</time>
      </trkpt>
      <trkpt lat="45.99395" lon="4.88294">
        <ele>284</ele>
        <time>2017-04-03T09:47:06Z</time>
      </trkpt>
      <trkpt lat="45.99391" lon="4.88286">
        <ele>284</ele>
        <time>2017-04-03T09:47:07Z</time>
      </trkpt>
      <trkpt lat="45.99387" lon="4.88277">
        <ele>284</ele>
        <time>2017-04-03T09:47:08Z</time>
      </trkpt>
      <trkpt lat="45.99384" lon="4.88269">
        <ele>285</ele>
        <time>2017-04-03T09:47:09Z</time>
      </trkpt>
      <trkpt lat="45.9938" lon="4.88261">
        <ele>285</ele>
        <time>2017-04-03T09:47:10Z</time>
      </trkpt>
      <trkpt lat="45.99376" lon="4.88253">
        <ele>285</ele>
        <time>2017-04-03T09:47:11Z</time>
      </trkpt>
      <trkpt lat="45.99372" lon="4.88246">
        <ele>287</ele>
        <time>2017-04-03T09:47:12Z</time>
      </trkpt>
      <trkpt lat="45.99368" lon="4.8824">
        <ele>287</ele>
        <time>2017-04-03T09:47:13Z</time>
      </trkpt>
      <trkpt lat="45.99363" lon="4.88234">
        <ele>287</ele>
        <time>2017-04-03T09:47:14Z</time>
      </trkpt>
      <trkpt lat="45.99358" lon="4.88229">
        <ele>287</ele>
        <time>2017-04-03T09:47:15Z</time>
      </trkpt>
      <trkpt lat="45.99353" lon="4.88224">
        <ele>287</ele>
        <time>2017-04-03T09:47:16Z</time>
      </trkpt>
      <trkpt lat="45.99348" lon="4.88219">
        <ele>287</ele>
        <time>2017-04-03T09:47:17Z</time>
      </trkpt>
      <trkpt lat="45.99343" lon="4.88214">
        <ele>287</ele>
        <time>2017-04-03T09:47:18Z</time>
      </trkpt>
      <trkpt lat="45.99337" lon="4.88209">
        <ele>287</ele>
        <time>2017-04-03T09:47:19Z</time>
      </trkpt>
      <trkpt lat="45.99331" lon="4.88204">
        <ele>285</ele>
        <time>2017-04-03T09:47:20Z</time>
      </trkpt>
      <trkpt lat="45.99325" lon="4.882">
        <ele>285</ele>
        <time>2017-04-03T09:47:21Z</time>
      </trkpt>
      <trkpt lat="45.9932" lon="4.88195">
        <ele>285</ele>
        <time>2017-04-03T09:47:22Z</time>
      </trkpt>
      <trkpt lat="45.99314" lon="4.8819">
        <ele>285</ele>
        <time>2017-04-03T09:47:23Z</time>
      </trkpt>
      <trkpt lat="45.99309" lon="4.88184">
        <ele>285</ele>
        <time>2017-04-03T09:47:24Z</time>
      </trkpt>
      <trkpt lat="45.99303" lon="4.88179">
        <ele>285</ele>
        <time>2017-04-03T09:47:25Z</time>
      </trkpt>
      <trkpt lat="45.99298" lon="4.88174">
        <ele>284</ele>
        <time>2017-04-03T09:47:26Z</time>
      </trkpt>
      <trkpt lat="45.99292" lon="4.88169">
        <ele>284</ele>
        <time>2017-04-03T09:47:27Z</time>
      </trkpt>
      <trkpt lat="45.99287" lon="4.88164">
        <ele>284</ele>
        <time>2017-04-03T09:47:28Z</time>
      </trkpt>
      <trkpt lat="45.99281" lon="4.88158">
        <ele>284</ele>
        <time>2017-04-03T09:47:29Z</time>
      </trkpt>
      <trkpt lat="45.99275" lon="4.88153">
        <ele>283</ele>
        <time>2017-04-03T09:47:30Z</time>
      </trkpt>
      <trkpt lat="45.99269" lon="4.88149">
        <ele>283</ele>
        <time>2017-04-03T09:47:31Z</time>
      </trkpt>
      <trkpt lat="45.99264" lon="4.88144">
        <ele>283</ele>
        <time>2017-04-03T09:47:32Z</time>
      </trkpt>
      <trkpt lat="45.99257" lon="4.88139">
        <ele>283</ele>
        <time>2017-04-03T09:47:33Z</time>
      </trkpt>
      <trkpt lat="45.99252" lon="4.88135">
        <ele>283</ele>
        <time>2017-04-03T09:47:34Z</time>
      </trkpt>
      <trkpt lat="45.99246" lon="4.8813">
        <ele>280</ele>
        <time>2017-04-03T09:47:35Z</time>
      </trkpt>
      <trkpt lat="45.99241" lon="4.88125">
        <ele>280</ele>
        <time>2017-04-03T09:47:36Z</time>
      </trkpt>
      <trkpt lat="45.99236" lon="4.88121">
        <ele>280</ele>
        <time>2017-04-03T09:47:37Z</time>
      </trkpt>
      <trkpt lat="45.99231" lon="4.88116">
        <ele>280</ele>
        <time>2017-04-03T09:47:38Z</time>
      </trkpt>
      <trkpt lat="45.99226" lon="4.88111">
        <ele>280</ele>
        <time>2017-04-03T09:47:39Z</time>
      </trkpt>
      <trkpt lat="45.99221" lon="4.88106">
        <ele>280</ele>
        <time>2017-04-03T09:47:40Z</time>
      </trkpt>
      <trkpt lat="45.99215" lon="4.88101">
        <ele>280</ele>
        <time>2017-04-03T09:47:41Z</time>
      </trkpt>
      <trkpt lat="45.9921" lon="4.88096">
        <ele>280</ele>
        <time>2017-04-03T09:47:42Z</time>
      </trkpt>
      <trkpt lat="45.99204" lon="4.88091">
        <ele>280</ele>
        <time>2017-04-03T09:47:43Z</time>
      </trkpt>
      <trkpt lat="45.99198" lon="4.88085">
        <ele>280</ele>
        <time>2017-04-03T09:47:44Z</time>
      </trkpt>
      <trkpt lat="45.99192" lon="4.88079">
        <ele>280</ele>
        <time>2017-04-03T09:47:45Z</time>
      </trkpt>
      <trkpt lat="45.99186" lon="4.88074">
        <ele>279</ele>
        <time>2017-04-03T09:47:46Z</time>
      </trkpt>
      <trkpt lat="45.9918" lon="4.88069">
        <ele>279</ele>
        <time>2017-04-03T09:47:47Z</time>
      </trkpt>
      <trkpt lat="45.99174" lon="4.88063">
        <ele>279</ele>
        <time>2017-04-03T09:47:48Z</time>
      </trkpt>
      <trkpt lat="45.99168" lon="4.88058">
        <ele>279</ele>
        <time>2017-04-03T09:47:49Z</time>
      </trkpt>
      <trkpt lat="45.99161" lon="4.88053">
        <ele>279</ele>
        <time>2017-04-03T09:47:50Z</time>
      </trkpt>
      <trkpt lat="45.99154" lon="4.88049">
        <ele>279</ele>
        <time>2017-04-03T09:47:51Z</time>
      </trkpt>
      <trkpt lat="45.99148" lon="4.88045">
        <ele>279</ele>
        <time>2017-04-03T09:47:52Z</time>
      </trkpt>
      <trkpt lat="45.99141" lon="4.8804">
        <ele>279</ele>
        <time>2017-04-03T09:47:53Z</time>
      </trkpt>
      <trkpt lat="45.99135" lon="4.88036">
        <ele>279</ele>
        <time>2017-04-03T09:47:54Z</time>
      </trkpt>
      <trkpt lat="45.99129" lon="4.88032">
        <ele>279</ele>
        <time>2017-04-03T09:47:55Z</time>
      </trkpt>
      <trkpt lat="45.99122" lon="4.88029">
        <ele>278</ele>
        <time>2017-04-03T09:47:56Z</time>
      </trkpt>
      <trkpt lat="45.99115" lon="4.88025">
        <ele>278</ele>
        <time>2017-04-03T09:47:57Z</time>
      </trkpt>
      <trkpt lat="45.99108" lon="4.88021">
        <ele>278</ele>
        <time>2017-04-03T09:47:58Z</time>
      </trkpt>
      <trkpt lat="45.99102" lon="4.88017">
        <ele>278</ele>
        <time>2017-04-03T09:47:59Z</time>
      </trkpt>
      <trkpt lat="45.99095" lon="4.88014">
        <ele>278</ele>
        <time>2017-04-03T09:48:00Z</time>
      </trkpt>
      <trkpt lat="45.99088" lon="4.8801">
        <ele>278</ele>
        <time>2017-04-03T09:48:01Z</time>
      </trkpt>
      <trkpt lat="45.99082" lon="4.88006">
        <ele>278</ele>
        <time>2017-04-03T09:48:02Z</time>
      </trkpt>
      <trkpt lat="45.99075" lon="4.88002">
        <ele>278</ele>
        <time>2017-04-03T09:48:03Z</time>
      </trkpt>
      <trkpt lat="45.99069" lon="4.87999">
        <ele>277</ele>
        <time>2017-04-03T09:48:04Z</time>
      </trkpt>
      <trkpt lat="45.99062" lon="4.87995">
        <ele>277</ele>
        <time>2017-04-03T09:48:05Z</time>
      </trkpt>
      <trkpt lat="45.99055" lon="4.87991">
        <ele>277</ele>
        <time>2017-04-03T09:48:06Z</time>
      </trkpt>
      <trkpt lat="45.99049" lon="4.87987">
        <ele>277</ele>
        <time>2017-04-03T09:48:07Z</time>
      </trkpt>
      <trkpt lat="45.99042" lon="4.87982">
        <ele>277</ele>
        <time>2017-04-03T09:48:08Z</time>
      </trkpt>
      <trkpt lat="45.99036" lon="4.87978">
        <ele>276</ele>
        <time>2017-04-03T09:48:09Z</time>
      </trkpt>
      <trkpt lat="45.99029" lon="4.87974">
        <ele>276</ele>
        <time>2017-04-03T09:48:10Z</time>
      </trkpt>
      <trkpt lat="45.99022" lon="4.8797">
        <ele>276</ele>
        <time>2017-04-03T09:48:11Z</time>
      </trkpt>
      <trkpt lat="45.99016" lon="4.87966">
        <ele>276</ele>
        <time>2017-04-03T09:48:12Z</time>
      </trkpt>
      <trkpt lat="45.99008" lon="4.87962">
        <ele>276</ele>
        <time>2017-04-03T09:48:13Z</time>
      </trkpt>
      <trkpt lat="45.99001" lon="4.87958">
        <ele>276</ele>
        <time>2017-04-03T09:48:14Z</time>
      </trkpt>
      <trkpt lat="45.98994" lon="4.87954">
        <ele>274</ele>
        <time>2017-04-03T09:48:15Z</time>
      </trkpt>
      <trkpt lat="45.98986" lon="4.87951">
        <ele>274</ele>
        <time>2017-04-03T09:48:16Z</time>
      </trkpt>
      <trkpt lat="45.98979" lon="4.87947">
        <ele>274</ele>
        <time>2017-04-03T09:48:17Z</time>
      </trkpt>
      <trkpt lat="45.98971" lon="4.87943">
        <ele>274</ele>
        <time>2017-04-03T09:48:18Z</time>
      </trkpt>
      <trkpt lat="45.98963" lon="4.87939">
        <ele>273</ele>
        <time>2017-04-03T09:48:19Z</time>
      </trkpt>
      <trkpt lat="45.98955" lon="4.87935">
        <ele>273</ele>
        <time>2017-04-03T09:48:20Z</time>
      </trkpt>
      <trkpt lat="45.98947" lon="4.8793">
        <ele>273</ele>
        <time>2017-04-03T09:48:21Z</time>
      </trkpt>
      <trkpt lat="45.98939" lon="4.87925">
        <ele>273</ele>
        <time>2017-04-03T09:48:22Z</time>
      </trkpt>
      <trkpt lat="45.98931" lon="4.87919">
        <ele>272</ele>
        <time>2017-04-03T09:48:23Z</time>
      </trkpt>
      <trkpt lat="45.98923" lon="4.87913">
        <ele>272</ele>
        <time>2017-04-03T09:48:24Z</time>
      </trkpt>
      <trkpt lat="45.98915" lon="4.87906">
        <ele>272</ele>
        <time>2017-04-03T09:48:25Z</time>
      </trkpt>
      <trkpt lat="45.98907" lon="4.87898">
        <ele>272</ele>
        <time>2017-04-03T09:48:26Z</time>
      </trkpt>
      <trkpt lat="45.98899" lon="4.8789">
        <ele>272</ele>
        <time>2017-04-03T09:48:27Z</time>
      </trkpt>
      <trkpt lat="45.98892" lon="4.8788">
        <ele>272</ele>
        <time>2017-04-03T09:48:28Z</time>
      </trkpt>
      <trkpt lat="45.98885" lon="4.87871">
        <ele>272</ele>
        <time>2017-04-03T09:48:29Z</time>
      </trkpt>
      <trkpt lat="45.98879" lon="4.8786">
        <ele>272</ele>
        <time>2017-04-03T09:48:30Z</time>
      </trkpt>
      <trkpt lat="45.98873" lon="4.8785">
        <ele>273</ele>
        <time>2017-04-03T09:48:31Z</time>
      </trkpt>
      <trkpt lat="45.98868" lon="4.8784">
        <ele>273</ele>
        <time>2017-04-03T09:48:32Z</time>
      </trkpt>
      <trkpt lat="45.98862" lon="4.87829">
        <ele>273</ele>
        <time>2017-04-03T09:48:33Z</time>
      </trkpt>
      <trkpt lat="45.98857" lon="4.87818">
        <ele>273</ele>
        <time>2017-04-03T09:48:34Z</time>
      </trkpt>
      <trkpt lat="45.98853" lon="4.87807">
        <ele>273</ele>
        <time>2017-04-03T09:48:35Z</time>
      </trkpt>
      <trkpt lat="45.98849" lon="4.87795">
        <ele>273</ele>
        <time>2017-04-03T09:48:36Z</time>
      </trkpt>
      <trkpt lat="45.98846" lon="4.87784">
        <ele>273</ele>
        <time>2017-04-03T09:48:37Z</time>
      </trkpt>
      <trkpt lat="45.98843" lon="4.87772">
        <ele>273</ele>
        <time>2017-04-03T09:48:38Z</time>
      </trkpt>
      <trkpt lat="45.9884" lon="4.87761">
        <ele>273</ele>
        <time>2017-04-03T09:48:39Z</time>
      </trkpt>
      <trkpt lat="45.98838" lon="4.8775">
        <ele>273</ele>
        <time>2017-04-03T09:48:40Z</time>
      </trkpt>
      <trkpt lat="45.98836" lon="4.87739">
        <ele>273</ele>
        <time>2017-04-03T09:48:41Z</time>
      </trkpt>
      <trkpt lat="45.98834" lon="4.87726">
        <ele>273</ele>
        <time>2017-04-03T09:48:42Z</time>
      </trkpt>
      <trkpt lat="45.98832" lon="4.87715">
        <ele>273</ele>
        <time>2017-04-03T09:48:43Z</time>
      </trkpt>
      <trkpt lat="45.9883" lon="4.87703">
        <ele>273</ele>
        <time>2017-04-03T09:48:44Z</time>
      </trkpt>
      <trkpt lat="45.98828" lon="4.87693">
        <ele>273</ele>
        <time>2017-04-03T09:48:45Z</time>
      </trkpt>
      <trkpt lat="45.98825" lon="4.87682">
        <ele>273</ele>
        <time>2017-04-03T09:48:46Z</time>
      </trkpt>
      <trkpt lat="45.98823" lon="4.87672">
        <ele>273</ele>
        <time>2017-04-03T09:48:47Z</time>
      </trkpt>
      <trkpt lat="45.9882" lon="4.87662">
        <ele>272</ele>
        <time>2017-04-03T09:48:48Z</time>
      </trkpt>
      <trkpt lat="45.98818" lon="4.87652">
        <ele>272</ele>
        <time>2017-04-03T09:48:49Z</time>
      </trkpt>
      <trkpt lat="45.98816" lon="4.87643">
        <ele>272</ele>
        <time>2017-04-03T09:48:50Z</time>
      </trkpt>
      <trkpt lat="45.98814" lon="4.87635">
        <ele>272</ele>
        <time>2017-04-03T09:48:51Z</time>
      </trkpt>
      <trkpt lat="45.9881" lon="4.87626">
        <ele>271</ele>
        <time>2017-04-03T09:48:52Z</time>
      </trkpt>
      <trkpt lat="45.98807" lon="4.87618">
        <ele>271</ele>
        <time>2017-04-03T09:48:53Z</time>
      </trkpt>
      <trkpt lat="45.98802" lon="4.8761">
        <ele>271</ele>
        <time>2017-04-03T09:48:54Z</time>
      </trkpt>
      <trkpt lat="45.98797" lon="4.87603">
        <ele>271</ele>
        <time>2017-04-03T09:48:55Z</time>
      </trkpt>
      <trkpt lat="45.98792" lon="4.87597">
        <ele>271</ele>
        <time>2017-04-03T09:48:56Z</time>
      </trkpt>
      <trkpt lat="45.98787" lon="4.8759">
        <ele>271</ele>
        <time>2017-04-03T09:48:57Z</time>
      </trkpt>
      <trkpt lat="45.98781" lon="4.87584">
        <ele>270</ele>
        <time>2017-04-03T09:48:58Z</time>
      </trkpt>
      <trkpt lat="45.98775" lon="4.87579">
        <ele>269</ele>
        <time>2017-04-03T09:48:59Z</time>
      </trkpt>
      <trkpt lat="45.9877" lon="4.87574">
        <ele>269</ele>
        <time>2017-04-03T09:49:00Z</time>
      </trkpt>
      <trkpt lat="45.98763" lon="4.87568">
        <ele>269</ele>
        <time>2017-04-03T09:49:01Z</time>
      </trkpt>
      <trkpt lat="45.98757" lon="4.87563">
        <ele>269</ele>
        <time>2017-04-03T09:49:02Z</time>
      </trkpt>
      <trkpt lat="45.9875" lon="4.87558">
        <ele>267</ele>
        <time>2017-04-03T09:49:03Z</time>
      </trkpt>
      <trkpt lat="45.98744" lon="4.87556">
        <ele>267</ele>
        <time>2017-04-03T09:49:04Z</time>
      </trkpt>
      <trkpt lat="45.98737" lon="4.87554">
        <ele>267</ele>
        <time>2017-04-03T09:49:05Z</time>
      </trkpt>
      <trkpt lat="45.98731" lon="4.87553">
        <ele>267</ele>
        <time>2017-04-03T09:49:06Z</time>
      </trkpt>
      <trkpt lat="45.98724" lon="4.87554">
        <ele>267</ele>
        <time>2017-04-03T09:49:07Z</time>
      </trkpt>
      <trkpt lat="45.98718" lon="4.87555">
        <ele>267</ele>
        <time>2017-04-03T09:49:08Z</time>
      </trkpt>
      <trkpt lat="45.98712" lon="4.87556">
        <ele>267</ele>
        <time>2017-04-03T09:49:09Z</time>
      </trkpt>
      <trkpt lat="45.98706" lon="4.87558">
        <ele>267</ele>
        <time>2017-04-03T09:49:10Z</time>
      </trkpt>
      <trkpt lat="45.98701" lon="4.8756">
        <ele>267</ele>
        <time>2017-04-03T09:49:11Z</time>
      </trkpt>
      <trkpt lat="45.98696" lon="4.87562">
        <ele>267</ele>
        <time>2017-04-03T09:49:12Z</time>
      </trkpt>
      <trkpt lat="45.98691" lon="4.87563">
        <ele>267</ele>
        <time>2017-04-03T09:49:13Z</time>
      </trkpt>
      <trkpt lat="45.98686" lon="4.87566">
        <ele>267</ele>
        <time>2017-04-03T09:49:14Z</time>
      </trkpt>
      <trkpt lat="45.9868" lon="4.87567">
        <ele>267</ele>
        <time>2017-04-03T09:49:15Z</time>
      </trkpt>
      <trkpt lat="45.98674" lon="4.87568">
        <ele>267</ele>
        <time>2017-04-03T09:49:16Z</time>
      </trkpt>
      <trkpt lat="45.98667" lon="4.87568">
        <ele>267</ele>
        <time>2017-04-03T09:49:17Z</time>
      </trkpt>
      <trkpt lat="45.98659" lon="4.87567">
        <ele>267</ele>
        <time>2017-04-03T09:49:18Z</time>
      </trkpt>
      <trkpt lat="45.98653" lon="4.87564">
        <ele>267</ele>
        <time>2017-04-03T09:49:19Z</time>
      </trkpt>
      <trkpt lat="45.98648" lon="4.87559">
        <ele>267</ele>
        <time>2017-04-03T09:49:20Z</time>
      </trkpt>
      <trkpt lat="45.98644" lon="4.87553">
        <ele>267</ele>
        <time>2017-04-03T09:49:21Z</time>
      </trkpt>
      <trkpt lat="45.98641" lon="4.87547">
        <ele>267</ele>
        <time>2017-04-03T09:49:22Z</time>
      </trkpt>
      <trkpt lat="45.98639" lon="4.8754">
        <ele>267</ele>
        <time>2017-04-03T09:49:23Z</time>
      </trkpt>
      <trkpt lat="45.98637" lon="4.87533">
        <ele>267</ele>
        <time>2017-04-03T09:49:24Z</time>
      </trkpt>
      <trkpt lat="45.98636" lon="4.87526">
        <ele>267</ele>
        <time>2017-04-03T09:49:25Z</time>
      </trkpt>
      <trkpt lat="45.98635" lon="4.87519">
        <ele>267</ele>
        <time>2017-04-03T09:49:26Z</time>
      </trkpt>
      <trkpt lat="45.98633" lon="4.87511">
        <ele>267</ele>
        <time>2017-04-03T09:49:27Z</time>
      </trkpt>
      <trkpt lat="45.98631" lon="4.87504">
        <ele>267</ele>
        <time>2017-04-03T09:49:28Z</time>
      </trkpt>
      <trkpt lat="45.9863" lon="4.87496">
        <ele>268</ele>
        <time>2017-04-03T09:49:29Z</time>
      </trkpt>
      <trkpt lat="45.98628" lon="4.87488">
        <ele>268</ele>
        <time>2017-04-03T09:49:30Z</time>
      </trkpt>
      <trkpt lat="45.98627" lon="4.87481">
        <ele>268</ele>
        <time>2017-04-03T09:49:31Z</time>
      </trkpt>
      <trkpt lat="45.98626" lon="4.87474">
        <ele>268</ele>
        <time>2017-04-03T09:49:32Z</time>
      </trkpt>
      <trkpt lat="45.98624" lon="4.87466">
        <ele>268</ele>
        <time>2017-04-03T09:49:33Z</time>
      </trkpt>
      <trkpt lat="45.98624" lon="4.87459">
        <ele>268</ele>
        <time>2017-04-03T09:49:34Z</time>
      </trkpt>
      <trkpt lat="45.98623" lon="4.87452">
        <ele>268</ele>
        <time>2017-04-03T09:49:35Z</time>
      </trkpt>
      <trkpt lat="45.98622" lon="4.87445">
        <ele>269</ele>
        <time>2017-04-03T09:49:36Z</time>
      </trkpt>
      <trkpt lat="45.98621" lon="4.87439">
        <ele>269</ele>
        <time>2017-04-03T09:49:37Z</time>
      </trkpt>
      <trkpt lat="45.9862" lon="4.87432">
        <ele>269</ele>
        <time>2017-04-03T09:49:38Z</time>
      </trkpt>
      <trkpt lat="45.98619" lon="4.87425">
        <ele>269</ele>
        <time>2017-04-03T09:49:39Z</time>
      </trkpt>
      <trkpt lat="45.98617" lon="4.8742">
        <ele>269</ele>
        <time>2017-04-03T09:49:40Z</time>
      </trkpt>
      <trkpt lat="45.98615" lon="4.87408">
        <ele>271</ele>
        <time>2017-04-03T09:49:42Z</time>
      </trkpt>
      <trkpt lat="45.98614" lon="4.87401">
        <ele>271</ele>
        <time>2017-04-03T09:49:43Z</time>
      </trkpt>
      <trkpt lat="45.98613" lon="4.87394">
        <ele>271</ele>
        <time>2017-04-03T09:49:44Z</time>
      </trkpt>
      <trkpt lat="45.98612" lon="4.87387">
        <ele>271</ele>
        <time>2017-04-03T09:49:45Z</time>
      </trkpt>
      <trkpt lat="45.98611" lon="4.8738">
        <ele>271</ele>
        <time>2017-04-03T09:49:46Z</time>
      </trkpt>
      <trkpt lat="45.9861" lon="4.87373">
        <ele>271</ele>
        <time>2017-04-03T09:49:47Z</time>
      </trkpt>
      <trkpt lat="45.98608" lon="4.87367">
        <ele>272</ele>
        <time>2017-04-03T09:49:48Z</time>
      </trkpt>
      <trkpt lat="45.98607" lon="4.8736">
        <ele>272</ele>
        <time>2017-04-03T09:49:49Z</time>
      </trkpt>
      <trkpt lat="45.98603" lon="4.87349">
        <ele>272</ele>
        <time>2017-04-03T09:49:51Z</time>
      </trkpt>
      <trkpt lat="45.98602" lon="4.87342">
        <ele>272</ele>
        <time>2017-04-03T09:49:52Z</time>
      </trkpt>
      <trkpt lat="45.986" lon="4.87336">
        <ele>273</ele>
        <time>2017-04-03T09:49:53Z</time>
      </trkpt>
      <trkpt lat="45.986" lon="4.8733">
        <ele>274</ele>
        <time>2017-04-03T09:49:54Z</time>
      </trkpt>
      <trkpt lat="45.98599" lon="4.87317">
        <ele>274</ele>
        <time>2017-04-03T09:49:56Z</time>
      </trkpt>
      <trkpt lat="45.98599" lon="4.87312">
        <ele>274</ele>
        <time>2017-04-03T09:49:57Z</time>
      </trkpt>
      <trkpt lat="45.98597" lon="4.87301">
        <ele>274</ele>
        <time>2017-04-03T09:49:59Z</time>
      </trkpt>
      <trkpt lat="45.98596" lon="4.87296">
        <ele>275</ele>
        <time>2017-04-03T09:50:00Z</time>
      </trkpt>
      <trkpt lat="45.98597" lon="4.87287">
        <ele>275</ele>
        <time>2017-04-03T09:50:02Z</time>
      </trkpt>
      <trkpt lat="45.98597" lon="4.87283">
        <ele>275</ele>
        <time>2017-04-03T09:50:03Z</time>
      </trkpt>
      <trkpt lat="45.98598" lon="4.87273">
        <ele>275</ele>
        <time>2017-04-03T09:50:05Z</time>
      </trkpt>
      <trkpt lat="45.98598" lon="4.87269">
        <ele>275</ele>
        <time>2017-04-03T09:50:06Z</time>
      </trkpt>
      <trkpt lat="45.98596" lon="4.87257">
        <ele>275</ele>
        <time>2017-04-03T09:50:09Z</time>
      </trkpt>
      <trkpt lat="45.98597" lon="4.87252">
        <ele>275</ele>
        <time>2017-04-03T09:50:10Z</time>
      </trkpt>
      <trkpt lat="45.98597" lon="4.87241">
        <ele>277</ele>
        <time>2017-04-03T09:50:12Z</time>
      </trkpt>
      <trkpt lat="45.98596" lon="4.87236">
        <ele>277</ele>
        <time>2017-04-03T09:50:13Z</time>
      </trkpt>
      <trkpt lat="45.98594" lon="4.87226">
        <ele>277</ele>
        <time>2017-04-03T09:50:15Z</time>
      </trkpt>
      <trkpt lat="45.98594" lon="4.8722">
        <ele>277</ele>
        <time>2017-04-03T09:50:16Z</time>
      </trkpt>
      <trkpt lat="45.98592" lon="4.8721">
        <ele>277</ele>
        <time>2017-04-03T09:50:18Z</time>
      </trkpt>
      <trkpt lat="45.98592" lon="4.87205">
        <ele>277</ele>
        <time>2017-04-03T09:50:19Z</time>
      </trkpt>
      <trkpt lat="45.98591" lon="4.87194">
        <ele>277</ele>
        <time>2017-04-03T09:50:21Z</time>
      </trkpt>
      <trkpt lat="45.98591" lon="4.87189">
        <ele>277</ele>
        <time>2017-04-03T09:50:22Z</time>
      </trkpt>
      <trkpt lat="45.98592" lon="4.87181">
        <ele>277</ele>
        <time>2017-04-03T09:50:23Z</time>
      </trkpt>
      <trkpt lat="45.98593" lon="4.87173">
        <ele>277</ele>
        <time>2017-04-03T09:50:24Z</time>
      </trkpt>
      <trkpt lat="45.98594" lon="4.87164">
        <ele>278</ele>
        <time>2017-04-03T09:50:25Z</time>
      </trkpt>
      <trkpt lat="45.98596" lon="4.87156">
        <ele>278</ele>
        <time>2017-04-03T09:50:26Z</time>
      </trkpt>
      <trkpt lat="45.98596" lon="4.87148">
        <ele>278</ele>
        <time>2017-04-03T09:50:27Z</time>
      </trkpt>
      <trkpt lat="45.98597" lon="4.87141">
        <ele>278</ele>
        <time>2017-04-03T09:50:28Z</time>
      </trkpt>
      <trkpt lat="45.98595" lon="4.8713">
        <ele>278</ele>
        <time>2017-04-03T09:50:30Z</time>
      </trkpt>
      <trkpt lat="45.98593" lon="4.87124">
        <ele>279</ele>
        <time>2017-04-03T09:50:31Z</time>
      </trkpt>
      <trkpt lat="45.98591" lon="4.87119">
        <ele>279</ele>
        <time>2017-04-03T09:50:32Z</time>
      </trkpt>
      <trkpt lat="45.98592" lon="4.87111">
        <ele>279</ele>
        <time>2017-04-03T09:50:33Z</time>
      </trkpt>
      <trkpt lat="45.98596" lon="4.871">
        <ele>279</ele>
        <time>2017-04-03T09:50:34Z</time>
      </trkpt>
      <trkpt lat="45.98598" lon="4.87089">
        <ele>279</ele>
        <time>2017-04-03T09:50:35Z</time>
      </trkpt>
      <trkpt lat="45.98599" lon="4.87082">
        <ele>279</ele>
        <time>2017-04-03T09:50:36Z</time>
      </trkpt>
      <trkpt lat="45.98598" lon="4.87074">
        <ele>279</ele>
        <time>2017-04-03T09:50:37Z</time>
      </trkpt>
      <trkpt lat="45.98597" lon="4.87067">
        <ele>279</ele>
        <time>2017-04-03T09:50:38Z</time>
      </trkpt>
      <trkpt lat="45.98595" lon="4.87061">
        <ele>279</ele>
        <time>2017-04-03T09:50:39Z</time>
      </trkpt>
      <trkpt lat="45.98592" lon="4.87054">
        <ele>279</ele>
        <time>2017-04-03T09:50:40Z</time>
      </trkpt>
      <trkpt lat="45.9859" lon="4.87046">
        <ele>279</ele>
        <time>2017-04-03T09:50:41Z</time>
      </trkpt>
      <trkpt lat="45.98588" lon="4.8704">
        <ele>279</ele>
        <time>2017-04-03T09:50:42Z</time>
      </trkpt>
      <trkpt lat="45.98586" lon="4.87033">
        <ele>279</ele>
        <time>2017-04-03T09:50:43Z</time>
      </trkpt>
      <trkpt lat="45.98586" lon="4.87025">
        <ele>279</ele>
        <time>2017-04-03T09:50:44Z</time>
      </trkpt>
      <trkpt lat="45.98585" lon="4.87018">
        <ele>279</ele>
        <time>2017-04-03T09:50:45Z</time>
      </trkpt>
      <trkpt lat="45.98583" lon="4.87011">
        <ele>280</ele>
        <time>2017-04-03T09:50:46Z</time>
      </trkpt>
      <trkpt lat="45.98582" lon="4.87004">
        <ele>280</ele>
        <time>2017-04-03T09:50:47Z</time>
      </trkpt>
      <trkpt lat="45.98581" lon="4.86998">
        <ele>280</ele>
        <time>2017-04-03T09:50:48Z</time>
      </trkpt>
      <trkpt lat="45.98579" lon="4.86992">
        <ele>281</ele>
        <time>2017-04-03T09:50:49Z</time>
      </trkpt>
      <trkpt lat="45.98578" lon="4.86979">
        <ele>281</ele>
        <time>2017-04-03T09:50:51Z</time>
      </trkpt>
      <trkpt lat="45.98577" lon="4.86973">
        <ele>281</ele>
        <time>2017-04-03T09:50:52Z</time>
      </trkpt>
      <trkpt lat="45.98577" lon="4.86966">
        <ele>281</ele>
        <time>2017-04-03T09:50:53Z</time>
      </trkpt>
      <trkpt lat="45.98577" lon="4.86959">
        <ele>281</ele>
        <time>2017-04-03T09:50:54Z</time>
      </trkpt>
      <trkpt lat="45.98577" lon="4.86953">
        <ele>281</ele>
        <time>2017-04-03T09:50:55Z</time>
      </trkpt>
      <trkpt lat="45.98577" lon="4.86946">
        <ele>281</ele>
        <time>2017-04-03T09:50:56Z</time>
      </trkpt>
      <trkpt lat="45.98576" lon="4.86939">
        <ele>281</ele>
        <time>2017-04-03T09:50:57Z</time>
      </trkpt>
      <trkpt lat="45.98576" lon="4.86933">
        <ele>280</ele>
        <time>2017-04-03T09:50:58Z</time>
      </trkpt>
      <trkpt lat="45.98576" lon="4.86926">
        <ele>280</ele>
        <time>2017-04-03T09:50:59Z</time>
      </trkpt>
      <trkpt lat="45.98576" lon="4.8692">
        <ele>280</ele>
        <time>2017-04-03T09:51:00Z</time>
      </trkpt>
      <trkpt lat="45.98576" lon="4.86913">
        <ele>279</ele>
        <time>2017-04-03T09:51:01Z</time>
      </trkpt>
      <trkpt lat="45.98577" lon="4.86906">
        <ele>279</ele>
        <time>2017-04-03T09:51:02Z</time>
      </trkpt>
      <trkpt lat="45.98577" lon="4.86899">
        <ele>279</ele>
        <time>2017-04-03T09:51:03Z</time>
      </trkpt>
      <trkpt lat="45.98578" lon="4.86891">
        <ele>279</ele>
        <time>2017-04-03T09:51:04Z</time>
      </trkpt>
      <trkpt lat="45.98578" lon="4.86883">
        <ele>279</ele>
        <time>2017-04-03T09:51:05Z</time>
      </trkpt>
      <trkpt lat="45.98579" lon="4.86875">
        <ele>279</ele>
        <time>2017-04-03T09:51:06Z</time>
      </trkpt>
      <trkpt lat="45.9858" lon="4.86868">
        <ele>279</ele>
        <time>2017-04-03T09:51:07Z</time>
      </trkpt>
      <trkpt lat="45.98581" lon="4.86861">
        <ele>279</ele>
        <time>2017-04-03T09:51:08Z</time>
      </trkpt>
      <trkpt lat="45.98581" lon="4.86853">
        <ele>279</ele>
        <time>2017-04-03T09:51:09Z</time>
      </trkpt>
      <trkpt lat="45.98582" lon="4.86845">
        <ele>278</ele>
        <time>2017-04-03T09:51:10Z</time>
      </trkpt>
      <trkpt lat="45.98582" lon="4.86837">
        <ele>277</ele>
        <time>2017-04-03T09:51:11Z</time>
      </trkpt>
      <trkpt lat="45.98583" lon="4.86829">
        <ele>277</ele>
        <time>2017-04-03T09:51:12Z</time>
      </trkpt>
      <trkpt lat="45.98583" lon="4.86822">
        <ele>277</ele>
        <time>2017-04-03T09:51:13Z</time>
      </trkpt>
      <trkpt lat="45.98584" lon="4.86815">
        <ele>276</ele>
        <time>2017-04-03T09:51:14Z</time>
      </trkpt>
      <trkpt lat="45.98584" lon="4.86808">
        <ele>276</ele>
        <time>2017-04-03T09:51:15Z</time>
      </trkpt>
      <trkpt lat="45.98583" lon="4.86801">
        <ele>277</ele>
        <time>2017-04-03T09:51:16Z</time>
      </trkpt>
      <trkpt lat="45.98582" lon="4.86794">
        <ele>277</ele>
        <time>2017-04-03T09:51:17Z</time>
      </trkpt>
      <trkpt lat="45.98581" lon="4.86787">
        <ele>277</ele>
        <time>2017-04-03T09:51:18Z</time>
      </trkpt>
      <trkpt lat="45.9858" lon="4.86779">
        <ele>277</ele>
        <time>2017-04-03T09:51:19Z</time>
      </trkpt>
      <trkpt lat="45.98578" lon="4.86772">
        <ele>277</ele>
        <time>2017-04-03T09:51:20Z</time>
      </trkpt>
      <trkpt lat="45.98577" lon="4.86766">
        <ele>277</ele>
        <time>2017-04-03T09:51:21Z</time>
      </trkpt>
      <trkpt lat="45.98576" lon="4.86758">
        <ele>277</ele>
        <time>2017-04-03T09:51:22Z</time>
      </trkpt>
      <trkpt lat="45.98574" lon="4.86751">
        <ele>277</ele>
        <time>2017-04-03T09:51:23Z</time>
      </trkpt>
      <trkpt lat="45.98574" lon="4.86744">
        <ele>277</ele>
        <time>2017-04-03T09:51:24Z</time>
      </trkpt>
      <trkpt lat="45.98572" lon="4.86737">
        <ele>277</ele>
        <time>2017-04-03T09:51:25Z</time>
      </trkpt>
      <trkpt lat="45.98572" lon="4.8673">
        <ele>277</ele>
        <time>2017-04-03T09:51:26Z</time>
      </trkpt>
      <trkpt lat="45.9857" lon="4.86722">
        <ele>277</ele>
        <time>2017-04-03T09:51:27Z</time>
      </trkpt>
      <trkpt lat="45.9857" lon="4.86715">
        <ele>277</ele>
        <time>2017-04-03T09:51:28Z</time>
      </trkpt>
      <trkpt lat="45.98569" lon="4.86708">
        <ele>277</ele>
        <time>2017-04-03T09:51:29Z</time>
      </trkpt>
      <trkpt lat="45.98569" lon="4.86701">
        <ele>277</ele>
        <time>2017-04-03T09:51:30Z</time>
      </trkpt>
      <trkpt lat="45.98568" lon="4.86694">
        <ele>277</ele>
        <time>2017-04-03T09:51:31Z</time>
      </trkpt>
      <trkpt lat="45.98568" lon="4.86687">
        <ele>277</ele>
        <time>2017-04-03T09:51:32Z</time>
      </trkpt>
      <trkpt lat="45.98567" lon="4.86679">
        <ele>276</ele>
        <time>2017-04-03T09:51:33Z</time>
      </trkpt>
      <trkpt lat="45.98566" lon="4.86672">
        <ele>276</ele>
        <time>2017-04-03T09:51:34Z</time>
      </trkpt>
      <trkpt lat="45.98567" lon="4.86664">
        <ele>277</ele>
        <time>2017-04-03T09:51:35Z</time>
      </trkpt>
      <trkpt lat="45.98566" lon="4.86656">
        <ele>277</ele>
        <time>2017-04-03T09:51:36Z</time>
      </trkpt>
      <trkpt lat="45.98565" lon="4.86649">
        <ele>277</ele>
        <time>2017-04-03T09:51:37Z</time>
      </trkpt>
      <trkpt lat="45.98564" lon="4.86642">
        <ele>277</ele>
        <time>2017-04-03T09:51:38Z</time>
      </trkpt>
      <trkpt lat="45.98563" lon="4.86634">
        <ele>277</ele>
        <time>2017-04-03T09:51:39Z</time>
      </trkpt>
      <trkpt lat="45.98561" lon="4.86626">
        <ele>278</ele>
        <time>2017-04-03T09:51:40Z</time>
      </trkpt>
      <trkpt lat="45.9856" lon="4.86618">
        <ele>278</ele>
        <time>2017-04-03T09:51:41Z</time>
      </trkpt>
      <trkpt lat="45.98558" lon="4.86611">
        <ele>278</ele>
        <time>2017-04-03T09:51:42Z</time>
      </trkpt>
      <trkpt lat="45.98557" lon="4.86603">
        <ele>278</ele>
        <time>2017-04-03T09:51:43Z</time>
      </trkpt>
      <trkpt lat="45.98555" lon="4.86596">
        <ele>278</ele>
        <time>2017-04-03T09:51:44Z</time>
      </trkpt>
      <trkpt lat="45.98553" lon="4.86588">
        <ele>278</ele>
        <time>2017-04-03T09:51:45Z</time>
      </trkpt>
      <trkpt lat="45.98551" lon="4.86581">
        <ele>278</ele>
        <time>2017-04-03T09:51:46Z</time>
      </trkpt>
      <trkpt lat="45.98549" lon="4.86574">
        <ele>278</ele>
        <time>2017-04-03T09:51:47Z</time>
      </trkpt>
      <trkpt lat="45.98547" lon="4.86567">
        <ele>278</ele>
        <time>2017-04-03T09:51:48Z</time>
      </trkpt>
      <trkpt lat="45.98544" lon="4.8656">
        <ele>278</ele>
        <time>2017-04-03T09:51:49Z</time>
      </trkpt>
      <trkpt lat="45.98541" lon="4.86553">
        <ele>278</ele>
        <time>2017-04-03T09:51:50Z</time>
      </trkpt>
      <trkpt lat="45.98538" lon="4.86547">
        <ele>278</ele>
        <time>2017-04-03T09:51:51Z</time>
      </trkpt>
      <trkpt lat="45.98535" lon="4.86541">
        <ele>278</ele>
        <time>2017-04-03T09:51:52Z</time>
      </trkpt>
      <trkpt lat="45.98532" lon="4.86535">
        <ele>279</ele>
        <time>2017-04-03T09:51:53Z</time>
      </trkpt>
      <trkpt lat="45.98528" lon="4.86529">
        <ele>279</ele>
        <time>2017-04-03T09:51:54Z</time>
      </trkpt>
      <trkpt lat="45.98525" lon="4.86523">
        <ele>279</ele>
        <time>2017-04-03T09:51:55Z</time>
      </trkpt>
      <trkpt lat="45.98522" lon="4.86516">
        <ele>279</ele>
        <time>2017-04-03T09:51:56Z</time>
      </trkpt>
      <trkpt lat="45.98519" lon="4.8651">
        <ele>279</ele>
        <time>2017-04-03T09:51:57Z</time>
      </trkpt>
      <trkpt lat="45.98515" lon="4.86505">
        <ele>279</ele>
        <time>2017-04-03T09:51:58Z</time>
      </trkpt>
      <trkpt lat="45.98513" lon="4.86499">
        <ele>279</ele>
        <time>2017-04-03T09:51:59Z</time>
      </trkpt>
      <trkpt lat="45.9851" lon="4.86493">
        <ele>279</ele>
        <time>2017-04-03T09:52:00Z</time>
      </trkpt>
      <trkpt lat="45.98507" lon="4.86487">
        <ele>279</ele>
        <time>2017-04-03T09:52:01Z</time>
      </trkpt>
      <trkpt lat="45.98505" lon="4.8648">
        <ele>278</ele>
        <time>2017-04-03T09:52:02Z</time>
      </trkpt>
      <trkpt lat="45.98502" lon="4.86474">
        <ele>278</ele>
        <time>2017-04-03T09:52:03Z</time>
      </trkpt>
      <trkpt lat="45.98499" lon="4.86468">
        <ele>279</ele>
        <time>2017-04-03T09:52:04Z</time>
      </trkpt>
      <trkpt lat="45.98497" lon="4.86462">
        <ele>278</ele>
        <time>2017-04-03T09:52:05Z</time>
      </trkpt>
      <trkpt lat="45.98493" lon="4.86457">
        <ele>278</ele>
        <time>2017-04-03T09:52:06Z</time>
      </trkpt>
      <trkpt lat="45.98491" lon="4.86452">
        <ele>278</ele>
        <time>2017-04-03T09:52:07Z</time>
      </trkpt>
      <trkpt lat="45.98487" lon="4.86447">
        <ele>278</ele>
        <time>2017-04-03T09:52:08Z</time>
      </trkpt>
      <trkpt lat="45.98484" lon="4.86442">
        <ele>278</ele>
        <time>2017-04-03T09:52:09Z</time>
      </trkpt>
      <trkpt lat="45.98481" lon="4.86436">
        <ele>278</ele>
        <time>2017-04-03T09:52:10Z</time>
      </trkpt>
      <trkpt lat="45.98478" lon="4.8643">
        <ele>278</ele>
        <time>2017-04-03T09:52:11Z</time>
      </trkpt>
      <trkpt lat="45.98475" lon="4.86425">
        <ele>278</ele>
        <time>2017-04-03T09:52:12Z</time>
      </trkpt>
      <trkpt lat="45.98471" lon="4.86419">
        <ele>278</ele>
        <time>2017-04-03T09:52:13Z</time>
      </trkpt>
      <trkpt lat="45.98468" lon="4.86412">
        <ele>277</ele>
        <time>2017-04-03T09:52:14Z</time>
      </trkpt>
      <trkpt lat="45.98465" lon="4.86406">
        <ele>277</ele>
        <time>2017-04-03T09:52:15Z</time>
      </trkpt>
      <trkpt lat="45.98462" lon="4.86399">
        <ele>277</ele>
        <time>2017-04-03T09:52:16Z</time>
      </trkpt>
      <trkpt lat="45.98459" lon="4.86393">
        <ele>277</ele>
        <time>2017-04-03T09:52:17Z</time>
      </trkpt>
      <trkpt lat="45.98456" lon="4.86386">
        <ele>277</ele>
        <time>2017-04-03T09:52:18Z</time>
      </trkpt>
      <trkpt lat="45.98454" lon="4.8638">
        <ele>277</ele>
        <time>2017-04-03T09:52:19Z</time>
      </trkpt>
      <trkpt lat="45.98452" lon="4.86373">
        <ele>277</ele>
        <time>2017-04-03T09:52:20Z</time>
      </trkpt>
      <trkpt lat="45.9845" lon="4.86366">
        <ele>277</ele>
        <time>2017-04-03T09:52:21Z</time>
      </trkpt>
      <trkpt lat="45.98449" lon="4.86359">
        <ele>277</ele>
        <time>2017-04-03T09:52:22Z</time>
      </trkpt>
      <trkpt lat="45.98447" lon="4.86352">
        <ele>277</ele>
        <time>2017-04-03T09:52:23Z</time>
      </trkpt>
      <trkpt lat="45.98445" lon="4.86345">
        <ele>277</ele>
        <time>2017-04-03T09:52:24Z</time>
      </trkpt>
      <trkpt lat="45.98444" lon="4.86338">
        <ele>277</ele>
        <time>2017-04-03T09:52:25Z</time>
      </trkpt>
      <trkpt lat="45.98442" lon="4.86331">
        <ele>276</ele>
        <time>2017-04-03T09:52:26Z</time>
      </trkpt>
      <trkpt lat="45.9844" lon="4.86326">
        <ele>276</ele>
        <time>2017-04-03T09:52:27Z</time>
      </trkpt>
      <trkpt lat="45.98439" lon="4.86319">
        <ele>276</ele>
        <time>2017-04-03T09:52:28Z</time>
      </trkpt>
      <trkpt lat="45.98439" lon="4.86306">
        <ele>276</ele>
        <time>2017-04-03T09:52:30Z</time>
      </trkpt>
      <trkpt lat="45.98437" lon="4.863">
        <ele>276</ele>
        <time>2017-04-03T09:52:31Z</time>
      </trkpt>
      <trkpt lat="45.98436" lon="4.86294">
        <ele>276</ele>
        <time>2017-04-03T09:52:32Z</time>
      </trkpt>
      <trkpt lat="45.98435" lon="4.86288">
        <ele>276</ele>
        <time>2017-04-03T09:52:33Z</time>
      </trkpt>
      <trkpt lat="45.98435" lon="4.86281">
        <ele>276</ele>
        <time>2017-04-03T09:52:34Z</time>
      </trkpt>
      <trkpt lat="45.98434" lon="4.86275">
        <ele>276</ele>
        <time>2017-04-03T09:52:35Z</time>
      </trkpt>
      <trkpt lat="45.98432" lon="4.86269">
        <ele>275</ele>
        <time>2017-04-03T09:52:36Z</time>
      </trkpt>
      <trkpt lat="45.98431" lon="4.86261">
        <ele>275</ele>
        <time>2017-04-03T09:52:37Z</time>
      </trkpt>
      <trkpt lat="45.9843" lon="4.86254">
        <ele>275</ele>
        <time>2017-04-03T09:52:38Z</time>
      </trkpt>
      <trkpt lat="45.9843" lon="4.86247">
        <ele>275</ele>
        <time>2017-04-03T09:52:39Z</time>
      </trkpt>
      <trkpt lat="45.98428" lon="4.86235">
        <ele>275</ele>
        <time>2017-04-03T09:52:41Z</time>
      </trkpt>
      <trkpt lat="45.98427" lon="4.86229">
        <ele>275</ele>
        <time>2017-04-03T09:52:42Z</time>
      </trkpt>
      <trkpt lat="45.98427" lon="4.86218">
        <ele>275</ele>
        <time>2017-04-03T09:52:44Z</time>
      </trkpt>
      <trkpt lat="45.98427" lon="4.86213">
        <ele>275</ele>
        <time>2017-04-03T09:52:45Z</time>
      </trkpt>
      <trkpt lat="45.98425" lon="4.86205">
        <ele>275</ele>
        <time>2017-04-03T09:52:47Z</time>
      </trkpt>
      <trkpt lat="45.98423" lon="4.86199">
        <ele>275</ele>
        <time>2017-04-03T09:52:48Z</time>
      </trkpt>
      <trkpt lat="45.98422" lon="4.86188">
        <ele>275</ele>
        <time>2017-04-03T09:52:50Z</time>
      </trkpt>
      <trkpt lat="45.9842" lon="4.86182">
        <ele>275</ele>
        <time>2017-04-03T09:52:51Z</time>
      </trkpt>
      <trkpt lat="45.98419" lon="4.86171">
        <ele>276</ele>
        <time>2017-04-03T09:52:53Z</time>
      </trkpt>
      <trkpt lat="45.98418" lon="4.86165">
        <ele>276</ele>
        <time>2017-04-03T09:52:54Z</time>
      </trkpt>
      <trkpt lat="45.98417" lon="4.86154">
        <ele>276</ele>
        <time>2017-04-03T09:52:56Z</time>
      </trkpt>
      <trkpt lat="45.98416" lon="4.86148">
        <ele>276</ele>
        <time>2017-04-03T09:52:57Z</time>
      </trkpt>
      <trkpt lat="45.98414" lon="4.86135">
        <ele>276</ele>
        <time>2017-04-03T09:52:59Z</time>
      </trkpt>
      <trkpt lat="45.98413" lon="4.86129">
        <ele>276</ele>
        <time>2017-04-03T09:53:00Z</time>
      </trkpt>
      <trkpt lat="45.98412" lon="4.86122">
        <ele>277</ele>
        <time>2017-04-03T09:53:01Z</time>
      </trkpt>
      <trkpt lat="45.98411" lon="4.86115">
        <ele>277</ele>
        <time>2017-04-03T09:53:02Z</time>
      </trkpt>
      <trkpt lat="45.9841" lon="4.86108">
        <ele>277</ele>
        <time>2017-04-03T09:53:03Z</time>
      </trkpt>
      <trkpt lat="45.98409" lon="4.861">
        <ele>277</ele>
        <time>2017-04-03T09:53:04Z</time>
      </trkpt>
      <trkpt lat="45.98407" lon="4.86093">
        <ele>277</ele>
        <time>2017-04-03T09:53:05Z</time>
      </trkpt>
      <trkpt lat="45.98405" lon="4.86084">
        <ele>277</ele>
        <time>2017-04-03T09:53:06Z</time>
      </trkpt>
      <trkpt lat="45.98403" lon="4.86075">
        <ele>277</ele>
        <time>2017-04-03T09:53:07Z</time>
      </trkpt>
      <trkpt lat="45.984" lon="4.86066">
        <ele>277</ele>
        <time>2017-04-03T09:53:08Z</time>
      </trkpt>
      <trkpt lat="45.98398" lon="4.86056">
        <ele>277</ele>
        <time>2017-04-03T09:53:09Z</time>
      </trkpt>
      <trkpt lat="45.98394" lon="4.86046">
        <ele>277</ele>
        <time>2017-04-03T09:53:10Z</time>
      </trkpt>
      <trkpt lat="45.98391" lon="4.86036">
        <ele>277</ele>
        <time>2017-04-03T09:53:11Z</time>
      </trkpt>
      <trkpt lat="45.98387" lon="4.86025">
        <ele>277</ele>
        <time>2017-04-03T09:53:12Z</time>
      </trkpt>
      <trkpt lat="45.98383" lon="4.86016">
        <ele>277</ele>
        <time>2017-04-03T09:53:13Z</time>
      </trkpt>
      <trkpt lat="45.9838" lon="4.86007">
        <ele>277</ele>
        <time>2017-04-03T09:53:14Z</time>
      </trkpt>
      <trkpt lat="45.98376" lon="4.85998">
        <ele>277</ele>
        <time>2017-04-03T09:53:15Z</time>
      </trkpt>
      <trkpt lat="45.98372" lon="4.8599">
        <ele>276</ele>
        <time>2017-04-03T09:53:16Z</time>
      </trkpt>
      <trkpt lat="45.98369" lon="4.85982">
        <ele>276</ele>
        <time>2017-04-03T09:53:17Z</time>
      </trkpt>
      <trkpt lat="45.98365" lon="4.85975">
        <ele>276</ele>
        <time>2017-04-03T09:53:18Z</time>
      </trkpt>
      <trkpt lat="45.98362" lon="4.85967">
        <ele>276</ele>
        <time>2017-04-03T09:53:19Z</time>
      </trkpt>
      <trkpt lat="45.98359" lon="4.8596">
        <ele>276</ele>
        <time>2017-04-03T09:53:20Z</time>
      </trkpt>
      <trkpt lat="45.98356" lon="4.85953">
        <ele>276</ele>
        <time>2017-04-03T09:53:21Z</time>
      </trkpt>
      <trkpt lat="45.98353" lon="4.85946">
        <ele>276</ele>
        <time>2017-04-03T09:53:22Z</time>
      </trkpt>
      <trkpt lat="45.9835" lon="4.85939">
        <ele>276</ele>
        <time>2017-04-03T09:53:23Z</time>
      </trkpt>
      <trkpt lat="45.98347" lon="4.85933">
        <ele>276</ele>
        <time>2017-04-03T09:53:24Z</time>
      </trkpt>
      <trkpt lat="45.98345" lon="4.85926">
        <ele>276</ele>
        <time>2017-04-03T09:53:25Z</time>
      </trkpt>
      <trkpt lat="45.98342" lon="4.8592">
        <ele>276</ele>
        <time>2017-04-03T09:53:26Z</time>
      </trkpt>
      <trkpt lat="45.98339" lon="4.85913">
        <ele>276</ele>
        <time>2017-04-03T09:53:27Z</time>
      </trkpt>
      <trkpt lat="45.98337" lon="4.85907">
        <ele>276</ele>
        <time>2017-04-03T09:53:28Z</time>
      </trkpt>
      <trkpt lat="45.98334" lon="4.859">
        <ele>276</ele>
        <time>2017-04-03T09:53:29Z</time>
      </trkpt>
      <trkpt lat="45.9833" lon="4.85894">
        <ele>276</ele>
        <time>2017-04-03T09:53:30Z</time>
      </trkpt>
      <trkpt lat="45.98327" lon="4.85886">
        <ele>276</ele>
        <time>2017-04-03T09:53:31Z</time>
      </trkpt>
      <trkpt lat="45.98324" lon="4.85879">
        <ele>276</ele>
        <time>2017-04-03T09:53:32Z</time>
      </trkpt>
      <trkpt lat="45.98321" lon="4.85872">
        <ele>276</ele>
        <time>2017-04-03T09:53:33Z</time>
      </trkpt>
      <trkpt lat="45.98318" lon="4.85865">
        <ele>276</ele>
        <time>2017-04-03T09:53:34Z</time>
      </trkpt>
      <trkpt lat="45.98315" lon="4.85857">
        <ele>276</ele>
        <time>2017-04-03T09:53:35Z</time>
      </trkpt>
      <trkpt lat="45.98312" lon="4.8585">
        <ele>276</ele>
        <time>2017-04-03T09:53:36Z</time>
      </trkpt>
      <trkpt lat="45.98309" lon="4.85843">
        <ele>276</ele>
        <time>2017-04-03T09:53:37Z</time>
      </trkpt>
      <trkpt lat="45.98306" lon="4.85836">
        <ele>276</ele>
        <time>2017-04-03T09:53:38Z</time>
      </trkpt>
      <trkpt lat="45.98304" lon="4.85826">
        <ele>275</ele>
        <time>2017-04-03T09:53:39Z</time>
      </trkpt>
      <trkpt lat="45.98301" lon="4.85818">
        <ele>275</ele>
        <time>2017-04-03T09:53:40Z</time>
      </trkpt>
      <trkpt lat="45.98299" lon="4.8581">
        <ele>275</ele>
        <time>2017-04-03T09:53:41Z</time>
      </trkpt>
      <trkpt lat="45.98296" lon="4.85802">
        <ele>275</ele>
        <time>2017-04-03T09:53:42Z</time>
      </trkpt>
      <trkpt lat="45.98293" lon="4.85794">
        <ele>275</ele>
        <time>2017-04-03T09:53:43Z</time>
      </trkpt>
      <trkpt lat="45.98291" lon="4.85787">
        <ele>275</ele>
        <time>2017-04-03T09:53:44Z</time>
      </trkpt>
      <trkpt lat="45.98289" lon="4.8578">
        <ele>275</ele>
        <time>2017-04-03T09:53:45Z</time>
      </trkpt>
      <trkpt lat="45.98286" lon="4.85773">
        <ele>275</ele>
        <time>2017-04-03T09:53:46Z</time>
      </trkpt>
      <trkpt lat="45.98283" lon="4.85766">
        <ele>275</ele>
        <time>2017-04-03T09:53:47Z</time>
      </trkpt>
      <trkpt lat="45.9828" lon="4.85758">
        <ele>275</ele>
        <time>2017-04-03T09:53:48Z</time>
      </trkpt>
      <trkpt lat="45.98277" lon="4.8575">
        <ele>275</ele>
        <time>2017-04-03T09:53:49Z</time>
      </trkpt>
      <trkpt lat="45.98274" lon="4.85743">
        <ele>274</ele>
        <time>2017-04-03T09:53:50Z</time>
      </trkpt>
      <trkpt lat="45.98271" lon="4.85736">
        <ele>275</ele>
        <time>2017-04-03T09:53:51Z</time>
      </trkpt>
      <trkpt lat="45.98268" lon="4.85729">
        <ele>275</ele>
        <time>2017-04-03T09:53:52Z</time>
      </trkpt>
      <trkpt lat="45.98265" lon="4.85722">
        <ele>275</ele>
        <time>2017-04-03T09:53:53Z</time>
      </trkpt>
      <trkpt lat="45.98262" lon="4.85715">
        <ele>275</ele>
        <time>2017-04-03T09:53:54Z</time>
      </trkpt>
      <trkpt lat="45.9826" lon="4.85708">
        <ele>275</ele>
        <time>2017-04-03T09:53:55Z</time>
      </trkpt>
      <trkpt lat="45.98258" lon="4.85702">
        <ele>275</ele>
        <time>2017-04-03T09:53:56Z</time>
      </trkpt>
      <trkpt lat="45.98255" lon="4.85696">
        <ele>275</ele>
        <time>2017-04-03T09:53:57Z</time>
      </trkpt>
      <trkpt lat="45.98252" lon="4.8569">
        <ele>275</ele>
        <time>2017-04-03T09:53:58Z</time>
      </trkpt>
      <trkpt lat="45.9825" lon="4.85683">
        <ele>276</ele>
        <time>2017-04-03T09:53:59Z</time>
      </trkpt>
      <trkpt lat="45.98247" lon="4.85676">
        <ele>276</ele>
        <time>2017-04-03T09:54:00Z</time>
      </trkpt>
      <trkpt lat="45.98244" lon="4.85669">
        <ele>276</ele>
        <time>2017-04-03T09:54:01Z</time>
      </trkpt>
      <trkpt lat="45.98242" lon="4.85663">
        <ele>276</ele>
        <time>2017-04-03T09:54:02Z</time>
      </trkpt>
      <trkpt lat="45.98239" lon="4.85656">
        <ele>276</ele>
        <time>2017-04-03T09:54:03Z</time>
      </trkpt>
      <trkpt lat="45.98236" lon="4.85649">
        <ele>277</ele>
        <time>2017-04-03T09:54:04Z</time>
      </trkpt>
      <trkpt lat="45.98233" lon="4.85642">
        <ele>277</ele>
        <time>2017-04-03T09:54:05Z</time>
      </trkpt>
      <trkpt lat="45.9823" lon="4.85635">
        <ele>277</ele>
        <time>2017-04-03T09:54:06Z</time>
      </trkpt>
      <trkpt lat="45.98227" lon="4.85628">
        <ele>277</ele>
        <time>2017-04-03T09:54:07Z</time>
      </trkpt>
      <trkpt lat="45.98224" lon="4.85621">
        <ele>277</ele>
        <time>2017-04-03T09:54:08Z</time>
      </trkpt>
      <trkpt lat="45.98222" lon="4.85614">
        <ele>277</ele>
        <time>2017-04-03T09:54:09Z</time>
      </trkpt>
      <trkpt lat="45.9822" lon="4.85607">
        <ele>277</ele>
        <time>2017-04-03T09:54:10Z</time>
      </trkpt>
      <trkpt lat="45.98217" lon="4.85599">
        <ele>277</ele>
        <time>2017-04-03T09:54:11Z</time>
      </trkpt>
      <trkpt lat="45.98213" lon="4.85591">
        <ele>277</ele>
        <time>2017-04-03T09:54:12Z</time>
      </trkpt>
      <trkpt lat="45.9821" lon="4.85584">
        <ele>277</ele>
        <time>2017-04-03T09:54:13Z</time>
      </trkpt>
      <trkpt lat="45.98206" lon="4.85576">
        <ele>276</ele>
        <time>2017-04-03T09:54:14Z</time>
      </trkpt>
      <trkpt lat="45.98202" lon="4.85568">
        <ele>276</ele>
        <time>2017-04-03T09:54:15Z</time>
      </trkpt>
      <trkpt lat="45.98199" lon="4.8556">
        <ele>276</ele>
        <time>2017-04-03T09:54:16Z</time>
      </trkpt>
      <trkpt lat="45.98196" lon="4.85553">
        <ele>276</ele>
        <time>2017-04-03T09:54:17Z</time>
      </trkpt>
      <trkpt lat="45.98193" lon="4.85545">
        <ele>276</ele>
        <time>2017-04-03T09:54:18Z</time>
      </trkpt>
      <trkpt lat="45.98189" lon="4.85538">
        <ele>276</ele>
        <time>2017-04-03T09:54:19Z</time>
      </trkpt>
      <trkpt lat="45.98186" lon="4.8553">
        <ele>276</ele>
        <time>2017-04-03T09:54:20Z</time>
      </trkpt>
      <trkpt lat="45.98184" lon="4.85522">
        <ele>275</ele>
        <time>2017-04-03T09:54:21Z</time>
      </trkpt>
      <trkpt lat="45.98181" lon="4.85515">
        <ele>275</ele>
        <time>2017-04-03T09:54:22Z</time>
      </trkpt>
      <trkpt lat="45.98177" lon="4.85508">
        <ele>275</ele>
        <time>2017-04-03T09:54:23Z</time>
      </trkpt>
      <trkpt lat="45.98174" lon="4.85501">
        <ele>275</ele>
        <time>2017-04-03T09:54:24Z</time>
      </trkpt>
      <trkpt lat="45.98171" lon="4.85495">
        <ele>275</ele>
        <time>2017-04-03T09:54:25Z</time>
      </trkpt>
      <trkpt lat="45.98169" lon="4.85488">
        <ele>275</ele>
        <time>2017-04-03T09:54:26Z</time>
      </trkpt>
      <trkpt lat="45.98166" lon="4.85482">
        <ele>275</ele>
        <time>2017-04-03T09:54:27Z</time>
      </trkpt>
      <trkpt lat="45.98163" lon="4.85476">
        <ele>275</ele>
        <time>2017-04-03T09:54:28Z</time>
      </trkpt>
      <trkpt lat="45.9816" lon="4.85469">
        <ele>275</ele>
        <time>2017-04-03T09:54:29Z</time>
      </trkpt>
      <trkpt lat="45.98158" lon="4.85463">
        <ele>275</ele>
        <time>2017-04-03T09:54:30Z</time>
      </trkpt>
      <trkpt lat="45.98155" lon="4.85456">
        <ele>276</ele>
        <time>2017-04-03T09:54:31Z</time>
      </trkpt>
      <trkpt lat="45.98152" lon="4.85449">
        <ele>276</ele>
        <time>2017-04-03T09:54:32Z</time>
      </trkpt>
      <trkpt lat="45.98149" lon="4.85442">
        <ele>276</ele>
        <time>2017-04-03T09:54:33Z</time>
      </trkpt>
      <trkpt lat="45.98147" lon="4.85435">
        <ele>276</ele>
        <time>2017-04-03T09:54:34Z</time>
      </trkpt>
      <trkpt lat="45.98143" lon="4.85428">
        <ele>276</ele>
        <time>2017-04-03T09:54:35Z</time>
      </trkpt>
      <trkpt lat="45.9814" lon="4.85421">
        <ele>276</ele>
        <time>2017-04-03T09:54:36Z</time>
      </trkpt>
      <trkpt lat="45.98138" lon="4.85414">
        <ele>276</ele>
        <time>2017-04-03T09:54:37Z</time>
      </trkpt>
      <trkpt lat="45.98135" lon="4.85407">
        <ele>276</ele>
        <time>2017-04-03T09:54:38Z</time>
      </trkpt>
      <trkpt lat="45.98132" lon="4.854">
        <ele>276</ele>
        <time>2017-04-03T09:54:39Z</time>
      </trkpt>
      <trkpt lat="45.9813" lon="4.85393">
        <ele>276</ele>
        <time>2017-04-03T09:54:40Z</time>
      </trkpt>
      <trkpt lat="45.98128" lon="4.85385">
        <ele>276</ele>
        <time>2017-04-03T09:54:41Z</time>
      </trkpt>
      <trkpt lat="45.98125" lon="4.85378">
        <ele>276</ele>
        <time>2017-04-03T09:54:42Z</time>
      </trkpt>
      <trkpt lat="45.98122" lon="4.85371">
        <ele>276</ele>
        <time>2017-04-03T09:54:43Z</time>
      </trkpt>
      <trkpt lat="45.98118" lon="4.85363">
        <ele>276</ele>
        <time>2017-04-03T09:54:44Z</time>
      </trkpt>
      <trkpt lat="45.98115" lon="4.85356">
        <ele>276</ele>
        <time>2017-04-03T09:54:45Z</time>
      </trkpt>
      <trkpt lat="45.98113" lon="4.85349">
        <ele>276</ele>
        <time>2017-04-03T09:54:46Z</time>
      </trkpt>
      <trkpt lat="45.9811" lon="4.85342">
        <ele>276</ele>
        <time>2017-04-03T09:54:47Z</time>
      </trkpt>
      <trkpt lat="45.98107" lon="4.85336">
        <ele>276</ele>
        <time>2017-04-03T09:54:48Z</time>
      </trkpt>
      <trkpt lat="45.98105" lon="4.85329">
        <ele>276</ele>
        <time>2017-04-03T09:54:49Z</time>
      </trkpt>
      <trkpt lat="45.98102" lon="4.85323">
        <ele>276</ele>
        <time>2017-04-03T09:54:50Z</time>
      </trkpt>
      <trkpt lat="45.98099" lon="4.85318">
        <ele>276</ele>
        <time>2017-04-03T09:54:51Z</time>
      </trkpt>
      <trkpt lat="45.98096" lon="4.85312">
        <ele>276</ele>
        <time>2017-04-03T09:54:52Z</time>
      </trkpt>
      <trkpt lat="45.98094" lon="4.85306">
        <ele>276</ele>
        <time>2017-04-03T09:54:53Z</time>
      </trkpt>
      <trkpt lat="45.98092" lon="4.853">
        <ele>276</ele>
        <time>2017-04-03T09:54:54Z</time>
      </trkpt>
      <trkpt lat="45.9809" lon="4.85294">
        <ele>276</ele>
        <time>2017-04-03T09:54:55Z</time>
      </trkpt>
      <trkpt lat="45.98087" lon="4.85288">
        <ele>276</ele>
        <time>2017-04-03T09:54:56Z</time>
      </trkpt>
      <trkpt lat="45.98085" lon="4.85281">
        <ele>276</ele>
        <time>2017-04-03T09:54:57Z</time>
      </trkpt>
      <trkpt lat="45.98082" lon="4.85275">
        <ele>276</ele>
        <time>2017-04-03T09:54:58Z</time>
      </trkpt>
      <trkpt lat="45.98079" lon="4.8527">
        <ele>276</ele>
        <time>2017-04-03T09:54:59Z</time>
      </trkpt>
      <trkpt lat="45.98075" lon="4.85264">
        <ele>276</ele>
        <time>2017-04-03T09:55:00Z</time>
      </trkpt>
      <trkpt lat="45.98073" lon="4.85259">
        <ele>276</ele>
        <time>2017-04-03T09:55:01Z</time>
      </trkpt>
      <trkpt lat="45.9807" lon="4.85253">
        <ele>276</ele>
        <time>2017-04-03T09:55:02Z</time>
      </trkpt>
      <trkpt lat="45.98064" lon="4.85243">
        <ele>276</ele>
        <time>2017-04-03T09:55:04Z</time>
      </trkpt>
      <trkpt lat="45.98062" lon="4.85239">
        <ele>276</ele>
        <time>2017-04-03T09:55:05Z</time>
      </trkpt>
      <trkpt lat="45.98058" lon="4.85229">
        <ele>276</ele>
        <time>2017-04-03T09:55:07Z</time>
      </trkpt>
      <trkpt lat="45.98057" lon="4.85225">
        <ele>276</ele>
        <time>2017-04-03T09:55:08Z</time>
      </trkpt>
      <trkpt lat="45.98056" lon="4.8522">
        <ele>276</ele>
        <time>2017-04-03T09:55:10Z</time>
      </trkpt>
      <trkpt lat="45.98055" lon="4.85219">
        <ele>276</ele>
        <time>2017-04-03T09:55:11Z</time>
      </trkpt>
      <trkpt lat="45.98054" lon="4.85212">
        <ele>276</ele>
        <time>2017-04-03T09:55:18Z</time>
      </trkpt>
      <trkpt lat="45.98053" lon="4.85209">
        <ele>276</ele>
        <time>2017-04-03T09:55:19Z</time>
      </trkpt>
      <trkpt lat="45.98049" lon="4.852">
        <ele>276</ele>
        <time>2017-04-03T09:55:22Z</time>
      </trkpt>
      <trkpt lat="45.98048" lon="4.85196">
        <ele>276</ele>
        <time>2017-04-03T09:55:23Z</time>
      </trkpt>
      <trkpt lat="45.98046" lon="4.85188">
        <ele>276</ele>
        <time>2017-04-03T09:55:25Z</time>
      </trkpt>
      <trkpt lat="45.98045" lon="4.85183">
        <ele>276</ele>
        <time>2017-04-03T09:55:26Z</time>
      </trkpt>
      <trkpt lat="45.98041" lon="4.85174">
        <ele>275</ele>
        <time>2017-04-03T09:55:28Z</time>
      </trkpt>
      <trkpt lat="45.98039" lon="4.85168">
        <ele>275</ele>
        <time>2017-04-03T09:55:29Z</time>
      </trkpt>
      <trkpt lat="45.98035" lon="4.85157">
        <ele>275</ele>
        <time>2017-04-03T09:55:31Z</time>
      </trkpt>
      <trkpt lat="45.98034" lon="4.8515">
        <ele>275</ele>
        <time>2017-04-03T09:55:32Z</time>
      </trkpt>
      <trkpt lat="45.98032" lon="4.85143">
        <ele>275</ele>
        <time>2017-04-03T09:55:33Z</time>
      </trkpt>
      <trkpt lat="45.9803" lon="4.85136">
        <ele>275</ele>
        <time>2017-04-03T09:55:34Z</time>
      </trkpt>
      <trkpt lat="45.98027" lon="4.85128">
        <ele>274</ele>
        <time>2017-04-03T09:55:35Z</time>
      </trkpt>
      <trkpt lat="45.98025" lon="4.8512">
        <ele>274</ele>
        <time>2017-04-03T09:55:36Z</time>
      </trkpt>
      <trkpt lat="45.98023" lon="4.85112">
        <ele>274</ele>
        <time>2017-04-03T09:55:37Z</time>
      </trkpt>
      <trkpt lat="45.98022" lon="4.85103">
        <ele>274</ele>
        <time>2017-04-03T09:55:38Z</time>
      </trkpt>
      <trkpt lat="45.9802" lon="4.85094">
        <ele>274</ele>
        <time>2017-04-03T09:55:39Z</time>
      </trkpt>
      <trkpt lat="45.98019" lon="4.85085">
        <ele>274</ele>
        <time>2017-04-03T09:55:40Z</time>
      </trkpt>
      <trkpt lat="45.98018" lon="4.85077">
        <ele>273</ele>
        <time>2017-04-03T09:55:41Z</time>
      </trkpt>
      <trkpt lat="45.98018" lon="4.85068">
        <ele>273</ele>
        <time>2017-04-03T09:55:42Z</time>
      </trkpt>
      <trkpt lat="45.98018" lon="4.8506">
        <ele>273</ele>
        <time>2017-04-03T09:55:43Z</time>
      </trkpt>
      <trkpt lat="45.98018" lon="4.85052">
        <ele>273</ele>
        <time>2017-04-03T09:55:44Z</time>
      </trkpt>
      <trkpt lat="45.98018" lon="4.85044">
        <ele>273</ele>
        <time>2017-04-03T09:55:45Z</time>
      </trkpt>
      <trkpt lat="45.98018" lon="4.85036">
        <ele>273</ele>
        <time>2017-04-03T09:55:46Z</time>
      </trkpt>
      <trkpt lat="45.98018" lon="4.85028">
        <ele>273</ele>
        <time>2017-04-03T09:55:47Z</time>
      </trkpt>
      <trkpt lat="45.98017" lon="4.85019">
        <ele>273</ele>
        <time>2017-04-03T09:55:48Z</time>
      </trkpt>
      <trkpt lat="45.98017" lon="4.85011">
        <ele>272</ele>
        <time>2017-04-03T09:55:49Z</time>
      </trkpt>
      <trkpt lat="45.98016" lon="4.85002">
        <ele>272</ele>
        <time>2017-04-03T09:55:50Z</time>
      </trkpt>
      <trkpt lat="45.98015" lon="4.84994">
        <ele>272</ele>
        <time>2017-04-03T09:55:51Z</time>
      </trkpt>
      <trkpt lat="45.98014" lon="4.84985">
        <ele>272</ele>
        <time>2017-04-03T09:55:52Z</time>
      </trkpt>
      <trkpt lat="45.98013" lon="4.84976">
        <ele>272</ele>
        <time>2017-04-03T09:55:53Z</time>
      </trkpt>
      <trkpt lat="45.98012" lon="4.84967">
        <ele>272</ele>
        <time>2017-04-03T09:55:54Z</time>
      </trkpt>
      <trkpt lat="45.98011" lon="4.84958">
        <ele>272</ele>
        <time>2017-04-03T09:55:55Z</time>
      </trkpt>
      <trkpt lat="45.9801" lon="4.84948">
        <ele>272</ele>
        <time>2017-04-03T09:55:56Z</time>
      </trkpt>
      <trkpt lat="45.98009" lon="4.84939">
        <ele>272</ele>
        <time>2017-04-03T09:55:57Z</time>
      </trkpt>
      <trkpt lat="45.98008" lon="4.84929">
        <ele>272</ele>
        <time>2017-04-03T09:55:58Z</time>
      </trkpt>
      <trkpt lat="45.98007" lon="4.8492">
        <ele>272</ele>
        <time>2017-04-03T09:55:59Z</time>
      </trkpt>
      <trkpt lat="45.98006" lon="4.8491">
        <ele>272</ele>
        <time>2017-04-03T09:56:00Z</time>
      </trkpt>
      <trkpt lat="45.98005" lon="4.84902">
        <ele>272</ele>
        <time>2017-04-03T09:56:01Z</time>
      </trkpt>
      <trkpt lat="45.98005" lon="4.84893">
        <ele>272</ele>
        <time>2017-04-03T09:56:02Z</time>
      </trkpt>
      <trkpt lat="45.98004" lon="4.84885">
        <ele>272</ele>
        <time>2017-04-03T09:56:03Z</time>
      </trkpt>
      <trkpt lat="45.98003" lon="4.84876">
        <ele>272</ele>
        <time>2017-04-03T09:56:04Z</time>
      </trkpt>
      <trkpt lat="45.98002" lon="4.84869">
        <ele>272</ele>
        <time>2017-04-03T09:56:05Z</time>
      </trkpt>
      <trkpt lat="45.98001" lon="4.84861">
        <ele>272</ele>
        <time>2017-04-03T09:56:06Z</time>
      </trkpt>
      <trkpt lat="45.98001" lon="4.84853">
        <ele>272</ele>
        <time>2017-04-03T09:56:07Z</time>
      </trkpt>
      <trkpt lat="45.98" lon="4.84846">
        <ele>272</ele>
        <time>2017-04-03T09:56:08Z</time>
      </trkpt>
      <trkpt lat="45.97999" lon="4.84839">
        <ele>272</ele>
        <time>2017-04-03T09:56:09Z</time>
      </trkpt>
      <trkpt lat="45.97999" lon="4.84832">
        <ele>272</ele>
        <time>2017-04-03T09:56:10Z</time>
      </trkpt>
      <trkpt lat="45.97998" lon="4.84825">
        <ele>273</ele>
        <time>2017-04-03T09:56:11Z</time>
      </trkpt>
      <trkpt lat="45.97997" lon="4.84818">
        <ele>273</ele>
        <time>2017-04-03T09:56:12Z</time>
      </trkpt>
      <trkpt lat="45.97996" lon="4.8481">
        <ele>273</ele>
        <time>2017-04-03T09:56:13Z</time>
      </trkpt>
      <trkpt lat="45.97996" lon="4.84801">
        <ele>274</ele>
        <time>2017-04-03T09:56:14Z</time>
      </trkpt>
      <trkpt lat="45.97995" lon="4.84792">
        <ele>274</ele>
        <time>2017-04-03T09:56:15Z</time>
      </trkpt>
      <trkpt lat="45.97995" lon="4.84783">
        <ele>274</ele>
        <time>2017-04-03T09:56:16Z</time>
      </trkpt>
      <trkpt lat="45.97995" lon="4.84774">
        <ele>274</ele>
        <time>2017-04-03T09:56:17Z</time>
      </trkpt>
      <trkpt lat="45.97994" lon="4.84766">
        <ele>275</ele>
        <time>2017-04-03T09:56:18Z</time>
      </trkpt>
      <trkpt lat="45.97994" lon="4.84758">
        <ele>275</ele>
        <time>2017-04-03T09:56:19Z</time>
      </trkpt>
      <trkpt lat="45.97993" lon="4.8475">
        <ele>275</ele>
        <time>2017-04-03T09:56:20Z</time>
      </trkpt>
      <trkpt lat="45.97992" lon="4.84742">
        <ele>275</ele>
        <time>2017-04-03T09:56:21Z</time>
      </trkpt>
      <trkpt lat="45.97991" lon="4.84734">
        <ele>275</ele>
        <time>2017-04-03T09:56:22Z</time>
      </trkpt>
      <trkpt lat="45.97991" lon="4.84727">
        <ele>275</ele>
        <time>2017-04-03T09:56:23Z</time>
      </trkpt>
      <trkpt lat="45.9799" lon="4.84719">
        <ele>275</ele>
        <time>2017-04-03T09:56:24Z</time>
      </trkpt>
      <trkpt lat="45.97989" lon="4.84713">
        <ele>275</ele>
        <time>2017-04-03T09:56:25Z</time>
      </trkpt>
      <trkpt lat="45.97988" lon="4.84705">
        <ele>275</ele>
        <time>2017-04-03T09:56:26Z</time>
      </trkpt>
      <trkpt lat="45.97987" lon="4.84698">
        <ele>275</ele>
        <time>2017-04-03T09:56:27Z</time>
      </trkpt>
      <trkpt lat="45.97986" lon="4.8469">
        <ele>275</ele>
        <time>2017-04-03T09:56:28Z</time>
      </trkpt>
      <trkpt lat="45.97985" lon="4.84681">
        <ele>275</ele>
        <time>2017-04-03T09:56:29Z</time>
      </trkpt>
      <trkpt lat="45.97984" lon="4.84672">
        <ele>275</ele>
        <time>2017-04-03T09:56:30Z</time>
      </trkpt>
      <trkpt lat="45.97983" lon="4.84663">
        <ele>274</ele>
        <time>2017-04-03T09:56:31Z</time>
      </trkpt>
      <trkpt lat="45.97981" lon="4.84655">
        <ele>274</ele>
        <time>2017-04-03T09:56:32Z</time>
      </trkpt>
      <trkpt lat="45.9798" lon="4.84647">
        <ele>275</ele>
        <time>2017-04-03T09:56:33Z</time>
      </trkpt>
      <trkpt lat="45.97978" lon="4.8464">
        <ele>275</ele>
        <time>2017-04-03T09:56:34Z</time>
      </trkpt>
      <trkpt lat="45.97977" lon="4.84633">
        <ele>275</ele>
        <time>2017-04-03T09:56:35Z</time>
      </trkpt>
      <trkpt lat="45.97975" lon="4.84626">
        <ele>275</ele>
        <time>2017-04-03T09:56:36Z</time>
      </trkpt>
      <trkpt lat="45.97974" lon="4.84619">
        <ele>275</ele>
        <time>2017-04-03T09:56:37Z</time>
      </trkpt>
      <trkpt lat="45.97973" lon="4.84612">
        <ele>275</ele>
        <time>2017-04-03T09:56:38Z</time>
      </trkpt>
      <trkpt lat="45.97972" lon="4.84605">
        <ele>275</ele>
        <time>2017-04-03T09:56:39Z</time>
      </trkpt>
      <trkpt lat="45.97971" lon="4.84598">
        <ele>275</ele>
        <time>2017-04-03T09:56:40Z</time>
      </trkpt>
      <trkpt lat="45.9797" lon="4.84591">
        <ele>275</ele>
        <time>2017-04-03T09:56:41Z</time>
      </trkpt>
      <trkpt lat="45.97969" lon="4.84584">
        <ele>275</ele>
        <time>2017-04-03T09:56:42Z</time>
      </trkpt>
      <trkpt lat="45.97968" lon="4.84576">
        <ele>275</ele>
        <time>2017-04-03T09:56:43Z</time>
      </trkpt>
      <trkpt lat="45.97967" lon="4.84569">
        <ele>275</ele>
        <time>2017-04-03T09:56:44Z</time>
      </trkpt>
      <trkpt lat="45.97965" lon="4.84561">
        <ele>275</ele>
        <time>2017-04-03T09:56:45Z</time>
      </trkpt>
      <trkpt lat="45.97964" lon="4.84553">
        <ele>275</ele>
        <time>2017-04-03T09:56:46Z</time>
      </trkpt>
      <trkpt lat="45.97962" lon="4.84546">
        <ele>275</ele>
        <time>2017-04-03T09:56:47Z</time>
      </trkpt>
      <trkpt lat="45.97961" lon="4.84539">
        <ele>275</ele>
        <time>2017-04-03T09:56:48Z</time>
      </trkpt>
      <trkpt lat="45.97959" lon="4.84527">
        <ele>275</ele>
        <time>2017-04-03T09:56:50Z</time>
      </trkpt>
      <trkpt lat="45.97959" lon="4.8452">
        <ele>275</ele>
        <time>2017-04-03T09:56:51Z</time>
      </trkpt>
      <trkpt lat="45.97958" lon="4.84514">
        <ele>275</ele>
        <time>2017-04-03T09:56:52Z</time>
      </trkpt>
      <trkpt lat="45.97957" lon="4.84508">
        <ele>275</ele>
        <time>2017-04-03T09:56:53Z</time>
      </trkpt>
      <trkpt lat="45.97955" lon="4.84495">
        <ele>275</ele>
        <time>2017-04-03T09:56:55Z</time>
      </trkpt>
      <trkpt lat="45.97954" lon="4.84489">
        <ele>275</ele>
        <time>2017-04-03T09:56:56Z</time>
      </trkpt>
      <trkpt lat="45.97954" lon="4.84483">
        <ele>275</ele>
        <time>2017-04-03T09:56:57Z</time>
      </trkpt>
      <trkpt lat="45.97953" lon="4.84476">
        <ele>275</ele>
        <time>2017-04-03T09:56:58Z</time>
      </trkpt>
      <trkpt lat="45.97952" lon="4.8447">
        <ele>275</ele>
        <time>2017-04-03T09:56:59Z</time>
      </trkpt>
      <trkpt lat="45.97951" lon="4.84463">
        <ele>275</ele>
        <time>2017-04-03T09:57:00Z</time>
      </trkpt>
      <trkpt lat="45.9795" lon="4.84457">
        <ele>275</ele>
        <time>2017-04-03T09:57:01Z</time>
      </trkpt>
      <trkpt lat="45.97949" lon="4.84451">
        <ele>275</ele>
        <time>2017-04-03T09:57:02Z</time>
      </trkpt>
      <trkpt lat="45.97947" lon="4.84438">
        <ele>275</ele>
        <time>2017-04-03T09:57:04Z</time>
      </trkpt>
      <trkpt lat="45.97946" lon="4.84431">
        <ele>275</ele>
        <time>2017-04-03T09:57:05Z</time>
      </trkpt>
      <trkpt lat="45.97946" lon="4.84424">
        <ele>275</ele>
        <time>2017-04-03T09:57:06Z</time>
      </trkpt>
      <trkpt lat="45.97944" lon="4.84417">
        <ele>275</ele>
        <time>2017-04-03T09:57:07Z</time>
      </trkpt>
      <trkpt lat="45.97943" lon="4.8441">
        <ele>275</ele>
        <time>2017-04-03T09:57:08Z</time>
      </trkpt>
      <trkpt lat="45.97942" lon="4.84402">
        <ele>275</ele>
        <time>2017-04-03T09:57:09Z</time>
      </trkpt>
      <trkpt lat="45.97941" lon="4.84393">
        <ele>275</ele>
        <time>2017-04-03T09:57:10Z</time>
      </trkpt>
      <trkpt lat="45.9794" lon="4.84385">
        <ele>275</ele>
        <time>2017-04-03T09:57:11Z</time>
      </trkpt>
      <trkpt lat="45.97939" lon="4.84377">
        <ele>275</ele>
        <time>2017-04-03T09:57:12Z</time>
      </trkpt>
      <trkpt lat="45.97937" lon="4.8437">
        <ele>275</ele>
        <time>2017-04-03T09:57:13Z</time>
      </trkpt>
      <trkpt lat="45.97937" lon="4.84362">
        <ele>275</ele>
        <time>2017-04-03T09:57:14Z</time>
      </trkpt>
      <trkpt lat="45.97936" lon="4.84355">
        <ele>275</ele>
        <time>2017-04-03T09:57:15Z</time>
      </trkpt>
      <trkpt lat="45.97935" lon="4.84349">
        <ele>275</ele>
        <time>2017-04-03T09:57:16Z</time>
      </trkpt>
      <trkpt lat="45.97934" lon="4.84342">
        <ele>275</ele>
        <time>2017-04-03T09:57:17Z</time>
      </trkpt>
      <trkpt lat="45.97932" lon="4.84336">
        <ele>275</ele>
        <time>2017-04-03T09:57:18Z</time>
      </trkpt>
      <trkpt lat="45.97931" lon="4.84328">
        <ele>275</ele>
        <time>2017-04-03T09:57:19Z</time>
      </trkpt>
      <trkpt lat="45.9793" lon="4.84321">
        <ele>275</ele>
        <time>2017-04-03T09:57:20Z</time>
      </trkpt>
      <trkpt lat="45.97929" lon="4.84314">
        <ele>275</ele>
        <time>2017-04-03T09:57:21Z</time>
      </trkpt>
      <trkpt lat="45.97928" lon="4.84307">
        <ele>275</ele>
        <time>2017-04-03T09:57:22Z</time>
      </trkpt>
      <trkpt lat="45.97927" lon="4.84301">
        <ele>275</ele>
        <time>2017-04-03T09:57:23Z</time>
      </trkpt>
      <trkpt lat="45.97926" lon="4.84294">
        <ele>275</ele>
        <time>2017-04-03T09:57:24Z</time>
      </trkpt>
      <trkpt lat="45.97925" lon="4.84287">
        <ele>275</ele>
        <time>2017-04-03T09:57:25Z</time>
      </trkpt>
      <trkpt lat="45.97924" lon="4.8428">
        <ele>275</ele>
        <time>2017-04-03T09:57:26Z</time>
      </trkpt>
      <trkpt lat="45.97924" lon="4.84273">
        <ele>275</ele>
        <time>2017-04-03T09:57:27Z</time>
      </trkpt>
      <trkpt lat="45.97926" lon="4.84267">
        <ele>275</ele>
        <time>2017-04-03T09:57:28Z</time>
      </trkpt>
      <trkpt lat="45.97929" lon="4.84261">
        <ele>275</ele>
        <time>2017-04-03T09:57:29Z</time>
      </trkpt>
      <trkpt lat="45.97933" lon="4.84257">
        <ele>275</ele>
        <time>2017-04-03T09:57:30Z</time>
      </trkpt>
      <trkpt lat="45.97937" lon="4.84254">
        <ele>275</ele>
        <time>2017-04-03T09:57:31Z</time>
      </trkpt>
      <trkpt lat="45.97941" lon="4.8425">
        <ele>275</ele>
        <time>2017-04-03T09:57:32Z</time>
      </trkpt>
      <trkpt lat="45.97945" lon="4.84246">
        <ele>275</ele>
        <time>2017-04-03T09:57:33Z</time>
      </trkpt>
      <trkpt lat="45.9795" lon="4.84241">
        <ele>275</ele>
        <time>2017-04-03T09:57:34Z</time>
      </trkpt>
      <trkpt lat="45.97955" lon="4.84237">
        <ele>275</ele>
        <time>2017-04-03T09:57:35Z</time>
      </trkpt>
      <trkpt lat="45.9796" lon="4.84232">
        <ele>274</ele>
        <time>2017-04-03T09:57:36Z</time>
      </trkpt>
      <trkpt lat="45.97964" lon="4.84228">
        <ele>274</ele>
        <time>2017-04-03T09:57:37Z</time>
      </trkpt>
      <trkpt lat="45.97969" lon="4.84224">
        <ele>274</ele>
        <time>2017-04-03T09:57:38Z</time>
      </trkpt>
      <trkpt lat="45.97973" lon="4.8422">
        <ele>274</ele>
        <time>2017-04-03T09:57:39Z</time>
      </trkpt>
      <trkpt lat="45.97977" lon="4.84217">
        <ele>274</ele>
        <time>2017-04-03T09:57:40Z</time>
      </trkpt>
      <trkpt lat="45.97981" lon="4.84212">
        <ele>274</ele>
        <time>2017-04-03T09:57:41Z</time>
      </trkpt>
      <trkpt lat="45.97985" lon="4.84209">
        <ele>274</ele>
        <time>2017-04-03T09:57:42Z</time>
      </trkpt>
      <trkpt lat="45.97989" lon="4.84205">
        <ele>274</ele>
        <time>2017-04-03T09:57:43Z</time>
      </trkpt>
      <trkpt lat="45.97993" lon="4.84201">
        <ele>274</ele>
        <time>2017-04-03T09:57:44Z</time>
      </trkpt>
      <trkpt lat="45.97997" lon="4.84197">
        <ele>274</ele>
        <time>2017-04-03T09:57:45Z</time>
      </trkpt>
      <trkpt lat="45.98004" lon="4.8419">
        <ele>274</ele>
        <time>2017-04-03T09:57:47Z</time>
      </trkpt>
      <trkpt lat="45.98008" lon="4.84186">
        <ele>274</ele>
        <time>2017-04-03T09:57:48Z</time>
      </trkpt>
      <trkpt lat="45.98013" lon="4.84182">
        <ele>274</ele>
        <time>2017-04-03T09:57:49Z</time>
      </trkpt>
      <trkpt lat="45.98018" lon="4.84178">
        <ele>274</ele>
        <time>2017-04-03T09:57:50Z</time>
      </trkpt>
      <trkpt lat="45.98022" lon="4.84174">
        <ele>274</ele>
        <time>2017-04-03T09:57:51Z</time>
      </trkpt>
      <trkpt lat="45.98027" lon="4.8417">
        <ele>274</ele>
        <time>2017-04-03T09:57:52Z</time>
      </trkpt>
      <trkpt lat="45.98031" lon="4.84166">
        <ele>273</ele>
        <time>2017-04-03T09:57:53Z</time>
      </trkpt>
      <trkpt lat="45.98035" lon="4.84163">
        <ele>273</ele>
        <time>2017-04-03T09:57:54Z</time>
      </trkpt>
      <trkpt lat="45.98039" lon="4.84159">
        <ele>273</ele>
        <time>2017-04-03T09:57:55Z</time>
      </trkpt>
      <trkpt lat="45.98043" lon="4.84155">
        <ele>273</ele>
        <time>2017-04-03T09:57:56Z</time>
      </trkpt>
      <trkpt lat="45.98047" lon="4.84152">
        <ele>273</ele>
        <time>2017-04-03T09:57:57Z</time>
      </trkpt>
      <trkpt lat="45.98051" lon="4.84148">
        <ele>273</ele>
        <time>2017-04-03T09:57:58Z</time>
      </trkpt>
      <trkpt lat="45.98058" lon="4.84142">
        <ele>273</ele>
        <time>2017-04-03T09:58:00Z</time>
      </trkpt>
      <trkpt lat="45.98061" lon="4.84138">
        <ele>273</ele>
        <time>2017-04-03T09:58:01Z</time>
      </trkpt>
      <trkpt lat="45.98065" lon="4.84135">
        <ele>273</ele>
        <time>2017-04-03T09:58:02Z</time>
      </trkpt>
      <trkpt lat="45.98069" lon="4.84132">
        <ele>273</ele>
        <time>2017-04-03T09:58:03Z</time>
      </trkpt>
      <trkpt lat="45.98077" lon="4.84125">
        <ele>273</ele>
        <time>2017-04-03T09:58:05Z</time>
      </trkpt>
      <trkpt lat="45.9808" lon="4.84121">
        <ele>273</ele>
        <time>2017-04-03T09:58:06Z</time>
      </trkpt>
      <trkpt lat="45.98087" lon="4.84114">
        <ele>273</ele>
        <time>2017-04-03T09:58:08Z</time>
      </trkpt>
      <trkpt lat="45.98091" lon="4.84111">
        <ele>273</ele>
        <time>2017-04-03T09:58:09Z</time>
      </trkpt>
      <trkpt lat="45.98095" lon="4.84107">
        <ele>273</ele>
        <time>2017-04-03T09:58:10Z</time>
      </trkpt>
      <trkpt lat="45.98099" lon="4.84103">
        <ele>273</ele>
        <time>2017-04-03T09:58:11Z</time>
      </trkpt>
      <trkpt lat="45.98106" lon="4.84096">
        <ele>273</ele>
        <time>2017-04-03T09:58:13Z</time>
      </trkpt>
      <trkpt lat="45.9811" lon="4.84093">
        <ele>273</ele>
        <time>2017-04-03T09:58:14Z</time>
      </trkpt>
      <trkpt lat="45.98114" lon="4.84089">
        <ele>273</ele>
        <time>2017-04-03T09:58:15Z</time>
      </trkpt>
      <trkpt lat="45.98118" lon="4.84085">
        <ele>273</ele>
        <time>2017-04-03T09:58:16Z</time>
      </trkpt>
      <trkpt lat="45.98123" lon="4.8408">
        <ele>273</ele>
        <time>2017-04-03T09:58:17Z</time>
      </trkpt>
      <trkpt lat="45.98127" lon="4.84075">
        <ele>273</ele>
        <time>2017-04-03T09:58:18Z</time>
      </trkpt>
      <trkpt lat="45.98132" lon="4.8407">
        <ele>273</ele>
        <time>2017-04-03T09:58:19Z</time>
      </trkpt>
      <trkpt lat="45.98135" lon="4.84066">
        <ele>273</ele>
        <time>2017-04-03T09:58:20Z</time>
      </trkpt>
      <trkpt lat="45.98139" lon="4.84062">
        <ele>273</ele>
        <time>2017-04-03T09:58:21Z</time>
      </trkpt>
      <trkpt lat="45.98142" lon="4.84057">
        <ele>273</ele>
        <time>2017-04-03T09:58:22Z</time>
      </trkpt>
      <trkpt lat="45.98145" lon="4.84052">
        <ele>273</ele>
        <time>2017-04-03T09:58:23Z</time>
      </trkpt>
      <trkpt lat="45.98148" lon="4.84047">
        <ele>273</ele>
        <time>2017-04-03T09:58:24Z</time>
      </trkpt>
      <trkpt lat="45.98152" lon="4.84042">
        <ele>273</ele>
        <time>2017-04-03T09:58:25Z</time>
      </trkpt>
      <trkpt lat="45.98155" lon="4.84037">
        <ele>273</ele>
        <time>2017-04-03T09:58:26Z</time>
      </trkpt>
      <trkpt lat="45.98158" lon="4.84032">
        <ele>273</ele>
        <time>2017-04-03T09:58:27Z</time>
      </trkpt>
      <trkpt lat="45.98162" lon="4.84026">
        <ele>273</ele>
        <time>2017-04-03T09:58:28Z</time>
      </trkpt>
      <trkpt lat="45.98165" lon="4.8402">
        <ele>273</ele>
        <time>2017-04-03T09:58:29Z</time>
      </trkpt>
      <trkpt lat="45.98168" lon="4.84015">
        <ele>273</ele>
        <time>2017-04-03T09:58:30Z</time>
      </trkpt>
      <trkpt lat="45.98171" lon="4.84009">
        <ele>273</ele>
        <time>2017-04-03T09:58:31Z</time>
      </trkpt>
      <trkpt lat="45.98174" lon="4.84003">
        <ele>273</ele>
        <time>2017-04-03T09:58:32Z</time>
      </trkpt>
      <trkpt lat="45.98177" lon="4.83997">
        <ele>273</ele>
        <time>2017-04-03T09:58:33Z</time>
      </trkpt>
      <trkpt lat="45.9818" lon="4.83991">
        <ele>273</ele>
        <time>2017-04-03T09:58:34Z</time>
      </trkpt>
      <trkpt lat="45.98183" lon="4.83985">
        <ele>273</ele>
        <time>2017-04-03T09:58:35Z</time>
      </trkpt>
      <trkpt lat="45.98185" lon="4.83978">
        <ele>273</ele>
        <time>2017-04-03T09:58:36Z</time>
      </trkpt>
      <trkpt lat="45.98188" lon="4.83972">
        <ele>273</ele>
        <time>2017-04-03T09:58:37Z</time>
      </trkpt>
      <trkpt lat="45.9819" lon="4.83965">
        <ele>273</ele>
        <time>2017-04-03T09:58:38Z</time>
      </trkpt>
      <trkpt lat="45.98192" lon="4.83958">
        <ele>273</ele>
        <time>2017-04-03T09:58:39Z</time>
      </trkpt>
      <trkpt lat="45.98195" lon="4.8395">
        <ele>273</ele>
        <time>2017-04-03T09:58:40Z</time>
      </trkpt>
      <trkpt lat="45.98197" lon="4.83943">
        <ele>273</ele>
        <time>2017-04-03T09:58:41Z</time>
      </trkpt>
      <trkpt lat="45.98199" lon="4.83937">
        <ele>273</ele>
        <time>2017-04-03T09:58:42Z</time>
      </trkpt>
      <trkpt lat="45.98201" lon="4.8393">
        <ele>273</ele>
        <time>2017-04-03T09:58:43Z</time>
      </trkpt>
      <trkpt lat="45.98204" lon="4.83923">
        <ele>273</ele>
        <time>2017-04-03T09:58:44Z</time>
      </trkpt>
      <trkpt lat="45.98207" lon="4.83917">
        <ele>273</ele>
        <time>2017-04-03T09:58:45Z</time>
      </trkpt>
      <trkpt lat="45.98209" lon="4.8391">
        <ele>273</ele>
        <time>2017-04-03T09:58:46Z</time>
      </trkpt>
      <trkpt lat="45.98211" lon="4.83904">
        <ele>273</ele>
        <time>2017-04-03T09:58:47Z</time>
      </trkpt>
      <trkpt lat="45.98213" lon="4.83897">
        <ele>273</ele>
        <time>2017-04-03T09:58:48Z</time>
      </trkpt>
      <trkpt lat="45.98215" lon="4.83891">
        <ele>273</ele>
        <time>2017-04-03T09:58:49Z</time>
      </trkpt>
      <trkpt lat="45.98218" lon="4.83884">
        <ele>272</ele>
        <time>2017-04-03T09:58:50Z</time>
      </trkpt>
      <trkpt lat="45.9822" lon="4.83878">
        <ele>272</ele>
        <time>2017-04-03T09:58:51Z</time>
      </trkpt>
      <trkpt lat="45.98223" lon="4.83871">
        <ele>272</ele>
        <time>2017-04-03T09:58:52Z</time>
      </trkpt>
      <trkpt lat="45.98225" lon="4.83864">
        <ele>272</ele>
        <time>2017-04-03T09:58:53Z</time>
      </trkpt>
      <trkpt lat="45.98228" lon="4.83856">
        <ele>272</ele>
        <time>2017-04-03T09:58:54Z</time>
      </trkpt>
      <trkpt lat="45.9823" lon="4.83849">
        <ele>272</ele>
        <time>2017-04-03T09:58:55Z</time>
      </trkpt>
      <trkpt lat="45.98233" lon="4.83842">
        <ele>272</ele>
        <time>2017-04-03T09:58:56Z</time>
      </trkpt>
      <trkpt lat="45.98236" lon="4.83834">
        <ele>272</ele>
        <time>2017-04-03T09:58:57Z</time>
      </trkpt>
      <trkpt lat="45.98239" lon="4.83827">
        <ele>272</ele>
        <time>2017-04-03T09:58:58Z</time>
      </trkpt>
      <trkpt lat="45.98242" lon="4.83819">
        <ele>272</ele>
        <time>2017-04-03T09:58:59Z</time>
      </trkpt>
      <trkpt lat="45.98245" lon="4.83811">
        <ele>272</ele>
        <time>2017-04-03T09:59:00Z</time>
      </trkpt>
      <trkpt lat="45.98248" lon="4.83804">
        <ele>272</ele>
        <time>2017-04-03T09:59:01Z</time>
      </trkpt>
      <trkpt lat="45.9825" lon="4.83796">
        <ele>272</ele>
        <time>2017-04-03T09:59:02Z</time>
      </trkpt>
      <trkpt lat="45.98252" lon="4.83789">
        <ele>272</ele>
        <time>2017-04-03T09:59:03Z</time>
      </trkpt>
      <trkpt lat="45.98255" lon="4.83782">
        <ele>272</ele>
        <time>2017-04-03T09:59:04Z</time>
      </trkpt>
      <trkpt lat="45.98257" lon="4.83775">
        <ele>272</ele>
        <time>2017-04-03T09:59:05Z</time>
      </trkpt>
      <trkpt lat="45.98259" lon="4.83767">
        <ele>272</ele>
        <time>2017-04-03T09:59:06Z</time>
      </trkpt>
      <trkpt lat="45.98261" lon="4.8376">
        <ele>272</ele>
        <time>2017-04-03T09:59:07Z</time>
      </trkpt>
      <trkpt lat="45.98263" lon="4.83753">
        <ele>272</ele>
        <time>2017-04-03T09:59:08Z</time>
      </trkpt>
      <trkpt lat="45.98266" lon="4.83745">
        <ele>272</ele>
        <time>2017-04-03T09:59:09Z</time>
      </trkpt>
      <trkpt lat="45.98269" lon="4.83738">
        <ele>272</ele>
        <time>2017-04-03T09:59:10Z</time>
      </trkpt>
      <trkpt lat="45.98272" lon="4.83731">
        <ele>272</ele>
        <time>2017-04-03T09:59:11Z</time>
      </trkpt>
      <trkpt lat="45.98274" lon="4.83724">
        <ele>272</ele>
        <time>2017-04-03T09:59:12Z</time>
      </trkpt>
      <trkpt lat="45.98277" lon="4.83716">
        <ele>272</ele>
        <time>2017-04-03T09:59:13Z</time>
      </trkpt>
      <trkpt lat="45.98279" lon="4.83709">
        <ele>272</ele>
        <time>2017-04-03T09:59:14Z</time>
      </trkpt>
      <trkpt lat="45.98282" lon="4.83702">
        <ele>272</ele>
        <time>2017-04-03T09:59:15Z</time>
      </trkpt>
      <trkpt lat="45.98284" lon="4.83694">
        <ele>272</ele>
        <time>2017-04-03T09:59:16Z</time>
      </trkpt>
      <trkpt lat="45.98287" lon="4.83687">
        <ele>272</ele>
        <time>2017-04-03T09:59:17Z</time>
      </trkpt>
      <trkpt lat="45.98289" lon="4.8368">
        <ele>272</ele>
        <time>2017-04-03T09:59:18Z</time>
      </trkpt>
      <trkpt lat="45.98292" lon="4.83673">
        <ele>272</ele>
        <time>2017-04-03T09:59:19Z</time>
      </trkpt>
      <trkpt lat="45.98294" lon="4.83666">
        <ele>271</ele>
        <time>2017-04-03T09:59:20Z</time>
      </trkpt>
      <trkpt lat="45.98296" lon="4.8366">
        <ele>271</ele>
        <time>2017-04-03T09:59:21Z</time>
      </trkpt>
      <trkpt lat="45.98299" lon="4.83654">
        <ele>271</ele>
        <time>2017-04-03T09:59:22Z</time>
      </trkpt>
      <trkpt lat="45.98302" lon="4.83648">
        <ele>271</ele>
        <time>2017-04-03T09:59:23Z</time>
      </trkpt>
      <trkpt lat="45.98305" lon="4.83641">
        <ele>271</ele>
        <time>2017-04-03T09:59:24Z</time>
      </trkpt>
      <trkpt lat="45.98308" lon="4.83633">
        <ele>271</ele>
        <time>2017-04-03T09:59:25Z</time>
      </trkpt>
      <trkpt lat="45.98312" lon="4.83626">
        <ele>271</ele>
        <time>2017-04-03T09:59:26Z</time>
      </trkpt>
      <trkpt lat="45.98315" lon="4.8362">
        <ele>271</ele>
        <time>2017-04-03T09:59:27Z</time>
      </trkpt>
      <trkpt lat="45.98318" lon="4.83614">
        <ele>271</ele>
        <time>2017-04-03T09:59:28Z</time>
      </trkpt>
      <trkpt lat="45.98322" lon="4.83608">
        <ele>271</ele>
        <time>2017-04-03T09:59:29Z</time>
      </trkpt>
      <trkpt lat="45.98326" lon="4.83603">
        <ele>271</ele>
        <time>2017-04-03T09:59:30Z</time>
      </trkpt>
      <trkpt lat="45.98329" lon="4.83597">
        <ele>271</ele>
        <time>2017-04-03T09:59:31Z</time>
      </trkpt>
      <trkpt lat="45.98333" lon="4.83591">
        <ele>270</ele>
        <time>2017-04-03T09:59:32Z</time>
      </trkpt>
      <trkpt lat="45.98337" lon="4.83585">
        <ele>270</ele>
        <time>2017-04-03T09:59:33Z</time>
      </trkpt>
      <trkpt lat="45.98341" lon="4.8358">
        <ele>270</ele>
        <time>2017-04-03T09:59:34Z</time>
      </trkpt>
      <trkpt lat="45.98346" lon="4.83574">
        <ele>270</ele>
        <time>2017-04-03T09:59:35Z</time>
      </trkpt>
      <trkpt lat="45.9835" lon="4.83568">
        <ele>269</ele>
        <time>2017-04-03T09:59:36Z</time>
      </trkpt>
      <trkpt lat="45.98355" lon="4.83562">
        <ele>269</ele>
        <time>2017-04-03T09:59:37Z</time>
      </trkpt>
      <trkpt lat="45.98359" lon="4.83556">
        <ele>269</ele>
        <time>2017-04-03T09:59:38Z</time>
      </trkpt>
      <trkpt lat="45.98363" lon="4.83551">
        <ele>269</ele>
        <time>2017-04-03T09:59:39Z</time>
      </trkpt>
      <trkpt lat="45.98368" lon="4.83545">
        <ele>269</ele>
        <time>2017-04-03T09:59:40Z</time>
      </trkpt>
      <trkpt lat="45.98372" lon="4.83539">
        <ele>269</ele>
        <time>2017-04-03T09:59:41Z</time>
      </trkpt>
      <trkpt lat="45.98376" lon="4.83533">
        <ele>269</ele>
        <time>2017-04-03T09:59:42Z</time>
      </trkpt>
      <trkpt lat="45.98381" lon="4.83527">
        <ele>269</ele>
        <time>2017-04-03T09:59:43Z</time>
      </trkpt>
      <trkpt lat="45.98385" lon="4.83522">
        <ele>269</ele>
        <time>2017-04-03T09:59:44Z</time>
      </trkpt>
      <trkpt lat="45.98389" lon="4.83516">
        <ele>269</ele>
        <time>2017-04-03T09:59:45Z</time>
      </trkpt>
      <trkpt lat="45.98393" lon="4.83511">
        <ele>269</ele>
        <time>2017-04-03T09:59:46Z</time>
      </trkpt>
      <trkpt lat="45.98398" lon="4.83506">
        <ele>269</ele>
        <time>2017-04-03T09:59:47Z</time>
      </trkpt>
      <trkpt lat="45.98402" lon="4.835">
        <ele>269</ele>
        <time>2017-04-03T09:59:48Z</time>
      </trkpt>
      <trkpt lat="45.98405" lon="4.83495">
        <ele>269</ele>
        <time>2017-04-03T09:59:49Z</time>
      </trkpt>
      <trkpt lat="45.9841" lon="4.8349">
        <ele>269</ele>
        <time>2017-04-03T09:59:50Z</time>
      </trkpt>
      <trkpt lat="45.98414" lon="4.83485">
        <ele>269</ele>
        <time>2017-04-03T09:59:51Z</time>
      </trkpt>
      <trkpt lat="45.98418" lon="4.8348">
        <ele>268</ele>
        <time>2017-04-03T09:59:52Z</time>
      </trkpt>
      <trkpt lat="45.98422" lon="4.83475">
        <ele>268</ele>
        <time>2017-04-03T09:59:53Z</time>
      </trkpt>
      <trkpt lat="45.98426" lon="4.83469">
        <ele>268</ele>
        <time>2017-04-03T09:59:54Z</time>
      </trkpt>
      <trkpt lat="45.9843" lon="4.83464">
        <ele>268</ele>
        <time>2017-04-03T09:59:55Z</time>
      </trkpt>
      <trkpt lat="45.98434" lon="4.83459">
        <ele>268</ele>
        <time>2017-04-03T09:59:56Z</time>
      </trkpt>
      <trkpt lat="45.98438" lon="4.83453">
        <ele>268</ele>
        <time>2017-04-03T09:59:57Z</time>
      </trkpt>
      <trkpt lat="45.98443" lon="4.83447">
        <ele>268</ele>
        <time>2017-04-03T09:59:58Z</time>
      </trkpt>
      <trkpt lat="45.98447" lon="4.83441">
        <ele>268</ele>
        <time>2017-04-03T09:59:59Z</time>
      </trkpt>
      <trkpt lat="45.98452" lon="4.83435">
        <ele>268</ele>
        <time>2017-04-03T10:00:00Z</time>
      </trkpt>
      <trkpt lat="45.98456" lon="4.83429">
        <ele>268</ele>
        <time>2017-04-03T10:00:01Z</time>
      </trkpt>
      <trkpt lat="45.98461" lon="4.83423">
        <ele>269</ele>
        <time>2017-04-03T10:00:02Z</time>
      </trkpt>
      <trkpt lat="45.98465" lon="4.83418">
        <ele>269</ele>
        <time>2017-04-03T10:00:03Z</time>
      </trkpt>
      <trkpt lat="45.98469" lon="4.83412">
        <ele>269</ele>
        <time>2017-04-03T10:00:04Z</time>
      </trkpt>
      <trkpt lat="45.98473" lon="4.83406">
        <ele>269</ele>
        <time>2017-04-03T10:00:05Z</time>
      </trkpt>
      <trkpt lat="45.98477" lon="4.834">
        <ele>269</ele>
        <time>2017-04-03T10:00:06Z</time>
      </trkpt>
      <trkpt lat="45.98481" lon="4.83395">
        <ele>269</ele>
        <time>2017-04-03T10:00:07Z</time>
      </trkpt>
      <trkpt lat="45.98484" lon="4.8339">
        <ele>269</ele>
        <time>2017-04-03T10:00:08Z</time>
      </trkpt>
      <trkpt lat="45.98488" lon="4.83386">
        <ele>269</ele>
        <time>2017-04-03T10:00:09Z</time>
      </trkpt>
      <trkpt lat="45.98491" lon="4.83381">
        <ele>269</ele>
        <time>2017-04-03T10:00:10Z</time>
      </trkpt>
      <trkpt lat="45.98495" lon="4.83376">
        <ele>269</ele>
        <time>2017-04-03T10:00:11Z</time>
      </trkpt>
      <trkpt lat="45.98498" lon="4.83371">
        <ele>270</ele>
        <time>2017-04-03T10:00:12Z</time>
      </trkpt>
      <trkpt lat="45.98502" lon="4.83367">
        <ele>269</ele>
        <time>2017-04-03T10:00:13Z</time>
      </trkpt>
      <trkpt lat="45.98505" lon="4.83361">
        <ele>269</ele>
        <time>2017-04-03T10:00:14Z</time>
      </trkpt>
      <trkpt lat="45.98509" lon="4.83356">
        <ele>270</ele>
        <time>2017-04-03T10:00:15Z</time>
      </trkpt>
      <trkpt lat="45.98512" lon="4.83351">
        <ele>270</ele>
        <time>2017-04-03T10:00:16Z</time>
      </trkpt>
      <trkpt lat="45.98516" lon="4.83346">
        <ele>270</ele>
        <time>2017-04-03T10:00:17Z</time>
      </trkpt>
      <trkpt lat="45.9852" lon="4.83341">
        <ele>270</ele>
        <time>2017-04-03T10:00:18Z</time>
      </trkpt>
      <trkpt lat="45.98524" lon="4.83337">
        <ele>270</ele>
        <time>2017-04-03T10:00:19Z</time>
      </trkpt>
      <trkpt lat="45.98527" lon="4.83332">
        <ele>270</ele>
        <time>2017-04-03T10:00:20Z</time>
      </trkpt>
      <trkpt lat="45.98531" lon="4.83327">
        <ele>269</ele>
        <time>2017-04-03T10:00:21Z</time>
      </trkpt>
      <trkpt lat="45.98534" lon="4.83323">
        <ele>269</ele>
        <time>2017-04-03T10:00:22Z</time>
      </trkpt>
      <trkpt lat="45.98538" lon="4.83318">
        <ele>269</ele>
        <time>2017-04-03T10:00:23Z</time>
      </trkpt>
      <trkpt lat="45.98541" lon="4.83313">
        <ele>269</ele>
        <time>2017-04-03T10:00:24Z</time>
      </trkpt>
      <trkpt lat="45.98545" lon="4.83308">
        <ele>269</ele>
        <time>2017-04-03T10:00:25Z</time>
      </trkpt>
      <trkpt lat="45.98549" lon="4.83302">
        <ele>269</ele>
        <time>2017-04-03T10:00:26Z</time>
      </trkpt>
      <trkpt lat="45.98553" lon="4.83297">
        <ele>269</ele>
        <time>2017-04-03T10:00:27Z</time>
      </trkpt>
      <trkpt lat="45.98557" lon="4.83292">
        <ele>269</ele>
        <time>2017-04-03T10:00:28Z</time>
      </trkpt>
      <trkpt lat="45.9856" lon="4.83286">
        <ele>269</ele>
        <time>2017-04-03T10:00:29Z</time>
      </trkpt>
      <trkpt lat="45.98565" lon="4.83281">
        <ele>269</ele>
        <time>2017-04-03T10:00:30Z</time>
      </trkpt>
      <trkpt lat="45.98569" lon="4.83275">
        <ele>269</ele>
        <time>2017-04-03T10:00:31Z</time>
      </trkpt>
      <trkpt lat="45.98573" lon="4.8327">
        <ele>269</ele>
        <time>2017-04-03T10:00:32Z</time>
      </trkpt>
      <trkpt lat="45.98576" lon="4.83265">
        <ele>269</ele>
        <time>2017-04-03T10:00:33Z</time>
      </trkpt>
      <trkpt lat="45.98581" lon="4.8326">
        <ele>268</ele>
        <time>2017-04-03T10:00:34Z</time>
      </trkpt>
      <trkpt lat="45.98585" lon="4.83255">
        <ele>268</ele>
        <time>2017-04-03T10:00:35Z</time>
      </trkpt>
      <trkpt lat="45.98588" lon="4.83249">
        <ele>268</ele>
        <time>2017-04-03T10:00:36Z</time>
      </trkpt>
      <trkpt lat="45.98593" lon="4.83244">
        <ele>268</ele>
        <time>2017-04-03T10:00:37Z</time>
      </trkpt>
      <trkpt lat="45.98596" lon="4.83238">
        <ele>268</ele>
        <time>2017-04-03T10:00:38Z</time>
      </trkpt>
      <trkpt lat="45.986" lon="4.83233">
        <ele>268</ele>
        <time>2017-04-03T10:00:39Z</time>
      </trkpt>
      <trkpt lat="45.98604" lon="4.83228">
        <ele>267</ele>
        <time>2017-04-03T10:00:40Z</time>
      </trkpt>
      <trkpt lat="45.98608" lon="4.83223">
        <ele>267</ele>
        <time>2017-04-03T10:00:41Z</time>
      </trkpt>
      <trkpt lat="45.98612" lon="4.83218">
        <ele>267</ele>
        <time>2017-04-03T10:00:42Z</time>
      </trkpt>
      <trkpt lat="45.98616" lon="4.83213">
        <ele>267</ele>
        <time>2017-04-03T10:00:43Z</time>
      </trkpt>
      <trkpt lat="45.9862" lon="4.83207">
        <ele>267</ele>
        <time>2017-04-03T10:00:44Z</time>
      </trkpt>
      <trkpt lat="45.98624" lon="4.83202">
        <ele>267</ele>
        <time>2017-04-03T10:00:45Z</time>
      </trkpt>
      <trkpt lat="45.98628" lon="4.83197">
        <ele>267</ele>
        <time>2017-04-03T10:00:46Z</time>
      </trkpt>
      <trkpt lat="45.98633" lon="4.83192">
        <ele>267</ele>
        <time>2017-04-03T10:00:47Z</time>
      </trkpt>
      <trkpt lat="45.98637" lon="4.83188">
        <ele>267</ele>
        <time>2017-04-03T10:00:48Z</time>
      </trkpt>
      <trkpt lat="45.98641" lon="4.83183">
        <ele>267</ele>
        <time>2017-04-03T10:00:49Z</time>
      </trkpt>
      <trkpt lat="45.98645" lon="4.83179">
        <ele>267</ele>
        <time>2017-04-03T10:00:50Z</time>
      </trkpt>
      <trkpt lat="45.98649" lon="4.83175">
        <ele>267</ele>
        <time>2017-04-03T10:00:51Z</time>
      </trkpt>
      <trkpt lat="45.98653" lon="4.83171">
        <ele>267</ele>
        <time>2017-04-03T10:00:52Z</time>
      </trkpt>
      <trkpt lat="45.98657" lon="4.83167">
        <ele>266</ele>
        <time>2017-04-03T10:00:53Z</time>
      </trkpt>
      <trkpt lat="45.98661" lon="4.83164">
        <ele>266</ele>
        <time>2017-04-03T10:00:54Z</time>
      </trkpt>
      <trkpt lat="45.98666" lon="4.8316">
        <ele>266</ele>
        <time>2017-04-03T10:00:55Z</time>
      </trkpt>
      <trkpt lat="45.9867" lon="4.83157">
        <ele>266</ele>
        <time>2017-04-03T10:00:56Z</time>
      </trkpt>
      <trkpt lat="45.98675" lon="4.83154">
        <ele>266</ele>
        <time>2017-04-03T10:00:57Z</time>
      </trkpt>
      <trkpt lat="45.9868" lon="4.83151">
        <ele>266</ele>
        <time>2017-04-03T10:00:58Z</time>
      </trkpt>
      <trkpt lat="45.98685" lon="4.83147">
        <ele>266</ele>
        <time>2017-04-03T10:00:59Z</time>
      </trkpt>
      <trkpt lat="45.9869" lon="4.83143">
        <ele>266</ele>
        <time>2017-04-03T10:01:00Z</time>
      </trkpt>
      <trkpt lat="45.98695" lon="4.83139">
        <ele>266</ele>
        <time>2017-04-03T10:01:01Z</time>
      </trkpt>
      <trkpt lat="45.987" lon="4.83135">
        <ele>266</ele>
        <time>2017-04-03T10:01:02Z</time>
      </trkpt>
      <trkpt lat="45.98705" lon="4.83131">
        <ele>266</ele>
        <time>2017-04-03T10:01:03Z</time>
      </trkpt>
      <trkpt lat="45.9871" lon="4.83127">
        <ele>266</ele>
        <time>2017-04-03T10:01:04Z</time>
      </trkpt>
      <trkpt lat="45.98715" lon="4.83122">
        <ele>266</ele>
        <time>2017-04-03T10:01:05Z</time>
      </trkpt>
      <trkpt lat="45.9872" lon="4.83118">
        <ele>267</ele>
        <time>2017-04-03T10:01:06Z</time>
      </trkpt>
      <trkpt lat="45.98725" lon="4.83114">
        <ele>267</ele>
        <time>2017-04-03T10:01:07Z</time>
      </trkpt>
      <trkpt lat="45.9873" lon="4.8311">
        <ele>267</ele>
        <time>2017-04-03T10:01:08Z</time>
      </trkpt>
      <trkpt lat="45.98734" lon="4.83107">
        <ele>267</ele>
        <time>2017-04-03T10:01:09Z</time>
      </trkpt>
      <trkpt lat="45.98739" lon="4.83103">
        <ele>267</ele>
        <time>2017-04-03T10:01:10Z</time>
      </trkpt>
      <trkpt lat="45.98743" lon="4.83098">
        <ele>267</ele>
        <time>2017-04-03T10:01:11Z</time>
      </trkpt>
      <trkpt lat="45.98748" lon="4.83094">
        <ele>267</ele>
        <time>2017-04-03T10:01:12Z</time>
      </trkpt>
      <trkpt lat="45.98752" lon="4.8309">
        <ele>266</ele>
        <time>2017-04-03T10:01:13Z</time>
      </trkpt>
      <trkpt lat="45.98757" lon="4.83086">
        <ele>266</ele>
        <time>2017-04-03T10:01:14Z</time>
      </trkpt>
      <trkpt lat="45.98761" lon="4.83083">
        <ele>266</ele>
        <time>2017-04-03T10:01:15Z</time>
      </trkpt>
      <trkpt lat="45.98766" lon="4.83079">
        <ele>266</ele>
        <time>2017-04-03T10:01:16Z</time>
      </trkpt>
      <trkpt lat="45.98771" lon="4.83075">
        <ele>266</ele>
        <time>2017-04-03T10:01:17Z</time>
      </trkpt>
      <trkpt lat="45.98776" lon="4.8307">
        <ele>265</ele>
        <time>2017-04-03T10:01:18Z</time>
      </trkpt>
      <trkpt lat="45.9878" lon="4.83066">
        <ele>265</ele>
        <time>2017-04-03T10:01:19Z</time>
      </trkpt>
      <trkpt lat="45.98785" lon="4.83062">
        <ele>265</ele>
        <time>2017-04-03T10:01:20Z</time>
      </trkpt>
      <trkpt lat="45.9879" lon="4.83058">
        <ele>265</ele>
        <time>2017-04-03T10:01:21Z</time>
      </trkpt>
      <trkpt lat="45.98795" lon="4.83053">
        <ele>265</ele>
        <time>2017-04-03T10:01:22Z</time>
      </trkpt>
      <trkpt lat="45.988" lon="4.83048">
        <ele>264</ele>
        <time>2017-04-03T10:01:23Z</time>
      </trkpt>
      <trkpt lat="45.98805" lon="4.83044">
        <ele>264</ele>
        <time>2017-04-03T10:01:24Z</time>
      </trkpt>
      <trkpt lat="45.9881" lon="4.83039">
        <ele>264</ele>
        <time>2017-04-03T10:01:25Z</time>
      </trkpt>
      <trkpt lat="45.98815" lon="4.83035">
        <ele>264</ele>
        <time>2017-04-03T10:01:26Z</time>
      </trkpt>
      <trkpt lat="45.9882" lon="4.8303">
        <ele>264</ele>
        <time>2017-04-03T10:01:27Z</time>
      </trkpt>
      <trkpt lat="45.98826" lon="4.83026">
        <ele>264</ele>
        <time>2017-04-03T10:01:28Z</time>
      </trkpt>
      <trkpt lat="45.98831" lon="4.83021">
        <ele>264</ele>
        <time>2017-04-03T10:01:29Z</time>
      </trkpt>
      <trkpt lat="45.98838" lon="4.83017">
        <ele>261</ele>
        <time>2017-04-03T10:01:30Z</time>
      </trkpt>
      <trkpt lat="45.98844" lon="4.83012">
        <ele>261</ele>
        <time>2017-04-03T10:01:31Z</time>
      </trkpt>
      <trkpt lat="45.9885" lon="4.83008">
        <ele>261</ele>
        <time>2017-04-03T10:01:32Z</time>
      </trkpt>
      <trkpt lat="45.98856" lon="4.83004">
        <ele>261</ele>
        <time>2017-04-03T10:01:33Z</time>
      </trkpt>
      <trkpt lat="45.98862" lon="4.82999">
        <ele>261</ele>
        <time>2017-04-03T10:01:34Z</time>
      </trkpt>
      <trkpt lat="45.9887" lon="4.82994">
        <ele>260</ele>
        <time>2017-04-03T10:01:35Z</time>
      </trkpt>
      <trkpt lat="45.98877" lon="4.82989">
        <ele>260</ele>
        <time>2017-04-03T10:01:36Z</time>
      </trkpt>
      <trkpt lat="45.98884" lon="4.82984">
        <ele>259</ele>
        <time>2017-04-03T10:01:37Z</time>
      </trkpt>
      <trkpt lat="45.98891" lon="4.82979">
        <ele>259</ele>
        <time>2017-04-03T10:01:38Z</time>
      </trkpt>
      <trkpt lat="45.98899" lon="4.82973">
        <ele>259</ele>
        <time>2017-04-03T10:01:39Z</time>
      </trkpt>
      <trkpt lat="45.98906" lon="4.82966">
        <ele>259</ele>
        <time>2017-04-03T10:01:40Z</time>
      </trkpt>
      <trkpt lat="45.98913" lon="4.82957">
        <ele>258</ele>
        <time>2017-04-03T10:01:41Z</time>
      </trkpt>
      <trkpt lat="45.98919" lon="4.82946">
        <ele>255</ele>
        <time>2017-04-03T10:01:42Z</time>
      </trkpt>
      <trkpt lat="45.98925" lon="4.82935">
        <ele>255</ele>
        <time>2017-04-03T10:01:43Z</time>
      </trkpt>
      <trkpt lat="45.9893" lon="4.82922">
        <ele>255</ele>
        <time>2017-04-03T10:01:44Z</time>
      </trkpt>
      <trkpt lat="45.98935" lon="4.8291">
        <ele>254</ele>
        <time>2017-04-03T10:01:45Z</time>
      </trkpt>
      <trkpt lat="45.98941" lon="4.82898">
        <ele>253</ele>
        <time>2017-04-03T10:01:46Z</time>
      </trkpt>
      <trkpt lat="45.98946" lon="4.82885">
        <ele>253</ele>
        <time>2017-04-03T10:01:47Z</time>
      </trkpt>
      <trkpt lat="45.98952" lon="4.82872">
        <ele>253</ele>
        <time>2017-04-03T10:01:48Z</time>
      </trkpt>
      <trkpt lat="45.98957" lon="4.82859">
        <ele>252</ele>
        <time>2017-04-03T10:01:49Z</time>
      </trkpt>
      <trkpt lat="45.98963" lon="4.82846">
        <ele>252</ele>
        <time>2017-04-03T10:01:50Z</time>
      </trkpt>
      <trkpt lat="45.98969" lon="4.82832">
        <ele>249</ele>
        <time>2017-04-03T10:01:51Z</time>
      </trkpt>
      <trkpt lat="45.98975" lon="4.82818">
        <ele>248</ele>
        <time>2017-04-03T10:01:52Z</time>
      </trkpt>
      <trkpt lat="45.98981" lon="4.82804">
        <ele>248</ele>
        <time>2017-04-03T10:01:53Z</time>
      </trkpt>
      <trkpt lat="45.98987" lon="4.82791">
        <ele>247</ele>
        <time>2017-04-03T10:01:54Z</time>
      </trkpt>
      <trkpt lat="45.98993" lon="4.82777">
        <ele>246</ele>
        <time>2017-04-03T10:01:55Z</time>
      </trkpt>
      <trkpt lat="45.98999" lon="4.82763">
        <ele>244</ele>
        <time>2017-04-03T10:01:56Z</time>
      </trkpt>
      <trkpt lat="45.99005" lon="4.82748">
        <ele>240</ele>
        <time>2017-04-03T10:01:57Z</time>
      </trkpt>
      <trkpt lat="45.99012" lon="4.82734">
        <ele>239</ele>
        <time>2017-04-03T10:01:58Z</time>
      </trkpt>
      <trkpt lat="45.99018" lon="4.8272">
        <ele>239</ele>
        <time>2017-04-03T10:01:59Z</time>
      </trkpt>
      <trkpt lat="45.99024" lon="4.82707">
        <ele>238</ele>
        <time>2017-04-03T10:02:00Z</time>
      </trkpt>
      <trkpt lat="45.9903" lon="4.82693">
        <ele>238</ele>
        <time>2017-04-03T10:02:01Z</time>
      </trkpt>
      <trkpt lat="45.99036" lon="4.82678">
        <ele>238</ele>
        <time>2017-04-03T10:02:02Z</time>
      </trkpt>
      <trkpt lat="45.99042" lon="4.82665">
        <ele>236</ele>
        <time>2017-04-03T10:02:03Z</time>
      </trkpt>
      <trkpt lat="45.99048" lon="4.82651">
        <ele>236</ele>
        <time>2017-04-03T10:02:04Z</time>
      </trkpt>
      <trkpt lat="45.99053" lon="4.82637">
        <ele>236</ele>
        <time>2017-04-03T10:02:05Z</time>
      </trkpt>
      <trkpt lat="45.99057" lon="4.82625">
        <ele>236</ele>
        <time>2017-04-03T10:02:06Z</time>
      </trkpt>
      <trkpt lat="45.99062" lon="4.82614">
        <ele>236</ele>
        <time>2017-04-03T10:02:07Z</time>
      </trkpt>
      <trkpt lat="45.99067" lon="4.82604">
        <ele>236</ele>
        <time>2017-04-03T10:02:08Z</time>
      </trkpt>
      <trkpt lat="45.99071" lon="4.82595">
        <ele>235</ele>
        <time>2017-04-03T10:02:09Z</time>
      </trkpt>
      <trkpt lat="45.99074" lon="4.82587">
        <ele>235</ele>
        <time>2017-04-03T10:02:10Z</time>
      </trkpt>
      <trkpt lat="45.99076" lon="4.82581">
        <ele>235</ele>
        <time>2017-04-03T10:02:11Z</time>
      </trkpt>
      <trkpt lat="45.99075" lon="4.82569">
        <ele>235</ele>
        <time>2017-04-03T10:02:13Z</time>
      </trkpt>
      <trkpt lat="45.99071" lon="4.82566">
        <ele>235</ele>
        <time>2017-04-03T10:02:14Z</time>
      </trkpt>
      <trkpt lat="45.99067" lon="4.82564">
        <ele>235</ele>
        <time>2017-04-03T10:02:15Z</time>
      </trkpt>
      <trkpt lat="45.99062" lon="4.82562">
        <ele>235</ele>
        <time>2017-04-03T10:02:16Z</time>
      </trkpt>
      <trkpt lat="45.99056" lon="4.82561">
        <ele>235</ele>
        <time>2017-04-03T10:02:17Z</time>
      </trkpt>
      <trkpt lat="45.9905" lon="4.82559">
        <ele>235</ele>
        <time>2017-04-03T10:02:18Z</time>
      </trkpt>
      <trkpt lat="45.99044" lon="4.82556">
        <ele>235</ele>
        <time>2017-04-03T10:02:19Z</time>
      </trkpt>
      <trkpt lat="45.99039" lon="4.82552">
        <ele>235</ele>
        <time>2017-04-03T10:02:20Z</time>
      </trkpt>
      <trkpt lat="45.99033" lon="4.82548">
        <ele>235</ele>
        <time>2017-04-03T10:02:21Z</time>
      </trkpt>
      <trkpt lat="45.99028" lon="4.82543">
        <ele>235</ele>
        <time>2017-04-03T10:02:22Z</time>
      </trkpt>
      <trkpt lat="45.99023" lon="4.82538">
        <ele>235</ele>
        <time>2017-04-03T10:02:23Z</time>
      </trkpt>
      <trkpt lat="45.99018" lon="4.82533">
        <ele>235</ele>
        <time>2017-04-03T10:02:24Z</time>
      </trkpt>
      <trkpt lat="45.99014" lon="4.82527">
        <ele>235</ele>
        <time>2017-04-03T10:02:25Z</time>
      </trkpt>
      <trkpt lat="45.9901" lon="4.82522">
        <ele>235</ele>
        <time>2017-04-03T10:02:26Z</time>
      </trkpt>
      <trkpt lat="45.99007" lon="4.82516">
        <ele>235</ele>
        <time>2017-04-03T10:02:27Z</time>
      </trkpt>
      <trkpt lat="45.99004" lon="4.8251">
        <ele>235</ele>
        <time>2017-04-03T10:02:28Z</time>
      </trkpt>
      <trkpt lat="45.99002" lon="4.82503">
        <ele>235</ele>
        <time>2017-04-03T10:02:29Z</time>
      </trkpt>
      <trkpt lat="45.99" lon="4.82497">
        <ele>235</ele>
        <time>2017-04-03T10:02:30Z</time>
      </trkpt>
      <trkpt lat="45.98997" lon="4.82491">
        <ele>236</ele>
        <time>2017-04-03T10:02:31Z</time>
      </trkpt>
      <trkpt lat="45.98995" lon="4.82485">
        <ele>236</ele>
        <time>2017-04-03T10:02:32Z</time>
      </trkpt>
      <trkpt lat="45.98992" lon="4.82478">
        <ele>236</ele>
        <time>2017-04-03T10:02:33Z</time>
      </trkpt>
      <trkpt lat="45.98989" lon="4.82471">
        <ele>236</ele>
        <time>2017-04-03T10:02:34Z</time>
      </trkpt>
      <trkpt lat="45.98986" lon="4.82463">
        <ele>236</ele>
        <time>2017-04-03T10:02:35Z</time>
      </trkpt>
      <trkpt lat="45.98984" lon="4.82455">
        <ele>236</ele>
        <time>2017-04-03T10:02:36Z</time>
      </trkpt>
      <trkpt lat="45.98981" lon="4.82448">
        <ele>236</ele>
        <time>2017-04-03T10:02:37Z</time>
      </trkpt>
      <trkpt lat="45.98979" lon="4.82441">
        <ele>236</ele>
        <time>2017-04-03T10:02:38Z</time>
      </trkpt>
      <trkpt lat="45.98977" lon="4.82434">
        <ele>236</ele>
        <time>2017-04-03T10:02:39Z</time>
      </trkpt>
      <trkpt lat="45.98974" lon="4.82426">
        <ele>236</ele>
        <time>2017-04-03T10:02:40Z</time>
      </trkpt>
      <trkpt lat="45.98972" lon="4.82419">
        <ele>236</ele>
        <time>2017-04-03T10:02:41Z</time>
      </trkpt>
      <trkpt lat="45.9897" lon="4.82412">
        <ele>235</ele>
        <time>2017-04-03T10:02:42Z</time>
      </trkpt>
      <trkpt lat="45.98968" lon="4.82404">
        <ele>235</ele>
        <time>2017-04-03T10:02:43Z</time>
      </trkpt>
      <trkpt lat="45.98967" lon="4.82398">
        <ele>235</ele>
        <time>2017-04-03T10:02:44Z</time>
      </trkpt>
      <trkpt lat="45.98965" lon="4.82392">
        <ele>235</ele>
        <time>2017-04-03T10:02:45Z</time>
      </trkpt>
      <trkpt lat="45.98964" lon="4.82385">
        <ele>235</ele>
        <time>2017-04-03T10:02:46Z</time>
      </trkpt>
      <trkpt lat="45.98962" lon="4.82379">
        <ele>235</ele>
        <time>2017-04-03T10:02:47Z</time>
      </trkpt>
      <trkpt lat="45.9896" lon="4.82373">
        <ele>235</ele>
        <time>2017-04-03T10:02:48Z</time>
      </trkpt>
      <trkpt lat="45.98959" lon="4.82366">
        <ele>235</ele>
        <time>2017-04-03T10:02:49Z</time>
      </trkpt>
      <trkpt lat="45.98957" lon="4.82359">
        <ele>235</ele>
        <time>2017-04-03T10:02:50Z</time>
      </trkpt>
      <trkpt lat="45.98955" lon="4.82353">
        <ele>235</ele>
        <time>2017-04-03T10:02:51Z</time>
      </trkpt>
      <trkpt lat="45.98952" lon="4.82346">
        <ele>235</ele>
        <time>2017-04-03T10:02:52Z</time>
      </trkpt>
      <trkpt lat="45.98949" lon="4.82339">
        <ele>235</ele>
        <time>2017-04-03T10:02:53Z</time>
      </trkpt>
      <trkpt lat="45.98946" lon="4.82333">
        <ele>234</ele>
        <time>2017-04-03T10:02:54Z</time>
      </trkpt>
      <trkpt lat="45.98943" lon="4.82327">
        <ele>234</ele>
        <time>2017-04-03T10:02:55Z</time>
      </trkpt>
      <trkpt lat="45.98939" lon="4.82321">
        <ele>234</ele>
        <time>2017-04-03T10:02:56Z</time>
      </trkpt>
      <trkpt lat="45.98934" lon="4.82316">
        <ele>234</ele>
        <time>2017-04-03T10:02:57Z</time>
      </trkpt>
      <trkpt lat="45.9893" lon="4.8231">
        <ele>234</ele>
        <time>2017-04-03T10:02:58Z</time>
      </trkpt>
      <trkpt lat="45.98926" lon="4.82305">
        <ele>234</ele>
        <time>2017-04-03T10:02:59Z</time>
      </trkpt>
      <trkpt lat="45.98923" lon="4.82301">
        <ele>234</ele>
        <time>2017-04-03T10:03:00Z</time>
      </trkpt>
      <trkpt lat="45.9892" lon="4.82297">
        <ele>234</ele>
        <time>2017-04-03T10:03:01Z</time>
      </trkpt>
      <trkpt lat="45.98916" lon="4.82292">
        <ele>236</ele>
        <time>2017-04-03T10:03:02Z</time>
      </trkpt>
      <trkpt lat="45.98912" lon="4.82288">
        <ele>236</ele>
        <time>2017-04-03T10:03:03Z</time>
      </trkpt>
      <trkpt lat="45.98909" lon="4.82285">
        <ele>236</ele>
        <time>2017-04-03T10:03:04Z</time>
      </trkpt>
      <trkpt lat="45.98905" lon="4.82281">
        <ele>236</ele>
        <time>2017-04-03T10:03:05Z</time>
      </trkpt>
      <trkpt lat="45.98901" lon="4.82277">
        <ele>236</ele>
        <time>2017-04-03T10:03:06Z</time>
      </trkpt>
      <trkpt lat="45.98895" lon="4.82267">
        <ele>236</ele>
        <time>2017-04-03T10:03:08Z</time>
      </trkpt>
      <trkpt lat="45.98893" lon="4.82262">
        <ele>236</ele>
        <time>2017-04-03T10:03:09Z</time>
      </trkpt>
      <trkpt lat="45.98887" lon="4.82253">
        <ele>236</ele>
        <time>2017-04-03T10:03:11Z</time>
      </trkpt>
      <trkpt lat="45.98885" lon="4.82249">
        <ele>236</ele>
        <time>2017-04-03T10:03:12Z</time>
      </trkpt>
      <trkpt lat="45.98882" lon="4.82244">
        <ele>236</ele>
        <time>2017-04-03T10:03:13Z</time>
      </trkpt>
      <trkpt lat="45.98879" lon="4.82239">
        <ele>236</ele>
        <time>2017-04-03T10:03:14Z</time>
      </trkpt>
      <trkpt lat="45.98876" lon="4.82233">
        <ele>236</ele>
        <time>2017-04-03T10:03:15Z</time>
      </trkpt>
      <trkpt lat="45.98873" lon="4.82227">
        <ele>236</ele>
        <time>2017-04-03T10:03:16Z</time>
      </trkpt>
      <trkpt lat="45.9887" lon="4.82221">
        <ele>236</ele>
        <time>2017-04-03T10:03:17Z</time>
      </trkpt>
      <trkpt lat="45.98867" lon="4.82216">
        <ele>236</ele>
        <time>2017-04-03T10:03:18Z</time>
      </trkpt>
      <trkpt lat="45.98865" lon="4.8221">
        <ele>236</ele>
        <time>2017-04-03T10:03:19Z</time>
      </trkpt>
      <trkpt lat="45.98862" lon="4.82204">
        <ele>236</ele>
        <time>2017-04-03T10:03:20Z</time>
      </trkpt>
      <trkpt lat="45.9886" lon="4.82197">
        <ele>236</ele>
        <time>2017-04-03T10:03:21Z</time>
      </trkpt>
      <trkpt lat="45.98857" lon="4.82191">
        <ele>236</ele>
        <time>2017-04-03T10:03:22Z</time>
      </trkpt>
      <trkpt lat="45.98854" lon="4.82185">
        <ele>236</ele>
        <time>2017-04-03T10:03:23Z</time>
      </trkpt>
      <trkpt lat="45.98852" lon="4.82178">
        <ele>236</ele>
        <time>2017-04-03T10:03:24Z</time>
      </trkpt>
      <trkpt lat="45.98849" lon="4.82172">
        <ele>236</ele>
        <time>2017-04-03T10:03:25Z</time>
      </trkpt>
      <trkpt lat="45.98847" lon="4.82165">
        <ele>236</ele>
        <time>2017-04-03T10:03:26Z</time>
      </trkpt>
      <trkpt lat="45.98845" lon="4.82158">
        <ele>236</ele>
        <time>2017-04-03T10:03:27Z</time>
      </trkpt>
      <trkpt lat="45.98844" lon="4.82151">
        <ele>236</ele>
        <time>2017-04-03T10:03:28Z</time>
      </trkpt>
      <trkpt lat="45.98842" lon="4.82144">
        <ele>236</ele>
        <time>2017-04-03T10:03:29Z</time>
      </trkpt>
      <trkpt lat="45.9884" lon="4.82137">
        <ele>236</ele>
        <time>2017-04-03T10:03:30Z</time>
      </trkpt>
      <trkpt lat="45.98839" lon="4.8213">
        <ele>236</ele>
        <time>2017-04-03T10:03:31Z</time>
      </trkpt>
      <trkpt lat="45.98837" lon="4.82122">
        <ele>236</ele>
        <time>2017-04-03T10:03:32Z</time>
      </trkpt>
      <trkpt lat="45.98836" lon="4.82115">
        <ele>236</ele>
        <time>2017-04-03T10:03:33Z</time>
      </trkpt>
      <trkpt lat="45.98834" lon="4.82107">
        <ele>236</ele>
        <time>2017-04-03T10:03:34Z</time>
      </trkpt>
      <trkpt lat="45.98833" lon="4.821">
        <ele>237</ele>
        <time>2017-04-03T10:03:35Z</time>
      </trkpt>
      <trkpt lat="45.98832" lon="4.82093">
        <ele>237</ele>
        <time>2017-04-03T10:03:36Z</time>
      </trkpt>
      <trkpt lat="45.98831" lon="4.82086">
        <ele>236</ele>
        <time>2017-04-03T10:03:37Z</time>
      </trkpt>
      <trkpt lat="45.98829" lon="4.82079">
        <ele>236</ele>
        <time>2017-04-03T10:03:38Z</time>
      </trkpt>
      <trkpt lat="45.98829" lon="4.82071">
        <ele>237</ele>
        <time>2017-04-03T10:03:39Z</time>
      </trkpt>
      <trkpt lat="45.98828" lon="4.82065">
        <ele>237</ele>
        <time>2017-04-03T10:03:40Z</time>
      </trkpt>
      <trkpt lat="45.98826" lon="4.82058">
        <ele>237</ele>
        <time>2017-04-03T10:03:41Z</time>
      </trkpt>
      <trkpt lat="45.98825" lon="4.82051">
        <ele>237</ele>
        <time>2017-04-03T10:03:42Z</time>
      </trkpt>
      <trkpt lat="45.98824" lon="4.82044">
        <ele>238</ele>
        <time>2017-04-03T10:03:43Z</time>
      </trkpt>
      <trkpt lat="45.98823" lon="4.82035">
        <ele>238</ele>
        <time>2017-04-03T10:03:44Z</time>
      </trkpt>
      <trkpt lat="45.98822" lon="4.82026">
        <ele>238</ele>
        <time>2017-04-03T10:03:45Z</time>
      </trkpt>
      <trkpt lat="45.98821" lon="4.82018">
        <ele>238</ele>
        <time>2017-04-03T10:03:46Z</time>
      </trkpt>
      <trkpt lat="45.9882" lon="4.8201">
        <ele>238</ele>
        <time>2017-04-03T10:03:47Z</time>
      </trkpt>
      <trkpt lat="45.98819" lon="4.82003">
        <ele>238</ele>
        <time>2017-04-03T10:03:48Z</time>
      </trkpt>
      <trkpt lat="45.98817" lon="4.81995">
        <ele>238</ele>
        <time>2017-04-03T10:03:49Z</time>
      </trkpt>
      <trkpt lat="45.98817" lon="4.81988">
        <ele>238</ele>
        <time>2017-04-03T10:03:50Z</time>
      </trkpt>
      <trkpt lat="45.98816" lon="4.81981">
        <ele>239</ele>
        <time>2017-04-03T10:03:51Z</time>
      </trkpt>
      <trkpt lat="45.98815" lon="4.81974">
        <ele>239</ele>
        <time>2017-04-03T10:03:52Z</time>
      </trkpt>
      <trkpt lat="45.98813" lon="4.81968">
        <ele>239</ele>
        <time>2017-04-03T10:03:53Z</time>
      </trkpt>
      <trkpt lat="45.98811" lon="4.81961">
        <ele>239</ele>
        <time>2017-04-03T10:03:54Z</time>
      </trkpt>
      <trkpt lat="45.98809" lon="4.81954">
        <ele>239</ele>
        <time>2017-04-03T10:03:55Z</time>
      </trkpt>
      <trkpt lat="45.98808" lon="4.81946">
        <ele>239</ele>
        <time>2017-04-03T10:03:56Z</time>
      </trkpt>
      <trkpt lat="45.98807" lon="4.81939">
        <ele>239</ele>
        <time>2017-04-03T10:03:57Z</time>
      </trkpt>
      <trkpt lat="45.98807" lon="4.81931">
        <ele>239</ele>
        <time>2017-04-03T10:03:58Z</time>
      </trkpt>
      <trkpt lat="45.98806" lon="4.81924">
        <ele>239</ele>
        <time>2017-04-03T10:03:59Z</time>
      </trkpt>
      <trkpt lat="45.98805" lon="4.81917">
        <ele>239</ele>
        <time>2017-04-03T10:04:00Z</time>
      </trkpt>
      <trkpt lat="45.98804" lon="4.8191">
        <ele>239</ele>
        <time>2017-04-03T10:04:01Z</time>
      </trkpt>
      <trkpt lat="45.98803" lon="4.81903">
        <ele>239</ele>
        <time>2017-04-03T10:04:02Z</time>
      </trkpt>
      <trkpt lat="45.98801" lon="4.81896">
        <ele>239</ele>
        <time>2017-04-03T10:04:03Z</time>
      </trkpt>
      <trkpt lat="45.988" lon="4.81889">
        <ele>239</ele>
        <time>2017-04-03T10:04:04Z</time>
      </trkpt>
      <trkpt lat="45.98798" lon="4.81883">
        <ele>239</ele>
        <time>2017-04-03T10:04:05Z</time>
      </trkpt>
      <trkpt lat="45.98796" lon="4.81876">
        <ele>239</ele>
        <time>2017-04-03T10:04:06Z</time>
      </trkpt>
      <trkpt lat="45.98794" lon="4.8187">
        <ele>239</ele>
        <time>2017-04-03T10:04:07Z</time>
      </trkpt>
      <trkpt lat="45.98791" lon="4.81864">
        <ele>239</ele>
        <time>2017-04-03T10:04:08Z</time>
      </trkpt>
      <trkpt lat="45.98788" lon="4.81858">
        <ele>239</ele>
        <time>2017-04-03T10:04:09Z</time>
      </trkpt>
      <trkpt lat="45.98785" lon="4.81854">
        <ele>239</ele>
        <time>2017-04-03T10:04:10Z</time>
      </trkpt>
      <trkpt lat="45.98782" lon="4.81848">
        <ele>239</ele>
        <time>2017-04-03T10:04:11Z</time>
      </trkpt>
      <trkpt lat="45.98779" lon="4.81844">
        <ele>239</ele>
        <time>2017-04-03T10:04:12Z</time>
      </trkpt>
      <trkpt lat="45.98777" lon="4.81837">
        <ele>239</ele>
        <time>2017-04-03T10:04:13Z</time>
      </trkpt>
      <trkpt lat="45.98774" lon="4.81831">
        <ele>240</ele>
        <time>2017-04-03T10:04:14Z</time>
      </trkpt>
      <trkpt lat="45.98771" lon="4.81823">
        <ele>240</ele>
        <time>2017-04-03T10:04:15Z</time>
      </trkpt>
      <trkpt lat="45.98768" lon="4.81815">
        <ele>240</ele>
        <time>2017-04-03T10:04:16Z</time>
      </trkpt>
      <trkpt lat="45.98765" lon="4.81808">
        <ele>240</ele>
        <time>2017-04-03T10:04:17Z</time>
      </trkpt>
      <trkpt lat="45.98762" lon="4.81802">
        <ele>240</ele>
        <time>2017-04-03T10:04:18Z</time>
      </trkpt>
      <trkpt lat="45.98758" lon="4.81795">
        <ele>240</ele>
        <time>2017-04-03T10:04:19Z</time>
      </trkpt>
      <trkpt lat="45.98755" lon="4.8179">
        <ele>241</ele>
        <time>2017-04-03T10:04:20Z</time>
      </trkpt>
      <trkpt lat="45.98752" lon="4.81785">
        <ele>241</ele>
        <time>2017-04-03T10:04:21Z</time>
      </trkpt>
      <trkpt lat="45.98749" lon="4.8178">
        <ele>240</ele>
        <time>2017-04-03T10:04:22Z</time>
      </trkpt>
      <trkpt lat="45.98746" lon="4.81775">
        <ele>240</ele>
        <time>2017-04-03T10:04:23Z</time>
      </trkpt>
      <trkpt lat="45.98742" lon="4.81769">
        <ele>240</ele>
        <time>2017-04-03T10:04:24Z</time>
      </trkpt>
      <trkpt lat="45.98739" lon="4.81764">
        <ele>240</ele>
        <time>2017-04-03T10:04:25Z</time>
      </trkpt>
      <trkpt lat="45.98735" lon="4.81758">
        <ele>240</ele>
        <time>2017-04-03T10:04:26Z</time>
      </trkpt>
      <trkpt lat="45.98731" lon="4.81752">
        <ele>240</ele>
        <time>2017-04-03T10:04:27Z</time>
      </trkpt>
      <trkpt lat="45.98729" lon="4.81744">
        <ele>240</ele>
        <time>2017-04-03T10:04:28Z</time>
      </trkpt>
      <trkpt lat="45.98726" lon="4.81737">
        <ele>239</ele>
        <time>2017-04-03T10:04:29Z</time>
      </trkpt>
      <trkpt lat="45.98722" lon="4.81733">
        <ele>239</ele>
        <time>2017-04-03T10:04:30Z</time>
      </trkpt>
      <trkpt lat="45.98717" lon="4.8173">
        <ele>239</ele>
        <time>2017-04-03T10:04:31Z</time>
      </trkpt>
      <trkpt lat="45.98713" lon="4.8173">
        <ele>239</ele>
        <time>2017-04-03T10:04:32Z</time>
      </trkpt>
      <trkpt lat="45.98708" lon="4.8173">
        <ele>239</ele>
        <time>2017-04-03T10:04:33Z</time>
      </trkpt>
      <trkpt lat="45.98703" lon="4.81731">
        <ele>239</ele>
        <time>2017-04-03T10:04:34Z</time>
      </trkpt>
      <trkpt lat="45.98698" lon="4.81732">
        <ele>239</ele>
        <time>2017-04-03T10:04:35Z</time>
      </trkpt>
      <trkpt lat="45.98693" lon="4.81733">
        <ele>238</ele>
        <time>2017-04-03T10:04:36Z</time>
      </trkpt>
      <trkpt lat="45.98686" lon="4.81733">
        <ele>238</ele>
        <time>2017-04-03T10:04:38Z</time>
      </trkpt>
      <trkpt lat="45.98683" lon="4.81734">
        <ele>238</ele>
        <time>2017-04-03T10:04:39Z</time>
      </trkpt>
      <trkpt lat="45.98678" lon="4.81735">
        <ele>238</ele>
        <time>2017-04-03T10:04:40Z</time>
      </trkpt>
      <trkpt lat="45.98673" lon="4.81736">
        <ele>238</ele>
        <time>2017-04-03T10:04:41Z</time>
      </trkpt>
      <trkpt lat="45.98668" lon="4.81737">
        <ele>238</ele>
        <time>2017-04-03T10:04:42Z</time>
      </trkpt>
      <trkpt lat="45.98664" lon="4.81738">
        <ele>237</ele>
        <time>2017-04-03T10:04:43Z</time>
      </trkpt>
      <trkpt lat="45.98659" lon="4.8174">
        <ele>237</ele>
        <time>2017-04-03T10:04:44Z</time>
      </trkpt>
      <trkpt lat="45.98653" lon="4.81741">
        <ele>237</ele>
        <time>2017-04-03T10:04:45Z</time>
      </trkpt>
      <trkpt lat="45.98649" lon="4.81744">
        <ele>237</ele>
        <time>2017-04-03T10:04:46Z</time>
      </trkpt>
      <trkpt lat="45.98643" lon="4.81746">
        <ele>237</ele>
        <time>2017-04-03T10:04:47Z</time>
      </trkpt>
      <trkpt lat="45.98637" lon="4.81747">
        <ele>237</ele>
        <time>2017-04-03T10:04:48Z</time>
      </trkpt>
      <trkpt lat="45.98631" lon="4.81749">
        <ele>237</ele>
        <time>2017-04-03T10:04:49Z</time>
      </trkpt>
      <trkpt lat="45.98624" lon="4.81751">
        <ele>238</ele>
        <time>2017-04-03T10:04:50Z</time>
      </trkpt>
      <trkpt lat="45.98618" lon="4.81753">
        <ele>238</ele>
        <time>2017-04-03T10:04:51Z</time>
      </trkpt>
      <trkpt lat="45.98613" lon="4.81756">
        <ele>238</ele>
        <time>2017-04-03T10:04:52Z</time>
      </trkpt>
      <trkpt lat="45.98607" lon="4.81759">
        <ele>238</ele>
        <time>2017-04-03T10:04:53Z</time>
      </trkpt>
      <trkpt lat="45.98601" lon="4.81763">
        <ele>238</ele>
        <time>2017-04-03T10:04:54Z</time>
      </trkpt>
      <trkpt lat="45.98596" lon="4.81768">
        <ele>238</ele>
        <time>2017-04-03T10:04:55Z</time>
      </trkpt>
      <trkpt lat="45.9859" lon="4.81774">
        <ele>238</ele>
        <time>2017-04-03T10:04:56Z</time>
      </trkpt>
      <trkpt lat="45.98586" lon="4.81781">
        <ele>238</ele>
        <time>2017-04-03T10:04:57Z</time>
      </trkpt>
      <trkpt lat="45.98581" lon="4.81787">
        <ele>238</ele>
        <time>2017-04-03T10:04:58Z</time>
      </trkpt>
      <trkpt lat="45.98576" lon="4.81793">
        <ele>238</ele>
        <time>2017-04-03T10:04:59Z</time>
      </trkpt>
      <trkpt lat="45.9857" lon="4.81798">
        <ele>238</ele>
        <time>2017-04-03T10:05:00Z</time>
      </trkpt>
      <trkpt lat="45.98564" lon="4.81801">
        <ele>238</ele>
        <time>2017-04-03T10:05:01Z</time>
      </trkpt>
      <trkpt lat="45.98559" lon="4.81804">
        <ele>238</ele>
        <time>2017-04-03T10:05:02Z</time>
      </trkpt>
      <trkpt lat="45.98552" lon="4.81803">
        <ele>238</ele>
        <time>2017-04-03T10:05:03Z</time>
      </trkpt>
      <trkpt lat="45.98545" lon="4.818">
        <ele>238</ele>
        <time>2017-04-03T10:05:04Z</time>
      </trkpt>
      <trkpt lat="45.9854" lon="4.81795">
        <ele>238</ele>
        <time>2017-04-03T10:05:05Z</time>
      </trkpt>
      <trkpt lat="45.98536" lon="4.81789">
        <ele>238</ele>
        <time>2017-04-03T10:05:06Z</time>
      </trkpt>
      <trkpt lat="45.98532" lon="4.81784">
        <ele>238</ele>
        <time>2017-04-03T10:05:07Z</time>
      </trkpt>
      <trkpt lat="45.98529" lon="4.81778">
        <ele>238</ele>
        <time>2017-04-03T10:05:08Z</time>
      </trkpt>
      <trkpt lat="45.98524" lon="4.81773">
        <ele>238</ele>
        <time>2017-04-03T10:05:09Z</time>
      </trkpt>
      <trkpt lat="45.9852" lon="4.81767">
        <ele>238</ele>
        <time>2017-04-03T10:05:10Z</time>
      </trkpt>
      <trkpt lat="45.98515" lon="4.81762">
        <ele>237</ele>
        <time>2017-04-03T10:05:11Z</time>
      </trkpt>
      <trkpt lat="45.9851" lon="4.81757">
        <ele>237</ele>
        <time>2017-04-03T10:05:12Z</time>
      </trkpt>
      <trkpt lat="45.98506" lon="4.81752">
        <ele>237</ele>
        <time>2017-04-03T10:05:13Z</time>
      </trkpt>
      <trkpt lat="45.98502" lon="4.81748">
        <ele>237</ele>
        <time>2017-04-03T10:05:14Z</time>
      </trkpt>
      <trkpt lat="45.98497" lon="4.81744">
        <ele>237</ele>
        <time>2017-04-03T10:05:15Z</time>
      </trkpt>
      <trkpt lat="45.98492" lon="4.8174">
        <ele>238</ele>
        <time>2017-04-03T10:05:16Z</time>
      </trkpt>
      <trkpt lat="45.98487" lon="4.81736">
        <ele>238</ele>
        <time>2017-04-03T10:05:17Z</time>
      </trkpt>
      <trkpt lat="45.98482" lon="4.81731">
        <ele>238</ele>
        <time>2017-04-03T10:05:18Z</time>
      </trkpt>
      <trkpt lat="45.98478" lon="4.81727">
        <ele>238</ele>
        <time>2017-04-03T10:05:19Z</time>
      </trkpt>
      <trkpt lat="45.98474" lon="4.81722">
        <ele>239</ele>
        <time>2017-04-03T10:05:20Z</time>
      </trkpt>
      <trkpt lat="45.9847" lon="4.81718">
        <ele>239</ele>
        <time>2017-04-03T10:05:21Z</time>
      </trkpt>
      <trkpt lat="45.98463" lon="4.81711">
        <ele>239</ele>
        <time>2017-04-03T10:05:23Z</time>
      </trkpt>
      <trkpt lat="45.9846" lon="4.81706">
        <ele>239</ele>
        <time>2017-04-03T10:05:24Z</time>
      </trkpt>
      <trkpt lat="45.98457" lon="4.81701">
        <ele>239</ele>
        <time>2017-04-03T10:05:25Z</time>
      </trkpt>
      <trkpt lat="45.98454" lon="4.81696">
        <ele>239</ele>
        <time>2017-04-03T10:05:26Z</time>
      </trkpt>
      <trkpt lat="45.98451" lon="4.81691">
        <ele>239</ele>
        <time>2017-04-03T10:05:27Z</time>
      </trkpt>
      <trkpt lat="45.98448" lon="4.81687">
        <ele>239</ele>
        <time>2017-04-03T10:05:28Z</time>
      </trkpt>
      <trkpt lat="45.98442" lon="4.81677">
        <ele>239</ele>
        <time>2017-04-03T10:05:30Z</time>
      </trkpt>
      <trkpt lat="45.98438" lon="4.81673">
        <ele>240</ele>
        <time>2017-04-03T10:05:31Z</time>
      </trkpt>
      <trkpt lat="45.98431" lon="4.81666">
        <ele>239</ele>
        <time>2017-04-03T10:05:33Z</time>
      </trkpt>
      <trkpt lat="45.98426" lon="4.81663">
        <ele>240</ele>
        <time>2017-04-03T10:05:34Z</time>
      </trkpt>
      <trkpt lat="45.98422" lon="4.81662">
        <ele>240</ele>
        <time>2017-04-03T10:05:35Z</time>
      </trkpt>
      <trkpt lat="45.98416" lon="4.81662">
        <ele>241</ele>
        <time>2017-04-03T10:05:36Z</time>
      </trkpt>
      <trkpt lat="45.98411" lon="4.81662">
        <ele>241</ele>
        <time>2017-04-03T10:05:37Z</time>
      </trkpt>
      <trkpt lat="45.98406" lon="4.81663">
        <ele>241</ele>
        <time>2017-04-03T10:05:38Z</time>
      </trkpt>
      <trkpt lat="45.98401" lon="4.81664">
        <ele>242</ele>
        <time>2017-04-03T10:05:39Z</time>
      </trkpt>
      <trkpt lat="45.98395" lon="4.81664">
        <ele>242</ele>
        <time>2017-04-03T10:05:40Z</time>
      </trkpt>
      <trkpt lat="45.9839" lon="4.81665">
        <ele>242</ele>
        <time>2017-04-03T10:05:41Z</time>
      </trkpt>
      <trkpt lat="45.98385" lon="4.81667">
        <ele>242</ele>
        <time>2017-04-03T10:05:42Z</time>
      </trkpt>
      <trkpt lat="45.9838" lon="4.81668">
        <ele>244</ele>
        <time>2017-04-03T10:05:43Z</time>
      </trkpt>
      <trkpt lat="45.98376" lon="4.8167">
        <ele>244</ele>
        <time>2017-04-03T10:05:44Z</time>
      </trkpt>
      <trkpt lat="45.98371" lon="4.81671">
        <ele>244</ele>
        <time>2017-04-03T10:05:45Z</time>
      </trkpt>
      <trkpt lat="45.98367" lon="4.81671">
        <ele>244</ele>
        <time>2017-04-03T10:05:46Z</time>
      </trkpt>
      <trkpt lat="45.98358" lon="4.81673">
        <ele>245</ele>
        <time>2017-04-03T10:05:48Z</time>
      </trkpt>
      <trkpt lat="45.98353" lon="4.81672">
        <ele>245</ele>
        <time>2017-04-03T10:05:49Z</time>
      </trkpt>
      <trkpt lat="45.98346" lon="4.8167">
        <ele>245</ele>
        <time>2017-04-03T10:05:51Z</time>
      </trkpt>
      <trkpt lat="45.98342" lon="4.81669">
        <ele>245</ele>
        <time>2017-04-03T10:05:52Z</time>
      </trkpt>
      <trkpt lat="45.98338" lon="4.81666">
        <ele>245</ele>
        <time>2017-04-03T10:05:53Z</time>
      </trkpt>
      <trkpt lat="45.98334" lon="4.81664">
        <ele>246</ele>
        <time>2017-04-03T10:05:54Z</time>
      </trkpt>
      <trkpt lat="45.98329" lon="4.81662">
        <ele>246</ele>
        <time>2017-04-03T10:05:55Z</time>
      </trkpt>
      <trkpt lat="45.98325" lon="4.81659">
        <ele>246</ele>
        <time>2017-04-03T10:05:56Z</time>
      </trkpt>
      <trkpt lat="45.98321" lon="4.81655">
        <ele>246</ele>
        <time>2017-04-03T10:05:57Z</time>
      </trkpt>
      <trkpt lat="45.98317" lon="4.81652">
        <ele>246</ele>
        <time>2017-04-03T10:05:58Z</time>
      </trkpt>
      <trkpt lat="45.98313" lon="4.81648">
        <ele>246</ele>
        <time>2017-04-03T10:05:59Z</time>
      </trkpt>
      <trkpt lat="45.98309" lon="4.81644">
        <ele>246</ele>
        <time>2017-04-03T10:06:00Z</time>
      </trkpt>
      <trkpt lat="45.98304" lon="4.8164">
        <ele>246</ele>
        <time>2017-04-03T10:06:01Z</time>
      </trkpt>
      <trkpt lat="45.983" lon="4.81636">
        <ele>246</ele>
        <time>2017-04-03T10:06:02Z</time>
      </trkpt>
      <trkpt lat="45.98296" lon="4.81631">
        <ele>246</ele>
        <time>2017-04-03T10:06:03Z</time>
      </trkpt>
      <trkpt lat="45.98292" lon="4.81626">
        <ele>247</ele>
        <time>2017-04-03T10:06:04Z</time>
      </trkpt>
      <trkpt lat="45.98288" lon="4.81621">
        <ele>247</ele>
        <time>2017-04-03T10:06:05Z</time>
      </trkpt>
      <trkpt lat="45.98286" lon="4.81616">
        <ele>247</ele>
        <time>2017-04-03T10:06:06Z</time>
      </trkpt>
      <trkpt lat="45.98282" lon="4.81611">
        <ele>247</ele>
        <time>2017-04-03T10:06:07Z</time>
      </trkpt>
      <trkpt lat="45.9828" lon="4.81605">
        <ele>247</ele>
        <time>2017-04-03T10:06:08Z</time>
      </trkpt>
      <trkpt lat="45.98277" lon="4.81598">
        <ele>247</ele>
        <time>2017-04-03T10:06:09Z</time>
      </trkpt>
      <trkpt lat="45.98274" lon="4.81591">
        <ele>247</ele>
        <time>2017-04-03T10:06:10Z</time>
      </trkpt>
      <trkpt lat="45.9827" lon="4.81584">
        <ele>247</ele>
        <time>2017-04-03T10:06:11Z</time>
      </trkpt>
      <trkpt lat="45.98267" lon="4.81576">
        <ele>247</ele>
        <time>2017-04-03T10:06:12Z</time>
      </trkpt>
      <trkpt lat="45.98264" lon="4.81569">
        <ele>247</ele>
        <time>2017-04-03T10:06:13Z</time>
      </trkpt>
      <trkpt lat="45.98262" lon="4.81561">
        <ele>247</ele>
        <time>2017-04-03T10:06:14Z</time>
      </trkpt>
      <trkpt lat="45.98259" lon="4.81554">
        <ele>247</ele>
        <time>2017-04-03T10:06:15Z</time>
      </trkpt>
      <trkpt lat="45.98257" lon="4.81547">
        <ele>247</ele>
        <time>2017-04-03T10:06:16Z</time>
      </trkpt>
      <trkpt lat="45.98255" lon="4.8154">
        <ele>247</ele>
        <time>2017-04-03T10:06:17Z</time>
      </trkpt>
      <trkpt lat="45.98253" lon="4.81533">
        <ele>247</ele>
        <time>2017-04-03T10:06:18Z</time>
      </trkpt>
      <trkpt lat="45.98251" lon="4.81526">
        <ele>247</ele>
        <time>2017-04-03T10:06:19Z</time>
      </trkpt>
      <trkpt lat="45.98249" lon="4.8152">
        <ele>249</ele>
        <time>2017-04-03T10:06:20Z</time>
      </trkpt>
      <trkpt lat="45.98247" lon="4.81514">
        <ele>249</ele>
        <time>2017-04-03T10:06:21Z</time>
      </trkpt>
      <trkpt lat="45.98245" lon="4.81507">
        <ele>249</ele>
        <time>2017-04-03T10:06:22Z</time>
      </trkpt>
      <trkpt lat="45.98243" lon="4.81501">
        <ele>249</ele>
        <time>2017-04-03T10:06:23Z</time>
      </trkpt>
      <trkpt lat="45.9824" lon="4.81495">
        <ele>249</ele>
        <time>2017-04-03T10:06:24Z</time>
      </trkpt>
      <trkpt lat="45.98238" lon="4.81489">
        <ele>249</ele>
        <time>2017-04-03T10:06:25Z</time>
      </trkpt>
      <trkpt lat="45.98235" lon="4.81483">
        <ele>249</ele>
        <time>2017-04-03T10:06:26Z</time>
      </trkpt>
      <trkpt lat="45.98233" lon="4.81477">
        <ele>249</ele>
        <time>2017-04-03T10:06:27Z</time>
      </trkpt>
      <trkpt lat="45.98231" lon="4.8147">
        <ele>249</ele>
        <time>2017-04-03T10:06:28Z</time>
      </trkpt>
      <trkpt lat="45.98229" lon="4.81463">
        <ele>249</ele>
        <time>2017-04-03T10:06:29Z</time>
      </trkpt>
      <trkpt lat="45.98227" lon="4.81457">
        <ele>249</ele>
        <time>2017-04-03T10:06:30Z</time>
      </trkpt>
      <trkpt lat="45.98225" lon="4.8145">
        <ele>249</ele>
        <time>2017-04-03T10:06:31Z</time>
      </trkpt>
      <trkpt lat="45.98222" lon="4.81442">
        <ele>249</ele>
        <time>2017-04-03T10:06:32Z</time>
      </trkpt>
      <trkpt lat="45.9822" lon="4.81435">
        <ele>249</ele>
        <time>2017-04-03T10:06:33Z</time>
      </trkpt>
      <trkpt lat="45.98218" lon="4.81428">
        <ele>249</ele>
        <time>2017-04-03T10:06:34Z</time>
      </trkpt>
      <trkpt lat="45.98216" lon="4.81421">
        <ele>249</ele>
        <time>2017-04-03T10:06:35Z</time>
      </trkpt>
      <trkpt lat="45.98214" lon="4.81414">
        <ele>248</ele>
        <time>2017-04-03T10:06:36Z</time>
      </trkpt>
      <trkpt lat="45.98212" lon="4.81408">
        <ele>248</ele>
        <time>2017-04-03T10:06:37Z</time>
      </trkpt>
      <trkpt lat="45.98209" lon="4.81401">
        <ele>248</ele>
        <time>2017-04-03T10:06:38Z</time>
      </trkpt>
      <trkpt lat="45.98207" lon="4.81394">
        <ele>248</ele>
        <time>2017-04-03T10:06:39Z</time>
      </trkpt>
      <trkpt lat="45.98205" lon="4.81387">
        <ele>248</ele>
        <time>2017-04-03T10:06:40Z</time>
      </trkpt>
      <trkpt lat="45.98203" lon="4.8138">
        <ele>248</ele>
        <time>2017-04-03T10:06:41Z</time>
      </trkpt>
      <trkpt lat="45.98201" lon="4.81373">
        <ele>248</ele>
        <time>2017-04-03T10:06:42Z</time>
      </trkpt>
      <trkpt lat="45.982" lon="4.81366">
        <ele>248</ele>
        <time>2017-04-03T10:06:43Z</time>
      </trkpt>
      <trkpt lat="45.98198" lon="4.81358">
        <ele>248</ele>
        <time>2017-04-03T10:06:44Z</time>
      </trkpt>
      <trkpt lat="45.98196" lon="4.8135">
        <ele>248</ele>
        <time>2017-04-03T10:06:45Z</time>
      </trkpt>
      <trkpt lat="45.98194" lon="4.81343">
        <ele>248</ele>
        <time>2017-04-03T10:06:46Z</time>
      </trkpt>
      <trkpt lat="45.98192" lon="4.81335">
        <ele>248</ele>
        <time>2017-04-03T10:06:47Z</time>
      </trkpt>
      <trkpt lat="45.9819" lon="4.81328">
        <ele>247</ele>
        <time>2017-04-03T10:06:48Z</time>
      </trkpt>
      <trkpt lat="45.98188" lon="4.8132">
        <ele>247</ele>
        <time>2017-04-03T10:06:49Z</time>
      </trkpt>
      <trkpt lat="45.98185" lon="4.81313">
        <ele>247</ele>
        <time>2017-04-03T10:06:50Z</time>
      </trkpt>
      <trkpt lat="45.98183" lon="4.81305">
        <ele>247</ele>
        <time>2017-04-03T10:06:51Z</time>
      </trkpt>
      <trkpt lat="45.98181" lon="4.81297">
        <ele>247</ele>
        <time>2017-04-03T10:06:52Z</time>
      </trkpt>
      <trkpt lat="45.98179" lon="4.81289">
        <ele>247</ele>
        <time>2017-04-03T10:06:53Z</time>
      </trkpt>
      <trkpt lat="45.98178" lon="4.81282">
        <ele>247</ele>
        <time>2017-04-03T10:06:54Z</time>
      </trkpt>
      <trkpt lat="45.98176" lon="4.81274">
        <ele>247</ele>
        <time>2017-04-03T10:06:55Z</time>
      </trkpt>
      <trkpt lat="45.98175" lon="4.81266">
        <ele>247</ele>
        <time>2017-04-03T10:06:56Z</time>
      </trkpt>
      <trkpt lat="45.98174" lon="4.81258">
        <ele>247</ele>
        <time>2017-04-03T10:06:57Z</time>
      </trkpt>
      <trkpt lat="45.98173" lon="4.81249">
        <ele>247</ele>
        <time>2017-04-03T10:06:58Z</time>
      </trkpt>
      <trkpt lat="45.98172" lon="4.81241">
        <ele>247</ele>
        <time>2017-04-03T10:06:59Z</time>
      </trkpt>
      <trkpt lat="45.98172" lon="4.81233">
        <ele>246</ele>
        <time>2017-04-03T10:07:00Z</time>
      </trkpt>
      <trkpt lat="45.98171" lon="4.81224">
        <ele>246</ele>
        <time>2017-04-03T10:07:01Z</time>
      </trkpt>
      <trkpt lat="45.98171" lon="4.81216">
        <ele>246</ele>
        <time>2017-04-03T10:07:02Z</time>
      </trkpt>
      <trkpt lat="45.9817" lon="4.81208">
        <ele>246</ele>
        <time>2017-04-03T10:07:03Z</time>
      </trkpt>
      <trkpt lat="45.98171" lon="4.812">
        <ele>245</ele>
        <time>2017-04-03T10:07:04Z</time>
      </trkpt>
      <trkpt lat="45.9817" lon="4.81191">
        <ele>245</ele>
        <time>2017-04-03T10:07:05Z</time>
      </trkpt>
      <trkpt lat="45.98169" lon="4.81183">
        <ele>245</ele>
        <time>2017-04-03T10:07:06Z</time>
      </trkpt>
      <trkpt lat="45.98167" lon="4.81175">
        <ele>245</ele>
        <time>2017-04-03T10:07:07Z</time>
      </trkpt>
      <trkpt lat="45.98165" lon="4.81167">
        <ele>245</ele>
        <time>2017-04-03T10:07:08Z</time>
      </trkpt>
      <trkpt lat="45.98162" lon="4.8116">
        <ele>245</ele>
        <time>2017-04-03T10:07:09Z</time>
      </trkpt>
      <trkpt lat="45.98159" lon="4.81153">
        <ele>245</ele>
        <time>2017-04-03T10:07:10Z</time>
      </trkpt>
      <trkpt lat="45.98155" lon="4.81146">
        <ele>245</ele>
        <time>2017-04-03T10:07:11Z</time>
      </trkpt>
      <trkpt lat="45.98152" lon="4.81139">
        <ele>245</ele>
        <time>2017-04-03T10:07:12Z</time>
      </trkpt>
      <trkpt lat="45.98148" lon="4.81132">
        <ele>245</ele>
        <time>2017-04-03T10:07:13Z</time>
      </trkpt>
      <trkpt lat="45.98145" lon="4.81124">
        <ele>245</ele>
        <time>2017-04-03T10:07:14Z</time>
      </trkpt>
      <trkpt lat="45.98142" lon="4.81116">
        <ele>245</ele>
        <time>2017-04-03T10:07:15Z</time>
      </trkpt>
      <trkpt lat="45.9814" lon="4.81108">
        <ele>245</ele>
        <time>2017-04-03T10:07:16Z</time>
      </trkpt>
      <trkpt lat="45.98137" lon="4.811">
        <ele>245</ele>
        <time>2017-04-03T10:07:17Z</time>
      </trkpt>
      <trkpt lat="45.98133" lon="4.81093">
        <ele>245</ele>
        <time>2017-04-03T10:07:18Z</time>
      </trkpt>
      <trkpt lat="45.9813" lon="4.81085">
        <ele>245</ele>
        <time>2017-04-03T10:07:19Z</time>
      </trkpt>
      <trkpt lat="45.98126" lon="4.81076">
        <ele>243</ele>
        <time>2017-04-03T10:07:20Z</time>
      </trkpt>
      <trkpt lat="45.98123" lon="4.81068">
        <ele>243</ele>
        <time>2017-04-03T10:07:21Z</time>
      </trkpt>
      <trkpt lat="45.9812" lon="4.8106">
        <ele>243</ele>
        <time>2017-04-03T10:07:22Z</time>
      </trkpt>
      <trkpt lat="45.98116" lon="4.81052">
        <ele>243</ele>
        <time>2017-04-03T10:07:23Z</time>
      </trkpt>
      <trkpt lat="45.98113" lon="4.81043">
        <ele>242</ele>
        <time>2017-04-03T10:07:24Z</time>
      </trkpt>
      <trkpt lat="45.9811" lon="4.81036">
        <ele>242</ele>
        <time>2017-04-03T10:07:25Z</time>
      </trkpt>
      <trkpt lat="45.98108" lon="4.81028">
        <ele>242</ele>
        <time>2017-04-03T10:07:26Z</time>
      </trkpt>
      <trkpt lat="45.98106" lon="4.81021">
        <ele>242</ele>
        <time>2017-04-03T10:07:27Z</time>
      </trkpt>
      <trkpt lat="45.98104" lon="4.81014">
        <ele>242</ele>
        <time>2017-04-03T10:07:28Z</time>
      </trkpt>
      <trkpt lat="45.98102" lon="4.81007">
        <ele>242</ele>
        <time>2017-04-03T10:07:29Z</time>
      </trkpt>
      <trkpt lat="45.981" lon="4.81">
        <ele>242</ele>
        <time>2017-04-03T10:07:30Z</time>
      </trkpt>
      <trkpt lat="45.98097" lon="4.80989">
        <ele>240</ele>
        <time>2017-04-03T10:07:32Z</time>
      </trkpt>
      <trkpt lat="45.98094" lon="4.80983">
        <ele>240</ele>
        <time>2017-04-03T10:07:33Z</time>
      </trkpt>
      <trkpt lat="45.98093" lon="4.80977">
        <ele>239</ele>
        <time>2017-04-03T10:07:34Z</time>
      </trkpt>
      <trkpt lat="45.98091" lon="4.8097">
        <ele>239</ele>
        <time>2017-04-03T10:07:35Z</time>
      </trkpt>
      <trkpt lat="45.98089" lon="4.80962">
        <ele>239</ele>
        <time>2017-04-03T10:07:36Z</time>
      </trkpt>
      <trkpt lat="45.98087" lon="4.80953">
        <ele>238</ele>
        <time>2017-04-03T10:07:37Z</time>
      </trkpt>
      <trkpt lat="45.98085" lon="4.80944">
        <ele>238</ele>
        <time>2017-04-03T10:07:38Z</time>
      </trkpt>
      <trkpt lat="45.98082" lon="4.80934">
        <ele>240</ele>
        <time>2017-04-03T10:07:39Z</time>
      </trkpt>
      <trkpt lat="45.9808" lon="4.80923">
        <ele>240</ele>
        <time>2017-04-03T10:07:40Z</time>
      </trkpt>
      <trkpt lat="45.98077" lon="4.80912">
        <ele>239</ele>
        <time>2017-04-03T10:07:41Z</time>
      </trkpt>
      <trkpt lat="45.98074" lon="4.80901">
        <ele>238</ele>
        <time>2017-04-03T10:07:42Z</time>
      </trkpt>
      <trkpt lat="45.98071" lon="4.80889">
        <ele>238</ele>
        <time>2017-04-03T10:07:43Z</time>
      </trkpt>
      <trkpt lat="45.98068" lon="4.80876">
        <ele>237</ele>
        <time>2017-04-03T10:07:44Z</time>
      </trkpt>
      <trkpt lat="45.98065" lon="4.80863">
        <ele>237</ele>
        <time>2017-04-03T10:07:45Z</time>
      </trkpt>
      <trkpt lat="45.98062" lon="4.8085">
        <ele>236</ele>
        <time>2017-04-03T10:07:46Z</time>
      </trkpt>
      <trkpt lat="45.98059" lon="4.80837">
        <ele>236</ele>
        <time>2017-04-03T10:07:47Z</time>
      </trkpt>
      <trkpt lat="45.98056" lon="4.80824">
        <ele>234</ele>
        <time>2017-04-03T10:07:48Z</time>
      </trkpt>
      <trkpt lat="45.98053" lon="4.80812">
        <ele>234</ele>
        <time>2017-04-03T10:07:49Z</time>
      </trkpt>
      <trkpt lat="45.9805" lon="4.80799">
        <ele>234</ele>
        <time>2017-04-03T10:07:50Z</time>
      </trkpt>
      <trkpt lat="45.98047" lon="4.80788">
        <ele>233</ele>
        <time>2017-04-03T10:07:51Z</time>
      </trkpt>
      <trkpt lat="45.98045" lon="4.80776">
        <ele>233</ele>
        <time>2017-04-03T10:07:52Z</time>
      </trkpt>
      <trkpt lat="45.98042" lon="4.80765">
        <ele>233</ele>
        <time>2017-04-03T10:07:53Z</time>
      </trkpt>
      <trkpt lat="45.98039" lon="4.80755">
        <ele>233</ele>
        <time>2017-04-03T10:07:54Z</time>
      </trkpt>
      <trkpt lat="45.98037" lon="4.80745">
        <ele>231</ele>
        <time>2017-04-03T10:07:55Z</time>
      </trkpt>
      <trkpt lat="45.98034" lon="4.80736">
        <ele>231</ele>
        <time>2017-04-03T10:07:56Z</time>
      </trkpt>
      <trkpt lat="45.98031" lon="4.80727">
        <ele>231</ele>
        <time>2017-04-03T10:07:57Z</time>
      </trkpt>
      <trkpt lat="45.9803" lon="4.8072">
        <ele>231</ele>
        <time>2017-04-03T10:07:58Z</time>
      </trkpt>
      <trkpt lat="45.98029" lon="4.80713">
        <ele>231</ele>
        <time>2017-04-03T10:07:59Z</time>
      </trkpt>
      <trkpt lat="45.9803" lon="4.80701">
        <ele>231</ele>
        <time>2017-04-03T10:08:01Z</time>
      </trkpt>
      <trkpt lat="45.98032" lon="4.80697">
        <ele>230</ele>
        <time>2017-04-03T10:08:02Z</time>
      </trkpt>
      <trkpt lat="45.9804" lon="4.80694">
        <ele>230</ele>
        <time>2017-04-03T10:08:04Z</time>
      </trkpt>
      <trkpt lat="45.98046" lon="4.80694">
        <ele>230</ele>
        <time>2017-04-03T10:08:05Z</time>
      </trkpt>
      <trkpt lat="45.98052" lon="4.80694">
        <ele>230</ele>
        <time>2017-04-03T10:08:06Z</time>
      </trkpt>
      <trkpt lat="45.98058" lon="4.80694">
        <ele>230</ele>
        <time>2017-04-03T10:08:07Z</time>
      </trkpt>
      <trkpt lat="45.98065" lon="4.80694">
        <ele>230</ele>
        <time>2017-04-03T10:08:08Z</time>
      </trkpt>
      <trkpt lat="45.98071" lon="4.80694">
        <ele>230</ele>
        <time>2017-04-03T10:08:09Z</time>
      </trkpt>
      <trkpt lat="45.98078" lon="4.80695">
        <ele>230</ele>
        <time>2017-04-03T10:08:10Z</time>
      </trkpt>
      <trkpt lat="45.98085" lon="4.80695">
        <ele>228</ele>
        <time>2017-04-03T10:08:11Z</time>
      </trkpt>
      <trkpt lat="45.98091" lon="4.80694">
        <ele>228</ele>
        <time>2017-04-03T10:08:12Z</time>
      </trkpt>
      <trkpt lat="45.98098" lon="4.80694">
        <ele>228</ele>
        <time>2017-04-03T10:08:13Z</time>
      </trkpt>
      <trkpt lat="45.98104" lon="4.80694">
        <ele>228</ele>
        <time>2017-04-03T10:08:14Z</time>
      </trkpt>
      <trkpt lat="45.98111" lon="4.80693">
        <ele>228</ele>
        <time>2017-04-03T10:08:15Z</time>
      </trkpt>
      <trkpt lat="45.98118" lon="4.80693">
        <ele>228</ele>
        <time>2017-04-03T10:08:16Z</time>
      </trkpt>
      <trkpt lat="45.98124" lon="4.80692">
        <ele>228</ele>
        <time>2017-04-03T10:08:17Z</time>
      </trkpt>
      <trkpt lat="45.98131" lon="4.80692">
        <ele>228</ele>
        <time>2017-04-03T10:08:18Z</time>
      </trkpt>
      <trkpt lat="45.98137" lon="4.80692">
        <ele>228</ele>
        <time>2017-04-03T10:08:19Z</time>
      </trkpt>
      <trkpt lat="45.98143" lon="4.80693">
        <ele>228</ele>
        <time>2017-04-03T10:08:20Z</time>
      </trkpt>
      <trkpt lat="45.98149" lon="4.80692">
        <ele>228</ele>
        <time>2017-04-03T10:08:21Z</time>
      </trkpt>
      <trkpt lat="45.98156" lon="4.80691">
        <ele>227</ele>
        <time>2017-04-03T10:08:22Z</time>
      </trkpt>
      <trkpt lat="45.98162" lon="4.8069">
        <ele>227</ele>
        <time>2017-04-03T10:08:23Z</time>
      </trkpt>
      <trkpt lat="45.98168" lon="4.80688">
        <ele>225</ele>
        <time>2017-04-03T10:08:24Z</time>
      </trkpt>
      <trkpt lat="45.98174" lon="4.80687">
        <ele>225</ele>
        <time>2017-04-03T10:08:25Z</time>
      </trkpt>
      <trkpt lat="45.9818" lon="4.80685">
        <ele>225</ele>
        <time>2017-04-03T10:08:26Z</time>
      </trkpt>
      <trkpt lat="45.98186" lon="4.80683">
        <ele>225</ele>
        <time>2017-04-03T10:08:27Z</time>
      </trkpt>
      <trkpt lat="45.98192" lon="4.8068">
        <ele>225</ele>
        <time>2017-04-03T10:08:28Z</time>
      </trkpt>
      <trkpt lat="45.98198" lon="4.80678">
        <ele>225</ele>
        <time>2017-04-03T10:08:29Z</time>
      </trkpt>
      <trkpt lat="45.98204" lon="4.80675">
        <ele>224</ele>
        <time>2017-04-03T10:08:30Z</time>
      </trkpt>
      <trkpt lat="45.9821" lon="4.80671">
        <ele>224</ele>
        <time>2017-04-03T10:08:31Z</time>
      </trkpt>
      <trkpt lat="45.98216" lon="4.80666">
        <ele>224</ele>
        <time>2017-04-03T10:08:32Z</time>
      </trkpt>
      <trkpt lat="45.98221" lon="4.8066">
        <ele>224</ele>
        <time>2017-04-03T10:08:33Z</time>
      </trkpt>
      <trkpt lat="45.98226" lon="4.80653">
        <ele>224</ele>
        <time>2017-04-03T10:08:34Z</time>
      </trkpt>
      <trkpt lat="45.98229" lon="4.80644">
        <ele>224</ele>
        <time>2017-04-03T10:08:35Z</time>
      </trkpt>
      <trkpt lat="45.98232" lon="4.80635">
        <ele>224</ele>
        <time>2017-04-03T10:08:36Z</time>
      </trkpt>
      <trkpt lat="45.98235" lon="4.80625">
        <ele>224</ele>
        <time>2017-04-03T10:08:37Z</time>
      </trkpt>
      <trkpt lat="45.98239" lon="4.80616">
        <ele>224</ele>
        <time>2017-04-03T10:08:38Z</time>
      </trkpt>
      <trkpt lat="45.98242" lon="4.80606">
        <ele>224</ele>
        <time>2017-04-03T10:08:39Z</time>
      </trkpt>
      <trkpt lat="45.98245" lon="4.80597">
        <ele>224</ele>
        <time>2017-04-03T10:08:40Z</time>
      </trkpt>
      <trkpt lat="45.98248" lon="4.80588">
        <ele>224</ele>
        <time>2017-04-03T10:08:41Z</time>
      </trkpt>
      <trkpt lat="45.98251" lon="4.80578">
        <ele>224</ele>
        <time>2017-04-03T10:08:42Z</time>
      </trkpt>
      <trkpt lat="45.98253" lon="4.80568">
        <ele>224</ele>
        <time>2017-04-03T10:08:43Z</time>
      </trkpt>
      <trkpt lat="45.98256" lon="4.80559">
        <ele>224</ele>
        <time>2017-04-03T10:08:44Z</time>
      </trkpt>
      <trkpt lat="45.98258" lon="4.8055">
        <ele>224</ele>
        <time>2017-04-03T10:08:45Z</time>
      </trkpt>
      <trkpt lat="45.9826" lon="4.80541">
        <ele>224</ele>
        <time>2017-04-03T10:08:46Z</time>
      </trkpt>
      <trkpt lat="45.98263" lon="4.80533">
        <ele>224</ele>
        <time>2017-04-03T10:08:47Z</time>
      </trkpt>
      <trkpt lat="45.98267" lon="4.80525">
        <ele>224</ele>
        <time>2017-04-03T10:08:48Z</time>
      </trkpt>
      <trkpt lat="45.98269" lon="4.80518">
        <ele>223</ele>
        <time>2017-04-03T10:08:49Z</time>
      </trkpt>
      <trkpt lat="45.98272" lon="4.8051">
        <ele>223</ele>
        <time>2017-04-03T10:08:50Z</time>
      </trkpt>
      <trkpt lat="45.98274" lon="4.80502">
        <ele>223</ele>
        <time>2017-04-03T10:08:51Z</time>
      </trkpt>
      <trkpt lat="45.98276" lon="4.80494">
        <ele>223</ele>
        <time>2017-04-03T10:08:52Z</time>
      </trkpt>
      <trkpt lat="45.98277" lon="4.80487">
        <ele>223</ele>
        <time>2017-04-03T10:08:53Z</time>
      </trkpt>
      <trkpt lat="45.98279" lon="4.8048">
        <ele>223</ele>
        <time>2017-04-03T10:08:54Z</time>
      </trkpt>
      <trkpt lat="45.98282" lon="4.80473">
        <ele>223</ele>
        <time>2017-04-03T10:08:55Z</time>
      </trkpt>
      <trkpt lat="45.98284" lon="4.80464">
        <ele>223</ele>
        <time>2017-04-03T10:08:56Z</time>
      </trkpt>
      <trkpt lat="45.98284" lon="4.80457">
        <ele>223</ele>
        <time>2017-04-03T10:08:57Z</time>
      </trkpt>
      <trkpt lat="45.98284" lon="4.80449">
        <ele>223</ele>
        <time>2017-04-03T10:08:58Z</time>
      </trkpt>
      <trkpt lat="45.98285" lon="4.80442">
        <ele>223</ele>
        <time>2017-04-03T10:08:59Z</time>
      </trkpt>
      <trkpt lat="45.98286" lon="4.80435">
        <ele>224</ele>
        <time>2017-04-03T10:09:00Z</time>
      </trkpt>
      <trkpt lat="45.98288" lon="4.80426">
        <ele>224</ele>
        <time>2017-04-03T10:09:01Z</time>
      </trkpt>
      <trkpt lat="45.98291" lon="4.80416">
        <ele>224</ele>
        <time>2017-04-03T10:09:02Z</time>
      </trkpt>
      <trkpt lat="45.98293" lon="4.80408">
        <ele>224</ele>
        <time>2017-04-03T10:09:03Z</time>
      </trkpt>
      <trkpt lat="45.98294" lon="4.804">
        <ele>224</ele>
        <time>2017-04-03T10:09:04Z</time>
      </trkpt>
      <trkpt lat="45.98295" lon="4.80392">
        <ele>224</ele>
        <time>2017-04-03T10:09:05Z</time>
      </trkpt>
      <trkpt lat="45.98297" lon="4.80385">
        <ele>225</ele>
        <time>2017-04-03T10:09:06Z</time>
      </trkpt>
      <trkpt lat="45.98299" lon="4.80377">
        <ele>225</ele>
        <time>2017-04-03T10:09:07Z</time>
      </trkpt>
      <trkpt lat="45.98301" lon="4.80371">
        <ele>225</ele>
        <time>2017-04-03T10:09:08Z</time>
      </trkpt>
      <trkpt lat="45.98303" lon="4.80364">
        <ele>225</ele>
        <time>2017-04-03T10:09:09Z</time>
      </trkpt>
      <trkpt lat="45.98304" lon="4.80355">
        <ele>225</ele>
        <time>2017-04-03T10:09:10Z</time>
      </trkpt>
      <trkpt lat="45.98305" lon="4.80348">
        <ele>226</ele>
        <time>2017-04-03T10:09:11Z</time>
      </trkpt>
      <trkpt lat="45.98307" lon="4.80342">
        <ele>226</ele>
        <time>2017-04-03T10:09:12Z</time>
      </trkpt>
      <trkpt lat="45.98308" lon="4.80335">
        <ele>226</ele>
        <time>2017-04-03T10:09:13Z</time>
      </trkpt>
      <trkpt lat="45.98309" lon="4.80329">
        <ele>226</ele>
        <time>2017-04-03T10:09:14Z</time>
      </trkpt>
      <trkpt lat="45.9831" lon="4.80323">
        <ele>226</ele>
        <time>2017-04-03T10:09:15Z</time>
      </trkpt>
      <trkpt lat="45.98311" lon="4.80316">
        <ele>226</ele>
        <time>2017-04-03T10:09:16Z</time>
      </trkpt>
      <trkpt lat="45.98311" lon="4.8031">
        <ele>226</ele>
        <time>2017-04-03T10:09:17Z</time>
      </trkpt>
      <trkpt lat="45.98313" lon="4.80297">
        <ele>226</ele>
        <time>2017-04-03T10:09:19Z</time>
      </trkpt>
      <trkpt lat="45.98316" lon="4.8029">
        <ele>226</ele>
        <time>2017-04-03T10:09:20Z</time>
      </trkpt>
      <trkpt lat="45.98318" lon="4.80284">
        <ele>226</ele>
        <time>2017-04-03T10:09:21Z</time>
      </trkpt>
      <trkpt lat="45.9832" lon="4.80278">
        <ele>227</ele>
        <time>2017-04-03T10:09:22Z</time>
      </trkpt>
      <trkpt lat="45.98322" lon="4.80271">
        <ele>227</ele>
        <time>2017-04-03T10:09:23Z</time>
      </trkpt>
      <trkpt lat="45.98323" lon="4.80265">
        <ele>228</ele>
        <time>2017-04-03T10:09:24Z</time>
      </trkpt>
      <trkpt lat="45.98325" lon="4.80253">
        <ele>228</ele>
        <time>2017-04-03T10:09:26Z</time>
      </trkpt>
      <trkpt lat="45.98325" lon="4.80247">
        <ele>229</ele>
        <time>2017-04-03T10:09:27Z</time>
      </trkpt>
      <trkpt lat="45.98326" lon="4.8024">
        <ele>228</ele>
        <time>2017-04-03T10:09:28Z</time>
      </trkpt>
      <trkpt lat="45.98327" lon="4.80233">
        <ele>228</ele>
        <time>2017-04-03T10:09:29Z</time>
      </trkpt>
      <trkpt lat="45.98329" lon="4.80226">
        <ele>228</ele>
        <time>2017-04-03T10:09:30Z</time>
      </trkpt>
      <trkpt lat="45.98329" lon="4.80219">
        <ele>227</ele>
        <time>2017-04-03T10:09:31Z</time>
      </trkpt>
      <trkpt lat="45.98328" lon="4.80212">
        <ele>227</ele>
        <time>2017-04-03T10:09:32Z</time>
      </trkpt>
      <trkpt lat="45.98326" lon="4.80205">
        <ele>227</ele>
        <time>2017-04-03T10:09:33Z</time>
      </trkpt>
      <trkpt lat="45.98324" lon="4.80199">
        <ele>227</ele>
        <time>2017-04-03T10:09:34Z</time>
      </trkpt>
      <trkpt lat="45.98322" lon="4.80193">
        <ele>227</ele>
        <time>2017-04-03T10:09:35Z</time>
      </trkpt>
      <trkpt lat="45.9832" lon="4.80187">
        <ele>227</ele>
        <time>2017-04-03T10:09:36Z</time>
      </trkpt>
      <trkpt lat="45.98317" lon="4.80181">
        <ele>227</ele>
        <time>2017-04-03T10:09:37Z</time>
      </trkpt>
      <trkpt lat="45.98315" lon="4.80175">
        <ele>227</ele>
        <time>2017-04-03T10:09:38Z</time>
      </trkpt>
      <trkpt lat="45.98313" lon="4.80169">
        <ele>227</ele>
        <time>2017-04-03T10:09:39Z</time>
      </trkpt>
      <trkpt lat="45.9831" lon="4.80163">
        <ele>228</ele>
        <time>2017-04-03T10:09:40Z</time>
      </trkpt>
      <trkpt lat="45.98308" lon="4.80156">
        <ele>228</ele>
        <time>2017-04-03T10:09:41Z</time>
      </trkpt>
      <trkpt lat="45.98306" lon="4.8015">
        <ele>228</ele>
        <time>2017-04-03T10:09:42Z</time>
      </trkpt>
      <trkpt lat="45.98303" lon="4.80144">
        <ele>228</ele>
        <time>2017-04-03T10:09:43Z</time>
      </trkpt>
      <trkpt lat="45.98301" lon="4.80137">
        <ele>228</ele>
        <time>2017-04-03T10:09:44Z</time>
      </trkpt>
      <trkpt lat="45.98299" lon="4.80131">
        <ele>228</ele>
        <time>2017-04-03T10:09:45Z</time>
      </trkpt>
      <trkpt lat="45.98296" lon="4.80124">
        <ele>228</ele>
        <time>2017-04-03T10:09:46Z</time>
      </trkpt>
      <trkpt lat="45.98293" lon="4.80117">
        <ele>228</ele>
        <time>2017-04-03T10:09:47Z</time>
      </trkpt>
      <trkpt lat="45.98291" lon="4.80111">
        <ele>228</ele>
        <time>2017-04-03T10:09:48Z</time>
      </trkpt>
      <trkpt lat="45.98288" lon="4.80105">
        <ele>228</ele>
        <time>2017-04-03T10:09:49Z</time>
      </trkpt>
      <trkpt lat="45.98286" lon="4.80098">
        <ele>228</ele>
        <time>2017-04-03T10:09:50Z</time>
      </trkpt>
      <trkpt lat="45.98284" lon="4.80091">
        <ele>228</ele>
        <time>2017-04-03T10:09:51Z</time>
      </trkpt>
      <trkpt lat="45.98282" lon="4.80085">
        <ele>228</ele>
        <time>2017-04-03T10:09:52Z</time>
      </trkpt>
      <trkpt lat="45.9828" lon="4.80078">
        <ele>229</ele>
        <time>2017-04-03T10:09:53Z</time>
      </trkpt>
      <trkpt lat="45.98278" lon="4.80072">
        <ele>229</ele>
        <time>2017-04-03T10:09:54Z</time>
      </trkpt>
      <trkpt lat="45.98276" lon="4.80066">
        <ele>229</ele>
        <time>2017-04-03T10:09:55Z</time>
      </trkpt>
      <trkpt lat="45.98274" lon="4.80059">
        <ele>229</ele>
        <time>2017-04-03T10:09:56Z</time>
      </trkpt>
      <trkpt lat="45.98272" lon="4.80053">
        <ele>229</ele>
        <time>2017-04-03T10:09:57Z</time>
      </trkpt>
      <trkpt lat="45.98269" lon="4.80046">
        <ele>229</ele>
        <time>2017-04-03T10:09:58Z</time>
      </trkpt>
      <trkpt lat="45.98267" lon="4.80039">
        <ele>229</ele>
        <time>2017-04-03T10:09:59Z</time>
      </trkpt>
      <trkpt lat="45.98265" lon="4.80032">
        <ele>228</ele>
        <time>2017-04-03T10:10:00Z</time>
      </trkpt>
      <trkpt lat="45.98262" lon="4.80025">
        <ele>228</ele>
        <time>2017-04-03T10:10:01Z</time>
      </trkpt>
      <trkpt lat="45.9826" lon="4.80019">
        <ele>228</ele>
        <time>2017-04-03T10:10:02Z</time>
      </trkpt>
      <trkpt lat="45.98257" lon="4.80012">
        <ele>227</ele>
        <time>2017-04-03T10:10:03Z</time>
      </trkpt>
      <trkpt lat="45.98255" lon="4.80006">
        <ele>227</ele>
        <time>2017-04-03T10:10:04Z</time>
      </trkpt>
      <trkpt lat="45.98252" lon="4.79999">
        <ele>226</ele>
        <time>2017-04-03T10:10:05Z</time>
      </trkpt>
      <trkpt lat="45.9825" lon="4.79993">
        <ele>226</ele>
        <time>2017-04-03T10:10:06Z</time>
      </trkpt>
      <trkpt lat="45.98247" lon="4.79986">
        <ele>226</ele>
        <time>2017-04-03T10:10:07Z</time>
      </trkpt>
      <trkpt lat="45.98245" lon="4.79979">
        <ele>225</ele>
        <time>2017-04-03T10:10:08Z</time>
      </trkpt>
      <trkpt lat="45.98242" lon="4.79972">
        <ele>225</ele>
        <time>2017-04-03T10:10:09Z</time>
      </trkpt>
      <trkpt lat="45.9824" lon="4.79966">
        <ele>225</ele>
        <time>2017-04-03T10:10:10Z</time>
      </trkpt>
      <trkpt lat="45.98237" lon="4.7996">
        <ele>225</ele>
        <time>2017-04-03T10:10:11Z</time>
      </trkpt>
      <trkpt lat="45.98235" lon="4.79955">
        <ele>225</ele>
        <time>2017-04-03T10:10:12Z</time>
      </trkpt>
      <trkpt lat="45.98232" lon="4.79949">
        <ele>225</ele>
        <time>2017-04-03T10:10:13Z</time>
      </trkpt>
      <trkpt lat="45.9823" lon="4.79943">
        <ele>225</ele>
        <time>2017-04-03T10:10:14Z</time>
      </trkpt>
      <trkpt lat="45.98228" lon="4.79937">
        <ele>225</ele>
        <time>2017-04-03T10:10:15Z</time>
      </trkpt>
      <trkpt lat="45.98226" lon="4.79931">
        <ele>225</ele>
        <time>2017-04-03T10:10:16Z</time>
      </trkpt>
      <trkpt lat="45.98225" lon="4.79925">
        <ele>225</ele>
        <time>2017-04-03T10:10:17Z</time>
      </trkpt>
      <trkpt lat="45.98224" lon="4.79918">
        <ele>225</ele>
        <time>2017-04-03T10:10:18Z</time>
      </trkpt>
      <trkpt lat="45.98222" lon="4.79912">
        <ele>225</ele>
        <time>2017-04-03T10:10:19Z</time>
      </trkpt>
      <trkpt lat="45.9822" lon="4.799">
        <ele>225</ele>
        <time>2017-04-03T10:10:21Z</time>
      </trkpt>
      <trkpt lat="45.98218" lon="4.79894">
        <ele>225</ele>
        <time>2017-04-03T10:10:22Z</time>
      </trkpt>
      <trkpt lat="45.98217" lon="4.79888">
        <ele>225</ele>
        <time>2017-04-03T10:10:23Z</time>
      </trkpt>
      <trkpt lat="45.98215" lon="4.79881">
        <ele>225</ele>
        <time>2017-04-03T10:10:24Z</time>
      </trkpt>
      <trkpt lat="45.98214" lon="4.79875">
        <ele>225</ele>
        <time>2017-04-03T10:10:25Z</time>
      </trkpt>
      <trkpt lat="45.98212" lon="4.79869">
        <ele>225</ele>
        <time>2017-04-03T10:10:26Z</time>
      </trkpt>
      <trkpt lat="45.98208" lon="4.79862">
        <ele>225</ele>
        <time>2017-04-03T10:10:27Z</time>
      </trkpt>
      <trkpt lat="45.98205" lon="4.79855">
        <ele>225</ele>
        <time>2017-04-03T10:10:28Z</time>
      </trkpt>
      <trkpt lat="45.98202" lon="4.79848">
        <ele>225</ele>
        <time>2017-04-03T10:10:29Z</time>
      </trkpt>
      <trkpt lat="45.98198" lon="4.7984">
        <ele>225</ele>
        <time>2017-04-03T10:10:30Z</time>
      </trkpt>
      <trkpt lat="45.98194" lon="4.79832">
        <ele>225</ele>
        <time>2017-04-03T10:10:31Z</time>
      </trkpt>
      <trkpt lat="45.98192" lon="4.79825">
        <ele>225</ele>
        <time>2017-04-03T10:10:32Z</time>
      </trkpt>
      <trkpt lat="45.98189" lon="4.79819">
        <ele>225</ele>
        <time>2017-04-03T10:10:33Z</time>
      </trkpt>
      <trkpt lat="45.98187" lon="4.79812">
        <ele>225</ele>
        <time>2017-04-03T10:10:34Z</time>
      </trkpt>
      <trkpt lat="45.98186" lon="4.79805">
        <ele>226</ele>
        <time>2017-04-03T10:10:35Z</time>
      </trkpt>
      <trkpt lat="45.98184" lon="4.79798">
        <ele>226</ele>
        <time>2017-04-03T10:10:36Z</time>
      </trkpt>
      <trkpt lat="45.98183" lon="4.79791">
        <ele>226</ele>
        <time>2017-04-03T10:10:37Z</time>
      </trkpt>
      <trkpt lat="45.98183" lon="4.79784">
        <ele>226</ele>
        <time>2017-04-03T10:10:38Z</time>
      </trkpt>
      <trkpt lat="45.98183" lon="4.79776">
        <ele>226</ele>
        <time>2017-04-03T10:10:39Z</time>
      </trkpt>
      <trkpt lat="45.98183" lon="4.79769">
        <ele>226</ele>
        <time>2017-04-03T10:10:40Z</time>
      </trkpt>
      <trkpt lat="45.98184" lon="4.79763">
        <ele>226</ele>
        <time>2017-04-03T10:10:41Z</time>
      </trkpt>
      <trkpt lat="45.98185" lon="4.79756">
        <ele>226</ele>
        <time>2017-04-03T10:10:42Z</time>
      </trkpt>
      <trkpt lat="45.98184" lon="4.79744">
        <ele>227</ele>
        <time>2017-04-03T10:10:44Z</time>
      </trkpt>
      <trkpt lat="45.98182" lon="4.79739">
        <ele>227</ele>
        <time>2017-04-03T10:10:45Z</time>
      </trkpt>
      <trkpt lat="45.98174" lon="4.79734">
        <ele>227</ele>
        <time>2017-04-03T10:10:47Z</time>
      </trkpt>
      <trkpt lat="45.98169" lon="4.79734">
        <ele>227</ele>
        <time>2017-04-03T10:10:48Z</time>
      </trkpt>
      <trkpt lat="45.98165" lon="4.79737">
        <ele>226</ele>
        <time>2017-04-03T10:10:49Z</time>
      </trkpt>
      <trkpt lat="45.9816" lon="4.79742">
        <ele>226</ele>
        <time>2017-04-03T10:10:50Z</time>
      </trkpt>
      <trkpt lat="45.98155" lon="4.79746">
        <ele>226</ele>
        <time>2017-04-03T10:10:51Z</time>
      </trkpt>
      <trkpt lat="45.98149" lon="4.79749">
        <ele>226</ele>
        <time>2017-04-03T10:10:52Z</time>
      </trkpt>
      <trkpt lat="45.98143" lon="4.79751">
        <ele>225</ele>
        <time>2017-04-03T10:10:53Z</time>
      </trkpt>
      <trkpt lat="45.98136" lon="4.79752">
        <ele>224</ele>
        <time>2017-04-03T10:10:54Z</time>
      </trkpt>
      <trkpt lat="45.98129" lon="4.79753">
        <ele>224</ele>
        <time>2017-04-03T10:10:55Z</time>
      </trkpt>
      <trkpt lat="45.98122" lon="4.79754">
        <ele>224</ele>
        <time>2017-04-03T10:10:56Z</time>
      </trkpt>
      <trkpt lat="45.98115" lon="4.79755">
        <ele>224</ele>
        <time>2017-04-03T10:10:57Z</time>
      </trkpt>
      <trkpt lat="45.98108" lon="4.79756">
        <ele>224</ele>
        <time>2017-04-03T10:10:58Z</time>
      </trkpt>
      <trkpt lat="45.98101" lon="4.79758">
        <ele>223</ele>
        <time>2017-04-03T10:10:59Z</time>
      </trkpt>
      <trkpt lat="45.98093" lon="4.79759">
        <ele>223</ele>
        <time>2017-04-03T10:11:00Z</time>
      </trkpt>
      <trkpt lat="45.98086" lon="4.79762">
        <ele>223</ele>
        <time>2017-04-03T10:11:01Z</time>
      </trkpt>
      <trkpt lat="45.98079" lon="4.79763">
        <ele>223</ele>
        <time>2017-04-03T10:11:02Z</time>
      </trkpt>
      <trkpt lat="45.98072" lon="4.79765">
        <ele>223</ele>
        <time>2017-04-03T10:11:03Z</time>
      </trkpt>
      <trkpt lat="45.98064" lon="4.79766">
        <ele>223</ele>
        <time>2017-04-03T10:11:04Z</time>
      </trkpt>
      <trkpt lat="45.98057" lon="4.79767">
        <ele>223</ele>
        <time>2017-04-03T10:11:05Z</time>
      </trkpt>
      <trkpt lat="45.98049" lon="4.79768">
        <ele>223</ele>
        <time>2017-04-03T10:11:06Z</time>
      </trkpt>
      <trkpt lat="45.98041" lon="4.79769">
        <ele>223</ele>
        <time>2017-04-03T10:11:07Z</time>
      </trkpt>
      <trkpt lat="45.98034" lon="4.7977">
        <ele>223</ele>
        <time>2017-04-03T10:11:08Z</time>
      </trkpt>
      <trkpt lat="45.98026" lon="4.79771">
        <ele>223</ele>
        <time>2017-04-03T10:11:09Z</time>
      </trkpt>
      <trkpt lat="45.98019" lon="4.79772">
        <ele>223</ele>
        <time>2017-04-03T10:11:10Z</time>
      </trkpt>
      <trkpt lat="45.98011" lon="4.79773">
        <ele>223</ele>
        <time>2017-04-03T10:11:11Z</time>
      </trkpt>
      <trkpt lat="45.98004" lon="4.79774">
        <ele>223</ele>
        <time>2017-04-03T10:11:12Z</time>
      </trkpt>
      <trkpt lat="45.97996" lon="4.79776">
        <ele>224</ele>
        <time>2017-04-03T10:11:13Z</time>
      </trkpt>
      <trkpt lat="45.97989" lon="4.79777">
        <ele>224</ele>
        <time>2017-04-03T10:11:14Z</time>
      </trkpt>
      <trkpt lat="45.97982" lon="4.79778">
        <ele>224</ele>
        <time>2017-04-03T10:11:15Z</time>
      </trkpt>
      <trkpt lat="45.97974" lon="4.7978">
        <ele>224</ele>
        <time>2017-04-03T10:11:16Z</time>
      </trkpt>
      <trkpt lat="45.97967" lon="4.79781">
        <ele>224</ele>
        <time>2017-04-03T10:11:17Z</time>
      </trkpt>
      <trkpt lat="45.9796" lon="4.79782">
        <ele>224</ele>
        <time>2017-04-03T10:11:18Z</time>
      </trkpt>
      <trkpt lat="45.97952" lon="4.79783">
        <ele>224</ele>
        <time>2017-04-03T10:11:19Z</time>
      </trkpt>
      <trkpt lat="45.97945" lon="4.79784">
        <ele>224</ele>
        <time>2017-04-03T10:11:20Z</time>
      </trkpt>
      <trkpt lat="45.97937" lon="4.79785">
        <ele>224</ele>
        <time>2017-04-03T10:11:21Z</time>
      </trkpt>
      <trkpt lat="45.97929" lon="4.79787">
        <ele>224</ele>
        <time>2017-04-03T10:11:22Z</time>
      </trkpt>
      <trkpt lat="45.97921" lon="4.79789">
        <ele>224</ele>
        <time>2017-04-03T10:11:23Z</time>
      </trkpt>
      <trkpt lat="45.97913" lon="4.7979">
        <ele>225</ele>
        <time>2017-04-03T10:11:24Z</time>
      </trkpt>
      <trkpt lat="45.97905" lon="4.79791">
        <ele>225</ele>
        <time>2017-04-03T10:11:25Z</time>
      </trkpt>
      <trkpt lat="45.97897" lon="4.79792">
        <ele>224</ele>
        <time>2017-04-03T10:11:26Z</time>
      </trkpt>
      <trkpt lat="45.9789" lon="4.79793">
        <ele>224</ele>
        <time>2017-04-03T10:11:27Z</time>
      </trkpt>
      <trkpt lat="45.97883" lon="4.79795">
        <ele>224</ele>
        <time>2017-04-03T10:11:28Z</time>
      </trkpt>
      <trkpt lat="45.97875" lon="4.79797">
        <ele>224</ele>
        <time>2017-04-03T10:11:29Z</time>
      </trkpt>
      <trkpt lat="45.97869" lon="4.79797">
        <ele>224</ele>
        <time>2017-04-03T10:11:30Z</time>
      </trkpt>
      <trkpt lat="45.97862" lon="4.79798">
        <ele>224</ele>
        <time>2017-04-03T10:11:31Z</time>
      </trkpt>
      <trkpt lat="45.97855" lon="4.79799">
        <ele>224</ele>
        <time>2017-04-03T10:11:32Z</time>
      </trkpt>
      <trkpt lat="45.97849" lon="4.798">
        <ele>224</ele>
        <time>2017-04-03T10:11:33Z</time>
      </trkpt>
      <trkpt lat="45.97843" lon="4.79801">
        <ele>224</ele>
        <time>2017-04-03T10:11:34Z</time>
      </trkpt>
      <trkpt lat="45.97837" lon="4.79802">
        <ele>224</ele>
        <time>2017-04-03T10:11:35Z</time>
      </trkpt>
      <trkpt lat="45.9783" lon="4.79803">
        <ele>223</ele>
        <time>2017-04-03T10:11:36Z</time>
      </trkpt>
      <trkpt lat="45.97824" lon="4.79804">
        <ele>223</ele>
        <time>2017-04-03T10:11:37Z</time>
      </trkpt>
      <trkpt lat="45.97817" lon="4.79806">
        <ele>223</ele>
        <time>2017-04-03T10:11:38Z</time>
      </trkpt>
      <trkpt lat="45.97811" lon="4.79808">
        <ele>223</ele>
        <time>2017-04-03T10:11:39Z</time>
      </trkpt>
      <trkpt lat="45.97804" lon="4.79809">
        <ele>223</ele>
        <time>2017-04-03T10:11:40Z</time>
      </trkpt>
      <trkpt lat="45.97796" lon="4.7981">
        <ele>223</ele>
        <time>2017-04-03T10:11:41Z</time>
      </trkpt>
      <trkpt lat="45.9779" lon="4.79812">
        <ele>223</ele>
        <time>2017-04-03T10:11:42Z</time>
      </trkpt>
      <trkpt lat="45.97782" lon="4.79814">
        <ele>223</ele>
        <time>2017-04-03T10:11:43Z</time>
      </trkpt>
      <trkpt lat="45.97775" lon="4.79815">
        <ele>223</ele>
        <time>2017-04-03T10:11:44Z</time>
      </trkpt>
      <trkpt lat="45.97768" lon="4.79816">
        <ele>223</ele>
        <time>2017-04-03T10:11:45Z</time>
      </trkpt>
      <trkpt lat="45.97762" lon="4.79817">
        <ele>223</ele>
        <time>2017-04-03T10:11:46Z</time>
      </trkpt>
      <trkpt lat="45.97755" lon="4.79819">
        <ele>223</ele>
        <time>2017-04-03T10:11:47Z</time>
      </trkpt>
      <trkpt lat="45.97749" lon="4.7982">
        <ele>223</ele>
        <time>2017-04-03T10:11:48Z</time>
      </trkpt>
      <trkpt lat="45.97743" lon="4.79821">
        <ele>223</ele>
        <time>2017-04-03T10:11:49Z</time>
      </trkpt>
      <trkpt lat="45.97736" lon="4.79823">
        <ele>223</ele>
        <time>2017-04-03T10:11:50Z</time>
      </trkpt>
      <trkpt lat="45.97729" lon="4.79824">
        <ele>223</ele>
        <time>2017-04-03T10:11:51Z</time>
      </trkpt>
      <trkpt lat="45.97722" lon="4.79824">
        <ele>223</ele>
        <time>2017-04-03T10:11:52Z</time>
      </trkpt>
      <trkpt lat="45.97715" lon="4.79825">
        <ele>223</ele>
        <time>2017-04-03T10:11:53Z</time>
      </trkpt>
      <trkpt lat="45.97708" lon="4.79826">
        <ele>223</ele>
        <time>2017-04-03T10:11:54Z</time>
      </trkpt>
      <trkpt lat="45.97701" lon="4.79827">
        <ele>223</ele>
        <time>2017-04-03T10:11:55Z</time>
      </trkpt>
      <trkpt lat="45.97693" lon="4.79829">
        <ele>223</ele>
        <time>2017-04-03T10:11:56Z</time>
      </trkpt>
      <trkpt lat="45.97686" lon="4.7983">
        <ele>223</ele>
        <time>2017-04-03T10:11:57Z</time>
      </trkpt>
      <trkpt lat="45.97679" lon="4.79832">
        <ele>223</ele>
        <time>2017-04-03T10:11:58Z</time>
      </trkpt>
      <trkpt lat="45.97671" lon="4.79834">
        <ele>222</ele>
        <time>2017-04-03T10:11:59Z</time>
      </trkpt>
      <trkpt lat="45.97664" lon="4.79836">
        <ele>222</ele>
        <time>2017-04-03T10:12:00Z</time>
      </trkpt>
      <trkpt lat="45.97657" lon="4.79839">
        <ele>221</ele>
        <time>2017-04-03T10:12:01Z</time>
      </trkpt>
      <trkpt lat="45.9765" lon="4.79841">
        <ele>221</ele>
        <time>2017-04-03T10:12:02Z</time>
      </trkpt>
      <trkpt lat="45.97643" lon="4.79843">
        <ele>221</ele>
        <time>2017-04-03T10:12:03Z</time>
      </trkpt>
      <trkpt lat="45.97636" lon="4.79844">
        <ele>221</ele>
        <time>2017-04-03T10:12:04Z</time>
      </trkpt>
      <trkpt lat="45.9763" lon="4.79846">
        <ele>221</ele>
        <time>2017-04-03T10:12:05Z</time>
      </trkpt>
      <trkpt lat="45.97623" lon="4.79847">
        <ele>221</ele>
        <time>2017-04-03T10:12:06Z</time>
      </trkpt>
      <trkpt lat="45.97617" lon="4.7985">
        <ele>221</ele>
        <time>2017-04-03T10:12:07Z</time>
      </trkpt>
      <trkpt lat="45.9761" lon="4.79853">
        <ele>221</ele>
        <time>2017-04-03T10:12:08Z</time>
      </trkpt>
      <trkpt lat="45.97604" lon="4.79856">
        <ele>221</ele>
        <time>2017-04-03T10:12:09Z</time>
      </trkpt>
      <trkpt lat="45.97597" lon="4.79859">
        <ele>221</ele>
        <time>2017-04-03T10:12:10Z</time>
      </trkpt>
      <trkpt lat="45.97591" lon="4.79861">
        <ele>221</ele>
        <time>2017-04-03T10:12:11Z</time>
      </trkpt>
      <trkpt lat="45.97584" lon="4.79863">
        <ele>221</ele>
        <time>2017-04-03T10:12:12Z</time>
      </trkpt>
      <trkpt lat="45.97577" lon="4.79866">
        <ele>222</ele>
        <time>2017-04-03T10:12:13Z</time>
      </trkpt>
      <trkpt lat="45.97571" lon="4.79868">
        <ele>222</ele>
        <time>2017-04-03T10:12:14Z</time>
      </trkpt>
      <trkpt lat="45.97564" lon="4.79871">
        <ele>222</ele>
        <time>2017-04-03T10:12:15Z</time>
      </trkpt>
      <trkpt lat="45.97557" lon="4.79873">
        <ele>222</ele>
        <time>2017-04-03T10:12:16Z</time>
      </trkpt>
      <trkpt lat="45.9755" lon="4.79875">
        <ele>222</ele>
        <time>2017-04-03T10:12:17Z</time>
      </trkpt>
      <trkpt lat="45.97542" lon="4.79876">
        <ele>222</ele>
        <time>2017-04-03T10:12:18Z</time>
      </trkpt>
      <trkpt lat="45.97535" lon="4.79878">
        <ele>222</ele>
        <time>2017-04-03T10:12:19Z</time>
      </trkpt>
      <trkpt lat="45.97527" lon="4.79879">
        <ele>222</ele>
        <time>2017-04-03T10:12:20Z</time>
      </trkpt>
      <trkpt lat="45.97518" lon="4.7988">
        <ele>222</ele>
        <time>2017-04-03T10:12:21Z</time>
      </trkpt>
      <trkpt lat="45.97509" lon="4.79882">
        <ele>222</ele>
        <time>2017-04-03T10:12:22Z</time>
      </trkpt>
      <trkpt lat="45.975" lon="4.79883">
        <ele>221</ele>
        <time>2017-04-03T10:12:23Z</time>
      </trkpt>
      <trkpt lat="45.9749" lon="4.79884">
        <ele>221</ele>
        <time>2017-04-03T10:12:24Z</time>
      </trkpt>
      <trkpt lat="45.9748" lon="4.79884">
        <ele>221</ele>
        <time>2017-04-03T10:12:25Z</time>
      </trkpt>
      <trkpt lat="45.9747" lon="4.79884">
        <ele>221</ele>
        <time>2017-04-03T10:12:26Z</time>
      </trkpt>
      <trkpt lat="45.9746" lon="4.79884">
        <ele>221</ele>
        <time>2017-04-03T10:12:27Z</time>
      </trkpt>
      <trkpt lat="45.9745" lon="4.79884">
        <ele>221</ele>
        <time>2017-04-03T10:12:28Z</time>
      </trkpt>
      <trkpt lat="45.9744" lon="4.79884">
        <ele>220</ele>
        <time>2017-04-03T10:12:29Z</time>
      </trkpt>
      <trkpt lat="45.9743" lon="4.79885">
        <ele>220</ele>
        <time>2017-04-03T10:12:30Z</time>
      </trkpt>
      <trkpt lat="45.97421" lon="4.79886">
        <ele>220</ele>
        <time>2017-04-03T10:12:31Z</time>
      </trkpt>
      <trkpt lat="45.97411" lon="4.79888">
        <ele>218</ele>
        <time>2017-04-03T10:12:32Z</time>
      </trkpt>
      <trkpt lat="45.97402" lon="4.79889">
        <ele>218</ele>
        <time>2017-04-03T10:12:33Z</time>
      </trkpt>
      <trkpt lat="45.97392" lon="4.79891">
        <ele>217</ele>
        <time>2017-04-03T10:12:34Z</time>
      </trkpt>
      <trkpt lat="45.97382" lon="4.79893">
        <ele>217</ele>
        <time>2017-04-03T10:12:35Z</time>
      </trkpt>
      <trkpt lat="45.97372" lon="4.79896">
        <ele>217</ele>
        <time>2017-04-03T10:12:36Z</time>
      </trkpt>
      <trkpt lat="45.97362" lon="4.79899">
        <ele>216</ele>
        <time>2017-04-03T10:12:37Z</time>
      </trkpt>
      <trkpt lat="45.97352" lon="4.79901">
        <ele>216</ele>
        <time>2017-04-03T10:12:38Z</time>
      </trkpt>
      <trkpt lat="45.97342" lon="4.79903">
        <ele>215</ele>
        <time>2017-04-03T10:12:39Z</time>
      </trkpt>
      <trkpt lat="45.97333" lon="4.79905">
        <ele>213</ele>
        <time>2017-04-03T10:12:40Z</time>
      </trkpt>
      <trkpt lat="45.97323" lon="4.79906">
        <ele>213</ele>
        <time>2017-04-03T10:12:41Z</time>
      </trkpt>
      <trkpt lat="45.97313" lon="4.79908">
        <ele>213</ele>
        <time>2017-04-03T10:12:42Z</time>
      </trkpt>
      <trkpt lat="45.97305" lon="4.7991">
        <ele>213</ele>
        <time>2017-04-03T10:12:43Z</time>
      </trkpt>
      <trkpt lat="45.97297" lon="4.79911">
        <ele>213</ele>
        <time>2017-04-03T10:12:44Z</time>
      </trkpt>
      <trkpt lat="45.97289" lon="4.79913">
        <ele>213</ele>
        <time>2017-04-03T10:12:45Z</time>
      </trkpt>
      <trkpt lat="45.97282" lon="4.79914">
        <ele>213</ele>
        <time>2017-04-03T10:12:46Z</time>
      </trkpt>
      <trkpt lat="45.97275" lon="4.79916">
        <ele>213</ele>
        <time>2017-04-03T10:12:47Z</time>
      </trkpt>
      <trkpt lat="45.97269" lon="4.79917">
        <ele>213</ele>
        <time>2017-04-03T10:12:48Z</time>
      </trkpt>
      <trkpt lat="45.97266" lon="4.79914">
        <ele>213</ele>
        <time>2017-04-03T10:12:49Z</time>
      </trkpt>
      <trkpt lat="45.97262" lon="4.79908">
        <ele>213</ele>
        <time>2017-04-03T10:12:50Z</time>
      </trkpt>
      <trkpt lat="45.97256" lon="4.79903">
        <ele>213</ele>
        <time>2017-04-03T10:12:51Z</time>
      </trkpt>
      <trkpt lat="45.97252" lon="4.79896">
        <ele>213</ele>
        <time>2017-04-03T10:12:52Z</time>
      </trkpt>
      <trkpt lat="45.97248" lon="4.79888">
        <ele>211</ele>
        <time>2017-04-03T10:12:53Z</time>
      </trkpt>
      <trkpt lat="45.97244" lon="4.79879">
        <ele>211</ele>
        <time>2017-04-03T10:12:54Z</time>
      </trkpt>
      <trkpt lat="45.97241" lon="4.79871">
        <ele>211</ele>
        <time>2017-04-03T10:12:55Z</time>
      </trkpt>
      <trkpt lat="45.97239" lon="4.79861">
        <ele>211</ele>
        <time>2017-04-03T10:12:56Z</time>
      </trkpt>
      <trkpt lat="45.97237" lon="4.79852">
        <ele>211</ele>
        <time>2017-04-03T10:12:57Z</time>
      </trkpt>
      <trkpt lat="45.97237" lon="4.79842">
        <ele>211</ele>
        <time>2017-04-03T10:12:58Z</time>
      </trkpt>
      <trkpt lat="45.97237" lon="4.79833">
        <ele>211</ele>
        <time>2017-04-03T10:12:59Z</time>
      </trkpt>
      <trkpt lat="45.97237" lon="4.79824">
        <ele>211</ele>
        <time>2017-04-03T10:13:00Z</time>
      </trkpt>
      <trkpt lat="45.97238" lon="4.79815">
        <ele>211</ele>
        <time>2017-04-03T10:13:01Z</time>
      </trkpt>
      <trkpt lat="45.97239" lon="4.79806">
        <ele>210</ele>
        <time>2017-04-03T10:13:02Z</time>
      </trkpt>
      <trkpt lat="45.97239" lon="4.79798">
        <ele>210</ele>
        <time>2017-04-03T10:13:03Z</time>
      </trkpt>
      <trkpt lat="45.97239" lon="4.7979">
        <ele>210</ele>
        <time>2017-04-03T10:13:04Z</time>
      </trkpt>
      <trkpt lat="45.97239" lon="4.79781">
        <ele>210</ele>
        <time>2017-04-03T10:13:05Z</time>
      </trkpt>
      <trkpt lat="45.97239" lon="4.79773">
        <ele>210</ele>
        <time>2017-04-03T10:13:06Z</time>
      </trkpt>
      <trkpt lat="45.97239" lon="4.79765">
        <ele>209</ele>
        <time>2017-04-03T10:13:07Z</time>
      </trkpt>
      <trkpt lat="45.97239" lon="4.79758">
        <ele>209</ele>
        <time>2017-04-03T10:13:08Z</time>
      </trkpt>
      <trkpt lat="45.9724" lon="4.7975">
        <ele>209</ele>
        <time>2017-04-03T10:13:09Z</time>
      </trkpt>
      <trkpt lat="45.97241" lon="4.79743">
        <ele>209</ele>
        <time>2017-04-03T10:13:10Z</time>
      </trkpt>
      <trkpt lat="45.97242" lon="4.79736">
        <ele>209</ele>
        <time>2017-04-03T10:13:11Z</time>
      </trkpt>
      <trkpt lat="45.97243" lon="4.79728">
        <ele>209</ele>
        <time>2017-04-03T10:13:12Z</time>
      </trkpt>
      <trkpt lat="45.97244" lon="4.79721">
        <ele>209</ele>
        <time>2017-04-03T10:13:13Z</time>
      </trkpt>
      <trkpt lat="45.97245" lon="4.79715">
        <ele>209</ele>
        <time>2017-04-03T10:13:14Z</time>
      </trkpt>
      <trkpt lat="45.97246" lon="4.79708">
        <ele>208</ele>
        <time>2017-04-03T10:13:15Z</time>
      </trkpt>
      <trkpt lat="45.97246" lon="4.79701">
        <ele>208</ele>
        <time>2017-04-03T10:13:16Z</time>
      </trkpt>
      <trkpt lat="45.97247" lon="4.79693">
        <ele>208</ele>
        <time>2017-04-03T10:13:17Z</time>
      </trkpt>
      <trkpt lat="45.97248" lon="4.79686">
        <ele>208</ele>
        <time>2017-04-03T10:13:18Z</time>
      </trkpt>
      <trkpt lat="45.97248" lon="4.79679">
        <ele>208</ele>
        <time>2017-04-03T10:13:19Z</time>
      </trkpt>
      <trkpt lat="45.97249" lon="4.79673">
        <ele>208</ele>
        <time>2017-04-03T10:13:20Z</time>
      </trkpt>
      <trkpt lat="45.9725" lon="4.79666">
        <ele>208</ele>
        <time>2017-04-03T10:13:21Z</time>
      </trkpt>
      <trkpt lat="45.97251" lon="4.79659">
        <ele>210</ele>
        <time>2017-04-03T10:13:22Z</time>
      </trkpt>
      <trkpt lat="45.97252" lon="4.79652">
        <ele>211</ele>
        <time>2017-04-03T10:13:23Z</time>
      </trkpt>
      <trkpt lat="45.97252" lon="4.79645">
        <ele>212</ele>
        <time>2017-04-03T10:13:24Z</time>
      </trkpt>
      <trkpt lat="45.97252" lon="4.79637">
        <ele>212</ele>
        <time>2017-04-03T10:13:25Z</time>
      </trkpt>
      <trkpt lat="45.97252" lon="4.79629">
        <ele>213</ele>
        <time>2017-04-03T10:13:26Z</time>
      </trkpt>
      <trkpt lat="45.97253" lon="4.7962">
        <ele>213</ele>
        <time>2017-04-03T10:13:27Z</time>
      </trkpt>
      <trkpt lat="45.97253" lon="4.79612">
        <ele>213</ele>
        <time>2017-04-03T10:13:28Z</time>
      </trkpt>
      <trkpt lat="45.97253" lon="4.79604">
        <ele>212</ele>
        <time>2017-04-03T10:13:29Z</time>
      </trkpt>
      <trkpt lat="45.97253" lon="4.79596">
        <ele>212</ele>
        <time>2017-04-03T10:13:30Z</time>
      </trkpt>
      <trkpt lat="45.97252" lon="4.79588">
        <ele>211</ele>
        <time>2017-04-03T10:13:31Z</time>
      </trkpt>
      <trkpt lat="45.97252" lon="4.7958">
        <ele>211</ele>
        <time>2017-04-03T10:13:32Z</time>
      </trkpt>
      <trkpt lat="45.97252" lon="4.79573">
        <ele>212</ele>
        <time>2017-04-03T10:13:33Z</time>
      </trkpt>
      <trkpt lat="45.97251" lon="4.79567">
        <ele>213</ele>
        <time>2017-04-03T10:13:34Z</time>
      </trkpt>
      <trkpt lat="45.97251" lon="4.7956">
        <ele>213</ele>
        <time>2017-04-03T10:13:35Z</time>
      </trkpt>
      <trkpt lat="45.97251" lon="4.79553">
        <ele>214</ele>
        <time>2017-04-03T10:13:36Z</time>
      </trkpt>
      <trkpt lat="45.9725" lon="4.79545">
        <ele>210</ele>
        <time>2017-04-03T10:13:37Z</time>
      </trkpt>
      <trkpt lat="45.97249" lon="4.79538">
        <ele>210</ele>
        <time>2017-04-03T10:13:38Z</time>
      </trkpt>
      <trkpt lat="45.97248" lon="4.79531">
        <ele>210</ele>
        <time>2017-04-03T10:13:39Z</time>
      </trkpt>
      <trkpt lat="45.97247" lon="4.79523">
        <ele>210</ele>
        <time>2017-04-03T10:13:40Z</time>
      </trkpt>
      <trkpt lat="45.97246" lon="4.79516">
        <ele>210</ele>
        <time>2017-04-03T10:13:41Z</time>
      </trkpt>
      <trkpt lat="45.97245" lon="4.79509">
        <ele>210</ele>
        <time>2017-04-03T10:13:42Z</time>
      </trkpt>
      <trkpt lat="45.97243" lon="4.79502">
        <ele>210</ele>
        <time>2017-04-03T10:13:43Z</time>
      </trkpt>
      <trkpt lat="45.9724" lon="4.79495">
        <ele>210</ele>
        <time>2017-04-03T10:13:44Z</time>
      </trkpt>
      <trkpt lat="45.97238" lon="4.79488">
        <ele>210</ele>
        <time>2017-04-03T10:13:45Z</time>
      </trkpt>
      <trkpt lat="45.97236" lon="4.79481">
        <ele>209</ele>
        <time>2017-04-03T10:13:46Z</time>
      </trkpt>
      <trkpt lat="45.97234" lon="4.79474">
        <ele>209</ele>
        <time>2017-04-03T10:13:47Z</time>
      </trkpt>
      <trkpt lat="45.97232" lon="4.79467">
        <ele>209</ele>
        <time>2017-04-03T10:13:48Z</time>
      </trkpt>
      <trkpt lat="45.97229" lon="4.7946">
        <ele>209</ele>
        <time>2017-04-03T10:13:49Z</time>
      </trkpt>
      <trkpt lat="45.97227" lon="4.79453">
        <ele>209</ele>
        <time>2017-04-03T10:13:50Z</time>
      </trkpt>
      <trkpt lat="45.97224" lon="4.79446">
        <ele>209</ele>
        <time>2017-04-03T10:13:51Z</time>
      </trkpt>
      <trkpt lat="45.97222" lon="4.79439">
        <ele>209</ele>
        <time>2017-04-03T10:13:52Z</time>
      </trkpt>
      <trkpt lat="45.97219" lon="4.79431">
        <ele>208</ele>
        <time>2017-04-03T10:13:53Z</time>
      </trkpt>
      <trkpt lat="45.97217" lon="4.79424">
        <ele>208</ele>
        <time>2017-04-03T10:13:54Z</time>
      </trkpt>
      <trkpt lat="45.97214" lon="4.79416">
        <ele>208</ele>
        <time>2017-04-03T10:13:55Z</time>
      </trkpt>
      <trkpt lat="45.97211" lon="4.79409">
        <ele>208</ele>
        <time>2017-04-03T10:13:56Z</time>
      </trkpt>
      <trkpt lat="45.97208" lon="4.79403">
        <ele>208</ele>
        <time>2017-04-03T10:13:57Z</time>
      </trkpt>
      <trkpt lat="45.97205" lon="4.79396">
        <ele>208</ele>
        <time>2017-04-03T10:13:58Z</time>
      </trkpt>
      <trkpt lat="45.97203" lon="4.79389">
        <ele>208</ele>
        <time>2017-04-03T10:13:59Z</time>
      </trkpt>
      <trkpt lat="45.972" lon="4.79382">
        <ele>207</ele>
        <time>2017-04-03T10:14:00Z</time>
      </trkpt>
      <trkpt lat="45.97197" lon="4.79374">
        <ele>207</ele>
        <time>2017-04-03T10:14:01Z</time>
      </trkpt>
      <trkpt lat="45.97194" lon="4.79367">
        <ele>207</ele>
        <time>2017-04-03T10:14:02Z</time>
      </trkpt>
      <trkpt lat="45.97191" lon="4.79359">
        <ele>207</ele>
        <time>2017-04-03T10:14:03Z</time>
      </trkpt>
      <trkpt lat="45.97187" lon="4.79352">
        <ele>207</ele>
        <time>2017-04-03T10:14:04Z</time>
      </trkpt>
      <trkpt lat="45.97183" lon="4.79345">
        <ele>207</ele>
        <time>2017-04-03T10:14:05Z</time>
      </trkpt>
      <trkpt lat="45.9718" lon="4.79339">
        <ele>206</ele>
        <time>2017-04-03T10:14:06Z</time>
      </trkpt>
      <trkpt lat="45.97176" lon="4.79332">
        <ele>206</ele>
        <time>2017-04-03T10:14:07Z</time>
      </trkpt>
      <trkpt lat="45.97172" lon="4.79324">
        <ele>206</ele>
        <time>2017-04-03T10:14:08Z</time>
      </trkpt>
      <trkpt lat="45.97169" lon="4.79316">
        <ele>207</ele>
        <time>2017-04-03T10:14:09Z</time>
      </trkpt>
      <trkpt lat="45.97166" lon="4.79308">
        <ele>204</ele>
        <time>2017-04-03T10:14:10Z</time>
      </trkpt>
      <trkpt lat="45.97163" lon="4.793">
        <ele>204</ele>
        <time>2017-04-03T10:14:11Z</time>
      </trkpt>
      <trkpt lat="45.9716" lon="4.79292">
        <ele>204</ele>
        <time>2017-04-03T10:14:12Z</time>
      </trkpt>
      <trkpt lat="45.97157" lon="4.79284">
        <ele>204</ele>
        <time>2017-04-03T10:14:13Z</time>
      </trkpt>
      <trkpt lat="45.97154" lon="4.79276">
        <ele>204</ele>
        <time>2017-04-03T10:14:14Z</time>
      </trkpt>
      <trkpt lat="45.97151" lon="4.79268">
        <ele>204</ele>
        <time>2017-04-03T10:14:15Z</time>
      </trkpt>
      <trkpt lat="45.97148" lon="4.79261">
        <ele>204</ele>
        <time>2017-04-03T10:14:16Z</time>
      </trkpt>
      <trkpt lat="45.97145" lon="4.79254">
        <ele>204</ele>
        <time>2017-04-03T10:14:17Z</time>
      </trkpt>
      <trkpt lat="45.97142" lon="4.79247">
        <ele>205</ele>
        <time>2017-04-03T10:14:18Z</time>
      </trkpt>
      <trkpt lat="45.97139" lon="4.79239">
        <ele>205</ele>
        <time>2017-04-03T10:14:19Z</time>
      </trkpt>
      <trkpt lat="45.97137" lon="4.79232">
        <ele>205</ele>
        <time>2017-04-03T10:14:20Z</time>
      </trkpt>
      <trkpt lat="45.97134" lon="4.79224">
        <ele>205</ele>
        <time>2017-04-03T10:14:21Z</time>
      </trkpt>
      <trkpt lat="45.97131" lon="4.79217">
        <ele>205</ele>
        <time>2017-04-03T10:14:22Z</time>
      </trkpt>
      <trkpt lat="45.97128" lon="4.79209">
        <ele>206</ele>
        <time>2017-04-03T10:14:23Z</time>
      </trkpt>
      <trkpt lat="45.97125" lon="4.79201">
        <ele>206</ele>
        <time>2017-04-03T10:14:24Z</time>
      </trkpt>
      <trkpt lat="45.97122" lon="4.79193">
        <ele>206</ele>
        <time>2017-04-03T10:14:25Z</time>
      </trkpt>
      <trkpt lat="45.97119" lon="4.79185">
        <ele>206</ele>
        <time>2017-04-03T10:14:26Z</time>
      </trkpt>
      <trkpt lat="45.97116" lon="4.79177">
        <ele>206</ele>
        <time>2017-04-03T10:14:27Z</time>
      </trkpt>
      <trkpt lat="45.97113" lon="4.7917">
        <ele>205</ele>
        <time>2017-04-03T10:14:28Z</time>
      </trkpt>
      <trkpt lat="45.97109" lon="4.79163">
        <ele>206</ele>
        <time>2017-04-03T10:14:29Z</time>
      </trkpt>
      <trkpt lat="45.97105" lon="4.79156">
        <ele>206</ele>
        <time>2017-04-03T10:14:30Z</time>
      </trkpt>
      <trkpt lat="45.97101" lon="4.79149">
        <ele>206</ele>
        <time>2017-04-03T10:14:31Z</time>
      </trkpt>
      <trkpt lat="45.97097" lon="4.79142">
        <ele>206</ele>
        <time>2017-04-03T10:14:32Z</time>
      </trkpt>
      <trkpt lat="45.97094" lon="4.79134">
        <ele>206</ele>
        <time>2017-04-03T10:14:33Z</time>
      </trkpt>
      <trkpt lat="45.9709" lon="4.79127">
        <ele>206</ele>
        <time>2017-04-03T10:14:34Z</time>
      </trkpt>
      <trkpt lat="45.97087" lon="4.79119">
        <ele>206</ele>
        <time>2017-04-03T10:14:35Z</time>
      </trkpt>
      <trkpt lat="45.97083" lon="4.79112">
        <ele>204</ele>
        <time>2017-04-03T10:14:36Z</time>
      </trkpt>
      <trkpt lat="45.9708" lon="4.79104">
        <ele>204</ele>
        <time>2017-04-03T10:14:37Z</time>
      </trkpt>
      <trkpt lat="45.97078" lon="4.79097">
        <ele>204</ele>
        <time>2017-04-03T10:14:38Z</time>
      </trkpt>
      <trkpt lat="45.97076" lon="4.79089">
        <ele>204</ele>
        <time>2017-04-03T10:14:39Z</time>
      </trkpt>
      <trkpt lat="45.97074" lon="4.79081">
        <ele>204</ele>
        <time>2017-04-03T10:14:40Z</time>
      </trkpt>
      <trkpt lat="45.97072" lon="4.79074">
        <ele>204</ele>
        <time>2017-04-03T10:14:41Z</time>
      </trkpt>
      <trkpt lat="45.9707" lon="4.79066">
        <ele>203</ele>
        <time>2017-04-03T10:14:42Z</time>
      </trkpt>
      <trkpt lat="45.97068" lon="4.79059">
        <ele>203</ele>
        <time>2017-04-03T10:14:43Z</time>
      </trkpt>
      <trkpt lat="45.97066" lon="4.79053">
        <ele>203</ele>
        <time>2017-04-03T10:14:44Z</time>
      </trkpt>
      <trkpt lat="45.97064" lon="4.79046">
        <ele>203</ele>
        <time>2017-04-03T10:14:45Z</time>
      </trkpt>
      <trkpt lat="45.97062" lon="4.7904">
        <ele>203</ele>
        <time>2017-04-03T10:14:46Z</time>
      </trkpt>
      <trkpt lat="45.9706" lon="4.79033">
        <ele>203</ele>
        <time>2017-04-03T10:14:47Z</time>
      </trkpt>
      <trkpt lat="45.97059" lon="4.79025">
        <ele>203</ele>
        <time>2017-04-03T10:14:48Z</time>
      </trkpt>
      <trkpt lat="45.97057" lon="4.79018">
        <ele>203</ele>
        <time>2017-04-03T10:14:49Z</time>
      </trkpt>
      <trkpt lat="45.97054" lon="4.79011">
        <ele>203</ele>
        <time>2017-04-03T10:14:50Z</time>
      </trkpt>
      <trkpt lat="45.97052" lon="4.79004">
        <ele>203</ele>
        <time>2017-04-03T10:14:51Z</time>
      </trkpt>
      <trkpt lat="45.9705" lon="4.78996">
        <ele>205</ele>
        <time>2017-04-03T10:14:52Z</time>
      </trkpt>
      <trkpt lat="45.97047" lon="4.78989">
        <ele>205</ele>
        <time>2017-04-03T10:14:53Z</time>
      </trkpt>
      <trkpt lat="45.97044" lon="4.78981">
        <ele>205</ele>
        <time>2017-04-03T10:14:54Z</time>
      </trkpt>
      <trkpt lat="45.97041" lon="4.78973">
        <ele>205</ele>
        <time>2017-04-03T10:14:55Z</time>
      </trkpt>
      <trkpt lat="45.97038" lon="4.78966">
        <ele>205</ele>
        <time>2017-04-03T10:14:56Z</time>
      </trkpt>
      <trkpt lat="45.97034" lon="4.78957">
        <ele>205</ele>
        <time>2017-04-03T10:14:57Z</time>
      </trkpt>
      <trkpt lat="45.97031" lon="4.78949">
        <ele>205</ele>
        <time>2017-04-03T10:14:58Z</time>
      </trkpt>
      <trkpt lat="45.97027" lon="4.78942">
        <ele>205</ele>
        <time>2017-04-03T10:14:59Z</time>
      </trkpt>
      <trkpt lat="45.97022" lon="4.78934">
        <ele>205</ele>
        <time>2017-04-03T10:15:00Z</time>
      </trkpt>
      <trkpt lat="45.97018" lon="4.78927">
        <ele>205</ele>
        <time>2017-04-03T10:15:01Z</time>
      </trkpt>
      <trkpt lat="45.97014" lon="4.7892">
        <ele>205</ele>
        <time>2017-04-03T10:15:02Z</time>
      </trkpt>
      <trkpt lat="45.97009" lon="4.78913">
        <ele>205</ele>
        <time>2017-04-03T10:15:03Z</time>
      </trkpt>
      <trkpt lat="45.97004" lon="4.78906">
        <ele>206</ele>
        <time>2017-04-03T10:15:04Z</time>
      </trkpt>
      <trkpt lat="45.96999" lon="4.78899">
        <ele>204</ele>
        <time>2017-04-03T10:15:05Z</time>
      </trkpt>
      <trkpt lat="45.96993" lon="4.78892">
        <ele>203</ele>
        <time>2017-04-03T10:15:06Z</time>
      </trkpt>
      <trkpt lat="45.96988" lon="4.78885">
        <ele>203</ele>
        <time>2017-04-03T10:15:07Z</time>
      </trkpt>
      <trkpt lat="45.96983" lon="4.78879">
        <ele>203</ele>
        <time>2017-04-03T10:15:08Z</time>
      </trkpt>
      <trkpt lat="45.96977" lon="4.78872">
        <ele>203</ele>
        <time>2017-04-03T10:15:09Z</time>
      </trkpt>
      <trkpt lat="45.96972" lon="4.78866">
        <ele>203</ele>
        <time>2017-04-03T10:15:10Z</time>
      </trkpt>
      <trkpt lat="45.96967" lon="4.7886">
        <ele>203</ele>
        <time>2017-04-03T10:15:11Z</time>
      </trkpt>
      <trkpt lat="45.96962" lon="4.78853">
        <ele>203</ele>
        <time>2017-04-03T10:15:12Z</time>
      </trkpt>
      <trkpt lat="45.96956" lon="4.78847">
        <ele>203</ele>
        <time>2017-04-03T10:15:13Z</time>
      </trkpt>
      <trkpt lat="45.96951" lon="4.78841">
        <ele>202</ele>
        <time>2017-04-03T10:15:14Z</time>
      </trkpt>
      <trkpt lat="45.96945" lon="4.78835">
        <ele>202</ele>
        <time>2017-04-03T10:15:15Z</time>
      </trkpt>
      <trkpt lat="45.9694" lon="4.78829">
        <ele>203</ele>
        <time>2017-04-03T10:15:16Z</time>
      </trkpt>
      <trkpt lat="45.96935" lon="4.78822">
        <ele>202</ele>
        <time>2017-04-03T10:15:17Z</time>
      </trkpt>
      <trkpt lat="45.96931" lon="4.78815">
        <ele>202</ele>
        <time>2017-04-03T10:15:18Z</time>
      </trkpt>
      <trkpt lat="45.96927" lon="4.78808">
        <ele>203</ele>
        <time>2017-04-03T10:15:19Z</time>
      </trkpt>
      <trkpt lat="45.96922" lon="4.78801">
        <ele>203</ele>
        <time>2017-04-03T10:15:20Z</time>
      </trkpt>
      <trkpt lat="45.96918" lon="4.78794">
        <ele>203</ele>
        <time>2017-04-03T10:15:21Z</time>
      </trkpt>
      <trkpt lat="45.96914" lon="4.78786">
        <ele>201</ele>
        <time>2017-04-03T10:15:22Z</time>
      </trkpt>
      <trkpt lat="45.9691" lon="4.78779">
        <ele>201</ele>
        <time>2017-04-03T10:15:23Z</time>
      </trkpt>
      <trkpt lat="45.96906" lon="4.78771">
        <ele>201</ele>
        <time>2017-04-03T10:15:24Z</time>
      </trkpt>
      <trkpt lat="45.96902" lon="4.78764">
        <ele>201</ele>
        <time>2017-04-03T10:15:25Z</time>
      </trkpt>
      <trkpt lat="45.96899" lon="4.78756">
        <ele>202</ele>
        <time>2017-04-03T10:15:26Z</time>
      </trkpt>
      <trkpt lat="45.96896" lon="4.78748">
        <ele>202</ele>
        <time>2017-04-03T10:15:27Z</time>
      </trkpt>
      <trkpt lat="45.96892" lon="4.78741">
        <ele>202</ele>
        <time>2017-04-03T10:15:28Z</time>
      </trkpt>
      <trkpt lat="45.96888" lon="4.78733">
        <ele>202</ele>
        <time>2017-04-03T10:15:29Z</time>
      </trkpt>
      <trkpt lat="45.96885" lon="4.78725">
        <ele>202</ele>
        <time>2017-04-03T10:15:30Z</time>
      </trkpt>
      <trkpt lat="45.96881" lon="4.78717">
        <ele>202</ele>
        <time>2017-04-03T10:15:31Z</time>
      </trkpt>
      <trkpt lat="45.96877" lon="4.78709">
        <ele>202</ele>
        <time>2017-04-03T10:15:32Z</time>
      </trkpt>
      <trkpt lat="45.96874" lon="4.78701">
        <ele>202</ele>
        <time>2017-04-03T10:15:33Z</time>
      </trkpt>
      <trkpt lat="45.96871" lon="4.78695">
        <ele>202</ele>
        <time>2017-04-03T10:15:34Z</time>
      </trkpt>
      <trkpt lat="45.96868" lon="4.78689">
        <ele>202</ele>
        <time>2017-04-03T10:15:35Z</time>
      </trkpt>
      <trkpt lat="45.96864" lon="4.78683">
        <ele>202</ele>
        <time>2017-04-03T10:15:36Z</time>
      </trkpt>
      <trkpt lat="45.96861" lon="4.78678">
        <ele>202</ele>
        <time>2017-04-03T10:15:37Z</time>
      </trkpt>
      <trkpt lat="45.96858" lon="4.78672">
        <ele>202</ele>
        <time>2017-04-03T10:15:38Z</time>
      </trkpt>
      <trkpt lat="45.96854" lon="4.78666">
        <ele>203</ele>
        <time>2017-04-03T10:15:39Z</time>
      </trkpt>
      <trkpt lat="45.9685" lon="4.78658">
        <ele>203</ele>
        <time>2017-04-03T10:15:40Z</time>
      </trkpt>
      <trkpt lat="45.96846" lon="4.78651">
        <ele>203</ele>
        <time>2017-04-03T10:15:41Z</time>
      </trkpt>
      <trkpt lat="45.96843" lon="4.78643">
        <ele>203</ele>
        <time>2017-04-03T10:15:42Z</time>
      </trkpt>
      <trkpt lat="45.96844" lon="4.78635">
        <ele>203</ele>
        <time>2017-04-03T10:15:43Z</time>
      </trkpt>
      <trkpt lat="45.96841" lon="4.78626">
        <ele>203</ele>
        <time>2017-04-03T10:15:44Z</time>
      </trkpt>
      <trkpt lat="45.96839" lon="4.78617">
        <ele>203</ele>
        <time>2017-04-03T10:15:45Z</time>
      </trkpt>
      <trkpt lat="45.96836" lon="4.78609">
        <ele>203</ele>
        <time>2017-04-03T10:15:46Z</time>
      </trkpt>
      <trkpt lat="45.96833" lon="4.78602">
        <ele>202</ele>
        <time>2017-04-03T10:15:47Z</time>
      </trkpt>
      <trkpt lat="45.96831" lon="4.78594">
        <ele>202</ele>
        <time>2017-04-03T10:15:48Z</time>
      </trkpt>
      <trkpt lat="45.96829" lon="4.78587">
        <ele>203</ele>
        <time>2017-04-03T10:15:49Z</time>
      </trkpt>
      <trkpt lat="45.96826" lon="4.78582">
        <ele>203</ele>
        <time>2017-04-03T10:15:50Z</time>
      </trkpt>
      <trkpt lat="45.96823" lon="4.78577">
        <ele>203</ele>
        <time>2017-04-03T10:15:51Z</time>
      </trkpt>
      <trkpt lat="45.96819" lon="4.78573">
        <ele>203</ele>
        <time>2017-04-03T10:15:52Z</time>
      </trkpt>
      <trkpt lat="45.96815" lon="4.78568">
        <ele>203</ele>
        <time>2017-04-03T10:15:53Z</time>
      </trkpt>
      <trkpt lat="45.9681" lon="4.78563">
        <ele>203</ele>
        <time>2017-04-03T10:15:54Z</time>
      </trkpt>
      <trkpt lat="45.96805" lon="4.78557">
        <ele>203</ele>
        <time>2017-04-03T10:15:55Z</time>
      </trkpt>
      <trkpt lat="45.96801" lon="4.7855">
        <ele>203</ele>
        <time>2017-04-03T10:15:56Z</time>
      </trkpt>
      <trkpt lat="45.96797" lon="4.78543">
        <ele>203</ele>
        <time>2017-04-03T10:15:57Z</time>
      </trkpt>
      <trkpt lat="45.96793" lon="4.78535">
        <ele>203</ele>
        <time>2017-04-03T10:15:58Z</time>
      </trkpt>
      <trkpt lat="45.96787" lon="4.78527">
        <ele>203</ele>
        <time>2017-04-03T10:15:59Z</time>
      </trkpt>
      <trkpt lat="45.96782" lon="4.7852">
        <ele>203</ele>
        <time>2017-04-03T10:16:00Z</time>
      </trkpt>
      <trkpt lat="45.96778" lon="4.78512">
        <ele>203</ele>
        <time>2017-04-03T10:16:01Z</time>
      </trkpt>
      <trkpt lat="45.96774" lon="4.78505">
        <ele>203</ele>
        <time>2017-04-03T10:16:02Z</time>
      </trkpt>
      <trkpt lat="45.96769" lon="4.78497">
        <ele>205</ele>
        <time>2017-04-03T10:16:03Z</time>
      </trkpt>
      <trkpt lat="45.96764" lon="4.78491">
        <ele>205</ele>
        <time>2017-04-03T10:16:04Z</time>
      </trkpt>
      <trkpt lat="45.96759" lon="4.78485">
        <ele>205</ele>
        <time>2017-04-03T10:16:05Z</time>
      </trkpt>
      <trkpt lat="45.96754" lon="4.78479">
        <ele>205</ele>
        <time>2017-04-03T10:16:06Z</time>
      </trkpt>
      <trkpt lat="45.96748" lon="4.78475">
        <ele>203</ele>
        <time>2017-04-03T10:16:07Z</time>
      </trkpt>
      <trkpt lat="45.96744" lon="4.78471">
        <ele>203</ele>
        <time>2017-04-03T10:16:08Z</time>
      </trkpt>
      <trkpt lat="45.96739" lon="4.78467">
        <ele>203</ele>
        <time>2017-04-03T10:16:09Z</time>
      </trkpt>
      <trkpt lat="45.96734" lon="4.78462">
        <ele>203</ele>
        <time>2017-04-03T10:16:10Z</time>
      </trkpt>
      <trkpt lat="45.9673" lon="4.78458">
        <ele>203</ele>
        <time>2017-04-03T10:16:11Z</time>
      </trkpt>
      <trkpt lat="45.96726" lon="4.78454">
        <ele>203</ele>
        <time>2017-04-03T10:16:12Z</time>
      </trkpt>
      <trkpt lat="45.96721" lon="4.78451">
        <ele>203</ele>
        <time>2017-04-03T10:16:13Z</time>
      </trkpt>
      <trkpt lat="45.96716" lon="4.78447">
        <ele>203</ele>
        <time>2017-04-03T10:16:14Z</time>
      </trkpt>
      <trkpt lat="45.96711" lon="4.78442">
        <ele>203</ele>
        <time>2017-04-03T10:16:15Z</time>
      </trkpt>
      <trkpt lat="45.96706" lon="4.78437">
        <ele>203</ele>
        <time>2017-04-03T10:16:16Z</time>
      </trkpt>
      <trkpt lat="45.96701" lon="4.78432">
        <ele>203</ele>
        <time>2017-04-03T10:16:17Z</time>
      </trkpt>
      <trkpt lat="45.96697" lon="4.78426">
        <ele>203</ele>
        <time>2017-04-03T10:16:18Z</time>
      </trkpt>
      <trkpt lat="45.96693" lon="4.78421">
        <ele>202</ele>
        <time>2017-04-03T10:16:19Z</time>
      </trkpt>
      <trkpt lat="45.96688" lon="4.78417">
        <ele>204</ele>
        <time>2017-04-03T10:16:20Z</time>
      </trkpt>
      <trkpt lat="45.96683" lon="4.78412">
        <ele>204</ele>
        <time>2017-04-03T10:16:21Z</time>
      </trkpt>
      <trkpt lat="45.96678" lon="4.78407">
        <ele>203</ele>
        <time>2017-04-03T10:16:22Z</time>
      </trkpt>
      <trkpt lat="45.96673" lon="4.78402">
        <ele>204</ele>
        <time>2017-04-03T10:16:23Z</time>
      </trkpt>
      <trkpt lat="45.96667" lon="4.78396">
        <ele>204</ele>
        <time>2017-04-03T10:16:24Z</time>
      </trkpt>
      <trkpt lat="45.96662" lon="4.78391">
        <ele>201</ele>
        <time>2017-04-03T10:16:25Z</time>
      </trkpt>
      <trkpt lat="45.96656" lon="4.78385">
        <ele>201</ele>
        <time>2017-04-03T10:16:26Z</time>
      </trkpt>
      <trkpt lat="45.96651" lon="4.78379">
        <ele>201</ele>
        <time>2017-04-03T10:16:27Z</time>
      </trkpt>
      <trkpt lat="45.96645" lon="4.78374">
        <ele>201</ele>
        <time>2017-04-03T10:16:28Z</time>
      </trkpt>
      <trkpt lat="45.9664" lon="4.78369">
        <ele>201</ele>
        <time>2017-04-03T10:16:29Z</time>
      </trkpt>
      <trkpt lat="45.96634" lon="4.78364">
        <ele>201</ele>
        <time>2017-04-03T10:16:30Z</time>
      </trkpt>
      <trkpt lat="45.96629" lon="4.78358">
        <ele>201</ele>
        <time>2017-04-03T10:16:31Z</time>
      </trkpt>
      <trkpt lat="45.96623" lon="4.78352">
        <ele>201</ele>
        <time>2017-04-03T10:16:32Z</time>
      </trkpt>
      <trkpt lat="45.96618" lon="4.78346">
        <ele>201</ele>
        <time>2017-04-03T10:16:33Z</time>
      </trkpt>
      <trkpt lat="45.96612" lon="4.78341">
        <ele>200</ele>
        <time>2017-04-03T10:16:34Z</time>
      </trkpt>
      <trkpt lat="45.96606" lon="4.78336">
        <ele>200</ele>
        <time>2017-04-03T10:16:35Z</time>
      </trkpt>
      <trkpt lat="45.96601" lon="4.7833">
        <ele>202</ele>
        <time>2017-04-03T10:16:36Z</time>
      </trkpt>
      <trkpt lat="45.96595" lon="4.78324">
        <ele>202</ele>
        <time>2017-04-03T10:16:37Z</time>
      </trkpt>
      <trkpt lat="45.96589" lon="4.78319">
        <ele>202</ele>
        <time>2017-04-03T10:16:38Z</time>
      </trkpt>
      <trkpt lat="45.96584" lon="4.78313">
        <ele>203</ele>
        <time>2017-04-03T10:16:39Z</time>
      </trkpt>
      <trkpt lat="45.96579" lon="4.78308">
        <ele>200</ele>
        <time>2017-04-03T10:16:40Z</time>
      </trkpt>
      <trkpt lat="45.96574" lon="4.78303">
        <ele>200</ele>
        <time>2017-04-03T10:16:41Z</time>
      </trkpt>
      <trkpt lat="45.96569" lon="4.78298">
        <ele>200</ele>
        <time>2017-04-03T10:16:42Z</time>
      </trkpt>
      <trkpt lat="45.96564" lon="4.78293">
        <ele>200</ele>
        <time>2017-04-03T10:16:43Z</time>
      </trkpt>
      <trkpt lat="45.96559" lon="4.78288">
        <ele>200</ele>
        <time>2017-04-03T10:16:44Z</time>
      </trkpt>
      <trkpt lat="45.96554" lon="4.78283">
        <ele>200</ele>
        <time>2017-04-03T10:16:45Z</time>
      </trkpt>
      <trkpt lat="45.96549" lon="4.78277">
        <ele>200</ele>
        <time>2017-04-03T10:16:46Z</time>
      </trkpt>
      <trkpt lat="45.96544" lon="4.78272">
        <ele>200</ele>
        <time>2017-04-03T10:16:47Z</time>
      </trkpt>
      <trkpt lat="45.9654" lon="4.78266">
        <ele>200</ele>
        <time>2017-04-03T10:16:48Z</time>
      </trkpt>
      <trkpt lat="45.96536" lon="4.7826">
        <ele>200</ele>
        <time>2017-04-03T10:16:49Z</time>
      </trkpt>
      <trkpt lat="45.96533" lon="4.78253">
        <ele>200</ele>
        <time>2017-04-03T10:16:50Z</time>
      </trkpt>
      <trkpt lat="45.96529" lon="4.78246">
        <ele>204</ele>
        <time>2017-04-03T10:16:51Z</time>
      </trkpt>
      <trkpt lat="45.96526" lon="4.7824">
        <ele>204</ele>
        <time>2017-04-03T10:16:52Z</time>
      </trkpt>
      <trkpt lat="45.96522" lon="4.78233">
        <ele>204</ele>
        <time>2017-04-03T10:16:53Z</time>
      </trkpt>
      <trkpt lat="45.96518" lon="4.78227">
        <ele>204</ele>
        <time>2017-04-03T10:16:54Z</time>
      </trkpt>
      <trkpt lat="45.96514" lon="4.7822">
        <ele>204</ele>
        <time>2017-04-03T10:16:55Z</time>
      </trkpt>
      <trkpt lat="45.9651" lon="4.78215">
        <ele>205</ele>
        <time>2017-04-03T10:16:56Z</time>
      </trkpt>
      <trkpt lat="45.96505" lon="4.78209">
        <ele>205</ele>
        <time>2017-04-03T10:16:57Z</time>
      </trkpt>
      <trkpt lat="45.965" lon="4.78203">
        <ele>205</ele>
        <time>2017-04-03T10:16:58Z</time>
      </trkpt>
      <trkpt lat="45.96495" lon="4.78197">
        <ele>201</ele>
        <time>2017-04-03T10:16:59Z</time>
      </trkpt>
      <trkpt lat="45.9649" lon="4.78193">
        <ele>201</ele>
        <time>2017-04-03T10:17:00Z</time>
      </trkpt>
      <trkpt lat="45.96484" lon="4.78189">
        <ele>201</ele>
        <time>2017-04-03T10:17:01Z</time>
      </trkpt>
      <trkpt lat="45.96479" lon="4.78185">
        <ele>201</ele>
        <time>2017-04-03T10:17:02Z</time>
      </trkpt>
      <trkpt lat="45.96472" lon="4.78182">
        <ele>201</ele>
        <time>2017-04-03T10:17:03Z</time>
      </trkpt>
      <trkpt lat="45.96465" lon="4.78178">
        <ele>200</ele>
        <time>2017-04-03T10:17:04Z</time>
      </trkpt>
      <trkpt lat="45.96459" lon="4.78172">
        <ele>200</ele>
        <time>2017-04-03T10:17:05Z</time>
      </trkpt>
      <trkpt lat="45.96454" lon="4.78167">
        <ele>200</ele>
        <time>2017-04-03T10:17:06Z</time>
      </trkpt>
      <trkpt lat="45.96448" lon="4.78162">
        <ele>203</ele>
        <time>2017-04-03T10:17:07Z</time>
      </trkpt>
      <trkpt lat="45.96443" lon="4.78157">
        <ele>203</ele>
        <time>2017-04-03T10:17:08Z</time>
      </trkpt>
      <trkpt lat="45.96438" lon="4.78152">
        <ele>203</ele>
        <time>2017-04-03T10:17:09Z</time>
      </trkpt>
      <trkpt lat="45.96433" lon="4.78147">
        <ele>203</ele>
        <time>2017-04-03T10:17:10Z</time>
      </trkpt>
      <trkpt lat="45.96428" lon="4.78143">
        <ele>203</ele>
        <time>2017-04-03T10:17:11Z</time>
      </trkpt>
      <trkpt lat="45.96424" lon="4.78138">
        <ele>203</ele>
        <time>2017-04-03T10:17:12Z</time>
      </trkpt>
      <trkpt lat="45.9642" lon="4.78133">
        <ele>203</ele>
        <time>2017-04-03T10:17:13Z</time>
      </trkpt>
      <trkpt lat="45.96415" lon="4.78128">
        <ele>200</ele>
        <time>2017-04-03T10:17:14Z</time>
      </trkpt>
      <trkpt lat="45.9641" lon="4.78124">
        <ele>200</ele>
        <time>2017-04-03T10:17:15Z</time>
      </trkpt>
      <trkpt lat="45.96405" lon="4.7812">
        <ele>200</ele>
        <time>2017-04-03T10:17:16Z</time>
      </trkpt>
      <trkpt lat="45.96399" lon="4.78115">
        <ele>200</ele>
        <time>2017-04-03T10:17:17Z</time>
      </trkpt>
      <trkpt lat="45.96394" lon="4.7811">
        <ele>200</ele>
        <time>2017-04-03T10:17:18Z</time>
      </trkpt>
      <trkpt lat="45.96389" lon="4.78105">
        <ele>200</ele>
        <time>2017-04-03T10:17:19Z</time>
      </trkpt>
      <trkpt lat="45.96384" lon="4.781">
        <ele>200</ele>
        <time>2017-04-03T10:17:20Z</time>
      </trkpt>
      <trkpt lat="45.96378" lon="4.78094">
        <ele>200</ele>
        <time>2017-04-03T10:17:21Z</time>
      </trkpt>
      <trkpt lat="45.96372" lon="4.78089">
        <ele>200</ele>
        <time>2017-04-03T10:17:22Z</time>
      </trkpt>
      <trkpt lat="45.96366" lon="4.78085">
        <ele>199</ele>
        <time>2017-04-03T10:17:23Z</time>
      </trkpt>
      <trkpt lat="45.96361" lon="4.78079">
        <ele>202</ele>
        <time>2017-04-03T10:17:24Z</time>
      </trkpt>
      <trkpt lat="45.96355" lon="4.78073">
        <ele>202</ele>
        <time>2017-04-03T10:17:25Z</time>
      </trkpt>
      <trkpt lat="45.96349" lon="4.78067">
        <ele>202</ele>
        <time>2017-04-03T10:17:26Z</time>
      </trkpt>
      <trkpt lat="45.96343" lon="4.7806">
        <ele>202</ele>
        <time>2017-04-03T10:17:27Z</time>
      </trkpt>
      <trkpt lat="45.96337" lon="4.78054">
        <ele>202</ele>
        <time>2017-04-03T10:17:28Z</time>
      </trkpt>
      <trkpt lat="45.96332" lon="4.78047">
        <ele>199</ele>
        <time>2017-04-03T10:17:29Z</time>
      </trkpt>
      <trkpt lat="45.96327" lon="4.78041">
        <ele>199</ele>
        <time>2017-04-03T10:17:30Z</time>
      </trkpt>
      <trkpt lat="45.96322" lon="4.78034">
        <ele>200</ele>
        <time>2017-04-03T10:17:31Z</time>
      </trkpt>
      <trkpt lat="45.96316" lon="4.78028">
        <ele>200</ele>
        <time>2017-04-03T10:17:32Z</time>
      </trkpt>
      <trkpt lat="45.9631" lon="4.78022">
        <ele>200</ele>
        <time>2017-04-03T10:17:33Z</time>
      </trkpt>
      <trkpt lat="45.96303" lon="4.78015">
        <ele>200</ele>
        <time>2017-04-03T10:17:34Z</time>
      </trkpt>
      <trkpt lat="45.96298" lon="4.7801">
        <ele>199</ele>
        <time>2017-04-03T10:17:35Z</time>
      </trkpt>
      <trkpt lat="45.96293" lon="4.78004">
        <ele>199</ele>
        <time>2017-04-03T10:17:36Z</time>
      </trkpt>
      <trkpt lat="45.96289" lon="4.77998">
        <ele>204</ele>
        <time>2017-04-03T10:17:37Z</time>
      </trkpt>
      <trkpt lat="45.96284" lon="4.77993">
        <ele>204</ele>
        <time>2017-04-03T10:17:38Z</time>
      </trkpt>
      <trkpt lat="45.96279" lon="4.77989">
        <ele>203</ele>
        <time>2017-04-03T10:17:39Z</time>
      </trkpt>
      <trkpt lat="45.96275" lon="4.77984">
        <ele>203</ele>
        <time>2017-04-03T10:17:40Z</time>
      </trkpt>
      <trkpt lat="45.9627" lon="4.7798">
        <ele>203</ele>
        <time>2017-04-03T10:17:41Z</time>
      </trkpt>
      <trkpt lat="45.96266" lon="4.77976">
        <ele>203</ele>
        <time>2017-04-03T10:17:42Z</time>
      </trkpt>
      <trkpt lat="45.96259" lon="4.77969">
        <ele>204</ele>
        <time>2017-04-03T10:17:44Z</time>
      </trkpt>
      <trkpt lat="45.96255" lon="4.77965">
        <ele>204</ele>
        <time>2017-04-03T10:17:45Z</time>
      </trkpt>
      <trkpt lat="45.96249" lon="4.77958">
        <ele>199</ele>
        <time>2017-04-03T10:17:47Z</time>
      </trkpt>
      <trkpt lat="45.96246" lon="4.77953">
        <ele>200</ele>
        <time>2017-04-03T10:17:48Z</time>
      </trkpt>
      <trkpt lat="45.96241" lon="4.77945">
        <ele>201</ele>
        <time>2017-04-03T10:17:50Z</time>
      </trkpt>
      <trkpt lat="45.96237" lon="4.77939">
        <ele>201</ele>
        <time>2017-04-03T10:17:51Z</time>
      </trkpt>
      <trkpt lat="45.96233" lon="4.77934">
        <ele>201</ele>
        <time>2017-04-03T10:17:52Z</time>
      </trkpt>
      <trkpt lat="45.96229" lon="4.77928">
        <ele>201</ele>
        <time>2017-04-03T10:17:53Z</time>
      </trkpt>
      <trkpt lat="45.96225" lon="4.77921">
        <ele>201</ele>
        <time>2017-04-03T10:17:54Z</time>
      </trkpt>
      <trkpt lat="45.9622" lon="4.77914">
        <ele>204</ele>
        <time>2017-04-03T10:17:55Z</time>
      </trkpt>
      <trkpt lat="45.96216" lon="4.77907">
        <ele>203</ele>
        <time>2017-04-03T10:17:56Z</time>
      </trkpt>
      <trkpt lat="45.96213" lon="4.779">
        <ele>203</ele>
        <time>2017-04-03T10:17:57Z</time>
      </trkpt>
      <trkpt lat="45.96209" lon="4.77894">
        <ele>203</ele>
        <time>2017-04-03T10:17:58Z</time>
      </trkpt>
      <trkpt lat="45.96204" lon="4.77888">
        <ele>202</ele>
        <time>2017-04-03T10:17:59Z</time>
      </trkpt>
      <trkpt lat="45.962" lon="4.77882">
        <ele>202</ele>
        <time>2017-04-03T10:18:00Z</time>
      </trkpt>
      <trkpt lat="45.96196" lon="4.77875">
        <ele>202</ele>
        <time>2017-04-03T10:18:01Z</time>
      </trkpt>
      <trkpt lat="45.96192" lon="4.77869">
        <ele>202</ele>
        <time>2017-04-03T10:18:02Z</time>
      </trkpt>
      <trkpt lat="45.96189" lon="4.77862">
        <ele>202</ele>
        <time>2017-04-03T10:18:03Z</time>
      </trkpt>
      <trkpt lat="45.96186" lon="4.77856">
        <ele>202</ele>
        <time>2017-04-03T10:18:04Z</time>
      </trkpt>
      <trkpt lat="45.96182" lon="4.7785">
        <ele>201</ele>
        <time>2017-04-03T10:18:05Z</time>
      </trkpt>
      <trkpt lat="45.96178" lon="4.77843">
        <ele>201</ele>
        <time>2017-04-03T10:18:06Z</time>
      </trkpt>
      <trkpt lat="45.96173" lon="4.77837">
        <ele>200</ele>
        <time>2017-04-03T10:18:07Z</time>
      </trkpt>
      <trkpt lat="45.9617" lon="4.77831">
        <ele>200</ele>
        <time>2017-04-03T10:18:08Z</time>
      </trkpt>
      <trkpt lat="45.96166" lon="4.77824">
        <ele>199</ele>
        <time>2017-04-03T10:18:09Z</time>
      </trkpt>
      <trkpt lat="45.96162" lon="4.77817">
        <ele>198</ele>
        <time>2017-04-03T10:18:10Z</time>
      </trkpt>
      <trkpt lat="45.96158" lon="4.7781">
        <ele>198</ele>
        <time>2017-04-03T10:18:11Z</time>
      </trkpt>
      <trkpt lat="45.96154" lon="4.77804">
        <ele>198</ele>
        <time>2017-04-03T10:18:12Z</time>
      </trkpt>
      <trkpt lat="45.9615" lon="4.77797">
        <ele>198</ele>
        <time>2017-04-03T10:18:13Z</time>
      </trkpt>
      <trkpt lat="45.96146" lon="4.77791">
        <ele>198</ele>
        <time>2017-04-03T10:18:14Z</time>
      </trkpt>
      <trkpt lat="45.96143" lon="4.77785">
        <ele>198</ele>
        <time>2017-04-03T10:18:15Z</time>
      </trkpt>
      <trkpt lat="45.96139" lon="4.77779">
        <ele>198</ele>
        <time>2017-04-03T10:18:16Z</time>
      </trkpt>
      <trkpt lat="45.96136" lon="4.77773">
        <ele>198</ele>
        <time>2017-04-03T10:18:17Z</time>
      </trkpt>
      <trkpt lat="45.96133" lon="4.77768">
        <ele>198</ele>
        <time>2017-04-03T10:18:18Z</time>
      </trkpt>
      <trkpt lat="45.9613" lon="4.77763">
        <ele>198</ele>
        <time>2017-04-03T10:18:19Z</time>
      </trkpt>
      <trkpt lat="45.96126" lon="4.77757">
        <ele>198</ele>
        <time>2017-04-03T10:18:20Z</time>
      </trkpt>
      <trkpt lat="45.96123" lon="4.77751">
        <ele>198</ele>
        <time>2017-04-03T10:18:21Z</time>
      </trkpt>
      <trkpt lat="45.96118" lon="4.77745">
        <ele>200</ele>
        <time>2017-04-03T10:18:22Z</time>
      </trkpt>
      <trkpt lat="45.96113" lon="4.77739">
        <ele>199</ele>
        <time>2017-04-03T10:18:23Z</time>
      </trkpt>
      <trkpt lat="45.96108" lon="4.77732">
        <ele>199</ele>
        <time>2017-04-03T10:18:24Z</time>
      </trkpt>
      <trkpt lat="45.96103" lon="4.77725">
        <ele>199</ele>
        <time>2017-04-03T10:18:25Z</time>
      </trkpt>
      <trkpt lat="45.96098" lon="4.77718">
        <ele>199</ele>
        <time>2017-04-03T10:18:26Z</time>
      </trkpt>
      <trkpt lat="45.96094" lon="4.77711">
        <ele>200</ele>
        <time>2017-04-03T10:18:27Z</time>
      </trkpt>
      <trkpt lat="45.96089" lon="4.77704">
        <ele>200</ele>
        <time>2017-04-03T10:18:28Z</time>
      </trkpt>
      <trkpt lat="45.96084" lon="4.77697">
        <ele>200</ele>
        <time>2017-04-03T10:18:29Z</time>
      </trkpt>
      <trkpt lat="45.9608" lon="4.7769">
        <ele>198</ele>
        <time>2017-04-03T10:18:30Z</time>
      </trkpt>
      <trkpt lat="45.96075" lon="4.77683">
        <ele>198</ele>
        <time>2017-04-03T10:18:31Z</time>
      </trkpt>
      <trkpt lat="45.96071" lon="4.77676">
        <ele>199</ele>
        <time>2017-04-03T10:18:32Z</time>
      </trkpt>
      <trkpt lat="45.96067" lon="4.77669">
        <ele>198</ele>
        <time>2017-04-03T10:18:33Z</time>
      </trkpt>
      <trkpt lat="45.96061" lon="4.77662">
        <ele>200</ele>
        <time>2017-04-03T10:18:34Z</time>
      </trkpt>
      <trkpt lat="45.96056" lon="4.77655">
        <ele>200</ele>
        <time>2017-04-03T10:18:35Z</time>
      </trkpt>
      <trkpt lat="45.96051" lon="4.77648">
        <ele>200</ele>
        <time>2017-04-03T10:18:36Z</time>
      </trkpt>
      <trkpt lat="45.96046" lon="4.77642">
        <ele>200</ele>
        <time>2017-04-03T10:18:37Z</time>
      </trkpt>
      <trkpt lat="45.96041" lon="4.77636">
        <ele>199</ele>
        <time>2017-04-03T10:18:38Z</time>
      </trkpt>
      <trkpt lat="45.96036" lon="4.7763">
        <ele>199</ele>
        <time>2017-04-03T10:18:39Z</time>
      </trkpt>
      <trkpt lat="45.9603" lon="4.77623">
        <ele>199</ele>
        <time>2017-04-03T10:18:40Z</time>
      </trkpt>
      <trkpt lat="45.96024" lon="4.77617">
        <ele>199</ele>
        <time>2017-04-03T10:18:41Z</time>
      </trkpt>
      <trkpt lat="45.96019" lon="4.7761">
        <ele>199</ele>
        <time>2017-04-03T10:18:42Z</time>
      </trkpt>
      <trkpt lat="45.96013" lon="4.77604">
        <ele>199</ele>
        <time>2017-04-03T10:18:43Z</time>
      </trkpt>
      <trkpt lat="45.96008" lon="4.77598">
        <ele>198</ele>
        <time>2017-04-03T10:18:44Z</time>
      </trkpt>
      <trkpt lat="45.96004" lon="4.77593">
        <ele>198</ele>
        <time>2017-04-03T10:18:45Z</time>
      </trkpt>
      <trkpt lat="45.96" lon="4.77589">
        <ele>196</ele>
        <time>2017-04-03T10:18:46Z</time>
      </trkpt>
      <trkpt lat="45.95996" lon="4.77584">
        <ele>196</ele>
        <time>2017-04-03T10:18:47Z</time>
      </trkpt>
      <trkpt lat="45.95993" lon="4.77578">
        <ele>196</ele>
        <time>2017-04-03T10:18:48Z</time>
      </trkpt>
      <trkpt lat="45.9599" lon="4.77573">
        <ele>196</ele>
        <time>2017-04-03T10:18:49Z</time>
      </trkpt>
      <trkpt lat="45.95987" lon="4.77566">
        <ele>196</ele>
        <time>2017-04-03T10:18:50Z</time>
      </trkpt>
      <trkpt lat="45.95983" lon="4.77559">
        <ele>196</ele>
        <time>2017-04-03T10:18:51Z</time>
      </trkpt>
      <trkpt lat="45.95981" lon="4.77552">
        <ele>196</ele>
        <time>2017-04-03T10:18:52Z</time>
      </trkpt>
      <trkpt lat="45.95978" lon="4.77546">
        <ele>196</ele>
        <time>2017-04-03T10:18:53Z</time>
      </trkpt>
      <trkpt lat="45.95975" lon="4.7754">
        <ele>195</ele>
        <time>2017-04-03T10:18:54Z</time>
      </trkpt>
      <trkpt lat="45.95972" lon="4.77535">
        <ele>195</ele>
        <time>2017-04-03T10:18:55Z</time>
      </trkpt>
      <trkpt lat="45.95969" lon="4.77528">
        <ele>195</ele>
        <time>2017-04-03T10:18:56Z</time>
      </trkpt>
      <trkpt lat="45.95966" lon="4.77521">
        <ele>195</ele>
        <time>2017-04-03T10:18:57Z</time>
      </trkpt>
      <trkpt lat="45.95962" lon="4.77515">
        <ele>195</ele>
        <time>2017-04-03T10:18:58Z</time>
      </trkpt>
      <trkpt lat="45.95959" lon="4.77508">
        <ele>195</ele>
        <time>2017-04-03T10:18:59Z</time>
      </trkpt>
      <trkpt lat="45.95956" lon="4.775">
        <ele>196</ele>
        <time>2017-04-03T10:19:00Z</time>
      </trkpt>
      <trkpt lat="45.95953" lon="4.77492">
        <ele>196</ele>
        <time>2017-04-03T10:19:01Z</time>
      </trkpt>
      <trkpt lat="45.9595" lon="4.77484">
        <ele>195</ele>
        <time>2017-04-03T10:19:02Z</time>
      </trkpt>
      <trkpt lat="45.95946" lon="4.77476">
        <ele>195</ele>
        <time>2017-04-03T10:19:03Z</time>
      </trkpt>
      <trkpt lat="45.95942" lon="4.77467">
        <ele>195</ele>
        <time>2017-04-03T10:19:04Z</time>
      </trkpt>
      <trkpt lat="45.95939" lon="4.77458">
        <ele>195</ele>
        <time>2017-04-03T10:19:05Z</time>
      </trkpt>
      <trkpt lat="45.95935" lon="4.7745">
        <ele>195</ele>
        <time>2017-04-03T10:19:06Z</time>
      </trkpt>
      <trkpt lat="45.95932" lon="4.77442">
        <ele>195</ele>
        <time>2017-04-03T10:19:07Z</time>
      </trkpt>
      <trkpt lat="45.95929" lon="4.77433">
        <ele>195</ele>
        <time>2017-04-03T10:19:08Z</time>
      </trkpt>
      <trkpt lat="45.95926" lon="4.77425">
        <ele>195</ele>
        <time>2017-04-03T10:19:09Z</time>
      </trkpt>
      <trkpt lat="45.95923" lon="4.77416">
        <ele>195</ele>
        <time>2017-04-03T10:19:10Z</time>
      </trkpt>
      <trkpt lat="45.9592" lon="4.77408">
        <ele>195</ele>
        <time>2017-04-03T10:19:11Z</time>
      </trkpt>
      <trkpt lat="45.95917" lon="4.774">
        <ele>195</ele>
        <time>2017-04-03T10:19:12Z</time>
      </trkpt>
      <trkpt lat="45.95914" lon="4.77392">
        <ele>193</ele>
        <time>2017-04-03T10:19:13Z</time>
      </trkpt>
      <trkpt lat="45.95911" lon="4.77383">
        <ele>193</ele>
        <time>2017-04-03T10:19:14Z</time>
      </trkpt>
      <trkpt lat="45.95908" lon="4.77375">
        <ele>193</ele>
        <time>2017-04-03T10:19:15Z</time>
      </trkpt>
      <trkpt lat="45.95905" lon="4.77367">
        <ele>193</ele>
        <time>2017-04-03T10:19:16Z</time>
      </trkpt>
      <trkpt lat="45.95902" lon="4.77358">
        <ele>193</ele>
        <time>2017-04-03T10:19:17Z</time>
      </trkpt>
      <trkpt lat="45.959" lon="4.77349">
        <ele>193</ele>
        <time>2017-04-03T10:19:18Z</time>
      </trkpt>
      <trkpt lat="45.95896" lon="4.77341">
        <ele>193</ele>
        <time>2017-04-03T10:19:19Z</time>
      </trkpt>
      <trkpt lat="45.95894" lon="4.77332">
        <ele>193</ele>
        <time>2017-04-03T10:19:20Z</time>
      </trkpt>
      <trkpt lat="45.95892" lon="4.77323">
        <ele>193</ele>
        <time>2017-04-03T10:19:21Z</time>
      </trkpt>
      <trkpt lat="45.95889" lon="4.77315">
        <ele>193</ele>
        <time>2017-04-03T10:19:22Z</time>
      </trkpt>
      <trkpt lat="45.95887" lon="4.77306">
        <ele>193</ele>
        <time>2017-04-03T10:19:23Z</time>
      </trkpt>
      <trkpt lat="45.95885" lon="4.77297">
        <ele>193</ele>
        <time>2017-04-03T10:19:24Z</time>
      </trkpt>
      <trkpt lat="45.95883" lon="4.77289">
        <ele>193</ele>
        <time>2017-04-03T10:19:25Z</time>
      </trkpt>
      <trkpt lat="45.95881" lon="4.7728">
        <ele>193</ele>
        <time>2017-04-03T10:19:26Z</time>
      </trkpt>
      <trkpt lat="45.95879" lon="4.77271">
        <ele>193</ele>
        <time>2017-04-03T10:19:27Z</time>
      </trkpt>
      <trkpt lat="45.95877" lon="4.77263">
        <ele>193</ele>
        <time>2017-04-03T10:19:28Z</time>
      </trkpt>
      <trkpt lat="45.95875" lon="4.77256">
        <ele>193</ele>
        <time>2017-04-03T10:19:29Z</time>
      </trkpt>
      <trkpt lat="45.95873" lon="4.77248">
        <ele>193</ele>
        <time>2017-04-03T10:19:30Z</time>
      </trkpt>
      <trkpt lat="45.95872" lon="4.77239">
        <ele>193</ele>
        <time>2017-04-03T10:19:31Z</time>
      </trkpt>
      <trkpt lat="45.9587" lon="4.77231">
        <ele>193</ele>
        <time>2017-04-03T10:19:32Z</time>
      </trkpt>
      <trkpt lat="45.95869" lon="4.77223">
        <ele>193</ele>
        <time>2017-04-03T10:19:33Z</time>
      </trkpt>
      <trkpt lat="45.95867" lon="4.77214">
        <ele>193</ele>
        <time>2017-04-03T10:19:34Z</time>
      </trkpt>
      <trkpt lat="45.95865" lon="4.77205">
        <ele>193</ele>
        <time>2017-04-03T10:19:35Z</time>
      </trkpt>
      <trkpt lat="45.95862" lon="4.77197">
        <ele>192</ele>
        <time>2017-04-03T10:19:36Z</time>
      </trkpt>
      <trkpt lat="45.95859" lon="4.77188">
        <ele>192</ele>
        <time>2017-04-03T10:19:37Z</time>
      </trkpt>
      <trkpt lat="45.95857" lon="4.77179">
        <ele>192</ele>
        <time>2017-04-03T10:19:38Z</time>
      </trkpt>
      <trkpt lat="45.95854" lon="4.77169">
        <ele>192</ele>
        <time>2017-04-03T10:19:39Z</time>
      </trkpt>
      <trkpt lat="45.95852" lon="4.7716">
        <ele>192</ele>
        <time>2017-04-03T10:19:40Z</time>
      </trkpt>
      <trkpt lat="45.95849" lon="4.7715">
        <ele>192</ele>
        <time>2017-04-03T10:19:41Z</time>
      </trkpt>
      <trkpt lat="45.95847" lon="4.77141">
        <ele>193</ele>
        <time>2017-04-03T10:19:42Z</time>
      </trkpt>
      <trkpt lat="45.95844" lon="4.77132">
        <ele>193</ele>
        <time>2017-04-03T10:19:43Z</time>
      </trkpt>
      <trkpt lat="45.95841" lon="4.77123">
        <ele>193</ele>
        <time>2017-04-03T10:19:44Z</time>
      </trkpt>
      <trkpt lat="45.95839" lon="4.77114">
        <ele>193</ele>
        <time>2017-04-03T10:19:45Z</time>
      </trkpt>
      <trkpt lat="45.95837" lon="4.77104">
        <ele>193</ele>
        <time>2017-04-03T10:19:46Z</time>
      </trkpt>
      <trkpt lat="45.95834" lon="4.77096">
        <ele>193</ele>
        <time>2017-04-03T10:19:47Z</time>
      </trkpt>
      <trkpt lat="45.95831" lon="4.77087">
        <ele>192</ele>
        <time>2017-04-03T10:19:48Z</time>
      </trkpt>
      <trkpt lat="45.95828" lon="4.77079">
        <ele>191</ele>
        <time>2017-04-03T10:19:49Z</time>
      </trkpt>
      <trkpt lat="45.95825" lon="4.7707">
        <ele>191</ele>
        <time>2017-04-03T10:19:50Z</time>
      </trkpt>
      <trkpt lat="45.95822" lon="4.77062">
        <ele>190</ele>
        <time>2017-04-03T10:19:51Z</time>
      </trkpt>
      <trkpt lat="45.9582" lon="4.77055">
        <ele>190</ele>
        <time>2017-04-03T10:19:52Z</time>
      </trkpt>
      <trkpt lat="45.95818" lon="4.77048">
        <ele>190</ele>
        <time>2017-04-03T10:19:53Z</time>
      </trkpt>
      <trkpt lat="45.95815" lon="4.77041">
        <ele>190</ele>
        <time>2017-04-03T10:19:54Z</time>
      </trkpt>
      <trkpt lat="45.95812" lon="4.77035">
        <ele>190</ele>
        <time>2017-04-03T10:19:55Z</time>
      </trkpt>
      <trkpt lat="45.95809" lon="4.77027">
        <ele>190</ele>
        <time>2017-04-03T10:19:56Z</time>
      </trkpt>
      <trkpt lat="45.95807" lon="4.77019">
        <ele>190</ele>
        <time>2017-04-03T10:19:57Z</time>
      </trkpt>
      <trkpt lat="45.95805" lon="4.77011">
        <ele>190</ele>
        <time>2017-04-03T10:19:58Z</time>
      </trkpt>
      <trkpt lat="45.95803" lon="4.77002">
        <ele>190</ele>
        <time>2017-04-03T10:19:59Z</time>
      </trkpt>
      <trkpt lat="45.95802" lon="4.76994">
        <ele>189</ele>
        <time>2017-04-03T10:20:00Z</time>
      </trkpt>
      <trkpt lat="45.95801" lon="4.76985">
        <ele>189</ele>
        <time>2017-04-03T10:20:01Z</time>
      </trkpt>
      <trkpt lat="45.95801" lon="4.76977">
        <ele>189</ele>
        <time>2017-04-03T10:20:02Z</time>
      </trkpt>
      <trkpt lat="45.95801" lon="4.76969">
        <ele>189</ele>
        <time>2017-04-03T10:20:03Z</time>
      </trkpt>
      <trkpt lat="45.95802" lon="4.76961">
        <ele>189</ele>
        <time>2017-04-03T10:20:04Z</time>
      </trkpt>
      <trkpt lat="45.95803" lon="4.76953">
        <ele>189</ele>
        <time>2017-04-03T10:20:05Z</time>
      </trkpt>
      <trkpt lat="45.95804" lon="4.76945">
        <ele>189</ele>
        <time>2017-04-03T10:20:06Z</time>
      </trkpt>
      <trkpt lat="45.95805" lon="4.76938">
        <ele>189</ele>
        <time>2017-04-03T10:20:07Z</time>
      </trkpt>
      <trkpt lat="45.95807" lon="4.7693">
        <ele>189</ele>
        <time>2017-04-03T10:20:08Z</time>
      </trkpt>
      <trkpt lat="45.95808" lon="4.76922">
        <ele>189</ele>
        <time>2017-04-03T10:20:09Z</time>
      </trkpt>
      <trkpt lat="45.9581" lon="4.76914">
        <ele>189</ele>
        <time>2017-04-03T10:20:10Z</time>
      </trkpt>
      <trkpt lat="45.95811" lon="4.76905">
        <ele>189</ele>
        <time>2017-04-03T10:20:11Z</time>
      </trkpt>
      <trkpt lat="45.95812" lon="4.76897">
        <ele>189</ele>
        <time>2017-04-03T10:20:12Z</time>
      </trkpt>
      <trkpt lat="45.95814" lon="4.76889">
        <ele>189</ele>
        <time>2017-04-03T10:20:13Z</time>
      </trkpt>
      <trkpt lat="45.95815" lon="4.76882">
        <ele>189</ele>
        <time>2017-04-03T10:20:14Z</time>
      </trkpt>
      <trkpt lat="45.95817" lon="4.76875">
        <ele>189</ele>
        <time>2017-04-03T10:20:15Z</time>
      </trkpt>
      <trkpt lat="45.95819" lon="4.76868">
        <ele>189</ele>
        <time>2017-04-03T10:20:16Z</time>
      </trkpt>
      <trkpt lat="45.9582" lon="4.76861">
        <ele>189</ele>
        <time>2017-04-03T10:20:17Z</time>
      </trkpt>
      <trkpt lat="45.95822" lon="4.76854">
        <ele>189</ele>
        <time>2017-04-03T10:20:18Z</time>
      </trkpt>
      <trkpt lat="45.95823" lon="4.76846">
        <ele>190</ele>
        <time>2017-04-03T10:20:19Z</time>
      </trkpt>
      <trkpt lat="45.95825" lon="4.76838">
        <ele>190</ele>
        <time>2017-04-03T10:20:20Z</time>
      </trkpt>
      <trkpt lat="45.95827" lon="4.7683">
        <ele>190</ele>
        <time>2017-04-03T10:20:21Z</time>
      </trkpt>
      <trkpt lat="45.95828" lon="4.76822">
        <ele>190</ele>
        <time>2017-04-03T10:20:22Z</time>
      </trkpt>
      <trkpt lat="45.95829" lon="4.76814">
        <ele>190</ele>
        <time>2017-04-03T10:20:23Z</time>
      </trkpt>
      <trkpt lat="45.9583" lon="4.76807">
        <ele>190</ele>
        <time>2017-04-03T10:20:24Z</time>
      </trkpt>
      <trkpt lat="45.9583" lon="4.76799">
        <ele>190</ele>
        <time>2017-04-03T10:20:25Z</time>
      </trkpt>
      <trkpt lat="45.95829" lon="4.76792">
        <ele>190</ele>
        <time>2017-04-03T10:20:26Z</time>
      </trkpt>
      <trkpt lat="45.95829" lon="4.76785">
        <ele>190</ele>
        <time>2017-04-03T10:20:27Z</time>
      </trkpt>
      <trkpt lat="45.95827" lon="4.76777">
        <ele>190</ele>
        <time>2017-04-03T10:20:28Z</time>
      </trkpt>
      <trkpt lat="45.95826" lon="4.76769">
        <ele>190</ele>
        <time>2017-04-03T10:20:29Z</time>
      </trkpt>
      <trkpt lat="45.95825" lon="4.76761">
        <ele>190</ele>
        <time>2017-04-03T10:20:30Z</time>
      </trkpt>
      <trkpt lat="45.95823" lon="4.76753">
        <ele>191</ele>
        <time>2017-04-03T10:20:31Z</time>
      </trkpt>
      <trkpt lat="45.95821" lon="4.76744">
        <ele>190</ele>
        <time>2017-04-03T10:20:32Z</time>
      </trkpt>
      <trkpt lat="45.9582" lon="4.76736">
        <ele>190</ele>
        <time>2017-04-03T10:20:33Z</time>
      </trkpt>
      <trkpt lat="45.95819" lon="4.76727">
        <ele>190</ele>
        <time>2017-04-03T10:20:34Z</time>
      </trkpt>
      <trkpt lat="45.95817" lon="4.76718">
        <ele>189</ele>
        <time>2017-04-03T10:20:35Z</time>
      </trkpt>
      <trkpt lat="45.95816" lon="4.76709">
        <ele>189</ele>
        <time>2017-04-03T10:20:36Z</time>
      </trkpt>
      <trkpt lat="45.95815" lon="4.767">
        <ele>189</ele>
        <time>2017-04-03T10:20:37Z</time>
      </trkpt>
      <trkpt lat="45.95814" lon="4.76691">
        <ele>189</ele>
        <time>2017-04-03T10:20:38Z</time>
      </trkpt>
      <trkpt lat="45.95813" lon="4.76682">
        <ele>189</ele>
        <time>2017-04-03T10:20:39Z</time>
      </trkpt>
      <trkpt lat="45.95812" lon="4.76674">
        <ele>189</ele>
        <time>2017-04-03T10:20:40Z</time>
      </trkpt>
      <trkpt lat="45.95812" lon="4.76666">
        <ele>188</ele>
        <time>2017-04-03T10:20:41Z</time>
      </trkpt>
      <trkpt lat="45.95811" lon="4.76657">
        <ele>188</ele>
        <time>2017-04-03T10:20:42Z</time>
      </trkpt>
      <trkpt lat="45.95811" lon="4.7665">
        <ele>188</ele>
        <time>2017-04-03T10:20:43Z</time>
      </trkpt>
      <trkpt lat="45.95809" lon="4.76642">
        <ele>188</ele>
        <time>2017-04-03T10:20:44Z</time>
      </trkpt>
      <trkpt lat="45.95807" lon="4.76634">
        <ele>188</ele>
        <time>2017-04-03T10:20:45Z</time>
      </trkpt>
      <trkpt lat="45.95805" lon="4.76627">
        <ele>188</ele>
        <time>2017-04-03T10:20:46Z</time>
      </trkpt>
      <trkpt lat="45.95803" lon="4.7662">
        <ele>188</ele>
        <time>2017-04-03T10:20:47Z</time>
      </trkpt>
      <trkpt lat="45.95803" lon="4.76613">
        <ele>188</ele>
        <time>2017-04-03T10:20:48Z</time>
      </trkpt>
      <trkpt lat="45.95802" lon="4.76605">
        <ele>187</ele>
        <time>2017-04-03T10:20:49Z</time>
      </trkpt>
      <trkpt lat="45.95801" lon="4.76596">
        <ele>187</ele>
        <time>2017-04-03T10:20:50Z</time>
      </trkpt>
      <trkpt lat="45.958" lon="4.76588">
        <ele>187</ele>
        <time>2017-04-03T10:20:51Z</time>
      </trkpt>
      <trkpt lat="45.95799" lon="4.76579">
        <ele>187</ele>
        <time>2017-04-03T10:20:52Z</time>
      </trkpt>
      <trkpt lat="45.95798" lon="4.76569">
        <ele>187</ele>
        <time>2017-04-03T10:20:53Z</time>
      </trkpt>
      <trkpt lat="45.95797" lon="4.7656">
        <ele>187</ele>
        <time>2017-04-03T10:20:54Z</time>
      </trkpt>
      <trkpt lat="45.95796" lon="4.7655">
        <ele>187</ele>
        <time>2017-04-03T10:20:55Z</time>
      </trkpt>
      <trkpt lat="45.95794" lon="4.7654">
        <ele>187</ele>
        <time>2017-04-03T10:20:56Z</time>
      </trkpt>
      <trkpt lat="45.95792" lon="4.76531">
        <ele>187</ele>
        <time>2017-04-03T10:20:57Z</time>
      </trkpt>
      <trkpt lat="45.9579" lon="4.76522">
        <ele>187</ele>
        <time>2017-04-03T10:20:58Z</time>
      </trkpt>
      <trkpt lat="45.95789" lon="4.76513">
        <ele>187</ele>
        <time>2017-04-03T10:20:59Z</time>
      </trkpt>
      <trkpt lat="45.95788" lon="4.76504">
        <ele>187</ele>
        <time>2017-04-03T10:21:00Z</time>
      </trkpt>
      <trkpt lat="45.95786" lon="4.76495">
        <ele>186</ele>
        <time>2017-04-03T10:21:01Z</time>
      </trkpt>
      <trkpt lat="45.95785" lon="4.76486">
        <ele>186</ele>
        <time>2017-04-03T10:21:02Z</time>
      </trkpt>
      <trkpt lat="45.95784" lon="4.76478">
        <ele>186</ele>
        <time>2017-04-03T10:21:03Z</time>
      </trkpt>
      <trkpt lat="45.95782" lon="4.7647">
        <ele>186</ele>
        <time>2017-04-03T10:21:04Z</time>
      </trkpt>
      <trkpt lat="45.95781" lon="4.76462">
        <ele>186</ele>
        <time>2017-04-03T10:21:05Z</time>
      </trkpt>
      <trkpt lat="45.9578" lon="4.76454">
        <ele>186</ele>
        <time>2017-04-03T10:21:06Z</time>
      </trkpt>
      <trkpt lat="45.95779" lon="4.76446">
        <ele>186</ele>
        <time>2017-04-03T10:21:07Z</time>
      </trkpt>
      <trkpt lat="45.95778" lon="4.76438">
        <ele>186</ele>
        <time>2017-04-03T10:21:08Z</time>
      </trkpt>
      <trkpt lat="45.95777" lon="4.76429">
        <ele>186</ele>
        <time>2017-04-03T10:21:09Z</time>
      </trkpt>
      <trkpt lat="45.95776" lon="4.76421">
        <ele>186</ele>
        <time>2017-04-03T10:21:10Z</time>
      </trkpt>
      <trkpt lat="45.95776" lon="4.76412">
        <ele>186</ele>
        <time>2017-04-03T10:21:11Z</time>
      </trkpt>
      <trkpt lat="45.95775" lon="4.76404">
        <ele>186</ele>
        <time>2017-04-03T10:21:12Z</time>
      </trkpt>
      <trkpt lat="45.95775" lon="4.76395">
        <ele>186</ele>
        <time>2017-04-03T10:21:13Z</time>
      </trkpt>
      <trkpt lat="45.95774" lon="4.76386">
        <ele>186</ele>
        <time>2017-04-03T10:21:14Z</time>
      </trkpt>
      <trkpt lat="45.95773" lon="4.76378">
        <ele>186</ele>
        <time>2017-04-03T10:21:15Z</time>
      </trkpt>
      <trkpt lat="45.95773" lon="4.76369">
        <ele>186</ele>
        <time>2017-04-03T10:21:16Z</time>
      </trkpt>
      <trkpt lat="45.95772" lon="4.7636">
        <ele>186</ele>
        <time>2017-04-03T10:21:17Z</time>
      </trkpt>
      <trkpt lat="45.95771" lon="4.76351">
        <ele>186</ele>
        <time>2017-04-03T10:21:18Z</time>
      </trkpt>
      <trkpt lat="45.95771" lon="4.76342">
        <ele>186</ele>
        <time>2017-04-03T10:21:19Z</time>
      </trkpt>
      <trkpt lat="45.9577" lon="4.76333">
        <ele>185</ele>
        <time>2017-04-03T10:21:20Z</time>
      </trkpt>
      <trkpt lat="45.9577" lon="4.76324">
        <ele>185</ele>
        <time>2017-04-03T10:21:21Z</time>
      </trkpt>
      <trkpt lat="45.95769" lon="4.76315">
        <ele>185</ele>
        <time>2017-04-03T10:21:22Z</time>
      </trkpt>
      <trkpt lat="45.95769" lon="4.76306">
        <ele>186</ele>
        <time>2017-04-03T10:21:23Z</time>
      </trkpt>
      <trkpt lat="45.95769" lon="4.76297">
        <ele>186</ele>
        <time>2017-04-03T10:21:24Z</time>
      </trkpt>
      <trkpt lat="45.95768" lon="4.76288">
        <ele>186</ele>
        <time>2017-04-03T10:21:25Z</time>
      </trkpt>
      <trkpt lat="45.95768" lon="4.76279">
        <ele>186</ele>
        <time>2017-04-03T10:21:26Z</time>
      </trkpt>
      <trkpt lat="45.95767" lon="4.76271">
        <ele>186</ele>
        <time>2017-04-03T10:21:27Z</time>
      </trkpt>
      <trkpt lat="45.95767" lon="4.76262">
        <ele>185</ele>
        <time>2017-04-03T10:21:28Z</time>
      </trkpt>
      <trkpt lat="45.95767" lon="4.76254">
        <ele>185</ele>
        <time>2017-04-03T10:21:29Z</time>
      </trkpt>
      <trkpt lat="45.95766" lon="4.76245">
        <ele>186</ele>
        <time>2017-04-03T10:21:30Z</time>
      </trkpt>
      <trkpt lat="45.95766" lon="4.76237">
        <ele>186</ele>
        <time>2017-04-03T10:21:31Z</time>
      </trkpt>
      <trkpt lat="45.95765" lon="4.76229">
        <ele>186</ele>
        <time>2017-04-03T10:21:32Z</time>
      </trkpt>
      <trkpt lat="45.95765" lon="4.76221">
        <ele>186</ele>
        <time>2017-04-03T10:21:33Z</time>
      </trkpt>
      <trkpt lat="45.95765" lon="4.76213">
        <ele>186</ele>
        <time>2017-04-03T10:21:34Z</time>
      </trkpt>
      <trkpt lat="45.95764" lon="4.76205">
        <ele>186</ele>
        <time>2017-04-03T10:21:35Z</time>
      </trkpt>
      <trkpt lat="45.95764" lon="4.76196">
        <ele>186</ele>
        <time>2017-04-03T10:21:36Z</time>
      </trkpt>
      <trkpt lat="45.95764" lon="4.76187">
        <ele>186</ele>
        <time>2017-04-03T10:21:37Z</time>
      </trkpt>
      <trkpt lat="45.95763" lon="4.76178">
        <ele>185</ele>
        <time>2017-04-03T10:21:38Z</time>
      </trkpt>
      <trkpt lat="45.95762" lon="4.76169">
        <ele>185</ele>
        <time>2017-04-03T10:21:39Z</time>
      </trkpt>
      <trkpt lat="45.95762" lon="4.7616">
        <ele>186</ele>
        <time>2017-04-03T10:21:40Z</time>
      </trkpt>
      <trkpt lat="45.95761" lon="4.76151">
        <ele>186</ele>
        <time>2017-04-03T10:21:41Z</time>
      </trkpt>
      <trkpt lat="45.95761" lon="4.76141">
        <ele>186</ele>
        <time>2017-04-03T10:21:42Z</time>
      </trkpt>
      <trkpt lat="45.9576" lon="4.76132">
        <ele>186</ele>
        <time>2017-04-03T10:21:43Z</time>
      </trkpt>
      <trkpt lat="45.95759" lon="4.76122">
        <ele>186</ele>
        <time>2017-04-03T10:21:44Z</time>
      </trkpt>
      <trkpt lat="45.95757" lon="4.76113">
        <ele>186</ele>
        <time>2017-04-03T10:21:45Z</time>
      </trkpt>
      <trkpt lat="45.95755" lon="4.76103">
        <ele>186</ele>
        <time>2017-04-03T10:21:46Z</time>
      </trkpt>
      <trkpt lat="45.95753" lon="4.76094">
        <ele>186</ele>
        <time>2017-04-03T10:21:47Z</time>
      </trkpt>
      <trkpt lat="45.95751" lon="4.76085">
        <ele>185</ele>
        <time>2017-04-03T10:21:48Z</time>
      </trkpt>
      <trkpt lat="45.95748" lon="4.76077">
        <ele>185</ele>
        <time>2017-04-03T10:21:49Z</time>
      </trkpt>
      <trkpt lat="45.95745" lon="4.76069">
        <ele>185</ele>
        <time>2017-04-03T10:21:50Z</time>
      </trkpt>
      <trkpt lat="45.95742" lon="4.76061">
        <ele>184</ele>
        <time>2017-04-03T10:21:51Z</time>
      </trkpt>
      <trkpt lat="45.95738" lon="4.76053">
        <ele>184</ele>
        <time>2017-04-03T10:21:52Z</time>
      </trkpt>
      <trkpt lat="45.95734" lon="4.76045">
        <ele>184</ele>
        <time>2017-04-03T10:21:53Z</time>
      </trkpt>
      <trkpt lat="45.95731" lon="4.76037">
        <ele>184</ele>
        <time>2017-04-03T10:21:54Z</time>
      </trkpt>
      <trkpt lat="45.95728" lon="4.76029">
        <ele>184</ele>
        <time>2017-04-03T10:21:55Z</time>
      </trkpt>
      <trkpt lat="45.95724" lon="4.76021">
        <ele>184</ele>
        <time>2017-04-03T10:21:56Z</time>
      </trkpt>
      <trkpt lat="45.9572" lon="4.76014">
        <ele>184</ele>
        <time>2017-04-03T10:21:57Z</time>
      </trkpt>
      <trkpt lat="45.95716" lon="4.76006">
        <ele>184</ele>
        <time>2017-04-03T10:21:58Z</time>
      </trkpt>
      <trkpt lat="45.95713" lon="4.75999">
        <ele>185</ele>
        <time>2017-04-03T10:21:59Z</time>
      </trkpt>
      <trkpt lat="45.95709" lon="4.75992">
        <ele>185</ele>
        <time>2017-04-03T10:22:00Z</time>
      </trkpt>
      <trkpt lat="45.95706" lon="4.75985">
        <ele>185</ele>
        <time>2017-04-03T10:22:01Z</time>
      </trkpt>
      <trkpt lat="45.95703" lon="4.75977">
        <ele>185</ele>
        <time>2017-04-03T10:22:02Z</time>
      </trkpt>
      <trkpt lat="45.957" lon="4.7597">
        <ele>185</ele>
        <time>2017-04-03T10:22:03Z</time>
      </trkpt>
      <trkpt lat="45.95696" lon="4.75963">
        <ele>185</ele>
        <time>2017-04-03T10:22:04Z</time>
      </trkpt>
      <trkpt lat="45.95693" lon="4.75956">
        <ele>185</ele>
        <time>2017-04-03T10:22:05Z</time>
      </trkpt>
      <trkpt lat="45.9569" lon="4.75949">
        <ele>185</ele>
        <time>2017-04-03T10:22:06Z</time>
      </trkpt>
      <trkpt lat="45.95686" lon="4.75942">
        <ele>185</ele>
        <time>2017-04-03T10:22:07Z</time>
      </trkpt>
      <trkpt lat="45.95683" lon="4.75934">
        <ele>185</ele>
        <time>2017-04-03T10:22:08Z</time>
      </trkpt>
      <trkpt lat="45.9568" lon="4.75927">
        <ele>185</ele>
        <time>2017-04-03T10:22:09Z</time>
      </trkpt>
      <trkpt lat="45.95677" lon="4.7592">
        <ele>184</ele>
        <time>2017-04-03T10:22:10Z</time>
      </trkpt>
      <trkpt lat="45.95673" lon="4.75912">
        <ele>185</ele>
        <time>2017-04-03T10:22:11Z</time>
      </trkpt>
      <trkpt lat="45.9567" lon="4.75905">
        <ele>185</ele>
        <time>2017-04-03T10:22:12Z</time>
      </trkpt>
      <trkpt lat="45.95667" lon="4.75898">
        <ele>185</ele>
        <time>2017-04-03T10:22:13Z</time>
      </trkpt>
      <trkpt lat="45.95664" lon="4.7589">
        <ele>184</ele>
        <time>2017-04-03T10:22:14Z</time>
      </trkpt>
      <trkpt lat="45.95661" lon="4.75882">
        <ele>184</ele>
        <time>2017-04-03T10:22:15Z</time>
      </trkpt>
      <trkpt lat="45.95658" lon="4.75874">
        <ele>184</ele>
        <time>2017-04-03T10:22:16Z</time>
      </trkpt>
      <trkpt lat="45.95656" lon="4.75866">
        <ele>184</ele>
        <time>2017-04-03T10:22:17Z</time>
      </trkpt>
      <trkpt lat="45.95654" lon="4.75857">
        <ele>184</ele>
        <time>2017-04-03T10:22:18Z</time>
      </trkpt>
      <trkpt lat="45.95651" lon="4.75848">
        <ele>185</ele>
        <time>2017-04-03T10:22:19Z</time>
      </trkpt>
      <trkpt lat="45.95649" lon="4.75839">
        <ele>185</ele>
        <time>2017-04-03T10:22:20Z</time>
      </trkpt>
      <trkpt lat="45.95647" lon="4.75831">
        <ele>185</ele>
        <time>2017-04-03T10:22:21Z</time>
      </trkpt>
      <trkpt lat="45.95645" lon="4.75822">
        <ele>185</ele>
        <time>2017-04-03T10:22:22Z</time>
      </trkpt>
      <trkpt lat="45.95643" lon="4.75813">
        <ele>185</ele>
        <time>2017-04-03T10:22:23Z</time>
      </trkpt>
      <trkpt lat="45.95641" lon="4.75803">
        <ele>185</ele>
        <time>2017-04-03T10:22:24Z</time>
      </trkpt>
      <trkpt lat="45.95639" lon="4.75795">
        <ele>185</ele>
        <time>2017-04-03T10:22:25Z</time>
      </trkpt>
      <trkpt lat="45.95638" lon="4.75787">
        <ele>185</ele>
        <time>2017-04-03T10:22:26Z</time>
      </trkpt>
      <trkpt lat="45.95637" lon="4.75779">
        <ele>185</ele>
        <time>2017-04-03T10:22:27Z</time>
      </trkpt>
      <trkpt lat="45.95636" lon="4.75771">
        <ele>186</ele>
        <time>2017-04-03T10:22:28Z</time>
      </trkpt>
      <trkpt lat="45.95635" lon="4.75763">
        <ele>186</ele>
        <time>2017-04-03T10:22:29Z</time>
      </trkpt>
      <trkpt lat="45.95634" lon="4.75755">
        <ele>186</ele>
        <time>2017-04-03T10:22:30Z</time>
      </trkpt>
      <trkpt lat="45.95633" lon="4.75748">
        <ele>187</ele>
        <time>2017-04-03T10:22:31Z</time>
      </trkpt>
      <trkpt lat="45.95632" lon="4.75741">
        <ele>187</ele>
        <time>2017-04-03T10:22:32Z</time>
      </trkpt>
      <trkpt lat="45.95631" lon="4.75733">
        <ele>187</ele>
        <time>2017-04-03T10:22:33Z</time>
      </trkpt>
      <trkpt lat="45.9563" lon="4.75726">
        <ele>187</ele>
        <time>2017-04-03T10:22:34Z</time>
      </trkpt>
      <trkpt lat="45.95629" lon="4.75718">
        <ele>187</ele>
        <time>2017-04-03T10:22:35Z</time>
      </trkpt>
      <trkpt lat="45.95628" lon="4.75711">
        <ele>187</ele>
        <time>2017-04-03T10:22:36Z</time>
      </trkpt>
      <trkpt lat="45.95627" lon="4.75704">
        <ele>187</ele>
        <time>2017-04-03T10:22:37Z</time>
      </trkpt>
      <trkpt lat="45.95626" lon="4.75696">
        <ele>187</ele>
        <time>2017-04-03T10:22:38Z</time>
      </trkpt>
      <trkpt lat="45.95626" lon="4.75689">
        <ele>187</ele>
        <time>2017-04-03T10:22:39Z</time>
      </trkpt>
      <trkpt lat="45.95625" lon="4.75681">
        <ele>187</ele>
        <time>2017-04-03T10:22:40Z</time>
      </trkpt>
      <trkpt lat="45.95624" lon="4.75673">
        <ele>187</ele>
        <time>2017-04-03T10:22:41Z</time>
      </trkpt>
      <trkpt lat="45.95623" lon="4.75666">
        <ele>188</ele>
        <time>2017-04-03T10:22:42Z</time>
      </trkpt>
      <trkpt lat="45.95622" lon="4.75659">
        <ele>188</ele>
        <time>2017-04-03T10:22:43Z</time>
      </trkpt>
      <trkpt lat="45.9562" lon="4.75651">
        <ele>188</ele>
        <time>2017-04-03T10:22:44Z</time>
      </trkpt>
      <trkpt lat="45.95619" lon="4.75644">
        <ele>188</ele>
        <time>2017-04-03T10:22:45Z</time>
      </trkpt>
      <trkpt lat="45.95617" lon="4.75636">
        <ele>188</ele>
        <time>2017-04-03T10:22:46Z</time>
      </trkpt>
      <trkpt lat="45.95615" lon="4.75629">
        <ele>188</ele>
        <time>2017-04-03T10:22:47Z</time>
      </trkpt>
      <trkpt lat="45.95613" lon="4.75621">
        <ele>188</ele>
        <time>2017-04-03T10:22:48Z</time>
      </trkpt>
      <trkpt lat="45.95611" lon="4.75614">
        <ele>188</ele>
        <time>2017-04-03T10:22:49Z</time>
      </trkpt>
      <trkpt lat="45.95608" lon="4.75606">
        <ele>188</ele>
        <time>2017-04-03T10:22:50Z</time>
      </trkpt>
      <trkpt lat="45.95606" lon="4.75598">
        <ele>187</ele>
        <time>2017-04-03T10:22:51Z</time>
      </trkpt>
      <trkpt lat="45.95603" lon="4.75591">
        <ele>187</ele>
        <time>2017-04-03T10:22:52Z</time>
      </trkpt>
      <trkpt lat="45.956" lon="4.75583">
        <ele>188</ele>
        <time>2017-04-03T10:22:53Z</time>
      </trkpt>
      <trkpt lat="45.95597" lon="4.75576">
        <ele>188</ele>
        <time>2017-04-03T10:22:54Z</time>
      </trkpt>
      <trkpt lat="45.95594" lon="4.75568">
        <ele>188</ele>
        <time>2017-04-03T10:22:55Z</time>
      </trkpt>
      <trkpt lat="45.95589" lon="4.75561">
        <ele>188</ele>
        <time>2017-04-03T10:22:56Z</time>
      </trkpt>
      <trkpt lat="45.95585" lon="4.75555">
        <ele>188</ele>
        <time>2017-04-03T10:22:57Z</time>
      </trkpt>
      <trkpt lat="45.95581" lon="4.75548">
        <ele>186</ele>
        <time>2017-04-03T10:22:58Z</time>
      </trkpt>
      <trkpt lat="45.95576" lon="4.75542">
        <ele>186</ele>
        <time>2017-04-03T10:22:59Z</time>
      </trkpt>
      <trkpt lat="45.95571" lon="4.75537">
        <ele>186</ele>
        <time>2017-04-03T10:23:00Z</time>
      </trkpt>
      <trkpt lat="45.95566" lon="4.75532">
        <ele>186</ele>
        <time>2017-04-03T10:23:01Z</time>
      </trkpt>
      <trkpt lat="45.95561" lon="4.75526">
        <ele>186</ele>
        <time>2017-04-03T10:23:02Z</time>
      </trkpt>
      <trkpt lat="45.95556" lon="4.7552">
        <ele>186</ele>
        <time>2017-04-03T10:23:03Z</time>
      </trkpt>
      <trkpt lat="45.95552" lon="4.75514">
        <ele>186</ele>
        <time>2017-04-03T10:23:04Z</time>
      </trkpt>
      <trkpt lat="45.95547" lon="4.75507">
        <ele>186</ele>
        <time>2017-04-03T10:23:05Z</time>
      </trkpt>
      <trkpt lat="45.95544" lon="4.755">
        <ele>186</ele>
        <time>2017-04-03T10:23:06Z</time>
      </trkpt>
      <trkpt lat="45.95541" lon="4.75493">
        <ele>187</ele>
        <time>2017-04-03T10:23:07Z</time>
      </trkpt>
      <trkpt lat="45.95539" lon="4.75485">
        <ele>187</ele>
        <time>2017-04-03T10:23:08Z</time>
      </trkpt>
      <trkpt lat="45.95538" lon="4.75477">
        <ele>187</ele>
        <time>2017-04-03T10:23:09Z</time>
      </trkpt>
      <trkpt lat="45.95538" lon="4.7547">
        <ele>187</ele>
        <time>2017-04-03T10:23:10Z</time>
      </trkpt>
      <trkpt lat="45.95537" lon="4.75462">
        <ele>187</ele>
        <time>2017-04-03T10:23:11Z</time>
      </trkpt>
      <trkpt lat="45.95535" lon="4.75454">
        <ele>187</ele>
        <time>2017-04-03T10:23:12Z</time>
      </trkpt>
      <trkpt lat="45.95532" lon="4.75447">
        <ele>187</ele>
        <time>2017-04-03T10:23:13Z</time>
      </trkpt>
      <trkpt lat="45.95527" lon="4.75441">
        <ele>187</ele>
        <time>2017-04-03T10:23:14Z</time>
      </trkpt>
      <trkpt lat="45.95522" lon="4.75434">
        <ele>187</ele>
        <time>2017-04-03T10:23:15Z</time>
      </trkpt>
      <trkpt lat="45.95517" lon="4.75427">
        <ele>186</ele>
        <time>2017-04-03T10:23:16Z</time>
      </trkpt>
      <trkpt lat="45.95513" lon="4.75419">
        <ele>186</ele>
        <time>2017-04-03T10:23:17Z</time>
      </trkpt>
      <trkpt lat="45.95511" lon="4.75412">
        <ele>187</ele>
        <time>2017-04-03T10:23:18Z</time>
      </trkpt>
      <trkpt lat="45.95508" lon="4.75405">
        <ele>187</ele>
        <time>2017-04-03T10:23:19Z</time>
      </trkpt>
      <trkpt lat="45.95506" lon="4.75398">
        <ele>187</ele>
        <time>2017-04-03T10:23:20Z</time>
      </trkpt>
      <trkpt lat="45.95503" lon="4.75392">
        <ele>188</ele>
        <time>2017-04-03T10:23:21Z</time>
      </trkpt>
      <trkpt lat="45.955" lon="4.75386">
        <ele>188</ele>
        <time>2017-04-03T10:23:22Z</time>
      </trkpt>
      <trkpt lat="45.95498" lon="4.7538">
        <ele>185</ele>
        <time>2017-04-03T10:23:23Z</time>
      </trkpt>
      <trkpt lat="45.95495" lon="4.75374">
        <ele>185</ele>
        <time>2017-04-03T10:23:24Z</time>
      </trkpt>
      <trkpt lat="45.95492" lon="4.75367">
        <ele>186</ele>
        <time>2017-04-03T10:23:25Z</time>
      </trkpt>
      <trkpt lat="45.95489" lon="4.75361">
        <ele>186</ele>
        <time>2017-04-03T10:23:26Z</time>
      </trkpt>
      <trkpt lat="45.95485" lon="4.75355">
        <ele>186</ele>
        <time>2017-04-03T10:23:27Z</time>
      </trkpt>
      <trkpt lat="45.95482" lon="4.75348">
        <ele>186</ele>
        <time>2017-04-03T10:23:28Z</time>
      </trkpt>
      <trkpt lat="45.95479" lon="4.75342">
        <ele>186</ele>
        <time>2017-04-03T10:23:29Z</time>
      </trkpt>
      <trkpt lat="45.95475" lon="4.75336">
        <ele>186</ele>
        <time>2017-04-03T10:23:30Z</time>
      </trkpt>
      <trkpt lat="45.95472" lon="4.75329">
        <ele>188</ele>
        <time>2017-04-03T10:23:31Z</time>
      </trkpt>
      <trkpt lat="45.95469" lon="4.75323">
        <ele>188</ele>
        <time>2017-04-03T10:23:32Z</time>
      </trkpt>
      <trkpt lat="45.95465" lon="4.75317">
        <ele>188</ele>
        <time>2017-04-03T10:23:33Z</time>
      </trkpt>
      <trkpt lat="45.95462" lon="4.75311">
        <ele>188</ele>
        <time>2017-04-03T10:23:34Z</time>
      </trkpt>
      <trkpt lat="45.95459" lon="4.75304">
        <ele>188</ele>
        <time>2017-04-03T10:23:35Z</time>
      </trkpt>
      <trkpt lat="45.95455" lon="4.75298">
        <ele>188</ele>
        <time>2017-04-03T10:23:36Z</time>
      </trkpt>
      <trkpt lat="45.95452" lon="4.75292">
        <ele>188</ele>
        <time>2017-04-03T10:23:37Z</time>
      </trkpt>
      <trkpt lat="45.95449" lon="4.75286">
        <ele>188</ele>
        <time>2017-04-03T10:23:38Z</time>
      </trkpt>
      <trkpt lat="45.95445" lon="4.7528">
        <ele>188</ele>
        <time>2017-04-03T10:23:39Z</time>
      </trkpt>
      <trkpt lat="45.95442" lon="4.75274">
        <ele>189</ele>
        <time>2017-04-03T10:23:40Z</time>
      </trkpt>
      <trkpt lat="45.95439" lon="4.75268">
        <ele>189</ele>
        <time>2017-04-03T10:23:41Z</time>
      </trkpt>
      <trkpt lat="45.95436" lon="4.75261">
        <ele>189</ele>
        <time>2017-04-03T10:23:42Z</time>
      </trkpt>
      <trkpt lat="45.95433" lon="4.75255">
        <ele>189</ele>
        <time>2017-04-03T10:23:43Z</time>
      </trkpt>
      <trkpt lat="45.9543" lon="4.75248">
        <ele>190</ele>
        <time>2017-04-03T10:23:44Z</time>
      </trkpt>
      <trkpt lat="45.95427" lon="4.75241">
        <ele>190</ele>
        <time>2017-04-03T10:23:45Z</time>
      </trkpt>
      <trkpt lat="45.95424" lon="4.75234">
        <ele>190</ele>
        <time>2017-04-03T10:23:46Z</time>
      </trkpt>
      <trkpt lat="45.95422" lon="4.75226">
        <ele>191</ele>
        <time>2017-04-03T10:23:47Z</time>
      </trkpt>
      <trkpt lat="45.95418" lon="4.7522">
        <ele>191</ele>
        <time>2017-04-03T10:23:48Z</time>
      </trkpt>
      <trkpt lat="45.95415" lon="4.75214">
        <ele>189</ele>
        <time>2017-04-03T10:23:49Z</time>
      </trkpt>
      <trkpt lat="45.95411" lon="4.75208">
        <ele>189</ele>
        <time>2017-04-03T10:23:50Z</time>
      </trkpt>
      <trkpt lat="45.95408" lon="4.75202">
        <ele>189</ele>
        <time>2017-04-03T10:23:51Z</time>
      </trkpt>
      <trkpt lat="45.95404" lon="4.75196">
        <ele>189</ele>
        <time>2017-04-03T10:23:52Z</time>
      </trkpt>
      <trkpt lat="45.95401" lon="4.7519">
        <ele>189</ele>
        <time>2017-04-03T10:23:53Z</time>
      </trkpt>
      <trkpt lat="45.95397" lon="4.75184">
        <ele>189</ele>
        <time>2017-04-03T10:23:54Z</time>
      </trkpt>
      <trkpt lat="45.95394" lon="4.75178">
        <ele>189</ele>
        <time>2017-04-03T10:23:55Z</time>
      </trkpt>
      <trkpt lat="45.95391" lon="4.75172">
        <ele>189</ele>
        <time>2017-04-03T10:23:56Z</time>
      </trkpt>
      <trkpt lat="45.95387" lon="4.75167">
        <ele>191</ele>
        <time>2017-04-03T10:23:57Z</time>
      </trkpt>
      <trkpt lat="45.95384" lon="4.75161">
        <ele>191</ele>
        <time>2017-04-03T10:23:58Z</time>
      </trkpt>
      <trkpt lat="45.95381" lon="4.75155">
        <ele>191</ele>
        <time>2017-04-03T10:23:59Z</time>
      </trkpt>
      <trkpt lat="45.95377" lon="4.75149">
        <ele>191</ele>
        <time>2017-04-03T10:24:00Z</time>
      </trkpt>
      <trkpt lat="45.95374" lon="4.75143">
        <ele>191</ele>
        <time>2017-04-03T10:24:01Z</time>
      </trkpt>
      <trkpt lat="45.95371" lon="4.75137">
        <ele>191</ele>
        <time>2017-04-03T10:24:02Z</time>
      </trkpt>
      <trkpt lat="45.95367" lon="4.75132">
        <ele>191</ele>
        <time>2017-04-03T10:24:03Z</time>
      </trkpt>
      <trkpt lat="45.95364" lon="4.75126">
        <ele>191</ele>
        <time>2017-04-03T10:24:04Z</time>
      </trkpt>
      <trkpt lat="45.9536" lon="4.75121">
        <ele>191</ele>
        <time>2017-04-03T10:24:05Z</time>
      </trkpt>
      <trkpt lat="45.95357" lon="4.75115">
        <ele>192</ele>
        <time>2017-04-03T10:24:06Z</time>
      </trkpt>
      <trkpt lat="45.95353" lon="4.7511">
        <ele>192</ele>
        <time>2017-04-03T10:24:07Z</time>
      </trkpt>
      <trkpt lat="45.95349" lon="4.75105">
        <ele>192</ele>
        <time>2017-04-03T10:24:08Z</time>
      </trkpt>
      <trkpt lat="45.95346" lon="4.751">
        <ele>192</ele>
        <time>2017-04-03T10:24:09Z</time>
      </trkpt>
      <trkpt lat="45.95342" lon="4.75095">
        <ele>192</ele>
        <time>2017-04-03T10:24:10Z</time>
      </trkpt>
      <trkpt lat="45.95339" lon="4.75089">
        <ele>193</ele>
        <time>2017-04-03T10:24:11Z</time>
      </trkpt>
      <trkpt lat="45.95335" lon="4.75084">
        <ele>193</ele>
        <time>2017-04-03T10:24:12Z</time>
      </trkpt>
      <trkpt lat="45.95331" lon="4.75079">
        <ele>193</ele>
        <time>2017-04-03T10:24:13Z</time>
      </trkpt>
      <trkpt lat="45.95327" lon="4.75073">
        <ele>192</ele>
        <time>2017-04-03T10:24:14Z</time>
      </trkpt>
      <trkpt lat="45.95323" lon="4.75067">
        <ele>192</ele>
        <time>2017-04-03T10:24:15Z</time>
      </trkpt>
      <trkpt lat="45.95319" lon="4.75061">
        <ele>192</ele>
        <time>2017-04-03T10:24:16Z</time>
      </trkpt>
      <trkpt lat="45.95315" lon="4.75055">
        <ele>192</ele>
        <time>2017-04-03T10:24:17Z</time>
      </trkpt>
      <trkpt lat="45.95313" lon="4.75049">
        <ele>192</ele>
        <time>2017-04-03T10:24:18Z</time>
      </trkpt>
      <trkpt lat="45.9531" lon="4.75043">
        <ele>192</ele>
        <time>2017-04-03T10:24:19Z</time>
      </trkpt>
      <trkpt lat="45.95306" lon="4.75038">
        <ele>192</ele>
        <time>2017-04-03T10:24:20Z</time>
      </trkpt>
      <trkpt lat="45.95302" lon="4.75033">
        <ele>192</ele>
        <time>2017-04-03T10:24:21Z</time>
      </trkpt>
      <trkpt lat="45.95299" lon="4.75027">
        <ele>192</ele>
        <time>2017-04-03T10:24:22Z</time>
      </trkpt>
      <trkpt lat="45.95296" lon="4.75022">
        <ele>191</ele>
        <time>2017-04-03T10:24:23Z</time>
      </trkpt>
      <trkpt lat="45.95292" lon="4.75017">
        <ele>191</ele>
        <time>2017-04-03T10:24:24Z</time>
      </trkpt>
      <trkpt lat="45.95289" lon="4.75012">
        <ele>191</ele>
        <time>2017-04-03T10:24:25Z</time>
      </trkpt>
      <trkpt lat="45.95287" lon="4.75006">
        <ele>191</ele>
        <time>2017-04-03T10:24:26Z</time>
      </trkpt>
      <trkpt lat="45.95284" lon="4.75001">
        <ele>191</ele>
        <time>2017-04-03T10:24:27Z</time>
      </trkpt>
      <trkpt lat="45.95281" lon="4.74995">
        <ele>192</ele>
        <time>2017-04-03T10:24:28Z</time>
      </trkpt>
      <trkpt lat="45.95277" lon="4.74989">
        <ele>192</ele>
        <time>2017-04-03T10:24:29Z</time>
      </trkpt>
      <trkpt lat="45.95274" lon="4.74984">
        <ele>192</ele>
        <time>2017-04-03T10:24:30Z</time>
      </trkpt>
      <trkpt lat="45.95271" lon="4.74978">
        <ele>192</ele>
        <time>2017-04-03T10:24:31Z</time>
      </trkpt>
      <trkpt lat="45.95267" lon="4.74973">
        <ele>192</ele>
        <time>2017-04-03T10:24:32Z</time>
      </trkpt>
      <trkpt lat="45.95264" lon="4.74967">
        <ele>192</ele>
        <time>2017-04-03T10:24:33Z</time>
      </trkpt>
      <trkpt lat="45.9526" lon="4.74962">
        <ele>192</ele>
        <time>2017-04-03T10:24:34Z</time>
      </trkpt>
      <trkpt lat="45.95256" lon="4.74956">
        <ele>192</ele>
        <time>2017-04-03T10:24:35Z</time>
      </trkpt>
      <trkpt lat="45.95252" lon="4.74951">
        <ele>192</ele>
        <time>2017-04-03T10:24:36Z</time>
      </trkpt>
      <trkpt lat="45.95248" lon="4.74945">
        <ele>192</ele>
        <time>2017-04-03T10:24:37Z</time>
      </trkpt>
      <trkpt lat="45.95243" lon="4.7494">
        <ele>192</ele>
        <time>2017-04-03T10:24:38Z</time>
      </trkpt>
      <trkpt lat="45.9524" lon="4.74935">
        <ele>192</ele>
        <time>2017-04-03T10:24:39Z</time>
      </trkpt>
      <trkpt lat="45.95236" lon="4.74929">
        <ele>192</ele>
        <time>2017-04-03T10:24:40Z</time>
      </trkpt>
      <trkpt lat="45.95232" lon="4.74924">
        <ele>192</ele>
        <time>2017-04-03T10:24:41Z</time>
      </trkpt>
      <trkpt lat="45.95228" lon="4.74918">
        <ele>192</ele>
        <time>2017-04-03T10:24:42Z</time>
      </trkpt>
      <trkpt lat="45.95225" lon="4.74912">
        <ele>193</ele>
        <time>2017-04-03T10:24:43Z</time>
      </trkpt>
      <trkpt lat="45.95221" lon="4.74907">
        <ele>193</ele>
        <time>2017-04-03T10:24:44Z</time>
      </trkpt>
      <trkpt lat="45.95217" lon="4.74901">
        <ele>193</ele>
        <time>2017-04-03T10:24:45Z</time>
      </trkpt>
      <trkpt lat="45.95213" lon="4.74896">
        <ele>193</ele>
        <time>2017-04-03T10:24:46Z</time>
      </trkpt>
      <trkpt lat="45.95209" lon="4.7489">
        <ele>193</ele>
        <time>2017-04-03T10:24:47Z</time>
      </trkpt>
      <trkpt lat="45.95205" lon="4.74884">
        <ele>194</ele>
        <time>2017-04-03T10:24:48Z</time>
      </trkpt>
      <trkpt lat="45.95202" lon="4.74878">
        <ele>194</ele>
        <time>2017-04-03T10:24:49Z</time>
      </trkpt>
      <trkpt lat="45.95197" lon="4.74872">
        <ele>194</ele>
        <time>2017-04-03T10:24:50Z</time>
      </trkpt>
      <trkpt lat="45.95193" lon="4.74866">
        <ele>194</ele>
        <time>2017-04-03T10:24:51Z</time>
      </trkpt>
      <trkpt lat="45.95189" lon="4.7486">
        <ele>194</ele>
        <time>2017-04-03T10:24:52Z</time>
      </trkpt>
      <trkpt lat="45.95185" lon="4.74853">
        <ele>194</ele>
        <time>2017-04-03T10:24:53Z</time>
      </trkpt>
      <trkpt lat="45.95181" lon="4.74846">
        <ele>194</ele>
        <time>2017-04-03T10:24:54Z</time>
      </trkpt>
      <trkpt lat="45.95176" lon="4.7484">
        <ele>194</ele>
        <time>2017-04-03T10:24:55Z</time>
      </trkpt>
      <trkpt lat="45.95172" lon="4.74834">
        <ele>194</ele>
        <time>2017-04-03T10:24:56Z</time>
      </trkpt>
      <trkpt lat="45.95168" lon="4.74828">
        <ele>194</ele>
        <time>2017-04-03T10:24:57Z</time>
      </trkpt>
      <trkpt lat="45.95164" lon="4.74822">
        <ele>194</ele>
        <time>2017-04-03T10:24:58Z</time>
      </trkpt>
      <trkpt lat="45.9516" lon="4.74815">
        <ele>194</ele>
        <time>2017-04-03T10:24:59Z</time>
      </trkpt>
      <trkpt lat="45.95156" lon="4.74809">
        <ele>194</ele>
        <time>2017-04-03T10:25:00Z</time>
      </trkpt>
      <trkpt lat="45.95152" lon="4.74803">
        <ele>194</ele>
        <time>2017-04-03T10:25:01Z</time>
      </trkpt>
      <trkpt lat="45.95149" lon="4.74797">
        <ele>194</ele>
        <time>2017-04-03T10:25:02Z</time>
      </trkpt>
      <trkpt lat="45.95145" lon="4.74791">
        <ele>194</ele>
        <time>2017-04-03T10:25:03Z</time>
      </trkpt>
      <trkpt lat="45.95141" lon="4.74786">
        <ele>194</ele>
        <time>2017-04-03T10:25:04Z</time>
      </trkpt>
      <trkpt lat="45.95137" lon="4.7478">
        <ele>194</ele>
        <time>2017-04-03T10:25:05Z</time>
      </trkpt>
      <trkpt lat="45.95133" lon="4.74775">
        <ele>194</ele>
        <time>2017-04-03T10:25:06Z</time>
      </trkpt>
      <trkpt lat="45.95129" lon="4.74769">
        <ele>194</ele>
        <time>2017-04-03T10:25:07Z</time>
      </trkpt>
      <trkpt lat="45.95126" lon="4.74762">
        <ele>194</ele>
        <time>2017-04-03T10:25:08Z</time>
      </trkpt>
      <trkpt lat="45.95123" lon="4.74755">
        <ele>194</ele>
        <time>2017-04-03T10:25:09Z</time>
      </trkpt>
      <trkpt lat="45.95119" lon="4.74748">
        <ele>194</ele>
        <time>2017-04-03T10:25:10Z</time>
      </trkpt>
      <trkpt lat="45.95115" lon="4.74741">
        <ele>194</ele>
        <time>2017-04-03T10:25:11Z</time>
      </trkpt>
      <trkpt lat="45.95111" lon="4.74734">
        <ele>194</ele>
        <time>2017-04-03T10:25:12Z</time>
      </trkpt>
      <trkpt lat="45.95108" lon="4.74727">
        <ele>194</ele>
        <time>2017-04-03T10:25:13Z</time>
      </trkpt>
      <trkpt lat="45.95105" lon="4.7472">
        <ele>194</ele>
        <time>2017-04-03T10:25:14Z</time>
      </trkpt>
      <trkpt lat="45.95102" lon="4.74714">
        <ele>194</ele>
        <time>2017-04-03T10:25:15Z</time>
      </trkpt>
      <trkpt lat="45.95098" lon="4.74707">
        <ele>194</ele>
        <time>2017-04-03T10:25:16Z</time>
      </trkpt>
      <trkpt lat="45.95095" lon="4.74701">
        <ele>194</ele>
        <time>2017-04-03T10:25:17Z</time>
      </trkpt>
      <trkpt lat="45.95091" lon="4.74696">
        <ele>194</ele>
        <time>2017-04-03T10:25:18Z</time>
      </trkpt>
      <trkpt lat="45.95087" lon="4.7469">
        <ele>195</ele>
        <time>2017-04-03T10:25:19Z</time>
      </trkpt>
      <trkpt lat="45.95083" lon="4.74684">
        <ele>194</ele>
        <time>2017-04-03T10:25:20Z</time>
      </trkpt>
      <trkpt lat="45.95079" lon="4.74679">
        <ele>194</ele>
        <time>2017-04-03T10:25:21Z</time>
      </trkpt>
      <trkpt lat="45.95075" lon="4.74673">
        <ele>195</ele>
        <time>2017-04-03T10:25:22Z</time>
      </trkpt>
      <trkpt lat="45.95072" lon="4.74666">
        <ele>195</ele>
        <time>2017-04-03T10:25:23Z</time>
      </trkpt>
      <trkpt lat="45.95069" lon="4.74659">
        <ele>195</ele>
        <time>2017-04-03T10:25:24Z</time>
      </trkpt>
      <trkpt lat="45.95065" lon="4.74653">
        <ele>195</ele>
        <time>2017-04-03T10:25:25Z</time>
      </trkpt>
      <trkpt lat="45.95061" lon="4.74646">
        <ele>194</ele>
        <time>2017-04-03T10:25:26Z</time>
      </trkpt>
      <trkpt lat="45.95057" lon="4.74639">
        <ele>194</ele>
        <time>2017-04-03T10:25:27Z</time>
      </trkpt>
      <trkpt lat="45.95053" lon="4.74632">
        <ele>194</ele>
        <time>2017-04-03T10:25:28Z</time>
      </trkpt>
      <trkpt lat="45.95049" lon="4.74624">
        <ele>194</ele>
        <time>2017-04-03T10:25:29Z</time>
      </trkpt>
      <trkpt lat="45.95045" lon="4.74617">
        <ele>194</ele>
        <time>2017-04-03T10:25:30Z</time>
      </trkpt>
      <trkpt lat="45.95041" lon="4.7461">
        <ele>194</ele>
        <time>2017-04-03T10:25:31Z</time>
      </trkpt>
      <trkpt lat="45.95037" lon="4.74603">
        <ele>194</ele>
        <time>2017-04-03T10:25:32Z</time>
      </trkpt>
      <trkpt lat="45.95034" lon="4.74597">
        <ele>194</ele>
        <time>2017-04-03T10:25:33Z</time>
      </trkpt>
      <trkpt lat="45.9503" lon="4.74591">
        <ele>194</ele>
        <time>2017-04-03T10:25:34Z</time>
      </trkpt>
      <trkpt lat="45.95027" lon="4.74585">
        <ele>194</ele>
        <time>2017-04-03T10:25:35Z</time>
      </trkpt>
      <trkpt lat="45.95023" lon="4.74578">
        <ele>194</ele>
        <time>2017-04-03T10:25:36Z</time>
      </trkpt>
      <trkpt lat="45.95019" lon="4.74572">
        <ele>194</ele>
        <time>2017-04-03T10:25:37Z</time>
      </trkpt>
      <trkpt lat="45.95015" lon="4.74566">
        <ele>194</ele>
        <time>2017-04-03T10:25:38Z</time>
      </trkpt>
      <trkpt lat="45.95011" lon="4.74559">
        <ele>194</ele>
        <time>2017-04-03T10:25:39Z</time>
      </trkpt>
      <trkpt lat="45.95007" lon="4.74552">
        <ele>194</ele>
        <time>2017-04-03T10:25:40Z</time>
      </trkpt>
      <trkpt lat="45.95003" lon="4.74546">
        <ele>194</ele>
        <time>2017-04-03T10:25:41Z</time>
      </trkpt>
      <trkpt lat="45.94999" lon="4.74539">
        <ele>193</ele>
        <time>2017-04-03T10:25:42Z</time>
      </trkpt>
      <trkpt lat="45.94995" lon="4.74533">
        <ele>193</ele>
        <time>2017-04-03T10:25:43Z</time>
      </trkpt>
      <trkpt lat="45.94992" lon="4.74526">
        <ele>193</ele>
        <time>2017-04-03T10:25:44Z</time>
      </trkpt>
      <trkpt lat="45.94989" lon="4.74519">
        <ele>193</ele>
        <time>2017-04-03T10:25:45Z</time>
      </trkpt>
      <trkpt lat="45.94986" lon="4.74512">
        <ele>193</ele>
        <time>2017-04-03T10:25:46Z</time>
      </trkpt>
      <trkpt lat="45.94982" lon="4.74506">
        <ele>193</ele>
        <time>2017-04-03T10:25:47Z</time>
      </trkpt>
      <trkpt lat="45.94978" lon="4.74499">
        <ele>193</ele>
        <time>2017-04-03T10:25:48Z</time>
      </trkpt>
      <trkpt lat="45.94975" lon="4.74492">
        <ele>193</ele>
        <time>2017-04-03T10:25:49Z</time>
      </trkpt>
      <trkpt lat="45.94972" lon="4.74485">
        <ele>193</ele>
        <time>2017-04-03T10:25:50Z</time>
      </trkpt>
      <trkpt lat="45.94969" lon="4.74479">
        <ele>193</ele>
        <time>2017-04-03T10:25:51Z</time>
      </trkpt>
      <trkpt lat="45.94965" lon="4.74472">
        <ele>193</ele>
        <time>2017-04-03T10:25:52Z</time>
      </trkpt>
      <trkpt lat="45.94963" lon="4.74465">
        <ele>193</ele>
        <time>2017-04-03T10:25:53Z</time>
      </trkpt>
      <trkpt lat="45.94959" lon="4.74458">
        <ele>192</ele>
        <time>2017-04-03T10:25:54Z</time>
      </trkpt>
      <trkpt lat="45.94955" lon="4.74451">
        <ele>192</ele>
        <time>2017-04-03T10:25:55Z</time>
      </trkpt>
      <trkpt lat="45.94952" lon="4.74444">
        <ele>192</ele>
        <time>2017-04-03T10:25:56Z</time>
      </trkpt>
      <trkpt lat="45.94949" lon="4.74436">
        <ele>192</ele>
        <time>2017-04-03T10:25:57Z</time>
      </trkpt>
      <trkpt lat="45.94945" lon="4.74429">
        <ele>192</ele>
        <time>2017-04-03T10:25:58Z</time>
      </trkpt>
      <trkpt lat="45.94941" lon="4.74422">
        <ele>192</ele>
        <time>2017-04-03T10:25:59Z</time>
      </trkpt>
      <trkpt lat="45.94937" lon="4.74414">
        <ele>192</ele>
        <time>2017-04-03T10:26:00Z</time>
      </trkpt>
      <trkpt lat="45.94933" lon="4.74406">
        <ele>192</ele>
        <time>2017-04-03T10:26:01Z</time>
      </trkpt>
      <trkpt lat="45.94929" lon="4.74399">
        <ele>192</ele>
        <time>2017-04-03T10:26:02Z</time>
      </trkpt>
      <trkpt lat="45.94926" lon="4.74391">
        <ele>192</ele>
        <time>2017-04-03T10:26:03Z</time>
      </trkpt>
      <trkpt lat="45.94922" lon="4.74384">
        <ele>192</ele>
        <time>2017-04-03T10:26:04Z</time>
      </trkpt>
      <trkpt lat="45.94918" lon="4.74377">
        <ele>192</ele>
        <time>2017-04-03T10:26:05Z</time>
      </trkpt>
      <trkpt lat="45.94915" lon="4.7437">
        <ele>191</ele>
        <time>2017-04-03T10:26:06Z</time>
      </trkpt>
      <trkpt lat="45.94911" lon="4.74363">
        <ele>191</ele>
        <time>2017-04-03T10:26:07Z</time>
      </trkpt>
      <trkpt lat="45.94907" lon="4.74355">
        <ele>191</ele>
        <time>2017-04-03T10:26:08Z</time>
      </trkpt>
      <trkpt lat="45.94903" lon="4.74347">
        <ele>191</ele>
        <time>2017-04-03T10:26:09Z</time>
      </trkpt>
      <trkpt lat="45.94898" lon="4.74339">
        <ele>191</ele>
        <time>2017-04-03T10:26:10Z</time>
      </trkpt>
      <trkpt lat="45.94894" lon="4.74331">
        <ele>191</ele>
        <time>2017-04-03T10:26:11Z</time>
      </trkpt>
      <trkpt lat="45.9489" lon="4.74324">
        <ele>191</ele>
        <time>2017-04-03T10:26:12Z</time>
      </trkpt>
      <trkpt lat="45.94886" lon="4.74317">
        <ele>191</ele>
        <time>2017-04-03T10:26:13Z</time>
      </trkpt>
      <trkpt lat="45.94882" lon="4.74309">
        <ele>191</ele>
        <time>2017-04-03T10:26:14Z</time>
      </trkpt>
      <trkpt lat="45.94878" lon="4.74301">
        <ele>191</ele>
        <time>2017-04-03T10:26:15Z</time>
      </trkpt>
      <trkpt lat="45.94875" lon="4.74294">
        <ele>191</ele>
        <time>2017-04-03T10:26:16Z</time>
      </trkpt>
      <trkpt lat="45.94871" lon="4.74286">
        <ele>191</ele>
        <time>2017-04-03T10:26:17Z</time>
      </trkpt>
      <trkpt lat="45.94866" lon="4.74279">
        <ele>191</ele>
        <time>2017-04-03T10:26:18Z</time>
      </trkpt>
      <trkpt lat="45.94862" lon="4.74271">
        <ele>190</ele>
        <time>2017-04-03T10:26:19Z</time>
      </trkpt>
      <trkpt lat="45.94859" lon="4.74263">
        <ele>190</ele>
        <time>2017-04-03T10:26:20Z</time>
      </trkpt>
      <trkpt lat="45.94855" lon="4.74255">
        <ele>190</ele>
        <time>2017-04-03T10:26:21Z</time>
      </trkpt>
      <trkpt lat="45.94851" lon="4.74246">
        <ele>190</ele>
        <time>2017-04-03T10:26:22Z</time>
      </trkpt>
      <trkpt lat="45.94848" lon="4.74238">
        <ele>190</ele>
        <time>2017-04-03T10:26:23Z</time>
      </trkpt>
      <trkpt lat="45.94844" lon="4.7423">
        <ele>190</ele>
        <time>2017-04-03T10:26:24Z</time>
      </trkpt>
      <trkpt lat="45.9484" lon="4.74222">
        <ele>190</ele>
        <time>2017-04-03T10:26:25Z</time>
      </trkpt>
      <trkpt lat="45.94836" lon="4.74214">
        <ele>190</ele>
        <time>2017-04-03T10:26:26Z</time>
      </trkpt>
      <trkpt lat="45.94832" lon="4.74206">
        <ele>189</ele>
        <time>2017-04-03T10:26:27Z</time>
      </trkpt>
      <trkpt lat="45.94827" lon="4.74198">
        <ele>189</ele>
        <time>2017-04-03T10:26:28Z</time>
      </trkpt>
      <trkpt lat="45.94823" lon="4.7419">
        <ele>189</ele>
        <time>2017-04-03T10:26:29Z</time>
      </trkpt>
      <trkpt lat="45.94819" lon="4.74182">
        <ele>189</ele>
        <time>2017-04-03T10:26:30Z</time>
      </trkpt>
      <trkpt lat="45.94815" lon="4.74176">
        <ele>189</ele>
        <time>2017-04-03T10:26:31Z</time>
      </trkpt>
      <trkpt lat="45.94811" lon="4.74169">
        <ele>189</ele>
        <time>2017-04-03T10:26:32Z</time>
      </trkpt>
      <trkpt lat="45.94807" lon="4.74162">
        <ele>189</ele>
        <time>2017-04-03T10:26:33Z</time>
      </trkpt>
      <trkpt lat="45.94804" lon="4.74155">
        <ele>189</ele>
        <time>2017-04-03T10:26:34Z</time>
      </trkpt>
      <trkpt lat="45.948" lon="4.74148">
        <ele>189</ele>
        <time>2017-04-03T10:26:35Z</time>
      </trkpt>
      <trkpt lat="45.94796" lon="4.74142">
        <ele>189</ele>
        <time>2017-04-03T10:26:36Z</time>
      </trkpt>
      <trkpt lat="45.94792" lon="4.74135">
        <ele>189</ele>
        <time>2017-04-03T10:26:37Z</time>
      </trkpt>
      <trkpt lat="45.94788" lon="4.74128">
        <ele>189</ele>
        <time>2017-04-03T10:26:38Z</time>
      </trkpt>
      <trkpt lat="45.94783" lon="4.74121">
        <ele>189</ele>
        <time>2017-04-03T10:26:39Z</time>
      </trkpt>
      <trkpt lat="45.94778" lon="4.74114">
        <ele>189</ele>
        <time>2017-04-03T10:26:40Z</time>
      </trkpt>
      <trkpt lat="45.94773" lon="4.74107">
        <ele>189</ele>
        <time>2017-04-03T10:26:41Z</time>
      </trkpt>
      <trkpt lat="45.94768" lon="4.741">
        <ele>189</ele>
        <time>2017-04-03T10:26:42Z</time>
      </trkpt>
      <trkpt lat="45.94763" lon="4.74093">
        <ele>189</ele>
        <time>2017-04-03T10:26:43Z</time>
      </trkpt>
      <trkpt lat="45.94758" lon="4.74087">
        <ele>189</ele>
        <time>2017-04-03T10:26:44Z</time>
      </trkpt>
      <trkpt lat="45.94753" lon="4.7408">
        <ele>189</ele>
        <time>2017-04-03T10:26:45Z</time>
      </trkpt>
      <trkpt lat="45.94747" lon="4.74074">
        <ele>188</ele>
        <time>2017-04-03T10:26:46Z</time>
      </trkpt>
      <trkpt lat="45.94742" lon="4.74068">
        <ele>188</ele>
        <time>2017-04-03T10:26:47Z</time>
      </trkpt>
      <trkpt lat="45.94736" lon="4.74062">
        <ele>188</ele>
        <time>2017-04-03T10:26:48Z</time>
      </trkpt>
      <trkpt lat="45.94731" lon="4.74055">
        <ele>188</ele>
        <time>2017-04-03T10:26:49Z</time>
      </trkpt>
      <trkpt lat="45.94726" lon="4.74049">
        <ele>188</ele>
        <time>2017-04-03T10:26:50Z</time>
      </trkpt>
      <trkpt lat="45.94721" lon="4.74042">
        <ele>187</ele>
        <time>2017-04-03T10:26:51Z</time>
      </trkpt>
      <trkpt lat="45.94716" lon="4.74036">
        <ele>187</ele>
        <time>2017-04-03T10:26:52Z</time>
      </trkpt>
      <trkpt lat="45.94712" lon="4.7403">
        <ele>187</ele>
        <time>2017-04-03T10:26:53Z</time>
      </trkpt>
      <trkpt lat="45.94709" lon="4.74024">
        <ele>187</ele>
        <time>2017-04-03T10:26:54Z</time>
      </trkpt>
      <trkpt lat="45.94705" lon="4.74018">
        <ele>187</ele>
        <time>2017-04-03T10:26:55Z</time>
      </trkpt>
      <trkpt lat="45.947" lon="4.74013">
        <ele>187</ele>
        <time>2017-04-03T10:26:56Z</time>
      </trkpt>
      <trkpt lat="45.94697" lon="4.74007">
        <ele>187</ele>
        <time>2017-04-03T10:26:57Z</time>
      </trkpt>
      <trkpt lat="45.94693" lon="4.74002">
        <ele>187</ele>
        <time>2017-04-03T10:26:58Z</time>
      </trkpt>
      <trkpt lat="45.94689" lon="4.73997">
        <ele>187</ele>
        <time>2017-04-03T10:26:59Z</time>
      </trkpt>
      <trkpt lat="45.94685" lon="4.73991">
        <ele>187</ele>
        <time>2017-04-03T10:27:00Z</time>
      </trkpt>
      <trkpt lat="45.94681" lon="4.73985">
        <ele>187</ele>
        <time>2017-04-03T10:27:01Z</time>
      </trkpt>
      <trkpt lat="45.94676" lon="4.73979">
        <ele>187</ele>
        <time>2017-04-03T10:27:02Z</time>
      </trkpt>
      <trkpt lat="45.94672" lon="4.73973">
        <ele>187</ele>
        <time>2017-04-03T10:27:03Z</time>
      </trkpt>
      <trkpt lat="45.94667" lon="4.73966">
        <ele>187</ele>
        <time>2017-04-03T10:27:04Z</time>
      </trkpt>
      <trkpt lat="45.94663" lon="4.7396">
        <ele>187</ele>
        <time>2017-04-03T10:27:05Z</time>
      </trkpt>
      <trkpt lat="45.94658" lon="4.73954">
        <ele>187</ele>
        <time>2017-04-03T10:27:06Z</time>
      </trkpt>
      <trkpt lat="45.94653" lon="4.73947">
        <ele>187</ele>
        <time>2017-04-03T10:27:07Z</time>
      </trkpt>
      <trkpt lat="45.94648" lon="4.73941">
        <ele>187</ele>
        <time>2017-04-03T10:27:08Z</time>
      </trkpt>
      <trkpt lat="45.94643" lon="4.73935">
        <ele>187</ele>
        <time>2017-04-03T10:27:09Z</time>
      </trkpt>
      <trkpt lat="45.94638" lon="4.73929">
        <ele>187</ele>
        <time>2017-04-03T10:27:10Z</time>
      </trkpt>
      <trkpt lat="45.94634" lon="4.73923">
        <ele>187</ele>
        <time>2017-04-03T10:27:11Z</time>
      </trkpt>
      <trkpt lat="45.94629" lon="4.73917">
        <ele>187</ele>
        <time>2017-04-03T10:27:12Z</time>
      </trkpt>
      <trkpt lat="45.94625" lon="4.73911">
        <ele>187</ele>
        <time>2017-04-03T10:27:13Z</time>
      </trkpt>
      <trkpt lat="45.9462" lon="4.73905">
        <ele>187</ele>
        <time>2017-04-03T10:27:14Z</time>
      </trkpt>
      <trkpt lat="45.94615" lon="4.73899">
        <ele>187</ele>
        <time>2017-04-03T10:27:15Z</time>
      </trkpt>
      <trkpt lat="45.9461" lon="4.73894">
        <ele>187</ele>
        <time>2017-04-03T10:27:16Z</time>
      </trkpt>
      <trkpt lat="45.94606" lon="4.73888">
        <ele>187</ele>
        <time>2017-04-03T10:27:17Z</time>
      </trkpt>
      <trkpt lat="45.94601" lon="4.73883">
        <ele>187</ele>
        <time>2017-04-03T10:27:18Z</time>
      </trkpt>
      <trkpt lat="45.94596" lon="4.73877">
        <ele>187</ele>
        <time>2017-04-03T10:27:19Z</time>
      </trkpt>
      <trkpt lat="45.94591" lon="4.73872">
        <ele>187</ele>
        <time>2017-04-03T10:27:20Z</time>
      </trkpt>
      <trkpt lat="45.94586" lon="4.73867">
        <ele>187</ele>
        <time>2017-04-03T10:27:21Z</time>
      </trkpt>
      <trkpt lat="45.94581" lon="4.73861">
        <ele>186</ele>
        <time>2017-04-03T10:27:22Z</time>
      </trkpt>
      <trkpt lat="45.94576" lon="4.73856">
        <ele>186</ele>
        <time>2017-04-03T10:27:23Z</time>
      </trkpt>
      <trkpt lat="45.94571" lon="4.73851">
        <ele>186</ele>
        <time>2017-04-03T10:27:24Z</time>
      </trkpt>
      <trkpt lat="45.94566" lon="4.73845">
        <ele>186</ele>
        <time>2017-04-03T10:27:25Z</time>
      </trkpt>
      <trkpt lat="45.94561" lon="4.7384">
        <ele>186</ele>
        <time>2017-04-03T10:27:26Z</time>
      </trkpt>
      <trkpt lat="45.94556" lon="4.73835">
        <ele>186</ele>
        <time>2017-04-03T10:27:27Z</time>
      </trkpt>
      <trkpt lat="45.94551" lon="4.7383">
        <ele>186</ele>
        <time>2017-04-03T10:27:28Z</time>
      </trkpt>
      <trkpt lat="45.94546" lon="4.73825">
        <ele>186</ele>
        <time>2017-04-03T10:27:29Z</time>
      </trkpt>
      <trkpt lat="45.94541" lon="4.73821">
        <ele>186</ele>
        <time>2017-04-03T10:27:30Z</time>
      </trkpt>
      <trkpt lat="45.94536" lon="4.73816">
        <ele>186</ele>
        <time>2017-04-03T10:27:31Z</time>
      </trkpt>
      <trkpt lat="45.94531" lon="4.73811">
        <ele>186</ele>
        <time>2017-04-03T10:27:32Z</time>
      </trkpt>
      <trkpt lat="45.94526" lon="4.73805">
        <ele>186</ele>
        <time>2017-04-03T10:27:33Z</time>
      </trkpt>
      <trkpt lat="45.94521" lon="4.738">
        <ele>186</ele>
        <time>2017-04-03T10:27:34Z</time>
      </trkpt>
      <trkpt lat="45.94516" lon="4.73795">
        <ele>186</ele>
        <time>2017-04-03T10:27:35Z</time>
      </trkpt>
      <trkpt lat="45.94511" lon="4.73789">
        <ele>186</ele>
        <time>2017-04-03T10:27:36Z</time>
      </trkpt>
      <trkpt lat="45.94507" lon="4.73783">
        <ele>186</ele>
        <time>2017-04-03T10:27:37Z</time>
      </trkpt>
      <trkpt lat="45.94502" lon="4.73777">
        <ele>186</ele>
        <time>2017-04-03T10:27:38Z</time>
      </trkpt>
      <trkpt lat="45.94497" lon="4.73772">
        <ele>186</ele>
        <time>2017-04-03T10:27:39Z</time>
      </trkpt>
      <trkpt lat="45.94493" lon="4.73766">
        <ele>186</ele>
        <time>2017-04-03T10:27:40Z</time>
      </trkpt>
      <trkpt lat="45.94489" lon="4.7376">
        <ele>186</ele>
        <time>2017-04-03T10:27:41Z</time>
      </trkpt>
      <trkpt lat="45.94485" lon="4.73753">
        <ele>186</ele>
        <time>2017-04-03T10:27:42Z</time>
      </trkpt>
      <trkpt lat="45.94483" lon="4.73746">
        <ele>186</ele>
        <time>2017-04-03T10:27:43Z</time>
      </trkpt>
      <trkpt lat="45.94483" lon="4.73737">
        <ele>186</ele>
        <time>2017-04-03T10:27:44Z</time>
      </trkpt>
      <trkpt lat="45.94484" lon="4.73729">
        <ele>186</ele>
        <time>2017-04-03T10:27:45Z</time>
      </trkpt>
      <trkpt lat="45.94485" lon="4.73722">
        <ele>186</ele>
        <time>2017-04-03T10:27:46Z</time>
      </trkpt>
      <trkpt lat="45.94485" lon="4.73714">
        <ele>186</ele>
        <time>2017-04-03T10:27:47Z</time>
      </trkpt>
      <trkpt lat="45.94487" lon="4.73705">
        <ele>186</ele>
        <time>2017-04-03T10:27:48Z</time>
      </trkpt>
      <trkpt lat="45.94488" lon="4.73696">
        <ele>186</ele>
        <time>2017-04-03T10:27:49Z</time>
      </trkpt>
      <trkpt lat="45.94489" lon="4.73688">
        <ele>186</ele>
        <time>2017-04-03T10:27:50Z</time>
      </trkpt>
      <trkpt lat="45.9449" lon="4.7368">
        <ele>186</ele>
        <time>2017-04-03T10:27:51Z</time>
      </trkpt>
      <trkpt lat="45.94491" lon="4.73672">
        <ele>185</ele>
        <time>2017-04-03T10:27:52Z</time>
      </trkpt>
      <trkpt lat="45.94494" lon="4.73662">
        <ele>185</ele>
        <time>2017-04-03T10:27:53Z</time>
      </trkpt>
      <trkpt lat="45.94495" lon="4.73654">
        <ele>185</ele>
        <time>2017-04-03T10:27:54Z</time>
      </trkpt>
      <trkpt lat="45.94496" lon="4.73645">
        <ele>186</ele>
        <time>2017-04-03T10:27:55Z</time>
      </trkpt>
      <trkpt lat="45.94497" lon="4.73637">
        <ele>186</ele>
        <time>2017-04-03T10:27:56Z</time>
      </trkpt>
      <trkpt lat="45.94498" lon="4.73627">
        <ele>186</ele>
        <time>2017-04-03T10:27:57Z</time>
      </trkpt>
      <trkpt lat="45.94498" lon="4.73618">
        <ele>186</ele>
        <time>2017-04-03T10:27:58Z</time>
      </trkpt>
      <trkpt lat="45.94499" lon="4.73609">
        <ele>186</ele>
        <time>2017-04-03T10:27:59Z</time>
      </trkpt>
      <trkpt lat="45.945" lon="4.73599">
        <ele>185</ele>
        <time>2017-04-03T10:28:00Z</time>
      </trkpt>
      <trkpt lat="45.945" lon="4.7359">
        <ele>185</ele>
        <time>2017-04-03T10:28:01Z</time>
      </trkpt>
      <trkpt lat="45.94501" lon="4.7358">
        <ele>185</ele>
        <time>2017-04-03T10:28:02Z</time>
      </trkpt>
      <trkpt lat="45.94501" lon="4.7357">
        <ele>184</ele>
        <time>2017-04-03T10:28:03Z</time>
      </trkpt>
      <trkpt lat="45.94501" lon="4.73559">
        <ele>184</ele>
        <time>2017-04-03T10:28:04Z</time>
      </trkpt>
      <trkpt lat="45.94501" lon="4.73548">
        <ele>183</ele>
        <time>2017-04-03T10:28:05Z</time>
      </trkpt>
      <trkpt lat="45.94502" lon="4.73538">
        <ele>183</ele>
        <time>2017-04-03T10:28:06Z</time>
      </trkpt>
      <trkpt lat="45.94502" lon="4.73527">
        <ele>183</ele>
        <time>2017-04-03T10:28:07Z</time>
      </trkpt>
      <trkpt lat="45.94502" lon="4.73515">
        <ele>183</ele>
        <time>2017-04-03T10:28:08Z</time>
      </trkpt>
      <trkpt lat="45.94502" lon="4.73504">
        <ele>183</ele>
        <time>2017-04-03T10:28:09Z</time>
      </trkpt>
      <trkpt lat="45.94503" lon="4.73493">
        <ele>182</ele>
        <time>2017-04-03T10:28:10Z</time>
      </trkpt>
      <trkpt lat="45.94503" lon="4.73482">
        <ele>182</ele>
        <time>2017-04-03T10:28:11Z</time>
      </trkpt>
      <trkpt lat="45.94503" lon="4.73471">
        <ele>182</ele>
        <time>2017-04-03T10:28:12Z</time>
      </trkpt>
      <trkpt lat="45.94504" lon="4.7346">
        <ele>181</ele>
        <time>2017-04-03T10:28:13Z</time>
      </trkpt>
      <trkpt lat="45.94504" lon="4.73449">
        <ele>181</ele>
        <time>2017-04-03T10:28:14Z</time>
      </trkpt>
      <trkpt lat="45.94504" lon="4.73438">
        <ele>181</ele>
        <time>2017-04-03T10:28:15Z</time>
      </trkpt>
      <trkpt lat="45.94503" lon="4.73426">
        <ele>180</ele>
        <time>2017-04-03T10:28:16Z</time>
      </trkpt>
      <trkpt lat="45.94503" lon="4.73414">
        <ele>180</ele>
        <time>2017-04-03T10:28:17Z</time>
      </trkpt>
      <trkpt lat="45.94502" lon="4.73403">
        <ele>179</ele>
        <time>2017-04-03T10:28:18Z</time>
      </trkpt>
      <trkpt lat="45.945" lon="4.73391">
        <ele>179</ele>
        <time>2017-04-03T10:28:19Z</time>
      </trkpt>
      <trkpt lat="45.94499" lon="4.7338">
        <ele>179</ele>
        <time>2017-04-03T10:28:20Z</time>
      </trkpt>
      <trkpt lat="45.94498" lon="4.73369">
        <ele>179</ele>
        <time>2017-04-03T10:28:21Z</time>
      </trkpt>
      <trkpt lat="45.94496" lon="4.73357">
        <ele>178</ele>
        <time>2017-04-03T10:28:22Z</time>
      </trkpt>
      <trkpt lat="45.94495" lon="4.73346">
        <ele>178</ele>
        <time>2017-04-03T10:28:23Z</time>
      </trkpt>
      <trkpt lat="45.94494" lon="4.73334">
        <ele>178</ele>
        <time>2017-04-03T10:28:24Z</time>
      </trkpt>
      <trkpt lat="45.94491" lon="4.73323">
        <ele>177</ele>
        <time>2017-04-03T10:28:25Z</time>
      </trkpt>
      <trkpt lat="45.94489" lon="4.73312">
        <ele>177</ele>
        <time>2017-04-03T10:28:26Z</time>
      </trkpt>
      <trkpt lat="45.94488" lon="4.733">
        <ele>177</ele>
        <time>2017-04-03T10:28:27Z</time>
      </trkpt>
      <trkpt lat="45.94487" lon="4.73288">
        <ele>177</ele>
        <time>2017-04-03T10:28:28Z</time>
      </trkpt>
      <trkpt lat="45.94485" lon="4.73276">
        <ele>177</ele>
        <time>2017-04-03T10:28:29Z</time>
      </trkpt>
      <trkpt lat="45.94484" lon="4.73264">
        <ele>177</ele>
        <time>2017-04-03T10:28:30Z</time>
      </trkpt>
      <trkpt lat="45.94482" lon="4.73253">
        <ele>176</ele>
        <time>2017-04-03T10:28:31Z</time>
      </trkpt>
      <trkpt lat="45.94481" lon="4.73241">
        <ele>175</ele>
        <time>2017-04-03T10:28:32Z</time>
      </trkpt>
      <trkpt lat="45.9448" lon="4.73228">
        <ele>175</ele>
        <time>2017-04-03T10:28:33Z</time>
      </trkpt>
      <trkpt lat="45.94479" lon="4.73216">
        <ele>175</ele>
        <time>2017-04-03T10:28:34Z</time>
      </trkpt>
      <trkpt lat="45.94478" lon="4.73204">
        <ele>175</ele>
        <time>2017-04-03T10:28:35Z</time>
      </trkpt>
      <trkpt lat="45.94477" lon="4.73192">
        <ele>174</ele>
        <time>2017-04-03T10:28:36Z</time>
      </trkpt>
      <trkpt lat="45.94475" lon="4.7318">
        <ele>174</ele>
        <time>2017-04-03T10:28:37Z</time>
      </trkpt>
      <trkpt lat="45.94474" lon="4.73168">
        <ele>174</ele>
        <time>2017-04-03T10:28:38Z</time>
      </trkpt>
      <trkpt lat="45.94471" lon="4.73158">
        <ele>172</ele>
        <time>2017-04-03T10:28:39Z</time>
      </trkpt>
      <trkpt lat="45.9447" lon="4.73147">
        <ele>172</ele>
        <time>2017-04-03T10:28:40Z</time>
      </trkpt>
      <trkpt lat="45.94468" lon="4.73136">
        <ele>172</ele>
        <time>2017-04-03T10:28:41Z</time>
      </trkpt>
      <trkpt lat="45.94465" lon="4.73125">
        <ele>172</ele>
        <time>2017-04-03T10:28:42Z</time>
      </trkpt>
      <trkpt lat="45.94464" lon="4.73114">
        <ele>172</ele>
        <time>2017-04-03T10:28:43Z</time>
      </trkpt>
      <trkpt lat="45.94462" lon="4.73103">
        <ele>172</ele>
        <time>2017-04-03T10:28:44Z</time>
      </trkpt>
      <trkpt lat="45.94461" lon="4.73092">
        <ele>171</ele>
        <time>2017-04-03T10:28:45Z</time>
      </trkpt>
      <trkpt lat="45.9446" lon="4.73081">
        <ele>170</ele>
        <time>2017-04-03T10:28:46Z</time>
      </trkpt>
      <trkpt lat="45.94459" lon="4.7307">
        <ele>170</ele>
        <time>2017-04-03T10:28:47Z</time>
      </trkpt>
      <trkpt lat="45.94457" lon="4.73059">
        <ele>170</ele>
        <time>2017-04-03T10:28:48Z</time>
      </trkpt>
      <trkpt lat="45.94457" lon="4.73048">
        <ele>170</ele>
        <time>2017-04-03T10:28:49Z</time>
      </trkpt>
      <trkpt lat="45.94455" lon="4.73038">
        <ele>169</ele>
        <time>2017-04-03T10:28:50Z</time>
      </trkpt>
      <trkpt lat="45.94454" lon="4.73029">
        <ele>169</ele>
        <time>2017-04-03T10:28:51Z</time>
      </trkpt>
      <trkpt lat="45.94453" lon="4.73019">
        <ele>169</ele>
        <time>2017-04-03T10:28:52Z</time>
      </trkpt>
      <trkpt lat="45.94452" lon="4.7301">
        <ele>169</ele>
        <time>2017-04-03T10:28:53Z</time>
      </trkpt>
      <trkpt lat="45.9445" lon="4.73001">
        <ele>169</ele>
        <time>2017-04-03T10:28:54Z</time>
      </trkpt>
      <trkpt lat="45.94449" lon="4.72992">
        <ele>167</ele>
        <time>2017-04-03T10:28:55Z</time>
      </trkpt>
      <trkpt lat="45.94448" lon="4.72983">
        <ele>167</ele>
        <time>2017-04-03T10:28:56Z</time>
      </trkpt>
      <trkpt lat="45.94447" lon="4.72974">
        <ele>167</ele>
        <time>2017-04-03T10:28:57Z</time>
      </trkpt>
      <trkpt lat="45.94446" lon="4.72966">
        <ele>167</ele>
        <time>2017-04-03T10:28:58Z</time>
      </trkpt>
      <trkpt lat="45.94445" lon="4.72958">
        <ele>167</ele>
        <time>2017-04-03T10:28:59Z</time>
      </trkpt>
      <trkpt lat="45.94443" lon="4.7295">
        <ele>167</ele>
        <time>2017-04-03T10:29:00Z</time>
      </trkpt>
      <trkpt lat="45.94442" lon="4.72942">
        <ele>167</ele>
        <time>2017-04-03T10:29:01Z</time>
      </trkpt>
      <trkpt lat="45.94441" lon="4.72934">
        <ele>167</ele>
        <time>2017-04-03T10:29:02Z</time>
      </trkpt>
      <trkpt lat="45.9444" lon="4.72927">
        <ele>167</ele>
        <time>2017-04-03T10:29:03Z</time>
      </trkpt>
      <trkpt lat="45.94439" lon="4.72921">
        <ele>167</ele>
        <time>2017-04-03T10:29:04Z</time>
      </trkpt>
      <trkpt lat="45.94437" lon="4.72915">
        <ele>166</ele>
        <time>2017-04-03T10:29:05Z</time>
      </trkpt>
      <trkpt lat="45.94436" lon="4.72908">
        <ele>166</ele>
        <time>2017-04-03T10:29:06Z</time>
      </trkpt>
      <trkpt lat="45.94435" lon="4.72902">
        <ele>166</ele>
        <time>2017-04-03T10:29:07Z</time>
      </trkpt>
      <trkpt lat="45.94434" lon="4.7289">
        <ele>166</ele>
        <time>2017-04-03T10:29:09Z</time>
      </trkpt>
      <trkpt lat="45.94432" lon="4.72883">
        <ele>166</ele>
        <time>2017-04-03T10:29:10Z</time>
      </trkpt>
      <trkpt lat="45.94431" lon="4.72876">
        <ele>166</ele>
        <time>2017-04-03T10:29:11Z</time>
      </trkpt>
      <trkpt lat="45.94431" lon="4.72869">
        <ele>166</ele>
        <time>2017-04-03T10:29:12Z</time>
      </trkpt>
      <trkpt lat="45.9443" lon="4.72862">
        <ele>166</ele>
        <time>2017-04-03T10:29:13Z</time>
      </trkpt>
      <trkpt lat="45.94428" lon="4.72854">
        <ele>166</ele>
        <time>2017-04-03T10:29:14Z</time>
      </trkpt>
      <trkpt lat="45.94427" lon="4.72846">
        <ele>166</ele>
        <time>2017-04-03T10:29:15Z</time>
      </trkpt>
      <trkpt lat="45.94426" lon="4.72838">
        <ele>166</ele>
        <time>2017-04-03T10:29:16Z</time>
      </trkpt>
      <trkpt lat="45.94425" lon="4.72829">
        <ele>166</ele>
        <time>2017-04-03T10:29:17Z</time>
      </trkpt>
      <trkpt lat="45.94423" lon="4.7282">
        <ele>167</ele>
        <time>2017-04-03T10:29:18Z</time>
      </trkpt>
      <trkpt lat="45.94422" lon="4.72811">
        <ele>167</ele>
        <time>2017-04-03T10:29:19Z</time>
      </trkpt>
      <trkpt lat="45.94422" lon="4.72801">
        <ele>167</ele>
        <time>2017-04-03T10:29:20Z</time>
      </trkpt>
      <trkpt lat="45.9442" lon="4.72792">
        <ele>168</ele>
        <time>2017-04-03T10:29:21Z</time>
      </trkpt>
      <trkpt lat="45.94419" lon="4.72782">
        <ele>168</ele>
        <time>2017-04-03T10:29:22Z</time>
      </trkpt>
      <trkpt lat="45.94417" lon="4.72773">
        <ele>169</ele>
        <time>2017-04-03T10:29:23Z</time>
      </trkpt>
      <trkpt lat="45.94416" lon="4.72763">
        <ele>170</ele>
        <time>2017-04-03T10:29:24Z</time>
      </trkpt>
      <trkpt lat="45.94415" lon="4.72753">
        <ele>171</ele>
        <time>2017-04-03T10:29:25Z</time>
      </trkpt>
      <trkpt lat="45.94414" lon="4.72743">
        <ele>171</ele>
        <time>2017-04-03T10:29:26Z</time>
      </trkpt>
      <trkpt lat="45.94412" lon="4.72732">
        <ele>172</ele>
        <time>2017-04-03T10:29:27Z</time>
      </trkpt>
      <trkpt lat="45.94411" lon="4.72722">
        <ele>172</ele>
        <time>2017-04-03T10:29:28Z</time>
      </trkpt>
      <trkpt lat="45.9441" lon="4.72712">
        <ele>172</ele>
        <time>2017-04-03T10:29:29Z</time>
      </trkpt>
      <trkpt lat="45.94409" lon="4.72701">
        <ele>172</ele>
        <time>2017-04-03T10:29:30Z</time>
      </trkpt>
      <trkpt lat="45.94408" lon="4.72691">
        <ele>173</ele>
        <time>2017-04-03T10:29:31Z</time>
      </trkpt>
      <trkpt lat="45.94407" lon="4.72681">
        <ele>173</ele>
        <time>2017-04-03T10:29:32Z</time>
      </trkpt>
      <trkpt lat="45.94406" lon="4.72671">
        <ele>173</ele>
        <time>2017-04-03T10:29:33Z</time>
      </trkpt>
      <trkpt lat="45.94404" lon="4.72661">
        <ele>174</ele>
        <time>2017-04-03T10:29:34Z</time>
      </trkpt>
      <trkpt lat="45.94403" lon="4.72651">
        <ele>174</ele>
        <time>2017-04-03T10:29:35Z</time>
      </trkpt>
      <trkpt lat="45.94402" lon="4.7264">
        <ele>174</ele>
        <time>2017-04-03T10:29:36Z</time>
      </trkpt>
      <trkpt lat="45.94401" lon="4.72631">
        <ele>174</ele>
        <time>2017-04-03T10:29:37Z</time>
      </trkpt>
      <trkpt lat="45.944" lon="4.72621">
        <ele>173</ele>
        <time>2017-04-03T10:29:38Z</time>
      </trkpt>
      <trkpt lat="45.94399" lon="4.72612">
        <ele>173</ele>
        <time>2017-04-03T10:29:39Z</time>
      </trkpt>
      <trkpt lat="45.94398" lon="4.72603">
        <ele>173</ele>
        <time>2017-04-03T10:29:40Z</time>
      </trkpt>
      <trkpt lat="45.94396" lon="4.72594">
        <ele>173</ele>
        <time>2017-04-03T10:29:41Z</time>
      </trkpt>
      <trkpt lat="45.94395" lon="4.72586">
        <ele>173</ele>
        <time>2017-04-03T10:29:42Z</time>
      </trkpt>
      <trkpt lat="45.94393" lon="4.72578">
        <ele>173</ele>
        <time>2017-04-03T10:29:43Z</time>
      </trkpt>
      <trkpt lat="45.94391" lon="4.72569">
        <ele>173</ele>
        <time>2017-04-03T10:29:44Z</time>
      </trkpt>
      <trkpt lat="45.9439" lon="4.72562">
        <ele>173</ele>
        <time>2017-04-03T10:29:45Z</time>
      </trkpt>
      <trkpt lat="45.94388" lon="4.72554">
        <ele>173</ele>
        <time>2017-04-03T10:29:46Z</time>
      </trkpt>
      <trkpt lat="45.94387" lon="4.72546">
        <ele>173</ele>
        <time>2017-04-03T10:29:47Z</time>
      </trkpt>
      <trkpt lat="45.94385" lon="4.72539">
        <ele>174</ele>
        <time>2017-04-03T10:29:48Z</time>
      </trkpt>
      <trkpt lat="45.94383" lon="4.72531">
        <ele>174</ele>
        <time>2017-04-03T10:29:49Z</time>
      </trkpt>
      <trkpt lat="45.94382" lon="4.72524">
        <ele>174</ele>
        <time>2017-04-03T10:29:50Z</time>
      </trkpt>
      <trkpt lat="45.9438" lon="4.72517">
        <ele>174</ele>
        <time>2017-04-03T10:29:51Z</time>
      </trkpt>
      <trkpt lat="45.94378" lon="4.72509">
        <ele>174</ele>
        <time>2017-04-03T10:29:52Z</time>
      </trkpt>
      <trkpt lat="45.94376" lon="4.72502">
        <ele>174</ele>
        <time>2017-04-03T10:29:53Z</time>
      </trkpt>
      <trkpt lat="45.94374" lon="4.72495">
        <ele>173</ele>
        <time>2017-04-03T10:29:54Z</time>
      </trkpt>
      <trkpt lat="45.94372" lon="4.72487">
        <ele>173</ele>
        <time>2017-04-03T10:29:55Z</time>
      </trkpt>
      <trkpt lat="45.94369" lon="4.7248">
        <ele>173</ele>
        <time>2017-04-03T10:29:56Z</time>
      </trkpt>
      <trkpt lat="45.94365" lon="4.72473">
        <ele>173</ele>
        <time>2017-04-03T10:29:57Z</time>
      </trkpt>
      <trkpt lat="45.94361" lon="4.72466">
        <ele>173</ele>
        <time>2017-04-03T10:29:58Z</time>
      </trkpt>
      <trkpt lat="45.94358" lon="4.72459">
        <ele>173</ele>
        <time>2017-04-03T10:29:59Z</time>
      </trkpt>
      <trkpt lat="45.94355" lon="4.72451">
        <ele>173</ele>
        <time>2017-04-03T10:30:00Z</time>
      </trkpt>
      <trkpt lat="45.94352" lon="4.72445">
        <ele>173</ele>
        <time>2017-04-03T10:30:01Z</time>
      </trkpt>
      <trkpt lat="45.94349" lon="4.72438">
        <ele>173</ele>
        <time>2017-04-03T10:30:02Z</time>
      </trkpt>
      <trkpt lat="45.94347" lon="4.72431">
        <ele>173</ele>
        <time>2017-04-03T10:30:03Z</time>
      </trkpt>
      <trkpt lat="45.94344" lon="4.72424">
        <ele>173</ele>
        <time>2017-04-03T10:30:04Z</time>
      </trkpt>
      <trkpt lat="45.94342" lon="4.72416">
        <ele>173</ele>
        <time>2017-04-03T10:30:05Z</time>
      </trkpt>
      <trkpt lat="45.94339" lon="4.72408">
        <ele>173</ele>
        <time>2017-04-03T10:30:06Z</time>
      </trkpt>
      <trkpt lat="45.94335" lon="4.72401">
        <ele>173</ele>
        <time>2017-04-03T10:30:07Z</time>
      </trkpt>
      <trkpt lat="45.94332" lon="4.72394">
        <ele>172</ele>
        <time>2017-04-03T10:30:08Z</time>
      </trkpt>
      <trkpt lat="45.94329" lon="4.72386">
        <ele>172</ele>
        <time>2017-04-03T10:30:09Z</time>
      </trkpt>
      <trkpt lat="45.94326" lon="4.72378">
        <ele>172</ele>
        <time>2017-04-03T10:30:10Z</time>
      </trkpt>
      <trkpt lat="45.94323" lon="4.72371">
        <ele>172</ele>
        <time>2017-04-03T10:30:11Z</time>
      </trkpt>
      <trkpt lat="45.9432" lon="4.72365">
        <ele>172</ele>
        <time>2017-04-03T10:30:12Z</time>
      </trkpt>
      <trkpt lat="45.94317" lon="4.72358">
        <ele>172</ele>
        <time>2017-04-03T10:30:13Z</time>
      </trkpt>
      <trkpt lat="45.94314" lon="4.72351">
        <ele>172</ele>
        <time>2017-04-03T10:30:14Z</time>
      </trkpt>
      <trkpt lat="45.94311" lon="4.72345">
        <ele>172</ele>
        <time>2017-04-03T10:30:15Z</time>
      </trkpt>
      <trkpt lat="45.94308" lon="4.72339">
        <ele>172</ele>
        <time>2017-04-03T10:30:16Z</time>
      </trkpt>
      <trkpt lat="45.94304" lon="4.72333">
        <ele>171</ele>
        <time>2017-04-03T10:30:17Z</time>
      </trkpt>
      <trkpt lat="45.943" lon="4.72328">
        <ele>171</ele>
        <time>2017-04-03T10:30:18Z</time>
      </trkpt>
      <trkpt lat="45.94297" lon="4.72321">
        <ele>171</ele>
        <time>2017-04-03T10:30:19Z</time>
      </trkpt>
      <trkpt lat="45.94293" lon="4.72314">
        <ele>171</ele>
        <time>2017-04-03T10:30:20Z</time>
      </trkpt>
      <trkpt lat="45.94289" lon="4.72307">
        <ele>171</ele>
        <time>2017-04-03T10:30:21Z</time>
      </trkpt>
      <trkpt lat="45.94286" lon="4.723">
        <ele>171</ele>
        <time>2017-04-03T10:30:22Z</time>
      </trkpt>
      <trkpt lat="45.94282" lon="4.72293">
        <ele>171</ele>
        <time>2017-04-03T10:30:23Z</time>
      </trkpt>
      <trkpt lat="45.94279" lon="4.72286">
        <ele>171</ele>
        <time>2017-04-03T10:30:24Z</time>
      </trkpt>
      <trkpt lat="45.94275" lon="4.72279">
        <ele>171</ele>
        <time>2017-04-03T10:30:25Z</time>
      </trkpt>
      <trkpt lat="45.94272" lon="4.72274">
        <ele>171</ele>
        <time>2017-04-03T10:30:26Z</time>
      </trkpt>
      <trkpt lat="45.94264" lon="4.72271">
        <ele>171</ele>
        <time>2017-04-03T10:30:28Z</time>
      </trkpt>
      <trkpt lat="45.9426" lon="4.72273">
        <ele>171</ele>
        <time>2017-04-03T10:30:29Z</time>
      </trkpt>
      <trkpt lat="45.94256" lon="4.72275">
        <ele>171</ele>
        <time>2017-04-03T10:30:30Z</time>
      </trkpt>
      <trkpt lat="45.94251" lon="4.72277">
        <ele>171</ele>
        <time>2017-04-03T10:30:31Z</time>
      </trkpt>
      <trkpt lat="45.94245" lon="4.72278">
        <ele>171</ele>
        <time>2017-04-03T10:30:32Z</time>
      </trkpt>
      <trkpt lat="45.94239" lon="4.72279">
        <ele>171</ele>
        <time>2017-04-03T10:30:33Z</time>
      </trkpt>
      <trkpt lat="45.94233" lon="4.72279">
        <ele>171</ele>
        <time>2017-04-03T10:30:34Z</time>
      </trkpt>
      <trkpt lat="45.94226" lon="4.7228">
        <ele>171</ele>
        <time>2017-04-03T10:30:35Z</time>
      </trkpt>
      <trkpt lat="45.9422" lon="4.7228">
        <ele>171</ele>
        <time>2017-04-03T10:30:36Z</time>
      </trkpt>
      <trkpt lat="45.94215" lon="4.72281">
        <ele>171</ele>
        <time>2017-04-03T10:30:37Z</time>
      </trkpt>
      <trkpt lat="45.94209" lon="4.72281">
        <ele>171</ele>
        <time>2017-04-03T10:30:38Z</time>
      </trkpt>
      <trkpt lat="45.94203" lon="4.72282">
        <ele>171</ele>
        <time>2017-04-03T10:30:39Z</time>
      </trkpt>
      <trkpt lat="45.94198" lon="4.72281">
        <ele>171</ele>
        <time>2017-04-03T10:30:40Z</time>
      </trkpt>
      <trkpt lat="45.94193" lon="4.72281">
        <ele>171</ele>
        <time>2017-04-03T10:30:41Z</time>
      </trkpt>
      <trkpt lat="45.94187" lon="4.72282">
        <ele>171</ele>
        <time>2017-04-03T10:30:42Z</time>
      </trkpt>
      <trkpt lat="45.94182" lon="4.72281">
        <ele>171</ele>
        <time>2017-04-03T10:30:43Z</time>
      </trkpt>
      <trkpt lat="45.94177" lon="4.7228">
        <ele>171</ele>
        <time>2017-04-03T10:30:44Z</time>
      </trkpt>
      <trkpt lat="45.94171" lon="4.72279">
        <ele>171</ele>
        <time>2017-04-03T10:30:45Z</time>
      </trkpt>
      <trkpt lat="45.94166" lon="4.72278">
        <ele>171</ele>
        <time>2017-04-03T10:30:46Z</time>
      </trkpt>
      <trkpt lat="45.9416" lon="4.72277">
        <ele>171</ele>
        <time>2017-04-03T10:30:47Z</time>
      </trkpt>
      <trkpt lat="45.94155" lon="4.72275">
        <ele>171</ele>
        <time>2017-04-03T10:30:48Z</time>
      </trkpt>
      <trkpt lat="45.94149" lon="4.72274">
        <ele>171</ele>
        <time>2017-04-03T10:30:49Z</time>
      </trkpt>
      <trkpt lat="45.94144" lon="4.72271">
        <ele>171</ele>
        <time>2017-04-03T10:30:50Z</time>
      </trkpt>
      <trkpt lat="45.94139" lon="4.72269">
        <ele>171</ele>
        <time>2017-04-03T10:30:51Z</time>
      </trkpt>
      <trkpt lat="45.94133" lon="4.72266">
        <ele>171</ele>
        <time>2017-04-03T10:30:52Z</time>
      </trkpt>
      <trkpt lat="45.94127" lon="4.72263">
        <ele>171</ele>
        <time>2017-04-03T10:30:53Z</time>
      </trkpt>
      <trkpt lat="45.94121" lon="4.72261">
        <ele>171</ele>
        <time>2017-04-03T10:30:54Z</time>
      </trkpt>
      <trkpt lat="45.94116" lon="4.7226">
        <ele>171</ele>
        <time>2017-04-03T10:30:55Z</time>
      </trkpt>
      <trkpt lat="45.9411" lon="4.72259">
        <ele>171</ele>
        <time>2017-04-03T10:30:56Z</time>
      </trkpt>
      <trkpt lat="45.94104" lon="4.72259">
        <ele>171</ele>
        <time>2017-04-03T10:30:57Z</time>
      </trkpt>
      <trkpt lat="45.94098" lon="4.72259">
        <ele>171</ele>
        <time>2017-04-03T10:30:58Z</time>
      </trkpt>
      <trkpt lat="45.94092" lon="4.72261">
        <ele>171</ele>
        <time>2017-04-03T10:30:59Z</time>
      </trkpt>
      <trkpt lat="45.94086" lon="4.72263">
        <ele>171</ele>
        <time>2017-04-03T10:31:00Z</time>
      </trkpt>
      <trkpt lat="45.94081" lon="4.72267">
        <ele>171</ele>
        <time>2017-04-03T10:31:01Z</time>
      </trkpt>
      <trkpt lat="45.94076" lon="4.72271">
        <ele>171</ele>
        <time>2017-04-03T10:31:02Z</time>
      </trkpt>
      <trkpt lat="45.94072" lon="4.72277">
        <ele>171</ele>
        <time>2017-04-03T10:31:03Z</time>
      </trkpt>
      <trkpt lat="45.94066" lon="4.72283">
        <ele>171</ele>
        <time>2017-04-03T10:31:04Z</time>
      </trkpt>
      <trkpt lat="45.94061" lon="4.72288">
        <ele>171</ele>
        <time>2017-04-03T10:31:05Z</time>
      </trkpt>
      <trkpt lat="45.94056" lon="4.72294">
        <ele>171</ele>
        <time>2017-04-03T10:31:06Z</time>
      </trkpt>
      <trkpt lat="45.94051" lon="4.723">
        <ele>171</ele>
        <time>2017-04-03T10:31:07Z</time>
      </trkpt>
      <trkpt lat="45.94046" lon="4.72306">
        <ele>171</ele>
        <time>2017-04-03T10:31:08Z</time>
      </trkpt>
      <trkpt lat="45.94041" lon="4.72312">
        <ele>171</ele>
        <time>2017-04-03T10:31:09Z</time>
      </trkpt>
      <trkpt lat="45.94036" lon="4.72318">
        <ele>171</ele>
        <time>2017-04-03T10:31:10Z</time>
      </trkpt>
      <trkpt lat="45.94031" lon="4.72325">
        <ele>171</ele>
        <time>2017-04-03T10:31:11Z</time>
      </trkpt>
      <trkpt lat="45.94026" lon="4.72331">
        <ele>171</ele>
        <time>2017-04-03T10:31:12Z</time>
      </trkpt>
      <trkpt lat="45.94021" lon="4.72337">
        <ele>171</ele>
        <time>2017-04-03T10:31:13Z</time>
      </trkpt>
      <trkpt lat="45.94016" lon="4.72342">
        <ele>171</ele>
        <time>2017-04-03T10:31:14Z</time>
      </trkpt>
      <trkpt lat="45.94011" lon="4.72348">
        <ele>171</ele>
        <time>2017-04-03T10:31:15Z</time>
      </trkpt>
      <trkpt lat="45.94007" lon="4.72353">
        <ele>171</ele>
        <time>2017-04-03T10:31:16Z</time>
      </trkpt>
      <trkpt lat="45.94002" lon="4.72359">
        <ele>171</ele>
        <time>2017-04-03T10:31:17Z</time>
      </trkpt>
      <trkpt lat="45.93997" lon="4.72364">
        <ele>171</ele>
        <time>2017-04-03T10:31:18Z</time>
      </trkpt>
      <trkpt lat="45.93993" lon="4.7237">
        <ele>171</ele>
        <time>2017-04-03T10:31:19Z</time>
      </trkpt>
      <trkpt lat="45.93988" lon="4.72376">
        <ele>171</ele>
        <time>2017-04-03T10:31:20Z</time>
      </trkpt>
      <trkpt lat="45.93983" lon="4.72382">
        <ele>171</ele>
        <time>2017-04-03T10:31:21Z</time>
      </trkpt>
      <trkpt lat="45.93978" lon="4.72387">
        <ele>171</ele>
        <time>2017-04-03T10:31:22Z</time>
      </trkpt>
      <trkpt lat="45.93974" lon="4.72393">
        <ele>171</ele>
        <time>2017-04-03T10:31:23Z</time>
      </trkpt>
      <trkpt lat="45.93969" lon="4.724">
        <ele>171</ele>
        <time>2017-04-03T10:31:24Z</time>
      </trkpt>
      <trkpt lat="45.93964" lon="4.72405">
        <ele>171</ele>
        <time>2017-04-03T10:31:25Z</time>
      </trkpt>
      <trkpt lat="45.93959" lon="4.72411">
        <ele>171</ele>
        <time>2017-04-03T10:31:26Z</time>
      </trkpt>
      <trkpt lat="45.93954" lon="4.72417">
        <ele>171</ele>
        <time>2017-04-03T10:31:27Z</time>
      </trkpt>
      <trkpt lat="45.93949" lon="4.72423">
        <ele>171</ele>
        <time>2017-04-03T10:31:28Z</time>
      </trkpt>
      <trkpt lat="45.93944" lon="4.72428">
        <ele>171</ele>
        <time>2017-04-03T10:31:29Z</time>
      </trkpt>
      <trkpt lat="45.93939" lon="4.72434">
        <ele>171</ele>
        <time>2017-04-03T10:31:30Z</time>
      </trkpt>
      <trkpt lat="45.93936" lon="4.7244">
        <ele>171</ele>
        <time>2017-04-03T10:31:31Z</time>
      </trkpt>
      <trkpt lat="45.93931" lon="4.72446">
        <ele>171</ele>
        <time>2017-04-03T10:31:32Z</time>
      </trkpt>
      <trkpt lat="45.93927" lon="4.72452">
        <ele>171</ele>
        <time>2017-04-03T10:31:33Z</time>
      </trkpt>
      <trkpt lat="45.93923" lon="4.72458">
        <ele>171</ele>
        <time>2017-04-03T10:31:34Z</time>
      </trkpt>
      <trkpt lat="45.93919" lon="4.72463">
        <ele>171</ele>
        <time>2017-04-03T10:31:35Z</time>
      </trkpt>
      <trkpt lat="45.93914" lon="4.72468">
        <ele>172</ele>
        <time>2017-04-03T10:31:36Z</time>
      </trkpt>
      <trkpt lat="45.9391" lon="4.72473">
        <ele>172</ele>
        <time>2017-04-03T10:31:37Z</time>
      </trkpt>
      <trkpt lat="45.93906" lon="4.72478">
        <ele>172</ele>
        <time>2017-04-03T10:31:38Z</time>
      </trkpt>
      <trkpt lat="45.93902" lon="4.72483">
        <ele>172</ele>
        <time>2017-04-03T10:31:39Z</time>
      </trkpt>
      <trkpt lat="45.93898" lon="4.72488">
        <ele>172</ele>
        <time>2017-04-03T10:31:40Z</time>
      </trkpt>
      <trkpt lat="45.93894" lon="4.72494">
        <ele>172</ele>
        <time>2017-04-03T10:31:41Z</time>
      </trkpt>
      <trkpt lat="45.9389" lon="4.72498">
        <ele>172</ele>
        <time>2017-04-03T10:31:42Z</time>
      </trkpt>
      <trkpt lat="45.93885" lon="4.72503">
        <ele>173</ele>
        <time>2017-04-03T10:31:43Z</time>
      </trkpt>
      <trkpt lat="45.93881" lon="4.72507">
        <ele>173</ele>
        <time>2017-04-03T10:31:44Z</time>
      </trkpt>
      <trkpt lat="45.93876" lon="4.7251">
        <ele>173</ele>
        <time>2017-04-03T10:31:45Z</time>
      </trkpt>
      <trkpt lat="45.93871" lon="4.72511">
        <ele>173</ele>
        <time>2017-04-03T10:31:46Z</time>
      </trkpt>
      <trkpt lat="45.93866" lon="4.72511">
        <ele>173</ele>
        <time>2017-04-03T10:31:47Z</time>
      </trkpt>
      <trkpt lat="45.93861" lon="4.72508">
        <ele>173</ele>
        <time>2017-04-03T10:31:48Z</time>
      </trkpt>
      <trkpt lat="45.93856" lon="4.72505">
        <ele>173</ele>
        <time>2017-04-03T10:31:49Z</time>
      </trkpt>
      <trkpt lat="45.93851" lon="4.72502">
        <ele>174</ele>
        <time>2017-04-03T10:31:50Z</time>
      </trkpt>
      <trkpt lat="45.93846" lon="4.725">
        <ele>173</ele>
        <time>2017-04-03T10:31:51Z</time>
      </trkpt>
      <trkpt lat="45.93841" lon="4.72497">
        <ele>173</ele>
        <time>2017-04-03T10:31:52Z</time>
      </trkpt>
      <trkpt lat="45.93836" lon="4.72494">
        <ele>174</ele>
        <time>2017-04-03T10:31:53Z</time>
      </trkpt>
      <trkpt lat="45.93832" lon="4.72491">
        <ele>173</ele>
        <time>2017-04-03T10:31:54Z</time>
      </trkpt>
      <trkpt lat="45.93828" lon="4.72487">
        <ele>173</ele>
        <time>2017-04-03T10:31:55Z</time>
      </trkpt>
      <trkpt lat="45.93827" lon="4.72474">
        <ele>173</ele>
        <time>2017-04-03T10:31:57Z</time>
      </trkpt>
      <trkpt lat="45.93825" lon="4.7247">
        <ele>172</ele>
        <time>2017-04-03T10:31:58Z</time>
      </trkpt>
      <trkpt lat="45.93817" lon="4.72464">
        <ele>172</ele>
        <time>2017-04-03T10:32:00Z</time>
      </trkpt>
      <trkpt lat="45.93816" lon="4.72461">
        <ele>172</ele>
        <time>2017-04-03T10:32:01Z</time>
      </trkpt>
      <trkpt lat="45.93813" lon="4.72453">
        <ele>172</ele>
        <time>2017-04-03T10:32:03Z</time>
      </trkpt>
      <trkpt lat="45.93808" lon="4.72447">
        <ele>172</ele>
        <time>2017-04-03T10:32:04Z</time>
      </trkpt>
      <trkpt lat="45.93805" lon="4.72442">
        <ele>172</ele>
        <time>2017-04-03T10:32:05Z</time>
      </trkpt>
      <trkpt lat="45.93801" lon="4.72437">
        <ele>172</ele>
        <time>2017-04-03T10:32:06Z</time>
      </trkpt>
      <trkpt lat="45.93797" lon="4.72433">
        <ele>172</ele>
        <time>2017-04-03T10:32:07Z</time>
      </trkpt>
      <trkpt lat="45.93793" lon="4.72429">
        <ele>172</ele>
        <time>2017-04-03T10:32:08Z</time>
      </trkpt>
      <trkpt lat="45.9379" lon="4.72423">
        <ele>172</ele>
        <time>2017-04-03T10:32:09Z</time>
      </trkpt>
      <trkpt lat="45.93788" lon="4.72418">
        <ele>172</ele>
        <time>2017-04-03T10:32:10Z</time>
      </trkpt>
      <trkpt lat="45.93783" lon="4.72414">
        <ele>172</ele>
        <time>2017-04-03T10:32:11Z</time>
      </trkpt>
      <trkpt lat="45.93777" lon="4.72409">
        <ele>172</ele>
        <time>2017-04-03T10:32:12Z</time>
      </trkpt>
      <trkpt lat="45.93772" lon="4.72404">
        <ele>171</ele>
        <time>2017-04-03T10:32:13Z</time>
      </trkpt>
      <trkpt lat="45.93767" lon="4.72398">
        <ele>172</ele>
        <time>2017-04-03T10:32:14Z</time>
      </trkpt>
      <trkpt lat="45.93763" lon="4.72392">
        <ele>172</ele>
        <time>2017-04-03T10:32:15Z</time>
      </trkpt>
      <trkpt lat="45.93759" lon="4.72386">
        <ele>172</ele>
        <time>2017-04-03T10:32:16Z</time>
      </trkpt>
      <trkpt lat="45.93755" lon="4.72381">
        <ele>172</ele>
        <time>2017-04-03T10:32:17Z</time>
      </trkpt>
      <trkpt lat="45.93749" lon="4.72375">
        <ele>171</ele>
        <time>2017-04-03T10:32:18Z</time>
      </trkpt>
      <trkpt lat="45.93742" lon="4.72371">
        <ele>172</ele>
        <time>2017-04-03T10:32:19Z</time>
      </trkpt>
      <trkpt lat="45.93734" lon="4.72366">
        <ele>172</ele>
        <time>2017-04-03T10:32:20Z</time>
      </trkpt>
      <trkpt lat="45.93728" lon="4.72362">
        <ele>172</ele>
        <time>2017-04-03T10:32:21Z</time>
      </trkpt>
      <trkpt lat="45.93723" lon="4.72357">
        <ele>172</ele>
        <time>2017-04-03T10:32:22Z</time>
      </trkpt>
      <trkpt lat="45.93718" lon="4.72353">
        <ele>172</ele>
        <time>2017-04-03T10:32:23Z</time>
      </trkpt>
      <trkpt lat="45.93714" lon="4.72349">
        <ele>172</ele>
        <time>2017-04-03T10:32:24Z</time>
      </trkpt>
      <trkpt lat="45.93709" lon="4.72345">
        <ele>172</ele>
        <time>2017-04-03T10:32:25Z</time>
      </trkpt>
      <trkpt lat="45.93699" lon="4.72343">
        <ele>171</ele>
        <time>2017-04-03T10:32:26Z</time>
      </trkpt>
      <trkpt lat="45.93695" lon="4.72339">
        <ele>171</ele>
        <time>2017-04-03T10:32:27Z</time>
      </trkpt>
      <trkpt lat="45.93691" lon="4.72335">
        <ele>171</ele>
        <time>2017-04-03T10:32:28Z</time>
      </trkpt>
      <trkpt lat="45.93685" lon="4.7233">
        <ele>172</ele>
        <time>2017-04-03T10:32:29Z</time>
      </trkpt>
      <trkpt lat="45.9368" lon="4.72325">
        <ele>171</ele>
        <time>2017-04-03T10:32:30Z</time>
      </trkpt>
      <trkpt lat="45.93675" lon="4.72319">
        <ele>171</ele>
        <time>2017-04-03T10:32:31Z</time>
      </trkpt>
      <trkpt lat="45.9367" lon="4.72313">
        <ele>172</ele>
        <time>2017-04-03T10:32:32Z</time>
      </trkpt>
      <trkpt lat="45.93665" lon="4.72308">
        <ele>172</ele>
        <time>2017-04-03T10:32:33Z</time>
      </trkpt>
      <trkpt lat="45.9366" lon="4.72303">
        <ele>172</ele>
        <time>2017-04-03T10:32:34Z</time>
      </trkpt>
      <trkpt lat="45.93654" lon="4.72298">
        <ele>172</ele>
        <time>2017-04-03T10:32:35Z</time>
      </trkpt>
      <trkpt lat="45.93649" lon="4.72293">
        <ele>172</ele>
        <time>2017-04-03T10:32:36Z</time>
      </trkpt>
      <trkpt lat="45.93643" lon="4.72289">
        <ele>172</ele>
        <time>2017-04-03T10:32:37Z</time>
      </trkpt>
      <trkpt lat="45.93639" lon="4.72285">
        <ele>172</ele>
        <time>2017-04-03T10:32:38Z</time>
      </trkpt>
      <trkpt lat="45.93634" lon="4.72281">
        <ele>172</ele>
        <time>2017-04-03T10:32:39Z</time>
      </trkpt>
      <trkpt lat="45.9363" lon="4.72277">
        <ele>172</ele>
        <time>2017-04-03T10:32:40Z</time>
      </trkpt>
      <trkpt lat="45.93627" lon="4.72273">
        <ele>172</ele>
        <time>2017-04-03T10:32:41Z</time>
      </trkpt>
      <trkpt lat="45.93622" lon="4.7227">
        <ele>172</ele>
        <time>2017-04-03T10:32:42Z</time>
      </trkpt>
      <trkpt lat="45.93614" lon="4.72264">
        <ele>172</ele>
        <time>2017-04-03T10:32:44Z</time>
      </trkpt>
      <trkpt lat="45.93609" lon="4.7226">
        <ele>173</ele>
        <time>2017-04-03T10:32:45Z</time>
      </trkpt>
      <trkpt lat="45.93603" lon="4.72257">
        <ele>173</ele>
        <time>2017-04-03T10:32:46Z</time>
      </trkpt>
      <trkpt lat="45.93598" lon="4.72252">
        <ele>173</ele>
        <time>2017-04-03T10:32:47Z</time>
      </trkpt>
      <trkpt lat="45.93596" lon="4.72246">
        <ele>173</ele>
        <time>2017-04-03T10:32:48Z</time>
      </trkpt>
      <trkpt lat="45.93595" lon="4.7224">
        <ele>173</ele>
        <time>2017-04-03T10:32:49Z</time>
      </trkpt>
      <trkpt lat="45.93593" lon="4.72234">
        <ele>173</ele>
        <time>2017-04-03T10:32:50Z</time>
      </trkpt>
      <trkpt lat="45.93591" lon="4.72228">
        <ele>173</ele>
        <time>2017-04-03T10:32:51Z</time>
      </trkpt>
      <trkpt lat="45.93587" lon="4.72223">
        <ele>173</ele>
        <time>2017-04-03T10:32:52Z</time>
      </trkpt>
      <trkpt lat="45.93586" lon="4.72217">
        <ele>173</ele>
        <time>2017-04-03T10:32:53Z</time>
      </trkpt>
      <trkpt lat="45.93578" lon="4.72211">
        <ele>173</ele>
        <time>2017-04-03T10:32:55Z</time>
      </trkpt>
      <trkpt lat="45.93573" lon="4.7221">
        <ele>173</ele>
        <time>2017-04-03T10:32:56Z</time>
      </trkpt>
      <trkpt lat="45.93568" lon="4.72211">
        <ele>173</ele>
        <time>2017-04-03T10:32:57Z</time>
      </trkpt>
      <trkpt lat="45.93564" lon="4.72214">
        <ele>173</ele>
        <time>2017-04-03T10:32:58Z</time>
      </trkpt>
      <trkpt lat="45.93558" lon="4.72219">
        <ele>173</ele>
        <time>2017-04-03T10:32:59Z</time>
      </trkpt>
      <trkpt lat="45.93555" lon="4.72225">
        <ele>173</ele>
        <time>2017-04-03T10:33:00Z</time>
      </trkpt>
      <trkpt lat="45.93552" lon="4.7223">
        <ele>172</ele>
        <time>2017-04-03T10:33:01Z</time>
      </trkpt>
      <trkpt lat="45.93548" lon="4.72237">
        <ele>172</ele>
        <time>2017-04-03T10:33:02Z</time>
      </trkpt>
      <trkpt lat="45.93545" lon="4.72243">
        <ele>172</ele>
        <time>2017-04-03T10:33:03Z</time>
      </trkpt>
      <trkpt lat="45.93542" lon="4.72249">
        <ele>172</ele>
        <time>2017-04-03T10:33:04Z</time>
      </trkpt>
      <trkpt lat="45.93538" lon="4.72256">
        <ele>172</ele>
        <time>2017-04-03T10:33:05Z</time>
      </trkpt>
      <trkpt lat="45.93535" lon="4.72262">
        <ele>172</ele>
        <time>2017-04-03T10:33:06Z</time>
      </trkpt>
      <trkpt lat="45.93532" lon="4.7227">
        <ele>172</ele>
        <time>2017-04-03T10:33:07Z</time>
      </trkpt>
      <trkpt lat="45.93529" lon="4.72278">
        <ele>172</ele>
        <time>2017-04-03T10:33:08Z</time>
      </trkpt>
      <trkpt lat="45.93526" lon="4.72286">
        <ele>172</ele>
        <time>2017-04-03T10:33:09Z</time>
      </trkpt>
      <trkpt lat="45.93522" lon="4.72293">
        <ele>172</ele>
        <time>2017-04-03T10:33:10Z</time>
      </trkpt>
      <trkpt lat="45.93518" lon="4.72299">
        <ele>172</ele>
        <time>2017-04-03T10:33:11Z</time>
      </trkpt>
      <trkpt lat="45.93514" lon="4.72306">
        <ele>173</ele>
        <time>2017-04-03T10:33:12Z</time>
      </trkpt>
      <trkpt lat="45.93509" lon="4.72313">
        <ele>173</ele>
        <time>2017-04-03T10:33:13Z</time>
      </trkpt>
      <trkpt lat="45.93504" lon="4.7232">
        <ele>173</ele>
        <time>2017-04-03T10:33:14Z</time>
      </trkpt>
      <trkpt lat="45.935" lon="4.72326">
        <ele>173</ele>
        <time>2017-04-03T10:33:15Z</time>
      </trkpt>
      <trkpt lat="45.93495" lon="4.72333">
        <ele>173</ele>
        <time>2017-04-03T10:33:16Z</time>
      </trkpt>
      <trkpt lat="45.93491" lon="4.72339">
        <ele>173</ele>
        <time>2017-04-03T10:33:17Z</time>
      </trkpt>
      <trkpt lat="45.93486" lon="4.72346">
        <ele>173</ele>
        <time>2017-04-03T10:33:18Z</time>
      </trkpt>
      <trkpt lat="45.9348" lon="4.72353">
        <ele>173</ele>
        <time>2017-04-03T10:33:19Z</time>
      </trkpt>
      <trkpt lat="45.93475" lon="4.7236">
        <ele>173</ele>
        <time>2017-04-03T10:33:20Z</time>
      </trkpt>
      <trkpt lat="45.9347" lon="4.72365">
        <ele>173</ele>
        <time>2017-04-03T10:33:21Z</time>
      </trkpt>
      <trkpt lat="45.93466" lon="4.72371">
        <ele>173</ele>
        <time>2017-04-03T10:33:22Z</time>
      </trkpt>
      <trkpt lat="45.93461" lon="4.72377">
        <ele>173</ele>
        <time>2017-04-03T10:33:23Z</time>
      </trkpt>
      <trkpt lat="45.93456" lon="4.72381">
        <ele>173</ele>
        <time>2017-04-03T10:33:24Z</time>
      </trkpt>
      <trkpt lat="45.9345" lon="4.72385">
        <ele>173</ele>
        <time>2017-04-03T10:33:25Z</time>
      </trkpt>
      <trkpt lat="45.93445" lon="4.72389">
        <ele>173</ele>
        <time>2017-04-03T10:33:26Z</time>
      </trkpt>
      <trkpt lat="45.9344" lon="4.72392">
        <ele>173</ele>
        <time>2017-04-03T10:33:27Z</time>
      </trkpt>
      <trkpt lat="45.93435" lon="4.72395">
        <ele>173</ele>
        <time>2017-04-03T10:33:28Z</time>
      </trkpt>
      <trkpt lat="45.9343" lon="4.72397">
        <ele>174</ele>
        <time>2017-04-03T10:33:29Z</time>
      </trkpt>
      <trkpt lat="45.93425" lon="4.72399">
        <ele>174</ele>
        <time>2017-04-03T10:33:30Z</time>
      </trkpt>
      <trkpt lat="45.93421" lon="4.72401">
        <ele>174</ele>
        <time>2017-04-03T10:33:31Z</time>
      </trkpt>
      <trkpt lat="45.93415" lon="4.72403">
        <ele>174</ele>
        <time>2017-04-03T10:33:32Z</time>
      </trkpt>
      <trkpt lat="45.9341" lon="4.72402">
        <ele>174</ele>
        <time>2017-04-03T10:33:33Z</time>
      </trkpt>
      <trkpt lat="45.93405" lon="4.72401">
        <ele>174</ele>
        <time>2017-04-03T10:33:34Z</time>
      </trkpt>
      <trkpt lat="45.93396" lon="4.72402">
        <ele>174</ele>
        <time>2017-04-03T10:33:36Z</time>
      </trkpt>
      <trkpt lat="45.93393" lon="4.72409">
        <ele>174</ele>
        <time>2017-04-03T10:33:37Z</time>
      </trkpt>
      <trkpt lat="45.9339" lon="4.72416">
        <ele>174</ele>
        <time>2017-04-03T10:33:38Z</time>
      </trkpt>
      <trkpt lat="45.93389" lon="4.72423">
        <ele>173</ele>
        <time>2017-04-03T10:33:39Z</time>
      </trkpt>
      <trkpt lat="45.93392" lon="4.72435">
        <ele>173</ele>
        <time>2017-04-03T10:33:41Z</time>
      </trkpt>
      <trkpt lat="45.93393" lon="4.72442">
        <ele>173</ele>
        <time>2017-04-03T10:33:42Z</time>
      </trkpt>
      <trkpt lat="45.93393" lon="4.7245">
        <ele>173</ele>
        <time>2017-04-03T10:33:43Z</time>
      </trkpt>
      <trkpt lat="45.93392" lon="4.72458">
        <ele>173</ele>
        <time>2017-04-03T10:33:44Z</time>
      </trkpt>
      <trkpt lat="45.93387" lon="4.72464">
        <ele>173</ele>
        <time>2017-04-03T10:33:45Z</time>
      </trkpt>
      <trkpt lat="45.93382" lon="4.7247">
        <ele>173</ele>
        <time>2017-04-03T10:33:46Z</time>
      </trkpt>
      <trkpt lat="45.93378" lon="4.72475">
        <ele>173</ele>
        <time>2017-04-03T10:33:47Z</time>
      </trkpt>
      <trkpt lat="45.93373" lon="4.72481">
        <ele>173</ele>
        <time>2017-04-03T10:33:48Z</time>
      </trkpt>
      <trkpt lat="45.93368" lon="4.72487">
        <ele>173</ele>
        <time>2017-04-03T10:33:49Z</time>
      </trkpt>
      <trkpt lat="45.93363" lon="4.72492">
        <ele>173</ele>
        <time>2017-04-03T10:33:50Z</time>
      </trkpt>
      <trkpt lat="45.93359" lon="4.72498">
        <ele>173</ele>
        <time>2017-04-03T10:33:51Z</time>
      </trkpt>
      <trkpt lat="45.93353" lon="4.72504">
        <ele>172</ele>
        <time>2017-04-03T10:33:52Z</time>
      </trkpt>
      <trkpt lat="45.93348" lon="4.7251">
        <ele>172</ele>
        <time>2017-04-03T10:33:53Z</time>
      </trkpt>
      <trkpt lat="45.93343" lon="4.72516">
        <ele>172</ele>
        <time>2017-04-03T10:33:54Z</time>
      </trkpt>
      <trkpt lat="45.93339" lon="4.72523">
        <ele>172</ele>
        <time>2017-04-03T10:33:55Z</time>
      </trkpt>
      <trkpt lat="45.93335" lon="4.72529">
        <ele>172</ele>
        <time>2017-04-03T10:33:56Z</time>
      </trkpt>
      <trkpt lat="45.9333" lon="4.72533">
        <ele>172</ele>
        <time>2017-04-03T10:33:57Z</time>
      </trkpt>
      <trkpt lat="45.93326" lon="4.72538">
        <ele>172</ele>
        <time>2017-04-03T10:33:58Z</time>
      </trkpt>
      <trkpt lat="45.93321" lon="4.72543">
        <ele>172</ele>
        <time>2017-04-03T10:33:59Z</time>
      </trkpt>
      <trkpt lat="45.93317" lon="4.72548">
        <ele>172</ele>
        <time>2017-04-03T10:34:00Z</time>
      </trkpt>
      <trkpt lat="45.93312" lon="4.72553">
        <ele>172</ele>
        <time>2017-04-03T10:34:01Z</time>
      </trkpt>
      <trkpt lat="45.93307" lon="4.72559">
        <ele>172</ele>
        <time>2017-04-03T10:34:02Z</time>
      </trkpt>
      <trkpt lat="45.93303" lon="4.72563">
        <ele>172</ele>
        <time>2017-04-03T10:34:03Z</time>
      </trkpt>
      <trkpt lat="45.93298" lon="4.72569">
        <ele>172</ele>
        <time>2017-04-03T10:34:04Z</time>
      </trkpt>
      <trkpt lat="45.93293" lon="4.72574">
        <ele>171</ele>
        <time>2017-04-03T10:34:05Z</time>
      </trkpt>
      <trkpt lat="45.93289" lon="4.72579">
        <ele>171</ele>
        <time>2017-04-03T10:34:06Z</time>
      </trkpt>
      <trkpt lat="45.93284" lon="4.72584">
        <ele>170</ele>
        <time>2017-04-03T10:34:07Z</time>
      </trkpt>
      <trkpt lat="45.9328" lon="4.7259">
        <ele>170</ele>
        <time>2017-04-03T10:34:08Z</time>
      </trkpt>
      <trkpt lat="45.93275" lon="4.72595">
        <ele>170</ele>
        <time>2017-04-03T10:34:09Z</time>
      </trkpt>
      <trkpt lat="45.93271" lon="4.726">
        <ele>170</ele>
        <time>2017-04-03T10:34:10Z</time>
      </trkpt>
      <trkpt lat="45.93267" lon="4.72605">
        <ele>170</ele>
        <time>2017-04-03T10:34:11Z</time>
      </trkpt>
      <trkpt lat="45.93262" lon="4.72611">
        <ele>170</ele>
        <time>2017-04-03T10:34:12Z</time>
      </trkpt>
      <trkpt lat="45.93259" lon="4.72616">
        <ele>170</ele>
        <time>2017-04-03T10:34:13Z</time>
      </trkpt>
      <trkpt lat="45.93254" lon="4.72621">
        <ele>170</ele>
        <time>2017-04-03T10:34:14Z</time>
      </trkpt>
      <trkpt lat="45.9325" lon="4.72627">
        <ele>170</ele>
        <time>2017-04-03T10:34:15Z</time>
      </trkpt>
      <trkpt lat="45.93245" lon="4.72632">
        <ele>170</ele>
        <time>2017-04-03T10:34:16Z</time>
      </trkpt>
      <trkpt lat="45.93241" lon="4.72638">
        <ele>170</ele>
        <time>2017-04-03T10:34:17Z</time>
      </trkpt>
      <trkpt lat="45.93237" lon="4.72643">
        <ele>170</ele>
        <time>2017-04-03T10:34:18Z</time>
      </trkpt>
      <trkpt lat="45.93232" lon="4.72649">
        <ele>170</ele>
        <time>2017-04-03T10:34:19Z</time>
      </trkpt>
      <trkpt lat="45.93227" lon="4.72654">
        <ele>170</ele>
        <time>2017-04-03T10:34:20Z</time>
      </trkpt>
      <trkpt lat="45.93223" lon="4.72659">
        <ele>170</ele>
        <time>2017-04-03T10:34:21Z</time>
      </trkpt>
      <trkpt lat="45.93217" lon="4.72665">
        <ele>170</ele>
        <time>2017-04-03T10:34:22Z</time>
      </trkpt>
      <trkpt lat="45.93212" lon="4.7267">
        <ele>169</ele>
        <time>2017-04-03T10:34:23Z</time>
      </trkpt>
      <trkpt lat="45.93207" lon="4.72676">
        <ele>169</ele>
        <time>2017-04-03T10:34:24Z</time>
      </trkpt>
      <trkpt lat="45.93203" lon="4.72681">
        <ele>169</ele>
        <time>2017-04-03T10:34:25Z</time>
      </trkpt>
      <trkpt lat="45.93198" lon="4.72686">
        <ele>169</ele>
        <time>2017-04-03T10:34:26Z</time>
      </trkpt>
      <trkpt lat="45.93194" lon="4.72692">
        <ele>169</ele>
        <time>2017-04-03T10:34:27Z</time>
      </trkpt>
      <trkpt lat="45.93189" lon="4.72697">
        <ele>169</ele>
        <time>2017-04-03T10:34:28Z</time>
      </trkpt>
      <trkpt lat="45.93184" lon="4.72703">
        <ele>169</ele>
        <time>2017-04-03T10:34:29Z</time>
      </trkpt>
      <trkpt lat="45.93179" lon="4.72709">
        <ele>169</ele>
        <time>2017-04-03T10:34:30Z</time>
      </trkpt>
      <trkpt lat="45.93174" lon="4.72714">
        <ele>170</ele>
        <time>2017-04-03T10:34:31Z</time>
      </trkpt>
      <trkpt lat="45.93169" lon="4.72719">
        <ele>170</ele>
        <time>2017-04-03T10:34:32Z</time>
      </trkpt>
      <trkpt lat="45.93165" lon="4.72724">
        <ele>170</ele>
        <time>2017-04-03T10:34:33Z</time>
      </trkpt>
      <trkpt lat="45.9316" lon="4.7273">
        <ele>170</ele>
        <time>2017-04-03T10:34:34Z</time>
      </trkpt>
      <trkpt lat="45.93155" lon="4.72735">
        <ele>170</ele>
        <time>2017-04-03T10:34:35Z</time>
      </trkpt>
      <trkpt lat="45.9315" lon="4.72741">
        <ele>170</ele>
        <time>2017-04-03T10:34:36Z</time>
      </trkpt>
      <trkpt lat="45.93145" lon="4.72747">
        <ele>170</ele>
        <time>2017-04-03T10:34:37Z</time>
      </trkpt>
      <trkpt lat="45.9314" lon="4.72753">
        <ele>171</ele>
        <time>2017-04-03T10:34:38Z</time>
      </trkpt>
      <trkpt lat="45.93135" lon="4.72759">
        <ele>171</ele>
        <time>2017-04-03T10:34:39Z</time>
      </trkpt>
      <trkpt lat="45.93129" lon="4.72765">
        <ele>171</ele>
        <time>2017-04-03T10:34:40Z</time>
      </trkpt>
      <trkpt lat="45.93124" lon="4.72771">
        <ele>171</ele>
        <time>2017-04-03T10:34:41Z</time>
      </trkpt>
      <trkpt lat="45.93119" lon="4.72777">
        <ele>171</ele>
        <time>2017-04-03T10:34:42Z</time>
      </trkpt>
      <trkpt lat="45.93115" lon="4.72783">
        <ele>171</ele>
        <time>2017-04-03T10:34:43Z</time>
      </trkpt>
      <trkpt lat="45.9311" lon="4.7279">
        <ele>171</ele>
        <time>2017-04-03T10:34:44Z</time>
      </trkpt>
      <trkpt lat="45.93106" lon="4.72796">
        <ele>171</ele>
        <time>2017-04-03T10:34:45Z</time>
      </trkpt>
      <trkpt lat="45.93101" lon="4.72801">
        <ele>171</ele>
        <time>2017-04-03T10:34:46Z</time>
      </trkpt>
      <trkpt lat="45.93096" lon="4.72806">
        <ele>172</ele>
        <time>2017-04-03T10:34:47Z</time>
      </trkpt>
      <trkpt lat="45.93091" lon="4.72812">
        <ele>172</ele>
        <time>2017-04-03T10:34:48Z</time>
      </trkpt>
      <trkpt lat="45.93086" lon="4.72817">
        <ele>172</ele>
        <time>2017-04-03T10:34:49Z</time>
      </trkpt>
      <trkpt lat="45.93081" lon="4.72822">
        <ele>173</ele>
        <time>2017-04-03T10:34:50Z</time>
      </trkpt>
      <trkpt lat="45.93076" lon="4.72828">
        <ele>173</ele>
        <time>2017-04-03T10:34:51Z</time>
      </trkpt>
      <trkpt lat="45.93072" lon="4.72833">
        <ele>173</ele>
        <time>2017-04-03T10:34:52Z</time>
      </trkpt>
      <trkpt lat="45.93067" lon="4.72839">
        <ele>173</ele>
        <time>2017-04-03T10:34:53Z</time>
      </trkpt>
      <trkpt lat="45.93063" lon="4.72847">
        <ele>172</ele>
        <time>2017-04-03T10:34:54Z</time>
      </trkpt>
      <trkpt lat="45.93059" lon="4.72854">
        <ele>172</ele>
        <time>2017-04-03T10:34:55Z</time>
      </trkpt>
      <trkpt lat="45.93054" lon="4.72859">
        <ele>172</ele>
        <time>2017-04-03T10:34:56Z</time>
      </trkpt>
      <trkpt lat="45.93049" lon="4.72863">
        <ele>172</ele>
        <time>2017-04-03T10:34:57Z</time>
      </trkpt>
      <trkpt lat="45.93044" lon="4.72866">
        <ele>172</ele>
        <time>2017-04-03T10:34:58Z</time>
      </trkpt>
      <trkpt lat="45.93039" lon="4.72872">
        <ele>172</ele>
        <time>2017-04-03T10:34:59Z</time>
      </trkpt>
      <trkpt lat="45.93035" lon="4.72877">
        <ele>172</ele>
        <time>2017-04-03T10:35:00Z</time>
      </trkpt>
      <trkpt lat="45.93032" lon="4.72882">
        <ele>172</ele>
        <time>2017-04-03T10:35:01Z</time>
      </trkpt>
      <trkpt lat="45.93028" lon="4.72888">
        <ele>172</ele>
        <time>2017-04-03T10:35:02Z</time>
      </trkpt>
      <trkpt lat="45.93023" lon="4.72893">
        <ele>172</ele>
        <time>2017-04-03T10:35:03Z</time>
      </trkpt>
      <trkpt lat="45.93019" lon="4.72898">
        <ele>172</ele>
        <time>2017-04-03T10:35:04Z</time>
      </trkpt>
      <trkpt lat="45.93014" lon="4.72903">
        <ele>172</ele>
        <time>2017-04-03T10:35:05Z</time>
      </trkpt>
      <trkpt lat="45.9301" lon="4.72909">
        <ele>171</ele>
        <time>2017-04-03T10:35:06Z</time>
      </trkpt>
      <trkpt lat="45.93005" lon="4.72914">
        <ele>171</ele>
        <time>2017-04-03T10:35:07Z</time>
      </trkpt>
      <trkpt lat="45.92999" lon="4.7292">
        <ele>171</ele>
        <time>2017-04-03T10:35:08Z</time>
      </trkpt>
      <trkpt lat="45.92994" lon="4.72926">
        <ele>171</ele>
        <time>2017-04-03T10:35:09Z</time>
      </trkpt>
      <trkpt lat="45.92989" lon="4.72932">
        <ele>171</ele>
        <time>2017-04-03T10:35:10Z</time>
      </trkpt>
      <trkpt lat="45.92984" lon="4.72938">
        <ele>171</ele>
        <time>2017-04-03T10:35:11Z</time>
      </trkpt>
      <trkpt lat="45.92979" lon="4.72944">
        <ele>171</ele>
        <time>2017-04-03T10:35:12Z</time>
      </trkpt>
      <trkpt lat="45.92973" lon="4.7295">
        <ele>171</ele>
        <time>2017-04-03T10:35:13Z</time>
      </trkpt>
      <trkpt lat="45.92968" lon="4.72956">
        <ele>171</ele>
        <time>2017-04-03T10:35:14Z</time>
      </trkpt>
      <trkpt lat="45.92963" lon="4.72962">
        <ele>171</ele>
        <time>2017-04-03T10:35:15Z</time>
      </trkpt>
      <trkpt lat="45.92959" lon="4.72968">
        <ele>171</ele>
        <time>2017-04-03T10:35:16Z</time>
      </trkpt>
      <trkpt lat="45.92954" lon="4.72974">
        <ele>171</ele>
        <time>2017-04-03T10:35:17Z</time>
      </trkpt>
      <trkpt lat="45.92949" lon="4.7298">
        <ele>171</ele>
        <time>2017-04-03T10:35:18Z</time>
      </trkpt>
      <trkpt lat="45.92944" lon="4.72985">
        <ele>171</ele>
        <time>2017-04-03T10:35:19Z</time>
      </trkpt>
      <trkpt lat="45.9294" lon="4.7299">
        <ele>171</ele>
        <time>2017-04-03T10:35:20Z</time>
      </trkpt>
      <trkpt lat="45.92935" lon="4.72996">
        <ele>172</ele>
        <time>2017-04-03T10:35:21Z</time>
      </trkpt>
      <trkpt lat="45.92931" lon="4.73002">
        <ele>172</ele>
        <time>2017-04-03T10:35:22Z</time>
      </trkpt>
      <trkpt lat="45.92927" lon="4.73007">
        <ele>172</ele>
        <time>2017-04-03T10:35:23Z</time>
      </trkpt>
      <trkpt lat="45.92922" lon="4.73013">
        <ele>172</ele>
        <time>2017-04-03T10:35:24Z</time>
      </trkpt>
      <trkpt lat="45.92918" lon="4.73018">
        <ele>172</ele>
        <time>2017-04-03T10:35:25Z</time>
      </trkpt>
      <trkpt lat="45.92914" lon="4.73024">
        <ele>172</ele>
        <time>2017-04-03T10:35:26Z</time>
      </trkpt>
      <trkpt lat="45.9291" lon="4.73029">
        <ele>172</ele>
        <time>2017-04-03T10:35:27Z</time>
      </trkpt>
      <trkpt lat="45.92905" lon="4.73035">
        <ele>172</ele>
        <time>2017-04-03T10:35:28Z</time>
      </trkpt>
      <trkpt lat="45.92901" lon="4.73041">
        <ele>172</ele>
        <time>2017-04-03T10:35:29Z</time>
      </trkpt>
      <trkpt lat="45.92897" lon="4.73047">
        <ele>172</ele>
        <time>2017-04-03T10:35:30Z</time>
      </trkpt>
      <trkpt lat="45.92893" lon="4.73054">
        <ele>172</ele>
        <time>2017-04-03T10:35:31Z</time>
      </trkpt>
      <trkpt lat="45.92889" lon="4.73061">
        <ele>172</ele>
        <time>2017-04-03T10:35:32Z</time>
      </trkpt>
      <trkpt lat="45.92885" lon="4.73067">
        <ele>172</ele>
        <time>2017-04-03T10:35:33Z</time>
      </trkpt>
      <trkpt lat="45.92881" lon="4.73073">
        <ele>172</ele>
        <time>2017-04-03T10:35:34Z</time>
      </trkpt>
      <trkpt lat="45.92877" lon="4.73078">
        <ele>172</ele>
        <time>2017-04-03T10:35:35Z</time>
      </trkpt>
      <trkpt lat="45.92873" lon="4.73082">
        <ele>172</ele>
        <time>2017-04-03T10:35:36Z</time>
      </trkpt>
      <trkpt lat="45.92869" lon="4.73087">
        <ele>172</ele>
        <time>2017-04-03T10:35:37Z</time>
      </trkpt>
      <trkpt lat="45.92865" lon="4.73093">
        <ele>171</ele>
        <time>2017-04-03T10:35:38Z</time>
      </trkpt>
      <trkpt lat="45.92861" lon="4.73098">
        <ele>171</ele>
        <time>2017-04-03T10:35:39Z</time>
      </trkpt>
      <trkpt lat="45.92857" lon="4.73101">
        <ele>171</ele>
        <time>2017-04-03T10:35:40Z</time>
      </trkpt>
      <trkpt lat="45.92849" lon="4.73096">
        <ele>171</ele>
        <time>2017-04-03T10:35:43Z</time>
      </trkpt>
      <trkpt lat="45.92848" lon="4.73091">
        <ele>171</ele>
        <time>2017-04-03T10:35:44Z</time>
      </trkpt>
      <trkpt lat="45.92845" lon="4.73079">
        <ele>171</ele>
        <time>2017-04-03T10:35:46Z</time>
      </trkpt>
      <trkpt lat="45.92844" lon="4.73072">
        <ele>171</ele>
        <time>2017-04-03T10:35:47Z</time>
      </trkpt>
      <trkpt lat="45.92842" lon="4.73064">
        <ele>171</ele>
        <time>2017-04-03T10:35:48Z</time>
      </trkpt>
      <trkpt lat="45.92841" lon="4.73056">
        <ele>171</ele>
        <time>2017-04-03T10:35:49Z</time>
      </trkpt>
      <trkpt lat="45.92839" lon="4.73048">
        <ele>171</ele>
        <time>2017-04-03T10:35:50Z</time>
      </trkpt>
      <trkpt lat="45.92837" lon="4.7304">
        <ele>171</ele>
        <time>2017-04-03T10:35:51Z</time>
      </trkpt>
      <trkpt lat="45.92835" lon="4.73031">
        <ele>171</ele>
        <time>2017-04-03T10:35:52Z</time>
      </trkpt>
      <trkpt lat="45.92833" lon="4.73023">
        <ele>170</ele>
        <time>2017-04-03T10:35:53Z</time>
      </trkpt>
      <trkpt lat="45.92831" lon="4.73014">
        <ele>170</ele>
        <time>2017-04-03T10:35:54Z</time>
      </trkpt>
      <trkpt lat="45.9283" lon="4.73006">
        <ele>170</ele>
        <time>2017-04-03T10:35:55Z</time>
      </trkpt>
      <trkpt lat="45.9283" lon="4.72997">
        <ele>170</ele>
        <time>2017-04-03T10:35:56Z</time>
      </trkpt>
      <trkpt lat="45.92829" lon="4.72989">
        <ele>170</ele>
        <time>2017-04-03T10:35:57Z</time>
      </trkpt>
      <trkpt lat="45.92829" lon="4.7298">
        <ele>170</ele>
        <time>2017-04-03T10:35:58Z</time>
      </trkpt>
      <trkpt lat="45.92828" lon="4.72972">
        <ele>170</ele>
        <time>2017-04-03T10:35:59Z</time>
      </trkpt>
      <trkpt lat="45.92827" lon="4.72965">
        <ele>170</ele>
        <time>2017-04-03T10:36:00Z</time>
      </trkpt>
      <trkpt lat="45.92827" lon="4.72957">
        <ele>170</ele>
        <time>2017-04-03T10:36:01Z</time>
      </trkpt>
      <trkpt lat="45.92826" lon="4.72948">
        <ele>170</ele>
        <time>2017-04-03T10:36:02Z</time>
      </trkpt>
      <trkpt lat="45.92825" lon="4.7294">
        <ele>170</ele>
        <time>2017-04-03T10:36:03Z</time>
      </trkpt>
      <trkpt lat="45.92824" lon="4.72931">
        <ele>170</ele>
        <time>2017-04-03T10:36:04Z</time>
      </trkpt>
      <trkpt lat="45.92823" lon="4.72923">
        <ele>170</ele>
        <time>2017-04-03T10:36:05Z</time>
      </trkpt>
      <trkpt lat="45.92822" lon="4.72914">
        <ele>170</ele>
        <time>2017-04-03T10:36:06Z</time>
      </trkpt>
      <trkpt lat="45.92821" lon="4.72906">
        <ele>170</ele>
        <time>2017-04-03T10:36:07Z</time>
      </trkpt>
      <trkpt lat="45.9282" lon="4.72897">
        <ele>170</ele>
        <time>2017-04-03T10:36:08Z</time>
      </trkpt>
      <trkpt lat="45.92819" lon="4.72889">
        <ele>170</ele>
        <time>2017-04-03T10:36:09Z</time>
      </trkpt>
      <trkpt lat="45.92818" lon="4.72881">
        <ele>170</ele>
        <time>2017-04-03T10:36:10Z</time>
      </trkpt>
      <trkpt lat="45.92817" lon="4.72873">
        <ele>170</ele>
        <time>2017-04-03T10:36:11Z</time>
      </trkpt>
      <trkpt lat="45.92815" lon="4.72865">
        <ele>170</ele>
        <time>2017-04-03T10:36:12Z</time>
      </trkpt>
      <trkpt lat="45.92813" lon="4.72858">
        <ele>170</ele>
        <time>2017-04-03T10:36:13Z</time>
      </trkpt>
      <trkpt lat="45.92812" lon="4.7285">
        <ele>170</ele>
        <time>2017-04-03T10:36:14Z</time>
      </trkpt>
      <trkpt lat="45.92811" lon="4.72843">
        <ele>170</ele>
        <time>2017-04-03T10:36:15Z</time>
      </trkpt>
      <trkpt lat="45.92809" lon="4.72836">
        <ele>170</ele>
        <time>2017-04-03T10:36:16Z</time>
      </trkpt>
      <trkpt lat="45.92808" lon="4.72829">
        <ele>171</ele>
        <time>2017-04-03T10:36:17Z</time>
      </trkpt>
      <trkpt lat="45.92807" lon="4.72822">
        <ele>171</ele>
        <time>2017-04-03T10:36:18Z</time>
      </trkpt>
      <trkpt lat="45.92805" lon="4.72815">
        <ele>171</ele>
        <time>2017-04-03T10:36:19Z</time>
      </trkpt>
      <trkpt lat="45.92804" lon="4.72807">
        <ele>171</ele>
        <time>2017-04-03T10:36:20Z</time>
      </trkpt>
      <trkpt lat="45.92803" lon="4.728">
        <ele>171</ele>
        <time>2017-04-03T10:36:21Z</time>
      </trkpt>
      <trkpt lat="45.92801" lon="4.72793">
        <ele>171</ele>
        <time>2017-04-03T10:36:22Z</time>
      </trkpt>
      <trkpt lat="45.92798" lon="4.72788">
        <ele>171</ele>
        <time>2017-04-03T10:36:23Z</time>
      </trkpt>
      <trkpt lat="45.9279" lon="4.72786">
        <ele>171</ele>
        <time>2017-04-03T10:36:26Z</time>
      </trkpt>
      <trkpt lat="45.92786" lon="4.72788">
        <ele>170</ele>
        <time>2017-04-03T10:36:27Z</time>
      </trkpt>
      <trkpt lat="45.92782" lon="4.72792">
        <ele>170</ele>
        <time>2017-04-03T10:36:28Z</time>
      </trkpt>
      <trkpt lat="45.92778" lon="4.72795">
        <ele>170</ele>
        <time>2017-04-03T10:36:29Z</time>
      </trkpt>
      <trkpt lat="45.92773" lon="4.72799">
        <ele>170</ele>
        <time>2017-04-03T10:36:30Z</time>
      </trkpt>
      <trkpt lat="45.92769" lon="4.72803">
        <ele>170</ele>
        <time>2017-04-03T10:36:31Z</time>
      </trkpt>
      <trkpt lat="45.92764" lon="4.72807">
        <ele>170</ele>
        <time>2017-04-03T10:36:32Z</time>
      </trkpt>
      <trkpt lat="45.9276" lon="4.72811">
        <ele>170</ele>
        <time>2017-04-03T10:36:33Z</time>
      </trkpt>
      <trkpt lat="45.92755" lon="4.72815">
        <ele>170</ele>
        <time>2017-04-03T10:36:34Z</time>
      </trkpt>
      <trkpt lat="45.9275" lon="4.72819">
        <ele>169</ele>
        <time>2017-04-03T10:36:35Z</time>
      </trkpt>
      <trkpt lat="45.92744" lon="4.72824">
        <ele>169</ele>
        <time>2017-04-03T10:36:36Z</time>
      </trkpt>
      <trkpt lat="45.92739" lon="4.72828">
        <ele>169</ele>
        <time>2017-04-03T10:36:37Z</time>
      </trkpt>
      <trkpt lat="45.92734" lon="4.72832">
        <ele>169</ele>
        <time>2017-04-03T10:36:38Z</time>
      </trkpt>
      <trkpt lat="45.92728" lon="4.72836">
        <ele>169</ele>
        <time>2017-04-03T10:36:39Z</time>
      </trkpt>
      <trkpt lat="45.92723" lon="4.7284">
        <ele>169</ele>
        <time>2017-04-03T10:36:40Z</time>
      </trkpt>
      <trkpt lat="45.92718" lon="4.72844">
        <ele>169</ele>
        <time>2017-04-03T10:36:41Z</time>
      </trkpt>
      <trkpt lat="45.92713" lon="4.72849">
        <ele>169</ele>
        <time>2017-04-03T10:36:42Z</time>
      </trkpt>
      <trkpt lat="45.92709" lon="4.72853">
        <ele>169</ele>
        <time>2017-04-03T10:36:43Z</time>
      </trkpt>
      <trkpt lat="45.92704" lon="4.72858">
        <ele>169</ele>
        <time>2017-04-03T10:36:44Z</time>
      </trkpt>
      <trkpt lat="45.92699" lon="4.72862">
        <ele>169</ele>
        <time>2017-04-03T10:36:45Z</time>
      </trkpt>
      <trkpt lat="45.92694" lon="4.72865">
        <ele>169</ele>
        <time>2017-04-03T10:36:46Z</time>
      </trkpt>
      <trkpt lat="45.92689" lon="4.72869">
        <ele>169</ele>
        <time>2017-04-03T10:36:47Z</time>
      </trkpt>
      <trkpt lat="45.92684" lon="4.72873">
        <ele>169</ele>
        <time>2017-04-03T10:36:48Z</time>
      </trkpt>
      <trkpt lat="45.92679" lon="4.72876">
        <ele>170</ele>
        <time>2017-04-03T10:36:49Z</time>
      </trkpt>
      <trkpt lat="45.92674" lon="4.7288">
        <ele>170</ele>
        <time>2017-04-03T10:36:50Z</time>
      </trkpt>
      <trkpt lat="45.92669" lon="4.72884">
        <ele>170</ele>
        <time>2017-04-03T10:36:51Z</time>
      </trkpt>
      <trkpt lat="45.92664" lon="4.72887">
        <ele>169</ele>
        <time>2017-04-03T10:36:52Z</time>
      </trkpt>
      <trkpt lat="45.92659" lon="4.72891">
        <ele>169</ele>
        <time>2017-04-03T10:36:53Z</time>
      </trkpt>
      <trkpt lat="45.92654" lon="4.72895">
        <ele>170</ele>
        <time>2017-04-03T10:36:54Z</time>
      </trkpt>
      <trkpt lat="45.92648" lon="4.729">
        <ele>169</ele>
        <time>2017-04-03T10:36:55Z</time>
      </trkpt>
      <trkpt lat="45.92642" lon="4.72904">
        <ele>169</ele>
        <time>2017-04-03T10:36:56Z</time>
      </trkpt>
      <trkpt lat="45.92637" lon="4.72909">
        <ele>169</ele>
        <time>2017-04-03T10:36:57Z</time>
      </trkpt>
      <trkpt lat="45.92631" lon="4.72914">
        <ele>169</ele>
        <time>2017-04-03T10:36:58Z</time>
      </trkpt>
      <trkpt lat="45.92626" lon="4.72918">
        <ele>170</ele>
        <time>2017-04-03T10:36:59Z</time>
      </trkpt>
      <trkpt lat="45.9262" lon="4.72924">
        <ele>169</ele>
        <time>2017-04-03T10:37:00Z</time>
      </trkpt>
      <trkpt lat="45.92614" lon="4.72929">
        <ele>169</ele>
        <time>2017-04-03T10:37:01Z</time>
      </trkpt>
      <trkpt lat="45.92609" lon="4.72934">
        <ele>169</ele>
        <time>2017-04-03T10:37:02Z</time>
      </trkpt>
      <trkpt lat="45.92603" lon="4.7294">
        <ele>169</ele>
        <time>2017-04-03T10:37:03Z</time>
      </trkpt>
      <trkpt lat="45.92597" lon="4.72946">
        <ele>169</ele>
        <time>2017-04-03T10:37:04Z</time>
      </trkpt>
      <trkpt lat="45.92592" lon="4.72952">
        <ele>169</ele>
        <time>2017-04-03T10:37:05Z</time>
      </trkpt>
      <trkpt lat="45.92586" lon="4.72958">
        <ele>169</ele>
        <time>2017-04-03T10:37:06Z</time>
      </trkpt>
      <trkpt lat="45.92581" lon="4.72963">
        <ele>169</ele>
        <time>2017-04-03T10:37:07Z</time>
      </trkpt>
      <trkpt lat="45.92576" lon="4.72969">
        <ele>169</ele>
        <time>2017-04-03T10:37:08Z</time>
      </trkpt>
      <trkpt lat="45.92571" lon="4.72974">
        <ele>169</ele>
        <time>2017-04-03T10:37:09Z</time>
      </trkpt>
      <trkpt lat="45.92566" lon="4.72979">
        <ele>169</ele>
        <time>2017-04-03T10:37:10Z</time>
      </trkpt>
      <trkpt lat="45.92561" lon="4.72984">
        <ele>169</ele>
        <time>2017-04-03T10:37:11Z</time>
      </trkpt>
      <trkpt lat="45.92557" lon="4.72989">
        <ele>169</ele>
        <time>2017-04-03T10:37:12Z</time>
      </trkpt>
      <trkpt lat="45.92552" lon="4.72995">
        <ele>169</ele>
        <time>2017-04-03T10:37:13Z</time>
      </trkpt>
      <trkpt lat="45.92547" lon="4.73">
        <ele>169</ele>
        <time>2017-04-03T10:37:14Z</time>
      </trkpt>
      <trkpt lat="45.92541" lon="4.73005">
        <ele>169</ele>
        <time>2017-04-03T10:37:15Z</time>
      </trkpt>
      <trkpt lat="45.92536" lon="4.73011">
        <ele>169</ele>
        <time>2017-04-03T10:37:16Z</time>
      </trkpt>
      <trkpt lat="45.92531" lon="4.73016">
        <ele>169</ele>
        <time>2017-04-03T10:37:17Z</time>
      </trkpt>
      <trkpt lat="45.92526" lon="4.7302">
        <ele>169</ele>
        <time>2017-04-03T10:37:18Z</time>
      </trkpt>
      <trkpt lat="45.9252" lon="4.73025">
        <ele>169</ele>
        <time>2017-04-03T10:37:19Z</time>
      </trkpt>
      <trkpt lat="45.92515" lon="4.7303">
        <ele>169</ele>
        <time>2017-04-03T10:37:20Z</time>
      </trkpt>
      <trkpt lat="45.92509" lon="4.73034">
        <ele>169</ele>
        <time>2017-04-03T10:37:21Z</time>
      </trkpt>
      <trkpt lat="45.92504" lon="4.73039">
        <ele>169</ele>
        <time>2017-04-03T10:37:22Z</time>
      </trkpt>
      <trkpt lat="45.92499" lon="4.73044">
        <ele>170</ele>
        <time>2017-04-03T10:37:23Z</time>
      </trkpt>
      <trkpt lat="45.92494" lon="4.73048">
        <ele>170</ele>
        <time>2017-04-03T10:37:24Z</time>
      </trkpt>
      <trkpt lat="45.92488" lon="4.73053">
        <ele>170</ele>
        <time>2017-04-03T10:37:25Z</time>
      </trkpt>
      <trkpt lat="45.92483" lon="4.73056">
        <ele>170</ele>
        <time>2017-04-03T10:37:26Z</time>
      </trkpt>
      <trkpt lat="45.92478" lon="4.73061">
        <ele>170</ele>
        <time>2017-04-03T10:37:27Z</time>
      </trkpt>
      <trkpt lat="45.92473" lon="4.73066">
        <ele>170</ele>
        <time>2017-04-03T10:37:28Z</time>
      </trkpt>
      <trkpt lat="45.92467" lon="4.73071">
        <ele>170</ele>
        <time>2017-04-03T10:37:29Z</time>
      </trkpt>
      <trkpt lat="45.92462" lon="4.73076">
        <ele>170</ele>
        <time>2017-04-03T10:37:30Z</time>
      </trkpt>
      <trkpt lat="45.92456" lon="4.73081">
        <ele>170</ele>
        <time>2017-04-03T10:37:31Z</time>
      </trkpt>
      <trkpt lat="45.92451" lon="4.73086">
        <ele>170</ele>
        <time>2017-04-03T10:37:32Z</time>
      </trkpt>
      <trkpt lat="45.92445" lon="4.73091">
        <ele>170</ele>
        <time>2017-04-03T10:37:33Z</time>
      </trkpt>
      <trkpt lat="45.9244" lon="4.73096">
        <ele>170</ele>
        <time>2017-04-03T10:37:34Z</time>
      </trkpt>
      <trkpt lat="45.92434" lon="4.73101">
        <ele>171</ele>
        <time>2017-04-03T10:37:35Z</time>
      </trkpt>
      <trkpt lat="45.92429" lon="4.73105">
        <ele>171</ele>
        <time>2017-04-03T10:37:36Z</time>
      </trkpt>
      <trkpt lat="45.92423" lon="4.73109">
        <ele>170</ele>
        <time>2017-04-03T10:37:37Z</time>
      </trkpt>
      <trkpt lat="45.92419" lon="4.73113">
        <ele>170</ele>
        <time>2017-04-03T10:37:38Z</time>
      </trkpt>
      <trkpt lat="45.92415" lon="4.73119">
        <ele>171</ele>
        <time>2017-04-03T10:37:39Z</time>
      </trkpt>
      <trkpt lat="45.92411" lon="4.73126">
        <ele>171</ele>
        <time>2017-04-03T10:37:40Z</time>
      </trkpt>
      <trkpt lat="45.92409" lon="4.73135">
        <ele>171</ele>
        <time>2017-04-03T10:37:41Z</time>
      </trkpt>
      <trkpt lat="45.92408" lon="4.73143">
        <ele>171</ele>
        <time>2017-04-03T10:37:42Z</time>
      </trkpt>
      <trkpt lat="45.92408" lon="4.73152">
        <ele>171</ele>
        <time>2017-04-03T10:37:43Z</time>
      </trkpt>
      <trkpt lat="45.92408" lon="4.7316">
        <ele>170</ele>
        <time>2017-04-03T10:37:44Z</time>
      </trkpt>
      <trkpt lat="45.92407" lon="4.73168">
        <ele>170</ele>
        <time>2017-04-03T10:37:45Z</time>
      </trkpt>
      <trkpt lat="45.92407" lon="4.73176">
        <ele>171</ele>
        <time>2017-04-03T10:37:46Z</time>
      </trkpt>
      <trkpt lat="45.92408" lon="4.73184">
        <ele>171</ele>
        <time>2017-04-03T10:37:47Z</time>
      </trkpt>
      <trkpt lat="45.92408" lon="4.73192">
        <ele>171</ele>
        <time>2017-04-03T10:37:48Z</time>
      </trkpt>
      <trkpt lat="45.92408" lon="4.73201">
        <ele>171</ele>
        <time>2017-04-03T10:37:49Z</time>
      </trkpt>
      <trkpt lat="45.92409" lon="4.73209">
        <ele>171</ele>
        <time>2017-04-03T10:37:50Z</time>
      </trkpt>
      <trkpt lat="45.92409" lon="4.73218">
        <ele>171</ele>
        <time>2017-04-03T10:37:51Z</time>
      </trkpt>
      <trkpt lat="45.92409" lon="4.73227">
        <ele>171</ele>
        <time>2017-04-03T10:37:52Z</time>
      </trkpt>
      <trkpt lat="45.9241" lon="4.73235">
        <ele>171</ele>
        <time>2017-04-03T10:37:53Z</time>
      </trkpt>
      <trkpt lat="45.9241" lon="4.73244">
        <ele>171</ele>
        <time>2017-04-03T10:37:54Z</time>
      </trkpt>
      <trkpt lat="45.9241" lon="4.73251">
        <ele>171</ele>
        <time>2017-04-03T10:37:55Z</time>
      </trkpt>
      <trkpt lat="45.9241" lon="4.73259">
        <ele>171</ele>
        <time>2017-04-03T10:37:56Z</time>
      </trkpt>
      <trkpt lat="45.9241" lon="4.73266">
        <ele>171</ele>
        <time>2017-04-03T10:37:57Z</time>
      </trkpt>
      <trkpt lat="45.92411" lon="4.73273">
        <ele>171</ele>
        <time>2017-04-03T10:37:58Z</time>
      </trkpt>
      <trkpt lat="45.92412" lon="4.7328">
        <ele>171</ele>
        <time>2017-04-03T10:37:59Z</time>
      </trkpt>
      <trkpt lat="45.92412" lon="4.73287">
        <ele>171</ele>
        <time>2017-04-03T10:38:00Z</time>
      </trkpt>
      <trkpt lat="45.92413" lon="4.73294">
        <ele>171</ele>
        <time>2017-04-03T10:38:01Z</time>
      </trkpt>
      <trkpt lat="45.92413" lon="4.733">
        <ele>171</ele>
        <time>2017-04-03T10:38:02Z</time>
      </trkpt>
      <trkpt lat="45.92413" lon="4.73308">
        <ele>171</ele>
        <time>2017-04-03T10:38:03Z</time>
      </trkpt>
      <trkpt lat="45.92414" lon="4.73315">
        <ele>171</ele>
        <time>2017-04-03T10:38:04Z</time>
      </trkpt>
      <trkpt lat="45.92414" lon="4.73323">
        <ele>171</ele>
        <time>2017-04-03T10:38:05Z</time>
      </trkpt>
      <trkpt lat="45.92415" lon="4.73331">
        <ele>171</ele>
        <time>2017-04-03T10:38:06Z</time>
      </trkpt>
      <trkpt lat="45.92416" lon="4.73338">
        <ele>171</ele>
        <time>2017-04-03T10:38:07Z</time>
      </trkpt>
      <trkpt lat="45.92417" lon="4.73346">
        <ele>171</ele>
        <time>2017-04-03T10:38:08Z</time>
      </trkpt>
      <trkpt lat="45.92419" lon="4.73354">
        <ele>171</ele>
        <time>2017-04-03T10:38:09Z</time>
      </trkpt>
      <trkpt lat="45.9242" lon="4.73362">
        <ele>172</ele>
        <time>2017-04-03T10:38:10Z</time>
      </trkpt>
      <trkpt lat="45.92421" lon="4.7337">
        <ele>172</ele>
        <time>2017-04-03T10:38:11Z</time>
      </trkpt>
      <trkpt lat="45.92423" lon="4.73378">
        <ele>172</ele>
        <time>2017-04-03T10:38:12Z</time>
      </trkpt>
      <trkpt lat="45.92424" lon="4.73386">
        <ele>172</ele>
        <time>2017-04-03T10:38:13Z</time>
      </trkpt>
      <trkpt lat="45.92425" lon="4.73393">
        <ele>172</ele>
        <time>2017-04-03T10:38:14Z</time>
      </trkpt>
      <trkpt lat="45.92426" lon="4.734">
        <ele>172</ele>
        <time>2017-04-03T10:38:15Z</time>
      </trkpt>
      <trkpt lat="45.92429" lon="4.73407">
        <ele>172</ele>
        <time>2017-04-03T10:38:16Z</time>
      </trkpt>
      <trkpt lat="45.92432" lon="4.73411">
        <ele>172</ele>
        <time>2017-04-03T10:38:17Z</time>
      </trkpt>
      <trkpt lat="45.92439" lon="4.73418">
        <ele>173</ele>
        <time>2017-04-03T10:38:19Z</time>
      </trkpt>
      <trkpt lat="45.92443" lon="4.7342">
        <ele>173</ele>
        <time>2017-04-03T10:38:20Z</time>
      </trkpt>
      <trkpt lat="45.9245" lon="4.73425">
        <ele>173</ele>
        <time>2017-04-03T10:38:22Z</time>
      </trkpt>
      <trkpt lat="45.92454" lon="4.73428">
        <ele>173</ele>
        <time>2017-04-03T10:38:23Z</time>
      </trkpt>
      <trkpt lat="45.9246" lon="4.73437">
        <ele>173</ele>
        <time>2017-04-03T10:38:25Z</time>
      </trkpt>
      <trkpt lat="45.92462" lon="4.73442">
        <ele>173</ele>
        <time>2017-04-03T10:38:26Z</time>
      </trkpt>
      <trkpt lat="45.92465" lon="4.73454">
        <ele>173</ele>
        <time>2017-04-03T10:38:28Z</time>
      </trkpt>
      <trkpt lat="45.92466" lon="4.73462">
        <ele>173</ele>
        <time>2017-04-03T10:38:29Z</time>
      </trkpt>
      <trkpt lat="45.92466" lon="4.73468">
        <ele>173</ele>
        <time>2017-04-03T10:38:30Z</time>
      </trkpt>
      <trkpt lat="45.92466" lon="4.73475">
        <ele>173</ele>
        <time>2017-04-03T10:38:31Z</time>
      </trkpt>
      <trkpt lat="45.92466" lon="4.73482">
        <ele>173</ele>
        <time>2017-04-03T10:38:32Z</time>
      </trkpt>
      <trkpt lat="45.92467" lon="4.7349">
        <ele>173</ele>
        <time>2017-04-03T10:38:33Z</time>
      </trkpt>
      <trkpt lat="45.92467" lon="4.73498">
        <ele>173</ele>
        <time>2017-04-03T10:38:34Z</time>
      </trkpt>
      <trkpt lat="45.92467" lon="4.73506">
        <ele>174</ele>
        <time>2017-04-03T10:38:35Z</time>
      </trkpt>
      <trkpt lat="45.92466" lon="4.73514">
        <ele>174</ele>
        <time>2017-04-03T10:38:36Z</time>
      </trkpt>
      <trkpt lat="45.92466" lon="4.73522">
        <ele>174</ele>
        <time>2017-04-03T10:38:37Z</time>
      </trkpt>
      <trkpt lat="45.92467" lon="4.73529">
        <ele>174</ele>
        <time>2017-04-03T10:38:38Z</time>
      </trkpt>
      <trkpt lat="45.92466" lon="4.73536">
        <ele>174</ele>
        <time>2017-04-03T10:38:39Z</time>
      </trkpt>
      <trkpt lat="45.92465" lon="4.73547">
        <ele>173</ele>
        <time>2017-04-03T10:38:41Z</time>
      </trkpt>
      <trkpt lat="45.92465" lon="4.73553">
        <ele>173</ele>
        <time>2017-04-03T10:38:42Z</time>
      </trkpt>
      <trkpt lat="45.92465" lon="4.73559">
        <ele>173</ele>
        <time>2017-04-03T10:38:43Z</time>
      </trkpt>
      <trkpt lat="45.92465" lon="4.73566">
        <ele>173</ele>
        <time>2017-04-03T10:38:44Z</time>
      </trkpt>
      <trkpt lat="45.92466" lon="4.73573">
        <ele>173</ele>
        <time>2017-04-03T10:38:45Z</time>
      </trkpt>
      <trkpt lat="45.92466" lon="4.7358">
        <ele>173</ele>
        <time>2017-04-03T10:38:46Z</time>
      </trkpt>
      <trkpt lat="45.92466" lon="4.73587">
        <ele>174</ele>
        <time>2017-04-03T10:38:47Z</time>
      </trkpt>
      <trkpt lat="45.92466" lon="4.73594">
        <ele>174</ele>
        <time>2017-04-03T10:38:48Z</time>
      </trkpt>
      <trkpt lat="45.92467" lon="4.73601">
        <ele>174</ele>
        <time>2017-04-03T10:38:49Z</time>
      </trkpt>
      <trkpt lat="45.92466" lon="4.73608">
        <ele>174</ele>
        <time>2017-04-03T10:38:50Z</time>
      </trkpt>
      <trkpt lat="45.92466" lon="4.73615">
        <ele>174</ele>
        <time>2017-04-03T10:38:51Z</time>
      </trkpt>
      <trkpt lat="45.92467" lon="4.73622">
        <ele>174</ele>
        <time>2017-04-03T10:38:52Z</time>
      </trkpt>
      <trkpt lat="45.92467" lon="4.73634">
        <ele>174</ele>
        <time>2017-04-03T10:38:54Z</time>
      </trkpt>
      <trkpt lat="45.92467" lon="4.7364">
        <ele>174</ele>
        <time>2017-04-03T10:38:55Z</time>
      </trkpt>
      <trkpt lat="45.92467" lon="4.73651">
        <ele>174</ele>
        <time>2017-04-03T10:38:57Z</time>
      </trkpt>
      <trkpt lat="45.92466" lon="4.73658">
        <ele>174</ele>
        <time>2017-04-03T10:38:58Z</time>
      </trkpt>
      <trkpt lat="45.92466" lon="4.73669">
        <ele>174</ele>
        <time>2017-04-03T10:39:00Z</time>
      </trkpt>
      <trkpt lat="45.92465" lon="4.73675">
        <ele>174</ele>
        <time>2017-04-03T10:39:01Z</time>
      </trkpt>
      <trkpt lat="45.92463" lon="4.73687">
        <ele>174</ele>
        <time>2017-04-03T10:39:03Z</time>
      </trkpt>
      <trkpt lat="45.92462" lon="4.73693">
        <ele>174</ele>
        <time>2017-04-03T10:39:04Z</time>
      </trkpt>
      <trkpt lat="45.92463" lon="4.73702">
        <ele>174</ele>
        <time>2017-04-03T10:39:34.135Z</time>
      </trkpt>
    </trkseg>
  </trk>
</gpx>